<?xml version="1.0" encoding="UTF-8" standalone="no" ?>
<gpx xmlns="http://www.topografix.com/GPX/1/1" xmlns:xsi="http://www.w3.org/2001/XMLSchema-instance" xsi:schemaLocation="http://www.topografix.com/GPX/1/1 http://www.topografix.com/GPX/1/1/gpx.xsd" version="1.1" creator="VisuGPX - https://www.visugpx.com">
  <metadata>
    <name>Lac d'Issarles</name>
    <desc><![CDATA[Vent du Nord très violent avec des rafales sup à 70 km/, plein face !
Très beau]]></desc>
  </metadata>
  <trk>
    <name><![CDATA[Lac d'issarles]]></name>
    <trkseg>
      <trkpt lat="44.72507" lon="4.5989">
        <ele>246.5</ele>
        <time>2022-06-09T05:55:58Z</time>
      </trkpt>
      <trkpt lat="44.72506" lon="4.59889">
        <ele>246.5</ele>
        <time>2022-06-09T05:55:59Z</time>
      </trkpt>
      <trkpt lat="44.72507" lon="4.59888">
        <ele>246.5</ele>
        <time>2022-06-09T05:56:00Z</time>
      </trkpt>
      <trkpt lat="44.72507" lon="4.59886">
        <ele>246.5</ele>
        <time>2022-06-09T05:56:01Z</time>
      </trkpt>
      <trkpt lat="44.72509" lon="4.59889">
        <ele>246.6</ele>
        <time>2022-06-09T05:56:02Z</time>
      </trkpt>
      <trkpt lat="44.72512" lon="4.59892">
        <ele>246.6</ele>
        <time>2022-06-09T05:56:03Z</time>
      </trkpt>
      <trkpt lat="44.72513" lon="4.59894">
        <ele>246.7</ele>
        <time>2022-06-09T05:56:04Z</time>
      </trkpt>
      <trkpt lat="44.72517" lon="4.59893">
        <ele>246.7</ele>
        <time>2022-06-09T05:56:05Z</time>
      </trkpt>
      <trkpt lat="44.72518" lon="4.59893">
        <ele>246.7</ele>
        <time>2022-06-09T05:56:06Z</time>
      </trkpt>
      <trkpt lat="44.72518" lon="4.59894">
        <ele>246.7</ele>
        <time>2022-06-09T05:56:07Z</time>
      </trkpt>
      <trkpt lat="44.72518" lon="4.59895">
        <ele>246.7</ele>
        <time>2022-06-09T05:56:08Z</time>
      </trkpt>
      <trkpt lat="44.72517" lon="4.59895">
        <ele>246.7</ele>
        <time>2022-06-09T05:56:09Z</time>
      </trkpt>
      <trkpt lat="44.72515" lon="4.59896">
        <ele>246.7</ele>
        <time>2022-06-09T05:56:10Z</time>
      </trkpt>
      <trkpt lat="44.72513" lon="4.59895">
        <ele>246.6</ele>
        <time>2022-06-09T05:56:11Z</time>
      </trkpt>
      <trkpt lat="44.72513" lon="4.59895">
        <ele>246.6</ele>
        <time>2022-06-09T05:56:12Z</time>
      </trkpt>
      <trkpt lat="44.72513" lon="4.59895">
        <ele>246.6</ele>
        <time>2022-06-09T05:56:13Z</time>
      </trkpt>
      <trkpt lat="44.72513" lon="4.59895">
        <ele>246.6</ele>
        <time>2022-06-09T05:56:14Z</time>
      </trkpt>
      <trkpt lat="44.72513" lon="4.59895">
        <ele>246.6</ele>
        <time>2022-06-09T05:56:15Z</time>
      </trkpt>
      <trkpt lat="44.72513" lon="4.59895">
        <ele>246.6</ele>
        <time>2022-06-09T05:56:16Z</time>
      </trkpt>
      <trkpt lat="44.72513" lon="4.59895">
        <ele>246.6</ele>
        <time>2022-06-09T05:56:17Z</time>
      </trkpt>
      <trkpt lat="44.72513" lon="4.59895">
        <ele>246.6</ele>
        <time>2022-06-09T05:56:18Z</time>
      </trkpt>
      <trkpt lat="44.72513" lon="4.59895">
        <ele>246.6</ele>
        <time>2022-06-09T05:56:19Z</time>
      </trkpt>
      <trkpt lat="44.72513" lon="4.59895">
        <ele>246.6</ele>
        <time>2022-06-09T05:56:20Z</time>
      </trkpt>
      <trkpt lat="44.72513" lon="4.59895">
        <ele>246.6</ele>
        <time>2022-06-09T05:56:21Z</time>
      </trkpt>
      <trkpt lat="44.72513" lon="4.59895">
        <ele>246.6</ele>
        <time>2022-06-09T05:56:22Z</time>
      </trkpt>
      <trkpt lat="44.72512" lon="4.59892">
        <ele>246.6</ele>
        <time>2022-06-09T06:06:41Z</time>
      </trkpt>
      <trkpt lat="44.72513" lon="4.59891">
        <ele>246.6</ele>
        <time>2022-06-09T06:06:43Z</time>
      </trkpt>
      <trkpt lat="44.72515" lon="4.59891">
        <ele>246.5</ele>
        <time>2022-06-09T06:06:44Z</time>
      </trkpt>
      <trkpt lat="44.72517" lon="4.5989">
        <ele>246.5</ele>
        <time>2022-06-09T06:06:46Z</time>
      </trkpt>
      <trkpt lat="44.7252" lon="4.5989">
        <ele>246.5</ele>
        <time>2022-06-09T06:06:48Z</time>
      </trkpt>
      <trkpt lat="44.72521" lon="4.5989">
        <ele>246.4</ele>
        <time>2022-06-09T06:06:49Z</time>
      </trkpt>
      <trkpt lat="44.72522" lon="4.5989">
        <ele>246.4</ele>
        <time>2022-06-09T06:06:50Z</time>
      </trkpt>
      <trkpt lat="44.72524" lon="4.5989">
        <ele>246.4</ele>
        <time>2022-06-09T06:06:51Z</time>
      </trkpt>
      <trkpt lat="44.72525" lon="4.59889">
        <ele>246.4</ele>
        <time>2022-06-09T06:06:53Z</time>
      </trkpt>
      <trkpt lat="44.72526" lon="4.59889">
        <ele>246.4</ele>
        <time>2022-06-09T06:06:54Z</time>
      </trkpt>
      <trkpt lat="44.72527" lon="4.59889">
        <ele>246.4</ele>
        <time>2022-06-09T06:06:55Z</time>
      </trkpt>
      <trkpt lat="44.72526" lon="4.5989">
        <ele>246.4</ele>
        <time>2022-06-09T06:06:56Z</time>
      </trkpt>
      <trkpt lat="44.72526" lon="4.5989">
        <ele>246.4</ele>
        <time>2022-06-09T06:06:57Z</time>
      </trkpt>
      <trkpt lat="44.72526" lon="4.5989">
        <ele>246.4</ele>
        <time>2022-06-09T06:06:58Z</time>
      </trkpt>
      <trkpt lat="44.72527" lon="4.5989">
        <ele>246.4</ele>
        <time>2022-06-09T06:07:00Z</time>
      </trkpt>
      <trkpt lat="44.72528" lon="4.59891">
        <ele>246.3</ele>
        <time>2022-06-09T06:07:01Z</time>
      </trkpt>
      <trkpt lat="44.72529" lon="4.59891">
        <ele>246.3</ele>
        <time>2022-06-09T06:07:02Z</time>
      </trkpt>
      <trkpt lat="44.72534" lon="4.59891">
        <ele>246.3</ele>
        <time>2022-06-09T06:07:03Z</time>
      </trkpt>
      <trkpt lat="44.72536" lon="4.59891">
        <ele>246.3</ele>
        <time>2022-06-09T06:07:04Z</time>
      </trkpt>
      <trkpt lat="44.72539" lon="4.5989">
        <ele>246.2</ele>
        <time>2022-06-09T06:07:06Z</time>
      </trkpt>
      <trkpt lat="44.72542" lon="4.5989">
        <ele>246.2</ele>
        <time>2022-06-09T06:07:07Z</time>
      </trkpt>
      <trkpt lat="44.72543" lon="4.5989">
        <ele>246.2</ele>
        <time>2022-06-09T06:07:08Z</time>
      </trkpt>
      <trkpt lat="44.72549" lon="4.5989">
        <ele>246.1</ele>
        <time>2022-06-09T06:07:09Z</time>
      </trkpt>
      <trkpt lat="44.72551" lon="4.5989">
        <ele>246.1</ele>
        <time>2022-06-09T06:07:10Z</time>
      </trkpt>
      <trkpt lat="44.72554" lon="4.59891">
        <ele>246.1</ele>
        <time>2022-06-09T06:07:12Z</time>
      </trkpt>
      <trkpt lat="44.72558" lon="4.59891">
        <ele>246.1</ele>
        <time>2022-06-09T06:07:13Z</time>
      </trkpt>
      <trkpt lat="44.72562" lon="4.59891">
        <ele>246.1</ele>
        <time>2022-06-09T06:07:14Z</time>
      </trkpt>
      <trkpt lat="44.72565" lon="4.59891">
        <ele>246.1</ele>
        <time>2022-06-09T06:07:15Z</time>
      </trkpt>
      <trkpt lat="44.72569" lon="4.5989">
        <ele>246.1</ele>
        <time>2022-06-09T06:07:16Z</time>
      </trkpt>
      <trkpt lat="44.72573" lon="4.59888">
        <ele>246.1</ele>
        <time>2022-06-09T06:07:17Z</time>
      </trkpt>
      <trkpt lat="44.72576" lon="4.59888">
        <ele>246.1</ele>
        <time>2022-06-09T06:07:18Z</time>
      </trkpt>
      <trkpt lat="44.72579" lon="4.59886">
        <ele>246.1</ele>
        <time>2022-06-09T06:07:20Z</time>
      </trkpt>
      <trkpt lat="44.7258" lon="4.59885">
        <ele>246.1</ele>
        <time>2022-06-09T06:07:21Z</time>
      </trkpt>
      <trkpt lat="44.72584" lon="4.59884">
        <ele>246.1</ele>
        <time>2022-06-09T06:07:22Z</time>
      </trkpt>
      <trkpt lat="44.72586" lon="4.59885">
        <ele>246.1</ele>
        <time>2022-06-09T06:07:23Z</time>
      </trkpt>
      <trkpt lat="44.72587" lon="4.59887">
        <ele>246.1</ele>
        <time>2022-06-09T06:07:25Z</time>
      </trkpt>
      <trkpt lat="44.72588" lon="4.59888">
        <ele>246.2</ele>
        <time>2022-06-09T06:07:26Z</time>
      </trkpt>
      <trkpt lat="44.72589" lon="4.59889">
        <ele>246.2</ele>
        <time>2022-06-09T06:07:27Z</time>
      </trkpt>
      <trkpt lat="44.7259" lon="4.59889">
        <ele>246.2</ele>
        <time>2022-06-09T06:07:28Z</time>
      </trkpt>
      <trkpt lat="44.72591" lon="4.59889">
        <ele>246.2</ele>
        <time>2022-06-09T06:07:29Z</time>
      </trkpt>
      <trkpt lat="44.72591" lon="4.59889">
        <ele>246.2</ele>
        <time>2022-06-09T06:07:30Z</time>
      </trkpt>
      <trkpt lat="44.72591" lon="4.59888">
        <ele>246.2</ele>
        <time>2022-06-09T06:07:31Z</time>
      </trkpt>
      <trkpt lat="44.72591" lon="4.59888">
        <ele>246.2</ele>
        <time>2022-06-09T06:07:32Z</time>
      </trkpt>
      <trkpt lat="44.72591" lon="4.59887">
        <ele>246.2</ele>
        <time>2022-06-09T06:07:33Z</time>
      </trkpt>
      <trkpt lat="44.72592" lon="4.59887">
        <ele>246.2</ele>
        <time>2022-06-09T06:07:34Z</time>
      </trkpt>
      <trkpt lat="44.72592" lon="4.59887">
        <ele>246.2</ele>
        <time>2022-06-09T06:07:35Z</time>
      </trkpt>
      <trkpt lat="44.72592" lon="4.59886">
        <ele>246.2</ele>
        <time>2022-06-09T06:07:36Z</time>
      </trkpt>
      <trkpt lat="44.72592" lon="4.59886">
        <ele>246.2</ele>
        <time>2022-06-09T06:07:37Z</time>
      </trkpt>
      <trkpt lat="44.72592" lon="4.59886">
        <ele>246.2</ele>
        <time>2022-06-09T06:07:38Z</time>
      </trkpt>
      <trkpt lat="44.72592" lon="4.59885">
        <ele>246.2</ele>
        <time>2022-06-09T06:07:39Z</time>
      </trkpt>
      <trkpt lat="44.72593" lon="4.59885">
        <ele>246.2</ele>
        <time>2022-06-09T06:07:40Z</time>
      </trkpt>
      <trkpt lat="44.72593" lon="4.59884">
        <ele>246.2</ele>
        <time>2022-06-09T06:07:41Z</time>
      </trkpt>
      <trkpt lat="44.72593" lon="4.59884">
        <ele>246.3</ele>
        <time>2022-06-09T06:07:42Z</time>
      </trkpt>
      <trkpt lat="44.72593" lon="4.59884">
        <ele>246.3</ele>
        <time>2022-06-09T06:07:43Z</time>
      </trkpt>
      <trkpt lat="44.72593" lon="4.59883">
        <ele>246.3</ele>
        <time>2022-06-09T06:07:44Z</time>
      </trkpt>
      <trkpt lat="44.72594" lon="4.59883">
        <ele>246.3</ele>
        <time>2022-06-09T06:09:35Z</time>
      </trkpt>
      <trkpt lat="44.72594" lon="4.59882">
        <ele>246.3</ele>
        <time>2022-06-09T06:09:36Z</time>
      </trkpt>
      <trkpt lat="44.72594" lon="4.59882">
        <ele>246.3</ele>
        <time>2022-06-09T06:09:37Z</time>
      </trkpt>
      <trkpt lat="44.72594" lon="4.59882">
        <ele>246.3</ele>
        <time>2022-06-09T06:09:38Z</time>
      </trkpt>
      <trkpt lat="44.72595" lon="4.5988">
        <ele>246.3</ele>
        <time>2022-06-09T06:09:39Z</time>
      </trkpt>
      <trkpt lat="44.72597" lon="4.59878">
        <ele>246.4</ele>
        <time>2022-06-09T06:09:40Z</time>
      </trkpt>
      <trkpt lat="44.72598" lon="4.59876">
        <ele>246.4</ele>
        <time>2022-06-09T06:09:41Z</time>
      </trkpt>
      <trkpt lat="44.72599" lon="4.59875">
        <ele>246.5</ele>
        <time>2022-06-09T06:09:42Z</time>
      </trkpt>
      <trkpt lat="44.72601" lon="4.59873">
        <ele>246.6</ele>
        <time>2022-06-09T06:09:43Z</time>
      </trkpt>
      <trkpt lat="44.72602" lon="4.59872">
        <ele>246.6</ele>
        <time>2022-06-09T06:09:44Z</time>
      </trkpt>
      <trkpt lat="44.72605" lon="4.59869">
        <ele>246.7</ele>
        <time>2022-06-09T06:09:45Z</time>
      </trkpt>
      <trkpt lat="44.72606" lon="4.59868">
        <ele>246.7</ele>
        <time>2022-06-09T06:09:46Z</time>
      </trkpt>
      <trkpt lat="44.72607" lon="4.59863">
        <ele>246.9</ele>
        <time>2022-06-09T06:09:47Z</time>
      </trkpt>
      <trkpt lat="44.72608" lon="4.59861">
        <ele>247</ele>
        <time>2022-06-09T06:09:48Z</time>
      </trkpt>
      <trkpt lat="44.72609" lon="4.59858">
        <ele>247.1</ele>
        <time>2022-06-09T06:09:49Z</time>
      </trkpt>
      <trkpt lat="44.72609" lon="4.59855">
        <ele>247.2</ele>
        <time>2022-06-09T06:09:51Z</time>
      </trkpt>
      <trkpt lat="44.7261" lon="4.59853">
        <ele>247.3</ele>
        <time>2022-06-09T06:09:52Z</time>
      </trkpt>
      <trkpt lat="44.72612" lon="4.59849">
        <ele>247.5</ele>
        <time>2022-06-09T06:09:53Z</time>
      </trkpt>
      <trkpt lat="44.72612" lon="4.59846">
        <ele>247.7</ele>
        <time>2022-06-09T06:09:55Z</time>
      </trkpt>
      <trkpt lat="44.72613" lon="4.59844">
        <ele>247.8</ele>
        <time>2022-06-09T06:09:56Z</time>
      </trkpt>
      <trkpt lat="44.72614" lon="4.59841">
        <ele>248</ele>
        <time>2022-06-09T06:09:58Z</time>
      </trkpt>
      <trkpt lat="44.72614" lon="4.59838">
        <ele>248.1</ele>
        <time>2022-06-09T06:09:59Z</time>
      </trkpt>
      <trkpt lat="44.72615" lon="4.59837">
        <ele>248.2</ele>
        <time>2022-06-09T06:10:00Z</time>
      </trkpt>
      <trkpt lat="44.72615" lon="4.59835">
        <ele>248.3</ele>
        <time>2022-06-09T06:10:01Z</time>
      </trkpt>
      <trkpt lat="44.72616" lon="4.59833">
        <ele>248.5</ele>
        <time>2022-06-09T06:10:02Z</time>
      </trkpt>
      <trkpt lat="44.72616" lon="4.59831">
        <ele>248.6</ele>
        <time>2022-06-09T06:10:03Z</time>
      </trkpt>
      <trkpt lat="44.72618" lon="4.59828">
        <ele>248.9</ele>
        <time>2022-06-09T06:10:05Z</time>
      </trkpt>
      <trkpt lat="44.72619" lon="4.59826">
        <ele>249.1</ele>
        <time>2022-06-09T06:10:07Z</time>
      </trkpt>
      <trkpt lat="44.72621" lon="4.59822">
        <ele>249.4</ele>
        <time>2022-06-09T06:10:09Z</time>
      </trkpt>
      <trkpt lat="44.72622" lon="4.5982">
        <ele>249.6</ele>
        <time>2022-06-09T06:10:11Z</time>
      </trkpt>
      <trkpt lat="44.72622" lon="4.59818">
        <ele>249.8</ele>
        <time>2022-06-09T06:10:12Z</time>
      </trkpt>
      <trkpt lat="44.72623" lon="4.59817">
        <ele>249.9</ele>
        <time>2022-06-09T06:10:13Z</time>
      </trkpt>
      <trkpt lat="44.72623" lon="4.59815">
        <ele>250</ele>
        <time>2022-06-09T06:10:14Z</time>
      </trkpt>
      <trkpt lat="44.72624" lon="4.59812">
        <ele>250.3</ele>
        <time>2022-06-09T06:10:15Z</time>
      </trkpt>
      <trkpt lat="44.72624" lon="4.5981">
        <ele>250.4</ele>
        <time>2022-06-09T06:10:17Z</time>
      </trkpt>
      <trkpt lat="44.72624" lon="4.59809">
        <ele>250.5</ele>
        <time>2022-06-09T06:10:18Z</time>
      </trkpt>
      <trkpt lat="44.72625" lon="4.59806">
        <ele>250.8</ele>
        <time>2022-06-09T06:10:19Z</time>
      </trkpt>
      <trkpt lat="44.72625" lon="4.59805">
        <ele>250.8</ele>
        <time>2022-06-09T06:10:20Z</time>
      </trkpt>
      <trkpt lat="44.72626" lon="4.59804">
        <ele>250.9</ele>
        <time>2022-06-09T06:10:21Z</time>
      </trkpt>
      <trkpt lat="44.72627" lon="4.59802">
        <ele>251.1</ele>
        <time>2022-06-09T06:10:22Z</time>
      </trkpt>
      <trkpt lat="44.72627" lon="4.59801">
        <ele>251.2</ele>
        <time>2022-06-09T06:10:23Z</time>
      </trkpt>
      <trkpt lat="44.72628" lon="4.59799">
        <ele>251.4</ele>
        <time>2022-06-09T06:10:24Z</time>
      </trkpt>
      <trkpt lat="44.72629" lon="4.59798">
        <ele>251.5</ele>
        <time>2022-06-09T06:10:25Z</time>
      </trkpt>
      <trkpt lat="44.72629" lon="4.59797">
        <ele>251.6</ele>
        <time>2022-06-09T06:10:26Z</time>
      </trkpt>
      <trkpt lat="44.7263" lon="4.59794">
        <ele>251.9</ele>
        <time>2022-06-09T06:10:27Z</time>
      </trkpt>
      <trkpt lat="44.72631" lon="4.59793">
        <ele>252</ele>
        <time>2022-06-09T06:10:28Z</time>
      </trkpt>
      <trkpt lat="44.72632" lon="4.59792">
        <ele>252</ele>
        <time>2022-06-09T06:10:29Z</time>
      </trkpt>
      <trkpt lat="44.72633" lon="4.59788">
        <ele>252.4</ele>
        <time>2022-06-09T06:10:31Z</time>
      </trkpt>
      <trkpt lat="44.72634" lon="4.59787">
        <ele>252.5</ele>
        <time>2022-06-09T06:10:32Z</time>
      </trkpt>
      <trkpt lat="44.72635" lon="4.59785">
        <ele>252.6</ele>
        <time>2022-06-09T06:10:33Z</time>
      </trkpt>
      <trkpt lat="44.72635" lon="4.59782">
        <ele>252.8</ele>
        <time>2022-06-09T06:10:34Z</time>
      </trkpt>
      <trkpt lat="44.72636" lon="4.5978">
        <ele>253</ele>
        <time>2022-06-09T06:10:35Z</time>
      </trkpt>
      <trkpt lat="44.72637" lon="4.59778">
        <ele>253.1</ele>
        <time>2022-06-09T06:10:37Z</time>
      </trkpt>
      <trkpt lat="44.72638" lon="4.59776">
        <ele>253.2</ele>
        <time>2022-06-09T06:10:38Z</time>
      </trkpt>
      <trkpt lat="44.72638" lon="4.59774">
        <ele>253.4</ele>
        <time>2022-06-09T06:10:39Z</time>
      </trkpt>
      <trkpt lat="44.72638" lon="4.59772">
        <ele>253.5</ele>
        <time>2022-06-09T06:10:40Z</time>
      </trkpt>
      <trkpt lat="44.72639" lon="4.5977">
        <ele>253.6</ele>
        <time>2022-06-09T06:10:41Z</time>
      </trkpt>
      <trkpt lat="44.7264" lon="4.59766">
        <ele>253.9</ele>
        <time>2022-06-09T06:10:42Z</time>
      </trkpt>
      <trkpt lat="44.7264" lon="4.59765">
        <ele>253.9</ele>
        <time>2022-06-09T06:10:43Z</time>
      </trkpt>
      <trkpt lat="44.72641" lon="4.59763">
        <ele>254.1</ele>
        <time>2022-06-09T06:10:45Z</time>
      </trkpt>
      <trkpt lat="44.72643" lon="4.59761">
        <ele>254.3</ele>
        <time>2022-06-09T06:10:47Z</time>
      </trkpt>
      <trkpt lat="44.72645" lon="4.5976">
        <ele>254.4</ele>
        <time>2022-06-09T06:10:48Z</time>
      </trkpt>
      <trkpt lat="44.72646" lon="4.59755">
        <ele>254.7</ele>
        <time>2022-06-09T06:10:50Z</time>
      </trkpt>
      <trkpt lat="44.72647" lon="4.59751">
        <ele>254.9</ele>
        <time>2022-06-09T06:10:52Z</time>
      </trkpt>
      <trkpt lat="44.72647" lon="4.5975">
        <ele>255</ele>
        <time>2022-06-09T06:10:53Z</time>
      </trkpt>
      <trkpt lat="44.72647" lon="4.59748">
        <ele>255.1</ele>
        <time>2022-06-09T06:10:55Z</time>
      </trkpt>
      <trkpt lat="44.72649" lon="4.59743">
        <ele>255.3</ele>
        <time>2022-06-09T06:10:57Z</time>
      </trkpt>
      <trkpt lat="44.72649" lon="4.59741">
        <ele>255.4</ele>
        <time>2022-06-09T06:10:58Z</time>
      </trkpt>
      <trkpt lat="44.7265" lon="4.59737">
        <ele>255.6</ele>
        <time>2022-06-09T06:10:59Z</time>
      </trkpt>
      <trkpt lat="44.7265" lon="4.59735">
        <ele>255.7</ele>
        <time>2022-06-09T06:11:00Z</time>
      </trkpt>
      <trkpt lat="44.72651" lon="4.59733">
        <ele>255.8</ele>
        <time>2022-06-09T06:11:02Z</time>
      </trkpt>
      <trkpt lat="44.72651" lon="4.59732">
        <ele>255.9</ele>
        <time>2022-06-09T06:11:03Z</time>
      </trkpt>
      <trkpt lat="44.72652" lon="4.59727">
        <ele>256.1</ele>
        <time>2022-06-09T06:11:04Z</time>
      </trkpt>
      <trkpt lat="44.72653" lon="4.59726">
        <ele>256.2</ele>
        <time>2022-06-09T06:11:05Z</time>
      </trkpt>
      <trkpt lat="44.72653" lon="4.59724">
        <ele>256.3</ele>
        <time>2022-06-09T06:11:07Z</time>
      </trkpt>
      <trkpt lat="44.72654" lon="4.59721">
        <ele>256.5</ele>
        <time>2022-06-09T06:11:08Z</time>
      </trkpt>
      <trkpt lat="44.72654" lon="4.59719">
        <ele>256.5</ele>
        <time>2022-06-09T06:11:09Z</time>
      </trkpt>
      <trkpt lat="44.72655" lon="4.59717">
        <ele>256.5</ele>
        <time>2022-06-09T06:11:11Z</time>
      </trkpt>
      <trkpt lat="44.72655" lon="4.59715">
        <ele>256.5</ele>
        <time>2022-06-09T06:11:12Z</time>
      </trkpt>
      <trkpt lat="44.72656" lon="4.59712">
        <ele>256.5</ele>
        <time>2022-06-09T06:11:13Z</time>
      </trkpt>
      <trkpt lat="44.72656" lon="4.59711">
        <ele>256.5</ele>
        <time>2022-06-09T06:11:14Z</time>
      </trkpt>
      <trkpt lat="44.72657" lon="4.5971">
        <ele>256.5</ele>
        <time>2022-06-09T06:11:15Z</time>
      </trkpt>
      <trkpt lat="44.72658" lon="4.59708">
        <ele>256.5</ele>
        <time>2022-06-09T06:11:16Z</time>
      </trkpt>
      <trkpt lat="44.72659" lon="4.59707">
        <ele>256.5</ele>
        <time>2022-06-09T06:11:17Z</time>
      </trkpt>
      <trkpt lat="44.72659" lon="4.59705">
        <ele>256.5</ele>
        <time>2022-06-09T06:11:18Z</time>
      </trkpt>
      <trkpt lat="44.72659" lon="4.59703">
        <ele>256.5</ele>
        <time>2022-06-09T06:11:19Z</time>
      </trkpt>
      <trkpt lat="44.72658" lon="4.59701">
        <ele>256.5</ele>
        <time>2022-06-09T06:11:20Z</time>
      </trkpt>
      <trkpt lat="44.72656" lon="4.59698">
        <ele>256.6</ele>
        <time>2022-06-09T06:11:21Z</time>
      </trkpt>
      <trkpt lat="44.72655" lon="4.59697">
        <ele>256.6</ele>
        <time>2022-06-09T06:11:22Z</time>
      </trkpt>
      <trkpt lat="44.72654" lon="4.59696">
        <ele>256.7</ele>
        <time>2022-06-09T06:11:23Z</time>
      </trkpt>
      <trkpt lat="44.72652" lon="4.59695">
        <ele>256.7</ele>
        <time>2022-06-09T06:11:24Z</time>
      </trkpt>
      <trkpt lat="44.7265" lon="4.59694">
        <ele>256.8</ele>
        <time>2022-06-09T06:11:25Z</time>
      </trkpt>
      <trkpt lat="44.72649" lon="4.59693">
        <ele>256.9</ele>
        <time>2022-06-09T06:11:26Z</time>
      </trkpt>
      <trkpt lat="44.72647" lon="4.59692">
        <ele>256.9</ele>
        <time>2022-06-09T06:11:27Z</time>
      </trkpt>
      <trkpt lat="44.72646" lon="4.59691">
        <ele>257</ele>
        <time>2022-06-09T06:11:28Z</time>
      </trkpt>
      <trkpt lat="44.72644" lon="4.5969">
        <ele>257.1</ele>
        <time>2022-06-09T06:11:29Z</time>
      </trkpt>
      <trkpt lat="44.72643" lon="4.59689">
        <ele>257.1</ele>
        <time>2022-06-09T06:11:30Z</time>
      </trkpt>
      <trkpt lat="44.72641" lon="4.59688">
        <ele>257.2</ele>
        <time>2022-06-09T06:11:31Z</time>
      </trkpt>
      <trkpt lat="44.7264" lon="4.59687">
        <ele>257.2</ele>
        <time>2022-06-09T06:11:32Z</time>
      </trkpt>
      <trkpt lat="44.72638" lon="4.59685">
        <ele>257.3</ele>
        <time>2022-06-09T06:11:33Z</time>
      </trkpt>
      <trkpt lat="44.72637" lon="4.59683">
        <ele>257.4</ele>
        <time>2022-06-09T06:11:34Z</time>
      </trkpt>
      <trkpt lat="44.72635" lon="4.59681">
        <ele>257.4</ele>
        <time>2022-06-09T06:11:35Z</time>
      </trkpt>
      <trkpt lat="44.72634" lon="4.59681">
        <ele>257.5</ele>
        <time>2022-06-09T06:11:36Z</time>
      </trkpt>
      <trkpt lat="44.72632" lon="4.59678">
        <ele>257.6</ele>
        <time>2022-06-09T06:11:37Z</time>
      </trkpt>
      <trkpt lat="44.72631" lon="4.59677">
        <ele>257.6</ele>
        <time>2022-06-09T06:11:38Z</time>
      </trkpt>
      <trkpt lat="44.7263" lon="4.59676">
        <ele>257.6</ele>
        <time>2022-06-09T06:11:39Z</time>
      </trkpt>
      <trkpt lat="44.72627" lon="4.59672">
        <ele>257.7</ele>
        <time>2022-06-09T06:11:41Z</time>
      </trkpt>
      <trkpt lat="44.72626" lon="4.5967">
        <ele>257.7</ele>
        <time>2022-06-09T06:11:42Z</time>
      </trkpt>
      <trkpt lat="44.72624" lon="4.59669">
        <ele>257.8</ele>
        <time>2022-06-09T06:11:43Z</time>
      </trkpt>
      <trkpt lat="44.72622" lon="4.59666">
        <ele>257.8</ele>
        <time>2022-06-09T06:11:44Z</time>
      </trkpt>
      <trkpt lat="44.72622" lon="4.59665">
        <ele>257.8</ele>
        <time>2022-06-09T06:11:45Z</time>
      </trkpt>
      <trkpt lat="44.7262" lon="4.59661">
        <ele>257.9</ele>
        <time>2022-06-09T06:11:46Z</time>
      </trkpt>
      <trkpt lat="44.72619" lon="4.5966">
        <ele>257.9</ele>
        <time>2022-06-09T06:11:47Z</time>
      </trkpt>
      <trkpt lat="44.72617" lon="4.59656">
        <ele>257.9</ele>
        <time>2022-06-09T06:11:48Z</time>
      </trkpt>
      <trkpt lat="44.72617" lon="4.59654">
        <ele>257.9</ele>
        <time>2022-06-09T06:11:49Z</time>
      </trkpt>
      <trkpt lat="44.72616" lon="4.5965">
        <ele>257.9</ele>
        <time>2022-06-09T06:11:50Z</time>
      </trkpt>
      <trkpt lat="44.72614" lon="4.59646">
        <ele>257.9</ele>
        <time>2022-06-09T06:11:51Z</time>
      </trkpt>
      <trkpt lat="44.72614" lon="4.59644">
        <ele>257.9</ele>
        <time>2022-06-09T06:11:52Z</time>
      </trkpt>
      <trkpt lat="44.72612" lon="4.59639">
        <ele>257.9</ele>
        <time>2022-06-09T06:11:53Z</time>
      </trkpt>
      <trkpt lat="44.72612" lon="4.59637">
        <ele>257.9</ele>
        <time>2022-06-09T06:11:54Z</time>
      </trkpt>
      <trkpt lat="44.72611" lon="4.59633">
        <ele>257.9</ele>
        <time>2022-06-09T06:11:55Z</time>
      </trkpt>
      <trkpt lat="44.72611" lon="4.59628">
        <ele>257.9</ele>
        <time>2022-06-09T06:11:56Z</time>
      </trkpt>
      <trkpt lat="44.72611" lon="4.59623">
        <ele>257.9</ele>
        <time>2022-06-09T06:11:57Z</time>
      </trkpt>
      <trkpt lat="44.72611" lon="4.59618">
        <ele>257.8</ele>
        <time>2022-06-09T06:11:58Z</time>
      </trkpt>
      <trkpt lat="44.72611" lon="4.59612">
        <ele>257.8</ele>
        <time>2022-06-09T06:11:59Z</time>
      </trkpt>
      <trkpt lat="44.7261" lon="4.59602">
        <ele>257.7</ele>
        <time>2022-06-09T06:12:00Z</time>
      </trkpt>
      <trkpt lat="44.72611" lon="4.59597">
        <ele>257.6</ele>
        <time>2022-06-09T06:12:02Z</time>
      </trkpt>
      <trkpt lat="44.7261" lon="4.59592">
        <ele>257.5</ele>
        <time>2022-06-09T06:12:03Z</time>
      </trkpt>
      <trkpt lat="44.72609" lon="4.59587">
        <ele>257.4</ele>
        <time>2022-06-09T06:12:04Z</time>
      </trkpt>
      <trkpt lat="44.72609" lon="4.59583">
        <ele>257.3</ele>
        <time>2022-06-09T06:12:05Z</time>
      </trkpt>
      <trkpt lat="44.72608" lon="4.59577">
        <ele>257.2</ele>
        <time>2022-06-09T06:12:06Z</time>
      </trkpt>
      <trkpt lat="44.72606" lon="4.59567">
        <ele>256.9</ele>
        <time>2022-06-09T06:12:07Z</time>
      </trkpt>
      <trkpt lat="44.72604" lon="4.59558">
        <ele>256.7</ele>
        <time>2022-06-09T06:12:09Z</time>
      </trkpt>
      <trkpt lat="44.72601" lon="4.59551">
        <ele>256.5</ele>
        <time>2022-06-09T06:12:10Z</time>
      </trkpt>
      <trkpt lat="44.72599" lon="4.59545">
        <ele>256.4</ele>
        <time>2022-06-09T06:12:11Z</time>
      </trkpt>
      <trkpt lat="44.72596" lon="4.59538">
        <ele>256.3</ele>
        <time>2022-06-09T06:12:12Z</time>
      </trkpt>
      <trkpt lat="44.72592" lon="4.59532">
        <ele>256.2</ele>
        <time>2022-06-09T06:12:13Z</time>
      </trkpt>
      <trkpt lat="44.72588" lon="4.59525">
        <ele>256.1</ele>
        <time>2022-06-09T06:12:14Z</time>
      </trkpt>
      <trkpt lat="44.72585" lon="4.59518">
        <ele>256</ele>
        <time>2022-06-09T06:12:15Z</time>
      </trkpt>
      <trkpt lat="44.72581" lon="4.59512">
        <ele>256</ele>
        <time>2022-06-09T06:12:16Z</time>
      </trkpt>
      <trkpt lat="44.72577" lon="4.59505">
        <ele>256</ele>
        <time>2022-06-09T06:12:17Z</time>
      </trkpt>
      <trkpt lat="44.72573" lon="4.59499">
        <ele>256</ele>
        <time>2022-06-09T06:12:18Z</time>
      </trkpt>
      <trkpt lat="44.7257" lon="4.59493">
        <ele>256</ele>
        <time>2022-06-09T06:12:19Z</time>
      </trkpt>
      <trkpt lat="44.72566" lon="4.59487">
        <ele>256</ele>
        <time>2022-06-09T06:12:20Z</time>
      </trkpt>
      <trkpt lat="44.72563" lon="4.59481">
        <ele>256</ele>
        <time>2022-06-09T06:12:21Z</time>
      </trkpt>
      <trkpt lat="44.7256" lon="4.59476">
        <ele>256</ele>
        <time>2022-06-09T06:12:22Z</time>
      </trkpt>
      <trkpt lat="44.72557" lon="4.59471">
        <ele>256.1</ele>
        <time>2022-06-09T06:12:23Z</time>
      </trkpt>
      <trkpt lat="44.72555" lon="4.59466">
        <ele>256.1</ele>
        <time>2022-06-09T06:12:24Z</time>
      </trkpt>
      <trkpt lat="44.72554" lon="4.59461">
        <ele>256.1</ele>
        <time>2022-06-09T06:12:25Z</time>
      </trkpt>
      <trkpt lat="44.72554" lon="4.59458">
        <ele>256.3</ele>
        <time>2022-06-09T06:12:26Z</time>
      </trkpt>
      <trkpt lat="44.72554" lon="4.59453">
        <ele>256.4</ele>
        <time>2022-06-09T06:12:27Z</time>
      </trkpt>
      <trkpt lat="44.72554" lon="4.59448">
        <ele>256.5</ele>
        <time>2022-06-09T06:12:28Z</time>
      </trkpt>
      <trkpt lat="44.72555" lon="4.59443">
        <ele>256.6</ele>
        <time>2022-06-09T06:12:29Z</time>
      </trkpt>
      <trkpt lat="44.72558" lon="4.59437">
        <ele>256.8</ele>
        <time>2022-06-09T06:12:30Z</time>
      </trkpt>
      <trkpt lat="44.7256" lon="4.59434">
        <ele>256.9</ele>
        <time>2022-06-09T06:12:31Z</time>
      </trkpt>
      <trkpt lat="44.7256" lon="4.59429">
        <ele>257.1</ele>
        <time>2022-06-09T06:12:33Z</time>
      </trkpt>
      <trkpt lat="44.72561" lon="4.59423">
        <ele>257.2</ele>
        <time>2022-06-09T06:12:34Z</time>
      </trkpt>
      <trkpt lat="44.72564" lon="4.59417">
        <ele>257.4</ele>
        <time>2022-06-09T06:12:36Z</time>
      </trkpt>
      <trkpt lat="44.72565" lon="4.59414">
        <ele>257.6</ele>
        <time>2022-06-09T06:12:37Z</time>
      </trkpt>
      <trkpt lat="44.72567" lon="4.5941">
        <ele>257.7</ele>
        <time>2022-06-09T06:12:38Z</time>
      </trkpt>
      <trkpt lat="44.72568" lon="4.59406">
        <ele>257.8</ele>
        <time>2022-06-09T06:12:39Z</time>
      </trkpt>
      <trkpt lat="44.7257" lon="4.59402">
        <ele>257.9</ele>
        <time>2022-06-09T06:12:40Z</time>
      </trkpt>
      <trkpt lat="44.72571" lon="4.59399">
        <ele>258</ele>
        <time>2022-06-09T06:12:41Z</time>
      </trkpt>
      <trkpt lat="44.72575" lon="4.59392">
        <ele>258.2</ele>
        <time>2022-06-09T06:12:43Z</time>
      </trkpt>
      <trkpt lat="44.72576" lon="4.59389">
        <ele>258.3</ele>
        <time>2022-06-09T06:12:44Z</time>
      </trkpt>
      <trkpt lat="44.72578" lon="4.59385">
        <ele>258.4</ele>
        <time>2022-06-09T06:12:45Z</time>
      </trkpt>
      <trkpt lat="44.7258" lon="4.59382">
        <ele>258.6</ele>
        <time>2022-06-09T06:12:46Z</time>
      </trkpt>
      <trkpt lat="44.72581" lon="4.59379">
        <ele>258.7</ele>
        <time>2022-06-09T06:12:47Z</time>
      </trkpt>
      <trkpt lat="44.72583" lon="4.59375">
        <ele>258.8</ele>
        <time>2022-06-09T06:12:48Z</time>
      </trkpt>
      <trkpt lat="44.72585" lon="4.59372">
        <ele>258.9</ele>
        <time>2022-06-09T06:12:49Z</time>
      </trkpt>
      <trkpt lat="44.72587" lon="4.59368">
        <ele>259</ele>
        <time>2022-06-09T06:12:50Z</time>
      </trkpt>
      <trkpt lat="44.72588" lon="4.59364">
        <ele>259.1</ele>
        <time>2022-06-09T06:12:51Z</time>
      </trkpt>
      <trkpt lat="44.7259" lon="4.59361">
        <ele>259.2</ele>
        <time>2022-06-09T06:12:52Z</time>
      </trkpt>
      <trkpt lat="44.72591" lon="4.59357">
        <ele>259.3</ele>
        <time>2022-06-09T06:12:53Z</time>
      </trkpt>
      <trkpt lat="44.72593" lon="4.59353">
        <ele>259.4</ele>
        <time>2022-06-09T06:12:54Z</time>
      </trkpt>
      <trkpt lat="44.72594" lon="4.59349">
        <ele>259.4</ele>
        <time>2022-06-09T06:12:55Z</time>
      </trkpt>
      <trkpt lat="44.72596" lon="4.59345">
        <ele>259.5</ele>
        <time>2022-06-09T06:12:56Z</time>
      </trkpt>
      <trkpt lat="44.72597" lon="4.59341">
        <ele>259.6</ele>
        <time>2022-06-09T06:12:57Z</time>
      </trkpt>
      <trkpt lat="44.72599" lon="4.59337">
        <ele>259.6</ele>
        <time>2022-06-09T06:12:58Z</time>
      </trkpt>
      <trkpt lat="44.726" lon="4.59333">
        <ele>259.6</ele>
        <time>2022-06-09T06:12:59Z</time>
      </trkpt>
      <trkpt lat="44.72602" lon="4.59328">
        <ele>259.7</ele>
        <time>2022-06-09T06:13:00Z</time>
      </trkpt>
      <trkpt lat="44.72604" lon="4.59323">
        <ele>259.7</ele>
        <time>2022-06-09T06:13:01Z</time>
      </trkpt>
      <trkpt lat="44.72605" lon="4.59317">
        <ele>259.7</ele>
        <time>2022-06-09T06:13:02Z</time>
      </trkpt>
      <trkpt lat="44.72607" lon="4.59312">
        <ele>259.7</ele>
        <time>2022-06-09T06:13:03Z</time>
      </trkpt>
      <trkpt lat="44.72609" lon="4.59307">
        <ele>259.7</ele>
        <time>2022-06-09T06:13:04Z</time>
      </trkpt>
      <trkpt lat="44.7261" lon="4.59299">
        <ele>259.7</ele>
        <time>2022-06-09T06:13:05Z</time>
      </trkpt>
      <trkpt lat="44.72611" lon="4.59293">
        <ele>259.8</ele>
        <time>2022-06-09T06:13:06Z</time>
      </trkpt>
      <trkpt lat="44.72612" lon="4.59286">
        <ele>259.8</ele>
        <time>2022-06-09T06:13:07Z</time>
      </trkpt>
      <trkpt lat="44.72612" lon="4.59279">
        <ele>259.8</ele>
        <time>2022-06-09T06:13:08Z</time>
      </trkpt>
      <trkpt lat="44.72613" lon="4.59273">
        <ele>259.9</ele>
        <time>2022-06-09T06:13:09Z</time>
      </trkpt>
      <trkpt lat="44.72613" lon="4.59263">
        <ele>260</ele>
        <time>2022-06-09T06:13:10Z</time>
      </trkpt>
      <trkpt lat="44.72613" lon="4.59251">
        <ele>260.2</ele>
        <time>2022-06-09T06:13:12Z</time>
      </trkpt>
      <trkpt lat="44.72613" lon="4.59244">
        <ele>260.3</ele>
        <time>2022-06-09T06:13:14Z</time>
      </trkpt>
      <trkpt lat="44.72613" lon="4.59233">
        <ele>260.5</ele>
        <time>2022-06-09T06:13:16Z</time>
      </trkpt>
      <trkpt lat="44.72612" lon="4.59228">
        <ele>260.6</ele>
        <time>2022-06-09T06:13:17Z</time>
      </trkpt>
      <trkpt lat="44.72611" lon="4.59224">
        <ele>260.6</ele>
        <time>2022-06-09T06:13:18Z</time>
      </trkpt>
      <trkpt lat="44.7261" lon="4.59219">
        <ele>260.7</ele>
        <time>2022-06-09T06:13:19Z</time>
      </trkpt>
      <trkpt lat="44.72609" lon="4.59215">
        <ele>260.8</ele>
        <time>2022-06-09T06:13:20Z</time>
      </trkpt>
      <trkpt lat="44.72608" lon="4.5921">
        <ele>260.9</ele>
        <time>2022-06-09T06:13:21Z</time>
      </trkpt>
      <trkpt lat="44.72606" lon="4.59197">
        <ele>261.1</ele>
        <time>2022-06-09T06:13:23Z</time>
      </trkpt>
      <trkpt lat="44.72605" lon="4.59193">
        <ele>261.1</ele>
        <time>2022-06-09T06:13:24Z</time>
      </trkpt>
      <trkpt lat="44.72604" lon="4.59188">
        <ele>261.2</ele>
        <time>2022-06-09T06:13:26Z</time>
      </trkpt>
      <trkpt lat="44.72603" lon="4.59183">
        <ele>261.3</ele>
        <time>2022-06-09T06:13:27Z</time>
      </trkpt>
      <trkpt lat="44.72603" lon="4.59178">
        <ele>261.4</ele>
        <time>2022-06-09T06:13:28Z</time>
      </trkpt>
      <trkpt lat="44.72602" lon="4.59174">
        <ele>261.4</ele>
        <time>2022-06-09T06:13:29Z</time>
      </trkpt>
      <trkpt lat="44.72601" lon="4.59169">
        <ele>261.5</ele>
        <time>2022-06-09T06:13:30Z</time>
      </trkpt>
      <trkpt lat="44.72599" lon="4.59164">
        <ele>261.6</ele>
        <time>2022-06-09T06:13:31Z</time>
      </trkpt>
      <trkpt lat="44.72599" lon="4.59159">
        <ele>261.6</ele>
        <time>2022-06-09T06:13:32Z</time>
      </trkpt>
      <trkpt lat="44.72597" lon="4.59155">
        <ele>261.7</ele>
        <time>2022-06-09T06:13:33Z</time>
      </trkpt>
      <trkpt lat="44.72596" lon="4.5915">
        <ele>261.7</ele>
        <time>2022-06-09T06:13:34Z</time>
      </trkpt>
      <trkpt lat="44.72595" lon="4.59145">
        <ele>261.7</ele>
        <time>2022-06-09T06:13:35Z</time>
      </trkpt>
      <trkpt lat="44.72595" lon="4.59138">
        <ele>261.8</ele>
        <time>2022-06-09T06:13:36Z</time>
      </trkpt>
      <trkpt lat="44.72593" lon="4.5913">
        <ele>261.8</ele>
        <time>2022-06-09T06:13:37Z</time>
      </trkpt>
      <trkpt lat="44.72592" lon="4.59121">
        <ele>261.9</ele>
        <time>2022-06-09T06:13:39Z</time>
      </trkpt>
      <trkpt lat="44.72589" lon="4.59107">
        <ele>262</ele>
        <time>2022-06-09T06:13:41Z</time>
      </trkpt>
      <trkpt lat="44.72587" lon="4.59098">
        <ele>262.1</ele>
        <time>2022-06-09T06:13:43Z</time>
      </trkpt>
      <trkpt lat="44.72586" lon="4.59091">
        <ele>262.1</ele>
        <time>2022-06-09T06:13:44Z</time>
      </trkpt>
      <trkpt lat="44.72585" lon="4.59086">
        <ele>262.1</ele>
        <time>2022-06-09T06:13:45Z</time>
      </trkpt>
      <trkpt lat="44.72584" lon="4.59077">
        <ele>262.2</ele>
        <time>2022-06-09T06:13:47Z</time>
      </trkpt>
      <trkpt lat="44.72582" lon="4.59068">
        <ele>262.2</ele>
        <time>2022-06-09T06:13:48Z</time>
      </trkpt>
      <trkpt lat="44.72581" lon="4.59061">
        <ele>262.2</ele>
        <time>2022-06-09T06:13:49Z</time>
      </trkpt>
      <trkpt lat="44.72579" lon="4.59052">
        <ele>262.3</ele>
        <time>2022-06-09T06:13:51Z</time>
      </trkpt>
      <trkpt lat="44.72578" lon="4.59045">
        <ele>262.3</ele>
        <time>2022-06-09T06:13:52Z</time>
      </trkpt>
      <trkpt lat="44.72577" lon="4.59039">
        <ele>262.3</ele>
        <time>2022-06-09T06:13:53Z</time>
      </trkpt>
      <trkpt lat="44.72576" lon="4.59033">
        <ele>262.3</ele>
        <time>2022-06-09T06:13:54Z</time>
      </trkpt>
      <trkpt lat="44.72575" lon="4.59026">
        <ele>262.3</ele>
        <time>2022-06-09T06:13:55Z</time>
      </trkpt>
      <trkpt lat="44.72575" lon="4.59021">
        <ele>262.3</ele>
        <time>2022-06-09T06:13:56Z</time>
      </trkpt>
      <trkpt lat="44.72574" lon="4.59015">
        <ele>262.3</ele>
        <time>2022-06-09T06:13:57Z</time>
      </trkpt>
      <trkpt lat="44.72573" lon="4.59008">
        <ele>262.3</ele>
        <time>2022-06-09T06:13:58Z</time>
      </trkpt>
      <trkpt lat="44.72572" lon="4.59001">
        <ele>262.4</ele>
        <time>2022-06-09T06:13:59Z</time>
      </trkpt>
      <trkpt lat="44.72571" lon="4.5899">
        <ele>262.5</ele>
        <time>2022-06-09T06:14:00Z</time>
      </trkpt>
      <trkpt lat="44.7257" lon="4.58983">
        <ele>262.5</ele>
        <time>2022-06-09T06:14:02Z</time>
      </trkpt>
      <trkpt lat="44.72569" lon="4.58972">
        <ele>262.6</ele>
        <time>2022-06-09T06:14:03Z</time>
      </trkpt>
      <trkpt lat="44.72569" lon="4.58964">
        <ele>262.7</ele>
        <time>2022-06-09T06:14:05Z</time>
      </trkpt>
      <trkpt lat="44.72568" lon="4.58959">
        <ele>262.8</ele>
        <time>2022-06-09T06:14:06Z</time>
      </trkpt>
      <trkpt lat="44.72567" lon="4.58953">
        <ele>262.9</ele>
        <time>2022-06-09T06:14:07Z</time>
      </trkpt>
      <trkpt lat="44.72566" lon="4.58946">
        <ele>263</ele>
        <time>2022-06-09T06:14:08Z</time>
      </trkpt>
      <trkpt lat="44.72564" lon="4.58939">
        <ele>263.2</ele>
        <time>2022-06-09T06:14:10Z</time>
      </trkpt>
      <trkpt lat="44.72562" lon="4.58933">
        <ele>263.3</ele>
        <time>2022-06-09T06:14:11Z</time>
      </trkpt>
      <trkpt lat="44.7256" lon="4.58925">
        <ele>263.5</ele>
        <time>2022-06-09T06:14:12Z</time>
      </trkpt>
      <trkpt lat="44.72558" lon="4.58918">
        <ele>263.6</ele>
        <time>2022-06-09T06:14:14Z</time>
      </trkpt>
      <trkpt lat="44.72556" lon="4.58912">
        <ele>263.7</ele>
        <time>2022-06-09T06:14:15Z</time>
      </trkpt>
      <trkpt lat="44.72555" lon="4.58908">
        <ele>263.7</ele>
        <time>2022-06-09T06:14:16Z</time>
      </trkpt>
      <trkpt lat="44.72553" lon="4.58903">
        <ele>263.8</ele>
        <time>2022-06-09T06:14:18Z</time>
      </trkpt>
      <trkpt lat="44.72551" lon="4.58899">
        <ele>263.9</ele>
        <time>2022-06-09T06:14:19Z</time>
      </trkpt>
      <trkpt lat="44.7255" lon="4.58895">
        <ele>264</ele>
        <time>2022-06-09T06:14:20Z</time>
      </trkpt>
      <trkpt lat="44.72549" lon="4.58894">
        <ele>264</ele>
        <time>2022-06-09T06:14:21Z</time>
      </trkpt>
      <trkpt lat="44.72547" lon="4.5889">
        <ele>264.1</ele>
        <time>2022-06-09T06:14:22Z</time>
      </trkpt>
      <trkpt lat="44.72547" lon="4.58888">
        <ele>264.1</ele>
        <time>2022-06-09T06:14:23Z</time>
      </trkpt>
      <trkpt lat="44.72545" lon="4.58884">
        <ele>264.2</ele>
        <time>2022-06-09T06:14:24Z</time>
      </trkpt>
      <trkpt lat="44.72544" lon="4.58882">
        <ele>264.4</ele>
        <time>2022-06-09T06:14:25Z</time>
      </trkpt>
      <trkpt lat="44.72543" lon="4.58879">
        <ele>264.6</ele>
        <time>2022-06-09T06:14:27Z</time>
      </trkpt>
      <trkpt lat="44.72541" lon="4.58875">
        <ele>264.7</ele>
        <time>2022-06-09T06:14:28Z</time>
      </trkpt>
      <trkpt lat="44.7254" lon="4.58874">
        <ele>264.8</ele>
        <time>2022-06-09T06:14:29Z</time>
      </trkpt>
      <trkpt lat="44.72539" lon="4.5887">
        <ele>265</ele>
        <time>2022-06-09T06:14:30Z</time>
      </trkpt>
      <trkpt lat="44.72538" lon="4.58869">
        <ele>265.1</ele>
        <time>2022-06-09T06:14:31Z</time>
      </trkpt>
      <trkpt lat="44.72537" lon="4.58865">
        <ele>265.3</ele>
        <time>2022-06-09T06:14:32Z</time>
      </trkpt>
      <trkpt lat="44.72536" lon="4.58864">
        <ele>265.4</ele>
        <time>2022-06-09T06:14:33Z</time>
      </trkpt>
      <trkpt lat="44.72536" lon="4.58861">
        <ele>265.6</ele>
        <time>2022-06-09T06:14:34Z</time>
      </trkpt>
      <trkpt lat="44.72535" lon="4.5886">
        <ele>265.7</ele>
        <time>2022-06-09T06:14:35Z</time>
      </trkpt>
      <trkpt lat="44.72534" lon="4.58858">
        <ele>265.8</ele>
        <time>2022-06-09T06:14:36Z</time>
      </trkpt>
      <trkpt lat="44.72533" lon="4.58856">
        <ele>266</ele>
        <time>2022-06-09T06:14:37Z</time>
      </trkpt>
      <trkpt lat="44.72532" lon="4.58854">
        <ele>266.1</ele>
        <time>2022-06-09T06:14:38Z</time>
      </trkpt>
      <trkpt lat="44.72531" lon="4.58851">
        <ele>266.3</ele>
        <time>2022-06-09T06:14:39Z</time>
      </trkpt>
      <trkpt lat="44.7253" lon="4.58849">
        <ele>266.5</ele>
        <time>2022-06-09T06:14:40Z</time>
      </trkpt>
      <trkpt lat="44.72529" lon="4.58848">
        <ele>266.6</ele>
        <time>2022-06-09T06:14:41Z</time>
      </trkpt>
      <trkpt lat="44.72529" lon="4.58846">
        <ele>266.7</ele>
        <time>2022-06-09T06:14:42Z</time>
      </trkpt>
      <trkpt lat="44.72528" lon="4.58844">
        <ele>266.8</ele>
        <time>2022-06-09T06:14:43Z</time>
      </trkpt>
      <trkpt lat="44.72527" lon="4.58843">
        <ele>266.9</ele>
        <time>2022-06-09T06:14:44Z</time>
      </trkpt>
      <trkpt lat="44.72527" lon="4.58841">
        <ele>267.1</ele>
        <time>2022-06-09T06:14:45Z</time>
      </trkpt>
      <trkpt lat="44.72525" lon="4.58838">
        <ele>267.3</ele>
        <time>2022-06-09T06:14:46Z</time>
      </trkpt>
      <trkpt lat="44.72524" lon="4.58837">
        <ele>267.4</ele>
        <time>2022-06-09T06:14:47Z</time>
      </trkpt>
      <trkpt lat="44.72523" lon="4.58833">
        <ele>267.6</ele>
        <time>2022-06-09T06:14:48Z</time>
      </trkpt>
      <trkpt lat="44.72522" lon="4.58832">
        <ele>267.7</ele>
        <time>2022-06-09T06:14:49Z</time>
      </trkpt>
      <trkpt lat="44.72521" lon="4.58829">
        <ele>267.9</ele>
        <time>2022-06-09T06:14:50Z</time>
      </trkpt>
      <trkpt lat="44.7252" lon="4.58827">
        <ele>268</ele>
        <time>2022-06-09T06:14:51Z</time>
      </trkpt>
      <trkpt lat="44.72518" lon="4.58824">
        <ele>268.2</ele>
        <time>2022-06-09T06:14:52Z</time>
      </trkpt>
      <trkpt lat="44.72518" lon="4.58823">
        <ele>268.3</ele>
        <time>2022-06-09T06:14:53Z</time>
      </trkpt>
      <trkpt lat="44.72516" lon="4.58819">
        <ele>268.5</ele>
        <time>2022-06-09T06:14:54Z</time>
      </trkpt>
      <trkpt lat="44.72515" lon="4.58818">
        <ele>268.6</ele>
        <time>2022-06-09T06:14:55Z</time>
      </trkpt>
      <trkpt lat="44.72514" lon="4.58814">
        <ele>268.8</ele>
        <time>2022-06-09T06:14:56Z</time>
      </trkpt>
      <trkpt lat="44.72513" lon="4.58813">
        <ele>268.8</ele>
        <time>2022-06-09T06:14:57Z</time>
      </trkpt>
      <trkpt lat="44.72512" lon="4.58809">
        <ele>269</ele>
        <time>2022-06-09T06:14:58Z</time>
      </trkpt>
      <trkpt lat="44.72511" lon="4.58807">
        <ele>269</ele>
        <time>2022-06-09T06:14:59Z</time>
      </trkpt>
      <trkpt lat="44.7251" lon="4.58803">
        <ele>269.2</ele>
        <time>2022-06-09T06:15:00Z</time>
      </trkpt>
      <trkpt lat="44.72509" lon="4.58801">
        <ele>269.2</ele>
        <time>2022-06-09T06:15:01Z</time>
      </trkpt>
      <trkpt lat="44.72508" lon="4.58795">
        <ele>269.4</ele>
        <time>2022-06-09T06:15:02Z</time>
      </trkpt>
      <trkpt lat="44.72508" lon="4.58789">
        <ele>269.4</ele>
        <time>2022-06-09T06:15:04Z</time>
      </trkpt>
      <trkpt lat="44.72507" lon="4.58784">
        <ele>269.5</ele>
        <time>2022-06-09T06:15:05Z</time>
      </trkpt>
      <trkpt lat="44.72507" lon="4.58778">
        <ele>269.5</ele>
        <time>2022-06-09T06:15:07Z</time>
      </trkpt>
      <trkpt lat="44.72507" lon="4.58773">
        <ele>269.5</ele>
        <time>2022-06-09T06:15:08Z</time>
      </trkpt>
      <trkpt lat="44.72507" lon="4.58768">
        <ele>269.5</ele>
        <time>2022-06-09T06:15:09Z</time>
      </trkpt>
      <trkpt lat="44.72507" lon="4.58763">
        <ele>269.4</ele>
        <time>2022-06-09T06:15:10Z</time>
      </trkpt>
      <trkpt lat="44.72508" lon="4.58757">
        <ele>269.4</ele>
        <time>2022-06-09T06:15:11Z</time>
      </trkpt>
      <trkpt lat="44.72508" lon="4.58748">
        <ele>269.3</ele>
        <time>2022-06-09T06:15:12Z</time>
      </trkpt>
      <trkpt lat="44.72509" lon="4.5874">
        <ele>269.2</ele>
        <time>2022-06-09T06:15:14Z</time>
      </trkpt>
      <trkpt lat="44.72511" lon="4.58728">
        <ele>269</ele>
        <time>2022-06-09T06:15:15Z</time>
      </trkpt>
      <trkpt lat="44.72512" lon="4.5872">
        <ele>268.9</ele>
        <time>2022-06-09T06:15:17Z</time>
      </trkpt>
      <trkpt lat="44.72512" lon="4.58713">
        <ele>268.8</ele>
        <time>2022-06-09T06:15:18Z</time>
      </trkpt>
      <trkpt lat="44.72513" lon="4.58706">
        <ele>268.7</ele>
        <time>2022-06-09T06:15:19Z</time>
      </trkpt>
      <trkpt lat="44.72515" lon="4.58699">
        <ele>268.6</ele>
        <time>2022-06-09T06:15:20Z</time>
      </trkpt>
      <trkpt lat="44.72516" lon="4.58693">
        <ele>268.5</ele>
        <time>2022-06-09T06:15:21Z</time>
      </trkpt>
      <trkpt lat="44.72516" lon="4.58686">
        <ele>268.4</ele>
        <time>2022-06-09T06:15:22Z</time>
      </trkpt>
      <trkpt lat="44.72517" lon="4.58679">
        <ele>268.3</ele>
        <time>2022-06-09T06:15:23Z</time>
      </trkpt>
      <trkpt lat="44.72517" lon="4.58672">
        <ele>268.3</ele>
        <time>2022-06-09T06:15:24Z</time>
      </trkpt>
      <trkpt lat="44.72517" lon="4.58666">
        <ele>268.2</ele>
        <time>2022-06-09T06:15:25Z</time>
      </trkpt>
      <trkpt lat="44.72516" lon="4.58659">
        <ele>268.2</ele>
        <time>2022-06-09T06:15:26Z</time>
      </trkpt>
      <trkpt lat="44.72516" lon="4.58652">
        <ele>268.2</ele>
        <time>2022-06-09T06:15:27Z</time>
      </trkpt>
      <trkpt lat="44.72515" lon="4.58646">
        <ele>268.1</ele>
        <time>2022-06-09T06:15:28Z</time>
      </trkpt>
      <trkpt lat="44.72515" lon="4.58639">
        <ele>268.1</ele>
        <time>2022-06-09T06:15:29Z</time>
      </trkpt>
      <trkpt lat="44.72514" lon="4.58633">
        <ele>268.2</ele>
        <time>2022-06-09T06:15:30Z</time>
      </trkpt>
      <trkpt lat="44.72513" lon="4.58626">
        <ele>268.2</ele>
        <time>2022-06-09T06:15:31Z</time>
      </trkpt>
      <trkpt lat="44.72513" lon="4.58622">
        <ele>268.2</ele>
        <time>2022-06-09T06:15:32Z</time>
      </trkpt>
      <trkpt lat="44.72513" lon="4.58617">
        <ele>268.2</ele>
        <time>2022-06-09T06:15:33Z</time>
      </trkpt>
      <trkpt lat="44.72512" lon="4.58611">
        <ele>268.3</ele>
        <time>2022-06-09T06:15:34Z</time>
      </trkpt>
      <trkpt lat="44.72512" lon="4.58604">
        <ele>268.3</ele>
        <time>2022-06-09T06:15:35Z</time>
      </trkpt>
      <trkpt lat="44.72511" lon="4.58598">
        <ele>268.4</ele>
        <time>2022-06-09T06:15:36Z</time>
      </trkpt>
      <trkpt lat="44.72511" lon="4.58592">
        <ele>268.4</ele>
        <time>2022-06-09T06:15:37Z</time>
      </trkpt>
      <trkpt lat="44.72513" lon="4.58591">
        <ele>268.5</ele>
        <time>2022-06-09T06:15:38Z</time>
      </trkpt>
      <trkpt lat="44.72512" lon="4.58581">
        <ele>268.6</ele>
        <time>2022-06-09T06:15:40Z</time>
      </trkpt>
      <trkpt lat="44.72511" lon="4.58571">
        <ele>268.8</ele>
        <time>2022-06-09T06:15:41Z</time>
      </trkpt>
      <trkpt lat="44.72511" lon="4.58566">
        <ele>268.8</ele>
        <time>2022-06-09T06:15:42Z</time>
      </trkpt>
      <trkpt lat="44.7251" lon="4.58556">
        <ele>269</ele>
        <time>2022-06-09T06:15:44Z</time>
      </trkpt>
      <trkpt lat="44.7251" lon="4.58551">
        <ele>269</ele>
        <time>2022-06-09T06:15:45Z</time>
      </trkpt>
      <trkpt lat="44.72511" lon="4.58545">
        <ele>269.1</ele>
        <time>2022-06-09T06:15:46Z</time>
      </trkpt>
      <trkpt lat="44.72511" lon="4.58538">
        <ele>269.3</ele>
        <time>2022-06-09T06:15:47Z</time>
      </trkpt>
      <trkpt lat="44.72511" lon="4.58531">
        <ele>269.4</ele>
        <time>2022-06-09T06:15:49Z</time>
      </trkpt>
      <trkpt lat="44.72511" lon="4.58524">
        <ele>269.5</ele>
        <time>2022-06-09T06:15:50Z</time>
      </trkpt>
      <trkpt lat="44.72511" lon="4.58517">
        <ele>269.7</ele>
        <time>2022-06-09T06:15:51Z</time>
      </trkpt>
      <trkpt lat="44.72512" lon="4.58511">
        <ele>269.8</ele>
        <time>2022-06-09T06:15:53Z</time>
      </trkpt>
      <trkpt lat="44.72512" lon="4.58507">
        <ele>269.9</ele>
        <time>2022-06-09T06:15:54Z</time>
      </trkpt>
      <trkpt lat="44.72512" lon="4.58498">
        <ele>270.3</ele>
        <time>2022-06-09T06:15:55Z</time>
      </trkpt>
      <trkpt lat="44.72512" lon="4.58492">
        <ele>270.5</ele>
        <time>2022-06-09T06:15:57Z</time>
      </trkpt>
      <trkpt lat="44.72513" lon="4.58485">
        <ele>270.9</ele>
        <time>2022-06-09T06:15:58Z</time>
      </trkpt>
      <trkpt lat="44.72513" lon="4.58478">
        <ele>271.2</ele>
        <time>2022-06-09T06:16:00Z</time>
      </trkpt>
      <trkpt lat="44.72514" lon="4.58473">
        <ele>271.4</ele>
        <time>2022-06-09T06:16:01Z</time>
      </trkpt>
      <trkpt lat="44.72514" lon="4.58465">
        <ele>271.9</ele>
        <time>2022-06-09T06:16:02Z</time>
      </trkpt>
      <trkpt lat="44.72514" lon="4.5846">
        <ele>272.1</ele>
        <time>2022-06-09T06:16:04Z</time>
      </trkpt>
      <trkpt lat="44.72515" lon="4.58456">
        <ele>272.3</ele>
        <time>2022-06-09T06:16:05Z</time>
      </trkpt>
      <trkpt lat="44.72516" lon="4.58451">
        <ele>272.7</ele>
        <time>2022-06-09T06:16:06Z</time>
      </trkpt>
      <trkpt lat="44.72516" lon="4.58449">
        <ele>272.7</ele>
        <time>2022-06-09T06:16:07Z</time>
      </trkpt>
      <trkpt lat="44.72517" lon="4.58445">
        <ele>273</ele>
        <time>2022-06-09T06:16:08Z</time>
      </trkpt>
      <trkpt lat="44.72517" lon="4.58443">
        <ele>273.1</ele>
        <time>2022-06-09T06:16:09Z</time>
      </trkpt>
      <trkpt lat="44.72518" lon="4.58439">
        <ele>273.4</ele>
        <time>2022-06-09T06:16:10Z</time>
      </trkpt>
      <trkpt lat="44.72518" lon="4.58437">
        <ele>273.5</ele>
        <time>2022-06-09T06:16:11Z</time>
      </trkpt>
      <trkpt lat="44.7252" lon="4.5843">
        <ele>274</ele>
        <time>2022-06-09T06:16:12Z</time>
      </trkpt>
      <trkpt lat="44.72522" lon="4.58426">
        <ele>274.3</ele>
        <time>2022-06-09T06:16:14Z</time>
      </trkpt>
      <trkpt lat="44.72522" lon="4.58425">
        <ele>274.4</ele>
        <time>2022-06-09T06:16:15Z</time>
      </trkpt>
      <trkpt lat="44.72524" lon="4.58422">
        <ele>274.7</ele>
        <time>2022-06-09T06:16:16Z</time>
      </trkpt>
      <trkpt lat="44.72526" lon="4.58418">
        <ele>274.8</ele>
        <time>2022-06-09T06:16:18Z</time>
      </trkpt>
      <trkpt lat="44.72527" lon="4.58417">
        <ele>274.8</ele>
        <time>2022-06-09T06:16:19Z</time>
      </trkpt>
      <trkpt lat="44.72529" lon="4.58416">
        <ele>274.8</ele>
        <time>2022-06-09T06:16:20Z</time>
      </trkpt>
      <trkpt lat="44.72531" lon="4.58414">
        <ele>274.8</ele>
        <time>2022-06-09T06:16:21Z</time>
      </trkpt>
      <trkpt lat="44.72532" lon="4.58413">
        <ele>274.8</ele>
        <time>2022-06-09T06:16:22Z</time>
      </trkpt>
      <trkpt lat="44.72535" lon="4.58411">
        <ele>275.1</ele>
        <time>2022-06-09T06:16:23Z</time>
      </trkpt>
      <trkpt lat="44.72535" lon="4.58411">
        <ele>275.1</ele>
        <time>2022-06-09T06:16:24Z</time>
      </trkpt>
      <trkpt lat="44.72537" lon="4.58411">
        <ele>275.2</ele>
        <time>2022-06-09T06:16:25Z</time>
      </trkpt>
      <trkpt lat="44.72539" lon="4.5841">
        <ele>275.4</ele>
        <time>2022-06-09T06:16:26Z</time>
      </trkpt>
      <trkpt lat="44.72541" lon="4.58409">
        <ele>275.6</ele>
        <time>2022-06-09T06:16:27Z</time>
      </trkpt>
      <trkpt lat="44.72542" lon="4.58409">
        <ele>275.6</ele>
        <time>2022-06-09T06:16:28Z</time>
      </trkpt>
      <trkpt lat="44.72544" lon="4.58408">
        <ele>275.8</ele>
        <time>2022-06-09T06:16:29Z</time>
      </trkpt>
      <trkpt lat="44.72546" lon="4.58407">
        <ele>275.9</ele>
        <time>2022-06-09T06:16:30Z</time>
      </trkpt>
      <trkpt lat="44.72547" lon="4.58406">
        <ele>276</ele>
        <time>2022-06-09T06:16:31Z</time>
      </trkpt>
      <trkpt lat="44.72549" lon="4.58406">
        <ele>276.1</ele>
        <time>2022-06-09T06:16:32Z</time>
      </trkpt>
      <trkpt lat="44.7255" lon="4.58406">
        <ele>276.3</ele>
        <time>2022-06-09T06:16:33Z</time>
      </trkpt>
      <trkpt lat="44.72552" lon="4.58406">
        <ele>276.4</ele>
        <time>2022-06-09T06:16:34Z</time>
      </trkpt>
      <trkpt lat="44.72555" lon="4.58404">
        <ele>276.7</ele>
        <time>2022-06-09T06:16:35Z</time>
      </trkpt>
      <trkpt lat="44.72556" lon="4.58404">
        <ele>276.8</ele>
        <time>2022-06-09T06:16:36Z</time>
      </trkpt>
      <trkpt lat="44.72559" lon="4.58402">
        <ele>277</ele>
        <time>2022-06-09T06:16:37Z</time>
      </trkpt>
      <trkpt lat="44.7256" lon="4.58401">
        <ele>277.1</ele>
        <time>2022-06-09T06:16:39Z</time>
      </trkpt>
      <trkpt lat="44.72562" lon="4.584">
        <ele>277.3</ele>
        <time>2022-06-09T06:16:40Z</time>
      </trkpt>
      <trkpt lat="44.72563" lon="4.58399">
        <ele>277.4</ele>
        <time>2022-06-09T06:16:41Z</time>
      </trkpt>
      <trkpt lat="44.72564" lon="4.58398">
        <ele>277.6</ele>
        <time>2022-06-09T06:16:42Z</time>
      </trkpt>
      <trkpt lat="44.72566" lon="4.58397">
        <ele>277.7</ele>
        <time>2022-06-09T06:16:43Z</time>
      </trkpt>
      <trkpt lat="44.72568" lon="4.58394">
        <ele>278</ele>
        <time>2022-06-09T06:16:44Z</time>
      </trkpt>
      <trkpt lat="44.72569" lon="4.58392">
        <ele>278.1</ele>
        <time>2022-06-09T06:16:46Z</time>
      </trkpt>
      <trkpt lat="44.72571" lon="4.5839">
        <ele>278.3</ele>
        <time>2022-06-09T06:16:47Z</time>
      </trkpt>
      <trkpt lat="44.72572" lon="4.58389">
        <ele>278.5</ele>
        <time>2022-06-09T06:16:48Z</time>
      </trkpt>
      <trkpt lat="44.72573" lon="4.58385">
        <ele>278.7</ele>
        <time>2022-06-09T06:16:50Z</time>
      </trkpt>
      <trkpt lat="44.72574" lon="4.58384">
        <ele>278.8</ele>
        <time>2022-06-09T06:16:51Z</time>
      </trkpt>
      <trkpt lat="44.72576" lon="4.5838">
        <ele>279.2</ele>
        <time>2022-06-09T06:16:52Z</time>
      </trkpt>
      <trkpt lat="44.72576" lon="4.58378">
        <ele>279.3</ele>
        <time>2022-06-09T06:16:53Z</time>
      </trkpt>
      <trkpt lat="44.72577" lon="4.58374">
        <ele>279.5</ele>
        <time>2022-06-09T06:16:54Z</time>
      </trkpt>
      <trkpt lat="44.72578" lon="4.58373">
        <ele>279.6</ele>
        <time>2022-06-09T06:16:55Z</time>
      </trkpt>
      <trkpt lat="44.72579" lon="4.58371">
        <ele>279.8</ele>
        <time>2022-06-09T06:16:57Z</time>
      </trkpt>
      <trkpt lat="44.7258" lon="4.58366">
        <ele>280.1</ele>
        <time>2022-06-09T06:16:59Z</time>
      </trkpt>
      <trkpt lat="44.7258" lon="4.58364">
        <ele>280.3</ele>
        <time>2022-06-09T06:17:00Z</time>
      </trkpt>
      <trkpt lat="44.72581" lon="4.58361">
        <ele>280.4</ele>
        <time>2022-06-09T06:17:01Z</time>
      </trkpt>
      <trkpt lat="44.72582" lon="4.58359">
        <ele>280.6</ele>
        <time>2022-06-09T06:17:02Z</time>
      </trkpt>
      <trkpt lat="44.72583" lon="4.58358">
        <ele>280.7</ele>
        <time>2022-06-09T06:17:03Z</time>
      </trkpt>
      <trkpt lat="44.72584" lon="4.58354">
        <ele>281</ele>
        <time>2022-06-09T06:17:04Z</time>
      </trkpt>
      <trkpt lat="44.72585" lon="4.5835">
        <ele>281.3</ele>
        <time>2022-06-09T06:17:06Z</time>
      </trkpt>
      <trkpt lat="44.72585" lon="4.58349">
        <ele>281.4</ele>
        <time>2022-06-09T06:17:07Z</time>
      </trkpt>
      <trkpt lat="44.72586" lon="4.58346">
        <ele>281.6</ele>
        <time>2022-06-09T06:17:08Z</time>
      </trkpt>
      <trkpt lat="44.72586" lon="4.58344">
        <ele>281.7</ele>
        <time>2022-06-09T06:17:09Z</time>
      </trkpt>
      <trkpt lat="44.72588" lon="4.58341">
        <ele>282</ele>
        <time>2022-06-09T06:17:10Z</time>
      </trkpt>
      <trkpt lat="44.72588" lon="4.58339">
        <ele>282.1</ele>
        <time>2022-06-09T06:17:11Z</time>
      </trkpt>
      <trkpt lat="44.72589" lon="4.58337">
        <ele>282.2</ele>
        <time>2022-06-09T06:17:12Z</time>
      </trkpt>
      <trkpt lat="44.7259" lon="4.58336">
        <ele>282.4</ele>
        <time>2022-06-09T06:17:13Z</time>
      </trkpt>
      <trkpt lat="44.72591" lon="4.58334">
        <ele>282.6</ele>
        <time>2022-06-09T06:17:14Z</time>
      </trkpt>
      <trkpt lat="44.72592" lon="4.58332">
        <ele>282.7</ele>
        <time>2022-06-09T06:17:15Z</time>
      </trkpt>
      <trkpt lat="44.72592" lon="4.5833">
        <ele>282.9</ele>
        <time>2022-06-09T06:17:16Z</time>
      </trkpt>
      <trkpt lat="44.72594" lon="4.58326">
        <ele>283.2</ele>
        <time>2022-06-09T06:17:17Z</time>
      </trkpt>
      <trkpt lat="44.72595" lon="4.58323">
        <ele>283.4</ele>
        <time>2022-06-09T06:17:19Z</time>
      </trkpt>
      <trkpt lat="44.72596" lon="4.58321">
        <ele>283.5</ele>
        <time>2022-06-09T06:17:20Z</time>
      </trkpt>
      <trkpt lat="44.72597" lon="4.5832">
        <ele>283.6</ele>
        <time>2022-06-09T06:17:21Z</time>
      </trkpt>
      <trkpt lat="44.72597" lon="4.5832">
        <ele>283.7</ele>
        <time>2022-06-09T06:17:22Z</time>
      </trkpt>
      <trkpt lat="44.72599" lon="4.58319">
        <ele>283.8</ele>
        <time>2022-06-09T06:17:23Z</time>
      </trkpt>
      <trkpt lat="44.72599" lon="4.58319">
        <ele>283.9</ele>
        <time>2022-06-09T06:17:24Z</time>
      </trkpt>
      <trkpt lat="44.726" lon="4.58318">
        <ele>283.9</ele>
        <time>2022-06-09T06:17:25Z</time>
      </trkpt>
      <trkpt lat="44.72601" lon="4.58318">
        <ele>284.1</ele>
        <time>2022-06-09T06:17:26Z</time>
      </trkpt>
      <trkpt lat="44.72601" lon="4.58318">
        <ele>284.1</ele>
        <time>2022-06-09T06:17:27Z</time>
      </trkpt>
      <trkpt lat="44.72601" lon="4.58318">
        <ele>284.1</ele>
        <time>2022-06-09T06:17:28Z</time>
      </trkpt>
      <trkpt lat="44.72601" lon="4.58319">
        <ele>284.1</ele>
        <time>2022-06-09T06:17:29Z</time>
      </trkpt>
      <trkpt lat="44.72601" lon="4.58319">
        <ele>284.1</ele>
        <time>2022-06-09T06:17:30Z</time>
      </trkpt>
      <trkpt lat="44.72601" lon="4.58319">
        <ele>284.1</ele>
        <time>2022-06-09T06:17:31Z</time>
      </trkpt>
      <trkpt lat="44.72602" lon="4.58319">
        <ele>284.1</ele>
        <time>2022-06-09T06:17:32Z</time>
      </trkpt>
      <trkpt lat="44.72602" lon="4.58318">
        <ele>284.1</ele>
        <time>2022-06-09T06:17:33Z</time>
      </trkpt>
      <trkpt lat="44.72603" lon="4.58315">
        <ele>284.1</ele>
        <time>2022-06-09T06:17:34Z</time>
      </trkpt>
      <trkpt lat="44.72603" lon="4.58313">
        <ele>284.1</ele>
        <time>2022-06-09T06:17:35Z</time>
      </trkpt>
      <trkpt lat="44.72603" lon="4.5831">
        <ele>284</ele>
        <time>2022-06-09T06:17:36Z</time>
      </trkpt>
      <trkpt lat="44.72601" lon="4.58306">
        <ele>284</ele>
        <time>2022-06-09T06:17:38Z</time>
      </trkpt>
      <trkpt lat="44.72598" lon="4.58301">
        <ele>284</ele>
        <time>2022-06-09T06:17:39Z</time>
      </trkpt>
      <trkpt lat="44.72596" lon="4.58297">
        <ele>284.1</ele>
        <time>2022-06-09T06:17:40Z</time>
      </trkpt>
      <trkpt lat="44.72593" lon="4.58291">
        <ele>284.1</ele>
        <time>2022-06-09T06:17:42Z</time>
      </trkpt>
      <trkpt lat="44.72589" lon="4.58282">
        <ele>284.1</ele>
        <time>2022-06-09T06:17:44Z</time>
      </trkpt>
      <trkpt lat="44.72587" lon="4.58277">
        <ele>284.2</ele>
        <time>2022-06-09T06:17:45Z</time>
      </trkpt>
      <trkpt lat="44.72584" lon="4.58273">
        <ele>284.2</ele>
        <time>2022-06-09T06:17:46Z</time>
      </trkpt>
      <trkpt lat="44.72582" lon="4.58269">
        <ele>284.3</ele>
        <time>2022-06-09T06:17:47Z</time>
      </trkpt>
      <trkpt lat="44.7258" lon="4.58265">
        <ele>284.3</ele>
        <time>2022-06-09T06:17:48Z</time>
      </trkpt>
      <trkpt lat="44.72579" lon="4.58261">
        <ele>284.4</ele>
        <time>2022-06-09T06:17:49Z</time>
      </trkpt>
      <trkpt lat="44.72577" lon="4.58256">
        <ele>284.4</ele>
        <time>2022-06-09T06:17:50Z</time>
      </trkpt>
      <trkpt lat="44.72575" lon="4.58251">
        <ele>284.4</ele>
        <time>2022-06-09T06:17:51Z</time>
      </trkpt>
      <trkpt lat="44.72574" lon="4.58247">
        <ele>284.5</ele>
        <time>2022-06-09T06:17:52Z</time>
      </trkpt>
      <trkpt lat="44.7257" lon="4.58241">
        <ele>284.6</ele>
        <time>2022-06-09T06:17:53Z</time>
      </trkpt>
      <trkpt lat="44.72569" lon="4.58234">
        <ele>284.6</ele>
        <time>2022-06-09T06:17:54Z</time>
      </trkpt>
      <trkpt lat="44.72568" lon="4.58229">
        <ele>284.7</ele>
        <time>2022-06-09T06:17:56Z</time>
      </trkpt>
      <trkpt lat="44.72567" lon="4.58224">
        <ele>284.8</ele>
        <time>2022-06-09T06:17:57Z</time>
      </trkpt>
      <trkpt lat="44.72565" lon="4.5822">
        <ele>284.8</ele>
        <time>2022-06-09T06:17:58Z</time>
      </trkpt>
      <trkpt lat="44.72564" lon="4.58215">
        <ele>284.9</ele>
        <time>2022-06-09T06:17:59Z</time>
      </trkpt>
      <trkpt lat="44.72563" lon="4.5821">
        <ele>285</ele>
        <time>2022-06-09T06:18:00Z</time>
      </trkpt>
      <trkpt lat="44.72563" lon="4.58205">
        <ele>285</ele>
        <time>2022-06-09T06:18:01Z</time>
      </trkpt>
      <trkpt lat="44.72562" lon="4.582">
        <ele>285.1</ele>
        <time>2022-06-09T06:18:02Z</time>
      </trkpt>
      <trkpt lat="44.72561" lon="4.58195">
        <ele>285.2</ele>
        <time>2022-06-09T06:18:03Z</time>
      </trkpt>
      <trkpt lat="44.7256" lon="4.5819">
        <ele>285.3</ele>
        <time>2022-06-09T06:18:04Z</time>
      </trkpt>
      <trkpt lat="44.72557" lon="4.5818">
        <ele>285.4</ele>
        <time>2022-06-09T06:18:05Z</time>
      </trkpt>
      <trkpt lat="44.72556" lon="4.58175">
        <ele>285.5</ele>
        <time>2022-06-09T06:18:07Z</time>
      </trkpt>
      <trkpt lat="44.72555" lon="4.58171">
        <ele>285.6</ele>
        <time>2022-06-09T06:18:08Z</time>
      </trkpt>
      <trkpt lat="44.72554" lon="4.58165">
        <ele>285.6</ele>
        <time>2022-06-09T06:18:09Z</time>
      </trkpt>
      <trkpt lat="44.72553" lon="4.5816">
        <ele>285.7</ele>
        <time>2022-06-09T06:18:10Z</time>
      </trkpt>
      <trkpt lat="44.72552" lon="4.58155">
        <ele>285.8</ele>
        <time>2022-06-09T06:18:11Z</time>
      </trkpt>
      <trkpt lat="44.72551" lon="4.58145">
        <ele>285.9</ele>
        <time>2022-06-09T06:18:12Z</time>
      </trkpt>
      <trkpt lat="44.7255" lon="4.58139">
        <ele>286</ele>
        <time>2022-06-09T06:18:14Z</time>
      </trkpt>
      <trkpt lat="44.72549" lon="4.58134">
        <ele>286</ele>
        <time>2022-06-09T06:18:15Z</time>
      </trkpt>
      <trkpt lat="44.72548" lon="4.58129">
        <ele>286</ele>
        <time>2022-06-09T06:18:16Z</time>
      </trkpt>
      <trkpt lat="44.72547" lon="4.58123">
        <ele>286.1</ele>
        <time>2022-06-09T06:18:17Z</time>
      </trkpt>
      <trkpt lat="44.72546" lon="4.58118">
        <ele>286.1</ele>
        <time>2022-06-09T06:18:18Z</time>
      </trkpt>
      <trkpt lat="44.72545" lon="4.58112">
        <ele>286.2</ele>
        <time>2022-06-09T06:18:19Z</time>
      </trkpt>
      <trkpt lat="44.72544" lon="4.58107">
        <ele>286.2</ele>
        <time>2022-06-09T06:18:20Z</time>
      </trkpt>
      <trkpt lat="44.72542" lon="4.581">
        <ele>286.1</ele>
        <time>2022-06-09T06:18:21Z</time>
      </trkpt>
      <trkpt lat="44.72537" lon="4.58086">
        <ele>286.1</ele>
        <time>2022-06-09T06:18:23Z</time>
      </trkpt>
      <trkpt lat="44.72535" lon="4.58078">
        <ele>286.2</ele>
        <time>2022-06-09T06:18:25Z</time>
      </trkpt>
      <trkpt lat="44.72533" lon="4.58073">
        <ele>286.2</ele>
        <time>2022-06-09T06:18:26Z</time>
      </trkpt>
      <trkpt lat="44.72531" lon="4.58066">
        <ele>286.2</ele>
        <time>2022-06-09T06:18:27Z</time>
      </trkpt>
      <trkpt lat="44.7253" lon="4.5806">
        <ele>286.3</ele>
        <time>2022-06-09T06:18:28Z</time>
      </trkpt>
      <trkpt lat="44.72529" lon="4.58053">
        <ele>286.3</ele>
        <time>2022-06-09T06:18:30Z</time>
      </trkpt>
      <trkpt lat="44.72527" lon="4.58046">
        <ele>286.4</ele>
        <time>2022-06-09T06:18:31Z</time>
      </trkpt>
      <trkpt lat="44.72526" lon="4.58039">
        <ele>286.4</ele>
        <time>2022-06-09T06:18:32Z</time>
      </trkpt>
      <trkpt lat="44.72524" lon="4.5803">
        <ele>286.4</ele>
        <time>2022-06-09T06:18:33Z</time>
      </trkpt>
      <trkpt lat="44.72524" lon="4.58024">
        <ele>286.5</ele>
        <time>2022-06-09T06:18:35Z</time>
      </trkpt>
      <trkpt lat="44.72522" lon="4.58019">
        <ele>286.5</ele>
        <time>2022-06-09T06:18:36Z</time>
      </trkpt>
      <trkpt lat="44.72521" lon="4.58011">
        <ele>286.6</ele>
        <time>2022-06-09T06:18:37Z</time>
      </trkpt>
      <trkpt lat="44.72519" lon="4.58005">
        <ele>286.6</ele>
        <time>2022-06-09T06:18:38Z</time>
      </trkpt>
      <trkpt lat="44.72517" lon="4.58">
        <ele>286.7</ele>
        <time>2022-06-09T06:18:39Z</time>
      </trkpt>
      <trkpt lat="44.72516" lon="4.57992">
        <ele>286.7</ele>
        <time>2022-06-09T06:18:41Z</time>
      </trkpt>
      <trkpt lat="44.72515" lon="4.57987">
        <ele>286.8</ele>
        <time>2022-06-09T06:18:42Z</time>
      </trkpt>
      <trkpt lat="44.72514" lon="4.57981">
        <ele>286.8</ele>
        <time>2022-06-09T06:18:43Z</time>
      </trkpt>
      <trkpt lat="44.72512" lon="4.57975">
        <ele>286.9</ele>
        <time>2022-06-09T06:18:44Z</time>
      </trkpt>
      <trkpt lat="44.7251" lon="4.57966">
        <ele>287</ele>
        <time>2022-06-09T06:18:45Z</time>
      </trkpt>
      <trkpt lat="44.72509" lon="4.5796">
        <ele>287</ele>
        <time>2022-06-09T06:18:46Z</time>
      </trkpt>
      <trkpt lat="44.72507" lon="4.57953">
        <ele>287.1</ele>
        <time>2022-06-09T06:18:47Z</time>
      </trkpt>
      <trkpt lat="44.72506" lon="4.57947">
        <ele>287.2</ele>
        <time>2022-06-09T06:18:49Z</time>
      </trkpt>
      <trkpt lat="44.72504" lon="4.57942">
        <ele>287.2</ele>
        <time>2022-06-09T06:18:50Z</time>
      </trkpt>
      <trkpt lat="44.72503" lon="4.57936">
        <ele>287.3</ele>
        <time>2022-06-09T06:18:51Z</time>
      </trkpt>
      <trkpt lat="44.72502" lon="4.5793">
        <ele>287.3</ele>
        <time>2022-06-09T06:18:52Z</time>
      </trkpt>
      <trkpt lat="44.72501" lon="4.57925">
        <ele>287.4</ele>
        <time>2022-06-09T06:18:53Z</time>
      </trkpt>
      <trkpt lat="44.72499" lon="4.5792">
        <ele>287.5</ele>
        <time>2022-06-09T06:18:54Z</time>
      </trkpt>
      <trkpt lat="44.72497" lon="4.57914">
        <ele>287.5</ele>
        <time>2022-06-09T06:18:55Z</time>
      </trkpt>
      <trkpt lat="44.72495" lon="4.57909">
        <ele>287.6</ele>
        <time>2022-06-09T06:18:56Z</time>
      </trkpt>
      <trkpt lat="44.72493" lon="4.57904">
        <ele>287.6</ele>
        <time>2022-06-09T06:18:57Z</time>
      </trkpt>
      <trkpt lat="44.72492" lon="4.57899">
        <ele>287.7</ele>
        <time>2022-06-09T06:18:58Z</time>
      </trkpt>
      <trkpt lat="44.7249" lon="4.57894">
        <ele>287.7</ele>
        <time>2022-06-09T06:18:59Z</time>
      </trkpt>
      <trkpt lat="44.72488" lon="4.5789">
        <ele>287.8</ele>
        <time>2022-06-09T06:19:00Z</time>
      </trkpt>
      <trkpt lat="44.72486" lon="4.57885">
        <ele>287.9</ele>
        <time>2022-06-09T06:19:01Z</time>
      </trkpt>
      <trkpt lat="44.72484" lon="4.5788">
        <ele>287.9</ele>
        <time>2022-06-09T06:19:02Z</time>
      </trkpt>
      <trkpt lat="44.72482" lon="4.57876">
        <ele>288</ele>
        <time>2022-06-09T06:19:03Z</time>
      </trkpt>
      <trkpt lat="44.7248" lon="4.57871">
        <ele>288.1</ele>
        <time>2022-06-09T06:19:04Z</time>
      </trkpt>
      <trkpt lat="44.72478" lon="4.57867">
        <ele>288.1</ele>
        <time>2022-06-09T06:19:05Z</time>
      </trkpt>
      <trkpt lat="44.72475" lon="4.57863">
        <ele>288.2</ele>
        <time>2022-06-09T06:19:06Z</time>
      </trkpt>
      <trkpt lat="44.7247" lon="4.57854">
        <ele>288.3</ele>
        <time>2022-06-09T06:19:07Z</time>
      </trkpt>
      <trkpt lat="44.72468" lon="4.5785">
        <ele>288.4</ele>
        <time>2022-06-09T06:19:09Z</time>
      </trkpt>
      <trkpt lat="44.72465" lon="4.57845">
        <ele>288.5</ele>
        <time>2022-06-09T06:19:10Z</time>
      </trkpt>
      <trkpt lat="44.72462" lon="4.57839">
        <ele>288.6</ele>
        <time>2022-06-09T06:19:11Z</time>
      </trkpt>
      <trkpt lat="44.7246" lon="4.57835">
        <ele>288.7</ele>
        <time>2022-06-09T06:19:12Z</time>
      </trkpt>
      <trkpt lat="44.72455" lon="4.57827">
        <ele>288.8</ele>
        <time>2022-06-09T06:19:14Z</time>
      </trkpt>
      <trkpt lat="44.72452" lon="4.57823">
        <ele>288.9</ele>
        <time>2022-06-09T06:19:16Z</time>
      </trkpt>
      <trkpt lat="44.7245" lon="4.57818">
        <ele>288.9</ele>
        <time>2022-06-09T06:19:17Z</time>
      </trkpt>
      <trkpt lat="44.72448" lon="4.57814">
        <ele>289</ele>
        <time>2022-06-09T06:19:18Z</time>
      </trkpt>
      <trkpt lat="44.72444" lon="4.57806">
        <ele>289.1</ele>
        <time>2022-06-09T06:19:20Z</time>
      </trkpt>
      <trkpt lat="44.72442" lon="4.57802">
        <ele>289.1</ele>
        <time>2022-06-09T06:19:21Z</time>
      </trkpt>
      <trkpt lat="44.7244" lon="4.57797">
        <ele>289.2</ele>
        <time>2022-06-09T06:19:22Z</time>
      </trkpt>
      <trkpt lat="44.72436" lon="4.5779">
        <ele>289.3</ele>
        <time>2022-06-09T06:19:23Z</time>
      </trkpt>
      <trkpt lat="44.72432" lon="4.57785">
        <ele>289.3</ele>
        <time>2022-06-09T06:19:25Z</time>
      </trkpt>
      <trkpt lat="44.72427" lon="4.57776">
        <ele>289.4</ele>
        <time>2022-06-09T06:19:26Z</time>
      </trkpt>
      <trkpt lat="44.72425" lon="4.57772">
        <ele>289.4</ele>
        <time>2022-06-09T06:19:28Z</time>
      </trkpt>
      <trkpt lat="44.72418" lon="4.57759">
        <ele>289.5</ele>
        <time>2022-06-09T06:19:30Z</time>
      </trkpt>
      <trkpt lat="44.72416" lon="4.57755">
        <ele>289.6</ele>
        <time>2022-06-09T06:19:32Z</time>
      </trkpt>
      <trkpt lat="44.72414" lon="4.57751">
        <ele>289.6</ele>
        <time>2022-06-09T06:19:33Z</time>
      </trkpt>
      <trkpt lat="44.72411" lon="4.57747">
        <ele>289.7</ele>
        <time>2022-06-09T06:19:34Z</time>
      </trkpt>
      <trkpt lat="44.72409" lon="4.57742">
        <ele>289.7</ele>
        <time>2022-06-09T06:19:35Z</time>
      </trkpt>
      <trkpt lat="44.72407" lon="4.57738">
        <ele>289.7</ele>
        <time>2022-06-09T06:19:36Z</time>
      </trkpt>
      <trkpt lat="44.72403" lon="4.57731">
        <ele>289.8</ele>
        <time>2022-06-09T06:19:37Z</time>
      </trkpt>
      <trkpt lat="44.724" lon="4.57726">
        <ele>289.8</ele>
        <time>2022-06-09T06:19:38Z</time>
      </trkpt>
      <trkpt lat="44.72397" lon="4.57721">
        <ele>289.9</ele>
        <time>2022-06-09T06:19:40Z</time>
      </trkpt>
      <trkpt lat="44.72393" lon="4.57713">
        <ele>290</ele>
        <time>2022-06-09T06:19:41Z</time>
      </trkpt>
      <trkpt lat="44.7239" lon="4.57708">
        <ele>290</ele>
        <time>2022-06-09T06:19:43Z</time>
      </trkpt>
      <trkpt lat="44.72385" lon="4.577">
        <ele>290.1</ele>
        <time>2022-06-09T06:19:45Z</time>
      </trkpt>
      <trkpt lat="44.72382" lon="4.57696">
        <ele>290.1</ele>
        <time>2022-06-09T06:19:46Z</time>
      </trkpt>
      <trkpt lat="44.7238" lon="4.57692">
        <ele>290.2</ele>
        <time>2022-06-09T06:19:47Z</time>
      </trkpt>
      <trkpt lat="44.72378" lon="4.57688">
        <ele>290.2</ele>
        <time>2022-06-09T06:19:48Z</time>
      </trkpt>
      <trkpt lat="44.72373" lon="4.57683">
        <ele>290.3</ele>
        <time>2022-06-09T06:19:49Z</time>
      </trkpt>
      <trkpt lat="44.72369" lon="4.5768">
        <ele>290.3</ele>
        <time>2022-06-09T06:19:51Z</time>
      </trkpt>
      <trkpt lat="44.72367" lon="4.57678">
        <ele>290.3</ele>
        <time>2022-06-09T06:19:52Z</time>
      </trkpt>
      <trkpt lat="44.72366" lon="4.57677">
        <ele>290.4</ele>
        <time>2022-06-09T06:19:53Z</time>
      </trkpt>
      <trkpt lat="44.72363" lon="4.57675">
        <ele>290.4</ele>
        <time>2022-06-09T06:19:54Z</time>
      </trkpt>
      <trkpt lat="44.7236" lon="4.57674">
        <ele>290.4</ele>
        <time>2022-06-09T06:19:55Z</time>
      </trkpt>
      <trkpt lat="44.72357" lon="4.57672">
        <ele>290.4</ele>
        <time>2022-06-09T06:19:56Z</time>
      </trkpt>
      <trkpt lat="44.72354" lon="4.5767">
        <ele>290.4</ele>
        <time>2022-06-09T06:19:57Z</time>
      </trkpt>
      <trkpt lat="44.72351" lon="4.57668">
        <ele>290.5</ele>
        <time>2022-06-09T06:19:58Z</time>
      </trkpt>
      <trkpt lat="44.72348" lon="4.57666">
        <ele>290.5</ele>
        <time>2022-06-09T06:19:59Z</time>
      </trkpt>
      <trkpt lat="44.72344" lon="4.57663">
        <ele>290.5</ele>
        <time>2022-06-09T06:20:00Z</time>
      </trkpt>
      <trkpt lat="44.7234" lon="4.5766">
        <ele>290.5</ele>
        <time>2022-06-09T06:20:01Z</time>
      </trkpt>
      <trkpt lat="44.72336" lon="4.57658">
        <ele>290.5</ele>
        <time>2022-06-09T06:20:02Z</time>
      </trkpt>
      <trkpt lat="44.72333" lon="4.57656">
        <ele>290.5</ele>
        <time>2022-06-09T06:20:03Z</time>
      </trkpt>
      <trkpt lat="44.72329" lon="4.57653">
        <ele>290.5</ele>
        <time>2022-06-09T06:20:04Z</time>
      </trkpt>
      <trkpt lat="44.72325" lon="4.57651">
        <ele>290.5</ele>
        <time>2022-06-09T06:20:05Z</time>
      </trkpt>
      <trkpt lat="44.72321" lon="4.57649">
        <ele>290.5</ele>
        <time>2022-06-09T06:20:06Z</time>
      </trkpt>
      <trkpt lat="44.72317" lon="4.57646">
        <ele>290.5</ele>
        <time>2022-06-09T06:20:07Z</time>
      </trkpt>
      <trkpt lat="44.72309" lon="4.57641">
        <ele>290.4</ele>
        <time>2022-06-09T06:20:08Z</time>
      </trkpt>
      <trkpt lat="44.72304" lon="4.57638">
        <ele>290.4</ele>
        <time>2022-06-09T06:20:10Z</time>
      </trkpt>
      <trkpt lat="44.72299" lon="4.57635">
        <ele>290.3</ele>
        <time>2022-06-09T06:20:11Z</time>
      </trkpt>
      <trkpt lat="44.72295" lon="4.57632">
        <ele>290.3</ele>
        <time>2022-06-09T06:20:12Z</time>
      </trkpt>
      <trkpt lat="44.7229" lon="4.57629">
        <ele>290.3</ele>
        <time>2022-06-09T06:20:13Z</time>
      </trkpt>
      <trkpt lat="44.72286" lon="4.57626">
        <ele>290.2</ele>
        <time>2022-06-09T06:20:14Z</time>
      </trkpt>
      <trkpt lat="44.72282" lon="4.57623">
        <ele>290.2</ele>
        <time>2022-06-09T06:20:15Z</time>
      </trkpt>
      <trkpt lat="44.72277" lon="4.57621">
        <ele>290.2</ele>
        <time>2022-06-09T06:20:16Z</time>
      </trkpt>
      <trkpt lat="44.72273" lon="4.57618">
        <ele>290.1</ele>
        <time>2022-06-09T06:20:17Z</time>
      </trkpt>
      <trkpt lat="44.72268" lon="4.57615">
        <ele>290.1</ele>
        <time>2022-06-09T06:20:18Z</time>
      </trkpt>
      <trkpt lat="44.72264" lon="4.57612">
        <ele>290</ele>
        <time>2022-06-09T06:20:19Z</time>
      </trkpt>
      <trkpt lat="44.72259" lon="4.57609">
        <ele>290</ele>
        <time>2022-06-09T06:20:20Z</time>
      </trkpt>
      <trkpt lat="44.72255" lon="4.57606">
        <ele>289.9</ele>
        <time>2022-06-09T06:20:21Z</time>
      </trkpt>
      <trkpt lat="44.7225" lon="4.57603">
        <ele>289.9</ele>
        <time>2022-06-09T06:20:22Z</time>
      </trkpt>
      <trkpt lat="44.72246" lon="4.576">
        <ele>289.8</ele>
        <time>2022-06-09T06:20:23Z</time>
      </trkpt>
      <trkpt lat="44.72241" lon="4.57597">
        <ele>289.8</ele>
        <time>2022-06-09T06:20:24Z</time>
      </trkpt>
      <trkpt lat="44.72237" lon="4.57594">
        <ele>289.8</ele>
        <time>2022-06-09T06:20:25Z</time>
      </trkpt>
      <trkpt lat="44.72232" lon="4.57591">
        <ele>289.8</ele>
        <time>2022-06-09T06:20:26Z</time>
      </trkpt>
      <trkpt lat="44.72228" lon="4.57588">
        <ele>289.8</ele>
        <time>2022-06-09T06:20:27Z</time>
      </trkpt>
      <trkpt lat="44.72223" lon="4.57585">
        <ele>289.8</ele>
        <time>2022-06-09T06:20:28Z</time>
      </trkpt>
      <trkpt lat="44.72219" lon="4.57583">
        <ele>289.9</ele>
        <time>2022-06-09T06:20:29Z</time>
      </trkpt>
      <trkpt lat="44.72215" lon="4.5758">
        <ele>289.9</ele>
        <time>2022-06-09T06:20:30Z</time>
      </trkpt>
      <trkpt lat="44.72211" lon="4.57577">
        <ele>290</ele>
        <time>2022-06-09T06:20:31Z</time>
      </trkpt>
      <trkpt lat="44.72207" lon="4.57575">
        <ele>290</ele>
        <time>2022-06-09T06:20:32Z</time>
      </trkpt>
      <trkpt lat="44.72203" lon="4.57572">
        <ele>290</ele>
        <time>2022-06-09T06:20:33Z</time>
      </trkpt>
      <trkpt lat="44.72202" lon="4.57571">
        <ele>290.1</ele>
        <time>2022-06-09T06:20:34Z</time>
      </trkpt>
      <trkpt lat="44.72197" lon="4.57568">
        <ele>290.1</ele>
        <time>2022-06-09T06:20:35Z</time>
      </trkpt>
      <trkpt lat="44.72194" lon="4.57566">
        <ele>290.1</ele>
        <time>2022-06-09T06:20:36Z</time>
      </trkpt>
      <trkpt lat="44.72194" lon="4.57565">
        <ele>290.2</ele>
        <time>2022-06-09T06:20:37Z</time>
      </trkpt>
      <trkpt lat="44.7219" lon="4.57563">
        <ele>290.2</ele>
        <time>2022-06-09T06:20:38Z</time>
      </trkpt>
      <trkpt lat="44.72185" lon="4.5756">
        <ele>290.2</ele>
        <time>2022-06-09T06:20:39Z</time>
      </trkpt>
      <trkpt lat="44.72181" lon="4.57558">
        <ele>290.3</ele>
        <time>2022-06-09T06:20:40Z</time>
      </trkpt>
      <trkpt lat="44.72174" lon="4.57553">
        <ele>290.3</ele>
        <time>2022-06-09T06:20:41Z</time>
      </trkpt>
      <trkpt lat="44.72171" lon="4.57551">
        <ele>290.4</ele>
        <time>2022-06-09T06:20:42Z</time>
      </trkpt>
      <trkpt lat="44.72167" lon="4.57548">
        <ele>290.4</ele>
        <time>2022-06-09T06:20:44Z</time>
      </trkpt>
      <trkpt lat="44.72164" lon="4.57546">
        <ele>290.5</ele>
        <time>2022-06-09T06:20:45Z</time>
      </trkpt>
      <trkpt lat="44.72161" lon="4.57544">
        <ele>290.5</ele>
        <time>2022-06-09T06:20:46Z</time>
      </trkpt>
      <trkpt lat="44.72155" lon="4.57541">
        <ele>290.6</ele>
        <time>2022-06-09T06:20:47Z</time>
      </trkpt>
      <trkpt lat="44.7215" lon="4.57538">
        <ele>290.6</ele>
        <time>2022-06-09T06:20:49Z</time>
      </trkpt>
      <trkpt lat="44.72146" lon="4.57535">
        <ele>290.7</ele>
        <time>2022-06-09T06:20:51Z</time>
      </trkpt>
      <trkpt lat="44.7214" lon="4.57531">
        <ele>290.8</ele>
        <time>2022-06-09T06:20:52Z</time>
      </trkpt>
      <trkpt lat="44.72133" lon="4.57527">
        <ele>291</ele>
        <time>2022-06-09T06:20:54Z</time>
      </trkpt>
      <trkpt lat="44.72128" lon="4.57523">
        <ele>291.1</ele>
        <time>2022-06-09T06:20:56Z</time>
      </trkpt>
      <trkpt lat="44.72125" lon="4.57521">
        <ele>291.2</ele>
        <time>2022-06-09T06:20:58Z</time>
      </trkpt>
      <trkpt lat="44.7212" lon="4.57518">
        <ele>291.3</ele>
        <time>2022-06-09T06:20:59Z</time>
      </trkpt>
      <trkpt lat="44.72116" lon="4.57515">
        <ele>291.4</ele>
        <time>2022-06-09T06:21:01Z</time>
      </trkpt>
      <trkpt lat="44.72113" lon="4.57514">
        <ele>291.5</ele>
        <time>2022-06-09T06:21:02Z</time>
      </trkpt>
      <trkpt lat="44.72109" lon="4.57512">
        <ele>291.5</ele>
        <time>2022-06-09T06:21:03Z</time>
      </trkpt>
      <trkpt lat="44.72104" lon="4.57508">
        <ele>291.6</ele>
        <time>2022-06-09T06:21:04Z</time>
      </trkpt>
      <trkpt lat="44.72101" lon="4.57506">
        <ele>291.7</ele>
        <time>2022-06-09T06:21:05Z</time>
      </trkpt>
      <trkpt lat="44.72097" lon="4.57504">
        <ele>291.8</ele>
        <time>2022-06-09T06:21:07Z</time>
      </trkpt>
      <trkpt lat="44.72091" lon="4.575">
        <ele>292</ele>
        <time>2022-06-09T06:21:09Z</time>
      </trkpt>
      <trkpt lat="44.72088" lon="4.57497">
        <ele>292.1</ele>
        <time>2022-06-09T06:21:10Z</time>
      </trkpt>
      <trkpt lat="44.72085" lon="4.57494">
        <ele>292.2</ele>
        <time>2022-06-09T06:21:11Z</time>
      </trkpt>
      <trkpt lat="44.72082" lon="4.57492">
        <ele>292.2</ele>
        <time>2022-06-09T06:21:12Z</time>
      </trkpt>
      <trkpt lat="44.72079" lon="4.5749">
        <ele>292.3</ele>
        <time>2022-06-09T06:21:13Z</time>
      </trkpt>
      <trkpt lat="44.72074" lon="4.57487">
        <ele>292.4</ele>
        <time>2022-06-09T06:21:14Z</time>
      </trkpt>
      <trkpt lat="44.72069" lon="4.57484">
        <ele>292.6</ele>
        <time>2022-06-09T06:21:16Z</time>
      </trkpt>
      <trkpt lat="44.72066" lon="4.57482">
        <ele>292.7</ele>
        <time>2022-06-09T06:21:17Z</time>
      </trkpt>
      <trkpt lat="44.72063" lon="4.57479">
        <ele>292.8</ele>
        <time>2022-06-09T06:21:18Z</time>
      </trkpt>
      <trkpt lat="44.72061" lon="4.57478">
        <ele>292.8</ele>
        <time>2022-06-09T06:21:19Z</time>
      </trkpt>
      <trkpt lat="44.72058" lon="4.57476">
        <ele>292.9</ele>
        <time>2022-06-09T06:21:20Z</time>
      </trkpt>
      <trkpt lat="44.72054" lon="4.57474">
        <ele>293.1</ele>
        <time>2022-06-09T06:21:21Z</time>
      </trkpt>
      <trkpt lat="44.72053" lon="4.57473">
        <ele>293.1</ele>
        <time>2022-06-09T06:21:22Z</time>
      </trkpt>
      <trkpt lat="44.7205" lon="4.57472">
        <ele>293.3</ele>
        <time>2022-06-09T06:21:23Z</time>
      </trkpt>
      <trkpt lat="44.72047" lon="4.5747">
        <ele>293.4</ele>
        <time>2022-06-09T06:21:24Z</time>
      </trkpt>
      <trkpt lat="44.72046" lon="4.57469">
        <ele>293.5</ele>
        <time>2022-06-09T06:21:25Z</time>
      </trkpt>
      <trkpt lat="44.72043" lon="4.57468">
        <ele>293.6</ele>
        <time>2022-06-09T06:21:26Z</time>
      </trkpt>
      <trkpt lat="44.72042" lon="4.57467">
        <ele>293.7</ele>
        <time>2022-06-09T06:21:27Z</time>
      </trkpt>
      <trkpt lat="44.72038" lon="4.57466">
        <ele>293.9</ele>
        <time>2022-06-09T06:21:28Z</time>
      </trkpt>
      <trkpt lat="44.72038" lon="4.57466">
        <ele>293.9</ele>
        <time>2022-06-09T06:21:29Z</time>
      </trkpt>
      <trkpt lat="44.72035" lon="4.57464">
        <ele>294.1</ele>
        <time>2022-06-09T06:21:30Z</time>
      </trkpt>
      <trkpt lat="44.72034" lon="4.57463">
        <ele>294.1</ele>
        <time>2022-06-09T06:21:31Z</time>
      </trkpt>
      <trkpt lat="44.72031" lon="4.57461">
        <ele>294.3</ele>
        <time>2022-06-09T06:21:32Z</time>
      </trkpt>
      <trkpt lat="44.7203" lon="4.5746">
        <ele>294.3</ele>
        <time>2022-06-09T06:21:33Z</time>
      </trkpt>
      <trkpt lat="44.72027" lon="4.57457">
        <ele>294.5</ele>
        <time>2022-06-09T06:21:34Z</time>
      </trkpt>
      <trkpt lat="44.72026" lon="4.57457">
        <ele>294.5</ele>
        <time>2022-06-09T06:21:35Z</time>
      </trkpt>
      <trkpt lat="44.72023" lon="4.57455">
        <ele>294.7</ele>
        <time>2022-06-09T06:21:36Z</time>
      </trkpt>
      <trkpt lat="44.72022" lon="4.57454">
        <ele>294.7</ele>
        <time>2022-06-09T06:21:37Z</time>
      </trkpt>
      <trkpt lat="44.72019" lon="4.57451">
        <ele>294.8</ele>
        <time>2022-06-09T06:21:38Z</time>
      </trkpt>
      <trkpt lat="44.72018" lon="4.57451">
        <ele>294.8</ele>
        <time>2022-06-09T06:21:39Z</time>
      </trkpt>
      <trkpt lat="44.72016" lon="4.57448">
        <ele>294.9</ele>
        <time>2022-06-09T06:21:40Z</time>
      </trkpt>
      <trkpt lat="44.72016" lon="4.57447">
        <ele>295.1</ele>
        <time>2022-06-09T06:21:41Z</time>
      </trkpt>
      <trkpt lat="44.72015" lon="4.57443">
        <ele>295.1</ele>
        <time>2022-06-09T06:21:42Z</time>
      </trkpt>
      <trkpt lat="44.72015" lon="4.57441">
        <ele>295.1</ele>
        <time>2022-06-09T06:21:43Z</time>
      </trkpt>
      <trkpt lat="44.72016" lon="4.57438">
        <ele>295.1</ele>
        <time>2022-06-09T06:21:44Z</time>
      </trkpt>
      <trkpt lat="44.72016" lon="4.57434">
        <ele>295.2</ele>
        <time>2022-06-09T06:21:45Z</time>
      </trkpt>
      <trkpt lat="44.72016" lon="4.57432">
        <ele>295.2</ele>
        <time>2022-06-09T06:21:46Z</time>
      </trkpt>
      <trkpt lat="44.72016" lon="4.5743">
        <ele>295.2</ele>
        <time>2022-06-09T06:21:47Z</time>
      </trkpt>
      <trkpt lat="44.72016" lon="4.5743">
        <ele>295.2</ele>
        <time>2022-06-09T06:21:48Z</time>
      </trkpt>
      <trkpt lat="44.72016" lon="4.57429">
        <ele>295.2</ele>
        <time>2022-06-09T06:21:49Z</time>
      </trkpt>
      <trkpt lat="44.72016" lon="4.57428">
        <ele>295.2</ele>
        <time>2022-06-09T06:21:50Z</time>
      </trkpt>
      <trkpt lat="44.72015" lon="4.57428">
        <ele>295.2</ele>
        <time>2022-06-09T06:21:51Z</time>
      </trkpt>
      <trkpt lat="44.72015" lon="4.57427">
        <ele>295.2</ele>
        <time>2022-06-09T06:21:52Z</time>
      </trkpt>
      <trkpt lat="44.72015" lon="4.57426">
        <ele>295.3</ele>
        <time>2022-06-09T06:21:53Z</time>
      </trkpt>
      <trkpt lat="44.72015" lon="4.57426">
        <ele>295.3</ele>
        <time>2022-06-09T06:21:54Z</time>
      </trkpt>
      <trkpt lat="44.72015" lon="4.57425">
        <ele>295.3</ele>
        <time>2022-06-09T06:21:55Z</time>
      </trkpt>
      <trkpt lat="44.72015" lon="4.57424">
        <ele>295.3</ele>
        <time>2022-06-09T06:21:56Z</time>
      </trkpt>
      <trkpt lat="44.72015" lon="4.57424">
        <ele>295.3</ele>
        <time>2022-06-09T06:21:57Z</time>
      </trkpt>
      <trkpt lat="44.72015" lon="4.57423">
        <ele>295.3</ele>
        <time>2022-06-09T06:22:06Z</time>
      </trkpt>
      <trkpt lat="44.72015" lon="4.57422">
        <ele>295.3</ele>
        <time>2022-06-09T06:22:07Z</time>
      </trkpt>
      <trkpt lat="44.72015" lon="4.57421">
        <ele>295.3</ele>
        <time>2022-06-09T06:22:08Z</time>
      </trkpt>
      <trkpt lat="44.72015" lon="4.57417">
        <ele>295.3</ele>
        <time>2022-06-09T06:22:09Z</time>
      </trkpt>
      <trkpt lat="44.72015" lon="4.57413">
        <ele>295.4</ele>
        <time>2022-06-09T06:22:10Z</time>
      </trkpt>
      <trkpt lat="44.72015" lon="4.57409">
        <ele>295.4</ele>
        <time>2022-06-09T06:22:11Z</time>
      </trkpt>
      <trkpt lat="44.72015" lon="4.57404">
        <ele>295.4</ele>
        <time>2022-06-09T06:22:12Z</time>
      </trkpt>
      <trkpt lat="44.72015" lon="4.574">
        <ele>295.4</ele>
        <time>2022-06-09T06:22:13Z</time>
      </trkpt>
      <trkpt lat="44.72015" lon="4.57396">
        <ele>295.5</ele>
        <time>2022-06-09T06:22:14Z</time>
      </trkpt>
      <trkpt lat="44.72014" lon="4.57391">
        <ele>295.5</ele>
        <time>2022-06-09T06:22:15Z</time>
      </trkpt>
      <trkpt lat="44.72014" lon="4.57386">
        <ele>295.5</ele>
        <time>2022-06-09T06:22:16Z</time>
      </trkpt>
      <trkpt lat="44.72014" lon="4.57381">
        <ele>295.6</ele>
        <time>2022-06-09T06:22:17Z</time>
      </trkpt>
      <trkpt lat="44.72014" lon="4.57377">
        <ele>295.6</ele>
        <time>2022-06-09T06:22:18Z</time>
      </trkpt>
      <trkpt lat="44.72014" lon="4.57373">
        <ele>295.6</ele>
        <time>2022-06-09T06:22:19Z</time>
      </trkpt>
      <trkpt lat="44.72015" lon="4.57363">
        <ele>295.7</ele>
        <time>2022-06-09T06:22:20Z</time>
      </trkpt>
      <trkpt lat="44.72016" lon="4.57357">
        <ele>295.7</ele>
        <time>2022-06-09T06:22:22Z</time>
      </trkpt>
      <trkpt lat="44.72016" lon="4.57351">
        <ele>295.8</ele>
        <time>2022-06-09T06:22:23Z</time>
      </trkpt>
      <trkpt lat="44.72017" lon="4.57346">
        <ele>295.9</ele>
        <time>2022-06-09T06:22:24Z</time>
      </trkpt>
      <trkpt lat="44.72017" lon="4.57339">
        <ele>296</ele>
        <time>2022-06-09T06:22:25Z</time>
      </trkpt>
      <trkpt lat="44.72017" lon="4.57335">
        <ele>296.1</ele>
        <time>2022-06-09T06:22:27Z</time>
      </trkpt>
      <trkpt lat="44.72018" lon="4.5733">
        <ele>296.2</ele>
        <time>2022-06-09T06:22:28Z</time>
      </trkpt>
      <trkpt lat="44.72018" lon="4.57326">
        <ele>296.3</ele>
        <time>2022-06-09T06:22:29Z</time>
      </trkpt>
      <trkpt lat="44.72018" lon="4.57321">
        <ele>296.4</ele>
        <time>2022-06-09T06:22:30Z</time>
      </trkpt>
      <trkpt lat="44.72017" lon="4.57315">
        <ele>296.5</ele>
        <time>2022-06-09T06:22:31Z</time>
      </trkpt>
      <trkpt lat="44.72017" lon="4.57313">
        <ele>296.6</ele>
        <time>2022-06-09T06:22:32Z</time>
      </trkpt>
      <trkpt lat="44.72017" lon="4.57309">
        <ele>296.7</ele>
        <time>2022-06-09T06:22:33Z</time>
      </trkpt>
      <trkpt lat="44.72016" lon="4.57305">
        <ele>296.8</ele>
        <time>2022-06-09T06:22:34Z</time>
      </trkpt>
      <trkpt lat="44.72016" lon="4.573">
        <ele>296.9</ele>
        <time>2022-06-09T06:22:35Z</time>
      </trkpt>
      <trkpt lat="44.72015" lon="4.57298">
        <ele>296.9</ele>
        <time>2022-06-09T06:22:36Z</time>
      </trkpt>
      <trkpt lat="44.72014" lon="4.57291">
        <ele>297.1</ele>
        <time>2022-06-09T06:22:37Z</time>
      </trkpt>
      <trkpt lat="44.72013" lon="4.57287">
        <ele>297.2</ele>
        <time>2022-06-09T06:22:38Z</time>
      </trkpt>
      <trkpt lat="44.72012" lon="4.57284">
        <ele>297.3</ele>
        <time>2022-06-09T06:22:40Z</time>
      </trkpt>
      <trkpt lat="44.7201" lon="4.57281">
        <ele>297.4</ele>
        <time>2022-06-09T06:22:41Z</time>
      </trkpt>
      <trkpt lat="44.72008" lon="4.57278">
        <ele>297.5</ele>
        <time>2022-06-09T06:22:42Z</time>
      </trkpt>
      <trkpt lat="44.72004" lon="4.57273">
        <ele>297.6</ele>
        <time>2022-06-09T06:22:44Z</time>
      </trkpt>
      <trkpt lat="44.71998" lon="4.57266">
        <ele>297.9</ele>
        <time>2022-06-09T06:22:46Z</time>
      </trkpt>
      <trkpt lat="44.71994" lon="4.57261">
        <ele>298.2</ele>
        <time>2022-06-09T06:22:49Z</time>
      </trkpt>
      <trkpt lat="44.71991" lon="4.57257">
        <ele>298.4</ele>
        <time>2022-06-09T06:22:50Z</time>
      </trkpt>
      <trkpt lat="44.7199" lon="4.57256">
        <ele>298.5</ele>
        <time>2022-06-09T06:22:51Z</time>
      </trkpt>
      <trkpt lat="44.71988" lon="4.57253">
        <ele>298.6</ele>
        <time>2022-06-09T06:22:52Z</time>
      </trkpt>
      <trkpt lat="44.71987" lon="4.57252">
        <ele>298.7</ele>
        <time>2022-06-09T06:22:53Z</time>
      </trkpt>
      <trkpt lat="44.71985" lon="4.57249">
        <ele>298.9</ele>
        <time>2022-06-09T06:22:54Z</time>
      </trkpt>
      <trkpt lat="44.71985" lon="4.57248">
        <ele>298.9</ele>
        <time>2022-06-09T06:22:55Z</time>
      </trkpt>
      <trkpt lat="44.71983" lon="4.57245">
        <ele>299.1</ele>
        <time>2022-06-09T06:22:56Z</time>
      </trkpt>
      <trkpt lat="44.71982" lon="4.57244">
        <ele>299.2</ele>
        <time>2022-06-09T06:22:57Z</time>
      </trkpt>
      <trkpt lat="44.7198" lon="4.57241">
        <ele>299.3</ele>
        <time>2022-06-09T06:22:58Z</time>
      </trkpt>
      <trkpt lat="44.71979" lon="4.5724">
        <ele>299.4</ele>
        <time>2022-06-09T06:22:59Z</time>
      </trkpt>
      <trkpt lat="44.71977" lon="4.57236">
        <ele>299.6</ele>
        <time>2022-06-09T06:23:00Z</time>
      </trkpt>
      <trkpt lat="44.71976" lon="4.57234">
        <ele>299.7</ele>
        <time>2022-06-09T06:23:01Z</time>
      </trkpt>
      <trkpt lat="44.71973" lon="4.5723">
        <ele>300</ele>
        <time>2022-06-09T06:23:03Z</time>
      </trkpt>
      <trkpt lat="44.71972" lon="4.57228">
        <ele>300</ele>
        <time>2022-06-09T06:23:04Z</time>
      </trkpt>
      <trkpt lat="44.71971" lon="4.57227">
        <ele>300.1</ele>
        <time>2022-06-09T06:23:05Z</time>
      </trkpt>
      <trkpt lat="44.71969" lon="4.57223">
        <ele>300.3</ele>
        <time>2022-06-09T06:23:06Z</time>
      </trkpt>
      <trkpt lat="44.71968" lon="4.57222">
        <ele>300.4</ele>
        <time>2022-06-09T06:23:07Z</time>
      </trkpt>
      <trkpt lat="44.71966" lon="4.57219">
        <ele>300.6</ele>
        <time>2022-06-09T06:23:08Z</time>
      </trkpt>
      <trkpt lat="44.71965" lon="4.57218">
        <ele>300.6</ele>
        <time>2022-06-09T06:23:09Z</time>
      </trkpt>
      <trkpt lat="44.71963" lon="4.57214">
        <ele>300.8</ele>
        <time>2022-06-09T06:23:10Z</time>
      </trkpt>
      <trkpt lat="44.71963" lon="4.57213">
        <ele>300.9</ele>
        <time>2022-06-09T06:23:11Z</time>
      </trkpt>
      <trkpt lat="44.7196" lon="4.57208">
        <ele>301.1</ele>
        <time>2022-06-09T06:23:12Z</time>
      </trkpt>
      <trkpt lat="44.71959" lon="4.57206">
        <ele>301.2</ele>
        <time>2022-06-09T06:23:13Z</time>
      </trkpt>
      <trkpt lat="44.71957" lon="4.57203">
        <ele>301.3</ele>
        <time>2022-06-09T06:23:15Z</time>
      </trkpt>
      <trkpt lat="44.71955" lon="4.572">
        <ele>301.5</ele>
        <time>2022-06-09T06:23:16Z</time>
      </trkpt>
      <trkpt lat="44.71954" lon="4.57198">
        <ele>301.6</ele>
        <time>2022-06-09T06:23:17Z</time>
      </trkpt>
      <trkpt lat="44.71952" lon="4.57194">
        <ele>301.8</ele>
        <time>2022-06-09T06:23:18Z</time>
      </trkpt>
      <trkpt lat="44.71951" lon="4.57193">
        <ele>301.9</ele>
        <time>2022-06-09T06:23:19Z</time>
      </trkpt>
      <trkpt lat="44.71948" lon="4.57189">
        <ele>302.1</ele>
        <time>2022-06-09T06:23:20Z</time>
      </trkpt>
      <trkpt lat="44.71947" lon="4.57188">
        <ele>302.1</ele>
        <time>2022-06-09T06:23:21Z</time>
      </trkpt>
      <trkpt lat="44.71945" lon="4.57184">
        <ele>302.3</ele>
        <time>2022-06-09T06:23:22Z</time>
      </trkpt>
      <trkpt lat="44.71944" lon="4.57183">
        <ele>302.4</ele>
        <time>2022-06-09T06:23:23Z</time>
      </trkpt>
      <trkpt lat="44.71941" lon="4.5718">
        <ele>302.6</ele>
        <time>2022-06-09T06:23:24Z</time>
      </trkpt>
      <trkpt lat="44.71941" lon="4.57179">
        <ele>302.6</ele>
        <time>2022-06-09T06:23:25Z</time>
      </trkpt>
      <trkpt lat="44.71938" lon="4.57176">
        <ele>302.8</ele>
        <time>2022-06-09T06:23:26Z</time>
      </trkpt>
      <trkpt lat="44.71937" lon="4.57175">
        <ele>302.9</ele>
        <time>2022-06-09T06:23:27Z</time>
      </trkpt>
      <trkpt lat="44.71934" lon="4.57172">
        <ele>303.1</ele>
        <time>2022-06-09T06:23:28Z</time>
      </trkpt>
      <trkpt lat="44.71933" lon="4.57171">
        <ele>303.2</ele>
        <time>2022-06-09T06:23:29Z</time>
      </trkpt>
      <trkpt lat="44.71931" lon="4.57168">
        <ele>303.3</ele>
        <time>2022-06-09T06:23:30Z</time>
      </trkpt>
      <trkpt lat="44.71931" lon="4.57167">
        <ele>303.4</ele>
        <time>2022-06-09T06:23:31Z</time>
      </trkpt>
      <trkpt lat="44.71928" lon="4.57164">
        <ele>303.6</ele>
        <time>2022-06-09T06:23:32Z</time>
      </trkpt>
      <trkpt lat="44.71927" lon="4.57163">
        <ele>303.6</ele>
        <time>2022-06-09T06:23:33Z</time>
      </trkpt>
      <trkpt lat="44.71925" lon="4.5716">
        <ele>303.8</ele>
        <time>2022-06-09T06:23:34Z</time>
      </trkpt>
      <trkpt lat="44.71924" lon="4.57158">
        <ele>303.9</ele>
        <time>2022-06-09T06:23:35Z</time>
      </trkpt>
      <trkpt lat="44.71921" lon="4.57155">
        <ele>304.1</ele>
        <time>2022-06-09T06:23:36Z</time>
      </trkpt>
      <trkpt lat="44.71921" lon="4.57154">
        <ele>304.2</ele>
        <time>2022-06-09T06:23:37Z</time>
      </trkpt>
      <trkpt lat="44.71919" lon="4.5715">
        <ele>304.3</ele>
        <time>2022-06-09T06:23:38Z</time>
      </trkpt>
      <trkpt lat="44.71918" lon="4.57149">
        <ele>304.4</ele>
        <time>2022-06-09T06:23:39Z</time>
      </trkpt>
      <trkpt lat="44.71917" lon="4.57147">
        <ele>304.5</ele>
        <time>2022-06-09T06:23:40Z</time>
      </trkpt>
      <trkpt lat="44.71915" lon="4.57142">
        <ele>304.7</ele>
        <time>2022-06-09T06:23:42Z</time>
      </trkpt>
      <trkpt lat="44.71913" lon="4.57139">
        <ele>304.9</ele>
        <time>2022-06-09T06:23:43Z</time>
      </trkpt>
      <trkpt lat="44.71913" lon="4.57138">
        <ele>305</ele>
        <time>2022-06-09T06:23:44Z</time>
      </trkpt>
      <trkpt lat="44.71911" lon="4.57134">
        <ele>305.1</ele>
        <time>2022-06-09T06:23:45Z</time>
      </trkpt>
      <trkpt lat="44.7191" lon="4.57133">
        <ele>305.2</ele>
        <time>2022-06-09T06:23:46Z</time>
      </trkpt>
      <trkpt lat="44.71908" lon="4.57129">
        <ele>305.4</ele>
        <time>2022-06-09T06:23:48Z</time>
      </trkpt>
      <trkpt lat="44.71907" lon="4.57125">
        <ele>305.6</ele>
        <time>2022-06-09T06:23:49Z</time>
      </trkpt>
      <trkpt lat="44.71906" lon="4.57124">
        <ele>305.7</ele>
        <time>2022-06-09T06:23:50Z</time>
      </trkpt>
      <trkpt lat="44.71903" lon="4.5712">
        <ele>306</ele>
        <time>2022-06-09T06:23:51Z</time>
      </trkpt>
      <trkpt lat="44.71902" lon="4.57118">
        <ele>306.1</ele>
        <time>2022-06-09T06:23:52Z</time>
      </trkpt>
      <trkpt lat="44.719" lon="4.57112">
        <ele>306.4</ele>
        <time>2022-06-09T06:23:55Z</time>
      </trkpt>
      <trkpt lat="44.71898" lon="4.57109">
        <ele>306.6</ele>
        <time>2022-06-09T06:23:56Z</time>
      </trkpt>
      <trkpt lat="44.71895" lon="4.57104">
        <ele>306.9</ele>
        <time>2022-06-09T06:23:58Z</time>
      </trkpt>
      <trkpt lat="44.71894" lon="4.57102">
        <ele>307</ele>
        <time>2022-06-09T06:23:59Z</time>
      </trkpt>
      <trkpt lat="44.71894" lon="4.57101">
        <ele>307.1</ele>
        <time>2022-06-09T06:24:00Z</time>
      </trkpt>
      <trkpt lat="44.71892" lon="4.57098">
        <ele>307.3</ele>
        <time>2022-06-09T06:24:01Z</time>
      </trkpt>
      <trkpt lat="44.71891" lon="4.57096">
        <ele>307.3</ele>
        <time>2022-06-09T06:24:02Z</time>
      </trkpt>
      <trkpt lat="44.71889" lon="4.57093">
        <ele>307.5</ele>
        <time>2022-06-09T06:24:03Z</time>
      </trkpt>
      <trkpt lat="44.71889" lon="4.57092">
        <ele>307.6</ele>
        <time>2022-06-09T06:24:04Z</time>
      </trkpt>
      <trkpt lat="44.71886" lon="4.57088">
        <ele>307.8</ele>
        <time>2022-06-09T06:24:05Z</time>
      </trkpt>
      <trkpt lat="44.71886" lon="4.57087">
        <ele>307.9</ele>
        <time>2022-06-09T06:24:06Z</time>
      </trkpt>
      <trkpt lat="44.71883" lon="4.57084">
        <ele>308.1</ele>
        <time>2022-06-09T06:24:07Z</time>
      </trkpt>
      <trkpt lat="44.71882" lon="4.57083">
        <ele>308.1</ele>
        <time>2022-06-09T06:24:08Z</time>
      </trkpt>
      <trkpt lat="44.71879" lon="4.5708">
        <ele>308.3</ele>
        <time>2022-06-09T06:24:09Z</time>
      </trkpt>
      <trkpt lat="44.71879" lon="4.57078">
        <ele>308.4</ele>
        <time>2022-06-09T06:24:10Z</time>
      </trkpt>
      <trkpt lat="44.71876" lon="4.57075">
        <ele>308.6</ele>
        <time>2022-06-09T06:24:11Z</time>
      </trkpt>
      <trkpt lat="44.71876" lon="4.57073">
        <ele>308.7</ele>
        <time>2022-06-09T06:24:12Z</time>
      </trkpt>
      <trkpt lat="44.71873" lon="4.5707">
        <ele>308.9</ele>
        <time>2022-06-09T06:24:13Z</time>
      </trkpt>
      <trkpt lat="44.71872" lon="4.57069">
        <ele>309</ele>
        <time>2022-06-09T06:24:14Z</time>
      </trkpt>
      <trkpt lat="44.7187" lon="4.57065">
        <ele>309.2</ele>
        <time>2022-06-09T06:24:15Z</time>
      </trkpt>
      <trkpt lat="44.7187" lon="4.57064">
        <ele>309.3</ele>
        <time>2022-06-09T06:24:16Z</time>
      </trkpt>
      <trkpt lat="44.71868" lon="4.57061">
        <ele>309.5</ele>
        <time>2022-06-09T06:24:17Z</time>
      </trkpt>
      <trkpt lat="44.71867" lon="4.5706">
        <ele>309.5</ele>
        <time>2022-06-09T06:24:18Z</time>
      </trkpt>
      <trkpt lat="44.71865" lon="4.57056">
        <ele>309.7</ele>
        <time>2022-06-09T06:24:19Z</time>
      </trkpt>
      <trkpt lat="44.71865" lon="4.57055">
        <ele>309.8</ele>
        <time>2022-06-09T06:24:20Z</time>
      </trkpt>
      <trkpt lat="44.71864" lon="4.57053">
        <ele>309.9</ele>
        <time>2022-06-09T06:24:21Z</time>
      </trkpt>
      <trkpt lat="44.71863" lon="4.57051">
        <ele>310</ele>
        <time>2022-06-09T06:24:22Z</time>
      </trkpt>
      <trkpt lat="44.71861" lon="4.57048">
        <ele>310.3</ele>
        <time>2022-06-09T06:24:23Z</time>
      </trkpt>
      <trkpt lat="44.7186" lon="4.57046">
        <ele>310.3</ele>
        <time>2022-06-09T06:24:24Z</time>
      </trkpt>
      <trkpt lat="44.71858" lon="4.57043">
        <ele>310.5</ele>
        <time>2022-06-09T06:24:25Z</time>
      </trkpt>
      <trkpt lat="44.71857" lon="4.57042">
        <ele>310.6</ele>
        <time>2022-06-09T06:24:26Z</time>
      </trkpt>
      <trkpt lat="44.71855" lon="4.57039">
        <ele>310.8</ele>
        <time>2022-06-09T06:24:27Z</time>
      </trkpt>
      <trkpt lat="44.71855" lon="4.57037">
        <ele>310.9</ele>
        <time>2022-06-09T06:24:28Z</time>
      </trkpt>
      <trkpt lat="44.71853" lon="4.57035">
        <ele>311.1</ele>
        <time>2022-06-09T06:24:29Z</time>
      </trkpt>
      <trkpt lat="44.71852" lon="4.57034">
        <ele>311.1</ele>
        <time>2022-06-09T06:24:30Z</time>
      </trkpt>
      <trkpt lat="44.7185" lon="4.5703">
        <ele>311.3</ele>
        <time>2022-06-09T06:24:31Z</time>
      </trkpt>
      <trkpt lat="44.7185" lon="4.57029">
        <ele>311.4</ele>
        <time>2022-06-09T06:24:32Z</time>
      </trkpt>
      <trkpt lat="44.71848" lon="4.57025">
        <ele>311.6</ele>
        <time>2022-06-09T06:24:33Z</time>
      </trkpt>
      <trkpt lat="44.71847" lon="4.57024">
        <ele>311.6</ele>
        <time>2022-06-09T06:24:34Z</time>
      </trkpt>
      <trkpt lat="44.71846" lon="4.5702">
        <ele>311.8</ele>
        <time>2022-06-09T06:24:35Z</time>
      </trkpt>
      <trkpt lat="44.71845" lon="4.57019">
        <ele>311.9</ele>
        <time>2022-06-09T06:24:36Z</time>
      </trkpt>
      <trkpt lat="44.71844" lon="4.57015">
        <ele>312</ele>
        <time>2022-06-09T06:24:37Z</time>
      </trkpt>
      <trkpt lat="44.71844" lon="4.57014">
        <ele>312.1</ele>
        <time>2022-06-09T06:24:38Z</time>
      </trkpt>
      <trkpt lat="44.71842" lon="4.5701">
        <ele>312.3</ele>
        <time>2022-06-09T06:24:39Z</time>
      </trkpt>
      <trkpt lat="44.71841" lon="4.57008">
        <ele>312.3</ele>
        <time>2022-06-09T06:24:40Z</time>
      </trkpt>
      <trkpt lat="44.7184" lon="4.57003">
        <ele>312.5</ele>
        <time>2022-06-09T06:24:41Z</time>
      </trkpt>
      <trkpt lat="44.71839" lon="4.57001">
        <ele>312.6</ele>
        <time>2022-06-09T06:24:42Z</time>
      </trkpt>
      <trkpt lat="44.71837" lon="4.56998">
        <ele>312.8</ele>
        <time>2022-06-09T06:24:44Z</time>
      </trkpt>
      <trkpt lat="44.71834" lon="4.56995">
        <ele>313</ele>
        <time>2022-06-09T06:24:45Z</time>
      </trkpt>
      <trkpt lat="44.71834" lon="4.56993">
        <ele>313</ele>
        <time>2022-06-09T06:24:46Z</time>
      </trkpt>
      <trkpt lat="44.71831" lon="4.5699">
        <ele>313.2</ele>
        <time>2022-06-09T06:24:47Z</time>
      </trkpt>
      <trkpt lat="44.7183" lon="4.56989">
        <ele>313.3</ele>
        <time>2022-06-09T06:24:48Z</time>
      </trkpt>
      <trkpt lat="44.71828" lon="4.56986">
        <ele>313.4</ele>
        <time>2022-06-09T06:24:49Z</time>
      </trkpt>
      <trkpt lat="44.71827" lon="4.56985">
        <ele>313.5</ele>
        <time>2022-06-09T06:24:50Z</time>
      </trkpt>
      <trkpt lat="44.71825" lon="4.56982">
        <ele>313.7</ele>
        <time>2022-06-09T06:24:51Z</time>
      </trkpt>
      <trkpt lat="44.71824" lon="4.56981">
        <ele>313.7</ele>
        <time>2022-06-09T06:24:52Z</time>
      </trkpt>
      <trkpt lat="44.7182" lon="4.56977">
        <ele>314</ele>
        <time>2022-06-09T06:24:53Z</time>
      </trkpt>
      <trkpt lat="44.71817" lon="4.56973">
        <ele>314.2</ele>
        <time>2022-06-09T06:24:55Z</time>
      </trkpt>
      <trkpt lat="44.71816" lon="4.56971">
        <ele>314.3</ele>
        <time>2022-06-09T06:24:56Z</time>
      </trkpt>
      <trkpt lat="44.71813" lon="4.56969">
        <ele>314.5</ele>
        <time>2022-06-09T06:24:58Z</time>
      </trkpt>
      <trkpt lat="44.7181" lon="4.56965">
        <ele>314.8</ele>
        <time>2022-06-09T06:25:00Z</time>
      </trkpt>
      <trkpt lat="44.71807" lon="4.56962">
        <ele>315</ele>
        <time>2022-06-09T06:25:01Z</time>
      </trkpt>
      <trkpt lat="44.71806" lon="4.56961">
        <ele>315</ele>
        <time>2022-06-09T06:25:02Z</time>
      </trkpt>
      <trkpt lat="44.71804" lon="4.56958">
        <ele>315.2</ele>
        <time>2022-06-09T06:25:03Z</time>
      </trkpt>
      <trkpt lat="44.71803" lon="4.56957">
        <ele>315.3</ele>
        <time>2022-06-09T06:25:04Z</time>
      </trkpt>
      <trkpt lat="44.718" lon="4.56953">
        <ele>315.6</ele>
        <time>2022-06-09T06:25:05Z</time>
      </trkpt>
      <trkpt lat="44.71798" lon="4.5695">
        <ele>315.8</ele>
        <time>2022-06-09T06:25:07Z</time>
      </trkpt>
      <trkpt lat="44.71797" lon="4.56949">
        <ele>315.9</ele>
        <time>2022-06-09T06:25:08Z</time>
      </trkpt>
      <trkpt lat="44.71794" lon="4.56946">
        <ele>316.1</ele>
        <time>2022-06-09T06:25:09Z</time>
      </trkpt>
      <trkpt lat="44.71793" lon="4.56945">
        <ele>316.2</ele>
        <time>2022-06-09T06:25:10Z</time>
      </trkpt>
      <trkpt lat="44.71791" lon="4.56942">
        <ele>316.4</ele>
        <time>2022-06-09T06:25:11Z</time>
      </trkpt>
      <trkpt lat="44.7179" lon="4.56941">
        <ele>316.5</ele>
        <time>2022-06-09T06:25:12Z</time>
      </trkpt>
      <trkpt lat="44.71788" lon="4.56938">
        <ele>316.7</ele>
        <time>2022-06-09T06:25:13Z</time>
      </trkpt>
      <trkpt lat="44.71788" lon="4.56937">
        <ele>316.8</ele>
        <time>2022-06-09T06:25:14Z</time>
      </trkpt>
      <trkpt lat="44.71786" lon="4.56933">
        <ele>317</ele>
        <time>2022-06-09T06:25:15Z</time>
      </trkpt>
      <trkpt lat="44.71785" lon="4.56932">
        <ele>317</ele>
        <time>2022-06-09T06:25:16Z</time>
      </trkpt>
      <trkpt lat="44.71783" lon="4.56928">
        <ele>317.3</ele>
        <time>2022-06-09T06:25:17Z</time>
      </trkpt>
      <trkpt lat="44.71781" lon="4.56924">
        <ele>317.5</ele>
        <time>2022-06-09T06:25:19Z</time>
      </trkpt>
      <trkpt lat="44.7178" lon="4.56923">
        <ele>317.5</ele>
        <time>2022-06-09T06:25:20Z</time>
      </trkpt>
      <trkpt lat="44.71779" lon="4.5692">
        <ele>317.7</ele>
        <time>2022-06-09T06:25:21Z</time>
      </trkpt>
      <trkpt lat="44.71778" lon="4.56919">
        <ele>317.8</ele>
        <time>2022-06-09T06:25:22Z</time>
      </trkpt>
      <trkpt lat="44.71777" lon="4.56915">
        <ele>317.9</ele>
        <time>2022-06-09T06:25:23Z</time>
      </trkpt>
      <trkpt lat="44.71776" lon="4.56914">
        <ele>318</ele>
        <time>2022-06-09T06:25:24Z</time>
      </trkpt>
      <trkpt lat="44.71775" lon="4.5691">
        <ele>318.2</ele>
        <time>2022-06-09T06:25:25Z</time>
      </trkpt>
      <trkpt lat="44.71774" lon="4.56909">
        <ele>318.2</ele>
        <time>2022-06-09T06:25:26Z</time>
      </trkpt>
      <trkpt lat="44.71773" lon="4.56905">
        <ele>318.4</ele>
        <time>2022-06-09T06:25:27Z</time>
      </trkpt>
      <trkpt lat="44.71773" lon="4.56903">
        <ele>318.4</ele>
        <time>2022-06-09T06:25:28Z</time>
      </trkpt>
      <trkpt lat="44.71772" lon="4.56901">
        <ele>318.5</ele>
        <time>2022-06-09T06:25:29Z</time>
      </trkpt>
      <trkpt lat="44.71772" lon="4.56899">
        <ele>318.6</ele>
        <time>2022-06-09T06:25:30Z</time>
      </trkpt>
      <trkpt lat="44.71771" lon="4.56896">
        <ele>318.7</ele>
        <time>2022-06-09T06:25:31Z</time>
      </trkpt>
      <trkpt lat="44.71771" lon="4.56894">
        <ele>318.8</ele>
        <time>2022-06-09T06:25:32Z</time>
      </trkpt>
      <trkpt lat="44.7177" lon="4.56889">
        <ele>319</ele>
        <time>2022-06-09T06:25:33Z</time>
      </trkpt>
      <trkpt lat="44.71769" lon="4.56887">
        <ele>319.1</ele>
        <time>2022-06-09T06:25:34Z</time>
      </trkpt>
      <trkpt lat="44.71768" lon="4.56883">
        <ele>319.3</ele>
        <time>2022-06-09T06:25:36Z</time>
      </trkpt>
      <trkpt lat="44.71768" lon="4.56881">
        <ele>319.3</ele>
        <time>2022-06-09T06:25:37Z</time>
      </trkpt>
      <trkpt lat="44.71767" lon="4.56876">
        <ele>319.6</ele>
        <time>2022-06-09T06:25:39Z</time>
      </trkpt>
      <trkpt lat="44.71766" lon="4.56872">
        <ele>319.8</ele>
        <time>2022-06-09T06:25:40Z</time>
      </trkpt>
      <trkpt lat="44.71766" lon="4.5687">
        <ele>319.8</ele>
        <time>2022-06-09T06:25:41Z</time>
      </trkpt>
      <trkpt lat="44.71765" lon="4.56866">
        <ele>320</ele>
        <time>2022-06-09T06:25:42Z</time>
      </trkpt>
      <trkpt lat="44.71764" lon="4.56865">
        <ele>320.1</ele>
        <time>2022-06-09T06:25:43Z</time>
      </trkpt>
      <trkpt lat="44.71763" lon="4.56861">
        <ele>320.3</ele>
        <time>2022-06-09T06:25:44Z</time>
      </trkpt>
      <trkpt lat="44.71763" lon="4.5686">
        <ele>320.4</ele>
        <time>2022-06-09T06:25:45Z</time>
      </trkpt>
      <trkpt lat="44.71762" lon="4.56856">
        <ele>320.5</ele>
        <time>2022-06-09T06:25:46Z</time>
      </trkpt>
      <trkpt lat="44.71762" lon="4.56855">
        <ele>320.6</ele>
        <time>2022-06-09T06:25:47Z</time>
      </trkpt>
      <trkpt lat="44.71761" lon="4.56851">
        <ele>320.8</ele>
        <time>2022-06-09T06:25:48Z</time>
      </trkpt>
      <trkpt lat="44.71761" lon="4.56849">
        <ele>320.8</ele>
        <time>2022-06-09T06:25:49Z</time>
      </trkpt>
      <trkpt lat="44.7176" lon="4.56844">
        <ele>321.1</ele>
        <time>2022-06-09T06:25:50Z</time>
      </trkpt>
      <trkpt lat="44.7176" lon="4.56839">
        <ele>321.3</ele>
        <time>2022-06-09T06:25:52Z</time>
      </trkpt>
      <trkpt lat="44.71759" lon="4.56838">
        <ele>321.3</ele>
        <time>2022-06-09T06:25:53Z</time>
      </trkpt>
      <trkpt lat="44.71759" lon="4.56833">
        <ele>321.5</ele>
        <time>2022-06-09T06:25:54Z</time>
      </trkpt>
      <trkpt lat="44.71759" lon="4.56832">
        <ele>321.6</ele>
        <time>2022-06-09T06:25:55Z</time>
      </trkpt>
      <trkpt lat="44.71759" lon="4.56827">
        <ele>321.7</ele>
        <time>2022-06-09T06:25:56Z</time>
      </trkpt>
      <trkpt lat="44.71759" lon="4.56826">
        <ele>321.8</ele>
        <time>2022-06-09T06:25:57Z</time>
      </trkpt>
      <trkpt lat="44.71758" lon="4.56821">
        <ele>322</ele>
        <time>2022-06-09T06:25:58Z</time>
      </trkpt>
      <trkpt lat="44.71759" lon="4.56818">
        <ele>322</ele>
        <time>2022-06-09T06:25:59Z</time>
      </trkpt>
      <trkpt lat="44.71759" lon="4.56815">
        <ele>322.1</ele>
        <time>2022-06-09T06:26:01Z</time>
      </trkpt>
      <trkpt lat="44.71759" lon="4.56809">
        <ele>322.3</ele>
        <time>2022-06-09T06:26:02Z</time>
      </trkpt>
      <trkpt lat="44.7176" lon="4.56805">
        <ele>322.4</ele>
        <time>2022-06-09T06:26:04Z</time>
      </trkpt>
      <trkpt lat="44.7176" lon="4.56804">
        <ele>322.5</ele>
        <time>2022-06-09T06:26:05Z</time>
      </trkpt>
      <trkpt lat="44.71762" lon="4.568">
        <ele>322.6</ele>
        <time>2022-06-09T06:26:06Z</time>
      </trkpt>
      <trkpt lat="44.71762" lon="4.56799">
        <ele>322.6</ele>
        <time>2022-06-09T06:26:07Z</time>
      </trkpt>
      <trkpt lat="44.71764" lon="4.56795">
        <ele>322.7</ele>
        <time>2022-06-09T06:26:08Z</time>
      </trkpt>
      <trkpt lat="44.71765" lon="4.56793">
        <ele>322.7</ele>
        <time>2022-06-09T06:26:09Z</time>
      </trkpt>
      <trkpt lat="44.71766" lon="4.5679">
        <ele>322.8</ele>
        <time>2022-06-09T06:26:10Z</time>
      </trkpt>
      <trkpt lat="44.71767" lon="4.56788">
        <ele>322.9</ele>
        <time>2022-06-09T06:26:11Z</time>
      </trkpt>
      <trkpt lat="44.7177" lon="4.56784">
        <ele>323</ele>
        <time>2022-06-09T06:26:12Z</time>
      </trkpt>
      <trkpt lat="44.71772" lon="4.5678">
        <ele>323.1</ele>
        <time>2022-06-09T06:26:13Z</time>
      </trkpt>
      <trkpt lat="44.71773" lon="4.56778">
        <ele>323.1</ele>
        <time>2022-06-09T06:26:14Z</time>
      </trkpt>
      <trkpt lat="44.71777" lon="4.56772">
        <ele>323.3</ele>
        <time>2022-06-09T06:26:16Z</time>
      </trkpt>
      <trkpt lat="44.71778" lon="4.5677">
        <ele>323.3</ele>
        <time>2022-06-09T06:26:17Z</time>
      </trkpt>
      <trkpt lat="44.71779" lon="4.56768">
        <ele>323.4</ele>
        <time>2022-06-09T06:26:18Z</time>
      </trkpt>
      <trkpt lat="44.71781" lon="4.56763">
        <ele>323.5</ele>
        <time>2022-06-09T06:26:19Z</time>
      </trkpt>
      <trkpt lat="44.71782" lon="4.56762">
        <ele>323.5</ele>
        <time>2022-06-09T06:26:20Z</time>
      </trkpt>
      <trkpt lat="44.71784" lon="4.56758">
        <ele>323.6</ele>
        <time>2022-06-09T06:26:21Z</time>
      </trkpt>
      <trkpt lat="44.71786" lon="4.56755">
        <ele>323.6</ele>
        <time>2022-06-09T06:26:22Z</time>
      </trkpt>
      <trkpt lat="44.71788" lon="4.56753">
        <ele>323.7</ele>
        <time>2022-06-09T06:26:23Z</time>
      </trkpt>
      <trkpt lat="44.71791" lon="4.56747">
        <ele>323.8</ele>
        <time>2022-06-09T06:26:24Z</time>
      </trkpt>
      <trkpt lat="44.71793" lon="4.56743">
        <ele>323.8</ele>
        <time>2022-06-09T06:26:26Z</time>
      </trkpt>
      <trkpt lat="44.71795" lon="4.56739">
        <ele>323.9</ele>
        <time>2022-06-09T06:26:27Z</time>
      </trkpt>
      <trkpt lat="44.71796" lon="4.56737">
        <ele>323.9</ele>
        <time>2022-06-09T06:26:28Z</time>
      </trkpt>
      <trkpt lat="44.71798" lon="4.56733">
        <ele>324</ele>
        <time>2022-06-09T06:26:29Z</time>
      </trkpt>
      <trkpt lat="44.71799" lon="4.56732">
        <ele>324</ele>
        <time>2022-06-09T06:26:30Z</time>
      </trkpt>
      <trkpt lat="44.718" lon="4.5673">
        <ele>324.1</ele>
        <time>2022-06-09T06:26:31Z</time>
      </trkpt>
      <trkpt lat="44.718" lon="4.56729">
        <ele>324.1</ele>
        <time>2022-06-09T06:26:32Z</time>
      </trkpt>
      <trkpt lat="44.71801" lon="4.56728">
        <ele>324.2</ele>
        <time>2022-06-09T06:26:33Z</time>
      </trkpt>
      <trkpt lat="44.718" lon="4.56728">
        <ele>324.2</ele>
        <time>2022-06-09T06:26:34Z</time>
      </trkpt>
      <trkpt lat="44.718" lon="4.56728">
        <ele>324.2</ele>
        <time>2022-06-09T06:26:35Z</time>
      </trkpt>
      <trkpt lat="44.718" lon="4.56728">
        <ele>324.2</ele>
        <time>2022-06-09T06:26:36Z</time>
      </trkpt>
      <trkpt lat="44.718" lon="4.56727">
        <ele>324.2</ele>
        <time>2022-06-09T06:26:37Z</time>
      </trkpt>
      <trkpt lat="44.718" lon="4.56727">
        <ele>324.2</ele>
        <time>2022-06-09T06:26:38Z</time>
      </trkpt>
      <trkpt lat="44.71801" lon="4.56727">
        <ele>324.2</ele>
        <time>2022-06-09T06:26:39Z</time>
      </trkpt>
      <trkpt lat="44.71801" lon="4.56726">
        <ele>324.2</ele>
        <time>2022-06-09T06:26:40Z</time>
      </trkpt>
      <trkpt lat="44.71801" lon="4.56726">
        <ele>324.2</ele>
        <time>2022-06-09T06:26:41Z</time>
      </trkpt>
      <trkpt lat="44.71801" lon="4.56726">
        <ele>324.2</ele>
        <time>2022-06-09T06:26:42Z</time>
      </trkpt>
      <trkpt lat="44.71801" lon="4.56726">
        <ele>324.2</ele>
        <time>2022-06-09T06:26:44Z</time>
      </trkpt>
      <trkpt lat="44.71801" lon="4.56725">
        <ele>324.2</ele>
        <time>2022-06-09T06:26:45Z</time>
      </trkpt>
      <trkpt lat="44.71801" lon="4.56725">
        <ele>324.3</ele>
        <time>2022-06-09T06:26:46Z</time>
      </trkpt>
      <trkpt lat="44.71801" lon="4.56725">
        <ele>324.3</ele>
        <time>2022-06-09T06:26:47Z</time>
      </trkpt>
      <trkpt lat="44.71801" lon="4.56724">
        <ele>324.3</ele>
        <time>2022-06-09T06:26:48Z</time>
      </trkpt>
      <trkpt lat="44.71801" lon="4.56724">
        <ele>324.3</ele>
        <time>2022-06-09T06:26:49Z</time>
      </trkpt>
      <trkpt lat="44.71801" lon="4.56724">
        <ele>324.3</ele>
        <time>2022-06-09T06:26:50Z</time>
      </trkpt>
      <trkpt lat="44.71801" lon="4.56724">
        <ele>324.3</ele>
        <time>2022-06-09T06:26:51Z</time>
      </trkpt>
      <trkpt lat="44.71801" lon="4.56723">
        <ele>324.3</ele>
        <time>2022-06-09T06:26:52Z</time>
      </trkpt>
      <trkpt lat="44.71801" lon="4.56723">
        <ele>324.3</ele>
        <time>2022-06-09T06:26:54Z</time>
      </trkpt>
      <trkpt lat="44.71801" lon="4.56723">
        <ele>324.3</ele>
        <time>2022-06-09T06:26:55Z</time>
      </trkpt>
      <trkpt lat="44.71801" lon="4.56722">
        <ele>324.3</ele>
        <time>2022-06-09T06:29:28Z</time>
      </trkpt>
      <trkpt lat="44.71801" lon="4.56722">
        <ele>324.3</ele>
        <time>2022-06-09T06:29:29Z</time>
      </trkpt>
      <trkpt lat="44.71801" lon="4.56722">
        <ele>324.3</ele>
        <time>2022-06-09T06:29:30Z</time>
      </trkpt>
      <trkpt lat="44.71801" lon="4.56722">
        <ele>324.4</ele>
        <time>2022-06-09T06:29:31Z</time>
      </trkpt>
      <trkpt lat="44.71803" lon="4.56719">
        <ele>324.4</ele>
        <time>2022-06-09T06:29:32Z</time>
      </trkpt>
      <trkpt lat="44.71803" lon="4.56718">
        <ele>324.5</ele>
        <time>2022-06-09T06:29:33Z</time>
      </trkpt>
      <trkpt lat="44.71804" lon="4.56718">
        <ele>324.5</ele>
        <time>2022-06-09T06:29:34Z</time>
      </trkpt>
      <trkpt lat="44.71805" lon="4.56717">
        <ele>324.5</ele>
        <time>2022-06-09T06:29:35Z</time>
      </trkpt>
      <trkpt lat="44.71806" lon="4.56714">
        <ele>324.6</ele>
        <time>2022-06-09T06:29:36Z</time>
      </trkpt>
      <trkpt lat="44.71807" lon="4.56709">
        <ele>324.8</ele>
        <time>2022-06-09T06:29:37Z</time>
      </trkpt>
      <trkpt lat="44.71809" lon="4.56705">
        <ele>324.9</ele>
        <time>2022-06-09T06:29:38Z</time>
      </trkpt>
      <trkpt lat="44.7181" lon="4.56704">
        <ele>325</ele>
        <time>2022-06-09T06:29:39Z</time>
      </trkpt>
      <trkpt lat="44.71811" lon="4.56701">
        <ele>325</ele>
        <time>2022-06-09T06:29:40Z</time>
      </trkpt>
      <trkpt lat="44.71813" lon="4.56696">
        <ele>325.2</ele>
        <time>2022-06-09T06:29:42Z</time>
      </trkpt>
      <trkpt lat="44.71814" lon="4.56692">
        <ele>325.3</ele>
        <time>2022-06-09T06:29:43Z</time>
      </trkpt>
      <trkpt lat="44.71817" lon="4.56687">
        <ele>325.5</ele>
        <time>2022-06-09T06:29:45Z</time>
      </trkpt>
      <trkpt lat="44.71818" lon="4.56686">
        <ele>325.6</ele>
        <time>2022-06-09T06:29:46Z</time>
      </trkpt>
      <trkpt lat="44.71819" lon="4.56684">
        <ele>325.6</ele>
        <time>2022-06-09T06:29:47Z</time>
      </trkpt>
      <trkpt lat="44.7182" lon="4.56681">
        <ele>325.7</ele>
        <time>2022-06-09T06:29:48Z</time>
      </trkpt>
      <trkpt lat="44.7182" lon="4.56679">
        <ele>325.8</ele>
        <time>2022-06-09T06:29:49Z</time>
      </trkpt>
      <trkpt lat="44.71822" lon="4.56675">
        <ele>325.9</ele>
        <time>2022-06-09T06:29:50Z</time>
      </trkpt>
      <trkpt lat="44.71823" lon="4.56671">
        <ele>326</ele>
        <time>2022-06-09T06:29:51Z</time>
      </trkpt>
      <trkpt lat="44.71825" lon="4.56666">
        <ele>326.1</ele>
        <time>2022-06-09T06:29:53Z</time>
      </trkpt>
      <trkpt lat="44.71827" lon="4.5666">
        <ele>326.3</ele>
        <time>2022-06-09T06:29:55Z</time>
      </trkpt>
      <trkpt lat="44.71828" lon="4.56659">
        <ele>326.4</ele>
        <time>2022-06-09T06:29:56Z</time>
      </trkpt>
      <trkpt lat="44.71829" lon="4.56657">
        <ele>326.4</ele>
        <time>2022-06-09T06:29:57Z</time>
      </trkpt>
      <trkpt lat="44.71831" lon="4.56652">
        <ele>326.6</ele>
        <time>2022-06-09T06:29:58Z</time>
      </trkpt>
      <trkpt lat="44.71832" lon="4.56649">
        <ele>326.7</ele>
        <time>2022-06-09T06:29:59Z</time>
      </trkpt>
      <trkpt lat="44.71833" lon="4.56646">
        <ele>326.9</ele>
        <time>2022-06-09T06:30:01Z</time>
      </trkpt>
      <trkpt lat="44.71835" lon="4.5664">
        <ele>327.1</ele>
        <time>2022-06-09T06:30:03Z</time>
      </trkpt>
      <trkpt lat="44.71836" lon="4.56636">
        <ele>327.3</ele>
        <time>2022-06-09T06:30:04Z</time>
      </trkpt>
      <trkpt lat="44.71837" lon="4.56634">
        <ele>327.3</ele>
        <time>2022-06-09T06:30:05Z</time>
      </trkpt>
      <trkpt lat="44.71839" lon="4.56628">
        <ele>327.5</ele>
        <time>2022-06-09T06:30:06Z</time>
      </trkpt>
      <trkpt lat="44.7184" lon="4.56625">
        <ele>327.7</ele>
        <time>2022-06-09T06:30:07Z</time>
      </trkpt>
      <trkpt lat="44.71841" lon="4.56623">
        <ele>327.8</ele>
        <time>2022-06-09T06:30:09Z</time>
      </trkpt>
      <trkpt lat="44.71843" lon="4.56619">
        <ele>327.9</ele>
        <time>2022-06-09T06:30:10Z</time>
      </trkpt>
      <trkpt lat="44.71843" lon="4.56618">
        <ele>328</ele>
        <time>2022-06-09T06:30:11Z</time>
      </trkpt>
      <trkpt lat="44.71844" lon="4.56613">
        <ele>328.1</ele>
        <time>2022-06-09T06:30:12Z</time>
      </trkpt>
      <trkpt lat="44.71845" lon="4.56612">
        <ele>328.2</ele>
        <time>2022-06-09T06:30:13Z</time>
      </trkpt>
      <trkpt lat="44.71847" lon="4.56607">
        <ele>328.4</ele>
        <time>2022-06-09T06:30:14Z</time>
      </trkpt>
      <trkpt lat="44.71847" lon="4.56604">
        <ele>328.5</ele>
        <time>2022-06-09T06:30:15Z</time>
      </trkpt>
      <trkpt lat="44.71848" lon="4.56601">
        <ele>328.6</ele>
        <time>2022-06-09T06:30:17Z</time>
      </trkpt>
      <trkpt lat="44.71849" lon="4.56597">
        <ele>328.8</ele>
        <time>2022-06-09T06:30:18Z</time>
      </trkpt>
      <trkpt lat="44.7185" lon="4.56596">
        <ele>328.8</ele>
        <time>2022-06-09T06:30:19Z</time>
      </trkpt>
      <trkpt lat="44.71851" lon="4.56593">
        <ele>329</ele>
        <time>2022-06-09T06:30:20Z</time>
      </trkpt>
      <trkpt lat="44.71852" lon="4.56591">
        <ele>329</ele>
        <time>2022-06-09T06:30:21Z</time>
      </trkpt>
      <trkpt lat="44.71853" lon="4.56588">
        <ele>329.2</ele>
        <time>2022-06-09T06:30:22Z</time>
      </trkpt>
      <trkpt lat="44.71854" lon="4.56587">
        <ele>329.2</ele>
        <time>2022-06-09T06:30:23Z</time>
      </trkpt>
      <trkpt lat="44.71855" lon="4.56583">
        <ele>329.4</ele>
        <time>2022-06-09T06:30:24Z</time>
      </trkpt>
      <trkpt lat="44.71856" lon="4.56582">
        <ele>329.4</ele>
        <time>2022-06-09T06:30:25Z</time>
      </trkpt>
      <trkpt lat="44.71857" lon="4.56577">
        <ele>329.6</ele>
        <time>2022-06-09T06:30:26Z</time>
      </trkpt>
      <trkpt lat="44.71858" lon="4.56576">
        <ele>329.7</ele>
        <time>2022-06-09T06:30:27Z</time>
      </trkpt>
      <trkpt lat="44.71859" lon="4.56572">
        <ele>329.8</ele>
        <time>2022-06-09T06:30:28Z</time>
      </trkpt>
      <trkpt lat="44.7186" lon="4.56571">
        <ele>329.9</ele>
        <time>2022-06-09T06:30:29Z</time>
      </trkpt>
      <trkpt lat="44.7186" lon="4.56569">
        <ele>330</ele>
        <time>2022-06-09T06:30:30Z</time>
      </trkpt>
      <trkpt lat="44.71861" lon="4.56567">
        <ele>330</ele>
        <time>2022-06-09T06:30:31Z</time>
      </trkpt>
      <trkpt lat="44.71862" lon="4.56565">
        <ele>330.1</ele>
        <time>2022-06-09T06:30:32Z</time>
      </trkpt>
      <trkpt lat="44.71864" lon="4.56561">
        <ele>330.3</ele>
        <time>2022-06-09T06:30:34Z</time>
      </trkpt>
      <trkpt lat="44.71865" lon="4.56559">
        <ele>330.4</ele>
        <time>2022-06-09T06:30:35Z</time>
      </trkpt>
      <trkpt lat="44.71866" lon="4.56557">
        <ele>330.5</ele>
        <time>2022-06-09T06:30:36Z</time>
      </trkpt>
      <trkpt lat="44.71867" lon="4.56552">
        <ele>330.6</ele>
        <time>2022-06-09T06:30:38Z</time>
      </trkpt>
      <trkpt lat="44.71869" lon="4.56548">
        <ele>330.8</ele>
        <time>2022-06-09T06:30:39Z</time>
      </trkpt>
      <trkpt lat="44.7187" lon="4.56546">
        <ele>330.9</ele>
        <time>2022-06-09T06:30:40Z</time>
      </trkpt>
      <trkpt lat="44.71871" lon="4.56542">
        <ele>331</ele>
        <time>2022-06-09T06:30:41Z</time>
      </trkpt>
      <trkpt lat="44.71873" lon="4.56537">
        <ele>331.2</ele>
        <time>2022-06-09T06:30:43Z</time>
      </trkpt>
      <trkpt lat="44.71873" lon="4.56536">
        <ele>331.3</ele>
        <time>2022-06-09T06:30:44Z</time>
      </trkpt>
      <trkpt lat="44.71875" lon="4.56532">
        <ele>331.4</ele>
        <time>2022-06-09T06:30:45Z</time>
      </trkpt>
      <trkpt lat="44.71875" lon="4.56531">
        <ele>331.5</ele>
        <time>2022-06-09T06:30:46Z</time>
      </trkpt>
      <trkpt lat="44.71877" lon="4.56525">
        <ele>331.7</ele>
        <time>2022-06-09T06:30:47Z</time>
      </trkpt>
      <trkpt lat="44.71878" lon="4.56522">
        <ele>331.8</ele>
        <time>2022-06-09T06:30:48Z</time>
      </trkpt>
      <trkpt lat="44.7188" lon="4.56519">
        <ele>331.9</ele>
        <time>2022-06-09T06:30:50Z</time>
      </trkpt>
      <trkpt lat="44.7188" lon="4.56518">
        <ele>332</ele>
        <time>2022-06-09T06:30:51Z</time>
      </trkpt>
      <trkpt lat="44.71882" lon="4.56514">
        <ele>332.1</ele>
        <time>2022-06-09T06:30:52Z</time>
      </trkpt>
      <trkpt lat="44.71882" lon="4.56512">
        <ele>332.1</ele>
        <time>2022-06-09T06:30:53Z</time>
      </trkpt>
      <trkpt lat="44.71884" lon="4.56508">
        <ele>332.3</ele>
        <time>2022-06-09T06:30:55Z</time>
      </trkpt>
      <trkpt lat="44.71886" lon="4.56503">
        <ele>332.4</ele>
        <time>2022-06-09T06:30:57Z</time>
      </trkpt>
      <trkpt lat="44.71887" lon="4.56499">
        <ele>332.6</ele>
        <time>2022-06-09T06:30:58Z</time>
      </trkpt>
      <trkpt lat="44.71888" lon="4.56497">
        <ele>332.6</ele>
        <time>2022-06-09T06:30:59Z</time>
      </trkpt>
      <trkpt lat="44.71889" lon="4.56493">
        <ele>332.7</ele>
        <time>2022-06-09T06:31:00Z</time>
      </trkpt>
      <trkpt lat="44.71889" lon="4.56492">
        <ele>332.7</ele>
        <time>2022-06-09T06:31:01Z</time>
      </trkpt>
      <trkpt lat="44.71891" lon="4.56488">
        <ele>332.9</ele>
        <time>2022-06-09T06:31:02Z</time>
      </trkpt>
      <trkpt lat="44.71892" lon="4.56487">
        <ele>332.9</ele>
        <time>2022-06-09T06:31:03Z</time>
      </trkpt>
      <trkpt lat="44.71894" lon="4.56482">
        <ele>333</ele>
        <time>2022-06-09T06:31:04Z</time>
      </trkpt>
      <trkpt lat="44.71895" lon="4.56479">
        <ele>333.1</ele>
        <time>2022-06-09T06:31:05Z</time>
      </trkpt>
      <trkpt lat="44.71896" lon="4.56476">
        <ele>333.2</ele>
        <time>2022-06-09T06:31:07Z</time>
      </trkpt>
      <trkpt lat="44.71898" lon="4.56471">
        <ele>333.4</ele>
        <time>2022-06-09T06:31:08Z</time>
      </trkpt>
      <trkpt lat="44.719" lon="4.56466">
        <ele>333.5</ele>
        <time>2022-06-09T06:31:10Z</time>
      </trkpt>
      <trkpt lat="44.71901" lon="4.56465">
        <ele>333.5</ele>
        <time>2022-06-09T06:31:11Z</time>
      </trkpt>
      <trkpt lat="44.71903" lon="4.56461">
        <ele>333.6</ele>
        <time>2022-06-09T06:31:12Z</time>
      </trkpt>
      <trkpt lat="44.71904" lon="4.56459">
        <ele>333.7</ele>
        <time>2022-06-09T06:31:13Z</time>
      </trkpt>
      <trkpt lat="44.71906" lon="4.56454">
        <ele>333.8</ele>
        <time>2022-06-09T06:31:14Z</time>
      </trkpt>
      <trkpt lat="44.71907" lon="4.56451">
        <ele>333.8</ele>
        <time>2022-06-09T06:31:15Z</time>
      </trkpt>
      <trkpt lat="44.71908" lon="4.56448">
        <ele>333.9</ele>
        <time>2022-06-09T06:31:16Z</time>
      </trkpt>
      <trkpt lat="44.71909" lon="4.56444">
        <ele>334</ele>
        <time>2022-06-09T06:31:18Z</time>
      </trkpt>
      <trkpt lat="44.7191" lon="4.5644">
        <ele>334</ele>
        <time>2022-06-09T06:31:19Z</time>
      </trkpt>
      <trkpt lat="44.71912" lon="4.56436">
        <ele>334.1</ele>
        <time>2022-06-09T06:31:20Z</time>
      </trkpt>
      <trkpt lat="44.71913" lon="4.56431">
        <ele>334.2</ele>
        <time>2022-06-09T06:31:22Z</time>
      </trkpt>
      <trkpt lat="44.71913" lon="4.56427">
        <ele>334.3</ele>
        <time>2022-06-09T06:31:23Z</time>
      </trkpt>
      <trkpt lat="44.71914" lon="4.56421">
        <ele>334.3</ele>
        <time>2022-06-09T06:31:24Z</time>
      </trkpt>
      <trkpt lat="44.71915" lon="4.5642">
        <ele>334.4</ele>
        <time>2022-06-09T06:31:25Z</time>
      </trkpt>
      <trkpt lat="44.71916" lon="4.56413">
        <ele>334.5</ele>
        <time>2022-06-09T06:31:26Z</time>
      </trkpt>
      <trkpt lat="44.71918" lon="4.56406">
        <ele>334.6</ele>
        <time>2022-06-09T06:31:28Z</time>
      </trkpt>
      <trkpt lat="44.71919" lon="4.56399">
        <ele>334.7</ele>
        <time>2022-06-09T06:31:30Z</time>
      </trkpt>
      <trkpt lat="44.7192" lon="4.56396">
        <ele>334.7</ele>
        <time>2022-06-09T06:31:32Z</time>
      </trkpt>
      <trkpt lat="44.7192" lon="4.56392">
        <ele>334.8</ele>
        <time>2022-06-09T06:31:33Z</time>
      </trkpt>
      <trkpt lat="44.7192" lon="4.56386">
        <ele>334.9</ele>
        <time>2022-06-09T06:31:34Z</time>
      </trkpt>
      <trkpt lat="44.71921" lon="4.56384">
        <ele>335</ele>
        <time>2022-06-09T06:31:35Z</time>
      </trkpt>
      <trkpt lat="44.71921" lon="4.5638">
        <ele>335.1</ele>
        <time>2022-06-09T06:31:36Z</time>
      </trkpt>
      <trkpt lat="44.71922" lon="4.56374">
        <ele>335.2</ele>
        <time>2022-06-09T06:31:37Z</time>
      </trkpt>
      <trkpt lat="44.71922" lon="4.56369">
        <ele>335.4</ele>
        <time>2022-06-09T06:31:39Z</time>
      </trkpt>
      <trkpt lat="44.71921" lon="4.56363">
        <ele>335.6</ele>
        <time>2022-06-09T06:31:40Z</time>
      </trkpt>
      <trkpt lat="44.71921" lon="4.5636">
        <ele>335.6</ele>
        <time>2022-06-09T06:31:41Z</time>
      </trkpt>
      <trkpt lat="44.71921" lon="4.56351">
        <ele>335.9</ele>
        <time>2022-06-09T06:31:43Z</time>
      </trkpt>
      <trkpt lat="44.71921" lon="4.56347">
        <ele>336</ele>
        <time>2022-06-09T06:31:45Z</time>
      </trkpt>
      <trkpt lat="44.7192" lon="4.56342">
        <ele>336.1</ele>
        <time>2022-06-09T06:31:46Z</time>
      </trkpt>
      <trkpt lat="44.7192" lon="4.56341">
        <ele>336.2</ele>
        <time>2022-06-09T06:31:47Z</time>
      </trkpt>
      <trkpt lat="44.71919" lon="4.56336">
        <ele>336.3</ele>
        <time>2022-06-09T06:31:48Z</time>
      </trkpt>
      <trkpt lat="44.71919" lon="4.56334">
        <ele>336.4</ele>
        <time>2022-06-09T06:31:49Z</time>
      </trkpt>
      <trkpt lat="44.71918" lon="4.56329">
        <ele>336.5</ele>
        <time>2022-06-09T06:31:50Z</time>
      </trkpt>
      <trkpt lat="44.71918" lon="4.56327">
        <ele>336.6</ele>
        <time>2022-06-09T06:31:51Z</time>
      </trkpt>
      <trkpt lat="44.71916" lon="4.56321">
        <ele>336.8</ele>
        <time>2022-06-09T06:31:52Z</time>
      </trkpt>
      <trkpt lat="44.71915" lon="4.56318">
        <ele>336.9</ele>
        <time>2022-06-09T06:31:53Z</time>
      </trkpt>
      <trkpt lat="44.71914" lon="4.56314">
        <ele>337.1</ele>
        <time>2022-06-09T06:31:55Z</time>
      </trkpt>
      <trkpt lat="44.71913" lon="4.5631">
        <ele>337.2</ele>
        <time>2022-06-09T06:31:56Z</time>
      </trkpt>
      <trkpt lat="44.71912" lon="4.56305">
        <ele>337.4</ele>
        <time>2022-06-09T06:31:57Z</time>
      </trkpt>
      <trkpt lat="44.71911" lon="4.56303">
        <ele>337.4</ele>
        <time>2022-06-09T06:31:58Z</time>
      </trkpt>
      <trkpt lat="44.71911" lon="4.56298">
        <ele>337.6</ele>
        <time>2022-06-09T06:31:59Z</time>
      </trkpt>
      <trkpt lat="44.7191" lon="4.56297">
        <ele>337.6</ele>
        <time>2022-06-09T06:32:00Z</time>
      </trkpt>
      <trkpt lat="44.71908" lon="4.56292">
        <ele>337.8</ele>
        <time>2022-06-09T06:32:01Z</time>
      </trkpt>
      <trkpt lat="44.71908" lon="4.5629">
        <ele>337.9</ele>
        <time>2022-06-09T06:32:02Z</time>
      </trkpt>
      <trkpt lat="44.71907" lon="4.56285">
        <ele>338.1</ele>
        <time>2022-06-09T06:32:03Z</time>
      </trkpt>
      <trkpt lat="44.71906" lon="4.56283">
        <ele>338.1</ele>
        <time>2022-06-09T06:32:04Z</time>
      </trkpt>
      <trkpt lat="44.71905" lon="4.56279">
        <ele>338.3</ele>
        <time>2022-06-09T06:32:05Z</time>
      </trkpt>
      <trkpt lat="44.71905" lon="4.56277">
        <ele>338.4</ele>
        <time>2022-06-09T06:32:06Z</time>
      </trkpt>
      <trkpt lat="44.71903" lon="4.56273">
        <ele>338.6</ele>
        <time>2022-06-09T06:32:07Z</time>
      </trkpt>
      <trkpt lat="44.71903" lon="4.56271">
        <ele>338.6</ele>
        <time>2022-06-09T06:32:08Z</time>
      </trkpt>
      <trkpt lat="44.71902" lon="4.56266">
        <ele>338.9</ele>
        <time>2022-06-09T06:32:09Z</time>
      </trkpt>
      <trkpt lat="44.71901" lon="4.56262">
        <ele>339</ele>
        <time>2022-06-09T06:32:10Z</time>
      </trkpt>
      <trkpt lat="44.719" lon="4.56261">
        <ele>339.1</ele>
        <time>2022-06-09T06:32:11Z</time>
      </trkpt>
      <trkpt lat="44.71899" lon="4.56257">
        <ele>339.3</ele>
        <time>2022-06-09T06:32:12Z</time>
      </trkpt>
      <trkpt lat="44.71898" lon="4.56255">
        <ele>339.4</ele>
        <time>2022-06-09T06:32:14Z</time>
      </trkpt>
      <trkpt lat="44.71897" lon="4.56253">
        <ele>339.5</ele>
        <time>2022-06-09T06:32:16Z</time>
      </trkpt>
      <trkpt lat="44.71896" lon="4.56251">
        <ele>339.5</ele>
        <time>2022-06-09T06:32:17Z</time>
      </trkpt>
      <trkpt lat="44.71896" lon="4.56248">
        <ele>339.7</ele>
        <time>2022-06-09T06:32:18Z</time>
      </trkpt>
      <trkpt lat="44.71896" lon="4.56246">
        <ele>339.8</ele>
        <time>2022-06-09T06:32:19Z</time>
      </trkpt>
      <trkpt lat="44.71895" lon="4.56244">
        <ele>339.9</ele>
        <time>2022-06-09T06:32:20Z</time>
      </trkpt>
      <trkpt lat="44.71894" lon="4.56242">
        <ele>340</ele>
        <time>2022-06-09T06:32:21Z</time>
      </trkpt>
      <trkpt lat="44.71892" lon="4.56238">
        <ele>340.2</ele>
        <time>2022-06-09T06:32:22Z</time>
      </trkpt>
      <trkpt lat="44.71892" lon="4.56237">
        <ele>340.3</ele>
        <time>2022-06-09T06:32:23Z</time>
      </trkpt>
      <trkpt lat="44.7189" lon="4.56234">
        <ele>340.5</ele>
        <time>2022-06-09T06:32:24Z</time>
      </trkpt>
      <trkpt lat="44.71889" lon="4.56232">
        <ele>340.6</ele>
        <time>2022-06-09T06:32:26Z</time>
      </trkpt>
      <trkpt lat="44.71887" lon="4.56228">
        <ele>340.8</ele>
        <time>2022-06-09T06:32:27Z</time>
      </trkpt>
      <trkpt lat="44.71887" lon="4.56226">
        <ele>340.9</ele>
        <time>2022-06-09T06:32:28Z</time>
      </trkpt>
      <trkpt lat="44.71885" lon="4.56223">
        <ele>341.1</ele>
        <time>2022-06-09T06:32:29Z</time>
      </trkpt>
      <trkpt lat="44.71884" lon="4.56223">
        <ele>341.2</ele>
        <time>2022-06-09T06:32:30Z</time>
      </trkpt>
      <trkpt lat="44.71882" lon="4.5622">
        <ele>341.4</ele>
        <time>2022-06-09T06:32:31Z</time>
      </trkpt>
      <trkpt lat="44.71882" lon="4.56218">
        <ele>341.4</ele>
        <time>2022-06-09T06:32:32Z</time>
      </trkpt>
      <trkpt lat="44.7188" lon="4.56215">
        <ele>341.7</ele>
        <time>2022-06-09T06:32:33Z</time>
      </trkpt>
      <trkpt lat="44.71879" lon="4.56214">
        <ele>341.7</ele>
        <time>2022-06-09T06:32:34Z</time>
      </trkpt>
      <trkpt lat="44.71877" lon="4.5621">
        <ele>342</ele>
        <time>2022-06-09T06:32:35Z</time>
      </trkpt>
      <trkpt lat="44.71876" lon="4.56209">
        <ele>342.1</ele>
        <time>2022-06-09T06:32:36Z</time>
      </trkpt>
      <trkpt lat="44.71874" lon="4.56205">
        <ele>342.3</ele>
        <time>2022-06-09T06:32:37Z</time>
      </trkpt>
      <trkpt lat="44.71873" lon="4.56204">
        <ele>342.4</ele>
        <time>2022-06-09T06:32:38Z</time>
      </trkpt>
      <trkpt lat="44.71872" lon="4.56201">
        <ele>342.7</ele>
        <time>2022-06-09T06:32:39Z</time>
      </trkpt>
      <trkpt lat="44.7187" lon="4.56197">
        <ele>342.9</ele>
        <time>2022-06-09T06:32:41Z</time>
      </trkpt>
      <trkpt lat="44.71869" lon="4.56196">
        <ele>342.9</ele>
        <time>2022-06-09T06:32:42Z</time>
      </trkpt>
      <trkpt lat="44.71869" lon="4.56194">
        <ele>343.1</ele>
        <time>2022-06-09T06:32:43Z</time>
      </trkpt>
      <trkpt lat="44.71867" lon="4.56193">
        <ele>343.2</ele>
        <time>2022-06-09T06:32:44Z</time>
      </trkpt>
      <trkpt lat="44.71866" lon="4.56191">
        <ele>343.3</ele>
        <time>2022-06-09T06:32:45Z</time>
      </trkpt>
      <trkpt lat="44.71865" lon="4.56189">
        <ele>343.3</ele>
        <time>2022-06-09T06:32:46Z</time>
      </trkpt>
      <trkpt lat="44.71864" lon="4.56185">
        <ele>343.3</ele>
        <time>2022-06-09T06:32:47Z</time>
      </trkpt>
      <trkpt lat="44.71863" lon="4.56184">
        <ele>343.3</ele>
        <time>2022-06-09T06:32:48Z</time>
      </trkpt>
      <trkpt lat="44.71862" lon="4.56183">
        <ele>343.3</ele>
        <time>2022-06-09T06:32:49Z</time>
      </trkpt>
      <trkpt lat="44.71862" lon="4.56181">
        <ele>343.4</ele>
        <time>2022-06-09T06:32:50Z</time>
      </trkpt>
      <trkpt lat="44.71861" lon="4.56179">
        <ele>343.5</ele>
        <time>2022-06-09T06:32:51Z</time>
      </trkpt>
      <trkpt lat="44.7186" lon="4.56177">
        <ele>343.6</ele>
        <time>2022-06-09T06:32:52Z</time>
      </trkpt>
      <trkpt lat="44.71858" lon="4.56174">
        <ele>343.8</ele>
        <time>2022-06-09T06:32:53Z</time>
      </trkpt>
      <trkpt lat="44.71858" lon="4.56173">
        <ele>343.9</ele>
        <time>2022-06-09T06:32:54Z</time>
      </trkpt>
      <trkpt lat="44.71857" lon="4.56169">
        <ele>344</ele>
        <time>2022-06-09T06:32:55Z</time>
      </trkpt>
      <trkpt lat="44.71856" lon="4.56168">
        <ele>344.1</ele>
        <time>2022-06-09T06:32:56Z</time>
      </trkpt>
      <trkpt lat="44.71855" lon="4.56165">
        <ele>344.3</ele>
        <time>2022-06-09T06:32:57Z</time>
      </trkpt>
      <trkpt lat="44.71855" lon="4.56163">
        <ele>344.3</ele>
        <time>2022-06-09T06:32:58Z</time>
      </trkpt>
      <trkpt lat="44.71855" lon="4.56161">
        <ele>344.4</ele>
        <time>2022-06-09T06:32:59Z</time>
      </trkpt>
      <trkpt lat="44.71854" lon="4.56159">
        <ele>344.6</ele>
        <time>2022-06-09T06:33:00Z</time>
      </trkpt>
      <trkpt lat="44.71854" lon="4.56157">
        <ele>344.7</ele>
        <time>2022-06-09T06:33:01Z</time>
      </trkpt>
      <trkpt lat="44.71853" lon="4.56155">
        <ele>344.8</ele>
        <time>2022-06-09T06:33:02Z</time>
      </trkpt>
      <trkpt lat="44.71853" lon="4.56152">
        <ele>344.9</ele>
        <time>2022-06-09T06:33:03Z</time>
      </trkpt>
      <trkpt lat="44.71852" lon="4.56149">
        <ele>345.1</ele>
        <time>2022-06-09T06:33:04Z</time>
      </trkpt>
      <trkpt lat="44.71851" lon="4.56147">
        <ele>345.2</ele>
        <time>2022-06-09T06:33:05Z</time>
      </trkpt>
      <trkpt lat="44.71851" lon="4.56144">
        <ele>345.4</ele>
        <time>2022-06-09T06:33:07Z</time>
      </trkpt>
      <trkpt lat="44.7185" lon="4.56142">
        <ele>345.5</ele>
        <time>2022-06-09T06:33:08Z</time>
      </trkpt>
      <trkpt lat="44.7185" lon="4.5614">
        <ele>345.6</ele>
        <time>2022-06-09T06:33:09Z</time>
      </trkpt>
      <trkpt lat="44.71849" lon="4.56136">
        <ele>345.9</ele>
        <time>2022-06-09T06:33:11Z</time>
      </trkpt>
      <trkpt lat="44.71849" lon="4.56134">
        <ele>345.9</ele>
        <time>2022-06-09T06:33:12Z</time>
      </trkpt>
      <trkpt lat="44.71848" lon="4.56133">
        <ele>346</ele>
        <time>2022-06-09T06:33:13Z</time>
      </trkpt>
      <trkpt lat="44.71848" lon="4.56131">
        <ele>346.2</ele>
        <time>2022-06-09T06:33:14Z</time>
      </trkpt>
      <trkpt lat="44.71847" lon="4.56129">
        <ele>346.3</ele>
        <time>2022-06-09T06:33:15Z</time>
      </trkpt>
      <trkpt lat="44.71847" lon="4.56127">
        <ele>346.4</ele>
        <time>2022-06-09T06:33:16Z</time>
      </trkpt>
      <trkpt lat="44.71846" lon="4.56125">
        <ele>346.5</ele>
        <time>2022-06-09T06:33:17Z</time>
      </trkpt>
      <trkpt lat="44.71846" lon="4.56123">
        <ele>346.6</ele>
        <time>2022-06-09T06:33:18Z</time>
      </trkpt>
      <trkpt lat="44.71845" lon="4.56122">
        <ele>346.7</ele>
        <time>2022-06-09T06:33:19Z</time>
      </trkpt>
      <trkpt lat="44.71844" lon="4.5612">
        <ele>346.9</ele>
        <time>2022-06-09T06:33:20Z</time>
      </trkpt>
      <trkpt lat="44.71843" lon="4.56118">
        <ele>347</ele>
        <time>2022-06-09T06:33:21Z</time>
      </trkpt>
      <trkpt lat="44.71842" lon="4.56117">
        <ele>347.1</ele>
        <time>2022-06-09T06:33:22Z</time>
      </trkpt>
      <trkpt lat="44.71841" lon="4.56115">
        <ele>347.2</ele>
        <time>2022-06-09T06:33:23Z</time>
      </trkpt>
      <trkpt lat="44.7184" lon="4.56114">
        <ele>347.4</ele>
        <time>2022-06-09T06:33:24Z</time>
      </trkpt>
      <trkpt lat="44.71838" lon="4.56112">
        <ele>347.5</ele>
        <time>2022-06-09T06:33:25Z</time>
      </trkpt>
      <trkpt lat="44.71837" lon="4.56111">
        <ele>347.6</ele>
        <time>2022-06-09T06:33:26Z</time>
      </trkpt>
      <trkpt lat="44.71836" lon="4.5611">
        <ele>347.8</ele>
        <time>2022-06-09T06:33:27Z</time>
      </trkpt>
      <trkpt lat="44.71835" lon="4.56109">
        <ele>347.9</ele>
        <time>2022-06-09T06:33:28Z</time>
      </trkpt>
      <trkpt lat="44.71833" lon="4.56108">
        <ele>348</ele>
        <time>2022-06-09T06:33:29Z</time>
      </trkpt>
      <trkpt lat="44.71832" lon="4.56108">
        <ele>348.1</ele>
        <time>2022-06-09T06:33:30Z</time>
      </trkpt>
      <trkpt lat="44.7183" lon="4.56107">
        <ele>348.2</ele>
        <time>2022-06-09T06:33:31Z</time>
      </trkpt>
      <trkpt lat="44.71829" lon="4.56106">
        <ele>348.4</ele>
        <time>2022-06-09T06:33:32Z</time>
      </trkpt>
      <trkpt lat="44.71827" lon="4.56106">
        <ele>348.5</ele>
        <time>2022-06-09T06:33:33Z</time>
      </trkpt>
      <trkpt lat="44.71826" lon="4.56106">
        <ele>348.6</ele>
        <time>2022-06-09T06:33:34Z</time>
      </trkpt>
      <trkpt lat="44.71824" lon="4.56105">
        <ele>348.8</ele>
        <time>2022-06-09T06:33:35Z</time>
      </trkpt>
      <trkpt lat="44.71823" lon="4.56105">
        <ele>348.9</ele>
        <time>2022-06-09T06:33:36Z</time>
      </trkpt>
      <trkpt lat="44.71821" lon="4.56105">
        <ele>349.1</ele>
        <time>2022-06-09T06:33:37Z</time>
      </trkpt>
      <trkpt lat="44.71819" lon="4.56105">
        <ele>349.2</ele>
        <time>2022-06-09T06:33:38Z</time>
      </trkpt>
      <trkpt lat="44.71818" lon="4.56105">
        <ele>349.3</ele>
        <time>2022-06-09T06:33:39Z</time>
      </trkpt>
      <trkpt lat="44.71816" lon="4.56105">
        <ele>349.4</ele>
        <time>2022-06-09T06:33:40Z</time>
      </trkpt>
      <trkpt lat="44.71814" lon="4.56105">
        <ele>349.6</ele>
        <time>2022-06-09T06:33:41Z</time>
      </trkpt>
      <trkpt lat="44.71813" lon="4.56105">
        <ele>349.7</ele>
        <time>2022-06-09T06:33:42Z</time>
      </trkpt>
      <trkpt lat="44.71811" lon="4.56105">
        <ele>349.9</ele>
        <time>2022-06-09T06:33:43Z</time>
      </trkpt>
      <trkpt lat="44.71809" lon="4.56105">
        <ele>350</ele>
        <time>2022-06-09T06:33:44Z</time>
      </trkpt>
      <trkpt lat="44.71808" lon="4.56106">
        <ele>350.1</ele>
        <time>2022-06-09T06:33:45Z</time>
      </trkpt>
      <trkpt lat="44.71807" lon="4.56106">
        <ele>350.2</ele>
        <time>2022-06-09T06:33:46Z</time>
      </trkpt>
      <trkpt lat="44.71805" lon="4.56107">
        <ele>350.3</ele>
        <time>2022-06-09T06:33:47Z</time>
      </trkpt>
      <trkpt lat="44.71803" lon="4.56107">
        <ele>350.4</ele>
        <time>2022-06-09T06:33:48Z</time>
      </trkpt>
      <trkpt lat="44.71802" lon="4.56107">
        <ele>350.6</ele>
        <time>2022-06-09T06:33:49Z</time>
      </trkpt>
      <trkpt lat="44.718" lon="4.56107">
        <ele>350.7</ele>
        <time>2022-06-09T06:33:50Z</time>
      </trkpt>
      <trkpt lat="44.71799" lon="4.56107">
        <ele>350.8</ele>
        <time>2022-06-09T06:33:51Z</time>
      </trkpt>
      <trkpt lat="44.71798" lon="4.56108">
        <ele>350.9</ele>
        <time>2022-06-09T06:33:52Z</time>
      </trkpt>
      <trkpt lat="44.71796" lon="4.56108">
        <ele>351</ele>
        <time>2022-06-09T06:33:53Z</time>
      </trkpt>
      <trkpt lat="44.71794" lon="4.56108">
        <ele>351.1</ele>
        <time>2022-06-09T06:33:54Z</time>
      </trkpt>
      <trkpt lat="44.71793" lon="4.56109">
        <ele>351.2</ele>
        <time>2022-06-09T06:33:55Z</time>
      </trkpt>
      <trkpt lat="44.71791" lon="4.56109">
        <ele>351.3</ele>
        <time>2022-06-09T06:33:56Z</time>
      </trkpt>
      <trkpt lat="44.7179" lon="4.56109">
        <ele>351.4</ele>
        <time>2022-06-09T06:33:57Z</time>
      </trkpt>
      <trkpt lat="44.71788" lon="4.56108">
        <ele>351.5</ele>
        <time>2022-06-09T06:33:58Z</time>
      </trkpt>
      <trkpt lat="44.71787" lon="4.56109">
        <ele>351.6</ele>
        <time>2022-06-09T06:33:59Z</time>
      </trkpt>
      <trkpt lat="44.71785" lon="4.56109">
        <ele>351.7</ele>
        <time>2022-06-09T06:34:00Z</time>
      </trkpt>
      <trkpt lat="44.71783" lon="4.5611">
        <ele>351.9</ele>
        <time>2022-06-09T06:34:01Z</time>
      </trkpt>
      <trkpt lat="44.71782" lon="4.5611">
        <ele>352</ele>
        <time>2022-06-09T06:34:02Z</time>
      </trkpt>
      <trkpt lat="44.71781" lon="4.5611">
        <ele>352</ele>
        <time>2022-06-09T06:34:03Z</time>
      </trkpt>
      <trkpt lat="44.7178" lon="4.56109">
        <ele>352.1</ele>
        <time>2022-06-09T06:34:04Z</time>
      </trkpt>
      <trkpt lat="44.71778" lon="4.56109">
        <ele>352.2</ele>
        <time>2022-06-09T06:34:05Z</time>
      </trkpt>
      <trkpt lat="44.71774" lon="4.5611">
        <ele>352.5</ele>
        <time>2022-06-09T06:34:06Z</time>
      </trkpt>
      <trkpt lat="44.71773" lon="4.5611">
        <ele>352.6</ele>
        <time>2022-06-09T06:34:07Z</time>
      </trkpt>
      <trkpt lat="44.71769" lon="4.56111">
        <ele>352.8</ele>
        <time>2022-06-09T06:34:09Z</time>
      </trkpt>
      <trkpt lat="44.71765" lon="4.56111">
        <ele>353.1</ele>
        <time>2022-06-09T06:34:11Z</time>
      </trkpt>
      <trkpt lat="44.71763" lon="4.56111">
        <ele>353.3</ele>
        <time>2022-06-09T06:34:13Z</time>
      </trkpt>
      <trkpt lat="44.71759" lon="4.56109">
        <ele>353.5</ele>
        <time>2022-06-09T06:34:14Z</time>
      </trkpt>
      <trkpt lat="44.71757" lon="4.56109">
        <ele>353.7</ele>
        <time>2022-06-09T06:34:16Z</time>
      </trkpt>
      <trkpt lat="44.71756" lon="4.56109">
        <ele>353.8</ele>
        <time>2022-06-09T06:34:17Z</time>
      </trkpt>
      <trkpt lat="44.71754" lon="4.56109">
        <ele>354</ele>
        <time>2022-06-09T06:34:18Z</time>
      </trkpt>
      <trkpt lat="44.71751" lon="4.56107">
        <ele>354.2</ele>
        <time>2022-06-09T06:34:19Z</time>
      </trkpt>
      <trkpt lat="44.71749" lon="4.56107">
        <ele>354.3</ele>
        <time>2022-06-09T06:34:20Z</time>
      </trkpt>
      <trkpt lat="44.71747" lon="4.56106">
        <ele>354.5</ele>
        <time>2022-06-09T06:34:21Z</time>
      </trkpt>
      <trkpt lat="44.71745" lon="4.56105">
        <ele>354.6</ele>
        <time>2022-06-09T06:34:23Z</time>
      </trkpt>
      <trkpt lat="44.71744" lon="4.56105">
        <ele>354.7</ele>
        <time>2022-06-09T06:34:24Z</time>
      </trkpt>
      <trkpt lat="44.71743" lon="4.56104">
        <ele>354.8</ele>
        <time>2022-06-09T06:34:25Z</time>
      </trkpt>
      <trkpt lat="44.71739" lon="4.56102">
        <ele>355.1</ele>
        <time>2022-06-09T06:34:26Z</time>
      </trkpt>
      <trkpt lat="44.71738" lon="4.56101">
        <ele>355.2</ele>
        <time>2022-06-09T06:34:27Z</time>
      </trkpt>
      <trkpt lat="44.71736" lon="4.56099">
        <ele>355.4</ele>
        <time>2022-06-09T06:34:29Z</time>
      </trkpt>
      <trkpt lat="44.71735" lon="4.56099">
        <ele>355.5</ele>
        <time>2022-06-09T06:34:30Z</time>
      </trkpt>
      <trkpt lat="44.71732" lon="4.56095">
        <ele>355.8</ele>
        <time>2022-06-09T06:34:31Z</time>
      </trkpt>
      <trkpt lat="44.71731" lon="4.56094">
        <ele>355.9</ele>
        <time>2022-06-09T06:34:32Z</time>
      </trkpt>
      <trkpt lat="44.7173" lon="4.56092">
        <ele>356.1</ele>
        <time>2022-06-09T06:34:33Z</time>
      </trkpt>
      <trkpt lat="44.71728" lon="4.5609">
        <ele>356.2</ele>
        <time>2022-06-09T06:34:35Z</time>
      </trkpt>
      <trkpt lat="44.71726" lon="4.56087">
        <ele>356.5</ele>
        <time>2022-06-09T06:34:36Z</time>
      </trkpt>
      <trkpt lat="44.71724" lon="4.56086">
        <ele>356.7</ele>
        <time>2022-06-09T06:34:37Z</time>
      </trkpt>
      <trkpt lat="44.71723" lon="4.56084">
        <ele>356.8</ele>
        <time>2022-06-09T06:34:38Z</time>
      </trkpt>
      <trkpt lat="44.71722" lon="4.56082">
        <ele>357</ele>
        <time>2022-06-09T06:34:40Z</time>
      </trkpt>
      <trkpt lat="44.71721" lon="4.5608">
        <ele>357.1</ele>
        <time>2022-06-09T06:34:41Z</time>
      </trkpt>
      <trkpt lat="44.7172" lon="4.56078">
        <ele>357.3</ele>
        <time>2022-06-09T06:34:42Z</time>
      </trkpt>
      <trkpt lat="44.71719" lon="4.56076">
        <ele>357.4</ele>
        <time>2022-06-09T06:34:43Z</time>
      </trkpt>
      <trkpt lat="44.71719" lon="4.56075">
        <ele>357.5</ele>
        <time>2022-06-09T06:34:44Z</time>
      </trkpt>
      <trkpt lat="44.71718" lon="4.56073">
        <ele>357.6</ele>
        <time>2022-06-09T06:34:45Z</time>
      </trkpt>
      <trkpt lat="44.71717" lon="4.5607">
        <ele>357.8</ele>
        <time>2022-06-09T06:34:46Z</time>
      </trkpt>
      <trkpt lat="44.71717" lon="4.56066">
        <ele>358.1</ele>
        <time>2022-06-09T06:34:48Z</time>
      </trkpt>
      <trkpt lat="44.71716" lon="4.56064">
        <ele>358.2</ele>
        <time>2022-06-09T06:34:49Z</time>
      </trkpt>
      <trkpt lat="44.71716" lon="4.56062">
        <ele>358.4</ele>
        <time>2022-06-09T06:34:50Z</time>
      </trkpt>
      <trkpt lat="44.71716" lon="4.5606">
        <ele>358.5</ele>
        <time>2022-06-09T06:34:51Z</time>
      </trkpt>
      <trkpt lat="44.71716" lon="4.56058">
        <ele>358.6</ele>
        <time>2022-06-09T06:34:52Z</time>
      </trkpt>
      <trkpt lat="44.71716" lon="4.56055">
        <ele>358.8</ele>
        <time>2022-06-09T06:34:53Z</time>
      </trkpt>
      <trkpt lat="44.71716" lon="4.56053">
        <ele>358.9</ele>
        <time>2022-06-09T06:34:54Z</time>
      </trkpt>
      <trkpt lat="44.71716" lon="4.56051">
        <ele>359.1</ele>
        <time>2022-06-09T06:34:55Z</time>
      </trkpt>
      <trkpt lat="44.71716" lon="4.56049">
        <ele>359.2</ele>
        <time>2022-06-09T06:34:56Z</time>
      </trkpt>
      <trkpt lat="44.71715" lon="4.56047">
        <ele>359.4</ele>
        <time>2022-06-09T06:34:57Z</time>
      </trkpt>
      <trkpt lat="44.71715" lon="4.56045">
        <ele>359.5</ele>
        <time>2022-06-09T06:34:58Z</time>
      </trkpt>
      <trkpt lat="44.71715" lon="4.5604">
        <ele>359.8</ele>
        <time>2022-06-09T06:35:00Z</time>
      </trkpt>
      <trkpt lat="44.71715" lon="4.56038">
        <ele>359.9</ele>
        <time>2022-06-09T06:35:01Z</time>
      </trkpt>
      <trkpt lat="44.71715" lon="4.56036">
        <ele>360.1</ele>
        <time>2022-06-09T06:35:02Z</time>
      </trkpt>
      <trkpt lat="44.71714" lon="4.56034">
        <ele>360.2</ele>
        <time>2022-06-09T06:35:03Z</time>
      </trkpt>
      <trkpt lat="44.71714" lon="4.56031">
        <ele>360.4</ele>
        <time>2022-06-09T06:35:04Z</time>
      </trkpt>
      <trkpt lat="44.71714" lon="4.56029">
        <ele>360.5</ele>
        <time>2022-06-09T06:35:05Z</time>
      </trkpt>
      <trkpt lat="44.71714" lon="4.56027">
        <ele>360.7</ele>
        <time>2022-06-09T06:35:06Z</time>
      </trkpt>
      <trkpt lat="44.71714" lon="4.56023">
        <ele>360.9</ele>
        <time>2022-06-09T06:35:07Z</time>
      </trkpt>
      <trkpt lat="44.71714" lon="4.56021">
        <ele>361.1</ele>
        <time>2022-06-09T06:35:08Z</time>
      </trkpt>
      <trkpt lat="44.71714" lon="4.56019">
        <ele>361.2</ele>
        <time>2022-06-09T06:35:09Z</time>
      </trkpt>
      <trkpt lat="44.71714" lon="4.56017">
        <ele>361.3</ele>
        <time>2022-06-09T06:35:11Z</time>
      </trkpt>
      <trkpt lat="44.71714" lon="4.56015">
        <ele>361.4</ele>
        <time>2022-06-09T06:35:12Z</time>
      </trkpt>
      <trkpt lat="44.71713" lon="4.56013">
        <ele>361.6</ele>
        <time>2022-06-09T06:35:13Z</time>
      </trkpt>
      <trkpt lat="44.71713" lon="4.56011">
        <ele>361.7</ele>
        <time>2022-06-09T06:35:14Z</time>
      </trkpt>
      <trkpt lat="44.71713" lon="4.56009">
        <ele>361.8</ele>
        <time>2022-06-09T06:35:15Z</time>
      </trkpt>
      <trkpt lat="44.71713" lon="4.56006">
        <ele>362</ele>
        <time>2022-06-09T06:35:16Z</time>
      </trkpt>
      <trkpt lat="44.71713" lon="4.56004">
        <ele>362.1</ele>
        <time>2022-06-09T06:35:17Z</time>
      </trkpt>
      <trkpt lat="44.71713" lon="4.56002">
        <ele>362.3</ele>
        <time>2022-06-09T06:35:19Z</time>
      </trkpt>
      <trkpt lat="44.71713" lon="4.55999">
        <ele>362.4</ele>
        <time>2022-06-09T06:35:20Z</time>
      </trkpt>
      <trkpt lat="44.71713" lon="4.55997">
        <ele>362.6</ele>
        <time>2022-06-09T06:35:21Z</time>
      </trkpt>
      <trkpt lat="44.71712" lon="4.55995">
        <ele>362.7</ele>
        <time>2022-06-09T06:35:22Z</time>
      </trkpt>
      <trkpt lat="44.71711" lon="4.55992">
        <ele>362.8</ele>
        <time>2022-06-09T06:35:23Z</time>
      </trkpt>
      <trkpt lat="44.71711" lon="4.5599">
        <ele>363</ele>
        <time>2022-06-09T06:35:24Z</time>
      </trkpt>
      <trkpt lat="44.71711" lon="4.55988">
        <ele>363.1</ele>
        <time>2022-06-09T06:35:25Z</time>
      </trkpt>
      <trkpt lat="44.71712" lon="4.55986">
        <ele>363.2</ele>
        <time>2022-06-09T06:35:26Z</time>
      </trkpt>
      <trkpt lat="44.71711" lon="4.55982">
        <ele>363.4</ele>
        <time>2022-06-09T06:35:27Z</time>
      </trkpt>
      <trkpt lat="44.71711" lon="4.55975">
        <ele>363.8</ele>
        <time>2022-06-09T06:35:29Z</time>
      </trkpt>
      <trkpt lat="44.71711" lon="4.55973">
        <ele>363.9</ele>
        <time>2022-06-09T06:35:31Z</time>
      </trkpt>
      <trkpt lat="44.71711" lon="4.55971">
        <ele>364</ele>
        <time>2022-06-09T06:35:32Z</time>
      </trkpt>
      <trkpt lat="44.71711" lon="4.55966">
        <ele>364.2</ele>
        <time>2022-06-09T06:35:33Z</time>
      </trkpt>
      <trkpt lat="44.71711" lon="4.55965">
        <ele>364.3</ele>
        <time>2022-06-09T06:35:34Z</time>
      </trkpt>
      <trkpt lat="44.7171" lon="4.55963">
        <ele>364.4</ele>
        <time>2022-06-09T06:35:35Z</time>
      </trkpt>
      <trkpt lat="44.7171" lon="4.55958">
        <ele>364.6</ele>
        <time>2022-06-09T06:35:37Z</time>
      </trkpt>
      <trkpt lat="44.71709" lon="4.55953">
        <ele>364.9</ele>
        <time>2022-06-09T06:35:38Z</time>
      </trkpt>
      <trkpt lat="44.71708" lon="4.55949">
        <ele>365.1</ele>
        <time>2022-06-09T06:35:40Z</time>
      </trkpt>
      <trkpt lat="44.71708" lon="4.55947">
        <ele>365.1</ele>
        <time>2022-06-09T06:35:41Z</time>
      </trkpt>
      <trkpt lat="44.71708" lon="4.55944">
        <ele>365.3</ele>
        <time>2022-06-09T06:35:42Z</time>
      </trkpt>
      <trkpt lat="44.71707" lon="4.55938">
        <ele>365.5</ele>
        <time>2022-06-09T06:35:44Z</time>
      </trkpt>
      <trkpt lat="44.71706" lon="4.55934">
        <ele>365.7</ele>
        <time>2022-06-09T06:35:45Z</time>
      </trkpt>
      <trkpt lat="44.71706" lon="4.55932">
        <ele>365.8</ele>
        <time>2022-06-09T06:35:46Z</time>
      </trkpt>
      <trkpt lat="44.71705" lon="4.55927">
        <ele>366</ele>
        <time>2022-06-09T06:35:47Z</time>
      </trkpt>
      <trkpt lat="44.71705" lon="4.55925">
        <ele>366</ele>
        <time>2022-06-09T06:35:48Z</time>
      </trkpt>
      <trkpt lat="44.71705" lon="4.55921">
        <ele>366.2</ele>
        <time>2022-06-09T06:35:49Z</time>
      </trkpt>
      <trkpt lat="44.71704" lon="4.55918">
        <ele>366.3</ele>
        <time>2022-06-09T06:35:51Z</time>
      </trkpt>
      <trkpt lat="44.71703" lon="4.55913">
        <ele>366.5</ele>
        <time>2022-06-09T06:35:52Z</time>
      </trkpt>
      <trkpt lat="44.71703" lon="4.55911">
        <ele>366.5</ele>
        <time>2022-06-09T06:35:53Z</time>
      </trkpt>
      <trkpt lat="44.71702" lon="4.55905">
        <ele>366.7</ele>
        <time>2022-06-09T06:35:54Z</time>
      </trkpt>
      <trkpt lat="44.71701" lon="4.55902">
        <ele>366.8</ele>
        <time>2022-06-09T06:35:55Z</time>
      </trkpt>
      <trkpt lat="44.71699" lon="4.55896">
        <ele>367</ele>
        <time>2022-06-09T06:35:57Z</time>
      </trkpt>
      <trkpt lat="44.71699" lon="4.55893">
        <ele>367.1</ele>
        <time>2022-06-09T06:35:59Z</time>
      </trkpt>
      <trkpt lat="44.71698" lon="4.55887">
        <ele>367.3</ele>
        <time>2022-06-09T06:36:00Z</time>
      </trkpt>
      <trkpt lat="44.71696" lon="4.55882">
        <ele>367.5</ele>
        <time>2022-06-09T06:36:02Z</time>
      </trkpt>
      <trkpt lat="44.71696" lon="4.5588">
        <ele>367.5</ele>
        <time>2022-06-09T06:36:03Z</time>
      </trkpt>
      <trkpt lat="44.71695" lon="4.55876">
        <ele>367.7</ele>
        <time>2022-06-09T06:36:04Z</time>
      </trkpt>
      <trkpt lat="44.71695" lon="4.55875">
        <ele>367.7</ele>
        <time>2022-06-09T06:36:05Z</time>
      </trkpt>
      <trkpt lat="44.71693" lon="4.5587">
        <ele>367.9</ele>
        <time>2022-06-09T06:36:06Z</time>
      </trkpt>
      <trkpt lat="44.71693" lon="4.55869">
        <ele>367.9</ele>
        <time>2022-06-09T06:36:07Z</time>
      </trkpt>
      <trkpt lat="44.71691" lon="4.55863">
        <ele>368.1</ele>
        <time>2022-06-09T06:36:08Z</time>
      </trkpt>
      <trkpt lat="44.71691" lon="4.5586">
        <ele>368.2</ele>
        <time>2022-06-09T06:36:09Z</time>
      </trkpt>
      <trkpt lat="44.7169" lon="4.55857">
        <ele>368.3</ele>
        <time>2022-06-09T06:36:11Z</time>
      </trkpt>
      <trkpt lat="44.71689" lon="4.55853">
        <ele>368.4</ele>
        <time>2022-06-09T06:36:12Z</time>
      </trkpt>
      <trkpt lat="44.71688" lon="4.55851">
        <ele>368.5</ele>
        <time>2022-06-09T06:36:13Z</time>
      </trkpt>
      <trkpt lat="44.71687" lon="4.55848">
        <ele>368.6</ele>
        <time>2022-06-09T06:36:14Z</time>
      </trkpt>
      <trkpt lat="44.71687" lon="4.55847">
        <ele>368.6</ele>
        <time>2022-06-09T06:36:15Z</time>
      </trkpt>
      <trkpt lat="44.71687" lon="4.55845">
        <ele>368.7</ele>
        <time>2022-06-09T06:36:16Z</time>
      </trkpt>
      <trkpt lat="44.71686" lon="4.55847">
        <ele>368.7</ele>
        <time>2022-06-09T06:36:17Z</time>
      </trkpt>
      <trkpt lat="44.71686" lon="4.55847">
        <ele>368.7</ele>
        <time>2022-06-09T06:36:18Z</time>
      </trkpt>
      <trkpt lat="44.71686" lon="4.55848">
        <ele>368.7</ele>
        <time>2022-06-09T06:36:19Z</time>
      </trkpt>
      <trkpt lat="44.71686" lon="4.55848">
        <ele>368.7</ele>
        <time>2022-06-09T06:36:20Z</time>
      </trkpt>
      <trkpt lat="44.71686" lon="4.55848">
        <ele>368.7</ele>
        <time>2022-06-09T06:36:21Z</time>
      </trkpt>
      <trkpt lat="44.71686" lon="4.55848">
        <ele>368.7</ele>
        <time>2022-06-09T06:36:22Z</time>
      </trkpt>
      <trkpt lat="44.71686" lon="4.55848">
        <ele>368.7</ele>
        <time>2022-06-09T06:36:23Z</time>
      </trkpt>
      <trkpt lat="44.71686" lon="4.55848">
        <ele>368.7</ele>
        <time>2022-06-09T06:36:24Z</time>
      </trkpt>
      <trkpt lat="44.71686" lon="4.55848">
        <ele>368.7</ele>
        <time>2022-06-09T06:36:25Z</time>
      </trkpt>
      <trkpt lat="44.71686" lon="4.55848">
        <ele>368.8</ele>
        <time>2022-06-09T06:36:26Z</time>
      </trkpt>
      <trkpt lat="44.71686" lon="4.55848">
        <ele>368.8</ele>
        <time>2022-06-09T06:36:27Z</time>
      </trkpt>
      <trkpt lat="44.71686" lon="4.55848">
        <ele>368.8</ele>
        <time>2022-06-09T06:36:28Z</time>
      </trkpt>
      <trkpt lat="44.71686" lon="4.55848">
        <ele>368.8</ele>
        <time>2022-06-09T06:36:29Z</time>
      </trkpt>
      <trkpt lat="44.71686" lon="4.55848">
        <ele>368.8</ele>
        <time>2022-06-09T06:36:30Z</time>
      </trkpt>
      <trkpt lat="44.71686" lon="4.55848">
        <ele>368.8</ele>
        <time>2022-06-09T06:36:31Z</time>
      </trkpt>
      <trkpt lat="44.71687" lon="4.55848">
        <ele>368.8</ele>
        <time>2022-06-09T06:36:32Z</time>
      </trkpt>
      <trkpt lat="44.71687" lon="4.55848">
        <ele>368.8</ele>
        <time>2022-06-09T06:36:33Z</time>
      </trkpt>
      <trkpt lat="44.71687" lon="4.55848">
        <ele>368.8</ele>
        <time>2022-06-09T06:36:34Z</time>
      </trkpt>
      <trkpt lat="44.71687" lon="4.55848">
        <ele>368.8</ele>
        <time>2022-06-09T06:36:35Z</time>
      </trkpt>
      <trkpt lat="44.71684" lon="4.55838">
        <ele>369.1</ele>
        <time>2022-06-09T06:36:52Z</time>
      </trkpt>
      <trkpt lat="44.71683" lon="4.55834">
        <ele>369.3</ele>
        <time>2022-06-09T06:36:54Z</time>
      </trkpt>
      <trkpt lat="44.71682" lon="4.5583">
        <ele>369.4</ele>
        <time>2022-06-09T06:36:55Z</time>
      </trkpt>
      <trkpt lat="44.71682" lon="4.55828">
        <ele>369.5</ele>
        <time>2022-06-09T06:36:56Z</time>
      </trkpt>
      <trkpt lat="44.7168" lon="4.55824">
        <ele>369.6</ele>
        <time>2022-06-09T06:36:57Z</time>
      </trkpt>
      <trkpt lat="44.7168" lon="4.55822">
        <ele>369.7</ele>
        <time>2022-06-09T06:36:58Z</time>
      </trkpt>
      <trkpt lat="44.71679" lon="4.55817">
        <ele>369.9</ele>
        <time>2022-06-09T06:36:59Z</time>
      </trkpt>
      <trkpt lat="44.71679" lon="4.55815">
        <ele>369.9</ele>
        <time>2022-06-09T06:37:00Z</time>
      </trkpt>
      <trkpt lat="44.71678" lon="4.55811">
        <ele>370.1</ele>
        <time>2022-06-09T06:37:01Z</time>
      </trkpt>
      <trkpt lat="44.71678" lon="4.55809">
        <ele>370.1</ele>
        <time>2022-06-09T06:37:02Z</time>
      </trkpt>
      <trkpt lat="44.71678" lon="4.55804">
        <ele>370.3</ele>
        <time>2022-06-09T06:37:03Z</time>
      </trkpt>
      <trkpt lat="44.71677" lon="4.55803">
        <ele>370.3</ele>
        <time>2022-06-09T06:37:04Z</time>
      </trkpt>
      <trkpt lat="44.71677" lon="4.55798">
        <ele>370.5</ele>
        <time>2022-06-09T06:37:05Z</time>
      </trkpt>
      <trkpt lat="44.71677" lon="4.55796">
        <ele>370.6</ele>
        <time>2022-06-09T06:37:06Z</time>
      </trkpt>
      <trkpt lat="44.71676" lon="4.55791">
        <ele>370.7</ele>
        <time>2022-06-09T06:37:07Z</time>
      </trkpt>
      <trkpt lat="44.71676" lon="4.55789">
        <ele>370.8</ele>
        <time>2022-06-09T06:37:08Z</time>
      </trkpt>
      <trkpt lat="44.71676" lon="4.55783">
        <ele>370.9</ele>
        <time>2022-06-09T06:37:09Z</time>
      </trkpt>
      <trkpt lat="44.71676" lon="4.55782">
        <ele>371</ele>
        <time>2022-06-09T06:37:10Z</time>
      </trkpt>
      <trkpt lat="44.71677" lon="4.55777">
        <ele>371.1</ele>
        <time>2022-06-09T06:37:11Z</time>
      </trkpt>
      <trkpt lat="44.71677" lon="4.55775">
        <ele>371.2</ele>
        <time>2022-06-09T06:37:12Z</time>
      </trkpt>
      <trkpt lat="44.71677" lon="4.55769">
        <ele>371.4</ele>
        <time>2022-06-09T06:37:13Z</time>
      </trkpt>
      <trkpt lat="44.71677" lon="4.55767">
        <ele>371.4</ele>
        <time>2022-06-09T06:37:14Z</time>
      </trkpt>
      <trkpt lat="44.71677" lon="4.55763">
        <ele>371.5</ele>
        <time>2022-06-09T06:37:15Z</time>
      </trkpt>
      <trkpt lat="44.71677" lon="4.55758">
        <ele>371.7</ele>
        <time>2022-06-09T06:37:17Z</time>
      </trkpt>
      <trkpt lat="44.71678" lon="4.55751">
        <ele>371.9</ele>
        <time>2022-06-09T06:37:19Z</time>
      </trkpt>
      <trkpt lat="44.71678" lon="4.55747">
        <ele>372</ele>
        <time>2022-06-09T06:37:21Z</time>
      </trkpt>
      <trkpt lat="44.71678" lon="4.5574">
        <ele>372.2</ele>
        <time>2022-06-09T06:37:23Z</time>
      </trkpt>
      <trkpt lat="44.71679" lon="4.55734">
        <ele>372.3</ele>
        <time>2022-06-09T06:37:24Z</time>
      </trkpt>
      <trkpt lat="44.71679" lon="4.5573">
        <ele>372.5</ele>
        <time>2022-06-09T06:37:25Z</time>
      </trkpt>
      <trkpt lat="44.71679" lon="4.55724">
        <ele>372.6</ele>
        <time>2022-06-09T06:37:27Z</time>
      </trkpt>
      <trkpt lat="44.71679" lon="4.55722">
        <ele>372.7</ele>
        <time>2022-06-09T06:37:28Z</time>
      </trkpt>
      <trkpt lat="44.71679" lon="4.55719">
        <ele>372.8</ele>
        <time>2022-06-09T06:37:29Z</time>
      </trkpt>
      <trkpt lat="44.7168" lon="4.55709">
        <ele>373</ele>
        <time>2022-06-09T06:37:31Z</time>
      </trkpt>
      <trkpt lat="44.71681" lon="4.55703">
        <ele>373.2</ele>
        <time>2022-06-09T06:37:33Z</time>
      </trkpt>
      <trkpt lat="44.71681" lon="4.55699">
        <ele>373.3</ele>
        <time>2022-06-09T06:37:34Z</time>
      </trkpt>
      <trkpt lat="44.71681" lon="4.55694">
        <ele>373.5</ele>
        <time>2022-06-09T06:37:36Z</time>
      </trkpt>
      <trkpt lat="44.71682" lon="4.5569">
        <ele>373.6</ele>
        <time>2022-06-09T06:37:37Z</time>
      </trkpt>
      <trkpt lat="44.71682" lon="4.55685">
        <ele>373.7</ele>
        <time>2022-06-09T06:37:38Z</time>
      </trkpt>
      <trkpt lat="44.71681" lon="4.55681">
        <ele>373.8</ele>
        <time>2022-06-09T06:37:39Z</time>
      </trkpt>
      <trkpt lat="44.71682" lon="4.55677">
        <ele>373.9</ele>
        <time>2022-06-09T06:37:40Z</time>
      </trkpt>
      <trkpt lat="44.71682" lon="4.55673">
        <ele>374</ele>
        <time>2022-06-09T06:37:41Z</time>
      </trkpt>
      <trkpt lat="44.71682" lon="4.55669">
        <ele>374.1</ele>
        <time>2022-06-09T06:37:42Z</time>
      </trkpt>
      <trkpt lat="44.71683" lon="4.55664">
        <ele>374.2</ele>
        <time>2022-06-09T06:37:43Z</time>
      </trkpt>
      <trkpt lat="44.71683" lon="4.55662">
        <ele>374.3</ele>
        <time>2022-06-09T06:37:44Z</time>
      </trkpt>
      <trkpt lat="44.71684" lon="4.55658">
        <ele>374.4</ele>
        <time>2022-06-09T06:37:45Z</time>
      </trkpt>
      <trkpt lat="44.71685" lon="4.55654">
        <ele>374.5</ele>
        <time>2022-06-09T06:37:46Z</time>
      </trkpt>
      <trkpt lat="44.71685" lon="4.55647">
        <ele>374.7</ele>
        <time>2022-06-09T06:37:47Z</time>
      </trkpt>
      <trkpt lat="44.71685" lon="4.55643">
        <ele>374.9</ele>
        <time>2022-06-09T06:37:49Z</time>
      </trkpt>
      <trkpt lat="44.71686" lon="4.55637">
        <ele>375</ele>
        <time>2022-06-09T06:37:50Z</time>
      </trkpt>
      <trkpt lat="44.71686" lon="4.55636">
        <ele>375.1</ele>
        <time>2022-06-09T06:37:51Z</time>
      </trkpt>
      <trkpt lat="44.71686" lon="4.5563">
        <ele>375.2</ele>
        <time>2022-06-09T06:37:52Z</time>
      </trkpt>
      <trkpt lat="44.71686" lon="4.55629">
        <ele>375.3</ele>
        <time>2022-06-09T06:37:53Z</time>
      </trkpt>
      <trkpt lat="44.71688" lon="4.55624">
        <ele>375.4</ele>
        <time>2022-06-09T06:37:54Z</time>
      </trkpt>
      <trkpt lat="44.71688" lon="4.55622">
        <ele>375.5</ele>
        <time>2022-06-09T06:37:55Z</time>
      </trkpt>
      <trkpt lat="44.71688" lon="4.55617">
        <ele>375.6</ele>
        <time>2022-06-09T06:37:56Z</time>
      </trkpt>
      <trkpt lat="44.71688" lon="4.55616">
        <ele>375.6</ele>
        <time>2022-06-09T06:37:57Z</time>
      </trkpt>
      <trkpt lat="44.71689" lon="4.55613">
        <ele>375.7</ele>
        <time>2022-06-09T06:37:58Z</time>
      </trkpt>
      <trkpt lat="44.71689" lon="4.55607">
        <ele>375.9</ele>
        <time>2022-06-09T06:38:00Z</time>
      </trkpt>
      <trkpt lat="44.7169" lon="4.556">
        <ele>376</ele>
        <time>2022-06-09T06:38:01Z</time>
      </trkpt>
      <trkpt lat="44.7169" lon="4.55595">
        <ele>376.2</ele>
        <time>2022-06-09T06:38:03Z</time>
      </trkpt>
      <trkpt lat="44.7169" lon="4.55592">
        <ele>376.2</ele>
        <time>2022-06-09T06:38:04Z</time>
      </trkpt>
      <trkpt lat="44.7169" lon="4.55586">
        <ele>376.4</ele>
        <time>2022-06-09T06:38:05Z</time>
      </trkpt>
      <trkpt lat="44.7169" lon="4.55583">
        <ele>376.4</ele>
        <time>2022-06-09T06:38:06Z</time>
      </trkpt>
      <trkpt lat="44.71691" lon="4.55579">
        <ele>376.5</ele>
        <time>2022-06-09T06:38:08Z</time>
      </trkpt>
      <trkpt lat="44.71691" lon="4.55574">
        <ele>376.6</ele>
        <time>2022-06-09T06:38:09Z</time>
      </trkpt>
      <trkpt lat="44.71691" lon="4.55568">
        <ele>376.7</ele>
        <time>2022-06-09T06:38:10Z</time>
      </trkpt>
      <trkpt lat="44.71692" lon="4.55564">
        <ele>376.8</ele>
        <time>2022-06-09T06:38:11Z</time>
      </trkpt>
      <trkpt lat="44.71692" lon="4.55559">
        <ele>376.8</ele>
        <time>2022-06-09T06:38:12Z</time>
      </trkpt>
      <trkpt lat="44.71692" lon="4.55553">
        <ele>376.8</ele>
        <time>2022-06-09T06:38:14Z</time>
      </trkpt>
      <trkpt lat="44.71693" lon="4.55549">
        <ele>376.9</ele>
        <time>2022-06-09T06:38:15Z</time>
      </trkpt>
      <trkpt lat="44.71693" lon="4.55544">
        <ele>376.9</ele>
        <time>2022-06-09T06:38:16Z</time>
      </trkpt>
      <trkpt lat="44.71693" lon="4.5554">
        <ele>377</ele>
        <time>2022-06-09T06:38:17Z</time>
      </trkpt>
      <trkpt lat="44.71694" lon="4.55534">
        <ele>377.1</ele>
        <time>2022-06-09T06:38:18Z</time>
      </trkpt>
      <trkpt lat="44.71694" lon="4.55532">
        <ele>377.1</ele>
        <time>2022-06-09T06:38:19Z</time>
      </trkpt>
      <trkpt lat="44.71695" lon="4.55528">
        <ele>377.2</ele>
        <time>2022-06-09T06:38:20Z</time>
      </trkpt>
      <trkpt lat="44.71695" lon="4.55523">
        <ele>377.2</ele>
        <time>2022-06-09T06:38:21Z</time>
      </trkpt>
      <trkpt lat="44.71695" lon="4.55521">
        <ele>377.3</ele>
        <time>2022-06-09T06:38:22Z</time>
      </trkpt>
      <trkpt lat="44.71695" lon="4.55517">
        <ele>377.3</ele>
        <time>2022-06-09T06:38:23Z</time>
      </trkpt>
      <trkpt lat="44.71696" lon="4.55512">
        <ele>377.4</ele>
        <time>2022-06-09T06:38:24Z</time>
      </trkpt>
      <trkpt lat="44.71697" lon="4.55509">
        <ele>377.4</ele>
        <time>2022-06-09T06:38:25Z</time>
      </trkpt>
      <trkpt lat="44.71698" lon="4.55505">
        <ele>377.5</ele>
        <time>2022-06-09T06:38:26Z</time>
      </trkpt>
      <trkpt lat="44.71698" lon="4.555">
        <ele>377.5</ele>
        <time>2022-06-09T06:38:27Z</time>
      </trkpt>
      <trkpt lat="44.71699" lon="4.55496">
        <ele>377.6</ele>
        <time>2022-06-09T06:38:28Z</time>
      </trkpt>
      <trkpt lat="44.71699" lon="4.55492">
        <ele>377.6</ele>
        <time>2022-06-09T06:38:29Z</time>
      </trkpt>
      <trkpt lat="44.717" lon="4.55488">
        <ele>377.7</ele>
        <time>2022-06-09T06:38:30Z</time>
      </trkpt>
      <trkpt lat="44.71701" lon="4.55484">
        <ele>377.7</ele>
        <time>2022-06-09T06:38:31Z</time>
      </trkpt>
      <trkpt lat="44.71701" lon="4.5548">
        <ele>377.8</ele>
        <time>2022-06-09T06:38:32Z</time>
      </trkpt>
      <trkpt lat="44.71701" lon="4.55476">
        <ele>377.8</ele>
        <time>2022-06-09T06:38:33Z</time>
      </trkpt>
      <trkpt lat="44.71702" lon="4.5547">
        <ele>377.9</ele>
        <time>2022-06-09T06:38:34Z</time>
      </trkpt>
      <trkpt lat="44.71702" lon="4.55468">
        <ele>377.9</ele>
        <time>2022-06-09T06:38:35Z</time>
      </trkpt>
      <trkpt lat="44.71703" lon="4.55463">
        <ele>377.9</ele>
        <time>2022-06-09T06:38:36Z</time>
      </trkpt>
      <trkpt lat="44.71703" lon="4.55461">
        <ele>378</ele>
        <time>2022-06-09T06:38:37Z</time>
      </trkpt>
      <trkpt lat="44.71704" lon="4.55456">
        <ele>378</ele>
        <time>2022-06-09T06:38:38Z</time>
      </trkpt>
      <trkpt lat="44.71705" lon="4.55451">
        <ele>378</ele>
        <time>2022-06-09T06:38:39Z</time>
      </trkpt>
      <trkpt lat="44.71705" lon="4.55445">
        <ele>378.1</ele>
        <time>2022-06-09T06:38:41Z</time>
      </trkpt>
      <trkpt lat="44.71705" lon="4.55443">
        <ele>378.1</ele>
        <time>2022-06-09T06:38:42Z</time>
      </trkpt>
      <trkpt lat="44.71706" lon="4.55438">
        <ele>378.2</ele>
        <time>2022-06-09T06:38:43Z</time>
      </trkpt>
      <trkpt lat="44.71706" lon="4.55435">
        <ele>378.2</ele>
        <time>2022-06-09T06:38:44Z</time>
      </trkpt>
      <trkpt lat="44.71707" lon="4.55429">
        <ele>378.2</ele>
        <time>2022-06-09T06:38:46Z</time>
      </trkpt>
      <trkpt lat="44.71708" lon="4.55424">
        <ele>378.3</ele>
        <time>2022-06-09T06:38:47Z</time>
      </trkpt>
      <trkpt lat="44.71709" lon="4.55422">
        <ele>378.4</ele>
        <time>2022-06-09T06:38:48Z</time>
      </trkpt>
      <trkpt lat="44.71709" lon="4.55419">
        <ele>378.4</ele>
        <time>2022-06-09T06:38:49Z</time>
      </trkpt>
      <trkpt lat="44.7171" lon="4.55412">
        <ele>378.6</ele>
        <time>2022-06-09T06:38:50Z</time>
      </trkpt>
      <trkpt lat="44.71711" lon="4.55407">
        <ele>378.7</ele>
        <time>2022-06-09T06:38:52Z</time>
      </trkpt>
      <trkpt lat="44.71712" lon="4.55403">
        <ele>378.7</ele>
        <time>2022-06-09T06:38:53Z</time>
      </trkpt>
      <trkpt lat="44.71712" lon="4.55399">
        <ele>378.8</ele>
        <time>2022-06-09T06:38:54Z</time>
      </trkpt>
      <trkpt lat="44.71713" lon="4.55395">
        <ele>378.9</ele>
        <time>2022-06-09T06:38:55Z</time>
      </trkpt>
      <trkpt lat="44.71714" lon="4.5539">
        <ele>379</ele>
        <time>2022-06-09T06:38:56Z</time>
      </trkpt>
      <trkpt lat="44.71715" lon="4.55384">
        <ele>379.2</ele>
        <time>2022-06-09T06:38:58Z</time>
      </trkpt>
      <trkpt lat="44.71716" lon="4.55378">
        <ele>379.3</ele>
        <time>2022-06-09T06:38:59Z</time>
      </trkpt>
      <trkpt lat="44.71716" lon="4.55377">
        <ele>379.4</ele>
        <time>2022-06-09T06:39:00Z</time>
      </trkpt>
      <trkpt lat="44.71718" lon="4.5537">
        <ele>379.5</ele>
        <time>2022-06-09T06:39:01Z</time>
      </trkpt>
      <trkpt lat="44.7172" lon="4.55364">
        <ele>379.7</ele>
        <time>2022-06-09T06:39:03Z</time>
      </trkpt>
      <trkpt lat="44.7172" lon="4.55362">
        <ele>379.8</ele>
        <time>2022-06-09T06:39:04Z</time>
      </trkpt>
      <trkpt lat="44.71721" lon="4.55359">
        <ele>379.8</ele>
        <time>2022-06-09T06:39:05Z</time>
      </trkpt>
      <trkpt lat="44.71722" lon="4.55354">
        <ele>380</ele>
        <time>2022-06-09T06:39:06Z</time>
      </trkpt>
      <trkpt lat="44.71723" lon="4.55353">
        <ele>380</ele>
        <time>2022-06-09T06:39:07Z</time>
      </trkpt>
      <trkpt lat="44.71724" lon="4.55348">
        <ele>380.2</ele>
        <time>2022-06-09T06:39:08Z</time>
      </trkpt>
      <trkpt lat="44.71724" lon="4.55347">
        <ele>380.2</ele>
        <time>2022-06-09T06:39:09Z</time>
      </trkpt>
      <trkpt lat="44.71726" lon="4.55341">
        <ele>380.4</ele>
        <time>2022-06-09T06:39:10Z</time>
      </trkpt>
      <trkpt lat="44.71726" lon="4.55336">
        <ele>380.6</ele>
        <time>2022-06-09T06:39:12Z</time>
      </trkpt>
      <trkpt lat="44.71727" lon="4.55335">
        <ele>380.6</ele>
        <time>2022-06-09T06:39:13Z</time>
      </trkpt>
      <trkpt lat="44.71729" lon="4.55331">
        <ele>380.8</ele>
        <time>2022-06-09T06:39:14Z</time>
      </trkpt>
      <trkpt lat="44.71729" lon="4.5533">
        <ele>380.9</ele>
        <time>2022-06-09T06:39:15Z</time>
      </trkpt>
      <trkpt lat="44.71731" lon="4.55324">
        <ele>381.1</ele>
        <time>2022-06-09T06:39:16Z</time>
      </trkpt>
      <trkpt lat="44.71732" lon="4.55322">
        <ele>381.2</ele>
        <time>2022-06-09T06:39:17Z</time>
      </trkpt>
      <trkpt lat="44.71733" lon="4.55318">
        <ele>381.4</ele>
        <time>2022-06-09T06:39:19Z</time>
      </trkpt>
      <trkpt lat="44.71734" lon="4.55313">
        <ele>381.6</ele>
        <time>2022-06-09T06:39:20Z</time>
      </trkpt>
      <trkpt lat="44.71735" lon="4.55309">
        <ele>381.8</ele>
        <time>2022-06-09T06:39:22Z</time>
      </trkpt>
      <trkpt lat="44.71736" lon="4.55308">
        <ele>381.9</ele>
        <time>2022-06-09T06:39:23Z</time>
      </trkpt>
      <trkpt lat="44.71737" lon="4.55304">
        <ele>382.1</ele>
        <time>2022-06-09T06:39:24Z</time>
      </trkpt>
      <trkpt lat="44.71737" lon="4.55303">
        <ele>382.2</ele>
        <time>2022-06-09T06:39:25Z</time>
      </trkpt>
      <trkpt lat="44.71739" lon="4.55299">
        <ele>382.4</ele>
        <time>2022-06-09T06:39:26Z</time>
      </trkpt>
      <trkpt lat="44.71739" lon="4.55298">
        <ele>382.4</ele>
        <time>2022-06-09T06:39:27Z</time>
      </trkpt>
      <trkpt lat="44.7174" lon="4.55296">
        <ele>382.5</ele>
        <time>2022-06-09T06:39:28Z</time>
      </trkpt>
      <trkpt lat="44.7174" lon="4.55293">
        <ele>382.7</ele>
        <time>2022-06-09T06:39:29Z</time>
      </trkpt>
      <trkpt lat="44.71741" lon="4.55289">
        <ele>382.9</ele>
        <time>2022-06-09T06:39:31Z</time>
      </trkpt>
      <trkpt lat="44.71743" lon="4.55286">
        <ele>383.1</ele>
        <time>2022-06-09T06:39:32Z</time>
      </trkpt>
      <trkpt lat="44.71744" lon="4.55282">
        <ele>383.3</ele>
        <time>2022-06-09T06:39:34Z</time>
      </trkpt>
      <trkpt lat="44.71744" lon="4.55281">
        <ele>383.4</ele>
        <time>2022-06-09T06:39:35Z</time>
      </trkpt>
      <trkpt lat="44.71745" lon="4.55278">
        <ele>383.5</ele>
        <time>2022-06-09T06:39:36Z</time>
      </trkpt>
      <trkpt lat="44.71745" lon="4.55276">
        <ele>383.7</ele>
        <time>2022-06-09T06:39:37Z</time>
      </trkpt>
      <trkpt lat="44.71747" lon="4.55272">
        <ele>383.9</ele>
        <time>2022-06-09T06:39:38Z</time>
      </trkpt>
      <trkpt lat="44.71747" lon="4.55267">
        <ele>384.2</ele>
        <time>2022-06-09T06:39:40Z</time>
      </trkpt>
      <trkpt lat="44.71748" lon="4.55264">
        <ele>384.4</ele>
        <time>2022-06-09T06:39:42Z</time>
      </trkpt>
      <trkpt lat="44.71749" lon="4.5526">
        <ele>384.6</ele>
        <time>2022-06-09T06:39:43Z</time>
      </trkpt>
      <trkpt lat="44.7175" lon="4.55256">
        <ele>384.9</ele>
        <time>2022-06-09T06:39:45Z</time>
      </trkpt>
      <trkpt lat="44.7175" lon="4.55255">
        <ele>385</ele>
        <time>2022-06-09T06:39:46Z</time>
      </trkpt>
      <trkpt lat="44.71751" lon="4.55253">
        <ele>385.1</ele>
        <time>2022-06-09T06:39:47Z</time>
      </trkpt>
      <trkpt lat="44.71751" lon="4.5525">
        <ele>385.3</ele>
        <time>2022-06-09T06:39:48Z</time>
      </trkpt>
      <trkpt lat="44.71752" lon="4.55248">
        <ele>385.4</ele>
        <time>2022-06-09T06:39:49Z</time>
      </trkpt>
      <trkpt lat="44.71752" lon="4.55246">
        <ele>385.6</ele>
        <time>2022-06-09T06:39:50Z</time>
      </trkpt>
      <trkpt lat="44.71753" lon="4.55244">
        <ele>385.7</ele>
        <time>2022-06-09T06:39:51Z</time>
      </trkpt>
      <trkpt lat="44.71754" lon="4.55242">
        <ele>385.9</ele>
        <time>2022-06-09T06:39:52Z</time>
      </trkpt>
      <trkpt lat="44.71754" lon="4.5524">
        <ele>386</ele>
        <time>2022-06-09T06:39:53Z</time>
      </trkpt>
      <trkpt lat="44.71755" lon="4.55238">
        <ele>386.1</ele>
        <time>2022-06-09T06:39:54Z</time>
      </trkpt>
      <trkpt lat="44.71755" lon="4.55236">
        <ele>386.3</ele>
        <time>2022-06-09T06:39:55Z</time>
      </trkpt>
      <trkpt lat="44.71755" lon="4.55234">
        <ele>386.4</ele>
        <time>2022-06-09T06:39:56Z</time>
      </trkpt>
      <trkpt lat="44.71756" lon="4.55232">
        <ele>386.5</ele>
        <time>2022-06-09T06:39:57Z</time>
      </trkpt>
      <trkpt lat="44.71756" lon="4.55228">
        <ele>386.8</ele>
        <time>2022-06-09T06:39:58Z</time>
      </trkpt>
      <trkpt lat="44.71756" lon="4.55227">
        <ele>386.9</ele>
        <time>2022-06-09T06:39:59Z</time>
      </trkpt>
      <trkpt lat="44.71756" lon="4.55225">
        <ele>387</ele>
        <time>2022-06-09T06:40:00Z</time>
      </trkpt>
      <trkpt lat="44.71756" lon="4.55222">
        <ele>387.1</ele>
        <time>2022-06-09T06:40:01Z</time>
      </trkpt>
      <trkpt lat="44.71757" lon="4.55219">
        <ele>387.4</ele>
        <time>2022-06-09T06:40:02Z</time>
      </trkpt>
      <trkpt lat="44.71757" lon="4.55216">
        <ele>387.5</ele>
        <time>2022-06-09T06:40:04Z</time>
      </trkpt>
      <trkpt lat="44.71757" lon="4.55213">
        <ele>387.7</ele>
        <time>2022-06-09T06:40:05Z</time>
      </trkpt>
      <trkpt lat="44.71757" lon="4.55211">
        <ele>387.9</ele>
        <time>2022-06-09T06:40:06Z</time>
      </trkpt>
      <trkpt lat="44.71758" lon="4.55208">
        <ele>388</ele>
        <time>2022-06-09T06:40:07Z</time>
      </trkpt>
      <trkpt lat="44.71758" lon="4.55207">
        <ele>388.1</ele>
        <time>2022-06-09T06:40:08Z</time>
      </trkpt>
      <trkpt lat="44.71758" lon="4.55205">
        <ele>388.2</ele>
        <time>2022-06-09T06:40:09Z</time>
      </trkpt>
      <trkpt lat="44.71758" lon="4.55202">
        <ele>388.4</ele>
        <time>2022-06-09T06:40:10Z</time>
      </trkpt>
      <trkpt lat="44.71758" lon="4.55201">
        <ele>388.5</ele>
        <time>2022-06-09T06:40:11Z</time>
      </trkpt>
      <trkpt lat="44.71758" lon="4.55199">
        <ele>388.6</ele>
        <time>2022-06-09T06:40:12Z</time>
      </trkpt>
      <trkpt lat="44.71758" lon="4.55197">
        <ele>388.7</ele>
        <time>2022-06-09T06:40:13Z</time>
      </trkpt>
      <trkpt lat="44.71758" lon="4.55195">
        <ele>388.9</ele>
        <time>2022-06-09T06:40:14Z</time>
      </trkpt>
      <trkpt lat="44.71758" lon="4.55193">
        <ele>389</ele>
        <time>2022-06-09T06:40:15Z</time>
      </trkpt>
      <trkpt lat="44.71759" lon="4.55191">
        <ele>389.1</ele>
        <time>2022-06-09T06:40:16Z</time>
      </trkpt>
      <trkpt lat="44.71759" lon="4.55187">
        <ele>389.4</ele>
        <time>2022-06-09T06:40:17Z</time>
      </trkpt>
      <trkpt lat="44.7176" lon="4.55182">
        <ele>389.7</ele>
        <time>2022-06-09T06:40:19Z</time>
      </trkpt>
      <trkpt lat="44.7176" lon="4.5518">
        <ele>389.8</ele>
        <time>2022-06-09T06:40:20Z</time>
      </trkpt>
      <trkpt lat="44.7176" lon="4.55178">
        <ele>389.9</ele>
        <time>2022-06-09T06:40:22Z</time>
      </trkpt>
      <trkpt lat="44.71761" lon="4.55176">
        <ele>390</ele>
        <time>2022-06-09T06:40:23Z</time>
      </trkpt>
      <trkpt lat="44.71761" lon="4.55173">
        <ele>390.2</ele>
        <time>2022-06-09T06:40:24Z</time>
      </trkpt>
      <trkpt lat="44.71761" lon="4.5517">
        <ele>390.4</ele>
        <time>2022-06-09T06:40:26Z</time>
      </trkpt>
      <trkpt lat="44.71761" lon="4.55168">
        <ele>390.5</ele>
        <time>2022-06-09T06:40:27Z</time>
      </trkpt>
      <trkpt lat="44.71761" lon="4.55166">
        <ele>390.6</ele>
        <time>2022-06-09T06:40:28Z</time>
      </trkpt>
      <trkpt lat="44.71762" lon="4.55164">
        <ele>390.7</ele>
        <time>2022-06-09T06:40:29Z</time>
      </trkpt>
      <trkpt lat="44.71762" lon="4.55162">
        <ele>390.9</ele>
        <time>2022-06-09T06:40:30Z</time>
      </trkpt>
      <trkpt lat="44.71762" lon="4.55159">
        <ele>391</ele>
        <time>2022-06-09T06:40:31Z</time>
      </trkpt>
      <trkpt lat="44.71763" lon="4.55157">
        <ele>391.2</ele>
        <time>2022-06-09T06:40:32Z</time>
      </trkpt>
      <trkpt lat="44.71764" lon="4.55153">
        <ele>391.4</ele>
        <time>2022-06-09T06:40:33Z</time>
      </trkpt>
      <trkpt lat="44.71764" lon="4.55151">
        <ele>391.5</ele>
        <time>2022-06-09T06:40:35Z</time>
      </trkpt>
      <trkpt lat="44.71765" lon="4.55149">
        <ele>391.7</ele>
        <time>2022-06-09T06:40:36Z</time>
      </trkpt>
      <trkpt lat="44.71765" lon="4.55146">
        <ele>391.8</ele>
        <time>2022-06-09T06:40:37Z</time>
      </trkpt>
      <trkpt lat="44.71766" lon="4.55144">
        <ele>391.9</ele>
        <time>2022-06-09T06:40:38Z</time>
      </trkpt>
      <trkpt lat="44.71766" lon="4.55143">
        <ele>392</ele>
        <time>2022-06-09T06:40:39Z</time>
      </trkpt>
      <trkpt lat="44.71766" lon="4.5514">
        <ele>392.1</ele>
        <time>2022-06-09T06:40:40Z</time>
      </trkpt>
      <trkpt lat="44.71766" lon="4.55138">
        <ele>392.2</ele>
        <time>2022-06-09T06:40:41Z</time>
      </trkpt>
      <trkpt lat="44.71766" lon="4.55136">
        <ele>392.4</ele>
        <time>2022-06-09T06:40:42Z</time>
      </trkpt>
      <trkpt lat="44.71766" lon="4.55134">
        <ele>392.5</ele>
        <time>2022-06-09T06:40:43Z</time>
      </trkpt>
      <trkpt lat="44.71767" lon="4.55132">
        <ele>392.6</ele>
        <time>2022-06-09T06:40:44Z</time>
      </trkpt>
      <trkpt lat="44.71767" lon="4.55129">
        <ele>392.7</ele>
        <time>2022-06-09T06:40:45Z</time>
      </trkpt>
      <trkpt lat="44.71768" lon="4.55127">
        <ele>392.9</ele>
        <time>2022-06-09T06:40:46Z</time>
      </trkpt>
      <trkpt lat="44.71769" lon="4.55125">
        <ele>393</ele>
        <time>2022-06-09T06:40:47Z</time>
      </trkpt>
      <trkpt lat="44.71769" lon="4.55123">
        <ele>393.1</ele>
        <time>2022-06-09T06:40:48Z</time>
      </trkpt>
      <trkpt lat="44.7177" lon="4.55121">
        <ele>393.3</ele>
        <time>2022-06-09T06:40:49Z</time>
      </trkpt>
      <trkpt lat="44.7177" lon="4.55119">
        <ele>393.4</ele>
        <time>2022-06-09T06:40:50Z</time>
      </trkpt>
      <trkpt lat="44.71771" lon="4.55116">
        <ele>393.6</ele>
        <time>2022-06-09T06:40:51Z</time>
      </trkpt>
      <trkpt lat="44.71771" lon="4.55114">
        <ele>393.7</ele>
        <time>2022-06-09T06:40:52Z</time>
      </trkpt>
      <trkpt lat="44.71771" lon="4.55113">
        <ele>393.8</ele>
        <time>2022-06-09T06:40:53Z</time>
      </trkpt>
      <trkpt lat="44.71771" lon="4.55111">
        <ele>393.9</ele>
        <time>2022-06-09T06:40:54Z</time>
      </trkpt>
      <trkpt lat="44.71772" lon="4.55109">
        <ele>394</ele>
        <time>2022-06-09T06:40:55Z</time>
      </trkpt>
      <trkpt lat="44.71772" lon="4.55105">
        <ele>394.3</ele>
        <time>2022-06-09T06:40:56Z</time>
      </trkpt>
      <trkpt lat="44.71773" lon="4.55101">
        <ele>394.5</ele>
        <time>2022-06-09T06:40:58Z</time>
      </trkpt>
      <trkpt lat="44.71773" lon="4.551">
        <ele>394.6</ele>
        <time>2022-06-09T06:40:59Z</time>
      </trkpt>
      <trkpt lat="44.71773" lon="4.55098">
        <ele>394.7</ele>
        <time>2022-06-09T06:41:00Z</time>
      </trkpt>
      <trkpt lat="44.71774" lon="4.55096">
        <ele>394.9</ele>
        <time>2022-06-09T06:41:01Z</time>
      </trkpt>
      <trkpt lat="44.71774" lon="4.55094">
        <ele>395</ele>
        <time>2022-06-09T06:41:02Z</time>
      </trkpt>
      <trkpt lat="44.71774" lon="4.55092">
        <ele>395.1</ele>
        <time>2022-06-09T06:41:03Z</time>
      </trkpt>
      <trkpt lat="44.71774" lon="4.5509">
        <ele>395.2</ele>
        <time>2022-06-09T06:41:04Z</time>
      </trkpt>
      <trkpt lat="44.71775" lon="4.55088">
        <ele>395.4</ele>
        <time>2022-06-09T06:41:05Z</time>
      </trkpt>
      <trkpt lat="44.71775" lon="4.55086">
        <ele>395.5</ele>
        <time>2022-06-09T06:41:06Z</time>
      </trkpt>
      <trkpt lat="44.71776" lon="4.55084">
        <ele>395.6</ele>
        <time>2022-06-09T06:41:07Z</time>
      </trkpt>
      <trkpt lat="44.71776" lon="4.55082">
        <ele>395.8</ele>
        <time>2022-06-09T06:41:08Z</time>
      </trkpt>
      <trkpt lat="44.71776" lon="4.55079">
        <ele>395.9</ele>
        <time>2022-06-09T06:41:09Z</time>
      </trkpt>
      <trkpt lat="44.71777" lon="4.55077">
        <ele>396.1</ele>
        <time>2022-06-09T06:41:10Z</time>
      </trkpt>
      <trkpt lat="44.71777" lon="4.55075">
        <ele>396.2</ele>
        <time>2022-06-09T06:41:11Z</time>
      </trkpt>
      <trkpt lat="44.71777" lon="4.55073">
        <ele>396.4</ele>
        <time>2022-06-09T06:41:12Z</time>
      </trkpt>
      <trkpt lat="44.71778" lon="4.55069">
        <ele>396.6</ele>
        <time>2022-06-09T06:41:13Z</time>
      </trkpt>
      <trkpt lat="44.71779" lon="4.55064">
        <ele>397</ele>
        <time>2022-06-09T06:41:16Z</time>
      </trkpt>
      <trkpt lat="44.71779" lon="4.55062">
        <ele>397.1</ele>
        <time>2022-06-09T06:41:17Z</time>
      </trkpt>
      <trkpt lat="44.71779" lon="4.5506">
        <ele>397.2</ele>
        <time>2022-06-09T06:41:18Z</time>
      </trkpt>
      <trkpt lat="44.7178" lon="4.55056">
        <ele>397.5</ele>
        <time>2022-06-09T06:41:19Z</time>
      </trkpt>
      <trkpt lat="44.71781" lon="4.55054">
        <ele>397.7</ele>
        <time>2022-06-09T06:41:21Z</time>
      </trkpt>
      <trkpt lat="44.71781" lon="4.55051">
        <ele>397.8</ele>
        <time>2022-06-09T06:41:22Z</time>
      </trkpt>
      <trkpt lat="44.71781" lon="4.55047">
        <ele>398.1</ele>
        <time>2022-06-09T06:41:23Z</time>
      </trkpt>
      <trkpt lat="44.71781" lon="4.55046">
        <ele>398.2</ele>
        <time>2022-06-09T06:41:24Z</time>
      </trkpt>
      <trkpt lat="44.71782" lon="4.55041">
        <ele>398.4</ele>
        <time>2022-06-09T06:41:26Z</time>
      </trkpt>
      <trkpt lat="44.71782" lon="4.5504">
        <ele>398.5</ele>
        <time>2022-06-09T06:41:27Z</time>
      </trkpt>
      <trkpt lat="44.71783" lon="4.55038">
        <ele>398.7</ele>
        <time>2022-06-09T06:41:28Z</time>
      </trkpt>
      <trkpt lat="44.71783" lon="4.55036">
        <ele>398.8</ele>
        <time>2022-06-09T06:41:29Z</time>
      </trkpt>
      <trkpt lat="44.71783" lon="4.55034">
        <ele>398.9</ele>
        <time>2022-06-09T06:41:30Z</time>
      </trkpt>
      <trkpt lat="44.71783" lon="4.55032">
        <ele>399.1</ele>
        <time>2022-06-09T06:41:31Z</time>
      </trkpt>
      <trkpt lat="44.71784" lon="4.5503">
        <ele>399.1</ele>
        <time>2022-06-09T06:41:32Z</time>
      </trkpt>
      <trkpt lat="44.71784" lon="4.55027">
        <ele>399.1</ele>
        <time>2022-06-09T06:41:33Z</time>
      </trkpt>
      <trkpt lat="44.71784" lon="4.55025">
        <ele>399.1</ele>
        <time>2022-06-09T06:41:34Z</time>
      </trkpt>
      <trkpt lat="44.71784" lon="4.55023">
        <ele>399.2</ele>
        <time>2022-06-09T06:41:35Z</time>
      </trkpt>
      <trkpt lat="44.71784" lon="4.55022">
        <ele>399.2</ele>
        <time>2022-06-09T06:41:36Z</time>
      </trkpt>
      <trkpt lat="44.71784" lon="4.55019">
        <ele>399.2</ele>
        <time>2022-06-09T06:41:37Z</time>
      </trkpt>
      <trkpt lat="44.71785" lon="4.55015">
        <ele>399.2</ele>
        <time>2022-06-09T06:41:39Z</time>
      </trkpt>
      <trkpt lat="44.71785" lon="4.55011">
        <ele>399.3</ele>
        <time>2022-06-09T06:41:41Z</time>
      </trkpt>
      <trkpt lat="44.71785" lon="4.55009">
        <ele>399.4</ele>
        <time>2022-06-09T06:41:42Z</time>
      </trkpt>
      <trkpt lat="44.71785" lon="4.55007">
        <ele>399.5</ele>
        <time>2022-06-09T06:41:43Z</time>
      </trkpt>
      <trkpt lat="44.71786" lon="4.55005">
        <ele>399.6</ele>
        <time>2022-06-09T06:41:44Z</time>
      </trkpt>
      <trkpt lat="44.71786" lon="4.55002">
        <ele>399.8</ele>
        <time>2022-06-09T06:41:45Z</time>
      </trkpt>
      <trkpt lat="44.71786" lon="4.54998">
        <ele>400</ele>
        <time>2022-06-09T06:41:46Z</time>
      </trkpt>
      <trkpt lat="44.71785" lon="4.54995">
        <ele>400.2</ele>
        <time>2022-06-09T06:41:47Z</time>
      </trkpt>
      <trkpt lat="44.71785" lon="4.54993">
        <ele>400.3</ele>
        <time>2022-06-09T06:41:49Z</time>
      </trkpt>
      <trkpt lat="44.71786" lon="4.54988">
        <ele>400.6</ele>
        <time>2022-06-09T06:41:51Z</time>
      </trkpt>
      <trkpt lat="44.71785" lon="4.54987">
        <ele>400.7</ele>
        <time>2022-06-09T06:41:52Z</time>
      </trkpt>
      <trkpt lat="44.71785" lon="4.54985">
        <ele>400.8</ele>
        <time>2022-06-09T06:41:53Z</time>
      </trkpt>
      <trkpt lat="44.71786" lon="4.54982">
        <ele>400.9</ele>
        <time>2022-06-09T06:41:54Z</time>
      </trkpt>
      <trkpt lat="44.71785" lon="4.54978">
        <ele>401.2</ele>
        <time>2022-06-09T06:41:56Z</time>
      </trkpt>
      <trkpt lat="44.71785" lon="4.54976">
        <ele>401.3</ele>
        <time>2022-06-09T06:41:57Z</time>
      </trkpt>
      <trkpt lat="44.71785" lon="4.54974">
        <ele>401.4</ele>
        <time>2022-06-09T06:41:58Z</time>
      </trkpt>
      <trkpt lat="44.71785" lon="4.5497">
        <ele>401.6</ele>
        <time>2022-06-09T06:42:00Z</time>
      </trkpt>
      <trkpt lat="44.71784" lon="4.54968">
        <ele>401.8</ele>
        <time>2022-06-09T06:42:01Z</time>
      </trkpt>
      <trkpt lat="44.71784" lon="4.54965">
        <ele>401.9</ele>
        <time>2022-06-09T06:42:02Z</time>
      </trkpt>
      <trkpt lat="44.71783" lon="4.54961">
        <ele>402.1</ele>
        <time>2022-06-09T06:42:03Z</time>
      </trkpt>
      <trkpt lat="44.71782" lon="4.54959">
        <ele>402.3</ele>
        <time>2022-06-09T06:42:05Z</time>
      </trkpt>
      <trkpt lat="44.71781" lon="4.54958">
        <ele>402.4</ele>
        <time>2022-06-09T06:42:06Z</time>
      </trkpt>
      <trkpt lat="44.7178" lon="4.54957">
        <ele>402.4</ele>
        <time>2022-06-09T06:42:07Z</time>
      </trkpt>
      <trkpt lat="44.71779" lon="4.54953">
        <ele>402.6</ele>
        <time>2022-06-09T06:42:08Z</time>
      </trkpt>
      <trkpt lat="44.71779" lon="4.54952">
        <ele>402.7</ele>
        <time>2022-06-09T06:42:09Z</time>
      </trkpt>
      <trkpt lat="44.71778" lon="4.5495">
        <ele>402.8</ele>
        <time>2022-06-09T06:42:10Z</time>
      </trkpt>
      <trkpt lat="44.71778" lon="4.54947">
        <ele>403</ele>
        <time>2022-06-09T06:42:11Z</time>
      </trkpt>
      <trkpt lat="44.71777" lon="4.54944">
        <ele>403.1</ele>
        <time>2022-06-09T06:42:12Z</time>
      </trkpt>
      <trkpt lat="44.71777" lon="4.54943">
        <ele>403.2</ele>
        <time>2022-06-09T06:42:13Z</time>
      </trkpt>
      <trkpt lat="44.71776" lon="4.54939">
        <ele>403.4</ele>
        <time>2022-06-09T06:42:14Z</time>
      </trkpt>
      <trkpt lat="44.71776" lon="4.54937">
        <ele>403.5</ele>
        <time>2022-06-09T06:42:15Z</time>
      </trkpt>
      <trkpt lat="44.71776" lon="4.54933">
        <ele>403.7</ele>
        <time>2022-06-09T06:42:16Z</time>
      </trkpt>
      <trkpt lat="44.71775" lon="4.54931">
        <ele>403.8</ele>
        <time>2022-06-09T06:42:17Z</time>
      </trkpt>
      <trkpt lat="44.71775" lon="4.54927">
        <ele>404</ele>
        <time>2022-06-09T06:42:18Z</time>
      </trkpt>
      <trkpt lat="44.71775" lon="4.54925">
        <ele>404.1</ele>
        <time>2022-06-09T06:42:19Z</time>
      </trkpt>
      <trkpt lat="44.71775" lon="4.5492">
        <ele>404.3</ele>
        <time>2022-06-09T06:42:20Z</time>
      </trkpt>
      <trkpt lat="44.71775" lon="4.54918">
        <ele>404.4</ele>
        <time>2022-06-09T06:42:21Z</time>
      </trkpt>
      <trkpt lat="44.71776" lon="4.54914">
        <ele>404.6</ele>
        <time>2022-06-09T06:42:22Z</time>
      </trkpt>
      <trkpt lat="44.71776" lon="4.54912">
        <ele>404.7</ele>
        <time>2022-06-09T06:42:23Z</time>
      </trkpt>
      <trkpt lat="44.71777" lon="4.54907">
        <ele>404.9</ele>
        <time>2022-06-09T06:42:24Z</time>
      </trkpt>
      <trkpt lat="44.71777" lon="4.54906">
        <ele>405</ele>
        <time>2022-06-09T06:42:25Z</time>
      </trkpt>
      <trkpt lat="44.71777" lon="4.54902">
        <ele>405.2</ele>
        <time>2022-06-09T06:42:26Z</time>
      </trkpt>
      <trkpt lat="44.71777" lon="4.549">
        <ele>405.3</ele>
        <time>2022-06-09T06:42:27Z</time>
      </trkpt>
      <trkpt lat="44.71778" lon="4.54895">
        <ele>405.5</ele>
        <time>2022-06-09T06:42:28Z</time>
      </trkpt>
      <trkpt lat="44.71778" lon="4.54893">
        <ele>405.6</ele>
        <time>2022-06-09T06:42:29Z</time>
      </trkpt>
      <trkpt lat="44.71778" lon="4.54889">
        <ele>405.8</ele>
        <time>2022-06-09T06:42:30Z</time>
      </trkpt>
      <trkpt lat="44.71778" lon="4.54887">
        <ele>405.9</ele>
        <time>2022-06-09T06:42:31Z</time>
      </trkpt>
      <trkpt lat="44.71779" lon="4.54883">
        <ele>406.1</ele>
        <time>2022-06-09T06:42:32Z</time>
      </trkpt>
      <trkpt lat="44.71779" lon="4.54882">
        <ele>406.2</ele>
        <time>2022-06-09T06:42:33Z</time>
      </trkpt>
      <trkpt lat="44.7178" lon="4.54879">
        <ele>406.3</ele>
        <time>2022-06-09T06:42:34Z</time>
      </trkpt>
      <trkpt lat="44.71781" lon="4.54874">
        <ele>406.5</ele>
        <time>2022-06-09T06:42:36Z</time>
      </trkpt>
      <trkpt lat="44.71782" lon="4.54869">
        <ele>406.7</ele>
        <time>2022-06-09T06:42:37Z</time>
      </trkpt>
      <trkpt lat="44.71783" lon="4.54866">
        <ele>406.8</ele>
        <time>2022-06-09T06:42:38Z</time>
      </trkpt>
      <trkpt lat="44.71784" lon="4.54864">
        <ele>406.9</ele>
        <time>2022-06-09T06:42:40Z</time>
      </trkpt>
      <trkpt lat="44.71785" lon="4.54862">
        <ele>406.9</ele>
        <time>2022-06-09T06:42:41Z</time>
      </trkpt>
      <trkpt lat="44.71785" lon="4.5486">
        <ele>407</ele>
        <time>2022-06-09T06:42:42Z</time>
      </trkpt>
      <trkpt lat="44.71787" lon="4.54856">
        <ele>407.1</ele>
        <time>2022-06-09T06:42:43Z</time>
      </trkpt>
      <trkpt lat="44.71789" lon="4.54854">
        <ele>407.2</ele>
        <time>2022-06-09T06:42:45Z</time>
      </trkpt>
      <trkpt lat="44.7179" lon="4.54849">
        <ele>407.3</ele>
        <time>2022-06-09T06:42:47Z</time>
      </trkpt>
      <trkpt lat="44.71791" lon="4.54847">
        <ele>407.5</ele>
        <time>2022-06-09T06:42:48Z</time>
      </trkpt>
      <trkpt lat="44.71792" lon="4.54845">
        <ele>407.6</ele>
        <time>2022-06-09T06:42:49Z</time>
      </trkpt>
      <trkpt lat="44.71793" lon="4.54844">
        <ele>407.8</ele>
        <time>2022-06-09T06:42:50Z</time>
      </trkpt>
      <trkpt lat="44.71793" lon="4.54841">
        <ele>408</ele>
        <time>2022-06-09T06:42:51Z</time>
      </trkpt>
      <trkpt lat="44.71794" lon="4.5484">
        <ele>408.1</ele>
        <time>2022-06-09T06:42:52Z</time>
      </trkpt>
      <trkpt lat="44.71795" lon="4.54838">
        <ele>408.2</ele>
        <time>2022-06-09T06:42:53Z</time>
      </trkpt>
      <trkpt lat="44.71795" lon="4.54836">
        <ele>408.4</ele>
        <time>2022-06-09T06:42:54Z</time>
      </trkpt>
      <trkpt lat="44.71797" lon="4.54832">
        <ele>408.7</ele>
        <time>2022-06-09T06:42:56Z</time>
      </trkpt>
      <trkpt lat="44.71797" lon="4.5483">
        <ele>408.9</ele>
        <time>2022-06-09T06:42:57Z</time>
      </trkpt>
      <trkpt lat="44.71798" lon="4.54828">
        <ele>409.1</ele>
        <time>2022-06-09T06:42:58Z</time>
      </trkpt>
      <trkpt lat="44.71798" lon="4.54826">
        <ele>409.2</ele>
        <time>2022-06-09T06:42:59Z</time>
      </trkpt>
      <trkpt lat="44.71799" lon="4.54824">
        <ele>409.3</ele>
        <time>2022-06-09T06:43:00Z</time>
      </trkpt>
      <trkpt lat="44.71799" lon="4.54822">
        <ele>409.5</ele>
        <time>2022-06-09T06:43:01Z</time>
      </trkpt>
      <trkpt lat="44.718" lon="4.5482">
        <ele>409.6</ele>
        <time>2022-06-09T06:43:02Z</time>
      </trkpt>
      <trkpt lat="44.718" lon="4.54818">
        <ele>409.8</ele>
        <time>2022-06-09T06:43:03Z</time>
      </trkpt>
      <trkpt lat="44.718" lon="4.54816">
        <ele>409.9</ele>
        <time>2022-06-09T06:43:04Z</time>
      </trkpt>
      <trkpt lat="44.71801" lon="4.54814">
        <ele>410</ele>
        <time>2022-06-09T06:43:05Z</time>
      </trkpt>
      <trkpt lat="44.71801" lon="4.54812">
        <ele>410.2</ele>
        <time>2022-06-09T06:43:06Z</time>
      </trkpt>
      <trkpt lat="44.71802" lon="4.54808">
        <ele>410.5</ele>
        <time>2022-06-09T06:43:08Z</time>
      </trkpt>
      <trkpt lat="44.71802" lon="4.54806">
        <ele>410.6</ele>
        <time>2022-06-09T06:43:09Z</time>
      </trkpt>
      <trkpt lat="44.71803" lon="4.54804">
        <ele>410.7</ele>
        <time>2022-06-09T06:43:10Z</time>
      </trkpt>
      <trkpt lat="44.71803" lon="4.548">
        <ele>411</ele>
        <time>2022-06-09T06:43:11Z</time>
      </trkpt>
      <trkpt lat="44.71803" lon="4.54797">
        <ele>411.2</ele>
        <time>2022-06-09T06:43:13Z</time>
      </trkpt>
      <trkpt lat="44.71804" lon="4.54795">
        <ele>411.3</ele>
        <time>2022-06-09T06:43:14Z</time>
      </trkpt>
      <trkpt lat="44.71804" lon="4.54793">
        <ele>411.5</ele>
        <time>2022-06-09T06:43:15Z</time>
      </trkpt>
      <trkpt lat="44.71804" lon="4.54791">
        <ele>411.6</ele>
        <time>2022-06-09T06:43:16Z</time>
      </trkpt>
      <trkpt lat="44.71804" lon="4.54789">
        <ele>411.7</ele>
        <time>2022-06-09T06:43:17Z</time>
      </trkpt>
      <trkpt lat="44.71805" lon="4.54787">
        <ele>411.9</ele>
        <time>2022-06-09T06:43:18Z</time>
      </trkpt>
      <trkpt lat="44.71806" lon="4.54785">
        <ele>412</ele>
        <time>2022-06-09T06:43:19Z</time>
      </trkpt>
      <trkpt lat="44.71807" lon="4.54783">
        <ele>412.2</ele>
        <time>2022-06-09T06:43:20Z</time>
      </trkpt>
      <trkpt lat="44.71807" lon="4.54781">
        <ele>412.3</ele>
        <time>2022-06-09T06:43:21Z</time>
      </trkpt>
      <trkpt lat="44.71807" lon="4.54779">
        <ele>412.4</ele>
        <time>2022-06-09T06:43:22Z</time>
      </trkpt>
      <trkpt lat="44.71807" lon="4.54777">
        <ele>412.6</ele>
        <time>2022-06-09T06:43:23Z</time>
      </trkpt>
      <trkpt lat="44.71807" lon="4.54775">
        <ele>412.7</ele>
        <time>2022-06-09T06:43:24Z</time>
      </trkpt>
      <trkpt lat="44.71808" lon="4.54772">
        <ele>412.8</ele>
        <time>2022-06-09T06:43:25Z</time>
      </trkpt>
      <trkpt lat="44.71808" lon="4.5477">
        <ele>413</ele>
        <time>2022-06-09T06:43:26Z</time>
      </trkpt>
      <trkpt lat="44.71808" lon="4.54765">
        <ele>413.2</ele>
        <time>2022-06-09T06:43:27Z</time>
      </trkpt>
      <trkpt lat="44.71807" lon="4.54762">
        <ele>413.4</ele>
        <time>2022-06-09T06:43:28Z</time>
      </trkpt>
      <trkpt lat="44.71807" lon="4.54759">
        <ele>413.5</ele>
        <time>2022-06-09T06:43:30Z</time>
      </trkpt>
      <trkpt lat="44.71806" lon="4.54755">
        <ele>413.7</ele>
        <time>2022-06-09T06:43:31Z</time>
      </trkpt>
      <trkpt lat="44.71806" lon="4.54753">
        <ele>413.8</ele>
        <time>2022-06-09T06:43:32Z</time>
      </trkpt>
      <trkpt lat="44.71805" lon="4.54749">
        <ele>414</ele>
        <time>2022-06-09T06:43:33Z</time>
      </trkpt>
      <trkpt lat="44.71804" lon="4.54748">
        <ele>414.1</ele>
        <time>2022-06-09T06:43:34Z</time>
      </trkpt>
      <trkpt lat="44.71803" lon="4.54744">
        <ele>414.3</ele>
        <time>2022-06-09T06:43:35Z</time>
      </trkpt>
      <trkpt lat="44.71803" lon="4.54743">
        <ele>414.3</ele>
        <time>2022-06-09T06:43:36Z</time>
      </trkpt>
      <trkpt lat="44.71802" lon="4.54739">
        <ele>414.5</ele>
        <time>2022-06-09T06:43:37Z</time>
      </trkpt>
      <trkpt lat="44.71802" lon="4.54738">
        <ele>414.6</ele>
        <time>2022-06-09T06:43:38Z</time>
      </trkpt>
      <trkpt lat="44.71801" lon="4.54733">
        <ele>414.8</ele>
        <time>2022-06-09T06:43:39Z</time>
      </trkpt>
      <trkpt lat="44.718" lon="4.5473">
        <ele>414.9</ele>
        <time>2022-06-09T06:43:41Z</time>
      </trkpt>
      <trkpt lat="44.718" lon="4.54728">
        <ele>415</ele>
        <time>2022-06-09T06:43:42Z</time>
      </trkpt>
      <trkpt lat="44.71797" lon="4.54724">
        <ele>415.2</ele>
        <time>2022-06-09T06:43:43Z</time>
      </trkpt>
      <trkpt lat="44.71795" lon="4.5472">
        <ele>415.4</ele>
        <time>2022-06-09T06:43:45Z</time>
      </trkpt>
      <trkpt lat="44.71795" lon="4.54719">
        <ele>415.4</ele>
        <time>2022-06-09T06:43:46Z</time>
      </trkpt>
      <trkpt lat="44.71792" lon="4.54716">
        <ele>415.6</ele>
        <time>2022-06-09T06:43:47Z</time>
      </trkpt>
      <trkpt lat="44.71792" lon="4.54715">
        <ele>415.6</ele>
        <time>2022-06-09T06:43:48Z</time>
      </trkpt>
      <trkpt lat="44.71788" lon="4.54711">
        <ele>415.8</ele>
        <time>2022-06-09T06:43:49Z</time>
      </trkpt>
      <trkpt lat="44.71787" lon="4.54708">
        <ele>415.9</ele>
        <time>2022-06-09T06:43:50Z</time>
      </trkpt>
      <trkpt lat="44.71783" lon="4.54703">
        <ele>416.1</ele>
        <time>2022-06-09T06:43:52Z</time>
      </trkpt>
      <trkpt lat="44.7178" lon="4.54698">
        <ele>416.3</ele>
        <time>2022-06-09T06:43:54Z</time>
      </trkpt>
      <trkpt lat="44.71779" lon="4.54697">
        <ele>416.3</ele>
        <time>2022-06-09T06:43:55Z</time>
      </trkpt>
      <trkpt lat="44.71778" lon="4.54695">
        <ele>416.4</ele>
        <time>2022-06-09T06:43:56Z</time>
      </trkpt>
      <trkpt lat="44.71775" lon="4.54691">
        <ele>416.5</ele>
        <time>2022-06-09T06:43:57Z</time>
      </trkpt>
      <trkpt lat="44.71774" lon="4.5469">
        <ele>416.5</ele>
        <time>2022-06-09T06:43:58Z</time>
      </trkpt>
      <trkpt lat="44.71772" lon="4.54687">
        <ele>416.6</ele>
        <time>2022-06-09T06:43:59Z</time>
      </trkpt>
      <trkpt lat="44.7177" lon="4.54684">
        <ele>416.7</ele>
        <time>2022-06-09T06:44:00Z</time>
      </trkpt>
      <trkpt lat="44.71769" lon="4.54681">
        <ele>416.8</ele>
        <time>2022-06-09T06:44:01Z</time>
      </trkpt>
      <trkpt lat="44.71767" lon="4.54678">
        <ele>416.9</ele>
        <time>2022-06-09T06:44:02Z</time>
      </trkpt>
      <trkpt lat="44.71765" lon="4.54674">
        <ele>416.9</ele>
        <time>2022-06-09T06:44:03Z</time>
      </trkpt>
      <trkpt lat="44.71763" lon="4.54672">
        <ele>417</ele>
        <time>2022-06-09T06:44:04Z</time>
      </trkpt>
      <trkpt lat="44.71761" lon="4.54669">
        <ele>417.1</ele>
        <time>2022-06-09T06:44:05Z</time>
      </trkpt>
      <trkpt lat="44.71758" lon="4.54665">
        <ele>417.1</ele>
        <time>2022-06-09T06:44:06Z</time>
      </trkpt>
      <trkpt lat="44.71756" lon="4.54662">
        <ele>417.2</ele>
        <time>2022-06-09T06:44:07Z</time>
      </trkpt>
      <trkpt lat="44.71751" lon="4.54656">
        <ele>417.2</ele>
        <time>2022-06-09T06:44:08Z</time>
      </trkpt>
      <trkpt lat="44.71746" lon="4.54649">
        <ele>417.2</ele>
        <time>2022-06-09T06:44:10Z</time>
      </trkpt>
      <trkpt lat="44.71743" lon="4.54646">
        <ele>417.2</ele>
        <time>2022-06-09T06:44:12Z</time>
      </trkpt>
      <trkpt lat="44.7174" lon="4.54642">
        <ele>417.2</ele>
        <time>2022-06-09T06:44:13Z</time>
      </trkpt>
      <trkpt lat="44.71737" lon="4.54637">
        <ele>417.3</ele>
        <time>2022-06-09T06:44:14Z</time>
      </trkpt>
      <trkpt lat="44.71732" lon="4.54627">
        <ele>417.5</ele>
        <time>2022-06-09T06:44:15Z</time>
      </trkpt>
      <trkpt lat="44.71729" lon="4.54621">
        <ele>417.7</ele>
        <time>2022-06-09T06:44:17Z</time>
      </trkpt>
      <trkpt lat="44.71727" lon="4.54616">
        <ele>417.8</ele>
        <time>2022-06-09T06:44:18Z</time>
      </trkpt>
      <trkpt lat="44.71724" lon="4.54612">
        <ele>417.9</ele>
        <time>2022-06-09T06:44:19Z</time>
      </trkpt>
      <trkpt lat="44.71722" lon="4.54608">
        <ele>418</ele>
        <time>2022-06-09T06:44:20Z</time>
      </trkpt>
      <trkpt lat="44.71718" lon="4.54604">
        <ele>418.1</ele>
        <time>2022-06-09T06:44:21Z</time>
      </trkpt>
      <trkpt lat="44.71714" lon="4.54602">
        <ele>418.2</ele>
        <time>2022-06-09T06:44:22Z</time>
      </trkpt>
      <trkpt lat="44.71711" lon="4.546">
        <ele>418.3</ele>
        <time>2022-06-09T06:44:23Z</time>
      </trkpt>
      <trkpt lat="44.71707" lon="4.54599">
        <ele>418.5</ele>
        <time>2022-06-09T06:44:24Z</time>
      </trkpt>
      <trkpt lat="44.71703" lon="4.54598">
        <ele>418.5</ele>
        <time>2022-06-09T06:44:25Z</time>
      </trkpt>
      <trkpt lat="44.717" lon="4.54598">
        <ele>418.6</ele>
        <time>2022-06-09T06:44:26Z</time>
      </trkpt>
      <trkpt lat="44.71697" lon="4.54598">
        <ele>418.6</ele>
        <time>2022-06-09T06:44:27Z</time>
      </trkpt>
      <trkpt lat="44.71691" lon="4.54598">
        <ele>418.7</ele>
        <time>2022-06-09T06:44:28Z</time>
      </trkpt>
      <trkpt lat="44.71688" lon="4.54598">
        <ele>418.8</ele>
        <time>2022-06-09T06:44:30Z</time>
      </trkpt>
      <trkpt lat="44.71683" lon="4.54595">
        <ele>418.9</ele>
        <time>2022-06-09T06:44:31Z</time>
      </trkpt>
      <trkpt lat="44.71681" lon="4.54592">
        <ele>419.1</ele>
        <time>2022-06-09T06:44:32Z</time>
      </trkpt>
      <trkpt lat="44.71677" lon="4.54589">
        <ele>419.2</ele>
        <time>2022-06-09T06:44:34Z</time>
      </trkpt>
      <trkpt lat="44.71676" lon="4.54588">
        <ele>419.3</ele>
        <time>2022-06-09T06:44:35Z</time>
      </trkpt>
      <trkpt lat="44.71675" lon="4.54586">
        <ele>419.3</ele>
        <time>2022-06-09T06:44:36Z</time>
      </trkpt>
      <trkpt lat="44.71673" lon="4.54583">
        <ele>419.4</ele>
        <time>2022-06-09T06:44:37Z</time>
      </trkpt>
      <trkpt lat="44.71673" lon="4.54582">
        <ele>419.5</ele>
        <time>2022-06-09T06:44:38Z</time>
      </trkpt>
      <trkpt lat="44.7167" lon="4.54579">
        <ele>419.6</ele>
        <time>2022-06-09T06:44:39Z</time>
      </trkpt>
      <trkpt lat="44.71669" lon="4.54578">
        <ele>419.6</ele>
        <time>2022-06-09T06:44:40Z</time>
      </trkpt>
      <trkpt lat="44.71667" lon="4.54575">
        <ele>419.8</ele>
        <time>2022-06-09T06:44:41Z</time>
      </trkpt>
      <trkpt lat="44.71667" lon="4.54573">
        <ele>419.8</ele>
        <time>2022-06-09T06:44:42Z</time>
      </trkpt>
      <trkpt lat="44.71665" lon="4.54569">
        <ele>420</ele>
        <time>2022-06-09T06:44:43Z</time>
      </trkpt>
      <trkpt lat="44.71663" lon="4.54565">
        <ele>420.4</ele>
        <time>2022-06-09T06:44:45Z</time>
      </trkpt>
      <trkpt lat="44.71662" lon="4.54564">
        <ele>420.5</ele>
        <time>2022-06-09T06:44:46Z</time>
      </trkpt>
      <trkpt lat="44.71661" lon="4.5456">
        <ele>420.8</ele>
        <time>2022-06-09T06:44:47Z</time>
      </trkpt>
      <trkpt lat="44.7166" lon="4.54559">
        <ele>420.9</ele>
        <time>2022-06-09T06:44:48Z</time>
      </trkpt>
      <trkpt lat="44.71659" lon="4.54555">
        <ele>421.2</ele>
        <time>2022-06-09T06:44:49Z</time>
      </trkpt>
      <trkpt lat="44.71658" lon="4.54554">
        <ele>421.3</ele>
        <time>2022-06-09T06:44:50Z</time>
      </trkpt>
      <trkpt lat="44.71657" lon="4.54548">
        <ele>421.7</ele>
        <time>2022-06-09T06:44:51Z</time>
      </trkpt>
      <trkpt lat="44.71656" lon="4.54545">
        <ele>422</ele>
        <time>2022-06-09T06:44:52Z</time>
      </trkpt>
      <trkpt lat="44.71655" lon="4.54539">
        <ele>422.4</ele>
        <time>2022-06-09T06:44:54Z</time>
      </trkpt>
      <trkpt lat="44.71655" lon="4.54536">
        <ele>422.7</ele>
        <time>2022-06-09T06:44:56Z</time>
      </trkpt>
      <trkpt lat="44.71654" lon="4.54532">
        <ele>422.8</ele>
        <time>2022-06-09T06:44:57Z</time>
      </trkpt>
      <trkpt lat="44.71654" lon="4.54531">
        <ele>422.8</ele>
        <time>2022-06-09T06:44:58Z</time>
      </trkpt>
      <trkpt lat="44.71652" lon="4.54527">
        <ele>423</ele>
        <time>2022-06-09T06:44:59Z</time>
      </trkpt>
      <trkpt lat="44.71652" lon="4.54526">
        <ele>423</ele>
        <time>2022-06-09T06:45:00Z</time>
      </trkpt>
      <trkpt lat="44.7165" lon="4.54521">
        <ele>423.2</ele>
        <time>2022-06-09T06:45:01Z</time>
      </trkpt>
      <trkpt lat="44.7165" lon="4.5452">
        <ele>423.3</ele>
        <time>2022-06-09T06:45:02Z</time>
      </trkpt>
      <trkpt lat="44.71649" lon="4.54515">
        <ele>423.5</ele>
        <time>2022-06-09T06:45:03Z</time>
      </trkpt>
      <trkpt lat="44.71648" lon="4.54514">
        <ele>423.5</ele>
        <time>2022-06-09T06:45:04Z</time>
      </trkpt>
      <trkpt lat="44.71646" lon="4.54509">
        <ele>423.8</ele>
        <time>2022-06-09T06:45:05Z</time>
      </trkpt>
      <trkpt lat="44.71645" lon="4.54507">
        <ele>423.8</ele>
        <time>2022-06-09T06:45:06Z</time>
      </trkpt>
      <trkpt lat="44.71643" lon="4.54503">
        <ele>424</ele>
        <time>2022-06-09T06:45:07Z</time>
      </trkpt>
      <trkpt lat="44.71643" lon="4.54502">
        <ele>424.1</ele>
        <time>2022-06-09T06:45:08Z</time>
      </trkpt>
      <trkpt lat="44.71641" lon="4.54497">
        <ele>424.3</ele>
        <time>2022-06-09T06:45:09Z</time>
      </trkpt>
      <trkpt lat="44.7164" lon="4.54496">
        <ele>424.4</ele>
        <time>2022-06-09T06:45:10Z</time>
      </trkpt>
      <trkpt lat="44.71639" lon="4.54491">
        <ele>424.6</ele>
        <time>2022-06-09T06:45:11Z</time>
      </trkpt>
      <trkpt lat="44.71638" lon="4.5449">
        <ele>424.7</ele>
        <time>2022-06-09T06:45:12Z</time>
      </trkpt>
      <trkpt lat="44.71637" lon="4.54486">
        <ele>424.9</ele>
        <time>2022-06-09T06:45:13Z</time>
      </trkpt>
      <trkpt lat="44.71636" lon="4.54485">
        <ele>424.9</ele>
        <time>2022-06-09T06:45:14Z</time>
      </trkpt>
      <trkpt lat="44.71636" lon="4.54483">
        <ele>425</ele>
        <time>2022-06-09T06:45:15Z</time>
      </trkpt>
      <trkpt lat="44.71635" lon="4.5448">
        <ele>425.1</ele>
        <time>2022-06-09T06:45:16Z</time>
      </trkpt>
      <trkpt lat="44.71633" lon="4.54476">
        <ele>425.3</ele>
        <time>2022-06-09T06:45:17Z</time>
      </trkpt>
      <trkpt lat="44.71633" lon="4.54474">
        <ele>425.4</ele>
        <time>2022-06-09T06:45:18Z</time>
      </trkpt>
      <trkpt lat="44.71632" lon="4.5447">
        <ele>425.5</ele>
        <time>2022-06-09T06:45:19Z</time>
      </trkpt>
      <trkpt lat="44.71631" lon="4.54469">
        <ele>425.6</ele>
        <time>2022-06-09T06:45:20Z</time>
      </trkpt>
      <trkpt lat="44.71631" lon="4.54466">
        <ele>425.7</ele>
        <time>2022-06-09T06:45:21Z</time>
      </trkpt>
      <trkpt lat="44.71631" lon="4.54464">
        <ele>425.8</ele>
        <time>2022-06-09T06:45:22Z</time>
      </trkpt>
      <trkpt lat="44.71631" lon="4.54459">
        <ele>425.9</ele>
        <time>2022-06-09T06:45:23Z</time>
      </trkpt>
      <trkpt lat="44.71631" lon="4.54458">
        <ele>426</ele>
        <time>2022-06-09T06:45:24Z</time>
      </trkpt>
      <trkpt lat="44.71631" lon="4.54453">
        <ele>426.1</ele>
        <time>2022-06-09T06:45:25Z</time>
      </trkpt>
      <trkpt lat="44.71632" lon="4.54451">
        <ele>426.2</ele>
        <time>2022-06-09T06:45:26Z</time>
      </trkpt>
      <trkpt lat="44.71631" lon="4.54449">
        <ele>426.3</ele>
        <time>2022-06-09T06:45:27Z</time>
      </trkpt>
      <trkpt lat="44.71632" lon="4.54443">
        <ele>426.5</ele>
        <time>2022-06-09T06:45:29Z</time>
      </trkpt>
      <trkpt lat="44.71633" lon="4.54439">
        <ele>426.6</ele>
        <time>2022-06-09T06:45:30Z</time>
      </trkpt>
      <trkpt lat="44.71635" lon="4.54434">
        <ele>426.8</ele>
        <time>2022-06-09T06:45:32Z</time>
      </trkpt>
      <trkpt lat="44.71636" lon="4.54429">
        <ele>427</ele>
        <time>2022-06-09T06:45:33Z</time>
      </trkpt>
      <trkpt lat="44.71636" lon="4.54428">
        <ele>427.1</ele>
        <time>2022-06-09T06:45:34Z</time>
      </trkpt>
      <trkpt lat="44.71638" lon="4.54424">
        <ele>427.2</ele>
        <time>2022-06-09T06:45:35Z</time>
      </trkpt>
      <trkpt lat="44.71638" lon="4.54422">
        <ele>427.3</ele>
        <time>2022-06-09T06:45:36Z</time>
      </trkpt>
      <trkpt lat="44.7164" lon="4.54418">
        <ele>427.5</ele>
        <time>2022-06-09T06:45:37Z</time>
      </trkpt>
      <trkpt lat="44.71641" lon="4.54417">
        <ele>427.5</ele>
        <time>2022-06-09T06:45:38Z</time>
      </trkpt>
      <trkpt lat="44.71644" lon="4.54413">
        <ele>427.8</ele>
        <time>2022-06-09T06:45:39Z</time>
      </trkpt>
      <trkpt lat="44.71645" lon="4.54412">
        <ele>427.8</ele>
        <time>2022-06-09T06:45:40Z</time>
      </trkpt>
      <trkpt lat="44.71646" lon="4.5441">
        <ele>428</ele>
        <time>2022-06-09T06:45:41Z</time>
      </trkpt>
      <trkpt lat="44.71647" lon="4.54408">
        <ele>428.1</ele>
        <time>2022-06-09T06:45:42Z</time>
      </trkpt>
      <trkpt lat="44.71648" lon="4.54406">
        <ele>428.2</ele>
        <time>2022-06-09T06:45:43Z</time>
      </trkpt>
      <trkpt lat="44.71649" lon="4.54405">
        <ele>428.3</ele>
        <time>2022-06-09T06:45:44Z</time>
      </trkpt>
      <trkpt lat="44.71649" lon="4.54404">
        <ele>428.3</ele>
        <time>2022-06-09T06:45:45Z</time>
      </trkpt>
      <trkpt lat="44.71651" lon="4.54402">
        <ele>428.4</ele>
        <time>2022-06-09T06:45:46Z</time>
      </trkpt>
      <trkpt lat="44.71652" lon="4.54401">
        <ele>428.5</ele>
        <time>2022-06-09T06:45:47Z</time>
      </trkpt>
      <trkpt lat="44.71653" lon="4.54399">
        <ele>428.5</ele>
        <time>2022-06-09T06:45:48Z</time>
      </trkpt>
      <trkpt lat="44.71654" lon="4.54397">
        <ele>428.5</ele>
        <time>2022-06-09T06:45:49Z</time>
      </trkpt>
      <trkpt lat="44.71655" lon="4.54396">
        <ele>428.5</ele>
        <time>2022-06-09T06:45:50Z</time>
      </trkpt>
      <trkpt lat="44.71655" lon="4.54394">
        <ele>428.5</ele>
        <time>2022-06-09T06:45:51Z</time>
      </trkpt>
      <trkpt lat="44.71656" lon="4.54392">
        <ele>428.5</ele>
        <time>2022-06-09T06:45:52Z</time>
      </trkpt>
      <trkpt lat="44.71656" lon="4.5439">
        <ele>428.5</ele>
        <time>2022-06-09T06:45:53Z</time>
      </trkpt>
      <trkpt lat="44.71657" lon="4.54387">
        <ele>428.6</ele>
        <time>2022-06-09T06:45:54Z</time>
      </trkpt>
      <trkpt lat="44.71658" lon="4.54385">
        <ele>428.6</ele>
        <time>2022-06-09T06:45:55Z</time>
      </trkpt>
      <trkpt lat="44.71658" lon="4.5438">
        <ele>428.9</ele>
        <time>2022-06-09T06:45:56Z</time>
      </trkpt>
      <trkpt lat="44.7166" lon="4.54377">
        <ele>429.1</ele>
        <time>2022-06-09T06:45:58Z</time>
      </trkpt>
      <trkpt lat="44.7166" lon="4.54375">
        <ele>429.2</ele>
        <time>2022-06-09T06:45:59Z</time>
      </trkpt>
      <trkpt lat="44.71662" lon="4.54372">
        <ele>429.3</ele>
        <time>2022-06-09T06:46:00Z</time>
      </trkpt>
      <trkpt lat="44.71662" lon="4.54371">
        <ele>429.4</ele>
        <time>2022-06-09T06:46:01Z</time>
      </trkpt>
      <trkpt lat="44.71663" lon="4.54367">
        <ele>429.6</ele>
        <time>2022-06-09T06:46:02Z</time>
      </trkpt>
      <trkpt lat="44.71663" lon="4.54365">
        <ele>429.6</ele>
        <time>2022-06-09T06:46:03Z</time>
      </trkpt>
      <trkpt lat="44.71664" lon="4.54363">
        <ele>429.7</ele>
        <time>2022-06-09T06:46:04Z</time>
      </trkpt>
      <trkpt lat="44.71665" lon="4.54361">
        <ele>429.8</ele>
        <time>2022-06-09T06:46:05Z</time>
      </trkpt>
      <trkpt lat="44.71665" lon="4.54357">
        <ele>429.9</ele>
        <time>2022-06-09T06:46:06Z</time>
      </trkpt>
      <trkpt lat="44.71667" lon="4.54353">
        <ele>430.1</ele>
        <time>2022-06-09T06:46:08Z</time>
      </trkpt>
      <trkpt lat="44.71668" lon="4.54351">
        <ele>430.2</ele>
        <time>2022-06-09T06:46:09Z</time>
      </trkpt>
      <trkpt lat="44.71668" lon="4.5435">
        <ele>430.2</ele>
        <time>2022-06-09T06:46:10Z</time>
      </trkpt>
      <trkpt lat="44.71669" lon="4.54347">
        <ele>430.3</ele>
        <time>2022-06-09T06:46:11Z</time>
      </trkpt>
      <trkpt lat="44.7167" lon="4.54346">
        <ele>430.3</ele>
        <time>2022-06-09T06:46:12Z</time>
      </trkpt>
      <trkpt lat="44.7167" lon="4.54344">
        <ele>430.4</ele>
        <time>2022-06-09T06:46:13Z</time>
      </trkpt>
      <trkpt lat="44.7167" lon="4.54342">
        <ele>430.4</ele>
        <time>2022-06-09T06:46:14Z</time>
      </trkpt>
      <trkpt lat="44.71671" lon="4.5434">
        <ele>430.5</ele>
        <time>2022-06-09T06:46:15Z</time>
      </trkpt>
      <trkpt lat="44.71671" lon="4.54338">
        <ele>430.5</ele>
        <time>2022-06-09T06:46:16Z</time>
      </trkpt>
      <trkpt lat="44.71672" lon="4.54336">
        <ele>430.6</ele>
        <time>2022-06-09T06:46:17Z</time>
      </trkpt>
      <trkpt lat="44.71672" lon="4.54335">
        <ele>430.6</ele>
        <time>2022-06-09T06:46:18Z</time>
      </trkpt>
      <trkpt lat="44.71673" lon="4.54333">
        <ele>430.7</ele>
        <time>2022-06-09T06:46:19Z</time>
      </trkpt>
      <trkpt lat="44.71674" lon="4.5433">
        <ele>430.8</ele>
        <time>2022-06-09T06:46:20Z</time>
      </trkpt>
      <trkpt lat="44.71675" lon="4.54329">
        <ele>430.8</ele>
        <time>2022-06-09T06:46:21Z</time>
      </trkpt>
      <trkpt lat="44.71675" lon="4.54328">
        <ele>430.8</ele>
        <time>2022-06-09T06:46:22Z</time>
      </trkpt>
      <trkpt lat="44.71676" lon="4.54327">
        <ele>430.9</ele>
        <time>2022-06-09T06:46:23Z</time>
      </trkpt>
      <trkpt lat="44.71677" lon="4.54325">
        <ele>431</ele>
        <time>2022-06-09T06:46:24Z</time>
      </trkpt>
      <trkpt lat="44.71678" lon="4.54323">
        <ele>431.1</ele>
        <time>2022-06-09T06:46:25Z</time>
      </trkpt>
      <trkpt lat="44.71678" lon="4.54321">
        <ele>431.1</ele>
        <time>2022-06-09T06:46:26Z</time>
      </trkpt>
      <trkpt lat="44.71679" lon="4.54318">
        <ele>431.3</ele>
        <time>2022-06-09T06:46:27Z</time>
      </trkpt>
      <trkpt lat="44.7168" lon="4.54317">
        <ele>431.3</ele>
        <time>2022-06-09T06:46:28Z</time>
      </trkpt>
      <trkpt lat="44.7168" lon="4.54316">
        <ele>431.4</ele>
        <time>2022-06-09T06:46:29Z</time>
      </trkpt>
      <trkpt lat="44.71682" lon="4.54314">
        <ele>431.5</ele>
        <time>2022-06-09T06:46:30Z</time>
      </trkpt>
      <trkpt lat="44.71682" lon="4.54313">
        <ele>431.5</ele>
        <time>2022-06-09T06:46:31Z</time>
      </trkpt>
      <trkpt lat="44.71683" lon="4.54312">
        <ele>431.6</ele>
        <time>2022-06-09T06:46:32Z</time>
      </trkpt>
      <trkpt lat="44.71684" lon="4.54311">
        <ele>431.7</ele>
        <time>2022-06-09T06:46:33Z</time>
      </trkpt>
      <trkpt lat="44.71685" lon="4.54309">
        <ele>431.8</ele>
        <time>2022-06-09T06:46:34Z</time>
      </trkpt>
      <trkpt lat="44.71686" lon="4.54309">
        <ele>431.9</ele>
        <time>2022-06-09T06:46:35Z</time>
      </trkpt>
      <trkpt lat="44.71687" lon="4.54307">
        <ele>432</ele>
        <time>2022-06-09T06:46:36Z</time>
      </trkpt>
      <trkpt lat="44.71688" lon="4.54306">
        <ele>432.1</ele>
        <time>2022-06-09T06:46:37Z</time>
      </trkpt>
      <trkpt lat="44.71689" lon="4.54305">
        <ele>432.2</ele>
        <time>2022-06-09T06:46:38Z</time>
      </trkpt>
      <trkpt lat="44.71691" lon="4.54303">
        <ele>432.3</ele>
        <time>2022-06-09T06:46:39Z</time>
      </trkpt>
      <trkpt lat="44.71692" lon="4.54302">
        <ele>432.4</ele>
        <time>2022-06-09T06:46:40Z</time>
      </trkpt>
      <trkpt lat="44.71693" lon="4.54301">
        <ele>432.5</ele>
        <time>2022-06-09T06:46:41Z</time>
      </trkpt>
      <trkpt lat="44.71694" lon="4.54299">
        <ele>432.6</ele>
        <time>2022-06-09T06:46:42Z</time>
      </trkpt>
      <trkpt lat="44.71695" lon="4.54298">
        <ele>432.7</ele>
        <time>2022-06-09T06:46:43Z</time>
      </trkpt>
      <trkpt lat="44.71696" lon="4.54296">
        <ele>432.9</ele>
        <time>2022-06-09T06:46:44Z</time>
      </trkpt>
      <trkpt lat="44.71698" lon="4.54295">
        <ele>433</ele>
        <time>2022-06-09T06:46:45Z</time>
      </trkpt>
      <trkpt lat="44.71699" lon="4.54293">
        <ele>433.1</ele>
        <time>2022-06-09T06:46:46Z</time>
      </trkpt>
      <trkpt lat="44.71701" lon="4.54291">
        <ele>433.3</ele>
        <time>2022-06-09T06:46:47Z</time>
      </trkpt>
      <trkpt lat="44.71702" lon="4.5429">
        <ele>433.4</ele>
        <time>2022-06-09T06:46:48Z</time>
      </trkpt>
      <trkpt lat="44.71703" lon="4.54289">
        <ele>433.6</ele>
        <time>2022-06-09T06:46:49Z</time>
      </trkpt>
      <trkpt lat="44.71704" lon="4.54287">
        <ele>433.7</ele>
        <time>2022-06-09T06:46:50Z</time>
      </trkpt>
      <trkpt lat="44.71706" lon="4.54286">
        <ele>433.9</ele>
        <time>2022-06-09T06:46:51Z</time>
      </trkpt>
      <trkpt lat="44.71707" lon="4.54284">
        <ele>434</ele>
        <time>2022-06-09T06:46:52Z</time>
      </trkpt>
      <trkpt lat="44.71708" lon="4.54283">
        <ele>434.2</ele>
        <time>2022-06-09T06:46:53Z</time>
      </trkpt>
      <trkpt lat="44.71709" lon="4.54282">
        <ele>434.3</ele>
        <time>2022-06-09T06:46:54Z</time>
      </trkpt>
      <trkpt lat="44.71711" lon="4.5428">
        <ele>434.5</ele>
        <time>2022-06-09T06:46:55Z</time>
      </trkpt>
      <trkpt lat="44.71712" lon="4.54278">
        <ele>434.6</ele>
        <time>2022-06-09T06:46:56Z</time>
      </trkpt>
      <trkpt lat="44.71713" lon="4.54277">
        <ele>434.7</ele>
        <time>2022-06-09T06:46:57Z</time>
      </trkpt>
      <trkpt lat="44.71714" lon="4.54275">
        <ele>434.9</ele>
        <time>2022-06-09T06:46:58Z</time>
      </trkpt>
      <trkpt lat="44.71715" lon="4.54273">
        <ele>435</ele>
        <time>2022-06-09T06:46:59Z</time>
      </trkpt>
      <trkpt lat="44.71716" lon="4.54271">
        <ele>435.2</ele>
        <time>2022-06-09T06:47:00Z</time>
      </trkpt>
      <trkpt lat="44.71717" lon="4.5427">
        <ele>435.3</ele>
        <time>2022-06-09T06:47:01Z</time>
      </trkpt>
      <trkpt lat="44.71718" lon="4.54268">
        <ele>435.5</ele>
        <time>2022-06-09T06:47:02Z</time>
      </trkpt>
      <trkpt lat="44.71719" lon="4.54266">
        <ele>435.6</ele>
        <time>2022-06-09T06:47:03Z</time>
      </trkpt>
      <trkpt lat="44.7172" lon="4.54264">
        <ele>435.8</ele>
        <time>2022-06-09T06:47:04Z</time>
      </trkpt>
      <trkpt lat="44.7172" lon="4.54262">
        <ele>435.9</ele>
        <time>2022-06-09T06:47:05Z</time>
      </trkpt>
      <trkpt lat="44.71721" lon="4.5426">
        <ele>436</ele>
        <time>2022-06-09T06:47:06Z</time>
      </trkpt>
      <trkpt lat="44.71721" lon="4.54258">
        <ele>436.2</ele>
        <time>2022-06-09T06:47:07Z</time>
      </trkpt>
      <trkpt lat="44.71722" lon="4.54256">
        <ele>436.3</ele>
        <time>2022-06-09T06:47:08Z</time>
      </trkpt>
      <trkpt lat="44.71722" lon="4.54254">
        <ele>436.5</ele>
        <time>2022-06-09T06:47:09Z</time>
      </trkpt>
      <trkpt lat="44.71722" lon="4.54251">
        <ele>436.6</ele>
        <time>2022-06-09T06:47:10Z</time>
      </trkpt>
      <trkpt lat="44.71722" lon="4.54249">
        <ele>436.7</ele>
        <time>2022-06-09T06:47:11Z</time>
      </trkpt>
      <trkpt lat="44.71721" lon="4.54247">
        <ele>436.9</ele>
        <time>2022-06-09T06:47:12Z</time>
      </trkpt>
      <trkpt lat="44.71721" lon="4.54245">
        <ele>437</ele>
        <time>2022-06-09T06:47:13Z</time>
      </trkpt>
      <trkpt lat="44.71721" lon="4.54242">
        <ele>437.2</ele>
        <time>2022-06-09T06:47:14Z</time>
      </trkpt>
      <trkpt lat="44.71721" lon="4.5424">
        <ele>437.3</ele>
        <time>2022-06-09T06:47:15Z</time>
      </trkpt>
      <trkpt lat="44.71721" lon="4.54238">
        <ele>437.4</ele>
        <time>2022-06-09T06:47:16Z</time>
      </trkpt>
      <trkpt lat="44.71721" lon="4.54236">
        <ele>437.6</ele>
        <time>2022-06-09T06:47:17Z</time>
      </trkpt>
      <trkpt lat="44.71721" lon="4.54234">
        <ele>437.7</ele>
        <time>2022-06-09T06:47:18Z</time>
      </trkpt>
      <trkpt lat="44.7172" lon="4.54232">
        <ele>437.8</ele>
        <time>2022-06-09T06:47:19Z</time>
      </trkpt>
      <trkpt lat="44.7172" lon="4.5423">
        <ele>438</ele>
        <time>2022-06-09T06:47:20Z</time>
      </trkpt>
      <trkpt lat="44.7172" lon="4.54227">
        <ele>438.1</ele>
        <time>2022-06-09T06:47:21Z</time>
      </trkpt>
      <trkpt lat="44.7172" lon="4.54225">
        <ele>438.2</ele>
        <time>2022-06-09T06:47:22Z</time>
      </trkpt>
      <trkpt lat="44.7172" lon="4.54221">
        <ele>438.5</ele>
        <time>2022-06-09T06:47:23Z</time>
      </trkpt>
      <trkpt lat="44.7172" lon="4.5422">
        <ele>438.5</ele>
        <time>2022-06-09T06:47:24Z</time>
      </trkpt>
      <trkpt lat="44.7172" lon="4.54218">
        <ele>438.7</ele>
        <time>2022-06-09T06:47:25Z</time>
      </trkpt>
      <trkpt lat="44.71721" lon="4.54215">
        <ele>438.8</ele>
        <time>2022-06-09T06:47:26Z</time>
      </trkpt>
      <trkpt lat="44.71721" lon="4.54213">
        <ele>439</ele>
        <time>2022-06-09T06:47:27Z</time>
      </trkpt>
      <trkpt lat="44.71722" lon="4.54211">
        <ele>439.1</ele>
        <time>2022-06-09T06:47:28Z</time>
      </trkpt>
      <trkpt lat="44.71722" lon="4.54209">
        <ele>439.2</ele>
        <time>2022-06-09T06:47:29Z</time>
      </trkpt>
      <trkpt lat="44.71722" lon="4.54207">
        <ele>439.3</ele>
        <time>2022-06-09T06:47:30Z</time>
      </trkpt>
      <trkpt lat="44.71723" lon="4.54205">
        <ele>439.5</ele>
        <time>2022-06-09T06:47:31Z</time>
      </trkpt>
      <trkpt lat="44.71724" lon="4.54203">
        <ele>439.6</ele>
        <time>2022-06-09T06:47:32Z</time>
      </trkpt>
      <trkpt lat="44.71724" lon="4.54201">
        <ele>439.7</ele>
        <time>2022-06-09T06:47:33Z</time>
      </trkpt>
      <trkpt lat="44.71725" lon="4.542">
        <ele>439.8</ele>
        <time>2022-06-09T06:47:34Z</time>
      </trkpt>
      <trkpt lat="44.71725" lon="4.54198">
        <ele>439.9</ele>
        <time>2022-06-09T06:47:35Z</time>
      </trkpt>
      <trkpt lat="44.71726" lon="4.54196">
        <ele>440</ele>
        <time>2022-06-09T06:47:36Z</time>
      </trkpt>
      <trkpt lat="44.71726" lon="4.54195">
        <ele>440.1</ele>
        <time>2022-06-09T06:47:37Z</time>
      </trkpt>
      <trkpt lat="44.71727" lon="4.54193">
        <ele>440.2</ele>
        <time>2022-06-09T06:47:38Z</time>
      </trkpt>
      <trkpt lat="44.71728" lon="4.54192">
        <ele>440.3</ele>
        <time>2022-06-09T06:47:39Z</time>
      </trkpt>
      <trkpt lat="44.71729" lon="4.5419">
        <ele>440.4</ele>
        <time>2022-06-09T06:47:40Z</time>
      </trkpt>
      <trkpt lat="44.7173" lon="4.54189">
        <ele>440.5</ele>
        <time>2022-06-09T06:47:41Z</time>
      </trkpt>
      <trkpt lat="44.71731" lon="4.54187">
        <ele>440.6</ele>
        <time>2022-06-09T06:47:42Z</time>
      </trkpt>
      <trkpt lat="44.71732" lon="4.54186">
        <ele>440.8</ele>
        <time>2022-06-09T06:47:43Z</time>
      </trkpt>
      <trkpt lat="44.71733" lon="4.54184">
        <ele>440.9</ele>
        <time>2022-06-09T06:47:44Z</time>
      </trkpt>
      <trkpt lat="44.71734" lon="4.54181">
        <ele>441</ele>
        <time>2022-06-09T06:47:45Z</time>
      </trkpt>
      <trkpt lat="44.71735" lon="4.5418">
        <ele>441.1</ele>
        <time>2022-06-09T06:47:46Z</time>
      </trkpt>
      <trkpt lat="44.71736" lon="4.54177">
        <ele>441.3</ele>
        <time>2022-06-09T06:47:47Z</time>
      </trkpt>
      <trkpt lat="44.71737" lon="4.54175">
        <ele>441.4</ele>
        <time>2022-06-09T06:47:48Z</time>
      </trkpt>
      <trkpt lat="44.71737" lon="4.54174">
        <ele>441.5</ele>
        <time>2022-06-09T06:47:49Z</time>
      </trkpt>
      <trkpt lat="44.71738" lon="4.54172">
        <ele>441.6</ele>
        <time>2022-06-09T06:47:50Z</time>
      </trkpt>
      <trkpt lat="44.71739" lon="4.54171">
        <ele>441.7</ele>
        <time>2022-06-09T06:47:51Z</time>
      </trkpt>
      <trkpt lat="44.71739" lon="4.54169">
        <ele>441.8</ele>
        <time>2022-06-09T06:47:52Z</time>
      </trkpt>
      <trkpt lat="44.71739" lon="4.54167">
        <ele>441.9</ele>
        <time>2022-06-09T06:47:53Z</time>
      </trkpt>
      <trkpt lat="44.7174" lon="4.54165">
        <ele>442</ele>
        <time>2022-06-09T06:47:54Z</time>
      </trkpt>
      <trkpt lat="44.71741" lon="4.54163">
        <ele>442.2</ele>
        <time>2022-06-09T06:47:55Z</time>
      </trkpt>
      <trkpt lat="44.71741" lon="4.54161">
        <ele>442.3</ele>
        <time>2022-06-09T06:47:56Z</time>
      </trkpt>
      <trkpt lat="44.71741" lon="4.54159">
        <ele>442.4</ele>
        <time>2022-06-09T06:47:57Z</time>
      </trkpt>
      <trkpt lat="44.71742" lon="4.54157">
        <ele>442.5</ele>
        <time>2022-06-09T06:47:58Z</time>
      </trkpt>
      <trkpt lat="44.71743" lon="4.54154">
        <ele>442.7</ele>
        <time>2022-06-09T06:47:59Z</time>
      </trkpt>
      <trkpt lat="44.71743" lon="4.54153">
        <ele>442.8</ele>
        <time>2022-06-09T06:48:00Z</time>
      </trkpt>
      <trkpt lat="44.71743" lon="4.54151">
        <ele>442.9</ele>
        <time>2022-06-09T06:48:01Z</time>
      </trkpt>
      <trkpt lat="44.71744" lon="4.54149">
        <ele>443</ele>
        <time>2022-06-09T06:48:02Z</time>
      </trkpt>
      <trkpt lat="44.71745" lon="4.54147">
        <ele>443.2</ele>
        <time>2022-06-09T06:48:03Z</time>
      </trkpt>
      <trkpt lat="44.71745" lon="4.54143">
        <ele>443.4</ele>
        <time>2022-06-09T06:48:04Z</time>
      </trkpt>
      <trkpt lat="44.71746" lon="4.54139">
        <ele>443.7</ele>
        <time>2022-06-09T06:48:06Z</time>
      </trkpt>
      <trkpt lat="44.71746" lon="4.54138">
        <ele>443.8</ele>
        <time>2022-06-09T06:48:07Z</time>
      </trkpt>
      <trkpt lat="44.71747" lon="4.54135">
        <ele>443.9</ele>
        <time>2022-06-09T06:48:08Z</time>
      </trkpt>
      <trkpt lat="44.71747" lon="4.54134">
        <ele>444.1</ele>
        <time>2022-06-09T06:48:09Z</time>
      </trkpt>
      <trkpt lat="44.71748" lon="4.54131">
        <ele>444.3</ele>
        <time>2022-06-09T06:48:10Z</time>
      </trkpt>
      <trkpt lat="44.71748" lon="4.54129">
        <ele>444.4</ele>
        <time>2022-06-09T06:48:11Z</time>
      </trkpt>
      <trkpt lat="44.71749" lon="4.54127">
        <ele>444.6</ele>
        <time>2022-06-09T06:48:12Z</time>
      </trkpt>
      <trkpt lat="44.7175" lon="4.54125">
        <ele>444.7</ele>
        <time>2022-06-09T06:48:13Z</time>
      </trkpt>
      <trkpt lat="44.7175" lon="4.54123">
        <ele>444.8</ele>
        <time>2022-06-09T06:48:14Z</time>
      </trkpt>
      <trkpt lat="44.7175" lon="4.54121">
        <ele>445</ele>
        <time>2022-06-09T06:48:15Z</time>
      </trkpt>
      <trkpt lat="44.7175" lon="4.54119">
        <ele>445.1</ele>
        <time>2022-06-09T06:48:16Z</time>
      </trkpt>
      <trkpt lat="44.71751" lon="4.54117">
        <ele>445.2</ele>
        <time>2022-06-09T06:48:17Z</time>
      </trkpt>
      <trkpt lat="44.71752" lon="4.54114">
        <ele>445.5</ele>
        <time>2022-06-09T06:48:18Z</time>
      </trkpt>
      <trkpt lat="44.71753" lon="4.54113">
        <ele>445.6</ele>
        <time>2022-06-09T06:48:19Z</time>
      </trkpt>
      <trkpt lat="44.71753" lon="4.54112">
        <ele>445.7</ele>
        <time>2022-06-09T06:48:20Z</time>
      </trkpt>
      <trkpt lat="44.71753" lon="4.5411">
        <ele>445.8</ele>
        <time>2022-06-09T06:48:21Z</time>
      </trkpt>
      <trkpt lat="44.71753" lon="4.54108">
        <ele>446</ele>
        <time>2022-06-09T06:48:22Z</time>
      </trkpt>
      <trkpt lat="44.71753" lon="4.54105">
        <ele>446.1</ele>
        <time>2022-06-09T06:48:23Z</time>
      </trkpt>
      <trkpt lat="44.71753" lon="4.54103">
        <ele>446.3</ele>
        <time>2022-06-09T06:48:24Z</time>
      </trkpt>
      <trkpt lat="44.71753" lon="4.54101">
        <ele>446.4</ele>
        <time>2022-06-09T06:48:25Z</time>
      </trkpt>
      <trkpt lat="44.71754" lon="4.54099">
        <ele>446.6</ele>
        <time>2022-06-09T06:48:26Z</time>
      </trkpt>
      <trkpt lat="44.71754" lon="4.54097">
        <ele>446.7</ele>
        <time>2022-06-09T06:48:27Z</time>
      </trkpt>
      <trkpt lat="44.71754" lon="4.54095">
        <ele>446.9</ele>
        <time>2022-06-09T06:48:28Z</time>
      </trkpt>
      <trkpt lat="44.71754" lon="4.54092">
        <ele>447.1</ele>
        <time>2022-06-09T06:48:29Z</time>
      </trkpt>
      <trkpt lat="44.71754" lon="4.5409">
        <ele>447.2</ele>
        <time>2022-06-09T06:48:30Z</time>
      </trkpt>
      <trkpt lat="44.71753" lon="4.54088">
        <ele>447.4</ele>
        <time>2022-06-09T06:48:31Z</time>
      </trkpt>
      <trkpt lat="44.71753" lon="4.54085">
        <ele>447.5</ele>
        <time>2022-06-09T06:48:32Z</time>
      </trkpt>
      <trkpt lat="44.71751" lon="4.54082">
        <ele>447.8</ele>
        <time>2022-06-09T06:48:33Z</time>
      </trkpt>
      <trkpt lat="44.7175" lon="4.54081">
        <ele>447.9</ele>
        <time>2022-06-09T06:48:34Z</time>
      </trkpt>
      <trkpt lat="44.7175" lon="4.54078">
        <ele>448.1</ele>
        <time>2022-06-09T06:48:35Z</time>
      </trkpt>
      <trkpt lat="44.71749" lon="4.54076">
        <ele>448.2</ele>
        <time>2022-06-09T06:48:36Z</time>
      </trkpt>
      <trkpt lat="44.71749" lon="4.54074">
        <ele>448.4</ele>
        <time>2022-06-09T06:48:37Z</time>
      </trkpt>
      <trkpt lat="44.71748" lon="4.54072">
        <ele>448.5</ele>
        <time>2022-06-09T06:48:38Z</time>
      </trkpt>
      <trkpt lat="44.71747" lon="4.5407">
        <ele>448.7</ele>
        <time>2022-06-09T06:48:39Z</time>
      </trkpt>
      <trkpt lat="44.71746" lon="4.54068">
        <ele>448.8</ele>
        <time>2022-06-09T06:48:40Z</time>
      </trkpt>
      <trkpt lat="44.71746" lon="4.54066">
        <ele>449</ele>
        <time>2022-06-09T06:48:41Z</time>
      </trkpt>
      <trkpt lat="44.71745" lon="4.54064">
        <ele>449.1</ele>
        <time>2022-06-09T06:48:42Z</time>
      </trkpt>
      <trkpt lat="44.71744" lon="4.54062">
        <ele>449.3</ele>
        <time>2022-06-09T06:48:43Z</time>
      </trkpt>
      <trkpt lat="44.71743" lon="4.5406">
        <ele>449.4</ele>
        <time>2022-06-09T06:48:44Z</time>
      </trkpt>
      <trkpt lat="44.71742" lon="4.54059">
        <ele>449.5</ele>
        <time>2022-06-09T06:48:45Z</time>
      </trkpt>
      <trkpt lat="44.71741" lon="4.54057">
        <ele>449.7</ele>
        <time>2022-06-09T06:48:46Z</time>
      </trkpt>
      <trkpt lat="44.7174" lon="4.54055">
        <ele>449.9</ele>
        <time>2022-06-09T06:48:47Z</time>
      </trkpt>
      <trkpt lat="44.71738" lon="4.54051">
        <ele>450.2</ele>
        <time>2022-06-09T06:48:48Z</time>
      </trkpt>
      <trkpt lat="44.71737" lon="4.54049">
        <ele>450.4</ele>
        <time>2022-06-09T06:48:50Z</time>
      </trkpt>
      <trkpt lat="44.71736" lon="4.54047">
        <ele>450.5</ele>
        <time>2022-06-09T06:48:51Z</time>
      </trkpt>
      <trkpt lat="44.71735" lon="4.54046">
        <ele>450.7</ele>
        <time>2022-06-09T06:48:52Z</time>
      </trkpt>
      <trkpt lat="44.71734" lon="4.54044">
        <ele>450.9</ele>
        <time>2022-06-09T06:48:53Z</time>
      </trkpt>
      <trkpt lat="44.71732" lon="4.54043">
        <ele>451</ele>
        <time>2022-06-09T06:48:54Z</time>
      </trkpt>
      <trkpt lat="44.71731" lon="4.54042">
        <ele>451.2</ele>
        <time>2022-06-09T06:48:55Z</time>
      </trkpt>
      <trkpt lat="44.71729" lon="4.54041">
        <ele>451.4</ele>
        <time>2022-06-09T06:48:56Z</time>
      </trkpt>
      <trkpt lat="44.71727" lon="4.5404">
        <ele>451.6</ele>
        <time>2022-06-09T06:48:57Z</time>
      </trkpt>
      <trkpt lat="44.71726" lon="4.5404">
        <ele>451.7</ele>
        <time>2022-06-09T06:48:58Z</time>
      </trkpt>
      <trkpt lat="44.71724" lon="4.54039">
        <ele>451.9</ele>
        <time>2022-06-09T06:48:59Z</time>
      </trkpt>
      <trkpt lat="44.71722" lon="4.54038">
        <ele>452.1</ele>
        <time>2022-06-09T06:49:00Z</time>
      </trkpt>
      <trkpt lat="44.71721" lon="4.54037">
        <ele>452.2</ele>
        <time>2022-06-09T06:49:01Z</time>
      </trkpt>
      <trkpt lat="44.71718" lon="4.54037">
        <ele>452.5</ele>
        <time>2022-06-09T06:49:02Z</time>
      </trkpt>
      <trkpt lat="44.71715" lon="4.54036">
        <ele>452.7</ele>
        <time>2022-06-09T06:49:04Z</time>
      </trkpt>
      <trkpt lat="44.71714" lon="4.54035">
        <ele>452.8</ele>
        <time>2022-06-09T06:49:05Z</time>
      </trkpt>
      <trkpt lat="44.71714" lon="4.54034">
        <ele>452.9</ele>
        <time>2022-06-09T06:49:06Z</time>
      </trkpt>
      <trkpt lat="44.71713" lon="4.54033">
        <ele>453</ele>
        <time>2022-06-09T06:49:07Z</time>
      </trkpt>
      <trkpt lat="44.71711" lon="4.54033">
        <ele>453.2</ele>
        <time>2022-06-09T06:49:08Z</time>
      </trkpt>
      <trkpt lat="44.7171" lon="4.54033">
        <ele>453.2</ele>
        <time>2022-06-09T06:49:09Z</time>
      </trkpt>
      <trkpt lat="44.71709" lon="4.54033">
        <ele>453.3</ele>
        <time>2022-06-09T06:49:10Z</time>
      </trkpt>
      <trkpt lat="44.71707" lon="4.54033">
        <ele>453.4</ele>
        <time>2022-06-09T06:49:11Z</time>
      </trkpt>
      <trkpt lat="44.71706" lon="4.54034">
        <ele>453.6</ele>
        <time>2022-06-09T06:49:12Z</time>
      </trkpt>
      <trkpt lat="44.71704" lon="4.54038">
        <ele>453.8</ele>
        <time>2022-06-09T06:49:13Z</time>
      </trkpt>
      <trkpt lat="44.71701" lon="4.54039">
        <ele>454.1</ele>
        <time>2022-06-09T06:49:14Z</time>
      </trkpt>
      <trkpt lat="44.71698" lon="4.54044">
        <ele>454.5</ele>
        <time>2022-06-09T06:49:17Z</time>
      </trkpt>
      <trkpt lat="44.71697" lon="4.54045">
        <ele>454.6</ele>
        <time>2022-06-09T06:49:18Z</time>
      </trkpt>
      <trkpt lat="44.71696" lon="4.54046">
        <ele>454.7</ele>
        <time>2022-06-09T06:49:19Z</time>
      </trkpt>
      <trkpt lat="44.71695" lon="4.54048">
        <ele>454.8</ele>
        <time>2022-06-09T06:49:20Z</time>
      </trkpt>
      <trkpt lat="44.71693" lon="4.54052">
        <ele>455.2</ele>
        <time>2022-06-09T06:49:22Z</time>
      </trkpt>
      <trkpt lat="44.71692" lon="4.54055">
        <ele>455.4</ele>
        <time>2022-06-09T06:49:23Z</time>
      </trkpt>
      <trkpt lat="44.7169" lon="4.54058">
        <ele>455.7</ele>
        <time>2022-06-09T06:49:25Z</time>
      </trkpt>
      <trkpt lat="44.71688" lon="4.54061">
        <ele>455.9</ele>
        <time>2022-06-09T06:49:26Z</time>
      </trkpt>
      <trkpt lat="44.71687" lon="4.54062">
        <ele>456.1</ele>
        <time>2022-06-09T06:49:27Z</time>
      </trkpt>
      <trkpt lat="44.71685" lon="4.54064">
        <ele>456.4</ele>
        <time>2022-06-09T06:49:29Z</time>
      </trkpt>
      <trkpt lat="44.71684" lon="4.54066">
        <ele>456.6</ele>
        <time>2022-06-09T06:49:30Z</time>
      </trkpt>
      <trkpt lat="44.71683" lon="4.54068">
        <ele>456.8</ele>
        <time>2022-06-09T06:49:31Z</time>
      </trkpt>
      <trkpt lat="44.71681" lon="4.54069">
        <ele>457</ele>
        <time>2022-06-09T06:49:32Z</time>
      </trkpt>
      <trkpt lat="44.7168" lon="4.5407">
        <ele>457.2</ele>
        <time>2022-06-09T06:49:33Z</time>
      </trkpt>
      <trkpt lat="44.71677" lon="4.54073">
        <ele>457.6</ele>
        <time>2022-06-09T06:49:34Z</time>
      </trkpt>
      <trkpt lat="44.71675" lon="4.54074">
        <ele>457.8</ele>
        <time>2022-06-09T06:49:36Z</time>
      </trkpt>
      <trkpt lat="44.71674" lon="4.54075">
        <ele>458</ele>
        <time>2022-06-09T06:49:37Z</time>
      </trkpt>
      <trkpt lat="44.71673" lon="4.54075">
        <ele>458.1</ele>
        <time>2022-06-09T06:49:38Z</time>
      </trkpt>
      <trkpt lat="44.71672" lon="4.54077">
        <ele>458.2</ele>
        <time>2022-06-09T06:49:39Z</time>
      </trkpt>
      <trkpt lat="44.71671" lon="4.54077">
        <ele>458.4</ele>
        <time>2022-06-09T06:49:40Z</time>
      </trkpt>
      <trkpt lat="44.71669" lon="4.54078">
        <ele>458.6</ele>
        <time>2022-06-09T06:49:41Z</time>
      </trkpt>
      <trkpt lat="44.71668" lon="4.54079">
        <ele>458.8</ele>
        <time>2022-06-09T06:49:42Z</time>
      </trkpt>
      <trkpt lat="44.71666" lon="4.54079">
        <ele>459</ele>
        <time>2022-06-09T06:49:43Z</time>
      </trkpt>
      <trkpt lat="44.71665" lon="4.54078">
        <ele>459.1</ele>
        <time>2022-06-09T06:49:44Z</time>
      </trkpt>
      <trkpt lat="44.71664" lon="4.54078">
        <ele>459.2</ele>
        <time>2022-06-09T06:49:45Z</time>
      </trkpt>
      <trkpt lat="44.71662" lon="4.54077">
        <ele>459.4</ele>
        <time>2022-06-09T06:49:46Z</time>
      </trkpt>
      <trkpt lat="44.71661" lon="4.54076">
        <ele>459.5</ele>
        <time>2022-06-09T06:49:47Z</time>
      </trkpt>
      <trkpt lat="44.7166" lon="4.54075">
        <ele>459.6</ele>
        <time>2022-06-09T06:49:48Z</time>
      </trkpt>
      <trkpt lat="44.71659" lon="4.54073">
        <ele>459.7</ele>
        <time>2022-06-09T06:49:49Z</time>
      </trkpt>
      <trkpt lat="44.71658" lon="4.5407">
        <ele>459.8</ele>
        <time>2022-06-09T06:49:50Z</time>
      </trkpt>
      <trkpt lat="44.71658" lon="4.54069">
        <ele>459.9</ele>
        <time>2022-06-09T06:49:51Z</time>
      </trkpt>
      <trkpt lat="44.71658" lon="4.54068">
        <ele>459.9</ele>
        <time>2022-06-09T06:49:52Z</time>
      </trkpt>
      <trkpt lat="44.71658" lon="4.54066">
        <ele>460</ele>
        <time>2022-06-09T06:49:53Z</time>
      </trkpt>
      <trkpt lat="44.71657" lon="4.54065">
        <ele>460</ele>
        <time>2022-06-09T06:49:54Z</time>
      </trkpt>
      <trkpt lat="44.71657" lon="4.54064">
        <ele>460</ele>
        <time>2022-06-09T06:49:55Z</time>
      </trkpt>
      <trkpt lat="44.71657" lon="4.54062">
        <ele>460.1</ele>
        <time>2022-06-09T06:49:56Z</time>
      </trkpt>
      <trkpt lat="44.71656" lon="4.5406">
        <ele>460.1</ele>
        <time>2022-06-09T06:49:57Z</time>
      </trkpt>
      <trkpt lat="44.71657" lon="4.54057">
        <ele>460.2</ele>
        <time>2022-06-09T06:49:58Z</time>
      </trkpt>
      <trkpt lat="44.71657" lon="4.54056">
        <ele>460.2</ele>
        <time>2022-06-09T06:49:59Z</time>
      </trkpt>
      <trkpt lat="44.71658" lon="4.54055">
        <ele>460.2</ele>
        <time>2022-06-09T06:50:00Z</time>
      </trkpt>
      <trkpt lat="44.71658" lon="4.54053">
        <ele>460.2</ele>
        <time>2022-06-09T06:50:01Z</time>
      </trkpt>
      <trkpt lat="44.71659" lon="4.54051">
        <ele>460.3</ele>
        <time>2022-06-09T06:50:02Z</time>
      </trkpt>
      <trkpt lat="44.71659" lon="4.54049">
        <ele>460.3</ele>
        <time>2022-06-09T06:50:03Z</time>
      </trkpt>
      <trkpt lat="44.71659" lon="4.54047">
        <ele>460.3</ele>
        <time>2022-06-09T06:50:04Z</time>
      </trkpt>
      <trkpt lat="44.71659" lon="4.54044">
        <ele>460.3</ele>
        <time>2022-06-09T06:50:05Z</time>
      </trkpt>
      <trkpt lat="44.7166" lon="4.54042">
        <ele>460.3</ele>
        <time>2022-06-09T06:50:06Z</time>
      </trkpt>
      <trkpt lat="44.71662" lon="4.54037">
        <ele>460.4</ele>
        <time>2022-06-09T06:50:08Z</time>
      </trkpt>
      <trkpt lat="44.71662" lon="4.54036">
        <ele>460.4</ele>
        <time>2022-06-09T06:50:09Z</time>
      </trkpt>
      <trkpt lat="44.71662" lon="4.54031">
        <ele>460.4</ele>
        <time>2022-06-09T06:50:11Z</time>
      </trkpt>
      <trkpt lat="44.71662" lon="4.5403">
        <ele>460.4</ele>
        <time>2022-06-09T06:50:12Z</time>
      </trkpt>
      <trkpt lat="44.71662" lon="4.54027">
        <ele>460.5</ele>
        <time>2022-06-09T06:50:13Z</time>
      </trkpt>
      <trkpt lat="44.71663" lon="4.54025">
        <ele>460.5</ele>
        <time>2022-06-09T06:50:14Z</time>
      </trkpt>
      <trkpt lat="44.71663" lon="4.54021">
        <ele>460.6</ele>
        <time>2022-06-09T06:50:15Z</time>
      </trkpt>
      <trkpt lat="44.71663" lon="4.54019">
        <ele>460.6</ele>
        <time>2022-06-09T06:50:16Z</time>
      </trkpt>
      <trkpt lat="44.71663" lon="4.54017">
        <ele>460.7</ele>
        <time>2022-06-09T06:50:17Z</time>
      </trkpt>
      <trkpt lat="44.71663" lon="4.54014">
        <ele>460.7</ele>
        <time>2022-06-09T06:50:19Z</time>
      </trkpt>
      <trkpt lat="44.71663" lon="4.5401">
        <ele>460.8</ele>
        <time>2022-06-09T06:50:21Z</time>
      </trkpt>
      <trkpt lat="44.71663" lon="4.54008">
        <ele>460.9</ele>
        <time>2022-06-09T06:50:22Z</time>
      </trkpt>
      <trkpt lat="44.71663" lon="4.54006">
        <ele>461</ele>
        <time>2022-06-09T06:50:23Z</time>
      </trkpt>
      <trkpt lat="44.71663" lon="4.54004">
        <ele>461</ele>
        <time>2022-06-09T06:50:24Z</time>
      </trkpt>
      <trkpt lat="44.71663" lon="4.54002">
        <ele>461.1</ele>
        <time>2022-06-09T06:50:25Z</time>
      </trkpt>
      <trkpt lat="44.71663" lon="4.54">
        <ele>461.2</ele>
        <time>2022-06-09T06:50:26Z</time>
      </trkpt>
      <trkpt lat="44.71664" lon="4.53998">
        <ele>461.3</ele>
        <time>2022-06-09T06:50:27Z</time>
      </trkpt>
      <trkpt lat="44.71664" lon="4.53996">
        <ele>461.3</ele>
        <time>2022-06-09T06:50:28Z</time>
      </trkpt>
      <trkpt lat="44.71664" lon="4.53994">
        <ele>461.4</ele>
        <time>2022-06-09T06:50:29Z</time>
      </trkpt>
      <trkpt lat="44.71664" lon="4.53992">
        <ele>461.5</ele>
        <time>2022-06-09T06:50:30Z</time>
      </trkpt>
      <trkpt lat="44.71664" lon="4.53989">
        <ele>461.6</ele>
        <time>2022-06-09T06:50:31Z</time>
      </trkpt>
      <trkpt lat="44.71664" lon="4.53988">
        <ele>461.7</ele>
        <time>2022-06-09T06:50:32Z</time>
      </trkpt>
      <trkpt lat="44.71665" lon="4.53984">
        <ele>462</ele>
        <time>2022-06-09T06:50:34Z</time>
      </trkpt>
      <trkpt lat="44.71665" lon="4.53981">
        <ele>462.1</ele>
        <time>2022-06-09T06:50:35Z</time>
      </trkpt>
      <trkpt lat="44.71666" lon="4.53977">
        <ele>462.3</ele>
        <time>2022-06-09T06:50:36Z</time>
      </trkpt>
      <trkpt lat="44.71666" lon="4.53975">
        <ele>462.5</ele>
        <time>2022-06-09T06:50:37Z</time>
      </trkpt>
      <trkpt lat="44.71666" lon="4.53973">
        <ele>462.6</ele>
        <time>2022-06-09T06:50:39Z</time>
      </trkpt>
      <trkpt lat="44.71667" lon="4.53971">
        <ele>462.7</ele>
        <time>2022-06-09T06:50:40Z</time>
      </trkpt>
      <trkpt lat="44.71667" lon="4.53968">
        <ele>462.8</ele>
        <time>2022-06-09T06:50:41Z</time>
      </trkpt>
      <trkpt lat="44.71667" lon="4.53966">
        <ele>463</ele>
        <time>2022-06-09T06:50:42Z</time>
      </trkpt>
      <trkpt lat="44.71666" lon="4.53964">
        <ele>463.1</ele>
        <time>2022-06-09T06:50:43Z</time>
      </trkpt>
      <trkpt lat="44.71666" lon="4.53962">
        <ele>463.3</ele>
        <time>2022-06-09T06:50:44Z</time>
      </trkpt>
      <trkpt lat="44.71666" lon="4.5396">
        <ele>463.4</ele>
        <time>2022-06-09T06:50:45Z</time>
      </trkpt>
      <trkpt lat="44.71666" lon="4.53958">
        <ele>463.5</ele>
        <time>2022-06-09T06:50:46Z</time>
      </trkpt>
      <trkpt lat="44.71666" lon="4.53955">
        <ele>463.7</ele>
        <time>2022-06-09T06:50:47Z</time>
      </trkpt>
      <trkpt lat="44.71667" lon="4.53953">
        <ele>463.8</ele>
        <time>2022-06-09T06:50:48Z</time>
      </trkpt>
      <trkpt lat="44.71667" lon="4.53951">
        <ele>463.9</ele>
        <time>2022-06-09T06:50:49Z</time>
      </trkpt>
      <trkpt lat="44.71667" lon="4.53949">
        <ele>464.1</ele>
        <time>2022-06-09T06:50:50Z</time>
      </trkpt>
      <trkpt lat="44.71667" lon="4.53947">
        <ele>464.2</ele>
        <time>2022-06-09T06:50:51Z</time>
      </trkpt>
      <trkpt lat="44.71667" lon="4.53944">
        <ele>464.4</ele>
        <time>2022-06-09T06:50:52Z</time>
      </trkpt>
      <trkpt lat="44.71668" lon="4.53941">
        <ele>464.6</ele>
        <time>2022-06-09T06:50:53Z</time>
      </trkpt>
      <trkpt lat="44.71668" lon="4.5394">
        <ele>464.7</ele>
        <time>2022-06-09T06:50:54Z</time>
      </trkpt>
      <trkpt lat="44.71669" lon="4.53936">
        <ele>464.9</ele>
        <time>2022-06-09T06:50:55Z</time>
      </trkpt>
      <trkpt lat="44.71669" lon="4.53935">
        <ele>465</ele>
        <time>2022-06-09T06:50:56Z</time>
      </trkpt>
      <trkpt lat="44.7167" lon="4.53932">
        <ele>465.1</ele>
        <time>2022-06-09T06:50:57Z</time>
      </trkpt>
      <trkpt lat="44.7167" lon="4.5393">
        <ele>465.3</ele>
        <time>2022-06-09T06:50:58Z</time>
      </trkpt>
      <trkpt lat="44.7167" lon="4.53928">
        <ele>465.4</ele>
        <time>2022-06-09T06:50:59Z</time>
      </trkpt>
      <trkpt lat="44.7167" lon="4.53926">
        <ele>465.6</ele>
        <time>2022-06-09T06:51:00Z</time>
      </trkpt>
      <trkpt lat="44.71671" lon="4.53922">
        <ele>465.8</ele>
        <time>2022-06-09T06:51:01Z</time>
      </trkpt>
      <trkpt lat="44.71672" lon="4.53921">
        <ele>465.9</ele>
        <time>2022-06-09T06:51:02Z</time>
      </trkpt>
      <trkpt lat="44.71672" lon="4.53919">
        <ele>466.1</ele>
        <time>2022-06-09T06:51:03Z</time>
      </trkpt>
      <trkpt lat="44.71672" lon="4.53916">
        <ele>466.2</ele>
        <time>2022-06-09T06:51:04Z</time>
      </trkpt>
      <trkpt lat="44.71673" lon="4.53913">
        <ele>466.5</ele>
        <time>2022-06-09T06:51:05Z</time>
      </trkpt>
      <trkpt lat="44.71674" lon="4.53911">
        <ele>466.6</ele>
        <time>2022-06-09T06:51:06Z</time>
      </trkpt>
      <trkpt lat="44.71675" lon="4.5391">
        <ele>466.8</ele>
        <time>2022-06-09T06:51:07Z</time>
      </trkpt>
      <trkpt lat="44.71675" lon="4.53907">
        <ele>466.9</ele>
        <time>2022-06-09T06:51:08Z</time>
      </trkpt>
      <trkpt lat="44.71676" lon="4.53905">
        <ele>467.1</ele>
        <time>2022-06-09T06:51:09Z</time>
      </trkpt>
      <trkpt lat="44.71677" lon="4.53903">
        <ele>467.2</ele>
        <time>2022-06-09T06:51:10Z</time>
      </trkpt>
      <trkpt lat="44.71677" lon="4.53901">
        <ele>467.4</ele>
        <time>2022-06-09T06:51:11Z</time>
      </trkpt>
      <trkpt lat="44.71678" lon="4.539">
        <ele>467.6</ele>
        <time>2022-06-09T06:51:12Z</time>
      </trkpt>
      <trkpt lat="44.71678" lon="4.53897">
        <ele>467.7</ele>
        <time>2022-06-09T06:51:13Z</time>
      </trkpt>
      <trkpt lat="44.71678" lon="4.53893">
        <ele>468</ele>
        <time>2022-06-09T06:51:14Z</time>
      </trkpt>
      <trkpt lat="44.71679" lon="4.5389">
        <ele>468.3</ele>
        <time>2022-06-09T06:51:16Z</time>
      </trkpt>
      <trkpt lat="44.7168" lon="4.53888">
        <ele>468.4</ele>
        <time>2022-06-09T06:51:17Z</time>
      </trkpt>
      <trkpt lat="44.7168" lon="4.53886">
        <ele>468.6</ele>
        <time>2022-06-09T06:51:18Z</time>
      </trkpt>
      <trkpt lat="44.71681" lon="4.53882">
        <ele>468.9</ele>
        <time>2022-06-09T06:51:19Z</time>
      </trkpt>
      <trkpt lat="44.71681" lon="4.53881">
        <ele>469</ele>
        <time>2022-06-09T06:51:20Z</time>
      </trkpt>
      <trkpt lat="44.71682" lon="4.53878">
        <ele>469.3</ele>
        <time>2022-06-09T06:51:21Z</time>
      </trkpt>
      <trkpt lat="44.71682" lon="4.53874">
        <ele>469.6</ele>
        <time>2022-06-09T06:51:23Z</time>
      </trkpt>
      <trkpt lat="44.71683" lon="4.53872">
        <ele>469.8</ele>
        <time>2022-06-09T06:51:24Z</time>
      </trkpt>
      <trkpt lat="44.71684" lon="4.53867">
        <ele>470.1</ele>
        <time>2022-06-09T06:51:26Z</time>
      </trkpt>
      <trkpt lat="44.71684" lon="4.53865">
        <ele>470.3</ele>
        <time>2022-06-09T06:51:27Z</time>
      </trkpt>
      <trkpt lat="44.71684" lon="4.53862">
        <ele>470.5</ele>
        <time>2022-06-09T06:51:28Z</time>
      </trkpt>
      <trkpt lat="44.71684" lon="4.53858">
        <ele>470.9</ele>
        <time>2022-06-09T06:51:29Z</time>
      </trkpt>
      <trkpt lat="44.71683" lon="4.53856">
        <ele>471</ele>
        <time>2022-06-09T06:51:30Z</time>
      </trkpt>
      <trkpt lat="44.71683" lon="4.53852">
        <ele>471.3</ele>
        <time>2022-06-09T06:51:32Z</time>
      </trkpt>
      <trkpt lat="44.71683" lon="4.53851">
        <ele>471.4</ele>
        <time>2022-06-09T06:51:33Z</time>
      </trkpt>
      <trkpt lat="44.71683" lon="4.53846">
        <ele>471.8</ele>
        <time>2022-06-09T06:51:34Z</time>
      </trkpt>
      <trkpt lat="44.71682" lon="4.53843">
        <ele>472</ele>
        <time>2022-06-09T06:51:35Z</time>
      </trkpt>
      <trkpt lat="44.71681" lon="4.53841">
        <ele>472.3</ele>
        <time>2022-06-09T06:51:37Z</time>
      </trkpt>
      <trkpt lat="44.7168" lon="4.53837">
        <ele>472.6</ele>
        <time>2022-06-09T06:51:38Z</time>
      </trkpt>
      <trkpt lat="44.71679" lon="4.53836">
        <ele>472.7</ele>
        <time>2022-06-09T06:51:39Z</time>
      </trkpt>
      <trkpt lat="44.71677" lon="4.53833">
        <ele>473</ele>
        <time>2022-06-09T06:51:40Z</time>
      </trkpt>
      <trkpt lat="44.71675" lon="4.53831">
        <ele>473.4</ele>
        <time>2022-06-09T06:51:41Z</time>
      </trkpt>
      <trkpt lat="44.71674" lon="4.5383">
        <ele>473.5</ele>
        <time>2022-06-09T06:51:42Z</time>
      </trkpt>
      <trkpt lat="44.71672" lon="4.5383">
        <ele>473.6</ele>
        <time>2022-06-09T06:51:44Z</time>
      </trkpt>
      <trkpt lat="44.71671" lon="4.53829">
        <ele>473.8</ele>
        <time>2022-06-09T06:51:45Z</time>
      </trkpt>
      <trkpt lat="44.71668" lon="4.53828">
        <ele>474</ele>
        <time>2022-06-09T06:51:46Z</time>
      </trkpt>
      <trkpt lat="44.71667" lon="4.53828">
        <ele>474.1</ele>
        <time>2022-06-09T06:51:47Z</time>
      </trkpt>
      <trkpt lat="44.71665" lon="4.53828">
        <ele>474.3</ele>
        <time>2022-06-09T06:51:48Z</time>
      </trkpt>
      <trkpt lat="44.71664" lon="4.53826">
        <ele>474.4</ele>
        <time>2022-06-09T06:51:49Z</time>
      </trkpt>
      <trkpt lat="44.71661" lon="4.53824">
        <ele>474.6</ele>
        <time>2022-06-09T06:51:50Z</time>
      </trkpt>
      <trkpt lat="44.71659" lon="4.5382">
        <ele>474.8</ele>
        <time>2022-06-09T06:51:52Z</time>
      </trkpt>
      <trkpt lat="44.71658" lon="4.53819">
        <ele>474.8</ele>
        <time>2022-06-09T06:51:53Z</time>
      </trkpt>
      <trkpt lat="44.71658" lon="4.53815">
        <ele>475</ele>
        <time>2022-06-09T06:51:54Z</time>
      </trkpt>
      <trkpt lat="44.71658" lon="4.53813">
        <ele>475</ele>
        <time>2022-06-09T06:51:56Z</time>
      </trkpt>
      <trkpt lat="44.71658" lon="4.53809">
        <ele>475.1</ele>
        <time>2022-06-09T06:51:57Z</time>
      </trkpt>
      <trkpt lat="44.71658" lon="4.53806">
        <ele>475.2</ele>
        <time>2022-06-09T06:51:59Z</time>
      </trkpt>
      <trkpt lat="44.71658" lon="4.53803">
        <ele>475.2</ele>
        <time>2022-06-09T06:52:00Z</time>
      </trkpt>
      <trkpt lat="44.71658" lon="4.53801">
        <ele>475.3</ele>
        <time>2022-06-09T06:52:01Z</time>
      </trkpt>
      <trkpt lat="44.71659" lon="4.53797">
        <ele>475.4</ele>
        <time>2022-06-09T06:52:02Z</time>
      </trkpt>
      <trkpt lat="44.7166" lon="4.53795">
        <ele>475.4</ele>
        <time>2022-06-09T06:52:03Z</time>
      </trkpt>
      <trkpt lat="44.71661" lon="4.5379">
        <ele>475.5</ele>
        <time>2022-06-09T06:52:05Z</time>
      </trkpt>
      <trkpt lat="44.71662" lon="4.53788">
        <ele>475.5</ele>
        <time>2022-06-09T06:52:06Z</time>
      </trkpt>
      <trkpt lat="44.71662" lon="4.53787">
        <ele>475.6</ele>
        <time>2022-06-09T06:52:07Z</time>
      </trkpt>
      <trkpt lat="44.71663" lon="4.53784">
        <ele>475.6</ele>
        <time>2022-06-09T06:52:08Z</time>
      </trkpt>
      <trkpt lat="44.71664" lon="4.53783">
        <ele>475.7</ele>
        <time>2022-06-09T06:52:09Z</time>
      </trkpt>
      <trkpt lat="44.71666" lon="4.53779">
        <ele>475.8</ele>
        <time>2022-06-09T06:52:10Z</time>
      </trkpt>
      <trkpt lat="44.71667" lon="4.53776">
        <ele>475.8</ele>
        <time>2022-06-09T06:52:12Z</time>
      </trkpt>
      <trkpt lat="44.71667" lon="4.53775">
        <ele>475.9</ele>
        <time>2022-06-09T06:52:13Z</time>
      </trkpt>
      <trkpt lat="44.71668" lon="4.53774">
        <ele>475.9</ele>
        <time>2022-06-09T06:52:14Z</time>
      </trkpt>
      <trkpt lat="44.71669" lon="4.53772">
        <ele>476</ele>
        <time>2022-06-09T06:52:15Z</time>
      </trkpt>
      <trkpt lat="44.7167" lon="4.53768">
        <ele>476.1</ele>
        <time>2022-06-09T06:52:16Z</time>
      </trkpt>
      <trkpt lat="44.71671" lon="4.53767">
        <ele>476.2</ele>
        <time>2022-06-09T06:52:17Z</time>
      </trkpt>
      <trkpt lat="44.71674" lon="4.53763">
        <ele>476.4</ele>
        <time>2022-06-09T06:52:18Z</time>
      </trkpt>
      <trkpt lat="44.71675" lon="4.53761">
        <ele>476.5</ele>
        <time>2022-06-09T06:52:19Z</time>
      </trkpt>
      <trkpt lat="44.71676" lon="4.53759">
        <ele>476.6</ele>
        <time>2022-06-09T06:52:20Z</time>
      </trkpt>
      <trkpt lat="44.71677" lon="4.53757">
        <ele>476.7</ele>
        <time>2022-06-09T06:52:21Z</time>
      </trkpt>
      <trkpt lat="44.71678" lon="4.53755">
        <ele>476.8</ele>
        <time>2022-06-09T06:52:23Z</time>
      </trkpt>
      <trkpt lat="44.71679" lon="4.53754">
        <ele>476.8</ele>
        <time>2022-06-09T06:52:24Z</time>
      </trkpt>
      <trkpt lat="44.71679" lon="4.53752">
        <ele>476.9</ele>
        <time>2022-06-09T06:52:25Z</time>
      </trkpt>
      <trkpt lat="44.7168" lon="4.5375">
        <ele>477</ele>
        <time>2022-06-09T06:52:26Z</time>
      </trkpt>
      <trkpt lat="44.71681" lon="4.53748">
        <ele>477.1</ele>
        <time>2022-06-09T06:52:27Z</time>
      </trkpt>
      <trkpt lat="44.71681" lon="4.53745">
        <ele>477.3</ele>
        <time>2022-06-09T06:52:28Z</time>
      </trkpt>
      <trkpt lat="44.71682" lon="4.53743">
        <ele>477.4</ele>
        <time>2022-06-09T06:52:29Z</time>
      </trkpt>
      <trkpt lat="44.71683" lon="4.53741">
        <ele>477.5</ele>
        <time>2022-06-09T06:52:30Z</time>
      </trkpt>
      <trkpt lat="44.71684" lon="4.53736">
        <ele>477.8</ele>
        <time>2022-06-09T06:52:31Z</time>
      </trkpt>
      <trkpt lat="44.71685" lon="4.53734">
        <ele>477.9</ele>
        <time>2022-06-09T06:52:33Z</time>
      </trkpt>
      <trkpt lat="44.71685" lon="4.53731">
        <ele>478.1</ele>
        <time>2022-06-09T06:52:34Z</time>
      </trkpt>
      <trkpt lat="44.71686" lon="4.53729">
        <ele>478.2</ele>
        <time>2022-06-09T06:52:35Z</time>
      </trkpt>
      <trkpt lat="44.71686" lon="4.53727">
        <ele>478.3</ele>
        <time>2022-06-09T06:52:36Z</time>
      </trkpt>
      <trkpt lat="44.71686" lon="4.53723">
        <ele>478.5</ele>
        <time>2022-06-09T06:52:37Z</time>
      </trkpt>
      <trkpt lat="44.71686" lon="4.53721">
        <ele>478.7</ele>
        <time>2022-06-09T06:52:39Z</time>
      </trkpt>
      <trkpt lat="44.71687" lon="4.53719">
        <ele>478.8</ele>
        <time>2022-06-09T06:52:40Z</time>
      </trkpt>
      <trkpt lat="44.71687" lon="4.53716">
        <ele>478.9</ele>
        <time>2022-06-09T06:52:41Z</time>
      </trkpt>
      <trkpt lat="44.71688" lon="4.53714">
        <ele>479</ele>
        <time>2022-06-09T06:52:42Z</time>
      </trkpt>
      <trkpt lat="44.71688" lon="4.53712">
        <ele>479.2</ele>
        <time>2022-06-09T06:52:43Z</time>
      </trkpt>
      <trkpt lat="44.71688" lon="4.53709">
        <ele>479.3</ele>
        <time>2022-06-09T06:52:44Z</time>
      </trkpt>
      <trkpt lat="44.71688" lon="4.53707">
        <ele>479.4</ele>
        <time>2022-06-09T06:52:45Z</time>
      </trkpt>
      <trkpt lat="44.71688" lon="4.53705">
        <ele>479.5</ele>
        <time>2022-06-09T06:52:46Z</time>
      </trkpt>
      <trkpt lat="44.71689" lon="4.53703">
        <ele>479.6</ele>
        <time>2022-06-09T06:52:47Z</time>
      </trkpt>
      <trkpt lat="44.71689" lon="4.53701">
        <ele>479.7</ele>
        <time>2022-06-09T06:52:48Z</time>
      </trkpt>
      <trkpt lat="44.71688" lon="4.53699">
        <ele>479.8</ele>
        <time>2022-06-09T06:52:49Z</time>
      </trkpt>
      <trkpt lat="44.71689" lon="4.53695">
        <ele>480</ele>
        <time>2022-06-09T06:52:50Z</time>
      </trkpt>
      <trkpt lat="44.71689" lon="4.53694">
        <ele>480.1</ele>
        <time>2022-06-09T06:52:51Z</time>
      </trkpt>
      <trkpt lat="44.71689" lon="4.5369">
        <ele>480.3</ele>
        <time>2022-06-09T06:52:52Z</time>
      </trkpt>
      <trkpt lat="44.71689" lon="4.53688">
        <ele>480.3</ele>
        <time>2022-06-09T06:52:53Z</time>
      </trkpt>
      <trkpt lat="44.7169" lon="4.53686">
        <ele>480.4</ele>
        <time>2022-06-09T06:52:54Z</time>
      </trkpt>
      <trkpt lat="44.7169" lon="4.53684">
        <ele>480.6</ele>
        <time>2022-06-09T06:52:55Z</time>
      </trkpt>
      <trkpt lat="44.7169" lon="4.53681">
        <ele>480.7</ele>
        <time>2022-06-09T06:52:56Z</time>
      </trkpt>
      <trkpt lat="44.7169" lon="4.53679">
        <ele>480.8</ele>
        <time>2022-06-09T06:52:57Z</time>
      </trkpt>
      <trkpt lat="44.71691" lon="4.53677">
        <ele>480.9</ele>
        <time>2022-06-09T06:52:58Z</time>
      </trkpt>
      <trkpt lat="44.71691" lon="4.53672">
        <ele>481.1</ele>
        <time>2022-06-09T06:52:59Z</time>
      </trkpt>
      <trkpt lat="44.71691" lon="4.5367">
        <ele>481.2</ele>
        <time>2022-06-09T06:53:01Z</time>
      </trkpt>
      <trkpt lat="44.71691" lon="4.53668">
        <ele>481.3</ele>
        <time>2022-06-09T06:53:02Z</time>
      </trkpt>
      <trkpt lat="44.71691" lon="4.53664">
        <ele>481.5</ele>
        <time>2022-06-09T06:53:04Z</time>
      </trkpt>
      <trkpt lat="44.71691" lon="4.5366">
        <ele>481.7</ele>
        <time>2022-06-09T06:53:05Z</time>
      </trkpt>
      <trkpt lat="44.71691" lon="4.53656">
        <ele>481.9</ele>
        <time>2022-06-09T06:53:07Z</time>
      </trkpt>
      <trkpt lat="44.71691" lon="4.53655">
        <ele>481.9</ele>
        <time>2022-06-09T06:53:08Z</time>
      </trkpt>
      <trkpt lat="44.71691" lon="4.53651">
        <ele>482.2</ele>
        <time>2022-06-09T06:53:09Z</time>
      </trkpt>
      <trkpt lat="44.71692" lon="4.53647">
        <ele>482.4</ele>
        <time>2022-06-09T06:53:11Z</time>
      </trkpt>
      <trkpt lat="44.71693" lon="4.53645">
        <ele>482.5</ele>
        <time>2022-06-09T06:53:12Z</time>
      </trkpt>
      <trkpt lat="44.71693" lon="4.53642">
        <ele>482.6</ele>
        <time>2022-06-09T06:53:13Z</time>
      </trkpt>
      <trkpt lat="44.71693" lon="4.53639">
        <ele>482.8</ele>
        <time>2022-06-09T06:53:15Z</time>
      </trkpt>
      <trkpt lat="44.71694" lon="4.53634">
        <ele>483.1</ele>
        <time>2022-06-09T06:53:16Z</time>
      </trkpt>
      <trkpt lat="44.71694" lon="4.53632">
        <ele>483.1</ele>
        <time>2022-06-09T06:53:17Z</time>
      </trkpt>
      <trkpt lat="44.71695" lon="4.53628">
        <ele>483.4</ele>
        <time>2022-06-09T06:53:18Z</time>
      </trkpt>
      <trkpt lat="44.71695" lon="4.53626">
        <ele>483.5</ele>
        <time>2022-06-09T06:53:19Z</time>
      </trkpt>
      <trkpt lat="44.71696" lon="4.53624">
        <ele>483.6</ele>
        <time>2022-06-09T06:53:21Z</time>
      </trkpt>
      <trkpt lat="44.71697" lon="4.53622">
        <ele>483.7</ele>
        <time>2022-06-09T06:53:22Z</time>
      </trkpt>
      <trkpt lat="44.71698" lon="4.53618">
        <ele>483.9</ele>
        <time>2022-06-09T06:53:23Z</time>
      </trkpt>
      <trkpt lat="44.71698" lon="4.53616">
        <ele>484.1</ele>
        <time>2022-06-09T06:53:24Z</time>
      </trkpt>
      <trkpt lat="44.71699" lon="4.53613">
        <ele>484.2</ele>
        <time>2022-06-09T06:53:25Z</time>
      </trkpt>
      <trkpt lat="44.71701" lon="4.53611">
        <ele>484.4</ele>
        <time>2022-06-09T06:53:27Z</time>
      </trkpt>
      <trkpt lat="44.71702" lon="4.5361">
        <ele>484.5</ele>
        <time>2022-06-09T06:53:28Z</time>
      </trkpt>
      <trkpt lat="44.71703" lon="4.53608">
        <ele>484.6</ele>
        <time>2022-06-09T06:53:29Z</time>
      </trkpt>
      <trkpt lat="44.71704" lon="4.53606">
        <ele>484.8</ele>
        <time>2022-06-09T06:53:30Z</time>
      </trkpt>
      <trkpt lat="44.71705" lon="4.53604">
        <ele>484.9</ele>
        <time>2022-06-09T06:53:31Z</time>
      </trkpt>
      <trkpt lat="44.71707" lon="4.53602">
        <ele>485.1</ele>
        <time>2022-06-09T06:53:32Z</time>
      </trkpt>
      <trkpt lat="44.71707" lon="4.53601">
        <ele>485.2</ele>
        <time>2022-06-09T06:53:33Z</time>
      </trkpt>
      <trkpt lat="44.71708" lon="4.53599">
        <ele>485.3</ele>
        <time>2022-06-09T06:53:34Z</time>
      </trkpt>
      <trkpt lat="44.71709" lon="4.53597">
        <ele>485.5</ele>
        <time>2022-06-09T06:53:35Z</time>
      </trkpt>
      <trkpt lat="44.7171" lon="4.53594">
        <ele>485.7</ele>
        <time>2022-06-09T06:53:36Z</time>
      </trkpt>
      <trkpt lat="44.71713" lon="4.53591">
        <ele>486</ele>
        <time>2022-06-09T06:53:38Z</time>
      </trkpt>
      <trkpt lat="44.71714" lon="4.53589">
        <ele>486.1</ele>
        <time>2022-06-09T06:53:40Z</time>
      </trkpt>
      <trkpt lat="44.71715" lon="4.53587">
        <ele>486.2</ele>
        <time>2022-06-09T06:53:41Z</time>
      </trkpt>
      <trkpt lat="44.71716" lon="4.53586">
        <ele>486.4</ele>
        <time>2022-06-09T06:53:42Z</time>
      </trkpt>
      <trkpt lat="44.71717" lon="4.53585">
        <ele>486.5</ele>
        <time>2022-06-09T06:53:43Z</time>
      </trkpt>
      <trkpt lat="44.71718" lon="4.53583">
        <ele>486.6</ele>
        <time>2022-06-09T06:53:44Z</time>
      </trkpt>
      <trkpt lat="44.7172" lon="4.53581">
        <ele>486.9</ele>
        <time>2022-06-09T06:53:45Z</time>
      </trkpt>
      <trkpt lat="44.71722" lon="4.53579">
        <ele>487</ele>
        <time>2022-06-09T06:53:47Z</time>
      </trkpt>
      <trkpt lat="44.71723" lon="4.53577">
        <ele>487.2</ele>
        <time>2022-06-09T06:53:48Z</time>
      </trkpt>
      <trkpt lat="44.71724" lon="4.53576">
        <ele>487.3</ele>
        <time>2022-06-09T06:53:49Z</time>
      </trkpt>
      <trkpt lat="44.71725" lon="4.53574">
        <ele>487.4</ele>
        <time>2022-06-09T06:53:50Z</time>
      </trkpt>
      <trkpt lat="44.71726" lon="4.53572">
        <ele>487.6</ele>
        <time>2022-06-09T06:53:51Z</time>
      </trkpt>
      <trkpt lat="44.71726" lon="4.5357">
        <ele>487.7</ele>
        <time>2022-06-09T06:53:52Z</time>
      </trkpt>
      <trkpt lat="44.71727" lon="4.53568">
        <ele>487.8</ele>
        <time>2022-06-09T06:53:53Z</time>
      </trkpt>
      <trkpt lat="44.71728" lon="4.53566">
        <ele>487.9</ele>
        <time>2022-06-09T06:53:54Z</time>
      </trkpt>
      <trkpt lat="44.71728" lon="4.53564">
        <ele>488.1</ele>
        <time>2022-06-09T06:53:55Z</time>
      </trkpt>
      <trkpt lat="44.71729" lon="4.53562">
        <ele>488.2</ele>
        <time>2022-06-09T06:53:56Z</time>
      </trkpt>
      <trkpt lat="44.71729" lon="4.53558">
        <ele>488.4</ele>
        <time>2022-06-09T06:53:57Z</time>
      </trkpt>
      <trkpt lat="44.7173" lon="4.53552">
        <ele>488.7</ele>
        <time>2022-06-09T06:53:59Z</time>
      </trkpt>
      <trkpt lat="44.71729" lon="4.53548">
        <ele>489</ele>
        <time>2022-06-09T06:54:01Z</time>
      </trkpt>
      <trkpt lat="44.71729" lon="4.53546">
        <ele>489.1</ele>
        <time>2022-06-09T06:54:02Z</time>
      </trkpt>
      <trkpt lat="44.71729" lon="4.53543">
        <ele>489.2</ele>
        <time>2022-06-09T06:54:03Z</time>
      </trkpt>
      <trkpt lat="44.71729" lon="4.53541">
        <ele>489.4</ele>
        <time>2022-06-09T06:54:05Z</time>
      </trkpt>
      <trkpt lat="44.71729" lon="4.53538">
        <ele>489.5</ele>
        <time>2022-06-09T06:54:06Z</time>
      </trkpt>
      <trkpt lat="44.71728" lon="4.53536">
        <ele>489.6</ele>
        <time>2022-06-09T06:54:07Z</time>
      </trkpt>
      <trkpt lat="44.71727" lon="4.53535">
        <ele>489.7</ele>
        <time>2022-06-09T06:54:08Z</time>
      </trkpt>
      <trkpt lat="44.71726" lon="4.5353">
        <ele>490</ele>
        <time>2022-06-09T06:54:09Z</time>
      </trkpt>
      <trkpt lat="44.71725" lon="4.53526">
        <ele>490.2</ele>
        <time>2022-06-09T06:54:11Z</time>
      </trkpt>
      <trkpt lat="44.71724" lon="4.53523">
        <ele>490.4</ele>
        <time>2022-06-09T06:54:12Z</time>
      </trkpt>
      <trkpt lat="44.71723" lon="4.5352">
        <ele>490.6</ele>
        <time>2022-06-09T06:54:14Z</time>
      </trkpt>
      <trkpt lat="44.71722" lon="4.53519">
        <ele>490.6</ele>
        <time>2022-06-09T06:54:15Z</time>
      </trkpt>
      <trkpt lat="44.71721" lon="4.53517">
        <ele>490.8</ele>
        <time>2022-06-09T06:54:16Z</time>
      </trkpt>
      <trkpt lat="44.71721" lon="4.53515">
        <ele>490.9</ele>
        <time>2022-06-09T06:54:17Z</time>
      </trkpt>
      <trkpt lat="44.71719" lon="4.53514">
        <ele>491</ele>
        <time>2022-06-09T06:54:18Z</time>
      </trkpt>
      <trkpt lat="44.71719" lon="4.53512">
        <ele>491.1</ele>
        <time>2022-06-09T06:54:19Z</time>
      </trkpt>
      <trkpt lat="44.71719" lon="4.53508">
        <ele>491.3</ele>
        <time>2022-06-09T06:54:20Z</time>
      </trkpt>
      <trkpt lat="44.71718" lon="4.53507">
        <ele>491.4</ele>
        <time>2022-06-09T06:54:21Z</time>
      </trkpt>
      <trkpt lat="44.71718" lon="4.53504">
        <ele>491.5</ele>
        <time>2022-06-09T06:54:22Z</time>
      </trkpt>
      <trkpt lat="44.71716" lon="4.53503">
        <ele>491.7</ele>
        <time>2022-06-09T06:54:23Z</time>
      </trkpt>
      <trkpt lat="44.71715" lon="4.53502">
        <ele>491.8</ele>
        <time>2022-06-09T06:54:24Z</time>
      </trkpt>
      <trkpt lat="44.71714" lon="4.535">
        <ele>491.9</ele>
        <time>2022-06-09T06:54:25Z</time>
      </trkpt>
      <trkpt lat="44.71713" lon="4.53498">
        <ele>492</ele>
        <time>2022-06-09T06:54:26Z</time>
      </trkpt>
      <trkpt lat="44.71712" lon="4.53496">
        <ele>492.2</ele>
        <time>2022-06-09T06:54:27Z</time>
      </trkpt>
      <trkpt lat="44.71711" lon="4.53492">
        <ele>492.4</ele>
        <time>2022-06-09T06:54:28Z</time>
      </trkpt>
      <trkpt lat="44.7171" lon="4.53491">
        <ele>492.4</ele>
        <time>2022-06-09T06:54:29Z</time>
      </trkpt>
      <trkpt lat="44.71709" lon="4.5349">
        <ele>492.6</ele>
        <time>2022-06-09T06:54:30Z</time>
      </trkpt>
      <trkpt lat="44.71708" lon="4.53488">
        <ele>492.7</ele>
        <time>2022-06-09T06:54:31Z</time>
      </trkpt>
      <trkpt lat="44.71707" lon="4.53486">
        <ele>492.8</ele>
        <time>2022-06-09T06:54:32Z</time>
      </trkpt>
      <trkpt lat="44.71706" lon="4.53484">
        <ele>492.9</ele>
        <time>2022-06-09T06:54:33Z</time>
      </trkpt>
      <trkpt lat="44.71704" lon="4.53481">
        <ele>493.1</ele>
        <time>2022-06-09T06:54:34Z</time>
      </trkpt>
      <trkpt lat="44.71703" lon="4.5348">
        <ele>493.2</ele>
        <time>2022-06-09T06:54:35Z</time>
      </trkpt>
      <trkpt lat="44.71703" lon="4.53479">
        <ele>493.3</ele>
        <time>2022-06-09T06:54:36Z</time>
      </trkpt>
      <trkpt lat="44.71702" lon="4.53477">
        <ele>493.4</ele>
        <time>2022-06-09T06:54:37Z</time>
      </trkpt>
      <trkpt lat="44.71701" lon="4.53475">
        <ele>493.5</ele>
        <time>2022-06-09T06:54:39Z</time>
      </trkpt>
      <trkpt lat="44.717" lon="4.53472">
        <ele>493.7</ele>
        <time>2022-06-09T06:54:40Z</time>
      </trkpt>
      <trkpt lat="44.717" lon="4.5347">
        <ele>493.8</ele>
        <time>2022-06-09T06:54:41Z</time>
      </trkpt>
      <trkpt lat="44.71699" lon="4.53468">
        <ele>494</ele>
        <time>2022-06-09T06:54:42Z</time>
      </trkpt>
      <trkpt lat="44.71698" lon="4.53466">
        <ele>494.1</ele>
        <time>2022-06-09T06:54:44Z</time>
      </trkpt>
      <trkpt lat="44.71697" lon="4.53464">
        <ele>494.2</ele>
        <time>2022-06-09T06:54:45Z</time>
      </trkpt>
      <trkpt lat="44.71696" lon="4.53462">
        <ele>494.3</ele>
        <time>2022-06-09T06:54:46Z</time>
      </trkpt>
      <trkpt lat="44.71696" lon="4.53461">
        <ele>494.4</ele>
        <time>2022-06-09T06:54:47Z</time>
      </trkpt>
      <trkpt lat="44.71696" lon="4.53459">
        <ele>494.6</ele>
        <time>2022-06-09T06:54:48Z</time>
      </trkpt>
      <trkpt lat="44.71695" lon="4.53457">
        <ele>494.7</ele>
        <time>2022-06-09T06:54:49Z</time>
      </trkpt>
      <trkpt lat="44.71694" lon="4.53454">
        <ele>494.8</ele>
        <time>2022-06-09T06:54:50Z</time>
      </trkpt>
      <trkpt lat="44.71693" lon="4.53452">
        <ele>495</ele>
        <time>2022-06-09T06:54:51Z</time>
      </trkpt>
      <trkpt lat="44.71693" lon="4.5345">
        <ele>495.1</ele>
        <time>2022-06-09T06:54:52Z</time>
      </trkpt>
      <trkpt lat="44.71692" lon="4.53449">
        <ele>495.2</ele>
        <time>2022-06-09T06:54:53Z</time>
      </trkpt>
      <trkpt lat="44.71691" lon="4.53446">
        <ele>495.3</ele>
        <time>2022-06-09T06:54:54Z</time>
      </trkpt>
      <trkpt lat="44.71691" lon="4.53444">
        <ele>495.5</ele>
        <time>2022-06-09T06:54:55Z</time>
      </trkpt>
      <trkpt lat="44.7169" lon="4.53442">
        <ele>495.6</ele>
        <time>2022-06-09T06:54:56Z</time>
      </trkpt>
      <trkpt lat="44.7169" lon="4.5344">
        <ele>495.7</ele>
        <time>2022-06-09T06:54:57Z</time>
      </trkpt>
      <trkpt lat="44.7169" lon="4.53437">
        <ele>495.9</ele>
        <time>2022-06-09T06:54:58Z</time>
      </trkpt>
      <trkpt lat="44.71689" lon="4.53435">
        <ele>496</ele>
        <time>2022-06-09T06:54:59Z</time>
      </trkpt>
      <trkpt lat="44.71688" lon="4.53433">
        <ele>496.1</ele>
        <time>2022-06-09T06:55:00Z</time>
      </trkpt>
      <trkpt lat="44.71687" lon="4.53431">
        <ele>496.2</ele>
        <time>2022-06-09T06:55:01Z</time>
      </trkpt>
      <trkpt lat="44.71687" lon="4.53429">
        <ele>496.4</ele>
        <time>2022-06-09T06:55:02Z</time>
      </trkpt>
      <trkpt lat="44.71686" lon="4.53427">
        <ele>496.5</ele>
        <time>2022-06-09T06:55:03Z</time>
      </trkpt>
      <trkpt lat="44.71685" lon="4.53425">
        <ele>496.6</ele>
        <time>2022-06-09T06:55:04Z</time>
      </trkpt>
      <trkpt lat="44.71685" lon="4.53423">
        <ele>496.7</ele>
        <time>2022-06-09T06:55:05Z</time>
      </trkpt>
      <trkpt lat="44.71684" lon="4.53421">
        <ele>496.8</ele>
        <time>2022-06-09T06:55:06Z</time>
      </trkpt>
      <trkpt lat="44.71684" lon="4.5342">
        <ele>496.9</ele>
        <time>2022-06-09T06:55:07Z</time>
      </trkpt>
      <trkpt lat="44.71682" lon="4.53417">
        <ele>497.1</ele>
        <time>2022-06-09T06:55:08Z</time>
      </trkpt>
      <trkpt lat="44.71682" lon="4.53415">
        <ele>497.2</ele>
        <time>2022-06-09T06:55:10Z</time>
      </trkpt>
      <trkpt lat="44.71681" lon="4.53413">
        <ele>497.4</ele>
        <time>2022-06-09T06:55:11Z</time>
      </trkpt>
      <trkpt lat="44.7168" lon="4.5341">
        <ele>497.5</ele>
        <time>2022-06-09T06:55:12Z</time>
      </trkpt>
      <trkpt lat="44.71679" lon="4.53405">
        <ele>497.8</ele>
        <time>2022-06-09T06:55:14Z</time>
      </trkpt>
      <trkpt lat="44.71678" lon="4.534">
        <ele>498.1</ele>
        <time>2022-06-09T06:55:16Z</time>
      </trkpt>
      <trkpt lat="44.71677" lon="4.53396">
        <ele>498.3</ele>
        <time>2022-06-09T06:55:17Z</time>
      </trkpt>
      <trkpt lat="44.71677" lon="4.53391">
        <ele>498.6</ele>
        <time>2022-06-09T06:55:19Z</time>
      </trkpt>
      <trkpt lat="44.71676" lon="4.5339">
        <ele>498.7</ele>
        <time>2022-06-09T06:55:20Z</time>
      </trkpt>
      <trkpt lat="44.71676" lon="4.53387">
        <ele>498.8</ele>
        <time>2022-06-09T06:55:21Z</time>
      </trkpt>
      <trkpt lat="44.71674" lon="4.53384">
        <ele>499</ele>
        <time>2022-06-09T06:55:23Z</time>
      </trkpt>
      <trkpt lat="44.71674" lon="4.53382">
        <ele>499.2</ele>
        <time>2022-06-09T06:55:24Z</time>
      </trkpt>
      <trkpt lat="44.71673" lon="4.53379">
        <ele>499.3</ele>
        <time>2022-06-09T06:55:25Z</time>
      </trkpt>
      <trkpt lat="44.71673" lon="4.53374">
        <ele>499.6</ele>
        <time>2022-06-09T06:55:26Z</time>
      </trkpt>
      <trkpt lat="44.71673" lon="4.53373">
        <ele>499.7</ele>
        <time>2022-06-09T06:55:27Z</time>
      </trkpt>
      <trkpt lat="44.71673" lon="4.5337">
        <ele>499.8</ele>
        <time>2022-06-09T06:55:28Z</time>
      </trkpt>
      <trkpt lat="44.71672" lon="4.53368">
        <ele>500</ele>
        <time>2022-06-09T06:55:29Z</time>
      </trkpt>
      <trkpt lat="44.71673" lon="4.53365">
        <ele>500.2</ele>
        <time>2022-06-09T06:55:31Z</time>
      </trkpt>
      <trkpt lat="44.71673" lon="4.53364">
        <ele>500.2</ele>
        <time>2022-06-09T06:55:32Z</time>
      </trkpt>
      <trkpt lat="44.71673" lon="4.53363">
        <ele>500.3</ele>
        <time>2022-06-09T06:55:33Z</time>
      </trkpt>
      <trkpt lat="44.71674" lon="4.5336">
        <ele>500.5</ele>
        <time>2022-06-09T06:55:34Z</time>
      </trkpt>
      <trkpt lat="44.71674" lon="4.53359">
        <ele>500.6</ele>
        <time>2022-06-09T06:55:35Z</time>
      </trkpt>
      <trkpt lat="44.71674" lon="4.53357">
        <ele>500.9</ele>
        <time>2022-06-09T06:55:36Z</time>
      </trkpt>
      <trkpt lat="44.71675" lon="4.53355">
        <ele>501.1</ele>
        <time>2022-06-09T06:55:37Z</time>
      </trkpt>
      <trkpt lat="44.71676" lon="4.53354">
        <ele>501.2</ele>
        <time>2022-06-09T06:55:38Z</time>
      </trkpt>
      <trkpt lat="44.71677" lon="4.53353">
        <ele>501.3</ele>
        <time>2022-06-09T06:55:39Z</time>
      </trkpt>
      <trkpt lat="44.71679" lon="4.53354">
        <ele>501.5</ele>
        <time>2022-06-09T06:55:40Z</time>
      </trkpt>
      <trkpt lat="44.71682" lon="4.53356">
        <ele>501.8</ele>
        <time>2022-06-09T06:55:41Z</time>
      </trkpt>
      <trkpt lat="44.71683" lon="4.53357">
        <ele>501.9</ele>
        <time>2022-06-09T06:55:42Z</time>
      </trkpt>
      <trkpt lat="44.71686" lon="4.53359">
        <ele>502.1</ele>
        <time>2022-06-09T06:55:43Z</time>
      </trkpt>
      <trkpt lat="44.71687" lon="4.5336">
        <ele>502.2</ele>
        <time>2022-06-09T06:55:44Z</time>
      </trkpt>
      <trkpt lat="44.71688" lon="4.53364">
        <ele>502.4</ele>
        <time>2022-06-09T06:55:45Z</time>
      </trkpt>
      <trkpt lat="44.71688" lon="4.53366">
        <ele>502.5</ele>
        <time>2022-06-09T06:55:46Z</time>
      </trkpt>
      <trkpt lat="44.71689" lon="4.5337">
        <ele>502.7</ele>
        <time>2022-06-09T06:55:47Z</time>
      </trkpt>
      <trkpt lat="44.71689" lon="4.53371">
        <ele>502.7</ele>
        <time>2022-06-09T06:55:48Z</time>
      </trkpt>
      <trkpt lat="44.7169" lon="4.53374">
        <ele>502.9</ele>
        <time>2022-06-09T06:55:49Z</time>
      </trkpt>
      <trkpt lat="44.7169" lon="4.53375">
        <ele>503</ele>
        <time>2022-06-09T06:55:50Z</time>
      </trkpt>
      <trkpt lat="44.71691" lon="4.53379">
        <ele>503.1</ele>
        <time>2022-06-09T06:55:51Z</time>
      </trkpt>
      <trkpt lat="44.71691" lon="4.5338">
        <ele>503.2</ele>
        <time>2022-06-09T06:55:52Z</time>
      </trkpt>
      <trkpt lat="44.71691" lon="4.53383">
        <ele>503.3</ele>
        <time>2022-06-09T06:55:53Z</time>
      </trkpt>
      <trkpt lat="44.71691" lon="4.53386">
        <ele>503.4</ele>
        <time>2022-06-09T06:55:54Z</time>
      </trkpt>
      <trkpt lat="44.71692" lon="4.5339">
        <ele>503.6</ele>
        <time>2022-06-09T06:55:55Z</time>
      </trkpt>
      <trkpt lat="44.71692" lon="4.53392">
        <ele>503.6</ele>
        <time>2022-06-09T06:55:56Z</time>
      </trkpt>
      <trkpt lat="44.71693" lon="4.53397">
        <ele>503.8</ele>
        <time>2022-06-09T06:55:57Z</time>
      </trkpt>
      <trkpt lat="44.71693" lon="4.53398">
        <ele>503.9</ele>
        <time>2022-06-09T06:55:58Z</time>
      </trkpt>
      <trkpt lat="44.71695" lon="4.53403">
        <ele>504.1</ele>
        <time>2022-06-09T06:55:59Z</time>
      </trkpt>
      <trkpt lat="44.71695" lon="4.53405">
        <ele>504.2</ele>
        <time>2022-06-09T06:56:00Z</time>
      </trkpt>
      <trkpt lat="44.71696" lon="4.5341">
        <ele>504.4</ele>
        <time>2022-06-09T06:56:01Z</time>
      </trkpt>
      <trkpt lat="44.71697" lon="4.53411">
        <ele>504.4</ele>
        <time>2022-06-09T06:56:02Z</time>
      </trkpt>
      <trkpt lat="44.717" lon="4.53416">
        <ele>504.7</ele>
        <time>2022-06-09T06:56:03Z</time>
      </trkpt>
      <trkpt lat="44.71701" lon="4.53417">
        <ele>504.8</ele>
        <time>2022-06-09T06:56:04Z</time>
      </trkpt>
      <trkpt lat="44.71702" lon="4.53418">
        <ele>504.9</ele>
        <time>2022-06-09T06:56:06Z</time>
      </trkpt>
      <trkpt lat="44.71704" lon="4.53421">
        <ele>505</ele>
        <time>2022-06-09T06:56:07Z</time>
      </trkpt>
      <trkpt lat="44.71707" lon="4.53423">
        <ele>505.2</ele>
        <time>2022-06-09T06:56:08Z</time>
      </trkpt>
      <trkpt lat="44.71711" lon="4.53429">
        <ele>505.5</ele>
        <time>2022-06-09T06:56:11Z</time>
      </trkpt>
      <trkpt lat="44.71712" lon="4.53432">
        <ele>505.7</ele>
        <time>2022-06-09T06:56:13Z</time>
      </trkpt>
      <trkpt lat="44.71714" lon="4.53438">
        <ele>506</ele>
        <time>2022-06-09T06:56:15Z</time>
      </trkpt>
      <trkpt lat="44.71715" lon="4.5344">
        <ele>506.1</ele>
        <time>2022-06-09T06:56:17Z</time>
      </trkpt>
      <trkpt lat="44.71716" lon="4.53442">
        <ele>506.2</ele>
        <time>2022-06-09T06:56:18Z</time>
      </trkpt>
      <trkpt lat="44.71717" lon="4.53444">
        <ele>506.3</ele>
        <time>2022-06-09T06:56:19Z</time>
      </trkpt>
      <trkpt lat="44.71719" lon="4.53448">
        <ele>506.5</ele>
        <time>2022-06-09T06:56:20Z</time>
      </trkpt>
      <trkpt lat="44.71721" lon="4.5345">
        <ele>506.6</ele>
        <time>2022-06-09T06:56:21Z</time>
      </trkpt>
      <trkpt lat="44.71722" lon="4.53453">
        <ele>506.7</ele>
        <time>2022-06-09T06:56:22Z</time>
      </trkpt>
      <trkpt lat="44.71725" lon="4.53457">
        <ele>507</ele>
        <time>2022-06-09T06:56:24Z</time>
      </trkpt>
      <trkpt lat="44.71727" lon="4.53459">
        <ele>507.2</ele>
        <time>2022-06-09T06:56:25Z</time>
      </trkpt>
      <trkpt lat="44.71728" lon="4.5346">
        <ele>507.3</ele>
        <time>2022-06-09T06:56:27Z</time>
      </trkpt>
      <trkpt lat="44.71731" lon="4.53464">
        <ele>507.6</ele>
        <time>2022-06-09T06:56:28Z</time>
      </trkpt>
      <trkpt lat="44.71733" lon="4.53466">
        <ele>507.7</ele>
        <time>2022-06-09T06:56:29Z</time>
      </trkpt>
      <trkpt lat="44.71734" lon="4.53467">
        <ele>507.8</ele>
        <time>2022-06-09T06:56:30Z</time>
      </trkpt>
      <trkpt lat="44.71737" lon="4.53469">
        <ele>508</ele>
        <time>2022-06-09T06:56:32Z</time>
      </trkpt>
      <trkpt lat="44.7174" lon="4.53471">
        <ele>508.3</ele>
        <time>2022-06-09T06:56:34Z</time>
      </trkpt>
      <trkpt lat="44.71742" lon="4.53473">
        <ele>508.4</ele>
        <time>2022-06-09T06:56:35Z</time>
      </trkpt>
      <trkpt lat="44.71745" lon="4.53474">
        <ele>508.6</ele>
        <time>2022-06-09T06:56:37Z</time>
      </trkpt>
      <trkpt lat="44.71748" lon="4.53476">
        <ele>508.9</ele>
        <time>2022-06-09T06:56:38Z</time>
      </trkpt>
      <trkpt lat="44.7175" lon="4.53477">
        <ele>509</ele>
        <time>2022-06-09T06:56:39Z</time>
      </trkpt>
      <trkpt lat="44.71752" lon="4.53477">
        <ele>509.1</ele>
        <time>2022-06-09T06:56:40Z</time>
      </trkpt>
      <trkpt lat="44.71755" lon="4.53479">
        <ele>509.3</ele>
        <time>2022-06-09T06:56:42Z</time>
      </trkpt>
      <trkpt lat="44.71757" lon="4.5348">
        <ele>509.4</ele>
        <time>2022-06-09T06:56:43Z</time>
      </trkpt>
      <trkpt lat="44.71759" lon="4.53481">
        <ele>509.6</ele>
        <time>2022-06-09T06:56:45Z</time>
      </trkpt>
      <trkpt lat="44.71761" lon="4.53483">
        <ele>509.8</ele>
        <time>2022-06-09T06:56:46Z</time>
      </trkpt>
      <trkpt lat="44.71762" lon="4.53484">
        <ele>509.8</ele>
        <time>2022-06-09T06:56:47Z</time>
      </trkpt>
      <trkpt lat="44.71763" lon="4.53486">
        <ele>509.9</ele>
        <time>2022-06-09T06:56:48Z</time>
      </trkpt>
      <trkpt lat="44.71765" lon="4.53487">
        <ele>510.1</ele>
        <time>2022-06-09T06:56:49Z</time>
      </trkpt>
      <trkpt lat="44.71766" lon="4.53488">
        <ele>510.2</ele>
        <time>2022-06-09T06:56:50Z</time>
      </trkpt>
      <trkpt lat="44.71769" lon="4.5349">
        <ele>510.3</ele>
        <time>2022-06-09T06:56:51Z</time>
      </trkpt>
      <trkpt lat="44.7177" lon="4.53491">
        <ele>510.5</ele>
        <time>2022-06-09T06:56:53Z</time>
      </trkpt>
      <trkpt lat="44.71772" lon="4.53493">
        <ele>510.6</ele>
        <time>2022-06-09T06:56:54Z</time>
      </trkpt>
      <trkpt lat="44.71773" lon="4.53493">
        <ele>510.7</ele>
        <time>2022-06-09T06:56:55Z</time>
      </trkpt>
      <trkpt lat="44.71775" lon="4.53494">
        <ele>510.8</ele>
        <time>2022-06-09T06:56:56Z</time>
      </trkpt>
      <trkpt lat="44.71776" lon="4.53495">
        <ele>510.9</ele>
        <time>2022-06-09T06:56:57Z</time>
      </trkpt>
      <trkpt lat="44.71777" lon="4.53497">
        <ele>511</ele>
        <time>2022-06-09T06:56:58Z</time>
      </trkpt>
      <trkpt lat="44.71779" lon="4.53498">
        <ele>511.1</ele>
        <time>2022-06-09T06:56:59Z</time>
      </trkpt>
      <trkpt lat="44.7178" lon="4.535">
        <ele>511.3</ele>
        <time>2022-06-09T06:57:00Z</time>
      </trkpt>
      <trkpt lat="44.71784" lon="4.53503">
        <ele>511.6</ele>
        <time>2022-06-09T06:57:02Z</time>
      </trkpt>
      <trkpt lat="44.71786" lon="4.53505">
        <ele>511.8</ele>
        <time>2022-06-09T06:57:04Z</time>
      </trkpt>
      <trkpt lat="44.71789" lon="4.53508">
        <ele>512</ele>
        <time>2022-06-09T06:57:06Z</time>
      </trkpt>
      <trkpt lat="44.7179" lon="4.53509">
        <ele>512.1</ele>
        <time>2022-06-09T06:57:07Z</time>
      </trkpt>
      <trkpt lat="44.71791" lon="4.53511">
        <ele>512.2</ele>
        <time>2022-06-09T06:57:09Z</time>
      </trkpt>
      <trkpt lat="44.71792" lon="4.53512">
        <ele>512.4</ele>
        <time>2022-06-09T06:57:10Z</time>
      </trkpt>
      <trkpt lat="44.71794" lon="4.53516">
        <ele>512.6</ele>
        <time>2022-06-09T06:57:11Z</time>
      </trkpt>
      <trkpt lat="44.71795" lon="4.53517">
        <ele>512.7</ele>
        <time>2022-06-09T06:57:12Z</time>
      </trkpt>
      <trkpt lat="44.71797" lon="4.53518">
        <ele>512.8</ele>
        <time>2022-06-09T06:57:14Z</time>
      </trkpt>
      <trkpt lat="44.71797" lon="4.53519">
        <ele>512.9</ele>
        <time>2022-06-09T06:57:15Z</time>
      </trkpt>
      <trkpt lat="44.71797" lon="4.53519">
        <ele>512.9</ele>
        <time>2022-06-09T06:57:16Z</time>
      </trkpt>
      <trkpt lat="44.71797" lon="4.53519">
        <ele>512.9</ele>
        <time>2022-06-09T06:57:17Z</time>
      </trkpt>
      <trkpt lat="44.71797" lon="4.53519">
        <ele>512.9</ele>
        <time>2022-06-09T06:57:18Z</time>
      </trkpt>
      <trkpt lat="44.71797" lon="4.53519">
        <ele>512.9</ele>
        <time>2022-06-09T06:57:19Z</time>
      </trkpt>
      <trkpt lat="44.71797" lon="4.53519">
        <ele>512.9</ele>
        <time>2022-06-09T06:57:20Z</time>
      </trkpt>
      <trkpt lat="44.71797" lon="4.53519">
        <ele>512.9</ele>
        <time>2022-06-09T06:57:21Z</time>
      </trkpt>
      <trkpt lat="44.71797" lon="4.53519">
        <ele>512.9</ele>
        <time>2022-06-09T06:57:22Z</time>
      </trkpt>
      <trkpt lat="44.71797" lon="4.53519">
        <ele>512.9</ele>
        <time>2022-06-09T06:57:23Z</time>
      </trkpt>
      <trkpt lat="44.71797" lon="4.53519">
        <ele>512.9</ele>
        <time>2022-06-09T06:57:24Z</time>
      </trkpt>
      <trkpt lat="44.71797" lon="4.53519">
        <ele>512.9</ele>
        <time>2022-06-09T06:57:25Z</time>
      </trkpt>
      <trkpt lat="44.71802" lon="4.53521">
        <ele>513.3</ele>
        <time>2022-06-09T06:58:18Z</time>
      </trkpt>
      <trkpt lat="44.71804" lon="4.53521">
        <ele>513.5</ele>
        <time>2022-06-09T06:58:20Z</time>
      </trkpt>
      <trkpt lat="44.71807" lon="4.53523">
        <ele>513.7</ele>
        <time>2022-06-09T06:58:21Z</time>
      </trkpt>
      <trkpt lat="44.71809" lon="4.53524">
        <ele>513.8</ele>
        <time>2022-06-09T06:58:22Z</time>
      </trkpt>
      <trkpt lat="44.71812" lon="4.53525">
        <ele>514.1</ele>
        <time>2022-06-09T06:58:24Z</time>
      </trkpt>
      <trkpt lat="44.71813" lon="4.53525">
        <ele>514.1</ele>
        <time>2022-06-09T06:58:25Z</time>
      </trkpt>
      <trkpt lat="44.71816" lon="4.53527">
        <ele>514.3</ele>
        <time>2022-06-09T06:58:26Z</time>
      </trkpt>
      <trkpt lat="44.71817" lon="4.53527">
        <ele>514.4</ele>
        <time>2022-06-09T06:58:27Z</time>
      </trkpt>
      <trkpt lat="44.71821" lon="4.5353">
        <ele>514.7</ele>
        <time>2022-06-09T06:58:29Z</time>
      </trkpt>
      <trkpt lat="44.71822" lon="4.53531">
        <ele>514.8</ele>
        <time>2022-06-09T06:58:31Z</time>
      </trkpt>
      <trkpt lat="44.71825" lon="4.53532">
        <ele>515</ele>
        <time>2022-06-09T06:58:32Z</time>
      </trkpt>
      <trkpt lat="44.71827" lon="4.53532">
        <ele>515.2</ele>
        <time>2022-06-09T06:58:34Z</time>
      </trkpt>
      <trkpt lat="44.71829" lon="4.53533">
        <ele>515.3</ele>
        <time>2022-06-09T06:58:35Z</time>
      </trkpt>
      <trkpt lat="44.71831" lon="4.53533">
        <ele>515.4</ele>
        <time>2022-06-09T06:58:36Z</time>
      </trkpt>
      <trkpt lat="44.71832" lon="4.53533">
        <ele>515.5</ele>
        <time>2022-06-09T06:58:37Z</time>
      </trkpt>
      <trkpt lat="44.71834" lon="4.53533">
        <ele>515.6</ele>
        <time>2022-06-09T06:58:38Z</time>
      </trkpt>
      <trkpt lat="44.71837" lon="4.53534">
        <ele>515.8</ele>
        <time>2022-06-09T06:58:39Z</time>
      </trkpt>
      <trkpt lat="44.71838" lon="4.53534">
        <ele>515.8</ele>
        <time>2022-06-09T06:58:40Z</time>
      </trkpt>
      <trkpt lat="44.71841" lon="4.53534">
        <ele>516</ele>
        <time>2022-06-09T06:58:41Z</time>
      </trkpt>
      <trkpt lat="44.71842" lon="4.53534">
        <ele>516.1</ele>
        <time>2022-06-09T06:58:42Z</time>
      </trkpt>
      <trkpt lat="44.71846" lon="4.53533">
        <ele>516.3</ele>
        <time>2022-06-09T06:58:43Z</time>
      </trkpt>
      <trkpt lat="44.71849" lon="4.53532">
        <ele>516.5</ele>
        <time>2022-06-09T06:58:45Z</time>
      </trkpt>
      <trkpt lat="44.7185" lon="4.53532">
        <ele>516.6</ele>
        <time>2022-06-09T06:58:46Z</time>
      </trkpt>
      <trkpt lat="44.71851" lon="4.53532">
        <ele>516.6</ele>
        <time>2022-06-09T06:58:47Z</time>
      </trkpt>
      <trkpt lat="44.71853" lon="4.53531">
        <ele>516.8</ele>
        <time>2022-06-09T06:58:48Z</time>
      </trkpt>
      <trkpt lat="44.71857" lon="4.5353">
        <ele>517</ele>
        <time>2022-06-09T06:58:49Z</time>
      </trkpt>
      <trkpt lat="44.71859" lon="4.5353">
        <ele>517.1</ele>
        <time>2022-06-09T06:58:51Z</time>
      </trkpt>
      <trkpt lat="44.71861" lon="4.53529">
        <ele>517.2</ele>
        <time>2022-06-09T06:58:52Z</time>
      </trkpt>
      <trkpt lat="44.71864" lon="4.53528">
        <ele>517.4</ele>
        <time>2022-06-09T06:58:53Z</time>
      </trkpt>
      <trkpt lat="44.71864" lon="4.53528">
        <ele>517.4</ele>
        <time>2022-06-09T06:58:54Z</time>
      </trkpt>
      <trkpt lat="44.71867" lon="4.53527">
        <ele>517.6</ele>
        <time>2022-06-09T06:58:55Z</time>
      </trkpt>
      <trkpt lat="44.71868" lon="4.53527">
        <ele>517.7</ele>
        <time>2022-06-09T06:58:56Z</time>
      </trkpt>
      <trkpt lat="44.7187" lon="4.53527">
        <ele>517.8</ele>
        <time>2022-06-09T06:58:57Z</time>
      </trkpt>
      <trkpt lat="44.71871" lon="4.53527">
        <ele>517.9</ele>
        <time>2022-06-09T06:58:58Z</time>
      </trkpt>
      <trkpt lat="44.71873" lon="4.53526">
        <ele>518</ele>
        <time>2022-06-09T06:58:59Z</time>
      </trkpt>
      <trkpt lat="44.71875" lon="4.53526">
        <ele>518.1</ele>
        <time>2022-06-09T06:59:00Z</time>
      </trkpt>
      <trkpt lat="44.71876" lon="4.53525">
        <ele>518.2</ele>
        <time>2022-06-09T06:59:01Z</time>
      </trkpt>
      <trkpt lat="44.71878" lon="4.53525">
        <ele>518.3</ele>
        <time>2022-06-09T06:59:02Z</time>
      </trkpt>
      <trkpt lat="44.71879" lon="4.53524">
        <ele>518.4</ele>
        <time>2022-06-09T06:59:03Z</time>
      </trkpt>
      <trkpt lat="44.71881" lon="4.53523">
        <ele>518.5</ele>
        <time>2022-06-09T06:59:04Z</time>
      </trkpt>
      <trkpt lat="44.71883" lon="4.53521">
        <ele>518.7</ele>
        <time>2022-06-09T06:59:05Z</time>
      </trkpt>
      <trkpt lat="44.71884" lon="4.5352">
        <ele>518.7</ele>
        <time>2022-06-09T06:59:06Z</time>
      </trkpt>
      <trkpt lat="44.71886" lon="4.53519">
        <ele>518.9</ele>
        <time>2022-06-09T06:59:07Z</time>
      </trkpt>
      <trkpt lat="44.71887" lon="4.53518">
        <ele>519</ele>
        <time>2022-06-09T06:59:08Z</time>
      </trkpt>
      <trkpt lat="44.71888" lon="4.53517">
        <ele>519.1</ele>
        <time>2022-06-09T06:59:09Z</time>
      </trkpt>
      <trkpt lat="44.7189" lon="4.53516">
        <ele>519.2</ele>
        <time>2022-06-09T06:59:10Z</time>
      </trkpt>
      <trkpt lat="44.71891" lon="4.53515">
        <ele>519.3</ele>
        <time>2022-06-09T06:59:11Z</time>
      </trkpt>
      <trkpt lat="44.71893" lon="4.53513">
        <ele>519.4</ele>
        <time>2022-06-09T06:59:12Z</time>
      </trkpt>
      <trkpt lat="44.71894" lon="4.53512">
        <ele>519.5</ele>
        <time>2022-06-09T06:59:13Z</time>
      </trkpt>
      <trkpt lat="44.71896" lon="4.53511">
        <ele>519.7</ele>
        <time>2022-06-09T06:59:14Z</time>
      </trkpt>
      <trkpt lat="44.71898" lon="4.53509">
        <ele>519.9</ele>
        <time>2022-06-09T06:59:15Z</time>
      </trkpt>
      <trkpt lat="44.71899" lon="4.53508">
        <ele>519.9</ele>
        <time>2022-06-09T06:59:16Z</time>
      </trkpt>
      <trkpt lat="44.71901" lon="4.53506">
        <ele>520.1</ele>
        <time>2022-06-09T06:59:17Z</time>
      </trkpt>
      <trkpt lat="44.71902" lon="4.53506">
        <ele>520.2</ele>
        <time>2022-06-09T06:59:18Z</time>
      </trkpt>
      <trkpt lat="44.71906" lon="4.53503">
        <ele>520.5</ele>
        <time>2022-06-09T06:59:19Z</time>
      </trkpt>
      <trkpt lat="44.71908" lon="4.535">
        <ele>520.7</ele>
        <time>2022-06-09T06:59:20Z</time>
      </trkpt>
      <trkpt lat="44.71908" lon="4.535">
        <ele>520.8</ele>
        <time>2022-06-09T06:59:21Z</time>
      </trkpt>
      <trkpt lat="44.71911" lon="4.53496">
        <ele>521</ele>
        <time>2022-06-09T06:59:23Z</time>
      </trkpt>
      <trkpt lat="44.71912" lon="4.53494">
        <ele>521.1</ele>
        <time>2022-06-09T06:59:25Z</time>
      </trkpt>
      <trkpt lat="44.71913" lon="4.53492">
        <ele>521.3</ele>
        <time>2022-06-09T06:59:26Z</time>
      </trkpt>
      <trkpt lat="44.71915" lon="4.53489">
        <ele>521.5</ele>
        <time>2022-06-09T06:59:27Z</time>
      </trkpt>
      <trkpt lat="44.71915" lon="4.53488">
        <ele>521.6</ele>
        <time>2022-06-09T06:59:28Z</time>
      </trkpt>
      <trkpt lat="44.71916" lon="4.53485">
        <ele>521.8</ele>
        <time>2022-06-09T06:59:29Z</time>
      </trkpt>
      <trkpt lat="44.71917" lon="4.53484">
        <ele>521.8</ele>
        <time>2022-06-09T06:59:30Z</time>
      </trkpt>
      <trkpt lat="44.71919" lon="4.5348">
        <ele>522</ele>
        <time>2022-06-09T06:59:31Z</time>
      </trkpt>
      <trkpt lat="44.7192" lon="4.53479">
        <ele>522.1</ele>
        <time>2022-06-09T06:59:32Z</time>
      </trkpt>
      <trkpt lat="44.71921" lon="4.53476">
        <ele>522.3</ele>
        <time>2022-06-09T06:59:33Z</time>
      </trkpt>
      <trkpt lat="44.71923" lon="4.53472">
        <ele>522.5</ele>
        <time>2022-06-09T06:59:35Z</time>
      </trkpt>
      <trkpt lat="44.71924" lon="4.53469">
        <ele>522.7</ele>
        <time>2022-06-09T06:59:36Z</time>
      </trkpt>
      <trkpt lat="44.71926" lon="4.53467">
        <ele>522.8</ele>
        <time>2022-06-09T06:59:38Z</time>
      </trkpt>
      <trkpt lat="44.71928" lon="4.53463">
        <ele>523.1</ele>
        <time>2022-06-09T06:59:39Z</time>
      </trkpt>
      <trkpt lat="44.71928" lon="4.53462">
        <ele>523.1</ele>
        <time>2022-06-09T06:59:40Z</time>
      </trkpt>
      <trkpt lat="44.71931" lon="4.53459">
        <ele>523.4</ele>
        <time>2022-06-09T06:59:41Z</time>
      </trkpt>
      <trkpt lat="44.71931" lon="4.53458">
        <ele>523.4</ele>
        <time>2022-06-09T06:59:42Z</time>
      </trkpt>
      <trkpt lat="44.71934" lon="4.53455">
        <ele>523.6</ele>
        <time>2022-06-09T06:59:43Z</time>
      </trkpt>
      <trkpt lat="44.71934" lon="4.53454">
        <ele>523.7</ele>
        <time>2022-06-09T06:59:44Z</time>
      </trkpt>
      <trkpt lat="44.71936" lon="4.5345">
        <ele>523.9</ele>
        <time>2022-06-09T06:59:45Z</time>
      </trkpt>
      <trkpt lat="44.71937" lon="4.53449">
        <ele>524</ele>
        <time>2022-06-09T06:59:46Z</time>
      </trkpt>
      <trkpt lat="44.71941" lon="4.53444">
        <ele>524.3</ele>
        <time>2022-06-09T06:59:48Z</time>
      </trkpt>
      <trkpt lat="44.71942" lon="4.53443">
        <ele>524.5</ele>
        <time>2022-06-09T06:59:49Z</time>
      </trkpt>
      <trkpt lat="44.71943" lon="4.53441">
        <ele>524.6</ele>
        <time>2022-06-09T06:59:50Z</time>
      </trkpt>
      <trkpt lat="44.71946" lon="4.53438">
        <ele>524.8</ele>
        <time>2022-06-09T06:59:51Z</time>
      </trkpt>
      <trkpt lat="44.71948" lon="4.53435">
        <ele>525</ele>
        <time>2022-06-09T06:59:53Z</time>
      </trkpt>
      <trkpt lat="44.71949" lon="4.53434">
        <ele>525.1</ele>
        <time>2022-06-09T06:59:54Z</time>
      </trkpt>
      <trkpt lat="44.71951" lon="4.5343">
        <ele>525.3</ele>
        <time>2022-06-09T06:59:55Z</time>
      </trkpt>
      <trkpt lat="44.71952" lon="4.53428">
        <ele>525.5</ele>
        <time>2022-06-09T06:59:56Z</time>
      </trkpt>
      <trkpt lat="44.71955" lon="4.53426">
        <ele>525.7</ele>
        <time>2022-06-09T06:59:58Z</time>
      </trkpt>
      <trkpt lat="44.71956" lon="4.53424">
        <ele>525.9</ele>
        <time>2022-06-09T06:59:59Z</time>
      </trkpt>
      <trkpt lat="44.71959" lon="4.53421">
        <ele>526.1</ele>
        <time>2022-06-09T07:00:01Z</time>
      </trkpt>
      <trkpt lat="44.71962" lon="4.53418">
        <ele>526.4</ele>
        <time>2022-06-09T07:00:03Z</time>
      </trkpt>
      <trkpt lat="44.71964" lon="4.53415">
        <ele>526.7</ele>
        <time>2022-06-09T07:00:04Z</time>
      </trkpt>
      <trkpt lat="44.71965" lon="4.53413">
        <ele>526.7</ele>
        <time>2022-06-09T07:00:05Z</time>
      </trkpt>
      <trkpt lat="44.71966" lon="4.53409">
        <ele>527</ele>
        <time>2022-06-09T07:00:06Z</time>
      </trkpt>
      <trkpt lat="44.71966" lon="4.53408">
        <ele>527.1</ele>
        <time>2022-06-09T07:00:07Z</time>
      </trkpt>
      <trkpt lat="44.71964" lon="4.53403">
        <ele>527.4</ele>
        <time>2022-06-09T07:00:08Z</time>
      </trkpt>
      <trkpt lat="44.71963" lon="4.53399">
        <ele>527.7</ele>
        <time>2022-06-09T07:00:10Z</time>
      </trkpt>
      <trkpt lat="44.71962" lon="4.53398">
        <ele>527.8</ele>
        <time>2022-06-09T07:00:11Z</time>
      </trkpt>
      <trkpt lat="44.71958" lon="4.53396">
        <ele>528.2</ele>
        <time>2022-06-09T07:00:12Z</time>
      </trkpt>
      <trkpt lat="44.71954" lon="4.53396">
        <ele>528.5</ele>
        <time>2022-06-09T07:00:14Z</time>
      </trkpt>
      <trkpt lat="44.71953" lon="4.53396">
        <ele>528.6</ele>
        <time>2022-06-09T07:00:15Z</time>
      </trkpt>
      <trkpt lat="44.7195" lon="4.53398">
        <ele>528.8</ele>
        <time>2022-06-09T07:00:16Z</time>
      </trkpt>
      <trkpt lat="44.71949" lon="4.53399">
        <ele>528.9</ele>
        <time>2022-06-09T07:00:17Z</time>
      </trkpt>
      <trkpt lat="44.71946" lon="4.53402">
        <ele>529.2</ele>
        <time>2022-06-09T07:00:18Z</time>
      </trkpt>
      <trkpt lat="44.71944" lon="4.53406">
        <ele>529.4</ele>
        <time>2022-06-09T07:00:19Z</time>
      </trkpt>
      <trkpt lat="44.71942" lon="4.53411">
        <ele>529.7</ele>
        <time>2022-06-09T07:00:21Z</time>
      </trkpt>
      <trkpt lat="44.71942" lon="4.53413">
        <ele>529.8</ele>
        <time>2022-06-09T07:00:22Z</time>
      </trkpt>
      <trkpt lat="44.71939" lon="4.53418">
        <ele>530</ele>
        <time>2022-06-09T07:00:23Z</time>
      </trkpt>
      <trkpt lat="44.71938" lon="4.53421">
        <ele>530.2</ele>
        <time>2022-06-09T07:00:24Z</time>
      </trkpt>
      <trkpt lat="44.71936" lon="4.53424">
        <ele>530.3</ele>
        <time>2022-06-09T07:00:25Z</time>
      </trkpt>
      <trkpt lat="44.71932" lon="4.53427">
        <ele>530.6</ele>
        <time>2022-06-09T07:00:27Z</time>
      </trkpt>
      <trkpt lat="44.71931" lon="4.53429">
        <ele>530.7</ele>
        <time>2022-06-09T07:00:28Z</time>
      </trkpt>
      <trkpt lat="44.71927" lon="4.53432">
        <ele>530.9</ele>
        <time>2022-06-09T07:00:30Z</time>
      </trkpt>
      <trkpt lat="44.71926" lon="4.53433">
        <ele>530.9</ele>
        <time>2022-06-09T07:00:31Z</time>
      </trkpt>
      <trkpt lat="44.71925" lon="4.53434">
        <ele>531</ele>
        <time>2022-06-09T07:00:32Z</time>
      </trkpt>
      <trkpt lat="44.71922" lon="4.53437">
        <ele>531.2</ele>
        <time>2022-06-09T07:00:33Z</time>
      </trkpt>
      <trkpt lat="44.71921" lon="4.53437">
        <ele>531.2</ele>
        <time>2022-06-09T07:00:34Z</time>
      </trkpt>
      <trkpt lat="44.71917" lon="4.53439">
        <ele>531.4</ele>
        <time>2022-06-09T07:00:35Z</time>
      </trkpt>
      <trkpt lat="44.71915" lon="4.5344">
        <ele>531.5</ele>
        <time>2022-06-09T07:00:36Z</time>
      </trkpt>
      <trkpt lat="44.71913" lon="4.53441">
        <ele>531.6</ele>
        <time>2022-06-09T07:00:38Z</time>
      </trkpt>
      <trkpt lat="44.71912" lon="4.53442">
        <ele>531.7</ele>
        <time>2022-06-09T07:00:39Z</time>
      </trkpt>
      <trkpt lat="44.7191" lon="4.53443">
        <ele>531.7</ele>
        <time>2022-06-09T07:00:40Z</time>
      </trkpt>
      <trkpt lat="44.71908" lon="4.53445">
        <ele>531.9</ele>
        <time>2022-06-09T07:00:41Z</time>
      </trkpt>
      <trkpt lat="44.71907" lon="4.53446">
        <ele>531.9</ele>
        <time>2022-06-09T07:00:42Z</time>
      </trkpt>
      <trkpt lat="44.71905" lon="4.53447">
        <ele>532</ele>
        <time>2022-06-09T07:00:43Z</time>
      </trkpt>
      <trkpt lat="44.71904" lon="4.53448">
        <ele>532.1</ele>
        <time>2022-06-09T07:00:44Z</time>
      </trkpt>
      <trkpt lat="44.71902" lon="4.5345">
        <ele>532.3</ele>
        <time>2022-06-09T07:00:45Z</time>
      </trkpt>
      <trkpt lat="44.71901" lon="4.53451">
        <ele>532.3</ele>
        <time>2022-06-09T07:00:46Z</time>
      </trkpt>
      <trkpt lat="44.71898" lon="4.53452">
        <ele>532.4</ele>
        <time>2022-06-09T07:00:47Z</time>
      </trkpt>
      <trkpt lat="44.71896" lon="4.53454">
        <ele>532.6</ele>
        <time>2022-06-09T07:00:49Z</time>
      </trkpt>
      <trkpt lat="44.71893" lon="4.53457">
        <ele>532.8</ele>
        <time>2022-06-09T07:00:50Z</time>
      </trkpt>
      <trkpt lat="44.71892" lon="4.53458">
        <ele>532.9</ele>
        <time>2022-06-09T07:00:51Z</time>
      </trkpt>
      <trkpt lat="44.7189" lon="4.53459">
        <ele>533</ele>
        <time>2022-06-09T07:00:52Z</time>
      </trkpt>
      <trkpt lat="44.71888" lon="4.5346">
        <ele>533.1</ele>
        <time>2022-06-09T07:00:54Z</time>
      </trkpt>
      <trkpt lat="44.71887" lon="4.53461">
        <ele>533.2</ele>
        <time>2022-06-09T07:00:55Z</time>
      </trkpt>
      <trkpt lat="44.71885" lon="4.53461">
        <ele>533.3</ele>
        <time>2022-06-09T07:00:56Z</time>
      </trkpt>
      <trkpt lat="44.71882" lon="4.53462">
        <ele>533.5</ele>
        <time>2022-06-09T07:00:57Z</time>
      </trkpt>
      <trkpt lat="44.7188" lon="4.53462">
        <ele>533.6</ele>
        <time>2022-06-09T07:00:58Z</time>
      </trkpt>
      <trkpt lat="44.71878" lon="4.53462">
        <ele>533.8</ele>
        <time>2022-06-09T07:00:59Z</time>
      </trkpt>
      <trkpt lat="44.71876" lon="4.53462">
        <ele>533.9</ele>
        <time>2022-06-09T07:01:01Z</time>
      </trkpt>
      <trkpt lat="44.71874" lon="4.53463">
        <ele>534.1</ele>
        <time>2022-06-09T07:01:02Z</time>
      </trkpt>
      <trkpt lat="44.71871" lon="4.53463">
        <ele>534.3</ele>
        <time>2022-06-09T07:01:03Z</time>
      </trkpt>
      <trkpt lat="44.71867" lon="4.53463">
        <ele>534.5</ele>
        <time>2022-06-09T07:01:05Z</time>
      </trkpt>
      <trkpt lat="44.71866" lon="4.53463">
        <ele>534.6</ele>
        <time>2022-06-09T07:01:06Z</time>
      </trkpt>
      <trkpt lat="44.71862" lon="4.53465">
        <ele>534.9</ele>
        <time>2022-06-09T07:01:07Z</time>
      </trkpt>
      <trkpt lat="44.7186" lon="4.53465">
        <ele>535</ele>
        <time>2022-06-09T07:01:08Z</time>
      </trkpt>
      <trkpt lat="44.71858" lon="4.53466">
        <ele>535.1</ele>
        <time>2022-06-09T07:01:10Z</time>
      </trkpt>
      <trkpt lat="44.71856" lon="4.53466">
        <ele>535.3</ele>
        <time>2022-06-09T07:01:11Z</time>
      </trkpt>
      <trkpt lat="44.71855" lon="4.53466">
        <ele>535.4</ele>
        <time>2022-06-09T07:01:12Z</time>
      </trkpt>
      <trkpt lat="44.71852" lon="4.53466">
        <ele>535.6</ele>
        <time>2022-06-09T07:01:13Z</time>
      </trkpt>
      <trkpt lat="44.71851" lon="4.53467">
        <ele>535.7</ele>
        <time>2022-06-09T07:01:14Z</time>
      </trkpt>
      <trkpt lat="44.71849" lon="4.53466">
        <ele>535.8</ele>
        <time>2022-06-09T07:01:15Z</time>
      </trkpt>
      <trkpt lat="44.71848" lon="4.53466">
        <ele>535.9</ele>
        <time>2022-06-09T07:01:16Z</time>
      </trkpt>
      <trkpt lat="44.71845" lon="4.53465">
        <ele>536.1</ele>
        <time>2022-06-09T07:01:17Z</time>
      </trkpt>
      <trkpt lat="44.71844" lon="4.53465">
        <ele>536.2</ele>
        <time>2022-06-09T07:01:18Z</time>
      </trkpt>
      <trkpt lat="44.71841" lon="4.53464">
        <ele>536.4</ele>
        <time>2022-06-09T07:01:19Z</time>
      </trkpt>
      <trkpt lat="44.7184" lon="4.53464">
        <ele>536.4</ele>
        <time>2022-06-09T07:01:20Z</time>
      </trkpt>
      <trkpt lat="44.71839" lon="4.53463">
        <ele>536.6</ele>
        <time>2022-06-09T07:01:21Z</time>
      </trkpt>
      <trkpt lat="44.71837" lon="4.53462">
        <ele>536.7</ele>
        <time>2022-06-09T07:01:22Z</time>
      </trkpt>
      <trkpt lat="44.71835" lon="4.53461">
        <ele>536.8</ele>
        <time>2022-06-09T07:01:23Z</time>
      </trkpt>
      <trkpt lat="44.71834" lon="4.53461">
        <ele>537</ele>
        <time>2022-06-09T07:01:24Z</time>
      </trkpt>
      <trkpt lat="44.71832" lon="4.5346">
        <ele>537.1</ele>
        <time>2022-06-09T07:01:25Z</time>
      </trkpt>
      <trkpt lat="44.71831" lon="4.5346">
        <ele>537.2</ele>
        <time>2022-06-09T07:01:26Z</time>
      </trkpt>
      <trkpt lat="44.71829" lon="4.53459">
        <ele>537.3</ele>
        <time>2022-06-09T07:01:27Z</time>
      </trkpt>
      <trkpt lat="44.71828" lon="4.53458">
        <ele>537.4</ele>
        <time>2022-06-09T07:01:28Z</time>
      </trkpt>
      <trkpt lat="44.71826" lon="4.53457">
        <ele>537.5</ele>
        <time>2022-06-09T07:01:29Z</time>
      </trkpt>
      <trkpt lat="44.71825" lon="4.53456">
        <ele>537.6</ele>
        <time>2022-06-09T07:01:30Z</time>
      </trkpt>
      <trkpt lat="44.71823" lon="4.53454">
        <ele>537.8</ele>
        <time>2022-06-09T07:01:31Z</time>
      </trkpt>
      <trkpt lat="44.71822" lon="4.53454">
        <ele>537.9</ele>
        <time>2022-06-09T07:01:32Z</time>
      </trkpt>
      <trkpt lat="44.71819" lon="4.53453">
        <ele>538.1</ele>
        <time>2022-06-09T07:01:33Z</time>
      </trkpt>
      <trkpt lat="44.71818" lon="4.53453">
        <ele>538.1</ele>
        <time>2022-06-09T07:01:34Z</time>
      </trkpt>
      <trkpt lat="44.71815" lon="4.53451">
        <ele>538.4</ele>
        <time>2022-06-09T07:01:35Z</time>
      </trkpt>
      <trkpt lat="44.71814" lon="4.5345">
        <ele>538.5</ele>
        <time>2022-06-09T07:01:36Z</time>
      </trkpt>
      <trkpt lat="44.71812" lon="4.53448">
        <ele>538.7</ele>
        <time>2022-06-09T07:01:37Z</time>
      </trkpt>
      <trkpt lat="44.71809" lon="4.53445">
        <ele>538.9</ele>
        <time>2022-06-09T07:01:39Z</time>
      </trkpt>
      <trkpt lat="44.71807" lon="4.53443">
        <ele>539.1</ele>
        <time>2022-06-09T07:01:40Z</time>
      </trkpt>
      <trkpt lat="44.71806" lon="4.53441">
        <ele>539.2</ele>
        <time>2022-06-09T07:01:42Z</time>
      </trkpt>
      <trkpt lat="44.71804" lon="4.53438">
        <ele>539.4</ele>
        <time>2022-06-09T07:01:43Z</time>
      </trkpt>
      <trkpt lat="44.71802" lon="4.53434">
        <ele>539.7</ele>
        <time>2022-06-09T07:01:45Z</time>
      </trkpt>
      <trkpt lat="44.71801" lon="4.53433">
        <ele>539.7</ele>
        <time>2022-06-09T07:01:46Z</time>
      </trkpt>
      <trkpt lat="44.71799" lon="4.53429">
        <ele>540</ele>
        <time>2022-06-09T07:01:47Z</time>
      </trkpt>
      <trkpt lat="44.71798" lon="4.53425">
        <ele>540.2</ele>
        <time>2022-06-09T07:01:49Z</time>
      </trkpt>
      <trkpt lat="44.71797" lon="4.53424">
        <ele>540.2</ele>
        <time>2022-06-09T07:01:50Z</time>
      </trkpt>
      <trkpt lat="44.71796" lon="4.53423">
        <ele>540.4</ele>
        <time>2022-06-09T07:01:51Z</time>
      </trkpt>
      <trkpt lat="44.71795" lon="4.53421">
        <ele>540.5</ele>
        <time>2022-06-09T07:01:52Z</time>
      </trkpt>
      <trkpt lat="44.71793" lon="4.53417">
        <ele>540.7</ele>
        <time>2022-06-09T07:01:53Z</time>
      </trkpt>
      <trkpt lat="44.71792" lon="4.53415">
        <ele>540.8</ele>
        <time>2022-06-09T07:01:54Z</time>
      </trkpt>
      <trkpt lat="44.71792" lon="4.53413">
        <ele>540.9</ele>
        <time>2022-06-09T07:01:55Z</time>
      </trkpt>
      <trkpt lat="44.71791" lon="4.53411">
        <ele>541</ele>
        <time>2022-06-09T07:01:57Z</time>
      </trkpt>
      <trkpt lat="44.7179" lon="4.53409">
        <ele>541.1</ele>
        <time>2022-06-09T07:01:58Z</time>
      </trkpt>
      <trkpt lat="44.71789" lon="4.53407">
        <ele>541.3</ele>
        <time>2022-06-09T07:01:59Z</time>
      </trkpt>
      <trkpt lat="44.71788" lon="4.53403">
        <ele>541.4</ele>
        <time>2022-06-09T07:02:00Z</time>
      </trkpt>
      <trkpt lat="44.71788" lon="4.53402">
        <ele>541.5</ele>
        <time>2022-06-09T07:02:01Z</time>
      </trkpt>
      <trkpt lat="44.71788" lon="4.534">
        <ele>541.6</ele>
        <time>2022-06-09T07:02:02Z</time>
      </trkpt>
      <trkpt lat="44.71787" lon="4.53397">
        <ele>541.7</ele>
        <time>2022-06-09T07:02:03Z</time>
      </trkpt>
      <trkpt lat="44.71787" lon="4.53395">
        <ele>541.8</ele>
        <time>2022-06-09T07:02:04Z</time>
      </trkpt>
      <trkpt lat="44.71786" lon="4.53393">
        <ele>542</ele>
        <time>2022-06-09T07:02:05Z</time>
      </trkpt>
      <trkpt lat="44.71785" lon="4.53391">
        <ele>542.1</ele>
        <time>2022-06-09T07:02:06Z</time>
      </trkpt>
      <trkpt lat="44.71784" lon="4.53389">
        <ele>542.2</ele>
        <time>2022-06-09T07:02:07Z</time>
      </trkpt>
      <trkpt lat="44.71784" lon="4.53386">
        <ele>542.3</ele>
        <time>2022-06-09T07:02:08Z</time>
      </trkpt>
      <trkpt lat="44.71783" lon="4.53384">
        <ele>542.4</ele>
        <time>2022-06-09T07:02:09Z</time>
      </trkpt>
      <trkpt lat="44.71782" lon="4.5338">
        <ele>542.6</ele>
        <time>2022-06-09T07:02:10Z</time>
      </trkpt>
      <trkpt lat="44.71782" lon="4.53378">
        <ele>542.7</ele>
        <time>2022-06-09T07:02:12Z</time>
      </trkpt>
      <trkpt lat="44.71781" lon="4.53376">
        <ele>542.8</ele>
        <time>2022-06-09T07:02:13Z</time>
      </trkpt>
      <trkpt lat="44.7178" lon="4.53372">
        <ele>543</ele>
        <time>2022-06-09T07:02:14Z</time>
      </trkpt>
      <trkpt lat="44.71779" lon="4.53369">
        <ele>543.2</ele>
        <time>2022-06-09T07:02:16Z</time>
      </trkpt>
      <trkpt lat="44.71778" lon="4.53365">
        <ele>543.4</ele>
        <time>2022-06-09T07:02:18Z</time>
      </trkpt>
      <trkpt lat="44.71777" lon="4.53361">
        <ele>543.6</ele>
        <time>2022-06-09T07:02:19Z</time>
      </trkpt>
      <trkpt lat="44.71776" lon="4.53357">
        <ele>543.8</ele>
        <time>2022-06-09T07:02:20Z</time>
      </trkpt>
      <trkpt lat="44.71775" lon="4.53355">
        <ele>543.8</ele>
        <time>2022-06-09T07:02:21Z</time>
      </trkpt>
      <trkpt lat="44.71774" lon="4.53351">
        <ele>544.1</ele>
        <time>2022-06-09T07:02:22Z</time>
      </trkpt>
      <trkpt lat="44.71774" lon="4.53349">
        <ele>544.1</ele>
        <time>2022-06-09T07:02:23Z</time>
      </trkpt>
      <trkpt lat="44.71773" lon="4.53344">
        <ele>544.4</ele>
        <time>2022-06-09T07:02:25Z</time>
      </trkpt>
      <trkpt lat="44.71773" lon="4.53341">
        <ele>544.5</ele>
        <time>2022-06-09T07:02:26Z</time>
      </trkpt>
      <trkpt lat="44.71773" lon="4.53333">
        <ele>544.9</ele>
        <time>2022-06-09T07:02:28Z</time>
      </trkpt>
      <trkpt lat="44.71773" lon="4.5333">
        <ele>545</ele>
        <time>2022-06-09T07:02:29Z</time>
      </trkpt>
      <trkpt lat="44.71773" lon="4.53327">
        <ele>545.2</ele>
        <time>2022-06-09T07:02:30Z</time>
      </trkpt>
      <trkpt lat="44.71774" lon="4.53324">
        <ele>545.3</ele>
        <time>2022-06-09T07:02:31Z</time>
      </trkpt>
      <trkpt lat="44.71775" lon="4.53322">
        <ele>545.5</ele>
        <time>2022-06-09T07:02:33Z</time>
      </trkpt>
      <trkpt lat="44.71778" lon="4.53318">
        <ele>545.7</ele>
        <time>2022-06-09T07:02:34Z</time>
      </trkpt>
      <trkpt lat="44.71779" lon="4.53316">
        <ele>545.9</ele>
        <time>2022-06-09T07:02:35Z</time>
      </trkpt>
      <trkpt lat="44.71782" lon="4.53313">
        <ele>546.1</ele>
        <time>2022-06-09T07:02:36Z</time>
      </trkpt>
      <trkpt lat="44.71783" lon="4.53313">
        <ele>546.2</ele>
        <time>2022-06-09T07:02:37Z</time>
      </trkpt>
      <trkpt lat="44.71786" lon="4.53311">
        <ele>546.4</ele>
        <time>2022-06-09T07:02:38Z</time>
      </trkpt>
      <trkpt lat="44.71788" lon="4.53311">
        <ele>546.6</ele>
        <time>2022-06-09T07:02:39Z</time>
      </trkpt>
      <trkpt lat="44.71791" lon="4.53311">
        <ele>546.7</ele>
        <time>2022-06-09T07:02:41Z</time>
      </trkpt>
      <trkpt lat="44.71794" lon="4.53311">
        <ele>547</ele>
        <time>2022-06-09T07:02:42Z</time>
      </trkpt>
      <trkpt lat="44.71797" lon="4.53311">
        <ele>547.2</ele>
        <time>2022-06-09T07:02:43Z</time>
      </trkpt>
      <trkpt lat="44.718" lon="4.53311">
        <ele>547.4</ele>
        <time>2022-06-09T07:02:45Z</time>
      </trkpt>
      <trkpt lat="44.71801" lon="4.5331">
        <ele>547.5</ele>
        <time>2022-06-09T07:02:46Z</time>
      </trkpt>
      <trkpt lat="44.71803" lon="4.5331">
        <ele>547.6</ele>
        <time>2022-06-09T07:02:47Z</time>
      </trkpt>
      <trkpt lat="44.71805" lon="4.5331">
        <ele>547.7</ele>
        <time>2022-06-09T07:02:48Z</time>
      </trkpt>
      <trkpt lat="44.71809" lon="4.5331">
        <ele>548</ele>
        <time>2022-06-09T07:02:49Z</time>
      </trkpt>
      <trkpt lat="44.71811" lon="4.53309">
        <ele>548.1</ele>
        <time>2022-06-09T07:02:50Z</time>
      </trkpt>
      <trkpt lat="44.71813" lon="4.53309">
        <ele>548.2</ele>
        <time>2022-06-09T07:02:52Z</time>
      </trkpt>
      <trkpt lat="44.71814" lon="4.53309">
        <ele>548.4</ele>
        <time>2022-06-09T07:02:53Z</time>
      </trkpt>
      <trkpt lat="44.71816" lon="4.53309">
        <ele>548.5</ele>
        <time>2022-06-09T07:02:54Z</time>
      </trkpt>
      <trkpt lat="44.71819" lon="4.53309">
        <ele>548.7</ele>
        <time>2022-06-09T07:02:55Z</time>
      </trkpt>
      <trkpt lat="44.71819" lon="4.53309">
        <ele>548.7</ele>
        <time>2022-06-09T07:02:56Z</time>
      </trkpt>
      <trkpt lat="44.71821" lon="4.53308">
        <ele>548.8</ele>
        <time>2022-06-09T07:02:57Z</time>
      </trkpt>
      <trkpt lat="44.71824" lon="4.53308">
        <ele>549.1</ele>
        <time>2022-06-09T07:02:58Z</time>
      </trkpt>
      <trkpt lat="44.71826" lon="4.53308">
        <ele>549.2</ele>
        <time>2022-06-09T07:02:59Z</time>
      </trkpt>
      <trkpt lat="44.71829" lon="4.53307">
        <ele>549.4</ele>
        <time>2022-06-09T07:03:01Z</time>
      </trkpt>
      <trkpt lat="44.7183" lon="4.53306">
        <ele>549.5</ele>
        <time>2022-06-09T07:03:02Z</time>
      </trkpt>
      <trkpt lat="44.71833" lon="4.53306">
        <ele>549.7</ele>
        <time>2022-06-09T07:03:04Z</time>
      </trkpt>
      <trkpt lat="44.71834" lon="4.53306">
        <ele>549.8</ele>
        <time>2022-06-09T07:03:05Z</time>
      </trkpt>
      <trkpt lat="44.71837" lon="4.53305">
        <ele>550</ele>
        <time>2022-06-09T07:03:06Z</time>
      </trkpt>
      <trkpt lat="44.71838" lon="4.53305">
        <ele>550</ele>
        <time>2022-06-09T07:03:07Z</time>
      </trkpt>
      <trkpt lat="44.7184" lon="4.53304">
        <ele>550.2</ele>
        <time>2022-06-09T07:03:08Z</time>
      </trkpt>
      <trkpt lat="44.71842" lon="4.53303">
        <ele>550.3</ele>
        <time>2022-06-09T07:03:09Z</time>
      </trkpt>
      <trkpt lat="44.71843" lon="4.53303">
        <ele>550.4</ele>
        <time>2022-06-09T07:03:10Z</time>
      </trkpt>
      <trkpt lat="44.71845" lon="4.53302">
        <ele>550.5</ele>
        <time>2022-06-09T07:03:11Z</time>
      </trkpt>
      <trkpt lat="44.71848" lon="4.533">
        <ele>550.8</ele>
        <time>2022-06-09T07:03:13Z</time>
      </trkpt>
      <trkpt lat="44.71851" lon="4.53298">
        <ele>551</ele>
        <time>2022-06-09T07:03:14Z</time>
      </trkpt>
      <trkpt lat="44.71852" lon="4.53298">
        <ele>551.1</ele>
        <time>2022-06-09T07:03:15Z</time>
      </trkpt>
      <trkpt lat="44.71855" lon="4.53296">
        <ele>551.3</ele>
        <time>2022-06-09T07:03:16Z</time>
      </trkpt>
      <trkpt lat="44.71857" lon="4.53295">
        <ele>551.4</ele>
        <time>2022-06-09T07:03:17Z</time>
      </trkpt>
      <trkpt lat="44.71859" lon="4.53294">
        <ele>551.6</ele>
        <time>2022-06-09T07:03:19Z</time>
      </trkpt>
      <trkpt lat="44.71861" lon="4.53293">
        <ele>551.8</ele>
        <time>2022-06-09T07:03:20Z</time>
      </trkpt>
      <trkpt lat="44.71864" lon="4.53291">
        <ele>552</ele>
        <time>2022-06-09T07:03:22Z</time>
      </trkpt>
      <trkpt lat="44.71867" lon="4.5329">
        <ele>552.3</ele>
        <time>2022-06-09T07:03:23Z</time>
      </trkpt>
      <trkpt lat="44.71869" lon="4.5329">
        <ele>552.4</ele>
        <time>2022-06-09T07:03:24Z</time>
      </trkpt>
      <trkpt lat="44.71871" lon="4.5329">
        <ele>552.5</ele>
        <time>2022-06-09T07:03:26Z</time>
      </trkpt>
      <trkpt lat="44.71872" lon="4.53291">
        <ele>552.7</ele>
        <time>2022-06-09T07:03:27Z</time>
      </trkpt>
      <trkpt lat="44.71874" lon="4.53292">
        <ele>552.8</ele>
        <time>2022-06-09T07:03:28Z</time>
      </trkpt>
      <trkpt lat="44.71875" lon="4.53292">
        <ele>552.9</ele>
        <time>2022-06-09T07:03:29Z</time>
      </trkpt>
      <trkpt lat="44.71875" lon="4.53294">
        <ele>553</ele>
        <time>2022-06-09T07:03:30Z</time>
      </trkpt>
      <trkpt lat="44.71876" lon="4.53296">
        <ele>553.1</ele>
        <time>2022-06-09T07:03:31Z</time>
      </trkpt>
      <trkpt lat="44.71877" lon="4.53299">
        <ele>553.3</ele>
        <time>2022-06-09T07:03:32Z</time>
      </trkpt>
      <trkpt lat="44.71877" lon="4.53301">
        <ele>553.4</ele>
        <time>2022-06-09T07:03:33Z</time>
      </trkpt>
      <trkpt lat="44.71876" lon="4.53306">
        <ele>553.7</ele>
        <time>2022-06-09T07:03:34Z</time>
      </trkpt>
      <trkpt lat="44.71875" lon="4.53308">
        <ele>553.8</ele>
        <time>2022-06-09T07:03:36Z</time>
      </trkpt>
      <trkpt lat="44.71874" lon="4.5331">
        <ele>553.9</ele>
        <time>2022-06-09T07:03:37Z</time>
      </trkpt>
      <trkpt lat="44.71872" lon="4.53313">
        <ele>554.1</ele>
        <time>2022-06-09T07:03:38Z</time>
      </trkpt>
      <trkpt lat="44.71871" lon="4.53313">
        <ele>554.2</ele>
        <time>2022-06-09T07:03:39Z</time>
      </trkpt>
      <trkpt lat="44.71869" lon="4.53315">
        <ele>554.4</ele>
        <time>2022-06-09T07:03:40Z</time>
      </trkpt>
      <trkpt lat="44.71868" lon="4.53315">
        <ele>554.4</ele>
        <time>2022-06-09T07:03:41Z</time>
      </trkpt>
      <trkpt lat="44.71864" lon="4.53315">
        <ele>554.7</ele>
        <time>2022-06-09T07:03:42Z</time>
      </trkpt>
      <trkpt lat="44.71862" lon="4.53315">
        <ele>554.8</ele>
        <time>2022-06-09T07:03:43Z</time>
      </trkpt>
      <trkpt lat="44.7186" lon="4.53315">
        <ele>554.9</ele>
        <time>2022-06-09T07:03:45Z</time>
      </trkpt>
      <trkpt lat="44.71856" lon="4.53314">
        <ele>555.1</ele>
        <time>2022-06-09T07:03:46Z</time>
      </trkpt>
      <trkpt lat="44.71855" lon="4.53314">
        <ele>555.2</ele>
        <time>2022-06-09T07:03:47Z</time>
      </trkpt>
      <trkpt lat="44.71852" lon="4.53314">
        <ele>555.3</ele>
        <time>2022-06-09T07:03:48Z</time>
      </trkpt>
      <trkpt lat="44.71851" lon="4.53314">
        <ele>555.4</ele>
        <time>2022-06-09T07:03:49Z</time>
      </trkpt>
      <trkpt lat="44.71848" lon="4.53315">
        <ele>555.6</ele>
        <time>2022-06-09T07:03:50Z</time>
      </trkpt>
      <trkpt lat="44.71847" lon="4.53315">
        <ele>555.6</ele>
        <time>2022-06-09T07:03:51Z</time>
      </trkpt>
      <trkpt lat="44.71844" lon="4.53317">
        <ele>555.8</ele>
        <time>2022-06-09T07:03:52Z</time>
      </trkpt>
      <trkpt lat="44.71843" lon="4.53317">
        <ele>555.9</ele>
        <time>2022-06-09T07:03:53Z</time>
      </trkpt>
      <trkpt lat="44.7184" lon="4.53319">
        <ele>556</ele>
        <time>2022-06-09T07:03:54Z</time>
      </trkpt>
      <trkpt lat="44.71839" lon="4.53319">
        <ele>556.1</ele>
        <time>2022-06-09T07:03:55Z</time>
      </trkpt>
      <trkpt lat="44.71836" lon="4.53321">
        <ele>556.2</ele>
        <time>2022-06-09T07:03:56Z</time>
      </trkpt>
      <trkpt lat="44.71835" lon="4.53322">
        <ele>556.3</ele>
        <time>2022-06-09T07:03:57Z</time>
      </trkpt>
      <trkpt lat="44.71833" lon="4.53325">
        <ele>556.4</ele>
        <time>2022-06-09T07:03:58Z</time>
      </trkpt>
      <trkpt lat="44.71832" lon="4.53326">
        <ele>556.5</ele>
        <time>2022-06-09T07:03:59Z</time>
      </trkpt>
      <trkpt lat="44.7183" lon="4.53329">
        <ele>556.7</ele>
        <time>2022-06-09T07:04:00Z</time>
      </trkpt>
      <trkpt lat="44.71829" lon="4.53331">
        <ele>556.8</ele>
        <time>2022-06-09T07:04:01Z</time>
      </trkpt>
      <trkpt lat="44.71827" lon="4.53334">
        <ele>556.9</ele>
        <time>2022-06-09T07:04:03Z</time>
      </trkpt>
      <trkpt lat="44.71826" lon="4.53338">
        <ele>557.1</ele>
        <time>2022-06-09T07:04:04Z</time>
      </trkpt>
      <trkpt lat="44.71825" lon="4.53339">
        <ele>557.2</ele>
        <time>2022-06-09T07:04:05Z</time>
      </trkpt>
      <trkpt lat="44.71825" lon="4.53342">
        <ele>557.3</ele>
        <time>2022-06-09T07:04:06Z</time>
      </trkpt>
      <trkpt lat="44.71824" lon="4.53348">
        <ele>557.5</ele>
        <time>2022-06-09T07:04:08Z</time>
      </trkpt>
      <trkpt lat="44.71824" lon="4.53353">
        <ele>557.7</ele>
        <time>2022-06-09T07:04:09Z</time>
      </trkpt>
      <trkpt lat="44.71824" lon="4.53354">
        <ele>557.8</ele>
        <time>2022-06-09T07:04:10Z</time>
      </trkpt>
      <trkpt lat="44.71824" lon="4.53358">
        <ele>557.9</ele>
        <time>2022-06-09T07:04:11Z</time>
      </trkpt>
      <trkpt lat="44.71824" lon="4.53359">
        <ele>558</ele>
        <time>2022-06-09T07:04:12Z</time>
      </trkpt>
      <trkpt lat="44.71825" lon="4.53365">
        <ele>558.2</ele>
        <time>2022-06-09T07:04:13Z</time>
      </trkpt>
      <trkpt lat="44.71827" lon="4.53371">
        <ele>558.5</ele>
        <time>2022-06-09T07:04:15Z</time>
      </trkpt>
      <trkpt lat="44.71828" lon="4.53373">
        <ele>558.6</ele>
        <time>2022-06-09T07:04:16Z</time>
      </trkpt>
      <trkpt lat="44.71828" lon="4.53375">
        <ele>558.7</ele>
        <time>2022-06-09T07:04:17Z</time>
      </trkpt>
      <trkpt lat="44.71831" lon="4.53379">
        <ele>559</ele>
        <time>2022-06-09T07:04:19Z</time>
      </trkpt>
      <trkpt lat="44.71832" lon="4.53381">
        <ele>559.1</ele>
        <time>2022-06-09T07:04:20Z</time>
      </trkpt>
      <trkpt lat="44.71833" lon="4.53383">
        <ele>559.2</ele>
        <time>2022-06-09T07:04:22Z</time>
      </trkpt>
      <trkpt lat="44.71834" lon="4.53384">
        <ele>559.3</ele>
        <time>2022-06-09T07:04:23Z</time>
      </trkpt>
      <trkpt lat="44.71839" lon="4.53388">
        <ele>559.7</ele>
        <time>2022-06-09T07:04:25Z</time>
      </trkpt>
      <trkpt lat="44.71842" lon="4.53388">
        <ele>559.9</ele>
        <time>2022-06-09T07:04:27Z</time>
      </trkpt>
      <trkpt lat="44.71843" lon="4.53389">
        <ele>560</ele>
        <time>2022-06-09T07:04:28Z</time>
      </trkpt>
      <trkpt lat="44.71844" lon="4.53389">
        <ele>560</ele>
        <time>2022-06-09T07:04:29Z</time>
      </trkpt>
      <trkpt lat="44.71847" lon="4.53388">
        <ele>560.2</ele>
        <time>2022-06-09T07:04:30Z</time>
      </trkpt>
      <trkpt lat="44.71848" lon="4.53388">
        <ele>560.3</ele>
        <time>2022-06-09T07:04:31Z</time>
      </trkpt>
      <trkpt lat="44.71851" lon="4.53387">
        <ele>560.4</ele>
        <time>2022-06-09T07:04:32Z</time>
      </trkpt>
      <trkpt lat="44.71852" lon="4.53387">
        <ele>560.5</ele>
        <time>2022-06-09T07:04:33Z</time>
      </trkpt>
      <trkpt lat="44.71854" lon="4.53385">
        <ele>560.7</ele>
        <time>2022-06-09T07:04:34Z</time>
      </trkpt>
      <trkpt lat="44.71855" lon="4.53385">
        <ele>560.7</ele>
        <time>2022-06-09T07:04:35Z</time>
      </trkpt>
      <trkpt lat="44.71858" lon="4.53383">
        <ele>560.9</ele>
        <time>2022-06-09T07:04:36Z</time>
      </trkpt>
      <trkpt lat="44.71859" lon="4.53383">
        <ele>561</ele>
        <time>2022-06-09T07:04:37Z</time>
      </trkpt>
      <trkpt lat="44.71862" lon="4.53379">
        <ele>561.2</ele>
        <time>2022-06-09T07:04:39Z</time>
      </trkpt>
      <trkpt lat="44.71864" lon="4.53376">
        <ele>561.3</ele>
        <time>2022-06-09T07:04:40Z</time>
      </trkpt>
      <trkpt lat="44.71865" lon="4.53375">
        <ele>561.4</ele>
        <time>2022-06-09T07:04:41Z</time>
      </trkpt>
      <trkpt lat="44.71868" lon="4.53371">
        <ele>561.6</ele>
        <time>2022-06-09T07:04:42Z</time>
      </trkpt>
      <trkpt lat="44.7187" lon="4.53368">
        <ele>561.8</ele>
        <time>2022-06-09T07:04:44Z</time>
      </trkpt>
      <trkpt lat="44.71871" lon="4.53367">
        <ele>561.8</ele>
        <time>2022-06-09T07:04:45Z</time>
      </trkpt>
      <trkpt lat="44.71873" lon="4.53365">
        <ele>562</ele>
        <time>2022-06-09T07:04:46Z</time>
      </trkpt>
      <trkpt lat="44.71874" lon="4.53364">
        <ele>562</ele>
        <time>2022-06-09T07:04:47Z</time>
      </trkpt>
      <trkpt lat="44.71876" lon="4.53361">
        <ele>562.2</ele>
        <time>2022-06-09T07:04:48Z</time>
      </trkpt>
      <trkpt lat="44.71877" lon="4.5336">
        <ele>562.2</ele>
        <time>2022-06-09T07:04:49Z</time>
      </trkpt>
      <trkpt lat="44.71879" lon="4.53358">
        <ele>562.4</ele>
        <time>2022-06-09T07:04:50Z</time>
      </trkpt>
      <trkpt lat="44.7188" lon="4.53357">
        <ele>562.4</ele>
        <time>2022-06-09T07:04:51Z</time>
      </trkpt>
      <trkpt lat="44.71882" lon="4.53354">
        <ele>562.6</ele>
        <time>2022-06-09T07:04:52Z</time>
      </trkpt>
      <trkpt lat="44.71883" lon="4.53353">
        <ele>562.6</ele>
        <time>2022-06-09T07:04:53Z</time>
      </trkpt>
      <trkpt lat="44.71885" lon="4.53349">
        <ele>562.8</ele>
        <time>2022-06-09T07:04:54Z</time>
      </trkpt>
      <trkpt lat="44.71887" lon="4.53346">
        <ele>562.9</ele>
        <time>2022-06-09T07:04:56Z</time>
      </trkpt>
      <trkpt lat="44.71888" lon="4.53345">
        <ele>563</ele>
        <time>2022-06-09T07:04:57Z</time>
      </trkpt>
      <trkpt lat="44.7189" lon="4.53343">
        <ele>563.1</ele>
        <time>2022-06-09T07:04:58Z</time>
      </trkpt>
      <trkpt lat="44.71893" lon="4.5334">
        <ele>563.3</ele>
        <time>2022-06-09T07:04:59Z</time>
      </trkpt>
      <trkpt lat="44.71894" lon="4.53339">
        <ele>563.4</ele>
        <time>2022-06-09T07:05:00Z</time>
      </trkpt>
      <trkpt lat="44.71897" lon="4.53336">
        <ele>563.5</ele>
        <time>2022-06-09T07:05:02Z</time>
      </trkpt>
      <trkpt lat="44.719" lon="4.53333">
        <ele>563.7</ele>
        <time>2022-06-09T07:05:03Z</time>
      </trkpt>
      <trkpt lat="44.71903" lon="4.5333">
        <ele>563.9</ele>
        <time>2022-06-09T07:05:05Z</time>
      </trkpt>
      <trkpt lat="44.71904" lon="4.53329">
        <ele>563.9</ele>
        <time>2022-06-09T07:05:06Z</time>
      </trkpt>
      <trkpt lat="44.71907" lon="4.53327">
        <ele>564.1</ele>
        <time>2022-06-09T07:05:07Z</time>
      </trkpt>
      <trkpt lat="44.71907" lon="4.53326">
        <ele>564.1</ele>
        <time>2022-06-09T07:05:08Z</time>
      </trkpt>
      <trkpt lat="44.7191" lon="4.53323">
        <ele>564.3</ele>
        <time>2022-06-09T07:05:09Z</time>
      </trkpt>
      <trkpt lat="44.71911" lon="4.53322">
        <ele>564.3</ele>
        <time>2022-06-09T07:05:10Z</time>
      </trkpt>
      <trkpt lat="44.71914" lon="4.53319">
        <ele>564.5</ele>
        <time>2022-06-09T07:05:11Z</time>
      </trkpt>
      <trkpt lat="44.71915" lon="4.53318">
        <ele>564.6</ele>
        <time>2022-06-09T07:05:12Z</time>
      </trkpt>
      <trkpt lat="44.71918" lon="4.53316">
        <ele>564.7</ele>
        <time>2022-06-09T07:05:13Z</time>
      </trkpt>
      <trkpt lat="44.71918" lon="4.53315">
        <ele>564.8</ele>
        <time>2022-06-09T07:05:14Z</time>
      </trkpt>
      <trkpt lat="44.71922" lon="4.53313">
        <ele>565</ele>
        <time>2022-06-09T07:05:15Z</time>
      </trkpt>
      <trkpt lat="44.71925" lon="4.53311">
        <ele>565.2</ele>
        <time>2022-06-09T07:05:17Z</time>
      </trkpt>
      <trkpt lat="44.71926" lon="4.5331">
        <ele>565.2</ele>
        <time>2022-06-09T07:05:18Z</time>
      </trkpt>
      <trkpt lat="44.71928" lon="4.53307">
        <ele>565.4</ele>
        <time>2022-06-09T07:05:19Z</time>
      </trkpt>
      <trkpt lat="44.71929" lon="4.53306">
        <ele>565.4</ele>
        <time>2022-06-09T07:05:20Z</time>
      </trkpt>
      <trkpt lat="44.71931" lon="4.53304">
        <ele>565.6</ele>
        <time>2022-06-09T07:05:21Z</time>
      </trkpt>
      <trkpt lat="44.71932" lon="4.53303">
        <ele>565.6</ele>
        <time>2022-06-09T07:05:22Z</time>
      </trkpt>
      <trkpt lat="44.71933" lon="4.53301">
        <ele>565.8</ele>
        <time>2022-06-09T07:05:23Z</time>
      </trkpt>
      <trkpt lat="44.71934" lon="4.533">
        <ele>565.8</ele>
        <time>2022-06-09T07:05:24Z</time>
      </trkpt>
      <trkpt lat="44.71936" lon="4.53298">
        <ele>566</ele>
        <time>2022-06-09T07:05:25Z</time>
      </trkpt>
      <trkpt lat="44.71937" lon="4.53297">
        <ele>566</ele>
        <time>2022-06-09T07:05:26Z</time>
      </trkpt>
      <trkpt lat="44.71938" lon="4.53295">
        <ele>566.2</ele>
        <time>2022-06-09T07:05:27Z</time>
      </trkpt>
      <trkpt lat="44.71939" lon="4.53295">
        <ele>566.2</ele>
        <time>2022-06-09T07:05:28Z</time>
      </trkpt>
      <trkpt lat="44.71939" lon="4.53294">
        <ele>566.2</ele>
        <time>2022-06-09T07:05:29Z</time>
      </trkpt>
      <trkpt lat="44.71939" lon="4.53294">
        <ele>566.2</ele>
        <time>2022-06-09T07:05:30Z</time>
      </trkpt>
      <trkpt lat="44.71939" lon="4.53293">
        <ele>566.3</ele>
        <time>2022-06-09T07:05:31Z</time>
      </trkpt>
      <trkpt lat="44.7194" lon="4.53292">
        <ele>566.3</ele>
        <time>2022-06-09T07:05:32Z</time>
      </trkpt>
      <trkpt lat="44.7194" lon="4.53292">
        <ele>566.3</ele>
        <time>2022-06-09T07:05:33Z</time>
      </trkpt>
      <trkpt lat="44.7194" lon="4.53291">
        <ele>566.3</ele>
        <time>2022-06-09T07:05:34Z</time>
      </trkpt>
      <trkpt lat="44.7194" lon="4.53291">
        <ele>566.4</ele>
        <time>2022-06-09T07:05:35Z</time>
      </trkpt>
      <trkpt lat="44.71941" lon="4.5329">
        <ele>566.4</ele>
        <time>2022-06-09T07:05:36Z</time>
      </trkpt>
      <trkpt lat="44.71941" lon="4.5329">
        <ele>566.4</ele>
        <time>2022-06-09T07:05:37Z</time>
      </trkpt>
      <trkpt lat="44.71941" lon="4.53289">
        <ele>566.4</ele>
        <time>2022-06-09T07:05:38Z</time>
      </trkpt>
      <trkpt lat="44.71941" lon="4.53289">
        <ele>566.5</ele>
        <time>2022-06-09T07:05:39Z</time>
      </trkpt>
      <trkpt lat="44.71941" lon="4.53288">
        <ele>566.5</ele>
        <time>2022-06-09T07:06:37Z</time>
      </trkpt>
      <trkpt lat="44.71942" lon="4.53288">
        <ele>566.5</ele>
        <time>2022-06-09T07:06:38Z</time>
      </trkpt>
      <trkpt lat="44.71942" lon="4.53287">
        <ele>566.5</ele>
        <time>2022-06-09T07:06:39Z</time>
      </trkpt>
      <trkpt lat="44.71942" lon="4.53286">
        <ele>566.5</ele>
        <time>2022-06-09T07:06:40Z</time>
      </trkpt>
      <trkpt lat="44.71943" lon="4.53281">
        <ele>566.8</ele>
        <time>2022-06-09T07:06:42Z</time>
      </trkpt>
      <trkpt lat="44.71942" lon="4.53273">
        <ele>566.9</ele>
        <time>2022-06-09T07:06:43Z</time>
      </trkpt>
      <trkpt lat="44.7194" lon="4.53266">
        <ele>567.1</ele>
        <time>2022-06-09T07:06:45Z</time>
      </trkpt>
      <trkpt lat="44.71939" lon="4.53262">
        <ele>567.2</ele>
        <time>2022-06-09T07:06:46Z</time>
      </trkpt>
      <trkpt lat="44.71938" lon="4.53258">
        <ele>567.4</ele>
        <time>2022-06-09T07:06:47Z</time>
      </trkpt>
      <trkpt lat="44.71937" lon="4.53253">
        <ele>567.5</ele>
        <time>2022-06-09T07:06:48Z</time>
      </trkpt>
      <trkpt lat="44.71936" lon="4.53249">
        <ele>567.6</ele>
        <time>2022-06-09T07:06:49Z</time>
      </trkpt>
      <trkpt lat="44.71936" lon="4.53245">
        <ele>567.7</ele>
        <time>2022-06-09T07:06:50Z</time>
      </trkpt>
      <trkpt lat="44.71936" lon="4.53237">
        <ele>567.9</ele>
        <time>2022-06-09T07:06:52Z</time>
      </trkpt>
      <trkpt lat="44.71937" lon="4.53232">
        <ele>568</ele>
        <time>2022-06-09T07:06:53Z</time>
      </trkpt>
      <trkpt lat="44.71937" lon="4.5323">
        <ele>568.1</ele>
        <time>2022-06-09T07:06:54Z</time>
      </trkpt>
      <trkpt lat="44.71937" lon="4.53226">
        <ele>568.2</ele>
        <time>2022-06-09T07:06:55Z</time>
      </trkpt>
      <trkpt lat="44.71938" lon="4.53221">
        <ele>568.3</ele>
        <time>2022-06-09T07:06:56Z</time>
      </trkpt>
      <trkpt lat="44.71938" lon="4.53219">
        <ele>568.4</ele>
        <time>2022-06-09T07:06:57Z</time>
      </trkpt>
      <trkpt lat="44.71939" lon="4.53215">
        <ele>568.5</ele>
        <time>2022-06-09T07:06:58Z</time>
      </trkpt>
      <trkpt lat="44.71939" lon="4.53211">
        <ele>568.6</ele>
        <time>2022-06-09T07:06:59Z</time>
      </trkpt>
      <trkpt lat="44.7194" lon="4.53207">
        <ele>568.7</ele>
        <time>2022-06-09T07:07:00Z</time>
      </trkpt>
      <trkpt lat="44.7194" lon="4.53203">
        <ele>568.8</ele>
        <time>2022-06-09T07:07:01Z</time>
      </trkpt>
      <trkpt lat="44.71941" lon="4.532">
        <ele>568.9</ele>
        <time>2022-06-09T07:07:02Z</time>
      </trkpt>
      <trkpt lat="44.71942" lon="4.53193">
        <ele>569.1</ele>
        <time>2022-06-09T07:07:03Z</time>
      </trkpt>
      <trkpt lat="44.71944" lon="4.53187">
        <ele>569.3</ele>
        <time>2022-06-09T07:07:05Z</time>
      </trkpt>
      <trkpt lat="44.71944" lon="4.53183">
        <ele>569.4</ele>
        <time>2022-06-09T07:07:06Z</time>
      </trkpt>
      <trkpt lat="44.71945" lon="4.53179">
        <ele>569.5</ele>
        <time>2022-06-09T07:07:07Z</time>
      </trkpt>
      <trkpt lat="44.71945" lon="4.53175">
        <ele>569.6</ele>
        <time>2022-06-09T07:07:08Z</time>
      </trkpt>
      <trkpt lat="44.71946" lon="4.53171">
        <ele>569.8</ele>
        <time>2022-06-09T07:07:09Z</time>
      </trkpt>
      <trkpt lat="44.71947" lon="4.53167">
        <ele>569.9</ele>
        <time>2022-06-09T07:07:10Z</time>
      </trkpt>
      <trkpt lat="44.71947" lon="4.53162">
        <ele>570</ele>
        <time>2022-06-09T07:07:11Z</time>
      </trkpt>
      <trkpt lat="44.71948" lon="4.53159">
        <ele>570.2</ele>
        <time>2022-06-09T07:07:12Z</time>
      </trkpt>
      <trkpt lat="44.71949" lon="4.53155">
        <ele>570.3</ele>
        <time>2022-06-09T07:07:13Z</time>
      </trkpt>
      <trkpt lat="44.71949" lon="4.53151">
        <ele>570.4</ele>
        <time>2022-06-09T07:07:14Z</time>
      </trkpt>
      <trkpt lat="44.7195" lon="4.53147">
        <ele>570.5</ele>
        <time>2022-06-09T07:07:15Z</time>
      </trkpt>
      <trkpt lat="44.71951" lon="4.53143">
        <ele>570.7</ele>
        <time>2022-06-09T07:07:16Z</time>
      </trkpt>
      <trkpt lat="44.71952" lon="4.53139">
        <ele>570.8</ele>
        <time>2022-06-09T07:07:17Z</time>
      </trkpt>
      <trkpt lat="44.71952" lon="4.53133">
        <ele>571</ele>
        <time>2022-06-09T07:07:18Z</time>
      </trkpt>
      <trkpt lat="44.71953" lon="4.53131">
        <ele>571.1</ele>
        <time>2022-06-09T07:07:19Z</time>
      </trkpt>
      <trkpt lat="44.71954" lon="4.53126">
        <ele>571.2</ele>
        <time>2022-06-09T07:07:20Z</time>
      </trkpt>
      <trkpt lat="44.71954" lon="4.53121">
        <ele>571.4</ele>
        <time>2022-06-09T07:07:21Z</time>
      </trkpt>
      <trkpt lat="44.71955" lon="4.53119">
        <ele>571.4</ele>
        <time>2022-06-09T07:07:22Z</time>
      </trkpt>
      <trkpt lat="44.71955" lon="4.53115">
        <ele>571.6</ele>
        <time>2022-06-09T07:07:23Z</time>
      </trkpt>
      <trkpt lat="44.71956" lon="4.53112">
        <ele>571.7</ele>
        <time>2022-06-09T07:07:24Z</time>
      </trkpt>
      <trkpt lat="44.71957" lon="4.53107">
        <ele>571.9</ele>
        <time>2022-06-09T07:07:25Z</time>
      </trkpt>
      <trkpt lat="44.71957" lon="4.53103">
        <ele>572</ele>
        <time>2022-06-09T07:07:26Z</time>
      </trkpt>
      <trkpt lat="44.71957" lon="4.53099">
        <ele>572.1</ele>
        <time>2022-06-09T07:07:27Z</time>
      </trkpt>
      <trkpt lat="44.71957" lon="4.53092">
        <ele>572.4</ele>
        <time>2022-06-09T07:07:28Z</time>
      </trkpt>
      <trkpt lat="44.71957" lon="4.53088">
        <ele>572.5</ele>
        <time>2022-06-09T07:07:30Z</time>
      </trkpt>
      <trkpt lat="44.71957" lon="4.53081">
        <ele>572.8</ele>
        <time>2022-06-09T07:07:31Z</time>
      </trkpt>
      <trkpt lat="44.71957" lon="4.53074">
        <ele>573</ele>
        <time>2022-06-09T07:07:33Z</time>
      </trkpt>
      <trkpt lat="44.71957" lon="4.53069">
        <ele>573.2</ele>
        <time>2022-06-09T07:07:35Z</time>
      </trkpt>
      <trkpt lat="44.71957" lon="4.53064">
        <ele>573.4</ele>
        <time>2022-06-09T07:07:36Z</time>
      </trkpt>
      <trkpt lat="44.71957" lon="4.53062">
        <ele>573.4</ele>
        <time>2022-06-09T07:07:37Z</time>
      </trkpt>
      <trkpt lat="44.71957" lon="4.53057">
        <ele>573.6</ele>
        <time>2022-06-09T07:07:38Z</time>
      </trkpt>
      <trkpt lat="44.71956" lon="4.53056">
        <ele>573.7</ele>
        <time>2022-06-09T07:07:39Z</time>
      </trkpt>
      <trkpt lat="44.71956" lon="4.53052">
        <ele>573.8</ele>
        <time>2022-06-09T07:07:40Z</time>
      </trkpt>
      <trkpt lat="44.71955" lon="4.53047">
        <ele>573.9</ele>
        <time>2022-06-09T07:07:41Z</time>
      </trkpt>
      <trkpt lat="44.71955" lon="4.53043">
        <ele>574.1</ele>
        <time>2022-06-09T07:07:42Z</time>
      </trkpt>
      <trkpt lat="44.71954" lon="4.53039">
        <ele>574.2</ele>
        <time>2022-06-09T07:07:43Z</time>
      </trkpt>
      <trkpt lat="44.71954" lon="4.53035">
        <ele>574.3</ele>
        <time>2022-06-09T07:07:44Z</time>
      </trkpt>
      <trkpt lat="44.71953" lon="4.53027">
        <ele>574.6</ele>
        <time>2022-06-09T07:07:45Z</time>
      </trkpt>
      <trkpt lat="44.71953" lon="4.53023">
        <ele>574.7</ele>
        <time>2022-06-09T07:07:47Z</time>
      </trkpt>
      <trkpt lat="44.71953" lon="4.53019">
        <ele>574.8</ele>
        <time>2022-06-09T07:07:48Z</time>
      </trkpt>
      <trkpt lat="44.71952" lon="4.53013">
        <ele>575</ele>
        <time>2022-06-09T07:07:49Z</time>
      </trkpt>
      <trkpt lat="44.71952" lon="4.53011">
        <ele>575.1</ele>
        <time>2022-06-09T07:07:50Z</time>
      </trkpt>
      <trkpt lat="44.71952" lon="4.53005">
        <ele>575.3</ele>
        <time>2022-06-09T07:07:51Z</time>
      </trkpt>
      <trkpt lat="44.71952" lon="4.53003">
        <ele>575.3</ele>
        <time>2022-06-09T07:07:52Z</time>
      </trkpt>
      <trkpt lat="44.71951" lon="4.52996">
        <ele>575.6</ele>
        <time>2022-06-09T07:07:54Z</time>
      </trkpt>
      <trkpt lat="44.71951" lon="4.5299">
        <ele>575.8</ele>
        <time>2022-06-09T07:07:55Z</time>
      </trkpt>
      <trkpt lat="44.71951" lon="4.52988">
        <ele>575.9</ele>
        <time>2022-06-09T07:07:56Z</time>
      </trkpt>
      <trkpt lat="44.71952" lon="4.52983">
        <ele>576</ele>
        <time>2022-06-09T07:07:57Z</time>
      </trkpt>
      <trkpt lat="44.71952" lon="4.52981">
        <ele>576.1</ele>
        <time>2022-06-09T07:07:58Z</time>
      </trkpt>
      <trkpt lat="44.71952" lon="4.52976">
        <ele>576.3</ele>
        <time>2022-06-09T07:07:59Z</time>
      </trkpt>
      <trkpt lat="44.71952" lon="4.52975">
        <ele>576.3</ele>
        <time>2022-06-09T07:08:00Z</time>
      </trkpt>
      <trkpt lat="44.71953" lon="4.5297">
        <ele>576.5</ele>
        <time>2022-06-09T07:08:01Z</time>
      </trkpt>
      <trkpt lat="44.71954" lon="4.52968">
        <ele>576.5</ele>
        <time>2022-06-09T07:08:02Z</time>
      </trkpt>
      <trkpt lat="44.71954" lon="4.52963">
        <ele>576.7</ele>
        <time>2022-06-09T07:08:03Z</time>
      </trkpt>
      <trkpt lat="44.71955" lon="4.52962">
        <ele>576.7</ele>
        <time>2022-06-09T07:08:04Z</time>
      </trkpt>
      <trkpt lat="44.71956" lon="4.52957">
        <ele>576.9</ele>
        <time>2022-06-09T07:08:05Z</time>
      </trkpt>
      <trkpt lat="44.71957" lon="4.52956">
        <ele>576.9</ele>
        <time>2022-06-09T07:08:06Z</time>
      </trkpt>
      <trkpt lat="44.71959" lon="4.52951">
        <ele>577</ele>
        <time>2022-06-09T07:08:07Z</time>
      </trkpt>
      <trkpt lat="44.7196" lon="4.5295">
        <ele>577.1</ele>
        <time>2022-06-09T07:08:08Z</time>
      </trkpt>
      <trkpt lat="44.71962" lon="4.52945">
        <ele>577.3</ele>
        <time>2022-06-09T07:08:09Z</time>
      </trkpt>
      <trkpt lat="44.71963" lon="4.52944">
        <ele>577.3</ele>
        <time>2022-06-09T07:08:10Z</time>
      </trkpt>
      <trkpt lat="44.71965" lon="4.5294">
        <ele>577.5</ele>
        <time>2022-06-09T07:08:11Z</time>
      </trkpt>
      <trkpt lat="44.71966" lon="4.52939">
        <ele>577.5</ele>
        <time>2022-06-09T07:08:12Z</time>
      </trkpt>
      <trkpt lat="44.71968" lon="4.52936">
        <ele>577.7</ele>
        <time>2022-06-09T07:08:13Z</time>
      </trkpt>
      <trkpt lat="44.71969" lon="4.52935">
        <ele>577.7</ele>
        <time>2022-06-09T07:08:14Z</time>
      </trkpt>
      <trkpt lat="44.7197" lon="4.52934">
        <ele>577.8</ele>
        <time>2022-06-09T07:08:15Z</time>
      </trkpt>
      <trkpt lat="44.71972" lon="4.52932">
        <ele>577.9</ele>
        <time>2022-06-09T07:08:16Z</time>
      </trkpt>
      <trkpt lat="44.71974" lon="4.5293">
        <ele>578</ele>
        <time>2022-06-09T07:08:17Z</time>
      </trkpt>
      <trkpt lat="44.71975" lon="4.52929">
        <ele>578.1</ele>
        <time>2022-06-09T07:08:18Z</time>
      </trkpt>
      <trkpt lat="44.71978" lon="4.52928">
        <ele>578.3</ele>
        <time>2022-06-09T07:08:19Z</time>
      </trkpt>
      <trkpt lat="44.71979" lon="4.52927">
        <ele>578.3</ele>
        <time>2022-06-09T07:08:20Z</time>
      </trkpt>
      <trkpt lat="44.71981" lon="4.52925">
        <ele>578.5</ele>
        <time>2022-06-09T07:08:21Z</time>
      </trkpt>
      <trkpt lat="44.71982" lon="4.52924">
        <ele>578.5</ele>
        <time>2022-06-09T07:08:22Z</time>
      </trkpt>
      <trkpt lat="44.71985" lon="4.52922">
        <ele>578.7</ele>
        <time>2022-06-09T07:08:23Z</time>
      </trkpt>
      <trkpt lat="44.71986" lon="4.52922">
        <ele>578.8</ele>
        <time>2022-06-09T07:08:24Z</time>
      </trkpt>
      <trkpt lat="44.71987" lon="4.52921">
        <ele>578.9</ele>
        <time>2022-06-09T07:08:25Z</time>
      </trkpt>
      <trkpt lat="44.71989" lon="4.52919">
        <ele>579</ele>
        <time>2022-06-09T07:08:26Z</time>
      </trkpt>
      <trkpt lat="44.71991" lon="4.52916">
        <ele>579.1</ele>
        <time>2022-06-09T07:08:27Z</time>
      </trkpt>
      <trkpt lat="44.71992" lon="4.52916">
        <ele>579.2</ele>
        <time>2022-06-09T07:08:28Z</time>
      </trkpt>
      <trkpt lat="44.71996" lon="4.52913">
        <ele>579.4</ele>
        <time>2022-06-09T07:08:30Z</time>
      </trkpt>
      <trkpt lat="44.71999" lon="4.52909">
        <ele>579.6</ele>
        <time>2022-06-09T07:08:31Z</time>
      </trkpt>
      <trkpt lat="44.72001" lon="4.52907">
        <ele>579.7</ele>
        <time>2022-06-09T07:08:33Z</time>
      </trkpt>
      <trkpt lat="44.72002" lon="4.52906">
        <ele>579.8</ele>
        <time>2022-06-09T07:08:34Z</time>
      </trkpt>
      <trkpt lat="44.72004" lon="4.52902">
        <ele>579.9</ele>
        <time>2022-06-09T07:08:35Z</time>
      </trkpt>
      <trkpt lat="44.72006" lon="4.52899">
        <ele>580</ele>
        <time>2022-06-09T07:08:36Z</time>
      </trkpt>
      <trkpt lat="44.72007" lon="4.52897">
        <ele>580.1</ele>
        <time>2022-06-09T07:08:37Z</time>
      </trkpt>
      <trkpt lat="44.72009" lon="4.52893">
        <ele>580.3</ele>
        <time>2022-06-09T07:08:38Z</time>
      </trkpt>
      <trkpt lat="44.7201" lon="4.52892">
        <ele>580.3</ele>
        <time>2022-06-09T07:08:39Z</time>
      </trkpt>
      <trkpt lat="44.72012" lon="4.52888">
        <ele>580.5</ele>
        <time>2022-06-09T07:08:40Z</time>
      </trkpt>
      <trkpt lat="44.72012" lon="4.52886">
        <ele>580.5</ele>
        <time>2022-06-09T07:08:41Z</time>
      </trkpt>
      <trkpt lat="44.72016" lon="4.52881">
        <ele>580.7</ele>
        <time>2022-06-09T07:08:43Z</time>
      </trkpt>
      <trkpt lat="44.72017" lon="4.52876">
        <ele>580.9</ele>
        <time>2022-06-09T07:08:44Z</time>
      </trkpt>
      <trkpt lat="44.72018" lon="4.52875">
        <ele>580.9</ele>
        <time>2022-06-09T07:08:45Z</time>
      </trkpt>
      <trkpt lat="44.72019" lon="4.52871">
        <ele>581.1</ele>
        <time>2022-06-09T07:08:46Z</time>
      </trkpt>
      <trkpt lat="44.72019" lon="4.52869">
        <ele>581.1</ele>
        <time>2022-06-09T07:08:47Z</time>
      </trkpt>
      <trkpt lat="44.7202" lon="4.52864">
        <ele>581.3</ele>
        <time>2022-06-09T07:08:48Z</time>
      </trkpt>
      <trkpt lat="44.72021" lon="4.52863">
        <ele>581.3</ele>
        <time>2022-06-09T07:08:49Z</time>
      </trkpt>
      <trkpt lat="44.72021" lon="4.5286">
        <ele>581.4</ele>
        <time>2022-06-09T07:08:50Z</time>
      </trkpt>
      <trkpt lat="44.72023" lon="4.52852">
        <ele>581.7</ele>
        <time>2022-06-09T07:08:52Z</time>
      </trkpt>
      <trkpt lat="44.72023" lon="4.52849">
        <ele>581.8</ele>
        <time>2022-06-09T07:08:53Z</time>
      </trkpt>
      <trkpt lat="44.72023" lon="4.52843">
        <ele>581.9</ele>
        <time>2022-06-09T07:08:54Z</time>
      </trkpt>
      <trkpt lat="44.72023" lon="4.52841">
        <ele>582</ele>
        <time>2022-06-09T07:08:55Z</time>
      </trkpt>
      <trkpt lat="44.72023" lon="4.52836">
        <ele>582.1</ele>
        <time>2022-06-09T07:08:56Z</time>
      </trkpt>
      <trkpt lat="44.72023" lon="4.52834">
        <ele>582.2</ele>
        <time>2022-06-09T07:08:57Z</time>
      </trkpt>
      <trkpt lat="44.72023" lon="4.5283">
        <ele>582.3</ele>
        <time>2022-06-09T07:08:58Z</time>
      </trkpt>
      <trkpt lat="44.72023" lon="4.52826">
        <ele>582.4</ele>
        <time>2022-06-09T07:08:59Z</time>
      </trkpt>
      <trkpt lat="44.72023" lon="4.5282">
        <ele>582.5</ele>
        <time>2022-06-09T07:09:00Z</time>
      </trkpt>
      <trkpt lat="44.72022" lon="4.52818">
        <ele>582.6</ele>
        <time>2022-06-09T07:09:01Z</time>
      </trkpt>
      <trkpt lat="44.72022" lon="4.52813">
        <ele>582.7</ele>
        <time>2022-06-09T07:09:02Z</time>
      </trkpt>
      <trkpt lat="44.72022" lon="4.52811">
        <ele>582.8</ele>
        <time>2022-06-09T07:09:03Z</time>
      </trkpt>
      <trkpt lat="44.72022" lon="4.52807">
        <ele>582.9</ele>
        <time>2022-06-09T07:09:04Z</time>
      </trkpt>
      <trkpt lat="44.72022" lon="4.52802">
        <ele>583.1</ele>
        <time>2022-06-09T07:09:05Z</time>
      </trkpt>
      <trkpt lat="44.72022" lon="4.528">
        <ele>583.2</ele>
        <time>2022-06-09T07:09:06Z</time>
      </trkpt>
      <trkpt lat="44.72021" lon="4.52794">
        <ele>583.4</ele>
        <time>2022-06-09T07:09:07Z</time>
      </trkpt>
      <trkpt lat="44.72021" lon="4.52792">
        <ele>583.4</ele>
        <time>2022-06-09T07:09:08Z</time>
      </trkpt>
      <trkpt lat="44.72021" lon="4.52784">
        <ele>583.7</ele>
        <time>2022-06-09T07:09:09Z</time>
      </trkpt>
      <trkpt lat="44.72021" lon="4.52781">
        <ele>583.8</ele>
        <time>2022-06-09T07:09:10Z</time>
      </trkpt>
      <trkpt lat="44.72021" lon="4.52777">
        <ele>584</ele>
        <time>2022-06-09T07:09:12Z</time>
      </trkpt>
      <trkpt lat="44.72021" lon="4.52773">
        <ele>584.1</ele>
        <time>2022-06-09T07:09:13Z</time>
      </trkpt>
      <trkpt lat="44.72021" lon="4.52765">
        <ele>584.4</ele>
        <time>2022-06-09T07:09:14Z</time>
      </trkpt>
      <trkpt lat="44.72021" lon="4.52761">
        <ele>584.5</ele>
        <time>2022-06-09T07:09:16Z</time>
      </trkpt>
      <trkpt lat="44.72021" lon="4.52757">
        <ele>584.7</ele>
        <time>2022-06-09T07:09:17Z</time>
      </trkpt>
      <trkpt lat="44.72021" lon="4.52753">
        <ele>584.8</ele>
        <time>2022-06-09T07:09:18Z</time>
      </trkpt>
      <trkpt lat="44.72021" lon="4.52749">
        <ele>585</ele>
        <time>2022-06-09T07:09:19Z</time>
      </trkpt>
      <trkpt lat="44.72021" lon="4.52746">
        <ele>585.1</ele>
        <time>2022-06-09T07:09:20Z</time>
      </trkpt>
      <trkpt lat="44.72021" lon="4.52738">
        <ele>585.4</ele>
        <time>2022-06-09T07:09:21Z</time>
      </trkpt>
      <trkpt lat="44.72021" lon="4.52734">
        <ele>585.6</ele>
        <time>2022-06-09T07:09:23Z</time>
      </trkpt>
      <trkpt lat="44.72022" lon="4.52728">
        <ele>585.9</ele>
        <time>2022-06-09T07:09:24Z</time>
      </trkpt>
      <trkpt lat="44.72022" lon="4.52726">
        <ele>585.9</ele>
        <time>2022-06-09T07:09:25Z</time>
      </trkpt>
      <trkpt lat="44.72023" lon="4.52721">
        <ele>586.2</ele>
        <time>2022-06-09T07:09:26Z</time>
      </trkpt>
      <trkpt lat="44.72023" lon="4.5272">
        <ele>586.2</ele>
        <time>2022-06-09T07:09:27Z</time>
      </trkpt>
      <trkpt lat="44.72024" lon="4.52716">
        <ele>586.4</ele>
        <time>2022-06-09T07:09:28Z</time>
      </trkpt>
      <trkpt lat="44.72025" lon="4.52711">
        <ele>586.6</ele>
        <time>2022-06-09T07:09:29Z</time>
      </trkpt>
      <trkpt lat="44.72026" lon="4.52709">
        <ele>586.7</ele>
        <time>2022-06-09T07:09:30Z</time>
      </trkpt>
      <trkpt lat="44.72028" lon="4.52704">
        <ele>587</ele>
        <time>2022-06-09T07:09:32Z</time>
      </trkpt>
      <trkpt lat="44.72031" lon="4.527">
        <ele>587.2</ele>
        <time>2022-06-09T07:09:33Z</time>
      </trkpt>
      <trkpt lat="44.72034" lon="4.52696">
        <ele>587.4</ele>
        <time>2022-06-09T07:09:35Z</time>
      </trkpt>
      <trkpt lat="44.72035" lon="4.52695">
        <ele>587.5</ele>
        <time>2022-06-09T07:09:36Z</time>
      </trkpt>
      <trkpt lat="44.72038" lon="4.52693">
        <ele>587.7</ele>
        <time>2022-06-09T07:09:37Z</time>
      </trkpt>
      <trkpt lat="44.72039" lon="4.52692">
        <ele>587.7</ele>
        <time>2022-06-09T07:09:38Z</time>
      </trkpt>
      <trkpt lat="44.72045" lon="4.52687">
        <ele>588.1</ele>
        <time>2022-06-09T07:09:40Z</time>
      </trkpt>
      <trkpt lat="44.72048" lon="4.52687">
        <ele>588.2</ele>
        <time>2022-06-09T07:09:42Z</time>
      </trkpt>
      <trkpt lat="44.72053" lon="4.52684">
        <ele>588.5</ele>
        <time>2022-06-09T07:09:43Z</time>
      </trkpt>
      <trkpt lat="44.72056" lon="4.52683">
        <ele>588.7</ele>
        <time>2022-06-09T07:09:45Z</time>
      </trkpt>
      <trkpt lat="44.72056" lon="4.52682">
        <ele>588.7</ele>
        <time>2022-06-09T07:09:46Z</time>
      </trkpt>
      <trkpt lat="44.72059" lon="4.52682">
        <ele>588.8</ele>
        <time>2022-06-09T07:09:47Z</time>
      </trkpt>
      <trkpt lat="44.7206" lon="4.52682">
        <ele>588.9</ele>
        <time>2022-06-09T07:09:48Z</time>
      </trkpt>
      <trkpt lat="44.72063" lon="4.52683">
        <ele>589</ele>
        <time>2022-06-09T07:09:49Z</time>
      </trkpt>
      <trkpt lat="44.72064" lon="4.52683">
        <ele>589.1</ele>
        <time>2022-06-09T07:09:50Z</time>
      </trkpt>
      <trkpt lat="44.72068" lon="4.52684">
        <ele>589.3</ele>
        <time>2022-06-09T07:09:51Z</time>
      </trkpt>
      <trkpt lat="44.72071" lon="4.52686">
        <ele>589.4</ele>
        <time>2022-06-09T07:09:53Z</time>
      </trkpt>
      <trkpt lat="44.72072" lon="4.52687">
        <ele>589.5</ele>
        <time>2022-06-09T07:09:54Z</time>
      </trkpt>
      <trkpt lat="44.72075" lon="4.52689">
        <ele>589.6</ele>
        <time>2022-06-09T07:09:55Z</time>
      </trkpt>
      <trkpt lat="44.72076" lon="4.52689">
        <ele>589.6</ele>
        <time>2022-06-09T07:09:56Z</time>
      </trkpt>
      <trkpt lat="44.72079" lon="4.52691">
        <ele>589.8</ele>
        <time>2022-06-09T07:09:57Z</time>
      </trkpt>
      <trkpt lat="44.72079" lon="4.52692">
        <ele>589.8</ele>
        <time>2022-06-09T07:09:58Z</time>
      </trkpt>
      <trkpt lat="44.72082" lon="4.52694">
        <ele>589.9</ele>
        <time>2022-06-09T07:09:59Z</time>
      </trkpt>
      <trkpt lat="44.72083" lon="4.52695">
        <ele>590</ele>
        <time>2022-06-09T07:10:00Z</time>
      </trkpt>
      <trkpt lat="44.72084" lon="4.52696">
        <ele>590</ele>
        <time>2022-06-09T07:10:01Z</time>
      </trkpt>
      <trkpt lat="44.72085" lon="4.52698">
        <ele>590.1</ele>
        <time>2022-06-09T07:10:02Z</time>
      </trkpt>
      <trkpt lat="44.72088" lon="4.527">
        <ele>590.2</ele>
        <time>2022-06-09T07:10:03Z</time>
      </trkpt>
      <trkpt lat="44.72089" lon="4.527">
        <ele>590.3</ele>
        <time>2022-06-09T07:10:04Z</time>
      </trkpt>
      <trkpt lat="44.7209" lon="4.52702">
        <ele>590.4</ele>
        <time>2022-06-09T07:10:05Z</time>
      </trkpt>
      <trkpt lat="44.72096" lon="4.52705">
        <ele>590.7</ele>
        <time>2022-06-09T07:10:07Z</time>
      </trkpt>
      <trkpt lat="44.72098" lon="4.52707">
        <ele>590.8</ele>
        <time>2022-06-09T07:10:09Z</time>
      </trkpt>
      <trkpt lat="44.72101" lon="4.52709">
        <ele>590.9</ele>
        <time>2022-06-09T07:10:10Z</time>
      </trkpt>
      <trkpt lat="44.72102" lon="4.5271">
        <ele>591</ele>
        <time>2022-06-09T07:10:11Z</time>
      </trkpt>
      <trkpt lat="44.72104" lon="4.52711">
        <ele>591.1</ele>
        <time>2022-06-09T07:10:12Z</time>
      </trkpt>
      <trkpt lat="44.72105" lon="4.52712">
        <ele>591.2</ele>
        <time>2022-06-09T07:10:13Z</time>
      </trkpt>
      <trkpt lat="44.72107" lon="4.52713">
        <ele>591.2</ele>
        <time>2022-06-09T07:10:14Z</time>
      </trkpt>
      <trkpt lat="44.72108" lon="4.52714">
        <ele>591.3</ele>
        <time>2022-06-09T07:10:15Z</time>
      </trkpt>
      <trkpt lat="44.72111" lon="4.52716">
        <ele>591.5</ele>
        <time>2022-06-09T07:10:16Z</time>
      </trkpt>
      <trkpt lat="44.72112" lon="4.52716">
        <ele>591.5</ele>
        <time>2022-06-09T07:10:17Z</time>
      </trkpt>
      <trkpt lat="44.72115" lon="4.52717">
        <ele>591.7</ele>
        <time>2022-06-09T07:10:18Z</time>
      </trkpt>
      <trkpt lat="44.72118" lon="4.52719">
        <ele>591.8</ele>
        <time>2022-06-09T07:10:19Z</time>
      </trkpt>
      <trkpt lat="44.72119" lon="4.52719">
        <ele>591.9</ele>
        <time>2022-06-09T07:10:20Z</time>
      </trkpt>
      <trkpt lat="44.72122" lon="4.5272">
        <ele>592</ele>
        <time>2022-06-09T07:10:21Z</time>
      </trkpt>
      <trkpt lat="44.72126" lon="4.52721">
        <ele>592.2</ele>
        <time>2022-06-09T07:10:22Z</time>
      </trkpt>
      <trkpt lat="44.72131" lon="4.52722">
        <ele>592.4</ele>
        <time>2022-06-09T07:10:25Z</time>
      </trkpt>
      <trkpt lat="44.72133" lon="4.52722">
        <ele>592.5</ele>
        <time>2022-06-09T07:10:26Z</time>
      </trkpt>
      <trkpt lat="44.72139" lon="4.52722">
        <ele>592.7</ele>
        <time>2022-06-09T07:10:28Z</time>
      </trkpt>
      <trkpt lat="44.72142" lon="4.52722">
        <ele>592.9</ele>
        <time>2022-06-09T07:10:29Z</time>
      </trkpt>
      <trkpt lat="44.72145" lon="4.52722">
        <ele>593</ele>
        <time>2022-06-09T07:10:30Z</time>
      </trkpt>
      <trkpt lat="44.72148" lon="4.52722">
        <ele>593.1</ele>
        <time>2022-06-09T07:10:31Z</time>
      </trkpt>
      <trkpt lat="44.72151" lon="4.52722">
        <ele>593.2</ele>
        <time>2022-06-09T07:10:32Z</time>
      </trkpt>
      <trkpt lat="44.72158" lon="4.5272">
        <ele>593.5</ele>
        <time>2022-06-09T07:10:34Z</time>
      </trkpt>
      <trkpt lat="44.72161" lon="4.52719">
        <ele>593.6</ele>
        <time>2022-06-09T07:10:35Z</time>
      </trkpt>
      <trkpt lat="44.72164" lon="4.52719">
        <ele>593.8</ele>
        <time>2022-06-09T07:10:36Z</time>
      </trkpt>
      <trkpt lat="44.72168" lon="4.52718">
        <ele>594</ele>
        <time>2022-06-09T07:10:37Z</time>
      </trkpt>
      <trkpt lat="44.72174" lon="4.52715">
        <ele>594.2</ele>
        <time>2022-06-09T07:10:38Z</time>
      </trkpt>
      <trkpt lat="44.7218" lon="4.52713">
        <ele>594.5</ele>
        <time>2022-06-09T07:10:40Z</time>
      </trkpt>
      <trkpt lat="44.72183" lon="4.52711">
        <ele>594.7</ele>
        <time>2022-06-09T07:10:42Z</time>
      </trkpt>
      <trkpt lat="44.72186" lon="4.5271">
        <ele>594.8</ele>
        <time>2022-06-09T07:10:43Z</time>
      </trkpt>
      <trkpt lat="44.72189" lon="4.52708">
        <ele>594.9</ele>
        <time>2022-06-09T07:10:44Z</time>
      </trkpt>
      <trkpt lat="44.72192" lon="4.52707">
        <ele>595.1</ele>
        <time>2022-06-09T07:10:45Z</time>
      </trkpt>
      <trkpt lat="44.72197" lon="4.52706">
        <ele>595.3</ele>
        <time>2022-06-09T07:10:46Z</time>
      </trkpt>
      <trkpt lat="44.722" lon="4.52704">
        <ele>595.4</ele>
        <time>2022-06-09T07:10:47Z</time>
      </trkpt>
      <trkpt lat="44.72204" lon="4.52703">
        <ele>595.6</ele>
        <time>2022-06-09T07:10:48Z</time>
      </trkpt>
      <trkpt lat="44.72207" lon="4.52702">
        <ele>595.8</ele>
        <time>2022-06-09T07:10:50Z</time>
      </trkpt>
      <trkpt lat="44.7221" lon="4.527">
        <ele>595.9</ele>
        <time>2022-06-09T07:10:51Z</time>
      </trkpt>
      <trkpt lat="44.72213" lon="4.52699">
        <ele>596.1</ele>
        <time>2022-06-09T07:10:52Z</time>
      </trkpt>
      <trkpt lat="44.72216" lon="4.52698">
        <ele>596.2</ele>
        <time>2022-06-09T07:10:53Z</time>
      </trkpt>
      <trkpt lat="44.72221" lon="4.52696">
        <ele>596.5</ele>
        <time>2022-06-09T07:10:54Z</time>
      </trkpt>
      <trkpt lat="44.72225" lon="4.52695">
        <ele>596.7</ele>
        <time>2022-06-09T07:10:56Z</time>
      </trkpt>
      <trkpt lat="44.72227" lon="4.52694">
        <ele>596.8</ele>
        <time>2022-06-09T07:10:57Z</time>
      </trkpt>
      <trkpt lat="44.7223" lon="4.52692">
        <ele>597</ele>
        <time>2022-06-09T07:10:58Z</time>
      </trkpt>
      <trkpt lat="44.72233" lon="4.52691">
        <ele>597.1</ele>
        <time>2022-06-09T07:10:59Z</time>
      </trkpt>
      <trkpt lat="44.72236" lon="4.5269">
        <ele>597.3</ele>
        <time>2022-06-09T07:11:00Z</time>
      </trkpt>
      <trkpt lat="44.72238" lon="4.52689">
        <ele>597.4</ele>
        <time>2022-06-09T07:11:01Z</time>
      </trkpt>
      <trkpt lat="44.72241" lon="4.52688">
        <ele>597.5</ele>
        <time>2022-06-09T07:11:02Z</time>
      </trkpt>
      <trkpt lat="44.72244" lon="4.52687">
        <ele>597.7</ele>
        <time>2022-06-09T07:11:03Z</time>
      </trkpt>
      <trkpt lat="44.72249" lon="4.52685">
        <ele>597.9</ele>
        <time>2022-06-09T07:11:04Z</time>
      </trkpt>
      <trkpt lat="44.72252" lon="4.52684">
        <ele>598.1</ele>
        <time>2022-06-09T07:11:06Z</time>
      </trkpt>
      <trkpt lat="44.72254" lon="4.52682">
        <ele>598.2</ele>
        <time>2022-06-09T07:11:07Z</time>
      </trkpt>
      <trkpt lat="44.72257" lon="4.52681">
        <ele>598.3</ele>
        <time>2022-06-09T07:11:08Z</time>
      </trkpt>
      <trkpt lat="44.7226" lon="4.5268">
        <ele>598.5</ele>
        <time>2022-06-09T07:11:09Z</time>
      </trkpt>
      <trkpt lat="44.72263" lon="4.52677">
        <ele>598.7</ele>
        <time>2022-06-09T07:11:10Z</time>
      </trkpt>
      <trkpt lat="44.72264" lon="4.52677">
        <ele>598.8</ele>
        <time>2022-06-09T07:11:11Z</time>
      </trkpt>
      <trkpt lat="44.72267" lon="4.52674">
        <ele>598.9</ele>
        <time>2022-06-09T07:11:12Z</time>
      </trkpt>
      <trkpt lat="44.72269" lon="4.52673">
        <ele>599</ele>
        <time>2022-06-09T07:11:13Z</time>
      </trkpt>
      <trkpt lat="44.72272" lon="4.5267">
        <ele>599.2</ele>
        <time>2022-06-09T07:11:14Z</time>
      </trkpt>
      <trkpt lat="44.72274" lon="4.52668">
        <ele>599.3</ele>
        <time>2022-06-09T07:11:15Z</time>
      </trkpt>
      <trkpt lat="44.72277" lon="4.52666">
        <ele>599.5</ele>
        <time>2022-06-09T07:11:16Z</time>
      </trkpt>
      <trkpt lat="44.72279" lon="4.52663">
        <ele>599.6</ele>
        <time>2022-06-09T07:11:17Z</time>
      </trkpt>
      <trkpt lat="44.72281" lon="4.5266">
        <ele>599.7</ele>
        <time>2022-06-09T07:11:18Z</time>
      </trkpt>
      <trkpt lat="44.72283" lon="4.52657">
        <ele>599.9</ele>
        <time>2022-06-09T07:11:19Z</time>
      </trkpt>
      <trkpt lat="44.72286" lon="4.52654">
        <ele>600</ele>
        <time>2022-06-09T07:11:20Z</time>
      </trkpt>
      <trkpt lat="44.72288" lon="4.5265">
        <ele>600.1</ele>
        <time>2022-06-09T07:11:21Z</time>
      </trkpt>
      <trkpt lat="44.7229" lon="4.52647">
        <ele>600.3</ele>
        <time>2022-06-09T07:11:22Z</time>
      </trkpt>
      <trkpt lat="44.72292" lon="4.52644">
        <ele>600.4</ele>
        <time>2022-06-09T07:11:23Z</time>
      </trkpt>
      <trkpt lat="44.72294" lon="4.52641">
        <ele>600.5</ele>
        <time>2022-06-09T07:11:24Z</time>
      </trkpt>
      <trkpt lat="44.72296" lon="4.52637">
        <ele>600.7</ele>
        <time>2022-06-09T07:11:25Z</time>
      </trkpt>
      <trkpt lat="44.72298" lon="4.52634">
        <ele>600.8</ele>
        <time>2022-06-09T07:11:26Z</time>
      </trkpt>
      <trkpt lat="44.723" lon="4.5263">
        <ele>601</ele>
        <time>2022-06-09T07:11:27Z</time>
      </trkpt>
      <trkpt lat="44.72302" lon="4.52627">
        <ele>601.1</ele>
        <time>2022-06-09T07:11:28Z</time>
      </trkpt>
      <trkpt lat="44.72304" lon="4.52624">
        <ele>601.2</ele>
        <time>2022-06-09T07:11:29Z</time>
      </trkpt>
      <trkpt lat="44.72307" lon="4.52619">
        <ele>601.4</ele>
        <time>2022-06-09T07:11:30Z</time>
      </trkpt>
      <trkpt lat="44.72308" lon="4.52615">
        <ele>601.4</ele>
        <time>2022-06-09T07:11:32Z</time>
      </trkpt>
      <trkpt lat="44.72311" lon="4.52609">
        <ele>601.5</ele>
        <time>2022-06-09T07:11:33Z</time>
      </trkpt>
      <trkpt lat="44.72313" lon="4.52604">
        <ele>601.6</ele>
        <time>2022-06-09T07:11:35Z</time>
      </trkpt>
      <trkpt lat="44.72315" lon="4.526">
        <ele>601.7</ele>
        <time>2022-06-09T07:11:36Z</time>
      </trkpt>
      <trkpt lat="44.72316" lon="4.52597">
        <ele>601.8</ele>
        <time>2022-06-09T07:11:37Z</time>
      </trkpt>
      <trkpt lat="44.72318" lon="4.52594">
        <ele>601.8</ele>
        <time>2022-06-09T07:11:38Z</time>
      </trkpt>
      <trkpt lat="44.7232" lon="4.52591">
        <ele>601.9</ele>
        <time>2022-06-09T07:11:39Z</time>
      </trkpt>
      <trkpt lat="44.72323" lon="4.52584">
        <ele>602</ele>
        <time>2022-06-09T07:11:41Z</time>
      </trkpt>
      <trkpt lat="44.72325" lon="4.52581">
        <ele>602.1</ele>
        <time>2022-06-09T07:11:42Z</time>
      </trkpt>
      <trkpt lat="44.72327" lon="4.52576">
        <ele>602.2</ele>
        <time>2022-06-09T07:11:43Z</time>
      </trkpt>
      <trkpt lat="44.72328" lon="4.52574">
        <ele>602.2</ele>
        <time>2022-06-09T07:11:44Z</time>
      </trkpt>
      <trkpt lat="44.72331" lon="4.52568">
        <ele>602.4</ele>
        <time>2022-06-09T07:11:45Z</time>
      </trkpt>
      <trkpt lat="44.72332" lon="4.52565">
        <ele>602.4</ele>
        <time>2022-06-09T07:11:46Z</time>
      </trkpt>
      <trkpt lat="44.72335" lon="4.52559">
        <ele>602.5</ele>
        <time>2022-06-09T07:11:48Z</time>
      </trkpt>
      <trkpt lat="44.72336" lon="4.52557">
        <ele>602.6</ele>
        <time>2022-06-09T07:11:49Z</time>
      </trkpt>
      <trkpt lat="44.72337" lon="4.52555">
        <ele>602.6</ele>
        <time>2022-06-09T07:11:50Z</time>
      </trkpt>
      <trkpt lat="44.72339" lon="4.52551">
        <ele>602.7</ele>
        <time>2022-06-09T07:11:51Z</time>
      </trkpt>
      <trkpt lat="44.7234" lon="4.5255">
        <ele>602.8</ele>
        <time>2022-06-09T07:11:52Z</time>
      </trkpt>
      <trkpt lat="44.72341" lon="4.52546">
        <ele>602.9</ele>
        <time>2022-06-09T07:11:53Z</time>
      </trkpt>
      <trkpt lat="44.72342" lon="4.52543">
        <ele>603</ele>
        <time>2022-06-09T07:11:54Z</time>
      </trkpt>
      <trkpt lat="44.72345" lon="4.52537">
        <ele>603.2</ele>
        <time>2022-06-09T07:11:56Z</time>
      </trkpt>
      <trkpt lat="44.72348" lon="4.52533">
        <ele>603.3</ele>
        <time>2022-06-09T07:11:57Z</time>
      </trkpt>
      <trkpt lat="44.72348" lon="4.52531">
        <ele>603.4</ele>
        <time>2022-06-09T07:11:58Z</time>
      </trkpt>
      <trkpt lat="44.7235" lon="4.52523">
        <ele>603.6</ele>
        <time>2022-06-09T07:12:00Z</time>
      </trkpt>
      <trkpt lat="44.72351" lon="4.52518">
        <ele>603.8</ele>
        <time>2022-06-09T07:12:01Z</time>
      </trkpt>
      <trkpt lat="44.72351" lon="4.52516">
        <ele>603.9</ele>
        <time>2022-06-09T07:12:02Z</time>
      </trkpt>
      <trkpt lat="44.72352" lon="4.52512">
        <ele>604</ele>
        <time>2022-06-09T07:12:03Z</time>
      </trkpt>
      <trkpt lat="44.72352" lon="4.52508">
        <ele>604.1</ele>
        <time>2022-06-09T07:12:04Z</time>
      </trkpt>
      <trkpt lat="44.72352" lon="4.52503">
        <ele>604.3</ele>
        <time>2022-06-09T07:12:05Z</time>
      </trkpt>
      <trkpt lat="44.72352" lon="4.52501">
        <ele>604.4</ele>
        <time>2022-06-09T07:12:06Z</time>
      </trkpt>
      <trkpt lat="44.72353" lon="4.52496">
        <ele>604.5</ele>
        <time>2022-06-09T07:12:07Z</time>
      </trkpt>
      <trkpt lat="44.72353" lon="4.52492">
        <ele>604.6</ele>
        <time>2022-06-09T07:12:08Z</time>
      </trkpt>
      <trkpt lat="44.72353" lon="4.52488">
        <ele>604.8</ele>
        <time>2022-06-09T07:12:09Z</time>
      </trkpt>
      <trkpt lat="44.72354" lon="4.5248">
        <ele>605</ele>
        <time>2022-06-09T07:12:10Z</time>
      </trkpt>
      <trkpt lat="44.72353" lon="4.52476">
        <ele>605.1</ele>
        <time>2022-06-09T07:12:12Z</time>
      </trkpt>
      <trkpt lat="44.72353" lon="4.52472">
        <ele>605.3</ele>
        <time>2022-06-09T07:12:13Z</time>
      </trkpt>
      <trkpt lat="44.72352" lon="4.52468">
        <ele>605.4</ele>
        <time>2022-06-09T07:12:14Z</time>
      </trkpt>
      <trkpt lat="44.72352" lon="4.52464">
        <ele>605.5</ele>
        <time>2022-06-09T07:12:15Z</time>
      </trkpt>
      <trkpt lat="44.72351" lon="4.5246">
        <ele>605.6</ele>
        <time>2022-06-09T07:12:16Z</time>
      </trkpt>
      <trkpt lat="44.7235" lon="4.52455">
        <ele>605.8</ele>
        <time>2022-06-09T07:12:17Z</time>
      </trkpt>
      <trkpt lat="44.7235" lon="4.52451">
        <ele>605.9</ele>
        <time>2022-06-09T07:12:18Z</time>
      </trkpt>
      <trkpt lat="44.72349" lon="4.52447">
        <ele>606</ele>
        <time>2022-06-09T07:12:19Z</time>
      </trkpt>
      <trkpt lat="44.72349" lon="4.52444">
        <ele>606.1</ele>
        <time>2022-06-09T07:12:20Z</time>
      </trkpt>
      <trkpt lat="44.72347" lon="4.52436">
        <ele>606.3</ele>
        <time>2022-06-09T07:12:21Z</time>
      </trkpt>
      <trkpt lat="44.72346" lon="4.52432">
        <ele>606.4</ele>
        <time>2022-06-09T07:12:23Z</time>
      </trkpt>
      <trkpt lat="44.72346" lon="4.52428">
        <ele>606.4</ele>
        <time>2022-06-09T07:12:24Z</time>
      </trkpt>
      <trkpt lat="44.72345" lon="4.52422">
        <ele>606.6</ele>
        <time>2022-06-09T07:12:25Z</time>
      </trkpt>
      <trkpt lat="44.72344" lon="4.52421">
        <ele>606.6</ele>
        <time>2022-06-09T07:12:26Z</time>
      </trkpt>
      <trkpt lat="44.72343" lon="4.52416">
        <ele>606.7</ele>
        <time>2022-06-09T07:12:27Z</time>
      </trkpt>
      <trkpt lat="44.72343" lon="4.52414">
        <ele>606.7</ele>
        <time>2022-06-09T07:12:28Z</time>
      </trkpt>
      <trkpt lat="44.72342" lon="4.52409">
        <ele>606.9</ele>
        <time>2022-06-09T07:12:29Z</time>
      </trkpt>
      <trkpt lat="44.72342" lon="4.52407">
        <ele>606.9</ele>
        <time>2022-06-09T07:12:30Z</time>
      </trkpt>
      <trkpt lat="44.72341" lon="4.52402">
        <ele>607</ele>
        <time>2022-06-09T07:12:31Z</time>
      </trkpt>
      <trkpt lat="44.72341" lon="4.524">
        <ele>607.1</ele>
        <time>2022-06-09T07:12:32Z</time>
      </trkpt>
      <trkpt lat="44.72339" lon="4.52396">
        <ele>607.2</ele>
        <time>2022-06-09T07:12:33Z</time>
      </trkpt>
      <trkpt lat="44.72338" lon="4.52388">
        <ele>607.4</ele>
        <time>2022-06-09T07:12:35Z</time>
      </trkpt>
      <trkpt lat="44.72336" lon="4.5238">
        <ele>607.6</ele>
        <time>2022-06-09T07:12:37Z</time>
      </trkpt>
      <trkpt lat="44.72335" lon="4.52375">
        <ele>607.7</ele>
        <time>2022-06-09T07:12:38Z</time>
      </trkpt>
      <trkpt lat="44.72334" lon="4.52374">
        <ele>607.8</ele>
        <time>2022-06-09T07:12:39Z</time>
      </trkpt>
      <trkpt lat="44.72333" lon="4.52369">
        <ele>607.9</ele>
        <time>2022-06-09T07:12:40Z</time>
      </trkpt>
      <trkpt lat="44.72332" lon="4.52367">
        <ele>608</ele>
        <time>2022-06-09T07:12:41Z</time>
      </trkpt>
      <trkpt lat="44.72331" lon="4.52363">
        <ele>608.1</ele>
        <time>2022-06-09T07:12:42Z</time>
      </trkpt>
      <trkpt lat="44.7233" lon="4.5236">
        <ele>608.2</ele>
        <time>2022-06-09T07:12:43Z</time>
      </trkpt>
      <trkpt lat="44.72328" lon="4.52356">
        <ele>608.3</ele>
        <time>2022-06-09T07:12:44Z</time>
      </trkpt>
      <trkpt lat="44.72327" lon="4.52351">
        <ele>608.5</ele>
        <time>2022-06-09T07:12:45Z</time>
      </trkpt>
      <trkpt lat="44.72327" lon="4.52349">
        <ele>608.6</ele>
        <time>2022-06-09T07:12:46Z</time>
      </trkpt>
      <trkpt lat="44.72326" lon="4.52346">
        <ele>608.7</ele>
        <time>2022-06-09T07:12:47Z</time>
      </trkpt>
      <trkpt lat="44.72324" lon="4.52341">
        <ele>608.8</ele>
        <time>2022-06-09T07:12:48Z</time>
      </trkpt>
      <trkpt lat="44.72323" lon="4.52339">
        <ele>608.9</ele>
        <time>2022-06-09T07:12:49Z</time>
      </trkpt>
      <trkpt lat="44.72321" lon="4.52333">
        <ele>609.1</ele>
        <time>2022-06-09T07:12:50Z</time>
      </trkpt>
      <trkpt lat="44.72319" lon="4.52329">
        <ele>609.3</ele>
        <time>2022-06-09T07:12:52Z</time>
      </trkpt>
      <trkpt lat="44.72317" lon="4.52325">
        <ele>609.4</ele>
        <time>2022-06-09T07:12:53Z</time>
      </trkpt>
      <trkpt lat="44.72316" lon="4.52322">
        <ele>609.6</ele>
        <time>2022-06-09T07:12:54Z</time>
      </trkpt>
      <trkpt lat="44.72314" lon="4.52318">
        <ele>609.7</ele>
        <time>2022-06-09T07:12:55Z</time>
      </trkpt>
      <trkpt lat="44.72311" lon="4.52311">
        <ele>610</ele>
        <time>2022-06-09T07:12:56Z</time>
      </trkpt>
      <trkpt lat="44.72309" lon="4.52307">
        <ele>610.2</ele>
        <time>2022-06-09T07:12:58Z</time>
      </trkpt>
      <trkpt lat="44.72307" lon="4.52303">
        <ele>610.3</ele>
        <time>2022-06-09T07:12:59Z</time>
      </trkpt>
      <trkpt lat="44.72305" lon="4.52299">
        <ele>610.5</ele>
        <time>2022-06-09T07:13:00Z</time>
      </trkpt>
      <trkpt lat="44.72303" lon="4.52296">
        <ele>610.6</ele>
        <time>2022-06-09T07:13:01Z</time>
      </trkpt>
      <trkpt lat="44.72301" lon="4.52292">
        <ele>610.7</ele>
        <time>2022-06-09T07:13:02Z</time>
      </trkpt>
      <trkpt lat="44.72299" lon="4.52289">
        <ele>610.9</ele>
        <time>2022-06-09T07:13:03Z</time>
      </trkpt>
      <trkpt lat="44.72297" lon="4.52286">
        <ele>611</ele>
        <time>2022-06-09T07:13:04Z</time>
      </trkpt>
      <trkpt lat="44.72295" lon="4.52283">
        <ele>611.1</ele>
        <time>2022-06-09T07:13:05Z</time>
      </trkpt>
      <trkpt lat="44.72293" lon="4.52279">
        <ele>611.2</ele>
        <time>2022-06-09T07:13:06Z</time>
      </trkpt>
      <trkpt lat="44.72292" lon="4.52275">
        <ele>611.4</ele>
        <time>2022-06-09T07:13:07Z</time>
      </trkpt>
      <trkpt lat="44.7229" lon="4.52272">
        <ele>611.5</ele>
        <time>2022-06-09T07:13:08Z</time>
      </trkpt>
      <trkpt lat="44.72288" lon="4.52268">
        <ele>611.6</ele>
        <time>2022-06-09T07:13:09Z</time>
      </trkpt>
      <trkpt lat="44.72286" lon="4.52265">
        <ele>611.7</ele>
        <time>2022-06-09T07:13:10Z</time>
      </trkpt>
      <trkpt lat="44.72284" lon="4.52261">
        <ele>611.9</ele>
        <time>2022-06-09T07:13:11Z</time>
      </trkpt>
      <trkpt lat="44.72282" lon="4.52258">
        <ele>612</ele>
        <time>2022-06-09T07:13:12Z</time>
      </trkpt>
      <trkpt lat="44.72281" lon="4.52255">
        <ele>612.2</ele>
        <time>2022-06-09T07:13:13Z</time>
      </trkpt>
      <trkpt lat="44.72279" lon="4.52251">
        <ele>612.3</ele>
        <time>2022-06-09T07:13:14Z</time>
      </trkpt>
      <trkpt lat="44.72277" lon="4.52246">
        <ele>612.4</ele>
        <time>2022-06-09T07:13:15Z</time>
      </trkpt>
      <trkpt lat="44.72276" lon="4.52245">
        <ele>612.5</ele>
        <time>2022-06-09T07:13:16Z</time>
      </trkpt>
      <trkpt lat="44.72274" lon="4.5224">
        <ele>612.7</ele>
        <time>2022-06-09T07:13:17Z</time>
      </trkpt>
      <trkpt lat="44.72273" lon="4.52239">
        <ele>612.7</ele>
        <time>2022-06-09T07:13:18Z</time>
      </trkpt>
      <trkpt lat="44.72272" lon="4.52235">
        <ele>612.9</ele>
        <time>2022-06-09T07:13:19Z</time>
      </trkpt>
      <trkpt lat="44.72271" lon="4.52234">
        <ele>612.9</ele>
        <time>2022-06-09T07:13:20Z</time>
      </trkpt>
      <trkpt lat="44.7227" lon="4.5223">
        <ele>613.1</ele>
        <time>2022-06-09T07:13:21Z</time>
      </trkpt>
      <trkpt lat="44.72269" lon="4.52228">
        <ele>613.1</ele>
        <time>2022-06-09T07:13:22Z</time>
      </trkpt>
      <trkpt lat="44.72267" lon="4.52224">
        <ele>613.2</ele>
        <time>2022-06-09T07:13:23Z</time>
      </trkpt>
      <trkpt lat="44.72267" lon="4.52223">
        <ele>613.3</ele>
        <time>2022-06-09T07:13:24Z</time>
      </trkpt>
      <trkpt lat="44.72265" lon="4.52218">
        <ele>613.4</ele>
        <time>2022-06-09T07:13:25Z</time>
      </trkpt>
      <trkpt lat="44.72265" lon="4.52216">
        <ele>613.5</ele>
        <time>2022-06-09T07:13:26Z</time>
      </trkpt>
      <trkpt lat="44.72264" lon="4.52212">
        <ele>613.6</ele>
        <time>2022-06-09T07:13:27Z</time>
      </trkpt>
      <trkpt lat="44.72263" lon="4.5221">
        <ele>613.7</ele>
        <time>2022-06-09T07:13:28Z</time>
      </trkpt>
      <trkpt lat="44.72262" lon="4.52206">
        <ele>613.8</ele>
        <time>2022-06-09T07:13:29Z</time>
      </trkpt>
      <trkpt lat="44.72261" lon="4.52204">
        <ele>613.8</ele>
        <time>2022-06-09T07:13:30Z</time>
      </trkpt>
      <trkpt lat="44.7226" lon="4.522">
        <ele>614</ele>
        <time>2022-06-09T07:13:31Z</time>
      </trkpt>
      <trkpt lat="44.7226" lon="4.52198">
        <ele>614</ele>
        <time>2022-06-09T07:13:32Z</time>
      </trkpt>
      <trkpt lat="44.72259" lon="4.52193">
        <ele>614.2</ele>
        <time>2022-06-09T07:13:33Z</time>
      </trkpt>
      <trkpt lat="44.72259" lon="4.52191">
        <ele>614.2</ele>
        <time>2022-06-09T07:13:34Z</time>
      </trkpt>
      <trkpt lat="44.72258" lon="4.52186">
        <ele>614.4</ele>
        <time>2022-06-09T07:13:35Z</time>
      </trkpt>
      <trkpt lat="44.72258" lon="4.52184">
        <ele>614.4</ele>
        <time>2022-06-09T07:13:36Z</time>
      </trkpt>
      <trkpt lat="44.72257" lon="4.52178">
        <ele>614.6</ele>
        <time>2022-06-09T07:13:37Z</time>
      </trkpt>
      <trkpt lat="44.72256" lon="4.52177">
        <ele>614.7</ele>
        <time>2022-06-09T07:13:38Z</time>
      </trkpt>
      <trkpt lat="44.72256" lon="4.52172">
        <ele>614.8</ele>
        <time>2022-06-09T07:13:39Z</time>
      </trkpt>
      <trkpt lat="44.72255" lon="4.5217">
        <ele>614.9</ele>
        <time>2022-06-09T07:13:40Z</time>
      </trkpt>
      <trkpt lat="44.72255" lon="4.52167">
        <ele>615</ele>
        <time>2022-06-09T07:13:41Z</time>
      </trkpt>
      <trkpt lat="44.72255" lon="4.52157">
        <ele>615.3</ele>
        <time>2022-06-09T07:13:43Z</time>
      </trkpt>
      <trkpt lat="44.72255" lon="4.5215">
        <ele>615.5</ele>
        <time>2022-06-09T07:13:45Z</time>
      </trkpt>
      <trkpt lat="44.72254" lon="4.52147">
        <ele>615.6</ele>
        <time>2022-06-09T07:13:47Z</time>
      </trkpt>
      <trkpt lat="44.72254" lon="4.52142">
        <ele>615.8</ele>
        <time>2022-06-09T07:13:48Z</time>
      </trkpt>
      <trkpt lat="44.72254" lon="4.52141">
        <ele>615.8</ele>
        <time>2022-06-09T07:13:49Z</time>
      </trkpt>
      <trkpt lat="44.72254" lon="4.52136">
        <ele>616</ele>
        <time>2022-06-09T07:13:50Z</time>
      </trkpt>
      <trkpt lat="44.72254" lon="4.52134">
        <ele>616</ele>
        <time>2022-06-09T07:13:51Z</time>
      </trkpt>
      <trkpt lat="44.72254" lon="4.52129">
        <ele>616.2</ele>
        <time>2022-06-09T07:13:52Z</time>
      </trkpt>
      <trkpt lat="44.72254" lon="4.52127">
        <ele>616.2</ele>
        <time>2022-06-09T07:13:53Z</time>
      </trkpt>
      <trkpt lat="44.72254" lon="4.52123">
        <ele>616.4</ele>
        <time>2022-06-09T07:13:54Z</time>
      </trkpt>
      <trkpt lat="44.72255" lon="4.52118">
        <ele>616.5</ele>
        <time>2022-06-09T07:13:55Z</time>
      </trkpt>
      <trkpt lat="44.72255" lon="4.52117">
        <ele>616.6</ele>
        <time>2022-06-09T07:13:56Z</time>
      </trkpt>
      <trkpt lat="44.72255" lon="4.52111">
        <ele>616.8</ele>
        <time>2022-06-09T07:13:57Z</time>
      </trkpt>
      <trkpt lat="44.72255" lon="4.52109">
        <ele>616.8</ele>
        <time>2022-06-09T07:13:58Z</time>
      </trkpt>
      <trkpt lat="44.72255" lon="4.52103">
        <ele>617.1</ele>
        <time>2022-06-09T07:13:59Z</time>
      </trkpt>
      <trkpt lat="44.72255" lon="4.52096">
        <ele>617.3</ele>
        <time>2022-06-09T07:14:01Z</time>
      </trkpt>
      <trkpt lat="44.72255" lon="4.52094">
        <ele>617.4</ele>
        <time>2022-06-09T07:14:02Z</time>
      </trkpt>
      <trkpt lat="44.72255" lon="4.52091">
        <ele>617.5</ele>
        <time>2022-06-09T07:14:03Z</time>
      </trkpt>
      <trkpt lat="44.72255" lon="4.52086">
        <ele>617.7</ele>
        <time>2022-06-09T07:14:04Z</time>
      </trkpt>
      <trkpt lat="44.72255" lon="4.52085">
        <ele>617.8</ele>
        <time>2022-06-09T07:14:05Z</time>
      </trkpt>
      <trkpt lat="44.72255" lon="4.5208">
        <ele>617.9</ele>
        <time>2022-06-09T07:14:06Z</time>
      </trkpt>
      <trkpt lat="44.72255" lon="4.52078">
        <ele>618</ele>
        <time>2022-06-09T07:14:07Z</time>
      </trkpt>
      <trkpt lat="44.72256" lon="4.52073">
        <ele>618.2</ele>
        <time>2022-06-09T07:14:08Z</time>
      </trkpt>
      <trkpt lat="44.72256" lon="4.52072">
        <ele>618.3</ele>
        <time>2022-06-09T07:14:09Z</time>
      </trkpt>
      <trkpt lat="44.72256" lon="4.52067">
        <ele>618.4</ele>
        <time>2022-06-09T07:14:10Z</time>
      </trkpt>
      <trkpt lat="44.72256" lon="4.52065">
        <ele>618.5</ele>
        <time>2022-06-09T07:14:11Z</time>
      </trkpt>
      <trkpt lat="44.72256" lon="4.52061">
        <ele>618.7</ele>
        <time>2022-06-09T07:14:12Z</time>
      </trkpt>
      <trkpt lat="44.72256" lon="4.5206">
        <ele>618.7</ele>
        <time>2022-06-09T07:14:13Z</time>
      </trkpt>
      <trkpt lat="44.72257" lon="4.52056">
        <ele>618.9</ele>
        <time>2022-06-09T07:14:14Z</time>
      </trkpt>
      <trkpt lat="44.72258" lon="4.52054">
        <ele>618.9</ele>
        <time>2022-06-09T07:14:15Z</time>
      </trkpt>
      <trkpt lat="44.72258" lon="4.5205">
        <ele>619.1</ele>
        <time>2022-06-09T07:14:16Z</time>
      </trkpt>
      <trkpt lat="44.72259" lon="4.52049">
        <ele>619.1</ele>
        <time>2022-06-09T07:14:17Z</time>
      </trkpt>
      <trkpt lat="44.72259" lon="4.52044">
        <ele>619.3</ele>
        <time>2022-06-09T07:14:18Z</time>
      </trkpt>
      <trkpt lat="44.72259" lon="4.52043">
        <ele>619.3</ele>
        <time>2022-06-09T07:14:19Z</time>
      </trkpt>
      <trkpt lat="44.7226" lon="4.52038">
        <ele>619.5</ele>
        <time>2022-06-09T07:14:20Z</time>
      </trkpt>
      <trkpt lat="44.7226" lon="4.52037">
        <ele>619.6</ele>
        <time>2022-06-09T07:14:21Z</time>
      </trkpt>
      <trkpt lat="44.72262" lon="4.52033">
        <ele>619.7</ele>
        <time>2022-06-09T07:14:22Z</time>
      </trkpt>
      <trkpt lat="44.72262" lon="4.52031">
        <ele>619.8</ele>
        <time>2022-06-09T07:14:23Z</time>
      </trkpt>
      <trkpt lat="44.72263" lon="4.52027">
        <ele>619.9</ele>
        <time>2022-06-09T07:14:24Z</time>
      </trkpt>
      <trkpt lat="44.72264" lon="4.52025">
        <ele>620</ele>
        <time>2022-06-09T07:14:25Z</time>
      </trkpt>
      <trkpt lat="44.72265" lon="4.52021">
        <ele>620.2</ele>
        <time>2022-06-09T07:14:26Z</time>
      </trkpt>
      <trkpt lat="44.72266" lon="4.5202">
        <ele>620.2</ele>
        <time>2022-06-09T07:14:27Z</time>
      </trkpt>
      <trkpt lat="44.72268" lon="4.52015">
        <ele>620.4</ele>
        <time>2022-06-09T07:14:28Z</time>
      </trkpt>
      <trkpt lat="44.72268" lon="4.52014">
        <ele>620.4</ele>
        <time>2022-06-09T07:14:29Z</time>
      </trkpt>
      <trkpt lat="44.7227" lon="4.5201">
        <ele>620.6</ele>
        <time>2022-06-09T07:14:30Z</time>
      </trkpt>
      <trkpt lat="44.7227" lon="4.52008">
        <ele>620.6</ele>
        <time>2022-06-09T07:14:31Z</time>
      </trkpt>
      <trkpt lat="44.72272" lon="4.52005">
        <ele>620.7</ele>
        <time>2022-06-09T07:14:32Z</time>
      </trkpt>
      <trkpt lat="44.72272" lon="4.52004">
        <ele>620.8</ele>
        <time>2022-06-09T07:14:33Z</time>
      </trkpt>
      <trkpt lat="44.72274" lon="4.52">
        <ele>620.9</ele>
        <time>2022-06-09T07:14:34Z</time>
      </trkpt>
      <trkpt lat="44.72276" lon="4.51995">
        <ele>621</ele>
        <time>2022-06-09T07:14:35Z</time>
      </trkpt>
      <trkpt lat="44.72276" lon="4.51994">
        <ele>621.1</ele>
        <time>2022-06-09T07:14:36Z</time>
      </trkpt>
      <trkpt lat="44.72278" lon="4.51989">
        <ele>621.2</ele>
        <time>2022-06-09T07:14:37Z</time>
      </trkpt>
      <trkpt lat="44.72279" lon="4.51987">
        <ele>621.3</ele>
        <time>2022-06-09T07:14:38Z</time>
      </trkpt>
      <trkpt lat="44.7228" lon="4.51983">
        <ele>621.4</ele>
        <time>2022-06-09T07:14:39Z</time>
      </trkpt>
      <trkpt lat="44.72281" lon="4.51982">
        <ele>621.5</ele>
        <time>2022-06-09T07:14:40Z</time>
      </trkpt>
      <trkpt lat="44.72283" lon="4.51977">
        <ele>621.7</ele>
        <time>2022-06-09T07:14:41Z</time>
      </trkpt>
      <trkpt lat="44.72283" lon="4.51975">
        <ele>621.7</ele>
        <time>2022-06-09T07:14:42Z</time>
      </trkpt>
      <trkpt lat="44.72285" lon="4.51971">
        <ele>621.9</ele>
        <time>2022-06-09T07:14:43Z</time>
      </trkpt>
      <trkpt lat="44.72286" lon="4.51969">
        <ele>621.9</ele>
        <time>2022-06-09T07:14:44Z</time>
      </trkpt>
      <trkpt lat="44.72288" lon="4.51965">
        <ele>622.1</ele>
        <time>2022-06-09T07:14:45Z</time>
      </trkpt>
      <trkpt lat="44.72288" lon="4.51963">
        <ele>622.1</ele>
        <time>2022-06-09T07:14:46Z</time>
      </trkpt>
      <trkpt lat="44.72291" lon="4.51958">
        <ele>622.3</ele>
        <time>2022-06-09T07:14:47Z</time>
      </trkpt>
      <trkpt lat="44.72292" lon="4.51955">
        <ele>622.4</ele>
        <time>2022-06-09T07:14:48Z</time>
      </trkpt>
      <trkpt lat="44.72294" lon="4.51951">
        <ele>622.6</ele>
        <time>2022-06-09T07:14:50Z</time>
      </trkpt>
      <trkpt lat="44.72296" lon="4.51946">
        <ele>622.8</ele>
        <time>2022-06-09T07:14:51Z</time>
      </trkpt>
      <trkpt lat="44.72298" lon="4.51941">
        <ele>623</ele>
        <time>2022-06-09T07:14:53Z</time>
      </trkpt>
      <trkpt lat="44.72298" lon="4.5194">
        <ele>623</ele>
        <time>2022-06-09T07:14:54Z</time>
      </trkpt>
      <trkpt lat="44.723" lon="4.51935">
        <ele>623.2</ele>
        <time>2022-06-09T07:14:55Z</time>
      </trkpt>
      <trkpt lat="44.72301" lon="4.51933">
        <ele>623.3</ele>
        <time>2022-06-09T07:14:56Z</time>
      </trkpt>
      <trkpt lat="44.72302" lon="4.51929">
        <ele>623.4</ele>
        <time>2022-06-09T07:14:57Z</time>
      </trkpt>
      <trkpt lat="44.72303" lon="4.51927">
        <ele>623.5</ele>
        <time>2022-06-09T07:14:58Z</time>
      </trkpt>
      <trkpt lat="44.72305" lon="4.51923">
        <ele>623.7</ele>
        <time>2022-06-09T07:14:59Z</time>
      </trkpt>
      <trkpt lat="44.72305" lon="4.51921">
        <ele>623.7</ele>
        <time>2022-06-09T07:15:00Z</time>
      </trkpt>
      <trkpt lat="44.72307" lon="4.51917">
        <ele>623.9</ele>
        <time>2022-06-09T07:15:01Z</time>
      </trkpt>
      <trkpt lat="44.72307" lon="4.51916">
        <ele>623.9</ele>
        <time>2022-06-09T07:15:02Z</time>
      </trkpt>
      <trkpt lat="44.72309" lon="4.51911">
        <ele>624.1</ele>
        <time>2022-06-09T07:15:03Z</time>
      </trkpt>
      <trkpt lat="44.7231" lon="4.51909">
        <ele>624.1</ele>
        <time>2022-06-09T07:15:04Z</time>
      </trkpt>
      <trkpt lat="44.72312" lon="4.51905">
        <ele>624.3</ele>
        <time>2022-06-09T07:15:05Z</time>
      </trkpt>
      <trkpt lat="44.72312" lon="4.51903">
        <ele>624.4</ele>
        <time>2022-06-09T07:15:06Z</time>
      </trkpt>
      <trkpt lat="44.72314" lon="4.51898">
        <ele>624.6</ele>
        <time>2022-06-09T07:15:07Z</time>
      </trkpt>
      <trkpt lat="44.72315" lon="4.51896">
        <ele>624.6</ele>
        <time>2022-06-09T07:15:08Z</time>
      </trkpt>
      <trkpt lat="44.72317" lon="4.51893">
        <ele>624.8</ele>
        <time>2022-06-09T07:15:09Z</time>
      </trkpt>
      <trkpt lat="44.72318" lon="4.5189">
        <ele>624.9</ele>
        <time>2022-06-09T07:15:10Z</time>
      </trkpt>
      <trkpt lat="44.7232" lon="4.51886">
        <ele>625</ele>
        <time>2022-06-09T07:15:11Z</time>
      </trkpt>
      <trkpt lat="44.72321" lon="4.51883">
        <ele>625.1</ele>
        <time>2022-06-09T07:15:12Z</time>
      </trkpt>
      <trkpt lat="44.72324" lon="4.51877">
        <ele>625.3</ele>
        <time>2022-06-09T07:15:13Z</time>
      </trkpt>
      <trkpt lat="44.72326" lon="4.51874">
        <ele>625.4</ele>
        <time>2022-06-09T07:15:14Z</time>
      </trkpt>
      <trkpt lat="44.72327" lon="4.51871">
        <ele>625.6</ele>
        <time>2022-06-09T07:15:15Z</time>
      </trkpt>
      <trkpt lat="44.72329" lon="4.51867">
        <ele>625.7</ele>
        <time>2022-06-09T07:15:17Z</time>
      </trkpt>
      <trkpt lat="44.72331" lon="4.51865">
        <ele>625.8</ele>
        <time>2022-06-09T07:15:18Z</time>
      </trkpt>
      <trkpt lat="44.72333" lon="4.51862">
        <ele>625.9</ele>
        <time>2022-06-09T07:15:19Z</time>
      </trkpt>
      <trkpt lat="44.72334" lon="4.51858">
        <ele>626</ele>
        <time>2022-06-09T07:15:20Z</time>
      </trkpt>
      <trkpt lat="44.72336" lon="4.51855">
        <ele>626.1</ele>
        <time>2022-06-09T07:15:21Z</time>
      </trkpt>
      <trkpt lat="44.72338" lon="4.5185">
        <ele>626.2</ele>
        <time>2022-06-09T07:15:22Z</time>
      </trkpt>
      <trkpt lat="44.72339" lon="4.51849">
        <ele>626.3</ele>
        <time>2022-06-09T07:15:23Z</time>
      </trkpt>
      <trkpt lat="44.7234" lon="4.51845">
        <ele>626.4</ele>
        <time>2022-06-09T07:15:24Z</time>
      </trkpt>
      <trkpt lat="44.72342" lon="4.51843">
        <ele>626.5</ele>
        <time>2022-06-09T07:15:25Z</time>
      </trkpt>
      <trkpt lat="44.72346" lon="4.5184">
        <ele>626.6</ele>
        <time>2022-06-09T07:15:26Z</time>
      </trkpt>
      <trkpt lat="44.72347" lon="4.51838">
        <ele>626.7</ele>
        <time>2022-06-09T07:15:27Z</time>
      </trkpt>
      <trkpt lat="44.72349" lon="4.51836">
        <ele>626.8</ele>
        <time>2022-06-09T07:15:28Z</time>
      </trkpt>
      <trkpt lat="44.72354" lon="4.51832">
        <ele>627</ele>
        <time>2022-06-09T07:15:30Z</time>
      </trkpt>
      <trkpt lat="44.72356" lon="4.5183">
        <ele>627.1</ele>
        <time>2022-06-09T07:15:31Z</time>
      </trkpt>
      <trkpt lat="44.72358" lon="4.51827">
        <ele>627.3</ele>
        <time>2022-06-09T07:15:32Z</time>
      </trkpt>
      <trkpt lat="44.72361" lon="4.51824">
        <ele>627.4</ele>
        <time>2022-06-09T07:15:33Z</time>
      </trkpt>
      <trkpt lat="44.72363" lon="4.51822">
        <ele>627.5</ele>
        <time>2022-06-09T07:15:34Z</time>
      </trkpt>
      <trkpt lat="44.72365" lon="4.51819">
        <ele>627.7</ele>
        <time>2022-06-09T07:15:35Z</time>
      </trkpt>
      <trkpt lat="44.72367" lon="4.51817">
        <ele>627.8</ele>
        <time>2022-06-09T07:15:36Z</time>
      </trkpt>
      <trkpt lat="44.7237" lon="4.51815">
        <ele>627.9</ele>
        <time>2022-06-09T07:15:37Z</time>
      </trkpt>
      <trkpt lat="44.72373" lon="4.51814">
        <ele>628.1</ele>
        <time>2022-06-09T07:15:38Z</time>
      </trkpt>
      <trkpt lat="44.72375" lon="4.51815">
        <ele>628.1</ele>
        <time>2022-06-09T07:15:39Z</time>
      </trkpt>
      <trkpt lat="44.72379" lon="4.51811">
        <ele>628.3</ele>
        <time>2022-06-09T07:15:40Z</time>
      </trkpt>
      <trkpt lat="44.72381" lon="4.51809">
        <ele>628.5</ele>
        <time>2022-06-09T07:15:41Z</time>
      </trkpt>
      <trkpt lat="44.72383" lon="4.51806">
        <ele>628.6</ele>
        <time>2022-06-09T07:15:43Z</time>
      </trkpt>
      <trkpt lat="44.72385" lon="4.51803">
        <ele>628.7</ele>
        <time>2022-06-09T07:15:44Z</time>
      </trkpt>
      <trkpt lat="44.72387" lon="4.518">
        <ele>628.9</ele>
        <time>2022-06-09T07:15:45Z</time>
      </trkpt>
      <trkpt lat="44.72389" lon="4.51797">
        <ele>629</ele>
        <time>2022-06-09T07:15:46Z</time>
      </trkpt>
      <trkpt lat="44.7239" lon="4.51794">
        <ele>629.2</ele>
        <time>2022-06-09T07:15:47Z</time>
      </trkpt>
      <trkpt lat="44.72392" lon="4.5179">
        <ele>629.4</ele>
        <time>2022-06-09T07:15:48Z</time>
      </trkpt>
      <trkpt lat="44.72394" lon="4.51786">
        <ele>629.5</ele>
        <time>2022-06-09T07:15:49Z</time>
      </trkpt>
      <trkpt lat="44.72395" lon="4.51782">
        <ele>629.7</ele>
        <time>2022-06-09T07:15:50Z</time>
      </trkpt>
      <trkpt lat="44.72396" lon="4.51779">
        <ele>629.8</ele>
        <time>2022-06-09T07:15:51Z</time>
      </trkpt>
      <trkpt lat="44.72398" lon="4.51775">
        <ele>630</ele>
        <time>2022-06-09T07:15:52Z</time>
      </trkpt>
      <trkpt lat="44.72399" lon="4.51771">
        <ele>630.1</ele>
        <time>2022-06-09T07:15:53Z</time>
      </trkpt>
      <trkpt lat="44.724" lon="4.51767">
        <ele>630.3</ele>
        <time>2022-06-09T07:15:54Z</time>
      </trkpt>
      <trkpt lat="44.72401" lon="4.51763">
        <ele>630.4</ele>
        <time>2022-06-09T07:15:55Z</time>
      </trkpt>
      <trkpt lat="44.72401" lon="4.51759">
        <ele>630.6</ele>
        <time>2022-06-09T07:15:56Z</time>
      </trkpt>
      <trkpt lat="44.72402" lon="4.51755">
        <ele>630.7</ele>
        <time>2022-06-09T07:15:57Z</time>
      </trkpt>
      <trkpt lat="44.72403" lon="4.51751">
        <ele>630.8</ele>
        <time>2022-06-09T07:15:58Z</time>
      </trkpt>
      <trkpt lat="44.72403" lon="4.51746">
        <ele>631</ele>
        <time>2022-06-09T07:15:59Z</time>
      </trkpt>
      <trkpt lat="44.72403" lon="4.51742">
        <ele>631.2</ele>
        <time>2022-06-09T07:16:00Z</time>
      </trkpt>
      <trkpt lat="44.72404" lon="4.51737">
        <ele>631.4</ele>
        <time>2022-06-09T07:16:01Z</time>
      </trkpt>
      <trkpt lat="44.72405" lon="4.51729">
        <ele>631.7</ele>
        <time>2022-06-09T07:16:02Z</time>
      </trkpt>
      <trkpt lat="44.72406" lon="4.51725">
        <ele>631.9</ele>
        <time>2022-06-09T07:16:04Z</time>
      </trkpt>
      <trkpt lat="44.72406" lon="4.51718">
        <ele>632.2</ele>
        <time>2022-06-09T07:16:05Z</time>
      </trkpt>
      <trkpt lat="44.72406" lon="4.51714">
        <ele>632.3</ele>
        <time>2022-06-09T07:16:06Z</time>
      </trkpt>
      <trkpt lat="44.72407" lon="4.51709">
        <ele>632.5</ele>
        <time>2022-06-09T07:16:08Z</time>
      </trkpt>
      <trkpt lat="44.72407" lon="4.51705">
        <ele>632.7</ele>
        <time>2022-06-09T07:16:09Z</time>
      </trkpt>
      <trkpt lat="44.72407" lon="4.517">
        <ele>632.9</ele>
        <time>2022-06-09T07:16:10Z</time>
      </trkpt>
      <trkpt lat="44.72407" lon="4.51695">
        <ele>633.1</ele>
        <time>2022-06-09T07:16:11Z</time>
      </trkpt>
      <trkpt lat="44.72408" lon="4.51691">
        <ele>633.2</ele>
        <time>2022-06-09T07:16:12Z</time>
      </trkpt>
      <trkpt lat="44.72409" lon="4.51686">
        <ele>633.5</ele>
        <time>2022-06-09T07:16:13Z</time>
      </trkpt>
      <trkpt lat="44.72409" lon="4.51681">
        <ele>633.6</ele>
        <time>2022-06-09T07:16:15Z</time>
      </trkpt>
      <trkpt lat="44.72408" lon="4.51677">
        <ele>633.8</ele>
        <time>2022-06-09T07:16:16Z</time>
      </trkpt>
      <trkpt lat="44.72409" lon="4.5167">
        <ele>634</ele>
        <time>2022-06-09T07:16:17Z</time>
      </trkpt>
      <trkpt lat="44.72408" lon="4.51663">
        <ele>634.3</ele>
        <time>2022-06-09T07:16:19Z</time>
      </trkpt>
      <trkpt lat="44.72408" lon="4.5166">
        <ele>634.4</ele>
        <time>2022-06-09T07:16:20Z</time>
      </trkpt>
      <trkpt lat="44.72408" lon="4.51658">
        <ele>634.5</ele>
        <time>2022-06-09T07:16:21Z</time>
      </trkpt>
      <trkpt lat="44.72407" lon="4.51654">
        <ele>634.7</ele>
        <time>2022-06-09T07:16:22Z</time>
      </trkpt>
      <trkpt lat="44.72407" lon="4.51648">
        <ele>634.9</ele>
        <time>2022-06-09T07:16:23Z</time>
      </trkpt>
      <trkpt lat="44.72405" lon="4.51642">
        <ele>635.2</ele>
        <time>2022-06-09T07:16:25Z</time>
      </trkpt>
      <trkpt lat="44.72404" lon="4.51637">
        <ele>635.4</ele>
        <time>2022-06-09T07:16:26Z</time>
      </trkpt>
      <trkpt lat="44.72403" lon="4.51635">
        <ele>635.4</ele>
        <time>2022-06-09T07:16:27Z</time>
      </trkpt>
      <trkpt lat="44.72402" lon="4.5163">
        <ele>635.6</ele>
        <time>2022-06-09T07:16:28Z</time>
      </trkpt>
      <trkpt lat="44.72401" lon="4.51629">
        <ele>635.7</ele>
        <time>2022-06-09T07:16:29Z</time>
      </trkpt>
      <trkpt lat="44.72399" lon="4.51623">
        <ele>635.9</ele>
        <time>2022-06-09T07:16:30Z</time>
      </trkpt>
      <trkpt lat="44.72398" lon="4.51621">
        <ele>636</ele>
        <time>2022-06-09T07:16:31Z</time>
      </trkpt>
      <trkpt lat="44.72396" lon="4.51616">
        <ele>636.2</ele>
        <time>2022-06-09T07:16:33Z</time>
      </trkpt>
      <trkpt lat="44.72394" lon="4.51612">
        <ele>636.4</ele>
        <time>2022-06-09T07:16:34Z</time>
      </trkpt>
      <trkpt lat="44.72393" lon="4.5161">
        <ele>636.5</ele>
        <time>2022-06-09T07:16:35Z</time>
      </trkpt>
      <trkpt lat="44.72391" lon="4.51606">
        <ele>636.7</ele>
        <time>2022-06-09T07:16:36Z</time>
      </trkpt>
      <trkpt lat="44.7239" lon="4.51605">
        <ele>636.7</ele>
        <time>2022-06-09T07:16:37Z</time>
      </trkpt>
      <trkpt lat="44.72388" lon="4.516">
        <ele>636.9</ele>
        <time>2022-06-09T07:16:38Z</time>
      </trkpt>
      <trkpt lat="44.72387" lon="4.51599">
        <ele>636.9</ele>
        <time>2022-06-09T07:16:39Z</time>
      </trkpt>
      <trkpt lat="44.72385" lon="4.51595">
        <ele>637.1</ele>
        <time>2022-06-09T07:16:40Z</time>
      </trkpt>
      <trkpt lat="44.72384" lon="4.51594">
        <ele>637.1</ele>
        <time>2022-06-09T07:16:41Z</time>
      </trkpt>
      <trkpt lat="44.72381" lon="4.51591">
        <ele>637.3</ele>
        <time>2022-06-09T07:16:42Z</time>
      </trkpt>
      <trkpt lat="44.7238" lon="4.5159">
        <ele>637.3</ele>
        <time>2022-06-09T07:16:43Z</time>
      </trkpt>
      <trkpt lat="44.72377" lon="4.51586">
        <ele>637.5</ele>
        <time>2022-06-09T07:16:44Z</time>
      </trkpt>
      <trkpt lat="44.72376" lon="4.51585">
        <ele>637.5</ele>
        <time>2022-06-09T07:16:45Z</time>
      </trkpt>
      <trkpt lat="44.72375" lon="4.51581">
        <ele>637.6</ele>
        <time>2022-06-09T07:16:46Z</time>
      </trkpt>
      <trkpt lat="44.72373" lon="4.51577">
        <ele>637.8</ele>
        <time>2022-06-09T07:16:47Z</time>
      </trkpt>
      <trkpt lat="44.72372" lon="4.51575">
        <ele>637.9</ele>
        <time>2022-06-09T07:16:48Z</time>
      </trkpt>
      <trkpt lat="44.7237" lon="4.5157">
        <ele>638.1</ele>
        <time>2022-06-09T07:16:49Z</time>
      </trkpt>
      <trkpt lat="44.7237" lon="4.51569">
        <ele>638.1</ele>
        <time>2022-06-09T07:16:50Z</time>
      </trkpt>
      <trkpt lat="44.72368" lon="4.51564">
        <ele>638.3</ele>
        <time>2022-06-09T07:16:51Z</time>
      </trkpt>
      <trkpt lat="44.72368" lon="4.51563">
        <ele>638.4</ele>
        <time>2022-06-09T07:16:52Z</time>
      </trkpt>
      <trkpt lat="44.72366" lon="4.51557">
        <ele>638.5</ele>
        <time>2022-06-09T07:16:53Z</time>
      </trkpt>
      <trkpt lat="44.72366" lon="4.51556">
        <ele>638.6</ele>
        <time>2022-06-09T07:16:54Z</time>
      </trkpt>
      <trkpt lat="44.72365" lon="4.5155">
        <ele>638.8</ele>
        <time>2022-06-09T07:16:55Z</time>
      </trkpt>
      <trkpt lat="44.72365" lon="4.51548">
        <ele>638.9</ele>
        <time>2022-06-09T07:16:56Z</time>
      </trkpt>
      <trkpt lat="44.72364" lon="4.51543">
        <ele>639</ele>
        <time>2022-06-09T07:16:57Z</time>
      </trkpt>
      <trkpt lat="44.72364" lon="4.51541">
        <ele>639.1</ele>
        <time>2022-06-09T07:16:58Z</time>
      </trkpt>
      <trkpt lat="44.72364" lon="4.51536">
        <ele>639.2</ele>
        <time>2022-06-09T07:16:59Z</time>
      </trkpt>
      <trkpt lat="44.72364" lon="4.51534">
        <ele>639.3</ele>
        <time>2022-06-09T07:17:00Z</time>
      </trkpt>
      <trkpt lat="44.72365" lon="4.5153">
        <ele>639.4</ele>
        <time>2022-06-09T07:17:01Z</time>
      </trkpt>
      <trkpt lat="44.72365" lon="4.51528">
        <ele>639.5</ele>
        <time>2022-06-09T07:17:02Z</time>
      </trkpt>
      <trkpt lat="44.72366" lon="4.51524">
        <ele>639.6</ele>
        <time>2022-06-09T07:17:03Z</time>
      </trkpt>
      <trkpt lat="44.72367" lon="4.5152">
        <ele>639.7</ele>
        <time>2022-06-09T07:17:04Z</time>
      </trkpt>
      <trkpt lat="44.72368" lon="4.51515">
        <ele>640</ele>
        <time>2022-06-09T07:17:06Z</time>
      </trkpt>
      <trkpt lat="44.7237" lon="4.51508">
        <ele>640.4</ele>
        <time>2022-06-09T07:17:07Z</time>
      </trkpt>
      <trkpt lat="44.72371" lon="4.51504">
        <ele>640.6</ele>
        <time>2022-06-09T07:17:08Z</time>
      </trkpt>
      <trkpt lat="44.72373" lon="4.51501">
        <ele>640.8</ele>
        <time>2022-06-09T07:17:10Z</time>
      </trkpt>
      <trkpt lat="44.72374" lon="4.51495">
        <ele>641.1</ele>
        <time>2022-06-09T07:17:11Z</time>
      </trkpt>
      <trkpt lat="44.72375" lon="4.5149">
        <ele>641.4</ele>
        <time>2022-06-09T07:17:12Z</time>
      </trkpt>
      <trkpt lat="44.72376" lon="4.51488">
        <ele>641.5</ele>
        <time>2022-06-09T07:17:13Z</time>
      </trkpt>
      <trkpt lat="44.72377" lon="4.51483">
        <ele>641.7</ele>
        <time>2022-06-09T07:17:15Z</time>
      </trkpt>
      <trkpt lat="44.72378" lon="4.51479">
        <ele>641.9</ele>
        <time>2022-06-09T07:17:16Z</time>
      </trkpt>
      <trkpt lat="44.72379" lon="4.51475">
        <ele>642.1</ele>
        <time>2022-06-09T07:17:17Z</time>
      </trkpt>
      <trkpt lat="44.7238" lon="4.5147">
        <ele>642.4</ele>
        <time>2022-06-09T07:17:18Z</time>
      </trkpt>
      <trkpt lat="44.72381" lon="4.51468">
        <ele>642.5</ele>
        <time>2022-06-09T07:17:19Z</time>
      </trkpt>
      <trkpt lat="44.72381" lon="4.51465">
        <ele>642.6</ele>
        <time>2022-06-09T07:17:20Z</time>
      </trkpt>
      <trkpt lat="44.72382" lon="4.51457">
        <ele>642.8</ele>
        <time>2022-06-09T07:17:22Z</time>
      </trkpt>
      <trkpt lat="44.72382" lon="4.51452">
        <ele>642.9</ele>
        <time>2022-06-09T07:17:23Z</time>
      </trkpt>
      <trkpt lat="44.72382" lon="4.5145">
        <ele>643</ele>
        <time>2022-06-09T07:17:24Z</time>
      </trkpt>
      <trkpt lat="44.72382" lon="4.51443">
        <ele>643.2</ele>
        <time>2022-06-09T07:17:25Z</time>
      </trkpt>
      <trkpt lat="44.72382" lon="4.51439">
        <ele>643.3</ele>
        <time>2022-06-09T07:17:26Z</time>
      </trkpt>
      <trkpt lat="44.72381" lon="4.51435">
        <ele>643.4</ele>
        <time>2022-06-09T07:17:28Z</time>
      </trkpt>
      <trkpt lat="44.7238" lon="4.51431">
        <ele>643.5</ele>
        <time>2022-06-09T07:17:29Z</time>
      </trkpt>
      <trkpt lat="44.7238" lon="4.51427">
        <ele>643.6</ele>
        <time>2022-06-09T07:17:30Z</time>
      </trkpt>
      <trkpt lat="44.72379" lon="4.51424">
        <ele>643.7</ele>
        <time>2022-06-09T07:17:31Z</time>
      </trkpt>
      <trkpt lat="44.72378" lon="4.5142">
        <ele>643.9</ele>
        <time>2022-06-09T07:17:32Z</time>
      </trkpt>
      <trkpt lat="44.72376" lon="4.51417">
        <ele>644</ele>
        <time>2022-06-09T07:17:33Z</time>
      </trkpt>
      <trkpt lat="44.72375" lon="4.51413">
        <ele>644.1</ele>
        <time>2022-06-09T07:17:34Z</time>
      </trkpt>
      <trkpt lat="44.72371" lon="4.51407">
        <ele>644.3</ele>
        <time>2022-06-09T07:17:35Z</time>
      </trkpt>
      <trkpt lat="44.72368" lon="4.51402">
        <ele>644.5</ele>
        <time>2022-06-09T07:17:37Z</time>
      </trkpt>
      <trkpt lat="44.72367" lon="4.51401">
        <ele>644.6</ele>
        <time>2022-06-09T07:17:38Z</time>
      </trkpt>
      <trkpt lat="44.72365" lon="4.51399">
        <ele>644.7</ele>
        <time>2022-06-09T07:17:39Z</time>
      </trkpt>
      <trkpt lat="44.72363" lon="4.51395">
        <ele>644.9</ele>
        <time>2022-06-09T07:17:40Z</time>
      </trkpt>
      <trkpt lat="44.72362" lon="4.51393">
        <ele>645</ele>
        <time>2022-06-09T07:17:41Z</time>
      </trkpt>
      <trkpt lat="44.7236" lon="4.5139">
        <ele>645.1</ele>
        <time>2022-06-09T07:17:42Z</time>
      </trkpt>
      <trkpt lat="44.72358" lon="4.51386">
        <ele>645.3</ele>
        <time>2022-06-09T07:17:43Z</time>
      </trkpt>
      <trkpt lat="44.72355" lon="4.5138">
        <ele>645.6</ele>
        <time>2022-06-09T07:17:44Z</time>
      </trkpt>
      <trkpt lat="44.72352" lon="4.51376">
        <ele>645.8</ele>
        <time>2022-06-09T07:17:46Z</time>
      </trkpt>
      <trkpt lat="44.7235" lon="4.51372">
        <ele>645.9</ele>
        <time>2022-06-09T07:17:47Z</time>
      </trkpt>
      <trkpt lat="44.72348" lon="4.51369">
        <ele>646.1</ele>
        <time>2022-06-09T07:17:48Z</time>
      </trkpt>
      <trkpt lat="44.72346" lon="4.51366">
        <ele>646.2</ele>
        <time>2022-06-09T07:17:49Z</time>
      </trkpt>
      <trkpt lat="44.72344" lon="4.51363">
        <ele>646.4</ele>
        <time>2022-06-09T07:17:50Z</time>
      </trkpt>
      <trkpt lat="44.72342" lon="4.5136">
        <ele>646.5</ele>
        <time>2022-06-09T07:17:51Z</time>
      </trkpt>
      <trkpt lat="44.72339" lon="4.51356">
        <ele>646.7</ele>
        <time>2022-06-09T07:17:52Z</time>
      </trkpt>
      <trkpt lat="44.72337" lon="4.51351">
        <ele>646.9</ele>
        <time>2022-06-09T07:17:53Z</time>
      </trkpt>
      <trkpt lat="44.72333" lon="4.51346">
        <ele>647.1</ele>
        <time>2022-06-09T07:17:55Z</time>
      </trkpt>
      <trkpt lat="44.72332" lon="4.51344">
        <ele>647.2</ele>
        <time>2022-06-09T07:17:56Z</time>
      </trkpt>
      <trkpt lat="44.72331" lon="4.51342">
        <ele>647.3</ele>
        <time>2022-06-09T07:17:57Z</time>
      </trkpt>
      <trkpt lat="44.72329" lon="4.51338">
        <ele>647.5</ele>
        <time>2022-06-09T07:17:58Z</time>
      </trkpt>
      <trkpt lat="44.72326" lon="4.51334">
        <ele>647.7</ele>
        <time>2022-06-09T07:17:59Z</time>
      </trkpt>
      <trkpt lat="44.72324" lon="4.5133">
        <ele>647.9</ele>
        <time>2022-06-09T07:18:00Z</time>
      </trkpt>
      <trkpt lat="44.72322" lon="4.51327">
        <ele>648</ele>
        <time>2022-06-09T07:18:01Z</time>
      </trkpt>
      <trkpt lat="44.72318" lon="4.51321">
        <ele>648.2</ele>
        <time>2022-06-09T07:18:03Z</time>
      </trkpt>
      <trkpt lat="44.72317" lon="4.51319">
        <ele>648.3</ele>
        <time>2022-06-09T07:18:04Z</time>
      </trkpt>
      <trkpt lat="44.72316" lon="4.51318">
        <ele>648.3</ele>
        <time>2022-06-09T07:18:05Z</time>
      </trkpt>
      <trkpt lat="44.72313" lon="4.51314">
        <ele>648.5</ele>
        <time>2022-06-09T07:18:06Z</time>
      </trkpt>
      <trkpt lat="44.72312" lon="4.51312">
        <ele>648.5</ele>
        <time>2022-06-09T07:18:07Z</time>
      </trkpt>
      <trkpt lat="44.7231" lon="4.5131">
        <ele>648.7</ele>
        <time>2022-06-09T07:18:08Z</time>
      </trkpt>
      <trkpt lat="44.72308" lon="4.51305">
        <ele>648.9</ele>
        <time>2022-06-09T07:18:09Z</time>
      </trkpt>
      <trkpt lat="44.72307" lon="4.51304">
        <ele>648.9</ele>
        <time>2022-06-09T07:18:10Z</time>
      </trkpt>
      <trkpt lat="44.72304" lon="4.513">
        <ele>649.1</ele>
        <time>2022-06-09T07:18:11Z</time>
      </trkpt>
      <trkpt lat="44.72303" lon="4.51298">
        <ele>649.2</ele>
        <time>2022-06-09T07:18:12Z</time>
      </trkpt>
      <trkpt lat="44.72302" lon="4.51295">
        <ele>649.3</ele>
        <time>2022-06-09T07:18:13Z</time>
      </trkpt>
      <trkpt lat="44.723" lon="4.51292">
        <ele>649.5</ele>
        <time>2022-06-09T07:18:14Z</time>
      </trkpt>
      <trkpt lat="44.72298" lon="4.51289">
        <ele>649.7</ele>
        <time>2022-06-09T07:18:15Z</time>
      </trkpt>
      <trkpt lat="44.72296" lon="4.51286">
        <ele>649.8</ele>
        <time>2022-06-09T07:18:16Z</time>
      </trkpt>
      <trkpt lat="44.72295" lon="4.51282">
        <ele>650</ele>
        <time>2022-06-09T07:18:17Z</time>
      </trkpt>
      <trkpt lat="44.72293" lon="4.51279">
        <ele>650.1</ele>
        <time>2022-06-09T07:18:18Z</time>
      </trkpt>
      <trkpt lat="44.72291" lon="4.51276">
        <ele>650.3</ele>
        <time>2022-06-09T07:18:19Z</time>
      </trkpt>
      <trkpt lat="44.7229" lon="4.51273">
        <ele>650.4</ele>
        <time>2022-06-09T07:18:20Z</time>
      </trkpt>
      <trkpt lat="44.72288" lon="4.5127">
        <ele>650.6</ele>
        <time>2022-06-09T07:18:21Z</time>
      </trkpt>
      <trkpt lat="44.72287" lon="4.51266">
        <ele>650.7</ele>
        <time>2022-06-09T07:18:22Z</time>
      </trkpt>
      <trkpt lat="44.72284" lon="4.51262">
        <ele>650.9</ele>
        <time>2022-06-09T07:18:23Z</time>
      </trkpt>
      <trkpt lat="44.72283" lon="4.51261">
        <ele>651</ele>
        <time>2022-06-09T07:18:24Z</time>
      </trkpt>
      <trkpt lat="44.72281" lon="4.51256">
        <ele>651.2</ele>
        <time>2022-06-09T07:18:25Z</time>
      </trkpt>
      <trkpt lat="44.7228" lon="4.51255">
        <ele>651.3</ele>
        <time>2022-06-09T07:18:26Z</time>
      </trkpt>
      <trkpt lat="44.72278" lon="4.5125">
        <ele>651.5</ele>
        <time>2022-06-09T07:18:27Z</time>
      </trkpt>
      <trkpt lat="44.72277" lon="4.51249">
        <ele>651.5</ele>
        <time>2022-06-09T07:18:28Z</time>
      </trkpt>
      <trkpt lat="44.72276" lon="4.51245">
        <ele>651.7</ele>
        <time>2022-06-09T07:18:29Z</time>
      </trkpt>
      <trkpt lat="44.72276" lon="4.51244">
        <ele>651.7</ele>
        <time>2022-06-09T07:18:30Z</time>
      </trkpt>
      <trkpt lat="44.72276" lon="4.5124">
        <ele>651.9</ele>
        <time>2022-06-09T07:18:31Z</time>
      </trkpt>
      <trkpt lat="44.72276" lon="4.51235">
        <ele>652.1</ele>
        <time>2022-06-09T07:18:32Z</time>
      </trkpt>
      <trkpt lat="44.72275" lon="4.5123">
        <ele>652.3</ele>
        <time>2022-06-09T07:18:34Z</time>
      </trkpt>
      <trkpt lat="44.72274" lon="4.51226">
        <ele>652.4</ele>
        <time>2022-06-09T07:18:35Z</time>
      </trkpt>
      <trkpt lat="44.72272" lon="4.51219">
        <ele>652.6</ele>
        <time>2022-06-09T07:18:36Z</time>
      </trkpt>
      <trkpt lat="44.72272" lon="4.51214">
        <ele>652.8</ele>
        <time>2022-06-09T07:18:38Z</time>
      </trkpt>
      <trkpt lat="44.72272" lon="4.51209">
        <ele>653</ele>
        <time>2022-06-09T07:18:39Z</time>
      </trkpt>
      <trkpt lat="44.72271" lon="4.51205">
        <ele>653.1</ele>
        <time>2022-06-09T07:18:40Z</time>
      </trkpt>
      <trkpt lat="44.72271" lon="4.51199">
        <ele>653.3</ele>
        <time>2022-06-09T07:18:41Z</time>
      </trkpt>
      <trkpt lat="44.72271" lon="4.51194">
        <ele>653.5</ele>
        <time>2022-06-09T07:18:43Z</time>
      </trkpt>
      <trkpt lat="44.7227" lon="4.5119">
        <ele>653.6</ele>
        <time>2022-06-09T07:18:44Z</time>
      </trkpt>
      <trkpt lat="44.7227" lon="4.51181">
        <ele>653.9</ele>
        <time>2022-06-09T07:18:45Z</time>
      </trkpt>
      <trkpt lat="44.7227" lon="4.51172">
        <ele>654.2</ele>
        <time>2022-06-09T07:18:48Z</time>
      </trkpt>
      <trkpt lat="44.72269" lon="4.51166">
        <ele>654.4</ele>
        <time>2022-06-09T07:18:49Z</time>
      </trkpt>
      <trkpt lat="44.72268" lon="4.51156">
        <ele>654.7</ele>
        <time>2022-06-09T07:18:51Z</time>
      </trkpt>
      <trkpt lat="44.72267" lon="4.51146">
        <ele>655</ele>
        <time>2022-06-09T07:18:53Z</time>
      </trkpt>
      <trkpt lat="44.72266" lon="4.51142">
        <ele>655.2</ele>
        <time>2022-06-09T07:18:54Z</time>
      </trkpt>
      <trkpt lat="44.72266" lon="4.51137">
        <ele>655.4</ele>
        <time>2022-06-09T07:18:56Z</time>
      </trkpt>
      <trkpt lat="44.72265" lon="4.51132">
        <ele>655.6</ele>
        <time>2022-06-09T07:18:57Z</time>
      </trkpt>
      <trkpt lat="44.72264" lon="4.51128">
        <ele>655.8</ele>
        <time>2022-06-09T07:18:58Z</time>
      </trkpt>
      <trkpt lat="44.72264" lon="4.5112">
        <ele>656.1</ele>
        <time>2022-06-09T07:18:59Z</time>
      </trkpt>
      <trkpt lat="44.72263" lon="4.51115">
        <ele>656.3</ele>
        <time>2022-06-09T07:19:01Z</time>
      </trkpt>
      <trkpt lat="44.72263" lon="4.51112">
        <ele>656.4</ele>
        <time>2022-06-09T07:19:02Z</time>
      </trkpt>
      <trkpt lat="44.72262" lon="4.51108">
        <ele>656.6</ele>
        <time>2022-06-09T07:19:03Z</time>
      </trkpt>
      <trkpt lat="44.72261" lon="4.51104">
        <ele>656.8</ele>
        <time>2022-06-09T07:19:04Z</time>
      </trkpt>
      <trkpt lat="44.72261" lon="4.511">
        <ele>656.9</ele>
        <time>2022-06-09T07:19:05Z</time>
      </trkpt>
      <trkpt lat="44.7226" lon="4.51096">
        <ele>657.1</ele>
        <time>2022-06-09T07:19:06Z</time>
      </trkpt>
      <trkpt lat="44.7226" lon="4.51092">
        <ele>657.3</ele>
        <time>2022-06-09T07:19:07Z</time>
      </trkpt>
      <trkpt lat="44.72259" lon="4.51088">
        <ele>657.4</ele>
        <time>2022-06-09T07:19:08Z</time>
      </trkpt>
      <trkpt lat="44.72259" lon="4.51084">
        <ele>657.6</ele>
        <time>2022-06-09T07:19:09Z</time>
      </trkpt>
      <trkpt lat="44.72259" lon="4.51078">
        <ele>657.8</ele>
        <time>2022-06-09T07:19:10Z</time>
      </trkpt>
      <trkpt lat="44.72259" lon="4.51076">
        <ele>657.9</ele>
        <time>2022-06-09T07:19:11Z</time>
      </trkpt>
      <trkpt lat="44.72259" lon="4.51072">
        <ele>658</ele>
        <time>2022-06-09T07:19:12Z</time>
      </trkpt>
      <trkpt lat="44.72261" lon="4.51066">
        <ele>658.3</ele>
        <time>2022-06-09T07:19:13Z</time>
      </trkpt>
      <trkpt lat="44.72262" lon="4.51062">
        <ele>658.4</ele>
        <time>2022-06-09T07:19:15Z</time>
      </trkpt>
      <trkpt lat="44.72263" lon="4.51059">
        <ele>658.6</ele>
        <time>2022-06-09T07:19:16Z</time>
      </trkpt>
      <trkpt lat="44.72265" lon="4.51054">
        <ele>658.7</ele>
        <time>2022-06-09T07:19:17Z</time>
      </trkpt>
      <trkpt lat="44.72266" lon="4.51053">
        <ele>658.8</ele>
        <time>2022-06-09T07:19:18Z</time>
      </trkpt>
      <trkpt lat="44.72268" lon="4.51049">
        <ele>659</ele>
        <time>2022-06-09T07:19:19Z</time>
      </trkpt>
      <trkpt lat="44.72269" lon="4.51048">
        <ele>659</ele>
        <time>2022-06-09T07:19:20Z</time>
      </trkpt>
      <trkpt lat="44.72271" lon="4.51044">
        <ele>659.1</ele>
        <time>2022-06-09T07:19:21Z</time>
      </trkpt>
      <trkpt lat="44.72272" lon="4.51043">
        <ele>659.2</ele>
        <time>2022-06-09T07:19:22Z</time>
      </trkpt>
      <trkpt lat="44.72275" lon="4.5104">
        <ele>659.3</ele>
        <time>2022-06-09T07:19:23Z</time>
      </trkpt>
      <trkpt lat="44.72276" lon="4.51039">
        <ele>659.3</ele>
        <time>2022-06-09T07:19:24Z</time>
      </trkpt>
      <trkpt lat="44.7228" lon="4.51036">
        <ele>659.5</ele>
        <time>2022-06-09T07:19:25Z</time>
      </trkpt>
      <trkpt lat="44.72281" lon="4.51035">
        <ele>659.5</ele>
        <time>2022-06-09T07:19:26Z</time>
      </trkpt>
      <trkpt lat="44.72284" lon="4.51033">
        <ele>659.6</ele>
        <time>2022-06-09T07:19:28Z</time>
      </trkpt>
      <trkpt lat="44.72287" lon="4.51029">
        <ele>659.8</ele>
        <time>2022-06-09T07:19:29Z</time>
      </trkpt>
      <trkpt lat="44.72288" lon="4.51028">
        <ele>659.9</ele>
        <time>2022-06-09T07:19:30Z</time>
      </trkpt>
      <trkpt lat="44.72292" lon="4.51025">
        <ele>660</ele>
        <time>2022-06-09T07:19:31Z</time>
      </trkpt>
      <trkpt lat="44.72294" lon="4.51024">
        <ele>660.1</ele>
        <time>2022-06-09T07:19:32Z</time>
      </trkpt>
      <trkpt lat="44.72298" lon="4.51021">
        <ele>660.3</ele>
        <time>2022-06-09T07:19:34Z</time>
      </trkpt>
      <trkpt lat="44.72299" lon="4.5102">
        <ele>660.3</ele>
        <time>2022-06-09T07:19:35Z</time>
      </trkpt>
      <trkpt lat="44.72302" lon="4.51017">
        <ele>660.5</ele>
        <time>2022-06-09T07:19:36Z</time>
      </trkpt>
      <trkpt lat="44.72304" lon="4.51016">
        <ele>660.6</ele>
        <time>2022-06-09T07:19:38Z</time>
      </trkpt>
      <trkpt lat="44.72308" lon="4.51013">
        <ele>660.8</ele>
        <time>2022-06-09T07:19:39Z</time>
      </trkpt>
      <trkpt lat="44.7231" lon="4.51012">
        <ele>660.9</ele>
        <time>2022-06-09T07:19:40Z</time>
      </trkpt>
      <trkpt lat="44.72314" lon="4.51008">
        <ele>661</ele>
        <time>2022-06-09T07:19:42Z</time>
      </trkpt>
      <trkpt lat="44.72318" lon="4.51006">
        <ele>661.2</ele>
        <time>2022-06-09T07:19:44Z</time>
      </trkpt>
      <trkpt lat="44.7232" lon="4.51005">
        <ele>661.3</ele>
        <time>2022-06-09T07:19:45Z</time>
      </trkpt>
      <trkpt lat="44.72322" lon="4.51003">
        <ele>661.4</ele>
        <time>2022-06-09T07:19:47Z</time>
      </trkpt>
      <trkpt lat="44.72325" lon="4.51001">
        <ele>661.6</ele>
        <time>2022-06-09T07:19:48Z</time>
      </trkpt>
      <trkpt lat="44.72326" lon="4.51">
        <ele>661.6</ele>
        <time>2022-06-09T07:19:49Z</time>
      </trkpt>
      <trkpt lat="44.72329" lon="4.50997">
        <ele>661.7</ele>
        <time>2022-06-09T07:19:50Z</time>
      </trkpt>
      <trkpt lat="44.7233" lon="4.50996">
        <ele>661.8</ele>
        <time>2022-06-09T07:19:51Z</time>
      </trkpt>
      <trkpt lat="44.72332" lon="4.50994">
        <ele>661.9</ele>
        <time>2022-06-09T07:19:52Z</time>
      </trkpt>
      <trkpt lat="44.72335" lon="4.50992">
        <ele>662</ele>
        <time>2022-06-09T07:19:53Z</time>
      </trkpt>
      <trkpt lat="44.72337" lon="4.5099">
        <ele>662.2</ele>
        <time>2022-06-09T07:19:54Z</time>
      </trkpt>
      <trkpt lat="44.72339" lon="4.50987">
        <ele>662.3</ele>
        <time>2022-06-09T07:19:55Z</time>
      </trkpt>
      <trkpt lat="44.72343" lon="4.50984">
        <ele>662.6</ele>
        <time>2022-06-09T07:19:56Z</time>
      </trkpt>
      <trkpt lat="44.72344" lon="4.50983">
        <ele>662.6</ele>
        <time>2022-06-09T07:19:57Z</time>
      </trkpt>
      <trkpt lat="44.72347" lon="4.50979">
        <ele>662.9</ele>
        <time>2022-06-09T07:19:58Z</time>
      </trkpt>
      <trkpt lat="44.72349" lon="4.50976">
        <ele>663.1</ele>
        <time>2022-06-09T07:20:00Z</time>
      </trkpt>
      <trkpt lat="44.72353" lon="4.50973">
        <ele>663.4</ele>
        <time>2022-06-09T07:20:01Z</time>
      </trkpt>
      <trkpt lat="44.72356" lon="4.50969">
        <ele>663.7</ele>
        <time>2022-06-09T07:20:03Z</time>
      </trkpt>
      <trkpt lat="44.72357" lon="4.50967">
        <ele>663.8</ele>
        <time>2022-06-09T07:20:04Z</time>
      </trkpt>
      <trkpt lat="44.72358" lon="4.50965">
        <ele>663.9</ele>
        <time>2022-06-09T07:20:05Z</time>
      </trkpt>
      <trkpt lat="44.72361" lon="4.50962">
        <ele>664.1</ele>
        <time>2022-06-09T07:20:06Z</time>
      </trkpt>
      <trkpt lat="44.72362" lon="4.50961">
        <ele>664.2</ele>
        <time>2022-06-09T07:20:07Z</time>
      </trkpt>
      <trkpt lat="44.72365" lon="4.50958">
        <ele>664.5</ele>
        <time>2022-06-09T07:20:08Z</time>
      </trkpt>
      <trkpt lat="44.72365" lon="4.50957">
        <ele>664.5</ele>
        <time>2022-06-09T07:20:09Z</time>
      </trkpt>
      <trkpt lat="44.72368" lon="4.50954">
        <ele>664.7</ele>
        <time>2022-06-09T07:20:10Z</time>
      </trkpt>
      <trkpt lat="44.72369" lon="4.50953">
        <ele>664.8</ele>
        <time>2022-06-09T07:20:11Z</time>
      </trkpt>
      <trkpt lat="44.72372" lon="4.50951">
        <ele>665</ele>
        <time>2022-06-09T07:20:12Z</time>
      </trkpt>
      <trkpt lat="44.72373" lon="4.5095">
        <ele>665.1</ele>
        <time>2022-06-09T07:20:13Z</time>
      </trkpt>
      <trkpt lat="44.72376" lon="4.50949">
        <ele>665.3</ele>
        <time>2022-06-09T07:20:14Z</time>
      </trkpt>
      <trkpt lat="44.7238" lon="4.50947">
        <ele>665.6</ele>
        <time>2022-06-09T07:20:15Z</time>
      </trkpt>
      <trkpt lat="44.72385" lon="4.50946">
        <ele>665.8</ele>
        <time>2022-06-09T07:20:17Z</time>
      </trkpt>
      <trkpt lat="44.72388" lon="4.50946">
        <ele>665.9</ele>
        <time>2022-06-09T07:20:18Z</time>
      </trkpt>
      <trkpt lat="44.7239" lon="4.50945">
        <ele>666</ele>
        <time>2022-06-09T07:20:19Z</time>
      </trkpt>
      <trkpt lat="44.72392" lon="4.50946">
        <ele>666.1</ele>
        <time>2022-06-09T07:20:21Z</time>
      </trkpt>
      <trkpt lat="44.72395" lon="4.50947">
        <ele>666.2</ele>
        <time>2022-06-09T07:20:22Z</time>
      </trkpt>
      <trkpt lat="44.72399" lon="4.50949">
        <ele>666.3</ele>
        <time>2022-06-09T07:20:24Z</time>
      </trkpt>
      <trkpt lat="44.72401" lon="4.50952">
        <ele>666.4</ele>
        <time>2022-06-09T07:20:26Z</time>
      </trkpt>
      <trkpt lat="44.72404" lon="4.50954">
        <ele>666.5</ele>
        <time>2022-06-09T07:20:27Z</time>
      </trkpt>
      <trkpt lat="44.72406" lon="4.50956">
        <ele>666.6</ele>
        <time>2022-06-09T07:20:28Z</time>
      </trkpt>
      <trkpt lat="44.72407" lon="4.50958">
        <ele>666.7</ele>
        <time>2022-06-09T07:20:30Z</time>
      </trkpt>
      <trkpt lat="44.7241" lon="4.50961">
        <ele>666.8</ele>
        <time>2022-06-09T07:20:31Z</time>
      </trkpt>
      <trkpt lat="44.72411" lon="4.50961">
        <ele>666.8</ele>
        <time>2022-06-09T07:20:32Z</time>
      </trkpt>
      <trkpt lat="44.72415" lon="4.50965">
        <ele>666.9</ele>
        <time>2022-06-09T07:20:33Z</time>
      </trkpt>
      <trkpt lat="44.72419" lon="4.50968">
        <ele>667.1</ele>
        <time>2022-06-09T07:20:35Z</time>
      </trkpt>
      <trkpt lat="44.7242" lon="4.50969">
        <ele>667.1</ele>
        <time>2022-06-09T07:20:36Z</time>
      </trkpt>
      <trkpt lat="44.72421" lon="4.50971">
        <ele>667.2</ele>
        <time>2022-06-09T07:20:37Z</time>
      </trkpt>
      <trkpt lat="44.72425" lon="4.50974">
        <ele>667.3</ele>
        <time>2022-06-09T07:20:38Z</time>
      </trkpt>
      <trkpt lat="44.72427" lon="4.50975">
        <ele>667.4</ele>
        <time>2022-06-09T07:20:39Z</time>
      </trkpt>
      <trkpt lat="44.72429" lon="4.50977">
        <ele>667.5</ele>
        <time>2022-06-09T07:20:41Z</time>
      </trkpt>
      <trkpt lat="44.72432" lon="4.5098">
        <ele>667.6</ele>
        <time>2022-06-09T07:20:42Z</time>
      </trkpt>
      <trkpt lat="44.72433" lon="4.50981">
        <ele>667.7</ele>
        <time>2022-06-09T07:20:43Z</time>
      </trkpt>
      <trkpt lat="44.72437" lon="4.50985">
        <ele>667.9</ele>
        <time>2022-06-09T07:20:44Z</time>
      </trkpt>
      <trkpt lat="44.72439" lon="4.50987">
        <ele>668</ele>
        <time>2022-06-09T07:20:45Z</time>
      </trkpt>
      <trkpt lat="44.72443" lon="4.50989">
        <ele>668.2</ele>
        <time>2022-06-09T07:20:47Z</time>
      </trkpt>
      <trkpt lat="44.72445" lon="4.50991">
        <ele>668.3</ele>
        <time>2022-06-09T07:20:49Z</time>
      </trkpt>
      <trkpt lat="44.72449" lon="4.50992">
        <ele>668.5</ele>
        <time>2022-06-09T07:20:50Z</time>
      </trkpt>
      <trkpt lat="44.72454" lon="4.50993">
        <ele>668.8</ele>
        <time>2022-06-09T07:20:52Z</time>
      </trkpt>
      <trkpt lat="44.72458" lon="4.50994">
        <ele>669</ele>
        <time>2022-06-09T07:20:54Z</time>
      </trkpt>
      <trkpt lat="44.7246" lon="4.50994">
        <ele>669.1</ele>
        <time>2022-06-09T07:20:55Z</time>
      </trkpt>
      <trkpt lat="44.72463" lon="4.50994">
        <ele>669.2</ele>
        <time>2022-06-09T07:20:57Z</time>
      </trkpt>
      <trkpt lat="44.72467" lon="4.50993">
        <ele>669.4</ele>
        <time>2022-06-09T07:20:58Z</time>
      </trkpt>
      <trkpt lat="44.72468" lon="4.50993">
        <ele>669.5</ele>
        <time>2022-06-09T07:20:59Z</time>
      </trkpt>
      <trkpt lat="44.72473" lon="4.50992">
        <ele>669.8</ele>
        <time>2022-06-09T07:21:00Z</time>
      </trkpt>
      <trkpt lat="44.72476" lon="4.5099">
        <ele>670</ele>
        <time>2022-06-09T07:21:02Z</time>
      </trkpt>
      <trkpt lat="44.7248" lon="4.50987">
        <ele>670.2</ele>
        <time>2022-06-09T07:21:03Z</time>
      </trkpt>
      <trkpt lat="44.72484" lon="4.50985">
        <ele>670.4</ele>
        <time>2022-06-09T07:21:05Z</time>
      </trkpt>
      <trkpt lat="44.72487" lon="4.50982">
        <ele>670.6</ele>
        <time>2022-06-09T07:21:06Z</time>
      </trkpt>
      <trkpt lat="44.72489" lon="4.50981">
        <ele>670.7</ele>
        <time>2022-06-09T07:21:07Z</time>
      </trkpt>
      <trkpt lat="44.72493" lon="4.50977">
        <ele>670.9</ele>
        <time>2022-06-09T07:21:08Z</time>
      </trkpt>
      <trkpt lat="44.72496" lon="4.50973">
        <ele>671.1</ele>
        <time>2022-06-09T07:21:09Z</time>
      </trkpt>
      <trkpt lat="44.72497" lon="4.50972">
        <ele>671.1</ele>
        <time>2022-06-09T07:21:10Z</time>
      </trkpt>
      <trkpt lat="44.72501" lon="4.50968">
        <ele>671.4</ele>
        <time>2022-06-09T07:21:12Z</time>
      </trkpt>
      <trkpt lat="44.72503" lon="4.50965">
        <ele>671.5</ele>
        <time>2022-06-09T07:21:13Z</time>
      </trkpt>
      <trkpt lat="44.72507" lon="4.50961">
        <ele>671.7</ele>
        <time>2022-06-09T07:21:15Z</time>
      </trkpt>
      <trkpt lat="44.72509" lon="4.50959">
        <ele>671.8</ele>
        <time>2022-06-09T07:21:16Z</time>
      </trkpt>
      <trkpt lat="44.72512" lon="4.50956">
        <ele>672</ele>
        <time>2022-06-09T07:21:18Z</time>
      </trkpt>
      <trkpt lat="44.72515" lon="4.50952">
        <ele>672.2</ele>
        <time>2022-06-09T07:21:19Z</time>
      </trkpt>
      <trkpt lat="44.72518" lon="4.50948">
        <ele>672.4</ele>
        <time>2022-06-09T07:21:21Z</time>
      </trkpt>
      <trkpt lat="44.72519" lon="4.50947">
        <ele>672.5</ele>
        <time>2022-06-09T07:21:22Z</time>
      </trkpt>
      <trkpt lat="44.72522" lon="4.50944">
        <ele>672.7</ele>
        <time>2022-06-09T07:21:23Z</time>
      </trkpt>
      <trkpt lat="44.72523" lon="4.50943">
        <ele>672.8</ele>
        <time>2022-06-09T07:21:24Z</time>
      </trkpt>
      <trkpt lat="44.72528" lon="4.50939">
        <ele>673.1</ele>
        <time>2022-06-09T07:21:25Z</time>
      </trkpt>
      <trkpt lat="44.7253" lon="4.50937">
        <ele>673.2</ele>
        <time>2022-06-09T07:21:27Z</time>
      </trkpt>
      <trkpt lat="44.72533" lon="4.50935">
        <ele>673.4</ele>
        <time>2022-06-09T07:21:28Z</time>
      </trkpt>
      <trkpt lat="44.72538" lon="4.5093">
        <ele>673.7</ele>
        <time>2022-06-09T07:21:29Z</time>
      </trkpt>
      <trkpt lat="44.72541" lon="4.50928">
        <ele>673.9</ele>
        <time>2022-06-09T07:21:31Z</time>
      </trkpt>
      <trkpt lat="44.72545" lon="4.50925">
        <ele>674.2</ele>
        <time>2022-06-09T07:21:32Z</time>
      </trkpt>
      <trkpt lat="44.72548" lon="4.50923">
        <ele>674.3</ele>
        <time>2022-06-09T07:21:34Z</time>
      </trkpt>
      <trkpt lat="44.72553" lon="4.50921">
        <ele>674.6</ele>
        <time>2022-06-09T07:21:35Z</time>
      </trkpt>
      <trkpt lat="44.72555" lon="4.5092">
        <ele>674.7</ele>
        <time>2022-06-09T07:21:36Z</time>
      </trkpt>
      <trkpt lat="44.7256" lon="4.50919">
        <ele>674.9</ele>
        <time>2022-06-09T07:21:38Z</time>
      </trkpt>
      <trkpt lat="44.72562" lon="4.50918">
        <ele>675</ele>
        <time>2022-06-09T07:21:39Z</time>
      </trkpt>
      <trkpt lat="44.72564" lon="4.50918">
        <ele>675.1</ele>
        <time>2022-06-09T07:21:40Z</time>
      </trkpt>
      <trkpt lat="44.72569" lon="4.50919">
        <ele>675.3</ele>
        <time>2022-06-09T07:21:42Z</time>
      </trkpt>
      <trkpt lat="44.72571" lon="4.50919">
        <ele>675.4</ele>
        <time>2022-06-09T07:21:43Z</time>
      </trkpt>
      <trkpt lat="44.72573" lon="4.50919">
        <ele>675.5</ele>
        <time>2022-06-09T07:21:44Z</time>
      </trkpt>
      <trkpt lat="44.72576" lon="4.5092">
        <ele>675.6</ele>
        <time>2022-06-09T07:21:46Z</time>
      </trkpt>
      <trkpt lat="44.7258" lon="4.50921">
        <ele>675.8</ele>
        <time>2022-06-09T07:21:48Z</time>
      </trkpt>
      <trkpt lat="44.72583" lon="4.50922">
        <ele>675.9</ele>
        <time>2022-06-09T07:21:49Z</time>
      </trkpt>
      <trkpt lat="44.72589" lon="4.50923">
        <ele>676.1</ele>
        <time>2022-06-09T07:21:51Z</time>
      </trkpt>
      <trkpt lat="44.72592" lon="4.50924">
        <ele>676.2</ele>
        <time>2022-06-09T07:21:53Z</time>
      </trkpt>
      <trkpt lat="44.72595" lon="4.50924">
        <ele>676.4</ele>
        <time>2022-06-09T07:21:54Z</time>
      </trkpt>
      <trkpt lat="44.72596" lon="4.50925">
        <ele>676.4</ele>
        <time>2022-06-09T07:21:55Z</time>
      </trkpt>
      <trkpt lat="44.72601" lon="4.50925">
        <ele>676.6</ele>
        <time>2022-06-09T07:21:56Z</time>
      </trkpt>
      <trkpt lat="44.72603" lon="4.50925">
        <ele>676.7</ele>
        <time>2022-06-09T07:21:57Z</time>
      </trkpt>
      <trkpt lat="44.72606" lon="4.50924">
        <ele>676.8</ele>
        <time>2022-06-09T07:21:59Z</time>
      </trkpt>
      <trkpt lat="44.7261" lon="4.50924">
        <ele>676.9</ele>
        <time>2022-06-09T07:22:00Z</time>
      </trkpt>
      <trkpt lat="44.72613" lon="4.50923">
        <ele>677.1</ele>
        <time>2022-06-09T07:22:01Z</time>
      </trkpt>
      <trkpt lat="44.72617" lon="4.50922">
        <ele>677.2</ele>
        <time>2022-06-09T07:22:02Z</time>
      </trkpt>
      <trkpt lat="44.72618" lon="4.50921">
        <ele>677.3</ele>
        <time>2022-06-09T07:22:03Z</time>
      </trkpt>
      <trkpt lat="44.72621" lon="4.50919">
        <ele>677.4</ele>
        <time>2022-06-09T07:22:04Z</time>
      </trkpt>
      <trkpt lat="44.72624" lon="4.50917">
        <ele>677.6</ele>
        <time>2022-06-09T07:22:06Z</time>
      </trkpt>
      <trkpt lat="44.72627" lon="4.50915">
        <ele>677.7</ele>
        <time>2022-06-09T07:22:07Z</time>
      </trkpt>
      <trkpt lat="44.72629" lon="4.50913">
        <ele>677.8</ele>
        <time>2022-06-09T07:22:08Z</time>
      </trkpt>
      <trkpt lat="44.72632" lon="4.50912">
        <ele>678</ele>
        <time>2022-06-09T07:22:09Z</time>
      </trkpt>
      <trkpt lat="44.72637" lon="4.50909">
        <ele>678.2</ele>
        <time>2022-06-09T07:22:10Z</time>
      </trkpt>
      <trkpt lat="44.7264" lon="4.50907">
        <ele>678.4</ele>
        <time>2022-06-09T07:22:12Z</time>
      </trkpt>
      <trkpt lat="44.72643" lon="4.50905">
        <ele>678.5</ele>
        <time>2022-06-09T07:22:13Z</time>
      </trkpt>
      <trkpt lat="44.72645" lon="4.50904">
        <ele>678.7</ele>
        <time>2022-06-09T07:22:14Z</time>
      </trkpt>
      <trkpt lat="44.72648" lon="4.50902">
        <ele>678.9</ele>
        <time>2022-06-09T07:22:15Z</time>
      </trkpt>
      <trkpt lat="44.72651" lon="4.50901">
        <ele>679</ele>
        <time>2022-06-09T07:22:16Z</time>
      </trkpt>
      <trkpt lat="44.72655" lon="4.50899">
        <ele>679.2</ele>
        <time>2022-06-09T07:22:17Z</time>
      </trkpt>
      <trkpt lat="44.72656" lon="4.50898">
        <ele>679.3</ele>
        <time>2022-06-09T07:22:18Z</time>
      </trkpt>
      <trkpt lat="44.72659" lon="4.50897">
        <ele>679.5</ele>
        <time>2022-06-09T07:22:19Z</time>
      </trkpt>
      <trkpt lat="44.72661" lon="4.50897">
        <ele>679.5</ele>
        <time>2022-06-09T07:22:20Z</time>
      </trkpt>
      <trkpt lat="44.72665" lon="4.50895">
        <ele>679.7</ele>
        <time>2022-06-09T07:22:21Z</time>
      </trkpt>
      <trkpt lat="44.72666" lon="4.50894">
        <ele>679.7</ele>
        <time>2022-06-09T07:22:22Z</time>
      </trkpt>
      <trkpt lat="44.72669" lon="4.50893">
        <ele>679.9</ele>
        <time>2022-06-09T07:22:23Z</time>
      </trkpt>
      <trkpt lat="44.72671" lon="4.50893">
        <ele>679.9</ele>
        <time>2022-06-09T07:22:24Z</time>
      </trkpt>
      <trkpt lat="44.72674" lon="4.50893">
        <ele>680.1</ele>
        <time>2022-06-09T07:22:25Z</time>
      </trkpt>
      <trkpt lat="44.72675" lon="4.50893">
        <ele>680.1</ele>
        <time>2022-06-09T07:22:26Z</time>
      </trkpt>
      <trkpt lat="44.72678" lon="4.50892">
        <ele>680.2</ele>
        <time>2022-06-09T07:22:27Z</time>
      </trkpt>
      <trkpt lat="44.7268" lon="4.50892">
        <ele>680.3</ele>
        <time>2022-06-09T07:22:28Z</time>
      </trkpt>
      <trkpt lat="44.72682" lon="4.50892">
        <ele>680.4</ele>
        <time>2022-06-09T07:22:29Z</time>
      </trkpt>
      <trkpt lat="44.72683" lon="4.50891">
        <ele>680.4</ele>
        <time>2022-06-09T07:22:30Z</time>
      </trkpt>
      <trkpt lat="44.72685" lon="4.50891">
        <ele>680.5</ele>
        <time>2022-06-09T07:22:31Z</time>
      </trkpt>
      <trkpt lat="44.72687" lon="4.50891">
        <ele>680.6</ele>
        <time>2022-06-09T07:22:32Z</time>
      </trkpt>
      <trkpt lat="44.72688" lon="4.50891">
        <ele>680.6</ele>
        <time>2022-06-09T07:22:33Z</time>
      </trkpt>
      <trkpt lat="44.7269" lon="4.50891">
        <ele>680.7</ele>
        <time>2022-06-09T07:22:34Z</time>
      </trkpt>
      <trkpt lat="44.72691" lon="4.5089">
        <ele>680.8</ele>
        <time>2022-06-09T07:22:35Z</time>
      </trkpt>
      <trkpt lat="44.72693" lon="4.5089">
        <ele>680.8</ele>
        <time>2022-06-09T07:22:36Z</time>
      </trkpt>
      <trkpt lat="44.72695" lon="4.50889">
        <ele>680.9</ele>
        <time>2022-06-09T07:22:37Z</time>
      </trkpt>
      <trkpt lat="44.72696" lon="4.50889">
        <ele>680.9</ele>
        <time>2022-06-09T07:22:38Z</time>
      </trkpt>
      <trkpt lat="44.72698" lon="4.50888">
        <ele>681</ele>
        <time>2022-06-09T07:22:39Z</time>
      </trkpt>
      <trkpt lat="44.72702" lon="4.50888">
        <ele>681.2</ele>
        <time>2022-06-09T07:22:40Z</time>
      </trkpt>
      <trkpt lat="44.72704" lon="4.50888">
        <ele>681.3</ele>
        <time>2022-06-09T07:22:41Z</time>
      </trkpt>
      <trkpt lat="44.72707" lon="4.50888">
        <ele>681.4</ele>
        <time>2022-06-09T07:22:42Z</time>
      </trkpt>
      <trkpt lat="44.7271" lon="4.50887">
        <ele>681.5</ele>
        <time>2022-06-09T07:22:44Z</time>
      </trkpt>
      <trkpt lat="44.72711" lon="4.50887">
        <ele>681.6</ele>
        <time>2022-06-09T07:22:45Z</time>
      </trkpt>
      <trkpt lat="44.72715" lon="4.50886">
        <ele>681.7</ele>
        <time>2022-06-09T07:22:46Z</time>
      </trkpt>
      <trkpt lat="44.72717" lon="4.50886">
        <ele>681.8</ele>
        <time>2022-06-09T07:22:47Z</time>
      </trkpt>
      <trkpt lat="44.7272" lon="4.50885">
        <ele>682</ele>
        <time>2022-06-09T07:22:48Z</time>
      </trkpt>
      <trkpt lat="44.72722" lon="4.50885">
        <ele>682</ele>
        <time>2022-06-09T07:22:49Z</time>
      </trkpt>
      <trkpt lat="44.72726" lon="4.50883">
        <ele>682.2</ele>
        <time>2022-06-09T07:22:50Z</time>
      </trkpt>
      <trkpt lat="44.7273" lon="4.50883">
        <ele>682.4</ele>
        <time>2022-06-09T07:22:51Z</time>
      </trkpt>
      <trkpt lat="44.72736" lon="4.50881">
        <ele>682.6</ele>
        <time>2022-06-09T07:22:53Z</time>
      </trkpt>
      <trkpt lat="44.72741" lon="4.5088">
        <ele>682.8</ele>
        <time>2022-06-09T07:22:55Z</time>
      </trkpt>
      <trkpt lat="44.72743" lon="4.50879">
        <ele>682.9</ele>
        <time>2022-06-09T07:22:56Z</time>
      </trkpt>
      <trkpt lat="44.72744" lon="4.50878">
        <ele>683</ele>
        <time>2022-06-09T07:22:57Z</time>
      </trkpt>
      <trkpt lat="44.72747" lon="4.50877">
        <ele>683.1</ele>
        <time>2022-06-09T07:22:58Z</time>
      </trkpt>
      <trkpt lat="44.7275" lon="4.50877">
        <ele>683.3</ele>
        <time>2022-06-09T07:22:59Z</time>
      </trkpt>
      <trkpt lat="44.72754" lon="4.50876">
        <ele>683.4</ele>
        <time>2022-06-09T07:23:00Z</time>
      </trkpt>
      <trkpt lat="44.72755" lon="4.50875">
        <ele>683.5</ele>
        <time>2022-06-09T07:23:01Z</time>
      </trkpt>
      <trkpt lat="44.72759" lon="4.50874">
        <ele>683.7</ele>
        <time>2022-06-09T07:23:02Z</time>
      </trkpt>
      <trkpt lat="44.7276" lon="4.50874">
        <ele>683.8</ele>
        <time>2022-06-09T07:23:03Z</time>
      </trkpt>
      <trkpt lat="44.72764" lon="4.50872">
        <ele>684</ele>
        <time>2022-06-09T07:23:04Z</time>
      </trkpt>
      <trkpt lat="44.72765" lon="4.50871">
        <ele>684</ele>
        <time>2022-06-09T07:23:05Z</time>
      </trkpt>
      <trkpt lat="44.72768" lon="4.5087">
        <ele>683.8</ele>
        <time>2022-06-09T07:23:06Z</time>
      </trkpt>
      <trkpt lat="44.72773" lon="4.50868">
        <ele>683.8</ele>
        <time>2022-06-09T07:23:07Z</time>
      </trkpt>
      <trkpt lat="44.72778" lon="4.50865">
        <ele>683.8</ele>
        <time>2022-06-09T07:23:09Z</time>
      </trkpt>
      <trkpt lat="44.72782" lon="4.50862">
        <ele>683.8</ele>
        <time>2022-06-09T07:23:11Z</time>
      </trkpt>
      <trkpt lat="44.72783" lon="4.5086">
        <ele>683.8</ele>
        <time>2022-06-09T07:23:12Z</time>
      </trkpt>
      <trkpt lat="44.72785" lon="4.50859">
        <ele>683.8</ele>
        <time>2022-06-09T07:23:13Z</time>
      </trkpt>
      <trkpt lat="44.72787" lon="4.50857">
        <ele>683.8</ele>
        <time>2022-06-09T07:23:14Z</time>
      </trkpt>
      <trkpt lat="44.72789" lon="4.50854">
        <ele>683.8</ele>
        <time>2022-06-09T07:23:15Z</time>
      </trkpt>
      <trkpt lat="44.72791" lon="4.50851">
        <ele>683.8</ele>
        <time>2022-06-09T07:23:16Z</time>
      </trkpt>
      <trkpt lat="44.72793" lon="4.50849">
        <ele>684</ele>
        <time>2022-06-09T07:23:17Z</time>
      </trkpt>
      <trkpt lat="44.72795" lon="4.50845">
        <ele>684.1</ele>
        <time>2022-06-09T07:23:18Z</time>
      </trkpt>
      <trkpt lat="44.72798" lon="4.50838">
        <ele>684.3</ele>
        <time>2022-06-09T07:23:19Z</time>
      </trkpt>
      <trkpt lat="44.728" lon="4.50835">
        <ele>684.4</ele>
        <time>2022-06-09T07:23:21Z</time>
      </trkpt>
      <trkpt lat="44.72802" lon="4.50831">
        <ele>684.6</ele>
        <time>2022-06-09T07:23:22Z</time>
      </trkpt>
      <trkpt lat="44.72803" lon="4.50829">
        <ele>684.6</ele>
        <time>2022-06-09T07:23:23Z</time>
      </trkpt>
      <trkpt lat="44.72804" lon="4.50825">
        <ele>684.8</ele>
        <time>2022-06-09T07:23:24Z</time>
      </trkpt>
      <trkpt lat="44.72805" lon="4.50823">
        <ele>684.8</ele>
        <time>2022-06-09T07:23:25Z</time>
      </trkpt>
      <trkpt lat="44.72806" lon="4.5082">
        <ele>684.9</ele>
        <time>2022-06-09T07:23:26Z</time>
      </trkpt>
      <trkpt lat="44.72807" lon="4.50814">
        <ele>685.1</ele>
        <time>2022-06-09T07:23:27Z</time>
      </trkpt>
      <trkpt lat="44.72808" lon="4.50812">
        <ele>685.1</ele>
        <time>2022-06-09T07:23:28Z</time>
      </trkpt>
      <trkpt lat="44.72809" lon="4.50807">
        <ele>685.3</ele>
        <time>2022-06-09T07:23:29Z</time>
      </trkpt>
      <trkpt lat="44.72809" lon="4.50805">
        <ele>685.3</ele>
        <time>2022-06-09T07:23:30Z</time>
      </trkpt>
      <trkpt lat="44.7281" lon="4.50801">
        <ele>685.4</ele>
        <time>2022-06-09T07:23:31Z</time>
      </trkpt>
      <trkpt lat="44.72812" lon="4.50796">
        <ele>685.6</ele>
        <time>2022-06-09T07:23:32Z</time>
      </trkpt>
      <trkpt lat="44.72812" lon="4.50794">
        <ele>685.6</ele>
        <time>2022-06-09T07:23:33Z</time>
      </trkpt>
      <trkpt lat="44.72815" lon="4.50788">
        <ele>685.8</ele>
        <time>2022-06-09T07:23:34Z</time>
      </trkpt>
      <trkpt lat="44.72815" lon="4.50785">
        <ele>685.9</ele>
        <time>2022-06-09T07:23:35Z</time>
      </trkpt>
      <trkpt lat="44.72817" lon="4.50781">
        <ele>686</ele>
        <time>2022-06-09T07:23:37Z</time>
      </trkpt>
      <trkpt lat="44.72818" lon="4.50777">
        <ele>686.1</ele>
        <time>2022-06-09T07:23:38Z</time>
      </trkpt>
      <trkpt lat="44.7282" lon="4.5077">
        <ele>686.3</ele>
        <time>2022-06-09T07:23:40Z</time>
      </trkpt>
      <trkpt lat="44.72821" lon="4.50764">
        <ele>686.5</ele>
        <time>2022-06-09T07:23:41Z</time>
      </trkpt>
      <trkpt lat="44.72823" lon="4.50758">
        <ele>686.6</ele>
        <time>2022-06-09T07:23:43Z</time>
      </trkpt>
      <trkpt lat="44.72824" lon="4.50753">
        <ele>686.8</ele>
        <time>2022-06-09T07:23:44Z</time>
      </trkpt>
      <trkpt lat="44.72825" lon="4.50751">
        <ele>686.9</ele>
        <time>2022-06-09T07:23:45Z</time>
      </trkpt>
      <trkpt lat="44.72826" lon="4.50747">
        <ele>687</ele>
        <time>2022-06-09T07:23:46Z</time>
      </trkpt>
      <trkpt lat="44.72827" lon="4.50743">
        <ele>687.1</ele>
        <time>2022-06-09T07:23:47Z</time>
      </trkpt>
      <trkpt lat="44.72827" lon="4.50738">
        <ele>687.2</ele>
        <time>2022-06-09T07:23:48Z</time>
      </trkpt>
      <trkpt lat="44.72828" lon="4.50734">
        <ele>687.4</ele>
        <time>2022-06-09T07:23:49Z</time>
      </trkpt>
      <trkpt lat="44.72829" lon="4.50729">
        <ele>687.5</ele>
        <time>2022-06-09T07:23:50Z</time>
      </trkpt>
      <trkpt lat="44.7283" lon="4.50724">
        <ele>687.7</ele>
        <time>2022-06-09T07:23:51Z</time>
      </trkpt>
      <trkpt lat="44.72831" lon="4.50719">
        <ele>687.9</ele>
        <time>2022-06-09T07:23:52Z</time>
      </trkpt>
      <trkpt lat="44.72831" lon="4.50704">
        <ele>688.3</ele>
        <time>2022-06-09T07:23:55Z</time>
      </trkpt>
      <trkpt lat="44.72832" lon="4.50699">
        <ele>688.4</ele>
        <time>2022-06-09T07:23:57Z</time>
      </trkpt>
      <trkpt lat="44.72832" lon="4.50695">
        <ele>688.5</ele>
        <time>2022-06-09T07:23:58Z</time>
      </trkpt>
      <trkpt lat="44.72832" lon="4.5069">
        <ele>688.7</ele>
        <time>2022-06-09T07:23:59Z</time>
      </trkpt>
      <trkpt lat="44.72832" lon="4.50685">
        <ele>688.8</ele>
        <time>2022-06-09T07:24:00Z</time>
      </trkpt>
      <trkpt lat="44.72832" lon="4.50681">
        <ele>688.9</ele>
        <time>2022-06-09T07:24:01Z</time>
      </trkpt>
      <trkpt lat="44.72831" lon="4.50677">
        <ele>689</ele>
        <time>2022-06-09T07:24:02Z</time>
      </trkpt>
      <trkpt lat="44.7283" lon="4.50669">
        <ele>689.2</ele>
        <time>2022-06-09T07:24:04Z</time>
      </trkpt>
      <trkpt lat="44.7283" lon="4.50664">
        <ele>689.3</ele>
        <time>2022-06-09T07:24:05Z</time>
      </trkpt>
      <trkpt lat="44.7283" lon="4.50663">
        <ele>689.3</ele>
        <time>2022-06-09T07:24:06Z</time>
      </trkpt>
      <trkpt lat="44.7283" lon="4.50655">
        <ele>689.5</ele>
        <time>2022-06-09T07:24:08Z</time>
      </trkpt>
      <trkpt lat="44.7283" lon="4.5065">
        <ele>689.7</ele>
        <time>2022-06-09T07:24:09Z</time>
      </trkpt>
      <trkpt lat="44.7283" lon="4.50648">
        <ele>689.7</ele>
        <time>2022-06-09T07:24:10Z</time>
      </trkpt>
      <trkpt lat="44.7283" lon="4.50641">
        <ele>689.9</ele>
        <time>2022-06-09T07:24:11Z</time>
      </trkpt>
      <trkpt lat="44.7283" lon="4.50637">
        <ele>689.9</ele>
        <time>2022-06-09T07:24:12Z</time>
      </trkpt>
      <trkpt lat="44.7283" lon="4.50633">
        <ele>690</ele>
        <time>2022-06-09T07:24:14Z</time>
      </trkpt>
      <trkpt lat="44.7283" lon="4.50628">
        <ele>690.2</ele>
        <time>2022-06-09T07:24:15Z</time>
      </trkpt>
      <trkpt lat="44.7283" lon="4.50626">
        <ele>690.2</ele>
        <time>2022-06-09T07:24:16Z</time>
      </trkpt>
      <trkpt lat="44.7283" lon="4.50622">
        <ele>690.3</ele>
        <time>2022-06-09T07:24:17Z</time>
      </trkpt>
      <trkpt lat="44.72831" lon="4.50617">
        <ele>690.4</ele>
        <time>2022-06-09T07:24:18Z</time>
      </trkpt>
      <trkpt lat="44.72831" lon="4.50616">
        <ele>690.5</ele>
        <time>2022-06-09T07:24:19Z</time>
      </trkpt>
      <trkpt lat="44.72832" lon="4.5061">
        <ele>690.6</ele>
        <time>2022-06-09T07:24:20Z</time>
      </trkpt>
      <trkpt lat="44.72832" lon="4.50609">
        <ele>690.6</ele>
        <time>2022-06-09T07:24:21Z</time>
      </trkpt>
      <trkpt lat="44.72833" lon="4.50604">
        <ele>690.8</ele>
        <time>2022-06-09T07:24:22Z</time>
      </trkpt>
      <trkpt lat="44.72834" lon="4.50602">
        <ele>690.8</ele>
        <time>2022-06-09T07:24:23Z</time>
      </trkpt>
      <trkpt lat="44.72835" lon="4.50597">
        <ele>690.9</ele>
        <time>2022-06-09T07:24:24Z</time>
      </trkpt>
      <trkpt lat="44.72836" lon="4.50593">
        <ele>691</ele>
        <time>2022-06-09T07:24:25Z</time>
      </trkpt>
      <trkpt lat="44.72837" lon="4.50588">
        <ele>691.2</ele>
        <time>2022-06-09T07:24:26Z</time>
      </trkpt>
      <trkpt lat="44.72838" lon="4.50586">
        <ele>691.2</ele>
        <time>2022-06-09T07:24:27Z</time>
      </trkpt>
      <trkpt lat="44.72839" lon="4.50583">
        <ele>691.3</ele>
        <time>2022-06-09T07:24:28Z</time>
      </trkpt>
      <trkpt lat="44.7284" lon="4.50579">
        <ele>691.4</ele>
        <time>2022-06-09T07:24:30Z</time>
      </trkpt>
      <trkpt lat="44.72843" lon="4.50572">
        <ele>691.6</ele>
        <time>2022-06-09T07:24:31Z</time>
      </trkpt>
      <trkpt lat="44.72844" lon="4.50569">
        <ele>691.7</ele>
        <time>2022-06-09T07:24:33Z</time>
      </trkpt>
      <trkpt lat="44.72846" lon="4.50565">
        <ele>691.8</ele>
        <time>2022-06-09T07:24:34Z</time>
      </trkpt>
      <trkpt lat="44.72848" lon="4.5056">
        <ele>691.9</ele>
        <time>2022-06-09T07:24:35Z</time>
      </trkpt>
      <trkpt lat="44.7285" lon="4.50557">
        <ele>692</ele>
        <time>2022-06-09T07:24:37Z</time>
      </trkpt>
      <trkpt lat="44.72852" lon="4.50554">
        <ele>692.2</ele>
        <time>2022-06-09T07:24:38Z</time>
      </trkpt>
      <trkpt lat="44.72854" lon="4.50549">
        <ele>692.3</ele>
        <time>2022-06-09T07:24:39Z</time>
      </trkpt>
      <trkpt lat="44.72854" lon="4.50547">
        <ele>692.4</ele>
        <time>2022-06-09T07:24:40Z</time>
      </trkpt>
      <trkpt lat="44.72857" lon="4.50542">
        <ele>692.5</ele>
        <time>2022-06-09T07:24:41Z</time>
      </trkpt>
      <trkpt lat="44.72859" lon="4.50538">
        <ele>692.7</ele>
        <time>2022-06-09T07:24:43Z</time>
      </trkpt>
      <trkpt lat="44.72861" lon="4.50531">
        <ele>692.9</ele>
        <time>2022-06-09T07:24:44Z</time>
      </trkpt>
      <trkpt lat="44.72863" lon="4.50527">
        <ele>693</ele>
        <time>2022-06-09T07:24:46Z</time>
      </trkpt>
      <trkpt lat="44.72864" lon="4.50523">
        <ele>693.1</ele>
        <time>2022-06-09T07:24:47Z</time>
      </trkpt>
      <trkpt lat="44.72865" lon="4.5052">
        <ele>693.2</ele>
        <time>2022-06-09T07:24:48Z</time>
      </trkpt>
      <trkpt lat="44.72867" lon="4.50513">
        <ele>693.4</ele>
        <time>2022-06-09T07:24:49Z</time>
      </trkpt>
      <trkpt lat="44.72868" lon="4.50508">
        <ele>693.5</ele>
        <time>2022-06-09T07:24:50Z</time>
      </trkpt>
      <trkpt lat="44.7287" lon="4.50504">
        <ele>693.6</ele>
        <time>2022-06-09T07:24:52Z</time>
      </trkpt>
      <trkpt lat="44.72871" lon="4.505">
        <ele>693.8</ele>
        <time>2022-06-09T07:24:53Z</time>
      </trkpt>
      <trkpt lat="44.72872" lon="4.50496">
        <ele>693.9</ele>
        <time>2022-06-09T07:24:54Z</time>
      </trkpt>
      <trkpt lat="44.72872" lon="4.50492">
        <ele>694</ele>
        <time>2022-06-09T07:24:55Z</time>
      </trkpt>
      <trkpt lat="44.72873" lon="4.50488">
        <ele>694.1</ele>
        <time>2022-06-09T07:24:56Z</time>
      </trkpt>
      <trkpt lat="44.72873" lon="4.50484">
        <ele>694.2</ele>
        <time>2022-06-09T07:24:57Z</time>
      </trkpt>
      <trkpt lat="44.72873" lon="4.5048">
        <ele>694.3</ele>
        <time>2022-06-09T07:24:58Z</time>
      </trkpt>
      <trkpt lat="44.72873" lon="4.50476">
        <ele>694.4</ele>
        <time>2022-06-09T07:24:59Z</time>
      </trkpt>
      <trkpt lat="44.72873" lon="4.50472">
        <ele>694.5</ele>
        <time>2022-06-09T07:25:00Z</time>
      </trkpt>
      <trkpt lat="44.72872" lon="4.50467">
        <ele>694.6</ele>
        <time>2022-06-09T07:25:01Z</time>
      </trkpt>
      <trkpt lat="44.72872" lon="4.50463">
        <ele>694.7</ele>
        <time>2022-06-09T07:25:02Z</time>
      </trkpt>
      <trkpt lat="44.72871" lon="4.50459">
        <ele>694.8</ele>
        <time>2022-06-09T07:25:03Z</time>
      </trkpt>
      <trkpt lat="44.7287" lon="4.50455">
        <ele>694.9</ele>
        <time>2022-06-09T07:25:04Z</time>
      </trkpt>
      <trkpt lat="44.72869" lon="4.5045">
        <ele>695</ele>
        <time>2022-06-09T07:25:05Z</time>
      </trkpt>
      <trkpt lat="44.72868" lon="4.50447">
        <ele>695.1</ele>
        <time>2022-06-09T07:25:06Z</time>
      </trkpt>
      <trkpt lat="44.72867" lon="4.50442">
        <ele>695.2</ele>
        <time>2022-06-09T07:25:07Z</time>
      </trkpt>
      <trkpt lat="44.72866" lon="4.50438">
        <ele>695.3</ele>
        <time>2022-06-09T07:25:08Z</time>
      </trkpt>
      <trkpt lat="44.72865" lon="4.50434">
        <ele>695.4</ele>
        <time>2022-06-09T07:25:09Z</time>
      </trkpt>
      <trkpt lat="44.72864" lon="4.5043">
        <ele>695.5</ele>
        <time>2022-06-09T07:25:10Z</time>
      </trkpt>
      <trkpt lat="44.72862" lon="4.50423">
        <ele>695.7</ele>
        <time>2022-06-09T07:25:12Z</time>
      </trkpt>
      <trkpt lat="44.72861" lon="4.50419">
        <ele>695.8</ele>
        <time>2022-06-09T07:25:13Z</time>
      </trkpt>
      <trkpt lat="44.72859" lon="4.50412">
        <ele>695.9</ele>
        <time>2022-06-09T07:25:14Z</time>
      </trkpt>
      <trkpt lat="44.72858" lon="4.50408">
        <ele>696</ele>
        <time>2022-06-09T07:25:15Z</time>
      </trkpt>
      <trkpt lat="44.72856" lon="4.50404">
        <ele>696.1</ele>
        <time>2022-06-09T07:25:16Z</time>
      </trkpt>
      <trkpt lat="44.72855" lon="4.50399">
        <ele>696.2</ele>
        <time>2022-06-09T07:25:17Z</time>
      </trkpt>
      <trkpt lat="44.72854" lon="4.50396">
        <ele>696.3</ele>
        <time>2022-06-09T07:25:19Z</time>
      </trkpt>
      <trkpt lat="44.72853" lon="4.50392">
        <ele>696.4</ele>
        <time>2022-06-09T07:25:20Z</time>
      </trkpt>
      <trkpt lat="44.72852" lon="4.50388">
        <ele>696.5</ele>
        <time>2022-06-09T07:25:21Z</time>
      </trkpt>
      <trkpt lat="44.7285" lon="4.50384">
        <ele>696.6</ele>
        <time>2022-06-09T07:25:22Z</time>
      </trkpt>
      <trkpt lat="44.72849" lon="4.50381">
        <ele>696.7</ele>
        <time>2022-06-09T07:25:23Z</time>
      </trkpt>
      <trkpt lat="44.72847" lon="4.50374">
        <ele>696.8</ele>
        <time>2022-06-09T07:25:24Z</time>
      </trkpt>
      <trkpt lat="44.72845" lon="4.50365">
        <ele>697</ele>
        <time>2022-06-09T07:25:26Z</time>
      </trkpt>
      <trkpt lat="44.72843" lon="4.50358">
        <ele>697.2</ele>
        <time>2022-06-09T07:25:29Z</time>
      </trkpt>
      <trkpt lat="44.72841" lon="4.50351">
        <ele>697.4</ele>
        <time>2022-06-09T07:25:30Z</time>
      </trkpt>
      <trkpt lat="44.7284" lon="4.50347">
        <ele>697.5</ele>
        <time>2022-06-09T07:25:32Z</time>
      </trkpt>
      <trkpt lat="44.72839" lon="4.50343">
        <ele>697.5</ele>
        <time>2022-06-09T07:25:33Z</time>
      </trkpt>
      <trkpt lat="44.72837" lon="4.50339">
        <ele>697.6</ele>
        <time>2022-06-09T07:25:34Z</time>
      </trkpt>
      <trkpt lat="44.72835" lon="4.50332">
        <ele>697.8</ele>
        <time>2022-06-09T07:25:36Z</time>
      </trkpt>
      <trkpt lat="44.72834" lon="4.50327">
        <ele>697.9</ele>
        <time>2022-06-09T07:25:37Z</time>
      </trkpt>
      <trkpt lat="44.72833" lon="4.50325">
        <ele>697.9</ele>
        <time>2022-06-09T07:25:38Z</time>
      </trkpt>
      <trkpt lat="44.72832" lon="4.50321">
        <ele>698</ele>
        <time>2022-06-09T07:25:39Z</time>
      </trkpt>
      <trkpt lat="44.72831" lon="4.50318">
        <ele>698.1</ele>
        <time>2022-06-09T07:25:40Z</time>
      </trkpt>
      <trkpt lat="44.7283" lon="4.50314">
        <ele>698.2</ele>
        <time>2022-06-09T07:25:41Z</time>
      </trkpt>
      <trkpt lat="44.7283" lon="4.5031">
        <ele>698.3</ele>
        <time>2022-06-09T07:25:42Z</time>
      </trkpt>
      <trkpt lat="44.72829" lon="4.50305">
        <ele>698.4</ele>
        <time>2022-06-09T07:25:43Z</time>
      </trkpt>
      <trkpt lat="44.72828" lon="4.50301">
        <ele>698.4</ele>
        <time>2022-06-09T07:25:44Z</time>
      </trkpt>
      <trkpt lat="44.72827" lon="4.50298">
        <ele>698.5</ele>
        <time>2022-06-09T07:25:45Z</time>
      </trkpt>
      <trkpt lat="44.72825" lon="4.50291">
        <ele>698.6</ele>
        <time>2022-06-09T07:25:46Z</time>
      </trkpt>
      <trkpt lat="44.72824" lon="4.50286">
        <ele>698.7</ele>
        <time>2022-06-09T07:25:48Z</time>
      </trkpt>
      <trkpt lat="44.72824" lon="4.50282">
        <ele>698.8</ele>
        <time>2022-06-09T07:25:49Z</time>
      </trkpt>
      <trkpt lat="44.72821" lon="4.50274">
        <ele>698.9</ele>
        <time>2022-06-09T07:25:50Z</time>
      </trkpt>
      <trkpt lat="44.7282" lon="4.5027">
        <ele>699</ele>
        <time>2022-06-09T07:25:52Z</time>
      </trkpt>
      <trkpt lat="44.72819" lon="4.50265">
        <ele>699.1</ele>
        <time>2022-06-09T07:25:53Z</time>
      </trkpt>
      <trkpt lat="44.72817" lon="4.50258">
        <ele>699.2</ele>
        <time>2022-06-09T07:25:54Z</time>
      </trkpt>
      <trkpt lat="44.72815" lon="4.5025">
        <ele>699.3</ele>
        <time>2022-06-09T07:25:56Z</time>
      </trkpt>
      <trkpt lat="44.72813" lon="4.50245">
        <ele>699.4</ele>
        <time>2022-06-09T07:25:58Z</time>
      </trkpt>
      <trkpt lat="44.72813" lon="4.5024">
        <ele>699.5</ele>
        <time>2022-06-09T07:25:59Z</time>
      </trkpt>
      <trkpt lat="44.72812" lon="4.50235">
        <ele>699.5</ele>
        <time>2022-06-09T07:26:00Z</time>
      </trkpt>
      <trkpt lat="44.72811" lon="4.50231">
        <ele>699.6</ele>
        <time>2022-06-09T07:26:01Z</time>
      </trkpt>
      <trkpt lat="44.7281" lon="4.50226">
        <ele>699.7</ele>
        <time>2022-06-09T07:26:02Z</time>
      </trkpt>
      <trkpt lat="44.72809" lon="4.50221">
        <ele>699.7</ele>
        <time>2022-06-09T07:26:03Z</time>
      </trkpt>
      <trkpt lat="44.72808" lon="4.50217">
        <ele>699.8</ele>
        <time>2022-06-09T07:26:04Z</time>
      </trkpt>
      <trkpt lat="44.72806" lon="4.50208">
        <ele>699.9</ele>
        <time>2022-06-09T07:26:05Z</time>
      </trkpt>
      <trkpt lat="44.72805" lon="4.50204">
        <ele>700</ele>
        <time>2022-06-09T07:26:07Z</time>
      </trkpt>
      <trkpt lat="44.72804" lon="4.50199">
        <ele>700</ele>
        <time>2022-06-09T07:26:08Z</time>
      </trkpt>
      <trkpt lat="44.72803" lon="4.50195">
        <ele>700.1</ele>
        <time>2022-06-09T07:26:09Z</time>
      </trkpt>
      <trkpt lat="44.72801" lon="4.50189">
        <ele>700.2</ele>
        <time>2022-06-09T07:26:10Z</time>
      </trkpt>
      <trkpt lat="44.72799" lon="4.50183">
        <ele>700.3</ele>
        <time>2022-06-09T07:26:11Z</time>
      </trkpt>
      <trkpt lat="44.72796" lon="4.50173">
        <ele>700.4</ele>
        <time>2022-06-09T07:26:13Z</time>
      </trkpt>
      <trkpt lat="44.72795" lon="4.50169">
        <ele>700.5</ele>
        <time>2022-06-09T07:26:15Z</time>
      </trkpt>
      <trkpt lat="44.72794" lon="4.50162">
        <ele>700.6</ele>
        <time>2022-06-09T07:26:16Z</time>
      </trkpt>
      <trkpt lat="44.72793" lon="4.50157">
        <ele>700.7</ele>
        <time>2022-06-09T07:26:17Z</time>
      </trkpt>
      <trkpt lat="44.72791" lon="4.50152">
        <ele>700.7</ele>
        <time>2022-06-09T07:26:18Z</time>
      </trkpt>
      <trkpt lat="44.7279" lon="4.50147">
        <ele>700.8</ele>
        <time>2022-06-09T07:26:19Z</time>
      </trkpt>
      <trkpt lat="44.72788" lon="4.5014">
        <ele>700.9</ele>
        <time>2022-06-09T07:26:21Z</time>
      </trkpt>
      <trkpt lat="44.72787" lon="4.50136">
        <ele>701</ele>
        <time>2022-06-09T07:26:22Z</time>
      </trkpt>
      <trkpt lat="44.72786" lon="4.50131">
        <ele>701.1</ele>
        <time>2022-06-09T07:26:23Z</time>
      </trkpt>
      <trkpt lat="44.72785" lon="4.50126">
        <ele>701.1</ele>
        <time>2022-06-09T07:26:24Z</time>
      </trkpt>
      <trkpt lat="44.72784" lon="4.50122">
        <ele>701.2</ele>
        <time>2022-06-09T07:26:25Z</time>
      </trkpt>
      <trkpt lat="44.72783" lon="4.50118">
        <ele>701.3</ele>
        <time>2022-06-09T07:26:26Z</time>
      </trkpt>
      <trkpt lat="44.72781" lon="4.50114">
        <ele>701.4</ele>
        <time>2022-06-09T07:26:27Z</time>
      </trkpt>
      <trkpt lat="44.7278" lon="4.5011">
        <ele>701.5</ele>
        <time>2022-06-09T07:26:28Z</time>
      </trkpt>
      <trkpt lat="44.72778" lon="4.50101">
        <ele>701.7</ele>
        <time>2022-06-09T07:26:29Z</time>
      </trkpt>
      <trkpt lat="44.72777" lon="4.50097">
        <ele>701.8</ele>
        <time>2022-06-09T07:26:31Z</time>
      </trkpt>
      <trkpt lat="44.72776" lon="4.50093">
        <ele>701.9</ele>
        <time>2022-06-09T07:26:32Z</time>
      </trkpt>
      <trkpt lat="44.72774" lon="4.50089">
        <ele>702</ele>
        <time>2022-06-09T07:26:33Z</time>
      </trkpt>
      <trkpt lat="44.72773" lon="4.50082">
        <ele>702.2</ele>
        <time>2022-06-09T07:26:34Z</time>
      </trkpt>
      <trkpt lat="44.72771" lon="4.50077">
        <ele>702.2</ele>
        <time>2022-06-09T07:26:36Z</time>
      </trkpt>
      <trkpt lat="44.7277" lon="4.50073">
        <ele>702.3</ele>
        <time>2022-06-09T07:26:37Z</time>
      </trkpt>
      <trkpt lat="44.72769" lon="4.50069">
        <ele>702.3</ele>
        <time>2022-06-09T07:26:38Z</time>
      </trkpt>
      <trkpt lat="44.72768" lon="4.50065">
        <ele>702.3</ele>
        <time>2022-06-09T07:26:39Z</time>
      </trkpt>
      <trkpt lat="44.72767" lon="4.50061">
        <ele>702.4</ele>
        <time>2022-06-09T07:26:40Z</time>
      </trkpt>
      <trkpt lat="44.72765" lon="4.50056">
        <ele>702.4</ele>
        <time>2022-06-09T07:26:41Z</time>
      </trkpt>
      <trkpt lat="44.72765" lon="4.50054">
        <ele>702.5</ele>
        <time>2022-06-09T07:26:42Z</time>
      </trkpt>
      <trkpt lat="44.72764" lon="4.5005">
        <ele>702.5</ele>
        <time>2022-06-09T07:26:43Z</time>
      </trkpt>
      <trkpt lat="44.72763" lon="4.50046">
        <ele>702.5</ele>
        <time>2022-06-09T07:26:44Z</time>
      </trkpt>
      <trkpt lat="44.72761" lon="4.50041">
        <ele>702.6</ele>
        <time>2022-06-09T07:26:45Z</time>
      </trkpt>
      <trkpt lat="44.72761" lon="4.5004">
        <ele>702.7</ele>
        <time>2022-06-09T07:26:46Z</time>
      </trkpt>
      <trkpt lat="44.72758" lon="4.50034">
        <ele>702.9</ele>
        <time>2022-06-09T07:26:47Z</time>
      </trkpt>
      <trkpt lat="44.72757" lon="4.5003">
        <ele>703</ele>
        <time>2022-06-09T07:26:49Z</time>
      </trkpt>
      <trkpt lat="44.72755" lon="4.50024">
        <ele>703.2</ele>
        <time>2022-06-09T07:26:50Z</time>
      </trkpt>
      <trkpt lat="44.72754" lon="4.5002">
        <ele>703.3</ele>
        <time>2022-06-09T07:26:51Z</time>
      </trkpt>
      <trkpt lat="44.72753" lon="4.50017">
        <ele>703.4</ele>
        <time>2022-06-09T07:26:52Z</time>
      </trkpt>
      <trkpt lat="44.72752" lon="4.50013">
        <ele>703.6</ele>
        <time>2022-06-09T07:26:54Z</time>
      </trkpt>
      <trkpt lat="44.7275" lon="4.50007">
        <ele>703.8</ele>
        <time>2022-06-09T07:26:55Z</time>
      </trkpt>
      <trkpt lat="44.72749" lon="4.50005">
        <ele>703.9</ele>
        <time>2022-06-09T07:26:56Z</time>
      </trkpt>
      <trkpt lat="44.72748" lon="4.50001">
        <ele>704</ele>
        <time>2022-06-09T07:26:57Z</time>
      </trkpt>
      <trkpt lat="44.72746" lon="4.49995">
        <ele>704.2</ele>
        <time>2022-06-09T07:26:58Z</time>
      </trkpt>
      <trkpt lat="44.72745" lon="4.49993">
        <ele>704.3</ele>
        <time>2022-06-09T07:26:59Z</time>
      </trkpt>
      <trkpt lat="44.72743" lon="4.49987">
        <ele>704.5</ele>
        <time>2022-06-09T07:27:01Z</time>
      </trkpt>
      <trkpt lat="44.72742" lon="4.49984">
        <ele>704.6</ele>
        <time>2022-06-09T07:27:02Z</time>
      </trkpt>
      <trkpt lat="44.72741" lon="4.4998">
        <ele>704.8</ele>
        <time>2022-06-09T07:27:04Z</time>
      </trkpt>
      <trkpt lat="44.72739" lon="4.49976">
        <ele>705</ele>
        <time>2022-06-09T07:27:05Z</time>
      </trkpt>
      <trkpt lat="44.72738" lon="4.49975">
        <ele>705</ele>
        <time>2022-06-09T07:27:06Z</time>
      </trkpt>
      <trkpt lat="44.72737" lon="4.4997">
        <ele>705.2</ele>
        <time>2022-06-09T07:27:07Z</time>
      </trkpt>
      <trkpt lat="44.72736" lon="4.49969">
        <ele>705.3</ele>
        <time>2022-06-09T07:27:08Z</time>
      </trkpt>
      <trkpt lat="44.72734" lon="4.49963">
        <ele>705.5</ele>
        <time>2022-06-09T07:27:10Z</time>
      </trkpt>
      <trkpt lat="44.72732" lon="4.4996">
        <ele>705.7</ele>
        <time>2022-06-09T07:27:11Z</time>
      </trkpt>
      <trkpt lat="44.7273" lon="4.49953">
        <ele>706</ele>
        <time>2022-06-09T07:27:13Z</time>
      </trkpt>
      <trkpt lat="44.72729" lon="4.4995">
        <ele>706.1</ele>
        <time>2022-06-09T07:27:14Z</time>
      </trkpt>
      <trkpt lat="44.72728" lon="4.49948">
        <ele>706.2</ele>
        <time>2022-06-09T07:27:15Z</time>
      </trkpt>
      <trkpt lat="44.72727" lon="4.49943">
        <ele>706.4</ele>
        <time>2022-06-09T07:27:17Z</time>
      </trkpt>
      <trkpt lat="44.72726" lon="4.4994">
        <ele>706.6</ele>
        <time>2022-06-09T07:27:18Z</time>
      </trkpt>
      <trkpt lat="44.72725" lon="4.49938">
        <ele>706.7</ele>
        <time>2022-06-09T07:27:20Z</time>
      </trkpt>
      <trkpt lat="44.72723" lon="4.49933">
        <ele>706.9</ele>
        <time>2022-06-09T07:27:21Z</time>
      </trkpt>
      <trkpt lat="44.72722" lon="4.4993">
        <ele>707</ele>
        <time>2022-06-09T07:27:22Z</time>
      </trkpt>
      <trkpt lat="44.72721" lon="4.49928">
        <ele>707.2</ele>
        <time>2022-06-09T07:27:24Z</time>
      </trkpt>
      <trkpt lat="44.7272" lon="4.49926">
        <ele>707.3</ele>
        <time>2022-06-09T07:27:25Z</time>
      </trkpt>
      <trkpt lat="44.72719" lon="4.49923">
        <ele>707.4</ele>
        <time>2022-06-09T07:27:26Z</time>
      </trkpt>
      <trkpt lat="44.72719" lon="4.49921">
        <ele>707.5</ele>
        <time>2022-06-09T07:27:27Z</time>
      </trkpt>
      <trkpt lat="44.72718" lon="4.49919">
        <ele>707.6</ele>
        <time>2022-06-09T07:27:28Z</time>
      </trkpt>
      <trkpt lat="44.72717" lon="4.49914">
        <ele>707.9</ele>
        <time>2022-06-09T07:27:29Z</time>
      </trkpt>
      <trkpt lat="44.72717" lon="4.49913">
        <ele>707.9</ele>
        <time>2022-06-09T07:27:30Z</time>
      </trkpt>
      <trkpt lat="44.72715" lon="4.49908">
        <ele>708.1</ele>
        <time>2022-06-09T07:27:31Z</time>
      </trkpt>
      <trkpt lat="44.72715" lon="4.49906">
        <ele>708.2</ele>
        <time>2022-06-09T07:27:32Z</time>
      </trkpt>
      <trkpt lat="44.72713" lon="4.49904">
        <ele>708.4</ele>
        <time>2022-06-09T07:27:33Z</time>
      </trkpt>
      <trkpt lat="44.72712" lon="4.499">
        <ele>708.6</ele>
        <time>2022-06-09T07:27:35Z</time>
      </trkpt>
      <trkpt lat="44.7271" lon="4.49895">
        <ele>708.8</ele>
        <time>2022-06-09T07:27:36Z</time>
      </trkpt>
      <trkpt lat="44.72708" lon="4.4989">
        <ele>709.1</ele>
        <time>2022-06-09T07:27:38Z</time>
      </trkpt>
      <trkpt lat="44.72708" lon="4.49888">
        <ele>709.2</ele>
        <time>2022-06-09T07:27:39Z</time>
      </trkpt>
      <trkpt lat="44.72707" lon="4.49886">
        <ele>709.3</ele>
        <time>2022-06-09T07:27:40Z</time>
      </trkpt>
      <trkpt lat="44.72706" lon="4.49883">
        <ele>709.4</ele>
        <time>2022-06-09T07:27:41Z</time>
      </trkpt>
      <trkpt lat="44.72705" lon="4.49879">
        <ele>709.6</ele>
        <time>2022-06-09T07:27:43Z</time>
      </trkpt>
      <trkpt lat="44.72703" lon="4.49876">
        <ele>709.8</ele>
        <time>2022-06-09T07:27:44Z</time>
      </trkpt>
      <trkpt lat="44.72701" lon="4.49869">
        <ele>710.1</ele>
        <time>2022-06-09T07:27:46Z</time>
      </trkpt>
      <trkpt lat="44.727" lon="4.49865">
        <ele>710.3</ele>
        <time>2022-06-09T07:27:48Z</time>
      </trkpt>
      <trkpt lat="44.72699" lon="4.49862">
        <ele>710.5</ele>
        <time>2022-06-09T07:27:50Z</time>
      </trkpt>
      <trkpt lat="44.72697" lon="4.49858">
        <ele>710.6</ele>
        <time>2022-06-09T07:27:51Z</time>
      </trkpt>
      <trkpt lat="44.72696" lon="4.49855">
        <ele>710.8</ele>
        <time>2022-06-09T07:27:52Z</time>
      </trkpt>
      <trkpt lat="44.72695" lon="4.49852">
        <ele>710.9</ele>
        <time>2022-06-09T07:27:54Z</time>
      </trkpt>
      <trkpt lat="44.72694" lon="4.49847">
        <ele>711.1</ele>
        <time>2022-06-09T07:27:55Z</time>
      </trkpt>
      <trkpt lat="44.72694" lon="4.49846">
        <ele>711.2</ele>
        <time>2022-06-09T07:27:56Z</time>
      </trkpt>
      <trkpt lat="44.72693" lon="4.49844">
        <ele>711.3</ele>
        <time>2022-06-09T07:27:57Z</time>
      </trkpt>
      <trkpt lat="44.72692" lon="4.49839">
        <ele>711.6</ele>
        <time>2022-06-09T07:27:59Z</time>
      </trkpt>
      <trkpt lat="44.72691" lon="4.49835">
        <ele>711.8</ele>
        <time>2022-06-09T07:28:00Z</time>
      </trkpt>
      <trkpt lat="44.7269" lon="4.49832">
        <ele>711.9</ele>
        <time>2022-06-09T07:28:01Z</time>
      </trkpt>
      <trkpt lat="44.72689" lon="4.49829">
        <ele>712.1</ele>
        <time>2022-06-09T07:28:03Z</time>
      </trkpt>
      <trkpt lat="44.72688" lon="4.49824">
        <ele>712.4</ele>
        <time>2022-06-09T07:28:05Z</time>
      </trkpt>
      <trkpt lat="44.72687" lon="4.49822">
        <ele>712.5</ele>
        <time>2022-06-09T07:28:06Z</time>
      </trkpt>
      <trkpt lat="44.72687" lon="4.4982">
        <ele>712.6</ele>
        <time>2022-06-09T07:28:07Z</time>
      </trkpt>
      <trkpt lat="44.72686" lon="4.49819">
        <ele>712.7</ele>
        <time>2022-06-09T07:28:08Z</time>
      </trkpt>
      <trkpt lat="44.72686" lon="4.49816">
        <ele>712.8</ele>
        <time>2022-06-09T07:28:09Z</time>
      </trkpt>
      <trkpt lat="44.72685" lon="4.49814">
        <ele>713</ele>
        <time>2022-06-09T07:28:10Z</time>
      </trkpt>
      <trkpt lat="44.72685" lon="4.4981">
        <ele>713.2</ele>
        <time>2022-06-09T07:28:11Z</time>
      </trkpt>
      <trkpt lat="44.72685" lon="4.49807">
        <ele>713.3</ele>
        <time>2022-06-09T07:28:13Z</time>
      </trkpt>
      <trkpt lat="44.72684" lon="4.49804">
        <ele>713.5</ele>
        <time>2022-06-09T07:28:14Z</time>
      </trkpt>
      <trkpt lat="44.72684" lon="4.49802">
        <ele>713.6</ele>
        <time>2022-06-09T07:28:15Z</time>
      </trkpt>
      <trkpt lat="44.72683" lon="4.49798">
        <ele>713.8</ele>
        <time>2022-06-09T07:28:16Z</time>
      </trkpt>
      <trkpt lat="44.72682" lon="4.49797">
        <ele>713.9</ele>
        <time>2022-06-09T07:28:17Z</time>
      </trkpt>
      <trkpt lat="44.72681" lon="4.49793">
        <ele>714.1</ele>
        <time>2022-06-09T07:28:18Z</time>
      </trkpt>
      <trkpt lat="44.72681" lon="4.49792">
        <ele>714.2</ele>
        <time>2022-06-09T07:28:19Z</time>
      </trkpt>
      <trkpt lat="44.7268" lon="4.49788">
        <ele>714.4</ele>
        <time>2022-06-09T07:28:20Z</time>
      </trkpt>
      <trkpt lat="44.72679" lon="4.49787">
        <ele>714.5</ele>
        <time>2022-06-09T07:28:21Z</time>
      </trkpt>
      <trkpt lat="44.72679" lon="4.49782">
        <ele>714.7</ele>
        <time>2022-06-09T07:28:22Z</time>
      </trkpt>
      <trkpt lat="44.72678" lon="4.49781">
        <ele>714.8</ele>
        <time>2022-06-09T07:28:23Z</time>
      </trkpt>
      <trkpt lat="44.72676" lon="4.49777">
        <ele>715</ele>
        <time>2022-06-09T07:28:24Z</time>
      </trkpt>
      <trkpt lat="44.72676" lon="4.49776">
        <ele>715.1</ele>
        <time>2022-06-09T07:28:25Z</time>
      </trkpt>
      <trkpt lat="44.72675" lon="4.49775">
        <ele>715.2</ele>
        <time>2022-06-09T07:28:26Z</time>
      </trkpt>
      <trkpt lat="44.72674" lon="4.49769">
        <ele>715.5</ele>
        <time>2022-06-09T07:28:27Z</time>
      </trkpt>
      <trkpt lat="44.72673" lon="4.49767">
        <ele>715.6</ele>
        <time>2022-06-09T07:28:29Z</time>
      </trkpt>
      <trkpt lat="44.72672" lon="4.49763">
        <ele>715.8</ele>
        <time>2022-06-09T07:28:30Z</time>
      </trkpt>
      <trkpt lat="44.72672" lon="4.49762">
        <ele>715.9</ele>
        <time>2022-06-09T07:28:31Z</time>
      </trkpt>
      <trkpt lat="44.7267" lon="4.49758">
        <ele>716.1</ele>
        <time>2022-06-09T07:28:32Z</time>
      </trkpt>
      <trkpt lat="44.7267" lon="4.49757">
        <ele>716.1</ele>
        <time>2022-06-09T07:28:33Z</time>
      </trkpt>
      <trkpt lat="44.72669" lon="4.49753">
        <ele>716.3</ele>
        <time>2022-06-09T07:28:34Z</time>
      </trkpt>
      <trkpt lat="44.72669" lon="4.49752">
        <ele>716.4</ele>
        <time>2022-06-09T07:28:35Z</time>
      </trkpt>
      <trkpt lat="44.72667" lon="4.49749">
        <ele>716.6</ele>
        <time>2022-06-09T07:28:36Z</time>
      </trkpt>
      <trkpt lat="44.72666" lon="4.49746">
        <ele>716.7</ele>
        <time>2022-06-09T07:28:38Z</time>
      </trkpt>
      <trkpt lat="44.72665" lon="4.49744">
        <ele>716.9</ele>
        <time>2022-06-09T07:28:39Z</time>
      </trkpt>
      <trkpt lat="44.72664" lon="4.49742">
        <ele>717</ele>
        <time>2022-06-09T07:28:40Z</time>
      </trkpt>
      <trkpt lat="44.72663" lon="4.4974">
        <ele>717.1</ele>
        <time>2022-06-09T07:28:41Z</time>
      </trkpt>
      <trkpt lat="44.72663" lon="4.49738">
        <ele>717.2</ele>
        <time>2022-06-09T07:28:42Z</time>
      </trkpt>
      <trkpt lat="44.72662" lon="4.49735">
        <ele>717.4</ele>
        <time>2022-06-09T07:28:43Z</time>
      </trkpt>
      <trkpt lat="44.72661" lon="4.49734">
        <ele>717.5</ele>
        <time>2022-06-09T07:28:44Z</time>
      </trkpt>
      <trkpt lat="44.7266" lon="4.49729">
        <ele>717.7</ele>
        <time>2022-06-09T07:28:46Z</time>
      </trkpt>
      <trkpt lat="44.72658" lon="4.49725">
        <ele>717.9</ele>
        <time>2022-06-09T07:28:47Z</time>
      </trkpt>
      <trkpt lat="44.72657" lon="4.49722">
        <ele>718.1</ele>
        <time>2022-06-09T07:28:49Z</time>
      </trkpt>
      <trkpt lat="44.72655" lon="4.49717">
        <ele>718.3</ele>
        <time>2022-06-09T07:28:51Z</time>
      </trkpt>
      <trkpt lat="44.72654" lon="4.49714">
        <ele>718.5</ele>
        <time>2022-06-09T07:28:52Z</time>
      </trkpt>
      <trkpt lat="44.72654" lon="4.49712">
        <ele>718.6</ele>
        <time>2022-06-09T07:28:53Z</time>
      </trkpt>
      <trkpt lat="44.72653" lon="4.4971">
        <ele>718.7</ele>
        <time>2022-06-09T07:28:54Z</time>
      </trkpt>
      <trkpt lat="44.72652" lon="4.49709">
        <ele>718.8</ele>
        <time>2022-06-09T07:28:55Z</time>
      </trkpt>
      <trkpt lat="44.7265" lon="4.49704">
        <ele>719.1</ele>
        <time>2022-06-09T07:28:56Z</time>
      </trkpt>
      <trkpt lat="44.72648" lon="4.497">
        <ele>719.3</ele>
        <time>2022-06-09T07:28:58Z</time>
      </trkpt>
      <trkpt lat="44.72648" lon="4.49699">
        <ele>719.3</ele>
        <time>2022-06-09T07:28:59Z</time>
      </trkpt>
      <trkpt lat="44.72646" lon="4.49694">
        <ele>719.6</ele>
        <time>2022-06-09T07:29:01Z</time>
      </trkpt>
      <trkpt lat="44.72645" lon="4.4969">
        <ele>719.8</ele>
        <time>2022-06-09T07:29:02Z</time>
      </trkpt>
      <trkpt lat="44.72644" lon="4.49689">
        <ele>719.9</ele>
        <time>2022-06-09T07:29:03Z</time>
      </trkpt>
      <trkpt lat="44.72643" lon="4.49684">
        <ele>720.1</ele>
        <time>2022-06-09T07:29:04Z</time>
      </trkpt>
      <trkpt lat="44.72642" lon="4.49681">
        <ele>720.4</ele>
        <time>2022-06-09T07:29:06Z</time>
      </trkpt>
      <trkpt lat="44.7264" lon="4.49676">
        <ele>720.9</ele>
        <time>2022-06-09T07:29:08Z</time>
      </trkpt>
      <trkpt lat="44.72639" lon="4.49672">
        <ele>721.3</ele>
        <time>2022-06-09T07:29:09Z</time>
      </trkpt>
      <trkpt lat="44.72638" lon="4.49671">
        <ele>721.5</ele>
        <time>2022-06-09T07:29:10Z</time>
      </trkpt>
      <trkpt lat="44.72636" lon="4.49667">
        <ele>721.9</ele>
        <time>2022-06-09T07:29:11Z</time>
      </trkpt>
      <trkpt lat="44.72636" lon="4.49666">
        <ele>722</ele>
        <time>2022-06-09T07:29:12Z</time>
      </trkpt>
      <trkpt lat="44.72634" lon="4.49662">
        <ele>722.4</ele>
        <time>2022-06-09T07:29:13Z</time>
      </trkpt>
      <trkpt lat="44.72634" lon="4.49661">
        <ele>722.5</ele>
        <time>2022-06-09T07:29:14Z</time>
      </trkpt>
      <trkpt lat="44.72633" lon="4.49659">
        <ele>722.8</ele>
        <time>2022-06-09T07:29:15Z</time>
      </trkpt>
      <trkpt lat="44.72631" lon="4.49656">
        <ele>723.2</ele>
        <time>2022-06-09T07:29:16Z</time>
      </trkpt>
      <trkpt lat="44.7263" lon="4.49654">
        <ele>723.5</ele>
        <time>2022-06-09T07:29:18Z</time>
      </trkpt>
      <trkpt lat="44.72629" lon="4.49652">
        <ele>723.7</ele>
        <time>2022-06-09T07:29:19Z</time>
      </trkpt>
      <trkpt lat="44.72628" lon="4.4965">
        <ele>723.9</ele>
        <time>2022-06-09T07:29:20Z</time>
      </trkpt>
      <trkpt lat="44.72628" lon="4.49648">
        <ele>724.2</ele>
        <time>2022-06-09T07:29:21Z</time>
      </trkpt>
      <trkpt lat="44.72627" lon="4.49645">
        <ele>725.2</ele>
        <time>2022-06-09T07:29:22Z</time>
      </trkpt>
      <trkpt lat="44.72627" lon="4.49641">
        <ele>725.3</ele>
        <time>2022-06-09T07:29:23Z</time>
      </trkpt>
      <trkpt lat="44.72628" lon="4.49636">
        <ele>725.4</ele>
        <time>2022-06-09T07:29:24Z</time>
      </trkpt>
      <trkpt lat="44.72628" lon="4.49635">
        <ele>725.4</ele>
        <time>2022-06-09T07:29:25Z</time>
      </trkpt>
      <trkpt lat="44.72629" lon="4.49633">
        <ele>725.4</ele>
        <time>2022-06-09T07:29:26Z</time>
      </trkpt>
      <trkpt lat="44.7263" lon="4.4963">
        <ele>725.5</ele>
        <time>2022-06-09T07:29:28Z</time>
      </trkpt>
      <trkpt lat="44.72633" lon="4.49626">
        <ele>725.5</ele>
        <time>2022-06-09T07:29:29Z</time>
      </trkpt>
      <trkpt lat="44.72635" lon="4.49625">
        <ele>725.6</ele>
        <time>2022-06-09T07:29:31Z</time>
      </trkpt>
      <trkpt lat="44.72636" lon="4.49624">
        <ele>725.6</ele>
        <time>2022-06-09T07:29:32Z</time>
      </trkpt>
      <trkpt lat="44.72639" lon="4.49622">
        <ele>725.8</ele>
        <time>2022-06-09T07:29:33Z</time>
      </trkpt>
      <trkpt lat="44.7264" lon="4.49621">
        <ele>725.8</ele>
        <time>2022-06-09T07:29:34Z</time>
      </trkpt>
      <trkpt lat="44.72645" lon="4.49623">
        <ele>725.9</ele>
        <time>2022-06-09T07:29:36Z</time>
      </trkpt>
      <trkpt lat="44.72647" lon="4.49624">
        <ele>726</ele>
        <time>2022-06-09T07:29:38Z</time>
      </trkpt>
      <trkpt lat="44.72649" lon="4.49625">
        <ele>726</ele>
        <time>2022-06-09T07:29:39Z</time>
      </trkpt>
      <trkpt lat="44.72651" lon="4.49627">
        <ele>726.1</ele>
        <time>2022-06-09T07:29:40Z</time>
      </trkpt>
      <trkpt lat="44.72652" lon="4.49629">
        <ele>726.1</ele>
        <time>2022-06-09T07:29:41Z</time>
      </trkpt>
      <trkpt lat="44.72653" lon="4.49631">
        <ele>726.2</ele>
        <time>2022-06-09T07:29:43Z</time>
      </trkpt>
      <trkpt lat="44.72655" lon="4.49634">
        <ele>726.2</ele>
        <time>2022-06-09T07:29:44Z</time>
      </trkpt>
      <trkpt lat="44.72657" lon="4.49638">
        <ele>726.3</ele>
        <time>2022-06-09T07:29:46Z</time>
      </trkpt>
      <trkpt lat="44.72657" lon="4.4964">
        <ele>726.4</ele>
        <time>2022-06-09T07:29:47Z</time>
      </trkpt>
      <trkpt lat="44.72658" lon="4.49642">
        <ele>726.4</ele>
        <time>2022-06-09T07:29:48Z</time>
      </trkpt>
      <trkpt lat="44.7266" lon="4.49645">
        <ele>726.5</ele>
        <time>2022-06-09T07:29:50Z</time>
      </trkpt>
      <trkpt lat="44.72662" lon="4.4965">
        <ele>726.6</ele>
        <time>2022-06-09T07:29:51Z</time>
      </trkpt>
      <trkpt lat="44.72662" lon="4.49653">
        <ele>726.7</ele>
        <time>2022-06-09T07:29:52Z</time>
      </trkpt>
      <trkpt lat="44.72664" lon="4.49657">
        <ele>726.8</ele>
        <time>2022-06-09T07:29:54Z</time>
      </trkpt>
      <trkpt lat="44.72666" lon="4.4966">
        <ele>726.9</ele>
        <time>2022-06-09T07:29:56Z</time>
      </trkpt>
      <trkpt lat="44.72667" lon="4.49661">
        <ele>727</ele>
        <time>2022-06-09T07:29:57Z</time>
      </trkpt>
      <trkpt lat="44.72668" lon="4.49665">
        <ele>727.1</ele>
        <time>2022-06-09T07:29:58Z</time>
      </trkpt>
      <trkpt lat="44.72669" lon="4.49666">
        <ele>727.1</ele>
        <time>2022-06-09T07:29:59Z</time>
      </trkpt>
      <trkpt lat="44.72671" lon="4.49669">
        <ele>727.2</ele>
        <time>2022-06-09T07:30:00Z</time>
      </trkpt>
      <trkpt lat="44.72672" lon="4.4967">
        <ele>727.3</ele>
        <time>2022-06-09T07:30:01Z</time>
      </trkpt>
      <trkpt lat="44.72673" lon="4.49672">
        <ele>727.4</ele>
        <time>2022-06-09T07:30:03Z</time>
      </trkpt>
      <trkpt lat="44.72674" lon="4.49674">
        <ele>727.4</ele>
        <time>2022-06-09T07:30:04Z</time>
      </trkpt>
      <trkpt lat="44.72676" lon="4.49679">
        <ele>727.6</ele>
        <time>2022-06-09T07:30:05Z</time>
      </trkpt>
      <trkpt lat="44.72676" lon="4.4968">
        <ele>727.7</ele>
        <time>2022-06-09T07:30:06Z</time>
      </trkpt>
      <trkpt lat="44.72677" lon="4.49682">
        <ele>727.8</ele>
        <time>2022-06-09T07:30:08Z</time>
      </trkpt>
      <trkpt lat="44.72678" lon="4.49684">
        <ele>727.8</ele>
        <time>2022-06-09T07:30:09Z</time>
      </trkpt>
      <trkpt lat="44.72679" lon="4.49686">
        <ele>727.9</ele>
        <time>2022-06-09T07:30:10Z</time>
      </trkpt>
      <trkpt lat="44.72681" lon="4.4969">
        <ele>728.1</ele>
        <time>2022-06-09T07:30:11Z</time>
      </trkpt>
      <trkpt lat="44.72683" lon="4.49691">
        <ele>728.2</ele>
        <time>2022-06-09T07:30:13Z</time>
      </trkpt>
      <trkpt lat="44.72683" lon="4.49693">
        <ele>728.3</ele>
        <time>2022-06-09T07:30:14Z</time>
      </trkpt>
      <trkpt lat="44.72684" lon="4.49695">
        <ele>728.4</ele>
        <time>2022-06-09T07:30:15Z</time>
      </trkpt>
      <trkpt lat="44.72686" lon="4.49699">
        <ele>728.5</ele>
        <time>2022-06-09T07:30:16Z</time>
      </trkpt>
      <trkpt lat="44.72686" lon="4.497">
        <ele>728.6</ele>
        <time>2022-06-09T07:30:17Z</time>
      </trkpt>
      <trkpt lat="44.72687" lon="4.49702">
        <ele>728.7</ele>
        <time>2022-06-09T07:30:18Z</time>
      </trkpt>
      <trkpt lat="44.72688" lon="4.49703">
        <ele>728.8</ele>
        <time>2022-06-09T07:30:19Z</time>
      </trkpt>
      <trkpt lat="44.7269" lon="4.49706">
        <ele>728.9</ele>
        <time>2022-06-09T07:30:20Z</time>
      </trkpt>
      <trkpt lat="44.7269" lon="4.49708">
        <ele>729</ele>
        <time>2022-06-09T07:30:21Z</time>
      </trkpt>
      <trkpt lat="44.72692" lon="4.49711">
        <ele>729.2</ele>
        <time>2022-06-09T07:30:22Z</time>
      </trkpt>
      <trkpt lat="44.72693" lon="4.49712">
        <ele>729.3</ele>
        <time>2022-06-09T07:30:23Z</time>
      </trkpt>
      <trkpt lat="44.72693" lon="4.49714">
        <ele>729.4</ele>
        <time>2022-06-09T07:30:24Z</time>
      </trkpt>
      <trkpt lat="44.72694" lon="4.49716">
        <ele>729.5</ele>
        <time>2022-06-09T07:30:25Z</time>
      </trkpt>
      <trkpt lat="44.72696" lon="4.49719">
        <ele>729.7</ele>
        <time>2022-06-09T07:30:26Z</time>
      </trkpt>
      <trkpt lat="44.72697" lon="4.4972">
        <ele>729.8</ele>
        <time>2022-06-09T07:30:27Z</time>
      </trkpt>
      <trkpt lat="44.72698" lon="4.49723">
        <ele>730</ele>
        <time>2022-06-09T07:30:28Z</time>
      </trkpt>
      <trkpt lat="44.72699" lon="4.49726">
        <ele>730.2</ele>
        <time>2022-06-09T07:30:30Z</time>
      </trkpt>
      <trkpt lat="44.72701" lon="4.49729">
        <ele>730.4</ele>
        <time>2022-06-09T07:30:31Z</time>
      </trkpt>
      <trkpt lat="44.72702" lon="4.4973">
        <ele>730.5</ele>
        <time>2022-06-09T07:30:32Z</time>
      </trkpt>
      <trkpt lat="44.72705" lon="4.49732">
        <ele>730.8</ele>
        <time>2022-06-09T07:30:33Z</time>
      </trkpt>
      <trkpt lat="44.72706" lon="4.49733">
        <ele>730.9</ele>
        <time>2022-06-09T07:30:34Z</time>
      </trkpt>
      <trkpt lat="44.72707" lon="4.49735">
        <ele>731.1</ele>
        <time>2022-06-09T07:30:36Z</time>
      </trkpt>
      <trkpt lat="44.72709" lon="4.49736">
        <ele>731.2</ele>
        <time>2022-06-09T07:30:37Z</time>
      </trkpt>
      <trkpt lat="44.72711" lon="4.49738">
        <ele>731.5</ele>
        <time>2022-06-09T07:30:38Z</time>
      </trkpt>
      <trkpt lat="44.72713" lon="4.4974">
        <ele>731.7</ele>
        <time>2022-06-09T07:30:40Z</time>
      </trkpt>
      <trkpt lat="44.72715" lon="4.49741">
        <ele>731.8</ele>
        <time>2022-06-09T07:30:41Z</time>
      </trkpt>
      <trkpt lat="44.72717" lon="4.49741">
        <ele>732</ele>
        <time>2022-06-09T07:30:42Z</time>
      </trkpt>
      <trkpt lat="44.72719" lon="4.49743">
        <ele>732.2</ele>
        <time>2022-06-09T07:30:43Z</time>
      </trkpt>
      <trkpt lat="44.72721" lon="4.49743">
        <ele>732.4</ele>
        <time>2022-06-09T07:30:45Z</time>
      </trkpt>
      <trkpt lat="44.72722" lon="4.49743">
        <ele>732.5</ele>
        <time>2022-06-09T07:30:46Z</time>
      </trkpt>
      <trkpt lat="44.72724" lon="4.49744">
        <ele>732.7</ele>
        <time>2022-06-09T07:30:47Z</time>
      </trkpt>
      <trkpt lat="44.72727" lon="4.49743">
        <ele>733</ele>
        <time>2022-06-09T07:30:48Z</time>
      </trkpt>
      <trkpt lat="44.72729" lon="4.49743">
        <ele>733.1</ele>
        <time>2022-06-09T07:30:49Z</time>
      </trkpt>
      <trkpt lat="44.72731" lon="4.49742">
        <ele>733.2</ele>
        <time>2022-06-09T07:30:50Z</time>
      </trkpt>
      <trkpt lat="44.72732" lon="4.49741">
        <ele>733.3</ele>
        <time>2022-06-09T07:30:51Z</time>
      </trkpt>
      <trkpt lat="44.72734" lon="4.49739">
        <ele>733.5</ele>
        <time>2022-06-09T07:30:52Z</time>
      </trkpt>
      <trkpt lat="44.72736" lon="4.49736">
        <ele>733.7</ele>
        <time>2022-06-09T07:30:54Z</time>
      </trkpt>
      <trkpt lat="44.72738" lon="4.49734">
        <ele>733.8</ele>
        <time>2022-06-09T07:30:56Z</time>
      </trkpt>
      <trkpt lat="44.7274" lon="4.49731">
        <ele>734</ele>
        <time>2022-06-09T07:30:57Z</time>
      </trkpt>
      <trkpt lat="44.72743" lon="4.49729">
        <ele>734.2</ele>
        <time>2022-06-09T07:30:59Z</time>
      </trkpt>
      <trkpt lat="44.72744" lon="4.49728">
        <ele>734.2</ele>
        <time>2022-06-09T07:31:00Z</time>
      </trkpt>
      <trkpt lat="44.72746" lon="4.49725">
        <ele>734.3</ele>
        <time>2022-06-09T07:31:01Z</time>
      </trkpt>
      <trkpt lat="44.72747" lon="4.49724">
        <ele>734.4</ele>
        <time>2022-06-09T07:31:02Z</time>
      </trkpt>
      <trkpt lat="44.72749" lon="4.49721">
        <ele>734.5</ele>
        <time>2022-06-09T07:31:03Z</time>
      </trkpt>
      <trkpt lat="44.7275" lon="4.4972">
        <ele>734.6</ele>
        <time>2022-06-09T07:31:04Z</time>
      </trkpt>
      <trkpt lat="44.72752" lon="4.49716">
        <ele>734.7</ele>
        <time>2022-06-09T07:31:05Z</time>
      </trkpt>
      <trkpt lat="44.72753" lon="4.49716">
        <ele>734.8</ele>
        <time>2022-06-09T07:31:06Z</time>
      </trkpt>
      <trkpt lat="44.72755" lon="4.49716">
        <ele>734.9</ele>
        <time>2022-06-09T07:31:07Z</time>
      </trkpt>
      <trkpt lat="44.72756" lon="4.49715">
        <ele>734.9</ele>
        <time>2022-06-09T07:31:08Z</time>
      </trkpt>
      <trkpt lat="44.72758" lon="4.49714">
        <ele>735</ele>
        <time>2022-06-09T07:31:10Z</time>
      </trkpt>
      <trkpt lat="44.72758" lon="4.49714">
        <ele>735</ele>
        <time>2022-06-09T07:31:11Z</time>
      </trkpt>
      <trkpt lat="44.72758" lon="4.49714">
        <ele>735</ele>
        <time>2022-06-09T07:31:12Z</time>
      </trkpt>
      <trkpt lat="44.72758" lon="4.49715">
        <ele>735.1</ele>
        <time>2022-06-09T07:31:13Z</time>
      </trkpt>
      <trkpt lat="44.72758" lon="4.49715">
        <ele>735.1</ele>
        <time>2022-06-09T07:31:14Z</time>
      </trkpt>
      <trkpt lat="44.72758" lon="4.49715">
        <ele>735.1</ele>
        <time>2022-06-09T07:31:15Z</time>
      </trkpt>
      <trkpt lat="44.72758" lon="4.49715">
        <ele>735.1</ele>
        <time>2022-06-09T07:31:16Z</time>
      </trkpt>
      <trkpt lat="44.72758" lon="4.49715">
        <ele>735.1</ele>
        <time>2022-06-09T07:31:17Z</time>
      </trkpt>
      <trkpt lat="44.72758" lon="4.49715">
        <ele>735.1</ele>
        <time>2022-06-09T07:31:18Z</time>
      </trkpt>
      <trkpt lat="44.72758" lon="4.49715">
        <ele>735.1</ele>
        <time>2022-06-09T07:31:19Z</time>
      </trkpt>
      <trkpt lat="44.72759" lon="4.49715">
        <ele>735.1</ele>
        <time>2022-06-09T07:31:20Z</time>
      </trkpt>
      <trkpt lat="44.72759" lon="4.49715">
        <ele>735.1</ele>
        <time>2022-06-09T07:31:27Z</time>
      </trkpt>
      <trkpt lat="44.7276" lon="4.49714">
        <ele>735.1</ele>
        <time>2022-06-09T07:31:28Z</time>
      </trkpt>
      <trkpt lat="44.7276" lon="4.49714">
        <ele>735.2</ele>
        <time>2022-06-09T07:31:29Z</time>
      </trkpt>
      <trkpt lat="44.7276" lon="4.49713">
        <ele>735.2</ele>
        <time>2022-06-09T07:31:30Z</time>
      </trkpt>
      <trkpt lat="44.72761" lon="4.49713">
        <ele>735.2</ele>
        <time>2022-06-09T07:31:31Z</time>
      </trkpt>
      <trkpt lat="44.72762" lon="4.49712">
        <ele>735.3</ele>
        <time>2022-06-09T07:31:32Z</time>
      </trkpt>
      <trkpt lat="44.72763" lon="4.49711">
        <ele>735.4</ele>
        <time>2022-06-09T07:31:33Z</time>
      </trkpt>
      <trkpt lat="44.72764" lon="4.49711">
        <ele>735.4</ele>
        <time>2022-06-09T07:31:34Z</time>
      </trkpt>
      <trkpt lat="44.72764" lon="4.49711">
        <ele>735.4</ele>
        <time>2022-06-09T07:31:35Z</time>
      </trkpt>
      <trkpt lat="44.72765" lon="4.49711">
        <ele>735.5</ele>
        <time>2022-06-09T07:31:36Z</time>
      </trkpt>
      <trkpt lat="44.72765" lon="4.4971">
        <ele>735.5</ele>
        <time>2022-06-09T07:31:37Z</time>
      </trkpt>
      <trkpt lat="44.72765" lon="4.49709">
        <ele>735.5</ele>
        <time>2022-06-09T07:31:38Z</time>
      </trkpt>
      <trkpt lat="44.72765" lon="4.49709">
        <ele>735.5</ele>
        <time>2022-06-09T07:31:39Z</time>
      </trkpt>
      <trkpt lat="44.72765" lon="4.49708">
        <ele>735.6</ele>
        <time>2022-06-09T07:31:40Z</time>
      </trkpt>
      <trkpt lat="44.72766" lon="4.49708">
        <ele>735.6</ele>
        <time>2022-06-09T07:31:41Z</time>
      </trkpt>
      <trkpt lat="44.72766" lon="4.49707">
        <ele>735.6</ele>
        <time>2022-06-09T07:31:42Z</time>
      </trkpt>
      <trkpt lat="44.72766" lon="4.49706">
        <ele>735.6</ele>
        <time>2022-06-09T07:31:43Z</time>
      </trkpt>
      <trkpt lat="44.72766" lon="4.49706">
        <ele>735.7</ele>
        <time>2022-06-09T07:31:44Z</time>
      </trkpt>
      <trkpt lat="44.72766" lon="4.49705">
        <ele>735.7</ele>
        <time>2022-06-09T07:31:45Z</time>
      </trkpt>
      <trkpt lat="44.72766" lon="4.49705">
        <ele>735.7</ele>
        <time>2022-06-09T07:34:11Z</time>
      </trkpt>
      <trkpt lat="44.72767" lon="4.49704">
        <ele>735.7</ele>
        <time>2022-06-09T07:34:12Z</time>
      </trkpt>
      <trkpt lat="44.72767" lon="4.49703">
        <ele>735.8</ele>
        <time>2022-06-09T07:34:13Z</time>
      </trkpt>
      <trkpt lat="44.72767" lon="4.49703">
        <ele>735.8</ele>
        <time>2022-06-09T07:34:15Z</time>
      </trkpt>
      <trkpt lat="44.72767" lon="4.49702">
        <ele>735.8</ele>
        <time>2022-06-09T07:34:16Z</time>
      </trkpt>
      <trkpt lat="44.72767" lon="4.49701">
        <ele>735.9</ele>
        <time>2022-06-09T07:34:17Z</time>
      </trkpt>
      <trkpt lat="44.72767" lon="4.497">
        <ele>735.9</ele>
        <time>2022-06-09T07:34:18Z</time>
      </trkpt>
      <trkpt lat="44.72768" lon="4.49698">
        <ele>736</ele>
        <time>2022-06-09T07:34:19Z</time>
      </trkpt>
      <trkpt lat="44.72768" lon="4.49696">
        <ele>736</ele>
        <time>2022-06-09T07:34:20Z</time>
      </trkpt>
      <trkpt lat="44.72768" lon="4.49696">
        <ele>736.1</ele>
        <time>2022-06-09T07:34:22Z</time>
      </trkpt>
      <trkpt lat="44.72769" lon="4.49695">
        <ele>736.1</ele>
        <time>2022-06-09T07:34:23Z</time>
      </trkpt>
      <trkpt lat="44.72769" lon="4.49695">
        <ele>736.1</ele>
        <time>2022-06-09T07:34:24Z</time>
      </trkpt>
      <trkpt lat="44.72769" lon="4.49694">
        <ele>736.1</ele>
        <time>2022-06-09T07:34:25Z</time>
      </trkpt>
      <trkpt lat="44.72769" lon="4.49693">
        <ele>736.2</ele>
        <time>2022-06-09T07:34:26Z</time>
      </trkpt>
      <trkpt lat="44.72769" lon="4.49693">
        <ele>736.2</ele>
        <time>2022-06-09T07:34:27Z</time>
      </trkpt>
      <trkpt lat="44.7277" lon="4.49692">
        <ele>736.2</ele>
        <time>2022-06-09T07:34:28Z</time>
      </trkpt>
      <trkpt lat="44.7277" lon="4.49692">
        <ele>736.2</ele>
        <time>2022-06-09T07:34:29Z</time>
      </trkpt>
      <trkpt lat="44.7277" lon="4.49691">
        <ele>736.3</ele>
        <time>2022-06-09T07:34:30Z</time>
      </trkpt>
      <trkpt lat="44.7277" lon="4.49691">
        <ele>736.3</ele>
        <time>2022-06-09T07:34:31Z</time>
      </trkpt>
      <trkpt lat="44.7277" lon="4.4969">
        <ele>736.3</ele>
        <time>2022-06-09T07:34:32Z</time>
      </trkpt>
      <trkpt lat="44.72771" lon="4.49689">
        <ele>736.3</ele>
        <time>2022-06-09T07:34:41Z</time>
      </trkpt>
      <trkpt lat="44.72771" lon="4.49689">
        <ele>736.4</ele>
        <time>2022-06-09T07:34:42Z</time>
      </trkpt>
      <trkpt lat="44.72771" lon="4.49688">
        <ele>736.4</ele>
        <time>2022-06-09T07:34:43Z</time>
      </trkpt>
      <trkpt lat="44.72774" lon="4.49684">
        <ele>736.6</ele>
        <time>2022-06-09T07:34:45Z</time>
      </trkpt>
      <trkpt lat="44.72775" lon="4.49683">
        <ele>736.7</ele>
        <time>2022-06-09T07:34:46Z</time>
      </trkpt>
      <trkpt lat="44.72777" lon="4.49681">
        <ele>736.8</ele>
        <time>2022-06-09T07:34:47Z</time>
      </trkpt>
      <trkpt lat="44.72778" lon="4.49678">
        <ele>737</ele>
        <time>2022-06-09T07:34:48Z</time>
      </trkpt>
      <trkpt lat="44.72779" lon="4.49677">
        <ele>737.1</ele>
        <time>2022-06-09T07:34:49Z</time>
      </trkpt>
      <trkpt lat="44.72781" lon="4.49675">
        <ele>737.3</ele>
        <time>2022-06-09T07:34:50Z</time>
      </trkpt>
      <trkpt lat="44.72782" lon="4.49674">
        <ele>737.3</ele>
        <time>2022-06-09T07:34:51Z</time>
      </trkpt>
      <trkpt lat="44.72784" lon="4.49671">
        <ele>737.5</ele>
        <time>2022-06-09T07:34:52Z</time>
      </trkpt>
      <trkpt lat="44.72785" lon="4.49671">
        <ele>737.6</ele>
        <time>2022-06-09T07:34:53Z</time>
      </trkpt>
      <trkpt lat="44.72787" lon="4.49668">
        <ele>737.8</ele>
        <time>2022-06-09T07:34:54Z</time>
      </trkpt>
      <trkpt lat="44.72788" lon="4.49667">
        <ele>737.8</ele>
        <time>2022-06-09T07:34:55Z</time>
      </trkpt>
      <trkpt lat="44.7279" lon="4.49664">
        <ele>738</ele>
        <time>2022-06-09T07:34:56Z</time>
      </trkpt>
      <trkpt lat="44.72791" lon="4.49663">
        <ele>738.1</ele>
        <time>2022-06-09T07:34:57Z</time>
      </trkpt>
      <trkpt lat="44.72793" lon="4.49661">
        <ele>738.3</ele>
        <time>2022-06-09T07:34:58Z</time>
      </trkpt>
      <trkpt lat="44.72794" lon="4.4966">
        <ele>738.4</ele>
        <time>2022-06-09T07:34:59Z</time>
      </trkpt>
      <trkpt lat="44.72796" lon="4.49658">
        <ele>738.6</ele>
        <time>2022-06-09T07:35:00Z</time>
      </trkpt>
      <trkpt lat="44.72798" lon="4.49656">
        <ele>738.7</ele>
        <time>2022-06-09T07:35:02Z</time>
      </trkpt>
      <trkpt lat="44.72799" lon="4.49653">
        <ele>739</ele>
        <time>2022-06-09T07:35:03Z</time>
      </trkpt>
      <trkpt lat="44.728" lon="4.49651">
        <ele>739</ele>
        <time>2022-06-09T07:35:04Z</time>
      </trkpt>
      <trkpt lat="44.72801" lon="4.4965">
        <ele>739.2</ele>
        <time>2022-06-09T07:35:05Z</time>
      </trkpt>
      <trkpt lat="44.72803" lon="4.49648">
        <ele>739.3</ele>
        <time>2022-06-09T07:35:07Z</time>
      </trkpt>
      <trkpt lat="44.72804" lon="4.49646">
        <ele>739.5</ele>
        <time>2022-06-09T07:35:08Z</time>
      </trkpt>
      <trkpt lat="44.72805" lon="4.49644">
        <ele>739.6</ele>
        <time>2022-06-09T07:35:09Z</time>
      </trkpt>
      <trkpt lat="44.72808" lon="4.49641">
        <ele>739.9</ele>
        <time>2022-06-09T07:35:10Z</time>
      </trkpt>
      <trkpt lat="44.72808" lon="4.4964">
        <ele>739.9</ele>
        <time>2022-06-09T07:35:11Z</time>
      </trkpt>
      <trkpt lat="44.7281" lon="4.49639">
        <ele>740.1</ele>
        <time>2022-06-09T07:35:12Z</time>
      </trkpt>
      <trkpt lat="44.72812" lon="4.49637">
        <ele>740.3</ele>
        <time>2022-06-09T07:35:14Z</time>
      </trkpt>
      <trkpt lat="44.72814" lon="4.49633">
        <ele>740.5</ele>
        <time>2022-06-09T07:35:15Z</time>
      </trkpt>
      <trkpt lat="44.72814" lon="4.49633">
        <ele>740.6</ele>
        <time>2022-06-09T07:35:16Z</time>
      </trkpt>
      <trkpt lat="44.72817" lon="4.49629">
        <ele>740.9</ele>
        <time>2022-06-09T07:35:18Z</time>
      </trkpt>
      <trkpt lat="44.72819" lon="4.49626">
        <ele>741.1</ele>
        <time>2022-06-09T07:35:20Z</time>
      </trkpt>
      <trkpt lat="44.7282" lon="4.49625">
        <ele>741.2</ele>
        <time>2022-06-09T07:35:21Z</time>
      </trkpt>
      <trkpt lat="44.72822" lon="4.49623">
        <ele>741.5</ele>
        <time>2022-06-09T07:35:22Z</time>
      </trkpt>
      <trkpt lat="44.72824" lon="4.49622">
        <ele>741.6</ele>
        <time>2022-06-09T07:35:24Z</time>
      </trkpt>
      <trkpt lat="44.72825" lon="4.4962">
        <ele>741.8</ele>
        <time>2022-06-09T07:35:25Z</time>
      </trkpt>
      <trkpt lat="44.72826" lon="4.49619">
        <ele>741.9</ele>
        <time>2022-06-09T07:35:26Z</time>
      </trkpt>
      <trkpt lat="44.72829" lon="4.49615">
        <ele>742.2</ele>
        <time>2022-06-09T07:35:27Z</time>
      </trkpt>
      <trkpt lat="44.7283" lon="4.49614">
        <ele>742.3</ele>
        <time>2022-06-09T07:35:28Z</time>
      </trkpt>
      <trkpt lat="44.72832" lon="4.49612">
        <ele>742.5</ele>
        <time>2022-06-09T07:35:30Z</time>
      </trkpt>
      <trkpt lat="44.72833" lon="4.49612">
        <ele>742.6</ele>
        <time>2022-06-09T07:35:31Z</time>
      </trkpt>
      <trkpt lat="44.72834" lon="4.49611">
        <ele>742.7</ele>
        <time>2022-06-09T07:35:32Z</time>
      </trkpt>
      <trkpt lat="44.72836" lon="4.4961">
        <ele>742.8</ele>
        <time>2022-06-09T07:35:33Z</time>
      </trkpt>
      <trkpt lat="44.72837" lon="4.49609">
        <ele>742.9</ele>
        <time>2022-06-09T07:35:34Z</time>
      </trkpt>
      <trkpt lat="44.72838" lon="4.49609">
        <ele>743</ele>
        <time>2022-06-09T07:35:35Z</time>
      </trkpt>
      <trkpt lat="44.72841" lon="4.49609">
        <ele>743.2</ele>
        <time>2022-06-09T07:35:36Z</time>
      </trkpt>
      <trkpt lat="44.72842" lon="4.49608">
        <ele>743.2</ele>
        <time>2022-06-09T07:35:37Z</time>
      </trkpt>
      <trkpt lat="44.72845" lon="4.49608">
        <ele>743.4</ele>
        <time>2022-06-09T07:35:38Z</time>
      </trkpt>
      <trkpt lat="44.72847" lon="4.49609">
        <ele>743.6</ele>
        <time>2022-06-09T07:35:39Z</time>
      </trkpt>
      <trkpt lat="44.72849" lon="4.49608">
        <ele>743.7</ele>
        <time>2022-06-09T07:35:41Z</time>
      </trkpt>
      <trkpt lat="44.7285" lon="4.49609">
        <ele>743.8</ele>
        <time>2022-06-09T07:35:42Z</time>
      </trkpt>
      <trkpt lat="44.72852" lon="4.49609">
        <ele>743.9</ele>
        <time>2022-06-09T07:35:43Z</time>
      </trkpt>
      <trkpt lat="44.72853" lon="4.4961">
        <ele>744</ele>
        <time>2022-06-09T07:35:45Z</time>
      </trkpt>
      <trkpt lat="44.72855" lon="4.4961">
        <ele>744.1</ele>
        <time>2022-06-09T07:35:46Z</time>
      </trkpt>
      <trkpt lat="44.72858" lon="4.49612">
        <ele>744.3</ele>
        <time>2022-06-09T07:35:47Z</time>
      </trkpt>
      <trkpt lat="44.72859" lon="4.49613">
        <ele>744.4</ele>
        <time>2022-06-09T07:35:48Z</time>
      </trkpt>
      <trkpt lat="44.72861" lon="4.49615">
        <ele>744.5</ele>
        <time>2022-06-09T07:35:49Z</time>
      </trkpt>
      <trkpt lat="44.72862" lon="4.49617">
        <ele>744.6</ele>
        <time>2022-06-09T07:35:51Z</time>
      </trkpt>
      <trkpt lat="44.72865" lon="4.49618">
        <ele>744.8</ele>
        <time>2022-06-09T07:35:52Z</time>
      </trkpt>
      <trkpt lat="44.72866" lon="4.49619">
        <ele>744.9</ele>
        <time>2022-06-09T07:35:53Z</time>
      </trkpt>
      <trkpt lat="44.72867" lon="4.49621">
        <ele>745</ele>
        <time>2022-06-09T07:35:55Z</time>
      </trkpt>
      <trkpt lat="44.72867" lon="4.49623">
        <ele>745.1</ele>
        <time>2022-06-09T07:35:56Z</time>
      </trkpt>
      <trkpt lat="44.7287" lon="4.49625">
        <ele>745.3</ele>
        <time>2022-06-09T07:35:57Z</time>
      </trkpt>
      <trkpt lat="44.72871" lon="4.49626">
        <ele>745.3</ele>
        <time>2022-06-09T07:35:59Z</time>
      </trkpt>
      <trkpt lat="44.72872" lon="4.49628">
        <ele>745.4</ele>
        <time>2022-06-09T07:36:00Z</time>
      </trkpt>
      <trkpt lat="44.72873" lon="4.49629">
        <ele>745.5</ele>
        <time>2022-06-09T07:36:01Z</time>
      </trkpt>
      <trkpt lat="44.72875" lon="4.49632">
        <ele>745.7</ele>
        <time>2022-06-09T07:36:03Z</time>
      </trkpt>
      <trkpt lat="44.72877" lon="4.49634">
        <ele>745.8</ele>
        <time>2022-06-09T07:36:04Z</time>
      </trkpt>
      <trkpt lat="44.72878" lon="4.49635">
        <ele>745.9</ele>
        <time>2022-06-09T07:36:05Z</time>
      </trkpt>
      <trkpt lat="44.7288" lon="4.49638">
        <ele>746</ele>
        <time>2022-06-09T07:36:07Z</time>
      </trkpt>
      <trkpt lat="44.72881" lon="4.49639">
        <ele>746.1</ele>
        <time>2022-06-09T07:36:08Z</time>
      </trkpt>
      <trkpt lat="44.72883" lon="4.49641">
        <ele>746.2</ele>
        <time>2022-06-09T07:36:10Z</time>
      </trkpt>
      <trkpt lat="44.72884" lon="4.49642">
        <ele>746.3</ele>
        <time>2022-06-09T07:36:11Z</time>
      </trkpt>
      <trkpt lat="44.72885" lon="4.49644">
        <ele>746.4</ele>
        <time>2022-06-09T07:36:12Z</time>
      </trkpt>
      <trkpt lat="44.72886" lon="4.49645">
        <ele>746.5</ele>
        <time>2022-06-09T07:36:13Z</time>
      </trkpt>
      <trkpt lat="44.72889" lon="4.49648">
        <ele>746.7</ele>
        <time>2022-06-09T07:36:14Z</time>
      </trkpt>
      <trkpt lat="44.7289" lon="4.49648">
        <ele>746.7</ele>
        <time>2022-06-09T07:36:15Z</time>
      </trkpt>
      <trkpt lat="44.72891" lon="4.49649">
        <ele>746.8</ele>
        <time>2022-06-09T07:36:16Z</time>
      </trkpt>
      <trkpt lat="44.72893" lon="4.49651">
        <ele>747</ele>
        <time>2022-06-09T07:36:18Z</time>
      </trkpt>
      <trkpt lat="44.72895" lon="4.49652">
        <ele>747.1</ele>
        <time>2022-06-09T07:36:19Z</time>
      </trkpt>
      <trkpt lat="44.72896" lon="4.49653">
        <ele>747.1</ele>
        <time>2022-06-09T07:36:20Z</time>
      </trkpt>
      <trkpt lat="44.72899" lon="4.49654">
        <ele>747.3</ele>
        <time>2022-06-09T07:36:21Z</time>
      </trkpt>
      <trkpt lat="44.729" lon="4.49655">
        <ele>747.3</ele>
        <time>2022-06-09T07:36:22Z</time>
      </trkpt>
      <trkpt lat="44.72903" lon="4.49656">
        <ele>747.5</ele>
        <time>2022-06-09T07:36:23Z</time>
      </trkpt>
      <trkpt lat="44.72904" lon="4.49656">
        <ele>747.5</ele>
        <time>2022-06-09T07:36:24Z</time>
      </trkpt>
      <trkpt lat="44.72906" lon="4.49657">
        <ele>747.6</ele>
        <time>2022-06-09T07:36:25Z</time>
      </trkpt>
      <trkpt lat="44.7291" lon="4.49656">
        <ele>747.8</ele>
        <time>2022-06-09T07:36:27Z</time>
      </trkpt>
      <trkpt lat="44.72914" lon="4.49656">
        <ele>747.9</ele>
        <time>2022-06-09T07:36:29Z</time>
      </trkpt>
      <trkpt lat="44.72915" lon="4.49656">
        <ele>748</ele>
        <time>2022-06-09T07:36:30Z</time>
      </trkpt>
      <trkpt lat="44.72919" lon="4.49655">
        <ele>748.1</ele>
        <time>2022-06-09T07:36:32Z</time>
      </trkpt>
      <trkpt lat="44.72923" lon="4.49655">
        <ele>748.3</ele>
        <time>2022-06-09T07:36:34Z</time>
      </trkpt>
      <trkpt lat="44.72924" lon="4.49654">
        <ele>748.3</ele>
        <time>2022-06-09T07:36:35Z</time>
      </trkpt>
      <trkpt lat="44.72927" lon="4.49654">
        <ele>748.4</ele>
        <time>2022-06-09T07:36:37Z</time>
      </trkpt>
      <trkpt lat="44.72928" lon="4.49654">
        <ele>748.5</ele>
        <time>2022-06-09T07:36:38Z</time>
      </trkpt>
      <trkpt lat="44.7293" lon="4.49654">
        <ele>748.5</ele>
        <time>2022-06-09T07:36:39Z</time>
      </trkpt>
      <trkpt lat="44.72931" lon="4.49653">
        <ele>748.6</ele>
        <time>2022-06-09T07:36:40Z</time>
      </trkpt>
      <trkpt lat="44.72933" lon="4.49653">
        <ele>748.7</ele>
        <time>2022-06-09T07:36:41Z</time>
      </trkpt>
      <trkpt lat="44.72935" lon="4.49652">
        <ele>748.7</ele>
        <time>2022-06-09T07:36:42Z</time>
      </trkpt>
      <trkpt lat="44.72937" lon="4.49652">
        <ele>748.8</ele>
        <time>2022-06-09T07:36:43Z</time>
      </trkpt>
      <trkpt lat="44.72938" lon="4.49651">
        <ele>748.9</ele>
        <time>2022-06-09T07:36:44Z</time>
      </trkpt>
      <trkpt lat="44.72942" lon="4.49649">
        <ele>749.1</ele>
        <time>2022-06-09T07:36:45Z</time>
      </trkpt>
      <trkpt lat="44.72943" lon="4.49649">
        <ele>749.1</ele>
        <time>2022-06-09T07:36:46Z</time>
      </trkpt>
      <trkpt lat="44.72948" lon="4.49648">
        <ele>749.4</ele>
        <time>2022-06-09T07:36:48Z</time>
      </trkpt>
      <trkpt lat="44.7295" lon="4.49647">
        <ele>749.4</ele>
        <time>2022-06-09T07:36:50Z</time>
      </trkpt>
      <trkpt lat="44.72951" lon="4.49647">
        <ele>749.5</ele>
        <time>2022-06-09T07:36:51Z</time>
      </trkpt>
      <trkpt lat="44.72953" lon="4.49647">
        <ele>749.6</ele>
        <time>2022-06-09T07:36:52Z</time>
      </trkpt>
      <trkpt lat="44.72954" lon="4.49646">
        <ele>749.7</ele>
        <time>2022-06-09T07:36:53Z</time>
      </trkpt>
      <trkpt lat="44.72955" lon="4.49645">
        <ele>749.8</ele>
        <time>2022-06-09T07:36:54Z</time>
      </trkpt>
      <trkpt lat="44.72959" lon="4.49645">
        <ele>750</ele>
        <time>2022-06-09T07:36:55Z</time>
      </trkpt>
      <trkpt lat="44.72961" lon="4.49643">
        <ele>750.1</ele>
        <time>2022-06-09T07:36:57Z</time>
      </trkpt>
      <trkpt lat="44.72963" lon="4.49643">
        <ele>750.2</ele>
        <time>2022-06-09T07:36:58Z</time>
      </trkpt>
      <trkpt lat="44.72966" lon="4.49642">
        <ele>750.4</ele>
        <time>2022-06-09T07:36:59Z</time>
      </trkpt>
      <trkpt lat="44.72967" lon="4.49641">
        <ele>750.5</ele>
        <time>2022-06-09T07:37:00Z</time>
      </trkpt>
      <trkpt lat="44.72968" lon="4.49641">
        <ele>750.6</ele>
        <time>2022-06-09T07:37:01Z</time>
      </trkpt>
      <trkpt lat="44.7297" lon="4.4964">
        <ele>750.7</ele>
        <time>2022-06-09T07:37:03Z</time>
      </trkpt>
      <trkpt lat="44.72972" lon="4.49639">
        <ele>750.8</ele>
        <time>2022-06-09T07:37:04Z</time>
      </trkpt>
      <trkpt lat="44.72973" lon="4.49639">
        <ele>750.9</ele>
        <time>2022-06-09T07:37:05Z</time>
      </trkpt>
      <trkpt lat="44.72977" lon="4.49638">
        <ele>751.1</ele>
        <time>2022-06-09T07:37:06Z</time>
      </trkpt>
      <trkpt lat="44.72978" lon="4.49638">
        <ele>751.2</ele>
        <time>2022-06-09T07:37:07Z</time>
      </trkpt>
      <trkpt lat="44.72979" lon="4.49637">
        <ele>751.3</ele>
        <time>2022-06-09T07:37:08Z</time>
      </trkpt>
      <trkpt lat="44.72981" lon="4.49637">
        <ele>751.4</ele>
        <time>2022-06-09T07:37:09Z</time>
      </trkpt>
      <trkpt lat="44.72985" lon="4.49635">
        <ele>751.8</ele>
        <time>2022-06-09T07:37:11Z</time>
      </trkpt>
      <trkpt lat="44.72987" lon="4.49635">
        <ele>751.9</ele>
        <time>2022-06-09T07:37:13Z</time>
      </trkpt>
      <trkpt lat="44.72988" lon="4.49635">
        <ele>752</ele>
        <time>2022-06-09T07:37:14Z</time>
      </trkpt>
      <trkpt lat="44.7299" lon="4.49634">
        <ele>752.1</ele>
        <time>2022-06-09T07:37:16Z</time>
      </trkpt>
      <trkpt lat="44.72992" lon="4.49633">
        <ele>752.3</ele>
        <time>2022-06-09T07:37:17Z</time>
      </trkpt>
      <trkpt lat="44.72994" lon="4.49632">
        <ele>752.4</ele>
        <time>2022-06-09T07:37:18Z</time>
      </trkpt>
      <trkpt lat="44.72997" lon="4.49632">
        <ele>752.6</ele>
        <time>2022-06-09T07:37:20Z</time>
      </trkpt>
      <trkpt lat="44.72998" lon="4.49632">
        <ele>752.7</ele>
        <time>2022-06-09T07:37:21Z</time>
      </trkpt>
      <trkpt lat="44.73001" lon="4.49631">
        <ele>753</ele>
        <time>2022-06-09T07:37:23Z</time>
      </trkpt>
      <trkpt lat="44.73002" lon="4.49631">
        <ele>753</ele>
        <time>2022-06-09T07:37:24Z</time>
      </trkpt>
      <trkpt lat="44.73004" lon="4.49631">
        <ele>753.1</ele>
        <time>2022-06-09T07:37:25Z</time>
      </trkpt>
      <trkpt lat="44.73005" lon="4.4963">
        <ele>753.3</ele>
        <time>2022-06-09T07:37:26Z</time>
      </trkpt>
      <trkpt lat="44.73007" lon="4.4963">
        <ele>753.4</ele>
        <time>2022-06-09T07:37:27Z</time>
      </trkpt>
      <trkpt lat="44.73009" lon="4.4963">
        <ele>753.6</ele>
        <time>2022-06-09T07:37:28Z</time>
      </trkpt>
      <trkpt lat="44.73012" lon="4.49629">
        <ele>753.8</ele>
        <time>2022-06-09T07:37:29Z</time>
      </trkpt>
      <trkpt lat="44.73015" lon="4.49628">
        <ele>754.1</ele>
        <time>2022-06-09T07:37:31Z</time>
      </trkpt>
      <trkpt lat="44.73016" lon="4.49628">
        <ele>754.2</ele>
        <time>2022-06-09T07:37:32Z</time>
      </trkpt>
      <trkpt lat="44.73018" lon="4.49628">
        <ele>754.3</ele>
        <time>2022-06-09T07:37:33Z</time>
      </trkpt>
      <trkpt lat="44.7302" lon="4.49627">
        <ele>754.5</ele>
        <time>2022-06-09T07:37:35Z</time>
      </trkpt>
      <trkpt lat="44.73023" lon="4.49626">
        <ele>754.8</ele>
        <time>2022-06-09T07:37:36Z</time>
      </trkpt>
      <trkpt lat="44.73024" lon="4.49625">
        <ele>754.9</ele>
        <time>2022-06-09T07:37:37Z</time>
      </trkpt>
      <trkpt lat="44.73025" lon="4.49625">
        <ele>755</ele>
        <time>2022-06-09T07:37:38Z</time>
      </trkpt>
      <trkpt lat="44.73027" lon="4.49625">
        <ele>755.2</ele>
        <time>2022-06-09T07:37:39Z</time>
      </trkpt>
      <trkpt lat="44.7303" lon="4.49625">
        <ele>755.4</ele>
        <time>2022-06-09T07:37:40Z</time>
      </trkpt>
      <trkpt lat="44.73031" lon="4.49626">
        <ele>755.5</ele>
        <time>2022-06-09T07:37:41Z</time>
      </trkpt>
      <trkpt lat="44.73032" lon="4.49625">
        <ele>755.6</ele>
        <time>2022-06-09T07:37:42Z</time>
      </trkpt>
      <trkpt lat="44.73034" lon="4.49625">
        <ele>755.8</ele>
        <time>2022-06-09T07:37:44Z</time>
      </trkpt>
      <trkpt lat="44.73036" lon="4.49624">
        <ele>756</ele>
        <time>2022-06-09T07:37:45Z</time>
      </trkpt>
      <trkpt lat="44.73037" lon="4.49624">
        <ele>756.1</ele>
        <time>2022-06-09T07:37:46Z</time>
      </trkpt>
      <trkpt lat="44.73039" lon="4.49624">
        <ele>756.2</ele>
        <time>2022-06-09T07:37:47Z</time>
      </trkpt>
      <trkpt lat="44.7304" lon="4.49623">
        <ele>756.4</ele>
        <time>2022-06-09T07:37:48Z</time>
      </trkpt>
      <trkpt lat="44.73044" lon="4.49621">
        <ele>756.7</ele>
        <time>2022-06-09T07:37:49Z</time>
      </trkpt>
      <trkpt lat="44.73046" lon="4.49621">
        <ele>756.9</ele>
        <time>2022-06-09T07:37:50Z</time>
      </trkpt>
      <trkpt lat="44.73048" lon="4.4962">
        <ele>757.1</ele>
        <time>2022-06-09T07:37:51Z</time>
      </trkpt>
      <trkpt lat="44.7305" lon="4.4962">
        <ele>757.2</ele>
        <time>2022-06-09T07:37:53Z</time>
      </trkpt>
      <trkpt lat="44.73051" lon="4.49619">
        <ele>757.4</ele>
        <time>2022-06-09T07:37:54Z</time>
      </trkpt>
      <trkpt lat="44.73053" lon="4.49619">
        <ele>757.5</ele>
        <time>2022-06-09T07:37:55Z</time>
      </trkpt>
      <trkpt lat="44.73054" lon="4.49619">
        <ele>757.7</ele>
        <time>2022-06-09T07:37:56Z</time>
      </trkpt>
      <trkpt lat="44.73056" lon="4.49619">
        <ele>757.8</ele>
        <time>2022-06-09T07:37:57Z</time>
      </trkpt>
      <trkpt lat="44.73058" lon="4.49618">
        <ele>758</ele>
        <time>2022-06-09T07:37:58Z</time>
      </trkpt>
      <trkpt lat="44.7306" lon="4.49617">
        <ele>758.2</ele>
        <time>2022-06-09T07:38:00Z</time>
      </trkpt>
      <trkpt lat="44.73062" lon="4.49617">
        <ele>758.4</ele>
        <time>2022-06-09T07:38:01Z</time>
      </trkpt>
      <trkpt lat="44.73063" lon="4.49616">
        <ele>758.5</ele>
        <time>2022-06-09T07:38:02Z</time>
      </trkpt>
      <trkpt lat="44.73065" lon="4.49615">
        <ele>758.6</ele>
        <time>2022-06-09T07:38:03Z</time>
      </trkpt>
      <trkpt lat="44.73066" lon="4.49615">
        <ele>758.8</ele>
        <time>2022-06-09T07:38:04Z</time>
      </trkpt>
      <trkpt lat="44.73068" lon="4.49614">
        <ele>759</ele>
        <time>2022-06-09T07:38:05Z</time>
      </trkpt>
      <trkpt lat="44.73069" lon="4.49614">
        <ele>759.1</ele>
        <time>2022-06-09T07:38:06Z</time>
      </trkpt>
      <trkpt lat="44.7307" lon="4.49614">
        <ele>759.2</ele>
        <time>2022-06-09T07:38:07Z</time>
      </trkpt>
      <trkpt lat="44.73074" lon="4.49614">
        <ele>759.5</ele>
        <time>2022-06-09T07:38:08Z</time>
      </trkpt>
      <trkpt lat="44.73077" lon="4.49613">
        <ele>759.8</ele>
        <time>2022-06-09T07:38:10Z</time>
      </trkpt>
      <trkpt lat="44.7308" lon="4.49612">
        <ele>760.1</ele>
        <time>2022-06-09T07:38:12Z</time>
      </trkpt>
      <trkpt lat="44.73082" lon="4.49612">
        <ele>760.3</ele>
        <time>2022-06-09T07:38:13Z</time>
      </trkpt>
      <trkpt lat="44.73084" lon="4.49612">
        <ele>760.5</ele>
        <time>2022-06-09T07:38:15Z</time>
      </trkpt>
      <trkpt lat="44.73085" lon="4.49612">
        <ele>760.6</ele>
        <time>2022-06-09T07:38:16Z</time>
      </trkpt>
      <trkpt lat="44.73087" lon="4.49612">
        <ele>760.8</ele>
        <time>2022-06-09T07:38:17Z</time>
      </trkpt>
      <trkpt lat="44.73091" lon="4.49612">
        <ele>761.2</ele>
        <time>2022-06-09T07:38:18Z</time>
      </trkpt>
      <trkpt lat="44.73092" lon="4.49612">
        <ele>761.3</ele>
        <time>2022-06-09T07:38:19Z</time>
      </trkpt>
      <trkpt lat="44.73094" lon="4.49612">
        <ele>761.5</ele>
        <time>2022-06-09T07:38:21Z</time>
      </trkpt>
      <trkpt lat="44.73097" lon="4.49613">
        <ele>761.8</ele>
        <time>2022-06-09T07:38:22Z</time>
      </trkpt>
      <trkpt lat="44.73098" lon="4.49613">
        <ele>761.9</ele>
        <time>2022-06-09T07:38:23Z</time>
      </trkpt>
      <trkpt lat="44.731" lon="4.49612">
        <ele>762.1</ele>
        <time>2022-06-09T07:38:24Z</time>
      </trkpt>
      <trkpt lat="44.73102" lon="4.49612">
        <ele>762.3</ele>
        <time>2022-06-09T07:38:25Z</time>
      </trkpt>
      <trkpt lat="44.73103" lon="4.49612">
        <ele>762.5</ele>
        <time>2022-06-09T07:38:26Z</time>
      </trkpt>
      <trkpt lat="44.73105" lon="4.49613">
        <ele>762.7</ele>
        <time>2022-06-09T07:38:27Z</time>
      </trkpt>
      <trkpt lat="44.73106" lon="4.49613">
        <ele>762.8</ele>
        <time>2022-06-09T07:38:28Z</time>
      </trkpt>
      <trkpt lat="44.73108" lon="4.49614">
        <ele>763</ele>
        <time>2022-06-09T07:38:29Z</time>
      </trkpt>
      <trkpt lat="44.73109" lon="4.49615">
        <ele>763.2</ele>
        <time>2022-06-09T07:38:30Z</time>
      </trkpt>
      <trkpt lat="44.73111" lon="4.49615">
        <ele>763.4</ele>
        <time>2022-06-09T07:38:31Z</time>
      </trkpt>
      <trkpt lat="44.73114" lon="4.49616">
        <ele>763.8</ele>
        <time>2022-06-09T07:38:32Z</time>
      </trkpt>
      <trkpt lat="44.73115" lon="4.49617">
        <ele>763.9</ele>
        <time>2022-06-09T07:38:33Z</time>
      </trkpt>
      <trkpt lat="44.73117" lon="4.49617">
        <ele>764.1</ele>
        <time>2022-06-09T07:38:34Z</time>
      </trkpt>
      <trkpt lat="44.73118" lon="4.49618">
        <ele>764.3</ele>
        <time>2022-06-09T07:38:35Z</time>
      </trkpt>
      <trkpt lat="44.7312" lon="4.49619">
        <ele>764.5</ele>
        <time>2022-06-09T07:38:36Z</time>
      </trkpt>
      <trkpt lat="44.73122" lon="4.49619">
        <ele>764.8</ele>
        <time>2022-06-09T07:38:38Z</time>
      </trkpt>
      <trkpt lat="44.73123" lon="4.4962">
        <ele>765</ele>
        <time>2022-06-09T07:38:39Z</time>
      </trkpt>
      <trkpt lat="44.73125" lon="4.4962">
        <ele>765.2</ele>
        <time>2022-06-09T07:38:40Z</time>
      </trkpt>
      <trkpt lat="44.73126" lon="4.49621">
        <ele>765.4</ele>
        <time>2022-06-09T07:38:41Z</time>
      </trkpt>
      <trkpt lat="44.73128" lon="4.49622">
        <ele>765.6</ele>
        <time>2022-06-09T07:38:42Z</time>
      </trkpt>
      <trkpt lat="44.7313" lon="4.49623">
        <ele>766</ele>
        <time>2022-06-09T07:38:43Z</time>
      </trkpt>
      <trkpt lat="44.73131" lon="4.49623">
        <ele>766.1</ele>
        <time>2022-06-09T07:38:44Z</time>
      </trkpt>
      <trkpt lat="44.73132" lon="4.49624">
        <ele>766.2</ele>
        <time>2022-06-09T07:38:45Z</time>
      </trkpt>
      <trkpt lat="44.73134" lon="4.49625">
        <ele>766.6</ele>
        <time>2022-06-09T07:38:47Z</time>
      </trkpt>
      <trkpt lat="44.73135" lon="4.49626">
        <ele>766.7</ele>
        <time>2022-06-09T07:38:48Z</time>
      </trkpt>
      <trkpt lat="44.73137" lon="4.49626">
        <ele>767</ele>
        <time>2022-06-09T07:38:50Z</time>
      </trkpt>
      <trkpt lat="44.73138" lon="4.49627">
        <ele>767.2</ele>
        <time>2022-06-09T07:38:51Z</time>
      </trkpt>
      <trkpt lat="44.73139" lon="4.49627">
        <ele>767.3</ele>
        <time>2022-06-09T07:38:52Z</time>
      </trkpt>
      <trkpt lat="44.73142" lon="4.49628">
        <ele>767.7</ele>
        <time>2022-06-09T07:38:54Z</time>
      </trkpt>
      <trkpt lat="44.73143" lon="4.49628">
        <ele>767.9</ele>
        <time>2022-06-09T07:38:55Z</time>
      </trkpt>
      <trkpt lat="44.73145" lon="4.49628">
        <ele>768.1</ele>
        <time>2022-06-09T07:38:56Z</time>
      </trkpt>
      <trkpt lat="44.73148" lon="4.49628">
        <ele>768.6</ele>
        <time>2022-06-09T07:38:57Z</time>
      </trkpt>
      <trkpt lat="44.73152" lon="4.49627">
        <ele>769</ele>
        <time>2022-06-09T07:38:59Z</time>
      </trkpt>
      <trkpt lat="44.73154" lon="4.49627">
        <ele>769.2</ele>
        <time>2022-06-09T07:39:01Z</time>
      </trkpt>
      <trkpt lat="44.73155" lon="4.49627">
        <ele>769.4</ele>
        <time>2022-06-09T07:39:02Z</time>
      </trkpt>
      <trkpt lat="44.73157" lon="4.49627">
        <ele>769.6</ele>
        <time>2022-06-09T07:39:03Z</time>
      </trkpt>
      <trkpt lat="44.73158" lon="4.49626">
        <ele>769.7</ele>
        <time>2022-06-09T07:39:04Z</time>
      </trkpt>
      <trkpt lat="44.7316" lon="4.49626">
        <ele>769.9</ele>
        <time>2022-06-09T07:39:05Z</time>
      </trkpt>
      <trkpt lat="44.73161" lon="4.49626">
        <ele>770</ele>
        <time>2022-06-09T07:39:06Z</time>
      </trkpt>
      <trkpt lat="44.73163" lon="4.49625">
        <ele>770.2</ele>
        <time>2022-06-09T07:39:07Z</time>
      </trkpt>
      <trkpt lat="44.73164" lon="4.49624">
        <ele>770.2</ele>
        <time>2022-06-09T07:39:08Z</time>
      </trkpt>
      <trkpt lat="44.73165" lon="4.49623">
        <ele>770.4</ele>
        <time>2022-06-09T07:39:09Z</time>
      </trkpt>
      <trkpt lat="44.73167" lon="4.49622">
        <ele>770.5</ele>
        <time>2022-06-09T07:39:10Z</time>
      </trkpt>
      <trkpt lat="44.73168" lon="4.4962">
        <ele>770.6</ele>
        <time>2022-06-09T07:39:11Z</time>
      </trkpt>
      <trkpt lat="44.73169" lon="4.49618">
        <ele>770.7</ele>
        <time>2022-06-09T07:39:12Z</time>
      </trkpt>
      <trkpt lat="44.7317" lon="4.49616">
        <ele>770.8</ele>
        <time>2022-06-09T07:39:13Z</time>
      </trkpt>
      <trkpt lat="44.7317" lon="4.49615">
        <ele>770.9</ele>
        <time>2022-06-09T07:39:14Z</time>
      </trkpt>
      <trkpt lat="44.73172" lon="4.49614">
        <ele>771</ele>
        <time>2022-06-09T07:39:15Z</time>
      </trkpt>
      <trkpt lat="44.73173" lon="4.49611">
        <ele>771.2</ele>
        <time>2022-06-09T07:39:16Z</time>
      </trkpt>
      <trkpt lat="44.73174" lon="4.49609">
        <ele>771.2</ele>
        <time>2022-06-09T07:39:18Z</time>
      </trkpt>
      <trkpt lat="44.73175" lon="4.49608">
        <ele>771.3</ele>
        <time>2022-06-09T07:39:19Z</time>
      </trkpt>
      <trkpt lat="44.73175" lon="4.49606">
        <ele>771.4</ele>
        <time>2022-06-09T07:39:20Z</time>
      </trkpt>
      <trkpt lat="44.73176" lon="4.49604">
        <ele>771.4</ele>
        <time>2022-06-09T07:39:21Z</time>
      </trkpt>
      <trkpt lat="44.73177" lon="4.49602">
        <ele>771.5</ele>
        <time>2022-06-09T07:39:22Z</time>
      </trkpt>
      <trkpt lat="44.73177" lon="4.496">
        <ele>771.5</ele>
        <time>2022-06-09T07:39:23Z</time>
      </trkpt>
      <trkpt lat="44.73178" lon="4.49599">
        <ele>771.6</ele>
        <time>2022-06-09T07:39:24Z</time>
      </trkpt>
      <trkpt lat="44.73179" lon="4.49597">
        <ele>771.7</ele>
        <time>2022-06-09T07:39:25Z</time>
      </trkpt>
      <trkpt lat="44.73179" lon="4.49595">
        <ele>771.7</ele>
        <time>2022-06-09T07:39:26Z</time>
      </trkpt>
      <trkpt lat="44.7318" lon="4.49593">
        <ele>771.8</ele>
        <time>2022-06-09T07:39:27Z</time>
      </trkpt>
      <trkpt lat="44.7318" lon="4.49591">
        <ele>771.8</ele>
        <time>2022-06-09T07:39:28Z</time>
      </trkpt>
      <trkpt lat="44.7318" lon="4.4959">
        <ele>771.9</ele>
        <time>2022-06-09T07:39:29Z</time>
      </trkpt>
      <trkpt lat="44.7318" lon="4.49587">
        <ele>771.9</ele>
        <time>2022-06-09T07:39:30Z</time>
      </trkpt>
      <trkpt lat="44.73181" lon="4.49586">
        <ele>772</ele>
        <time>2022-06-09T07:39:31Z</time>
      </trkpt>
      <trkpt lat="44.73181" lon="4.49584">
        <ele>772</ele>
        <time>2022-06-09T07:39:32Z</time>
      </trkpt>
      <trkpt lat="44.73182" lon="4.49581">
        <ele>772.1</ele>
        <time>2022-06-09T07:39:33Z</time>
      </trkpt>
      <trkpt lat="44.73182" lon="4.49577">
        <ele>772.2</ele>
        <time>2022-06-09T07:39:35Z</time>
      </trkpt>
      <trkpt lat="44.73181" lon="4.49575">
        <ele>772.2</ele>
        <time>2022-06-09T07:39:37Z</time>
      </trkpt>
      <trkpt lat="44.73182" lon="4.49571">
        <ele>772.3</ele>
        <time>2022-06-09T07:39:38Z</time>
      </trkpt>
      <trkpt lat="44.73182" lon="4.49568">
        <ele>772.4</ele>
        <time>2022-06-09T07:39:40Z</time>
      </trkpt>
      <trkpt lat="44.73183" lon="4.49565">
        <ele>772.5</ele>
        <time>2022-06-09T07:39:41Z</time>
      </trkpt>
      <trkpt lat="44.73183" lon="4.49562">
        <ele>772.6</ele>
        <time>2022-06-09T07:39:43Z</time>
      </trkpt>
      <trkpt lat="44.73183" lon="4.49558">
        <ele>772.7</ele>
        <time>2022-06-09T07:39:44Z</time>
      </trkpt>
      <trkpt lat="44.73183" lon="4.49556">
        <ele>772.8</ele>
        <time>2022-06-09T07:39:45Z</time>
      </trkpt>
      <trkpt lat="44.73183" lon="4.49554">
        <ele>772.9</ele>
        <time>2022-06-09T07:39:46Z</time>
      </trkpt>
      <trkpt lat="44.73182" lon="4.49552">
        <ele>772.9</ele>
        <time>2022-06-09T07:39:48Z</time>
      </trkpt>
      <trkpt lat="44.73183" lon="4.49551">
        <ele>773</ele>
        <time>2022-06-09T07:39:49Z</time>
      </trkpt>
      <trkpt lat="44.73183" lon="4.49547">
        <ele>773.1</ele>
        <time>2022-06-09T07:39:51Z</time>
      </trkpt>
      <trkpt lat="44.73184" lon="4.49544">
        <ele>773.2</ele>
        <time>2022-06-09T07:39:52Z</time>
      </trkpt>
      <trkpt lat="44.73184" lon="4.49542">
        <ele>773.3</ele>
        <time>2022-06-09T07:39:53Z</time>
      </trkpt>
      <trkpt lat="44.73184" lon="4.49538">
        <ele>773.4</ele>
        <time>2022-06-09T07:39:54Z</time>
      </trkpt>
      <trkpt lat="44.73185" lon="4.49536">
        <ele>773.5</ele>
        <time>2022-06-09T07:39:56Z</time>
      </trkpt>
      <trkpt lat="44.73185" lon="4.49534">
        <ele>773.6</ele>
        <time>2022-06-09T07:39:57Z</time>
      </trkpt>
      <trkpt lat="44.73185" lon="4.49532">
        <ele>773.7</ele>
        <time>2022-06-09T07:39:58Z</time>
      </trkpt>
      <trkpt lat="44.73186" lon="4.49526">
        <ele>773.9</ele>
        <time>2022-06-09T07:40:00Z</time>
      </trkpt>
      <trkpt lat="44.73186" lon="4.49525">
        <ele>774</ele>
        <time>2022-06-09T07:40:01Z</time>
      </trkpt>
      <trkpt lat="44.73186" lon="4.49523">
        <ele>774</ele>
        <time>2022-06-09T07:40:02Z</time>
      </trkpt>
      <trkpt lat="44.73186" lon="4.49521">
        <ele>774.1</ele>
        <time>2022-06-09T07:40:03Z</time>
      </trkpt>
      <trkpt lat="44.73185" lon="4.49517">
        <ele>774.3</ele>
        <time>2022-06-09T07:40:05Z</time>
      </trkpt>
      <trkpt lat="44.73185" lon="4.49512">
        <ele>774.5</ele>
        <time>2022-06-09T07:40:07Z</time>
      </trkpt>
      <trkpt lat="44.73185" lon="4.49508">
        <ele>774.6</ele>
        <time>2022-06-09T07:40:08Z</time>
      </trkpt>
      <trkpt lat="44.73184" lon="4.49503">
        <ele>774.9</ele>
        <time>2022-06-09T07:40:10Z</time>
      </trkpt>
      <trkpt lat="44.73184" lon="4.49501">
        <ele>775</ele>
        <time>2022-06-09T07:40:12Z</time>
      </trkpt>
      <trkpt lat="44.73183" lon="4.49498">
        <ele>775.1</ele>
        <time>2022-06-09T07:40:13Z</time>
      </trkpt>
      <trkpt lat="44.73183" lon="4.49492">
        <ele>775.4</ele>
        <time>2022-06-09T07:40:15Z</time>
      </trkpt>
      <trkpt lat="44.73182" lon="4.4949">
        <ele>775.4</ele>
        <time>2022-06-09T07:40:16Z</time>
      </trkpt>
      <trkpt lat="44.73182" lon="4.49489">
        <ele>775.5</ele>
        <time>2022-06-09T07:40:17Z</time>
      </trkpt>
      <trkpt lat="44.73182" lon="4.49486">
        <ele>775.6</ele>
        <time>2022-06-09T07:40:18Z</time>
      </trkpt>
      <trkpt lat="44.73181" lon="4.49482">
        <ele>775.8</ele>
        <time>2022-06-09T07:40:19Z</time>
      </trkpt>
      <trkpt lat="44.73181" lon="4.49477">
        <ele>776.1</ele>
        <time>2022-06-09T07:40:21Z</time>
      </trkpt>
      <trkpt lat="44.73181" lon="4.49475">
        <ele>776.2</ele>
        <time>2022-06-09T07:40:22Z</time>
      </trkpt>
      <trkpt lat="44.73182" lon="4.49473">
        <ele>776.3</ele>
        <time>2022-06-09T07:40:23Z</time>
      </trkpt>
      <trkpt lat="44.73182" lon="4.49469">
        <ele>776.5</ele>
        <time>2022-06-09T07:40:25Z</time>
      </trkpt>
      <trkpt lat="44.73182" lon="4.49467">
        <ele>776.5</ele>
        <time>2022-06-09T07:40:26Z</time>
      </trkpt>
      <trkpt lat="44.73182" lon="4.49465">
        <ele>776.6</ele>
        <time>2022-06-09T07:40:27Z</time>
      </trkpt>
      <trkpt lat="44.73182" lon="4.49462">
        <ele>776.8</ele>
        <time>2022-06-09T07:40:28Z</time>
      </trkpt>
      <trkpt lat="44.73181" lon="4.49459">
        <ele>776.9</ele>
        <time>2022-06-09T07:40:29Z</time>
      </trkpt>
      <trkpt lat="44.73181" lon="4.49458">
        <ele>777</ele>
        <time>2022-06-09T07:40:30Z</time>
      </trkpt>
      <trkpt lat="44.7318" lon="4.49454">
        <ele>777.2</ele>
        <time>2022-06-09T07:40:31Z</time>
      </trkpt>
      <trkpt lat="44.73179" lon="4.49453">
        <ele>777.3</ele>
        <time>2022-06-09T07:40:32Z</time>
      </trkpt>
      <trkpt lat="44.73178" lon="4.49451">
        <ele>777.4</ele>
        <time>2022-06-09T07:40:33Z</time>
      </trkpt>
      <trkpt lat="44.73178" lon="4.49448">
        <ele>777.5</ele>
        <time>2022-06-09T07:40:34Z</time>
      </trkpt>
      <trkpt lat="44.73177" lon="4.49446">
        <ele>777.6</ele>
        <time>2022-06-09T07:40:35Z</time>
      </trkpt>
      <trkpt lat="44.73177" lon="4.49444">
        <ele>777.7</ele>
        <time>2022-06-09T07:40:36Z</time>
      </trkpt>
      <trkpt lat="44.73177" lon="4.49442">
        <ele>777.8</ele>
        <time>2022-06-09T07:40:37Z</time>
      </trkpt>
      <trkpt lat="44.73177" lon="4.4944">
        <ele>777.9</ele>
        <time>2022-06-09T07:40:38Z</time>
      </trkpt>
      <trkpt lat="44.73177" lon="4.49435">
        <ele>778.2</ele>
        <time>2022-06-09T07:40:39Z</time>
      </trkpt>
      <trkpt lat="44.73177" lon="4.49432">
        <ele>778.3</ele>
        <time>2022-06-09T07:40:40Z</time>
      </trkpt>
      <trkpt lat="44.73177" lon="4.4943">
        <ele>778.4</ele>
        <time>2022-06-09T07:40:41Z</time>
      </trkpt>
      <trkpt lat="44.73176" lon="4.49425">
        <ele>778.6</ele>
        <time>2022-06-09T07:40:43Z</time>
      </trkpt>
      <trkpt lat="44.73176" lon="4.49423">
        <ele>778.8</ele>
        <time>2022-06-09T07:40:44Z</time>
      </trkpt>
      <trkpt lat="44.73176" lon="4.49419">
        <ele>779</ele>
        <time>2022-06-09T07:40:46Z</time>
      </trkpt>
      <trkpt lat="44.73176" lon="4.49415">
        <ele>779.2</ele>
        <time>2022-06-09T07:40:47Z</time>
      </trkpt>
      <trkpt lat="44.73176" lon="4.4941">
        <ele>779.4</ele>
        <time>2022-06-09T07:40:49Z</time>
      </trkpt>
      <trkpt lat="44.73177" lon="4.49409">
        <ele>779.5</ele>
        <time>2022-06-09T07:40:50Z</time>
      </trkpt>
      <trkpt lat="44.73177" lon="4.49407">
        <ele>779.6</ele>
        <time>2022-06-09T07:40:51Z</time>
      </trkpt>
      <trkpt lat="44.73177" lon="4.49404">
        <ele>779.7</ele>
        <time>2022-06-09T07:40:52Z</time>
      </trkpt>
      <trkpt lat="44.73178" lon="4.49399">
        <ele>780</ele>
        <time>2022-06-09T07:40:53Z</time>
      </trkpt>
      <trkpt lat="44.73178" lon="4.49397">
        <ele>780.1</ele>
        <time>2022-06-09T07:40:54Z</time>
      </trkpt>
      <trkpt lat="44.73178" lon="4.49393">
        <ele>780.3</ele>
        <time>2022-06-09T07:40:55Z</time>
      </trkpt>
      <trkpt lat="44.73178" lon="4.49392">
        <ele>780.4</ele>
        <time>2022-06-09T07:40:56Z</time>
      </trkpt>
      <trkpt lat="44.73178" lon="4.49389">
        <ele>780.5</ele>
        <time>2022-06-09T07:40:57Z</time>
      </trkpt>
      <trkpt lat="44.73178" lon="4.49385">
        <ele>780.8</ele>
        <time>2022-06-09T07:40:59Z</time>
      </trkpt>
      <trkpt lat="44.73177" lon="4.4938">
        <ele>781</ele>
        <time>2022-06-09T07:41:00Z</time>
      </trkpt>
      <trkpt lat="44.73177" lon="4.49376">
        <ele>781.3</ele>
        <time>2022-06-09T07:41:02Z</time>
      </trkpt>
      <trkpt lat="44.73178" lon="4.49375">
        <ele>781.3</ele>
        <time>2022-06-09T07:41:03Z</time>
      </trkpt>
      <trkpt lat="44.73178" lon="4.4937">
        <ele>781.6</ele>
        <time>2022-06-09T07:41:04Z</time>
      </trkpt>
      <trkpt lat="44.73178" lon="4.49369">
        <ele>781.7</ele>
        <time>2022-06-09T07:41:05Z</time>
      </trkpt>
      <trkpt lat="44.73178" lon="4.49365">
        <ele>781.9</ele>
        <time>2022-06-09T07:41:07Z</time>
      </trkpt>
      <trkpt lat="44.73178" lon="4.49364">
        <ele>782</ele>
        <time>2022-06-09T07:41:08Z</time>
      </trkpt>
      <trkpt lat="44.73178" lon="4.49359">
        <ele>782.2</ele>
        <time>2022-06-09T07:41:09Z</time>
      </trkpt>
      <trkpt lat="44.73178" lon="4.49358">
        <ele>782.3</ele>
        <time>2022-06-09T07:41:10Z</time>
      </trkpt>
      <trkpt lat="44.73178" lon="4.49354">
        <ele>782.6</ele>
        <time>2022-06-09T07:41:11Z</time>
      </trkpt>
      <trkpt lat="44.73178" lon="4.49352">
        <ele>782.7</ele>
        <time>2022-06-09T07:41:12Z</time>
      </trkpt>
      <trkpt lat="44.73177" lon="4.4935">
        <ele>782.8</ele>
        <time>2022-06-09T07:41:14Z</time>
      </trkpt>
      <trkpt lat="44.73178" lon="4.49347">
        <ele>782.9</ele>
        <time>2022-06-09T07:41:15Z</time>
      </trkpt>
      <trkpt lat="44.73178" lon="4.49345">
        <ele>783.1</ele>
        <time>2022-06-09T07:41:16Z</time>
      </trkpt>
      <trkpt lat="44.73178" lon="4.49343">
        <ele>783.2</ele>
        <time>2022-06-09T07:41:17Z</time>
      </trkpt>
      <trkpt lat="44.73178" lon="4.4934">
        <ele>783.4</ele>
        <time>2022-06-09T07:41:18Z</time>
      </trkpt>
      <trkpt lat="44.73179" lon="4.49338">
        <ele>783.6</ele>
        <time>2022-06-09T07:41:19Z</time>
      </trkpt>
      <trkpt lat="44.73179" lon="4.49336">
        <ele>783.7</ele>
        <time>2022-06-09T07:41:20Z</time>
      </trkpt>
      <trkpt lat="44.73179" lon="4.49333">
        <ele>783.9</ele>
        <time>2022-06-09T07:41:21Z</time>
      </trkpt>
      <trkpt lat="44.73179" lon="4.49331">
        <ele>784</ele>
        <time>2022-06-09T07:41:22Z</time>
      </trkpt>
      <trkpt lat="44.7318" lon="4.49329">
        <ele>784.2</ele>
        <time>2022-06-09T07:41:23Z</time>
      </trkpt>
      <trkpt lat="44.7318" lon="4.49327">
        <ele>784.3</ele>
        <time>2022-06-09T07:41:24Z</time>
      </trkpt>
      <trkpt lat="44.7318" lon="4.49322">
        <ele>784.6</ele>
        <time>2022-06-09T07:41:25Z</time>
      </trkpt>
      <trkpt lat="44.73181" lon="4.49318">
        <ele>785</ele>
        <time>2022-06-09T07:41:27Z</time>
      </trkpt>
      <trkpt lat="44.73182" lon="4.49316">
        <ele>785.1</ele>
        <time>2022-06-09T07:41:28Z</time>
      </trkpt>
      <trkpt lat="44.73182" lon="4.49315">
        <ele>785.2</ele>
        <time>2022-06-09T07:41:29Z</time>
      </trkpt>
      <trkpt lat="44.73182" lon="4.49312">
        <ele>785.4</ele>
        <time>2022-06-09T07:41:30Z</time>
      </trkpt>
      <trkpt lat="44.73183" lon="4.4931">
        <ele>785.5</ele>
        <time>2022-06-09T07:41:31Z</time>
      </trkpt>
      <trkpt lat="44.73184" lon="4.49307">
        <ele>785.8</ele>
        <time>2022-06-09T07:41:32Z</time>
      </trkpt>
      <trkpt lat="44.73185" lon="4.49306">
        <ele>785.9</ele>
        <time>2022-06-09T07:41:33Z</time>
      </trkpt>
      <trkpt lat="44.73186" lon="4.49302">
        <ele>786.2</ele>
        <time>2022-06-09T07:41:34Z</time>
      </trkpt>
      <trkpt lat="44.73186" lon="4.49301">
        <ele>786.3</ele>
        <time>2022-06-09T07:41:35Z</time>
      </trkpt>
      <trkpt lat="44.73187" lon="4.49299">
        <ele>786.4</ele>
        <time>2022-06-09T07:41:36Z</time>
      </trkpt>
      <trkpt lat="44.73188" lon="4.49297">
        <ele>786.6</ele>
        <time>2022-06-09T07:41:37Z</time>
      </trkpt>
      <trkpt lat="44.73189" lon="4.49295">
        <ele>786.8</ele>
        <time>2022-06-09T07:41:38Z</time>
      </trkpt>
      <trkpt lat="44.7319" lon="4.49293">
        <ele>786.9</ele>
        <time>2022-06-09T07:41:39Z</time>
      </trkpt>
      <trkpt lat="44.7319" lon="4.49292">
        <ele>787.1</ele>
        <time>2022-06-09T07:41:40Z</time>
      </trkpt>
      <trkpt lat="44.73191" lon="4.49289">
        <ele>787.3</ele>
        <time>2022-06-09T07:41:41Z</time>
      </trkpt>
      <trkpt lat="44.73192" lon="4.49287">
        <ele>787.5</ele>
        <time>2022-06-09T07:41:42Z</time>
      </trkpt>
      <trkpt lat="44.73193" lon="4.49286">
        <ele>787.6</ele>
        <time>2022-06-09T07:41:43Z</time>
      </trkpt>
      <trkpt lat="44.73196" lon="4.49283">
        <ele>787.9</ele>
        <time>2022-06-09T07:41:44Z</time>
      </trkpt>
      <trkpt lat="44.73197" lon="4.49282">
        <ele>788</ele>
        <time>2022-06-09T07:41:45Z</time>
      </trkpt>
      <trkpt lat="44.73199" lon="4.49277">
        <ele>788.4</ele>
        <time>2022-06-09T07:41:47Z</time>
      </trkpt>
      <trkpt lat="44.73202" lon="4.49275">
        <ele>788.7</ele>
        <time>2022-06-09T07:41:49Z</time>
      </trkpt>
      <trkpt lat="44.73203" lon="4.49274">
        <ele>788.8</ele>
        <time>2022-06-09T07:41:50Z</time>
      </trkpt>
      <trkpt lat="44.73205" lon="4.49272">
        <ele>789</ele>
        <time>2022-06-09T07:41:51Z</time>
      </trkpt>
      <trkpt lat="44.73207" lon="4.4927">
        <ele>789.2</ele>
        <time>2022-06-09T07:41:52Z</time>
      </trkpt>
      <trkpt lat="44.73209" lon="4.4927">
        <ele>789.3</ele>
        <time>2022-06-09T07:41:54Z</time>
      </trkpt>
      <trkpt lat="44.7321" lon="4.49269">
        <ele>789.4</ele>
        <time>2022-06-09T07:41:56Z</time>
      </trkpt>
      <trkpt lat="44.73211" lon="4.49268">
        <ele>789.5</ele>
        <time>2022-06-09T07:41:57Z</time>
      </trkpt>
      <trkpt lat="44.73213" lon="4.49267">
        <ele>789.6</ele>
        <time>2022-06-09T07:41:58Z</time>
      </trkpt>
      <trkpt lat="44.73214" lon="4.49266">
        <ele>789.7</ele>
        <time>2022-06-09T07:41:59Z</time>
      </trkpt>
      <trkpt lat="44.73215" lon="4.49266">
        <ele>789.8</ele>
        <time>2022-06-09T07:42:00Z</time>
      </trkpt>
      <trkpt lat="44.73217" lon="4.49267">
        <ele>789.9</ele>
        <time>2022-06-09T07:42:01Z</time>
      </trkpt>
      <trkpt lat="44.73216" lon="4.49266">
        <ele>789.9</ele>
        <time>2022-06-09T07:42:02Z</time>
      </trkpt>
      <trkpt lat="44.73217" lon="4.49266">
        <ele>789.9</ele>
        <time>2022-06-09T07:42:03Z</time>
      </trkpt>
      <trkpt lat="44.73218" lon="4.49266">
        <ele>790</ele>
        <time>2022-06-09T07:42:04Z</time>
      </trkpt>
      <trkpt lat="44.7322" lon="4.49267">
        <ele>790.1</ele>
        <time>2022-06-09T07:42:05Z</time>
      </trkpt>
      <trkpt lat="44.73222" lon="4.49267">
        <ele>790.1</ele>
        <time>2022-06-09T07:42:06Z</time>
      </trkpt>
      <trkpt lat="44.73223" lon="4.49268">
        <ele>790.2</ele>
        <time>2022-06-09T07:42:07Z</time>
      </trkpt>
      <trkpt lat="44.73225" lon="4.49268">
        <ele>790.2</ele>
        <time>2022-06-09T07:42:08Z</time>
      </trkpt>
      <trkpt lat="44.73226" lon="4.49269">
        <ele>790.3</ele>
        <time>2022-06-09T07:42:09Z</time>
      </trkpt>
      <trkpt lat="44.73227" lon="4.4927">
        <ele>790.3</ele>
        <time>2022-06-09T07:42:10Z</time>
      </trkpt>
      <trkpt lat="44.73228" lon="4.49271">
        <ele>790.3</ele>
        <time>2022-06-09T07:42:11Z</time>
      </trkpt>
      <trkpt lat="44.73231" lon="4.49273">
        <ele>790.4</ele>
        <time>2022-06-09T07:42:12Z</time>
      </trkpt>
      <trkpt lat="44.73232" lon="4.49273">
        <ele>790.4</ele>
        <time>2022-06-09T07:42:13Z</time>
      </trkpt>
      <trkpt lat="44.73235" lon="4.49276">
        <ele>790.5</ele>
        <time>2022-06-09T07:42:14Z</time>
      </trkpt>
      <trkpt lat="44.73236" lon="4.49277">
        <ele>790.5</ele>
        <time>2022-06-09T07:42:15Z</time>
      </trkpt>
      <trkpt lat="44.73238" lon="4.49279">
        <ele>790.5</ele>
        <time>2022-06-09T07:42:17Z</time>
      </trkpt>
      <trkpt lat="44.7324" lon="4.49281">
        <ele>790.6</ele>
        <time>2022-06-09T07:42:18Z</time>
      </trkpt>
      <trkpt lat="44.73241" lon="4.49281">
        <ele>790.6</ele>
        <time>2022-06-09T07:42:19Z</time>
      </trkpt>
      <trkpt lat="44.73241" lon="4.49282">
        <ele>790.6</ele>
        <time>2022-06-09T07:42:20Z</time>
      </trkpt>
      <trkpt lat="44.73243" lon="4.49283">
        <ele>790.6</ele>
        <time>2022-06-09T07:42:21Z</time>
      </trkpt>
      <trkpt lat="44.73244" lon="4.49284">
        <ele>790.7</ele>
        <time>2022-06-09T07:42:22Z</time>
      </trkpt>
      <trkpt lat="44.73245" lon="4.49285">
        <ele>790.7</ele>
        <time>2022-06-09T07:42:23Z</time>
      </trkpt>
      <trkpt lat="44.73246" lon="4.49286">
        <ele>790.7</ele>
        <time>2022-06-09T07:42:24Z</time>
      </trkpt>
      <trkpt lat="44.73248" lon="4.49287">
        <ele>790.8</ele>
        <time>2022-06-09T07:42:25Z</time>
      </trkpt>
      <trkpt lat="44.7325" lon="4.49288">
        <ele>790.8</ele>
        <time>2022-06-09T07:42:26Z</time>
      </trkpt>
      <trkpt lat="44.73254" lon="4.49292">
        <ele>791</ele>
        <time>2022-06-09T07:42:29Z</time>
      </trkpt>
      <trkpt lat="44.73255" lon="4.49293">
        <ele>791</ele>
        <time>2022-06-09T07:42:31Z</time>
      </trkpt>
      <trkpt lat="44.73256" lon="4.49295">
        <ele>791.1</ele>
        <time>2022-06-09T07:42:32Z</time>
      </trkpt>
      <trkpt lat="44.73258" lon="4.49296">
        <ele>791.1</ele>
        <time>2022-06-09T07:42:33Z</time>
      </trkpt>
      <trkpt lat="44.73259" lon="4.49297">
        <ele>791.2</ele>
        <time>2022-06-09T07:42:34Z</time>
      </trkpt>
      <trkpt lat="44.73262" lon="4.493">
        <ele>791.3</ele>
        <time>2022-06-09T07:42:35Z</time>
      </trkpt>
      <trkpt lat="44.73264" lon="4.49302">
        <ele>791.4</ele>
        <time>2022-06-09T07:42:37Z</time>
      </trkpt>
      <trkpt lat="44.73267" lon="4.49305">
        <ele>791.6</ele>
        <time>2022-06-09T07:42:39Z</time>
      </trkpt>
      <trkpt lat="44.73269" lon="4.49306">
        <ele>791.7</ele>
        <time>2022-06-09T07:42:41Z</time>
      </trkpt>
      <trkpt lat="44.7327" lon="4.49308">
        <ele>791.7</ele>
        <time>2022-06-09T07:42:42Z</time>
      </trkpt>
      <trkpt lat="44.73271" lon="4.49309">
        <ele>791.8</ele>
        <time>2022-06-09T07:42:43Z</time>
      </trkpt>
      <trkpt lat="44.73273" lon="4.4931">
        <ele>791.9</ele>
        <time>2022-06-09T07:42:44Z</time>
      </trkpt>
      <trkpt lat="44.73274" lon="4.4931">
        <ele>792</ele>
        <time>2022-06-09T07:42:45Z</time>
      </trkpt>
      <trkpt lat="44.73276" lon="4.49312">
        <ele>792.1</ele>
        <time>2022-06-09T07:42:46Z</time>
      </trkpt>
      <trkpt lat="44.73277" lon="4.49313">
        <ele>792.1</ele>
        <time>2022-06-09T07:42:47Z</time>
      </trkpt>
      <trkpt lat="44.73278" lon="4.49314">
        <ele>792.2</ele>
        <time>2022-06-09T07:42:48Z</time>
      </trkpt>
      <trkpt lat="44.73279" lon="4.49315">
        <ele>792.3</ele>
        <time>2022-06-09T07:42:49Z</time>
      </trkpt>
      <trkpt lat="44.73281" lon="4.49316">
        <ele>792.4</ele>
        <time>2022-06-09T07:42:50Z</time>
      </trkpt>
      <trkpt lat="44.73282" lon="4.49318">
        <ele>792.5</ele>
        <time>2022-06-09T07:42:51Z</time>
      </trkpt>
      <trkpt lat="44.73284" lon="4.49319">
        <ele>792.6</ele>
        <time>2022-06-09T07:42:52Z</time>
      </trkpt>
      <trkpt lat="44.73285" lon="4.4932">
        <ele>792.7</ele>
        <time>2022-06-09T07:42:53Z</time>
      </trkpt>
      <trkpt lat="44.73287" lon="4.49323">
        <ele>792.9</ele>
        <time>2022-06-09T07:42:54Z</time>
      </trkpt>
      <trkpt lat="44.73288" lon="4.49323">
        <ele>793</ele>
        <time>2022-06-09T07:42:55Z</time>
      </trkpt>
      <trkpt lat="44.73289" lon="4.49325">
        <ele>793.1</ele>
        <time>2022-06-09T07:42:56Z</time>
      </trkpt>
      <trkpt lat="44.73291" lon="4.49327">
        <ele>793.2</ele>
        <time>2022-06-09T07:42:57Z</time>
      </trkpt>
      <trkpt lat="44.73292" lon="4.49328">
        <ele>793.3</ele>
        <time>2022-06-09T07:42:58Z</time>
      </trkpt>
      <trkpt lat="44.73293" lon="4.49329">
        <ele>793.4</ele>
        <time>2022-06-09T07:42:59Z</time>
      </trkpt>
      <trkpt lat="44.73295" lon="4.4933">
        <ele>793.5</ele>
        <time>2022-06-09T07:43:00Z</time>
      </trkpt>
      <trkpt lat="44.73296" lon="4.49331">
        <ele>793.6</ele>
        <time>2022-06-09T07:43:01Z</time>
      </trkpt>
      <trkpt lat="44.73297" lon="4.49333">
        <ele>793.7</ele>
        <time>2022-06-09T07:43:02Z</time>
      </trkpt>
      <trkpt lat="44.73298" lon="4.49334">
        <ele>793.8</ele>
        <time>2022-06-09T07:43:03Z</time>
      </trkpt>
      <trkpt lat="44.733" lon="4.49337">
        <ele>794</ele>
        <time>2022-06-09T07:43:04Z</time>
      </trkpt>
      <trkpt lat="44.73303" lon="4.4934">
        <ele>794.2</ele>
        <time>2022-06-09T07:43:06Z</time>
      </trkpt>
      <trkpt lat="44.73304" lon="4.4934">
        <ele>794.2</ele>
        <time>2022-06-09T07:43:07Z</time>
      </trkpt>
      <trkpt lat="44.73306" lon="4.49343">
        <ele>794.5</ele>
        <time>2022-06-09T07:43:08Z</time>
      </trkpt>
      <trkpt lat="44.73308" lon="4.49344">
        <ele>794.6</ele>
        <time>2022-06-09T07:43:10Z</time>
      </trkpt>
      <trkpt lat="44.73309" lon="4.49345">
        <ele>794.7</ele>
        <time>2022-06-09T07:43:11Z</time>
      </trkpt>
      <trkpt lat="44.7331" lon="4.49346">
        <ele>794.8</ele>
        <time>2022-06-09T07:43:12Z</time>
      </trkpt>
      <trkpt lat="44.73311" lon="4.49347">
        <ele>794.9</ele>
        <time>2022-06-09T07:43:13Z</time>
      </trkpt>
      <trkpt lat="44.73312" lon="4.49348">
        <ele>795</ele>
        <time>2022-06-09T07:43:14Z</time>
      </trkpt>
      <trkpt lat="44.73314" lon="4.49349">
        <ele>795.1</ele>
        <time>2022-06-09T07:43:15Z</time>
      </trkpt>
      <trkpt lat="44.73315" lon="4.4935">
        <ele>795.2</ele>
        <time>2022-06-09T07:43:16Z</time>
      </trkpt>
      <trkpt lat="44.73317" lon="4.49352">
        <ele>795.4</ele>
        <time>2022-06-09T07:43:17Z</time>
      </trkpt>
      <trkpt lat="44.73319" lon="4.49354">
        <ele>795.6</ele>
        <time>2022-06-09T07:43:19Z</time>
      </trkpt>
      <trkpt lat="44.73321" lon="4.49355">
        <ele>795.8</ele>
        <time>2022-06-09T07:43:20Z</time>
      </trkpt>
      <trkpt lat="44.73324" lon="4.49356">
        <ele>796</ele>
        <time>2022-06-09T07:43:22Z</time>
      </trkpt>
      <trkpt lat="44.73325" lon="4.49357">
        <ele>796.1</ele>
        <time>2022-06-09T07:43:23Z</time>
      </trkpt>
      <trkpt lat="44.73328" lon="4.49359">
        <ele>796.4</ele>
        <time>2022-06-09T07:43:24Z</time>
      </trkpt>
      <trkpt lat="44.73329" lon="4.4936">
        <ele>796.5</ele>
        <time>2022-06-09T07:43:25Z</time>
      </trkpt>
      <trkpt lat="44.73332" lon="4.49361">
        <ele>796.8</ele>
        <time>2022-06-09T07:43:27Z</time>
      </trkpt>
      <trkpt lat="44.73335" lon="4.49362">
        <ele>797</ele>
        <time>2022-06-09T07:43:29Z</time>
      </trkpt>
      <trkpt lat="44.73336" lon="4.49362">
        <ele>797.1</ele>
        <time>2022-06-09T07:43:30Z</time>
      </trkpt>
      <trkpt lat="44.73338" lon="4.49363">
        <ele>797.2</ele>
        <time>2022-06-09T07:43:31Z</time>
      </trkpt>
      <trkpt lat="44.7334" lon="4.49363">
        <ele>797.3</ele>
        <time>2022-06-09T07:43:32Z</time>
      </trkpt>
      <trkpt lat="44.73343" lon="4.49364">
        <ele>797.6</ele>
        <time>2022-06-09T07:43:33Z</time>
      </trkpt>
      <trkpt lat="44.73347" lon="4.49365">
        <ele>797.8</ele>
        <time>2022-06-09T07:43:35Z</time>
      </trkpt>
      <trkpt lat="44.73348" lon="4.49365">
        <ele>797.9</ele>
        <time>2022-06-09T07:43:36Z</time>
      </trkpt>
      <trkpt lat="44.73352" lon="4.49366">
        <ele>798.2</ele>
        <time>2022-06-09T07:43:37Z</time>
      </trkpt>
      <trkpt lat="44.73353" lon="4.49366">
        <ele>798.2</ele>
        <time>2022-06-09T07:43:38Z</time>
      </trkpt>
      <trkpt lat="44.73356" lon="4.49366">
        <ele>798.5</ele>
        <time>2022-06-09T07:43:40Z</time>
      </trkpt>
      <trkpt lat="44.73357" lon="4.49366">
        <ele>798.6</ele>
        <time>2022-06-09T07:43:41Z</time>
      </trkpt>
      <trkpt lat="44.7336" lon="4.49366">
        <ele>798.7</ele>
        <time>2022-06-09T07:43:42Z</time>
      </trkpt>
      <trkpt lat="44.73361" lon="4.49365">
        <ele>798.8</ele>
        <time>2022-06-09T07:43:44Z</time>
      </trkpt>
      <trkpt lat="44.73363" lon="4.49365">
        <ele>799</ele>
        <time>2022-06-09T07:43:45Z</time>
      </trkpt>
      <trkpt lat="44.73364" lon="4.49365">
        <ele>799</ele>
        <time>2022-06-09T07:43:46Z</time>
      </trkpt>
      <trkpt lat="44.73365" lon="4.49365">
        <ele>799.1</ele>
        <time>2022-06-09T07:43:47Z</time>
      </trkpt>
      <trkpt lat="44.73368" lon="4.49365">
        <ele>799.3</ele>
        <time>2022-06-09T07:43:48Z</time>
      </trkpt>
      <trkpt lat="44.73369" lon="4.49364">
        <ele>799.3</ele>
        <time>2022-06-09T07:43:49Z</time>
      </trkpt>
      <trkpt lat="44.73371" lon="4.49364">
        <ele>799.5</ele>
        <time>2022-06-09T07:43:50Z</time>
      </trkpt>
      <trkpt lat="44.73373" lon="4.49363">
        <ele>799.6</ele>
        <time>2022-06-09T07:43:52Z</time>
      </trkpt>
      <trkpt lat="44.73377" lon="4.49361">
        <ele>799.8</ele>
        <time>2022-06-09T07:43:53Z</time>
      </trkpt>
      <trkpt lat="44.73379" lon="4.4936">
        <ele>800</ele>
        <time>2022-06-09T07:43:54Z</time>
      </trkpt>
      <trkpt lat="44.73381" lon="4.49359">
        <ele>800.1</ele>
        <time>2022-06-09T07:43:56Z</time>
      </trkpt>
      <trkpt lat="44.73384" lon="4.49358">
        <ele>800.3</ele>
        <time>2022-06-09T07:43:57Z</time>
      </trkpt>
      <trkpt lat="44.73388" lon="4.49357">
        <ele>800.6</ele>
        <time>2022-06-09T07:43:58Z</time>
      </trkpt>
      <trkpt lat="44.73389" lon="4.49357">
        <ele>800.6</ele>
        <time>2022-06-09T07:43:59Z</time>
      </trkpt>
      <trkpt lat="44.73392" lon="4.49355">
        <ele>800.8</ele>
        <time>2022-06-09T07:44:00Z</time>
      </trkpt>
      <trkpt lat="44.73393" lon="4.49354">
        <ele>800.9</ele>
        <time>2022-06-09T07:44:01Z</time>
      </trkpt>
      <trkpt lat="44.73397" lon="4.49352">
        <ele>801.1</ele>
        <time>2022-06-09T07:44:02Z</time>
      </trkpt>
      <trkpt lat="44.73398" lon="4.49352">
        <ele>801.2</ele>
        <time>2022-06-09T07:44:03Z</time>
      </trkpt>
      <trkpt lat="44.73401" lon="4.49351">
        <ele>801.4</ele>
        <time>2022-06-09T07:44:04Z</time>
      </trkpt>
      <trkpt lat="44.73402" lon="4.4935">
        <ele>801.4</ele>
        <time>2022-06-09T07:44:05Z</time>
      </trkpt>
      <trkpt lat="44.73405" lon="4.49349">
        <ele>801.6</ele>
        <time>2022-06-09T07:44:06Z</time>
      </trkpt>
      <trkpt lat="44.73409" lon="4.49347">
        <ele>801.9</ele>
        <time>2022-06-09T07:44:08Z</time>
      </trkpt>
      <trkpt lat="44.7341" lon="4.49346">
        <ele>801.9</ele>
        <time>2022-06-09T07:44:09Z</time>
      </trkpt>
      <trkpt lat="44.73412" lon="4.49344">
        <ele>802.1</ele>
        <time>2022-06-09T07:44:10Z</time>
      </trkpt>
      <trkpt lat="44.73413" lon="4.49343">
        <ele>802.1</ele>
        <time>2022-06-09T07:44:11Z</time>
      </trkpt>
      <trkpt lat="44.73416" lon="4.49341">
        <ele>802.4</ele>
        <time>2022-06-09T07:44:12Z</time>
      </trkpt>
      <trkpt lat="44.73419" lon="4.4934">
        <ele>802.6</ele>
        <time>2022-06-09T07:44:14Z</time>
      </trkpt>
      <trkpt lat="44.7342" lon="4.4934">
        <ele>802.6</ele>
        <time>2022-06-09T07:44:15Z</time>
      </trkpt>
      <trkpt lat="44.73422" lon="4.49339">
        <ele>802.8</ele>
        <time>2022-06-09T07:44:17Z</time>
      </trkpt>
      <trkpt lat="44.73424" lon="4.49336">
        <ele>802.9</ele>
        <time>2022-06-09T07:44:18Z</time>
      </trkpt>
      <trkpt lat="44.73426" lon="4.49334">
        <ele>803.1</ele>
        <time>2022-06-09T07:44:20Z</time>
      </trkpt>
      <trkpt lat="44.73428" lon="4.49332">
        <ele>803.2</ele>
        <time>2022-06-09T07:44:21Z</time>
      </trkpt>
      <trkpt lat="44.73428" lon="4.49331">
        <ele>803.3</ele>
        <time>2022-06-09T07:44:22Z</time>
      </trkpt>
      <trkpt lat="44.7343" lon="4.49329">
        <ele>803.4</ele>
        <time>2022-06-09T07:44:23Z</time>
      </trkpt>
      <trkpt lat="44.73432" lon="4.49327">
        <ele>803.6</ele>
        <time>2022-06-09T07:44:25Z</time>
      </trkpt>
      <trkpt lat="44.73434" lon="4.49323">
        <ele>803.8</ele>
        <time>2022-06-09T07:44:26Z</time>
      </trkpt>
      <trkpt lat="44.73435" lon="4.49322">
        <ele>803.9</ele>
        <time>2022-06-09T07:44:27Z</time>
      </trkpt>
      <trkpt lat="44.73437" lon="4.4932">
        <ele>804</ele>
        <time>2022-06-09T07:44:28Z</time>
      </trkpt>
      <trkpt lat="44.73439" lon="4.49318">
        <ele>804.2</ele>
        <time>2022-06-09T07:44:29Z</time>
      </trkpt>
      <trkpt lat="44.73441" lon="4.49317">
        <ele>804.3</ele>
        <time>2022-06-09T07:44:31Z</time>
      </trkpt>
      <trkpt lat="44.73443" lon="4.49315">
        <ele>804.5</ele>
        <time>2022-06-09T07:44:32Z</time>
      </trkpt>
      <trkpt lat="44.73445" lon="4.49314">
        <ele>804.6</ele>
        <time>2022-06-09T07:44:33Z</time>
      </trkpt>
      <trkpt lat="44.73447" lon="4.49312">
        <ele>804.8</ele>
        <time>2022-06-09T07:44:35Z</time>
      </trkpt>
      <trkpt lat="44.73448" lon="4.49311">
        <ele>804.8</ele>
        <time>2022-06-09T07:44:36Z</time>
      </trkpt>
      <trkpt lat="44.7345" lon="4.49308">
        <ele>805.1</ele>
        <time>2022-06-09T07:44:37Z</time>
      </trkpt>
      <trkpt lat="44.73452" lon="4.49307">
        <ele>805.2</ele>
        <time>2022-06-09T07:44:38Z</time>
      </trkpt>
      <trkpt lat="44.73455" lon="4.49305">
        <ele>805.4</ele>
        <time>2022-06-09T07:44:40Z</time>
      </trkpt>
      <trkpt lat="44.73458" lon="4.49303">
        <ele>805.6</ele>
        <time>2022-06-09T07:44:41Z</time>
      </trkpt>
      <trkpt lat="44.73459" lon="4.49302">
        <ele>805.7</ele>
        <time>2022-06-09T07:44:42Z</time>
      </trkpt>
      <trkpt lat="44.73462" lon="4.49299">
        <ele>805.9</ele>
        <time>2022-06-09T07:44:44Z</time>
      </trkpt>
      <trkpt lat="44.73462" lon="4.49298">
        <ele>806</ele>
        <time>2022-06-09T07:44:45Z</time>
      </trkpt>
      <trkpt lat="44.73466" lon="4.49295">
        <ele>806.3</ele>
        <time>2022-06-09T07:44:46Z</time>
      </trkpt>
      <trkpt lat="44.73469" lon="4.49293">
        <ele>806.5</ele>
        <time>2022-06-09T07:44:48Z</time>
      </trkpt>
      <trkpt lat="44.73469" lon="4.49292">
        <ele>806.6</ele>
        <time>2022-06-09T07:44:49Z</time>
      </trkpt>
      <trkpt lat="44.73471" lon="4.49291">
        <ele>806.7</ele>
        <time>2022-06-09T07:44:50Z</time>
      </trkpt>
      <trkpt lat="44.73472" lon="4.4929">
        <ele>806.8</ele>
        <time>2022-06-09T07:44:51Z</time>
      </trkpt>
      <trkpt lat="44.73473" lon="4.49289">
        <ele>806.9</ele>
        <time>2022-06-09T07:44:52Z</time>
      </trkpt>
      <trkpt lat="44.73474" lon="4.49287">
        <ele>807</ele>
        <time>2022-06-09T07:44:53Z</time>
      </trkpt>
      <trkpt lat="44.73476" lon="4.49286">
        <ele>807.2</ele>
        <time>2022-06-09T07:44:54Z</time>
      </trkpt>
      <trkpt lat="44.73478" lon="4.49285">
        <ele>807.3</ele>
        <time>2022-06-09T07:44:55Z</time>
      </trkpt>
      <trkpt lat="44.73479" lon="4.49284">
        <ele>807.4</ele>
        <time>2022-06-09T07:44:56Z</time>
      </trkpt>
      <trkpt lat="44.7348" lon="4.49283">
        <ele>807.5</ele>
        <time>2022-06-09T07:44:57Z</time>
      </trkpt>
      <trkpt lat="44.73482" lon="4.49281">
        <ele>807.6</ele>
        <time>2022-06-09T07:44:58Z</time>
      </trkpt>
      <trkpt lat="44.73483" lon="4.4928">
        <ele>807.7</ele>
        <time>2022-06-09T07:44:59Z</time>
      </trkpt>
      <trkpt lat="44.73485" lon="4.49278">
        <ele>807.9</ele>
        <time>2022-06-09T07:45:00Z</time>
      </trkpt>
      <trkpt lat="44.73486" lon="4.49278">
        <ele>807.9</ele>
        <time>2022-06-09T07:45:01Z</time>
      </trkpt>
      <trkpt lat="44.73488" lon="4.49276">
        <ele>808.1</ele>
        <time>2022-06-09T07:45:02Z</time>
      </trkpt>
      <trkpt lat="44.73489" lon="4.49275">
        <ele>808.2</ele>
        <time>2022-06-09T07:45:03Z</time>
      </trkpt>
      <trkpt lat="44.7349" lon="4.49275">
        <ele>808.2</ele>
        <time>2022-06-09T07:45:04Z</time>
      </trkpt>
      <trkpt lat="44.73492" lon="4.49273">
        <ele>808.4</ele>
        <time>2022-06-09T07:45:05Z</time>
      </trkpt>
      <trkpt lat="44.73493" lon="4.49272">
        <ele>808.5</ele>
        <time>2022-06-09T07:45:06Z</time>
      </trkpt>
      <trkpt lat="44.73496" lon="4.4927">
        <ele>808.7</ele>
        <time>2022-06-09T07:45:07Z</time>
      </trkpt>
      <trkpt lat="44.73497" lon="4.4927">
        <ele>808.8</ele>
        <time>2022-06-09T07:45:08Z</time>
      </trkpt>
      <trkpt lat="44.73501" lon="4.49267">
        <ele>809</ele>
        <time>2022-06-09T07:45:09Z</time>
      </trkpt>
      <trkpt lat="44.73504" lon="4.49265">
        <ele>809.3</ele>
        <time>2022-06-09T07:45:11Z</time>
      </trkpt>
      <trkpt lat="44.73505" lon="4.49264">
        <ele>809.3</ele>
        <time>2022-06-09T07:45:12Z</time>
      </trkpt>
      <trkpt lat="44.73507" lon="4.49262">
        <ele>809.5</ele>
        <time>2022-06-09T07:45:13Z</time>
      </trkpt>
      <trkpt lat="44.73508" lon="4.49261">
        <ele>809.6</ele>
        <time>2022-06-09T07:45:14Z</time>
      </trkpt>
      <trkpt lat="44.7351" lon="4.4926">
        <ele>809.8</ele>
        <time>2022-06-09T07:45:15Z</time>
      </trkpt>
      <trkpt lat="44.73512" lon="4.49258">
        <ele>809.9</ele>
        <time>2022-06-09T07:45:17Z</time>
      </trkpt>
      <trkpt lat="44.73515" lon="4.49256">
        <ele>810.2</ele>
        <time>2022-06-09T07:45:18Z</time>
      </trkpt>
      <trkpt lat="44.73515" lon="4.49255">
        <ele>810.2</ele>
        <time>2022-06-09T07:45:19Z</time>
      </trkpt>
      <trkpt lat="44.73519" lon="4.49253">
        <ele>810.5</ele>
        <time>2022-06-09T07:45:20Z</time>
      </trkpt>
      <trkpt lat="44.7352" lon="4.49252">
        <ele>810.6</ele>
        <time>2022-06-09T07:45:21Z</time>
      </trkpt>
      <trkpt lat="44.73521" lon="4.49251">
        <ele>810.7</ele>
        <time>2022-06-09T07:45:22Z</time>
      </trkpt>
      <trkpt lat="44.73523" lon="4.49249">
        <ele>810.9</ele>
        <time>2022-06-09T07:45:24Z</time>
      </trkpt>
      <trkpt lat="44.73526" lon="4.49246">
        <ele>811.1</ele>
        <time>2022-06-09T07:45:25Z</time>
      </trkpt>
      <trkpt lat="44.73527" lon="4.49245">
        <ele>811.2</ele>
        <time>2022-06-09T07:45:26Z</time>
      </trkpt>
      <trkpt lat="44.73529" lon="4.49243">
        <ele>811.4</ele>
        <time>2022-06-09T07:45:27Z</time>
      </trkpt>
      <trkpt lat="44.7353" lon="4.49242">
        <ele>811.5</ele>
        <time>2022-06-09T07:45:28Z</time>
      </trkpt>
      <trkpt lat="44.73532" lon="4.49241">
        <ele>811.7</ele>
        <time>2022-06-09T07:45:29Z</time>
      </trkpt>
      <trkpt lat="44.73534" lon="4.49239">
        <ele>811.9</ele>
        <time>2022-06-09T07:45:31Z</time>
      </trkpt>
      <trkpt lat="44.73537" lon="4.49238">
        <ele>812.1</ele>
        <time>2022-06-09T07:45:32Z</time>
      </trkpt>
      <trkpt lat="44.73538" lon="4.49237">
        <ele>812.1</ele>
        <time>2022-06-09T07:45:33Z</time>
      </trkpt>
      <trkpt lat="44.7354" lon="4.49236">
        <ele>812.3</ele>
        <time>2022-06-09T07:45:34Z</time>
      </trkpt>
      <trkpt lat="44.73541" lon="4.49235">
        <ele>812.4</ele>
        <time>2022-06-09T07:45:35Z</time>
      </trkpt>
      <trkpt lat="44.73544" lon="4.49233">
        <ele>812.7</ele>
        <time>2022-06-09T07:45:36Z</time>
      </trkpt>
      <trkpt lat="44.73545" lon="4.49232">
        <ele>812.7</ele>
        <time>2022-06-09T07:45:37Z</time>
      </trkpt>
      <trkpt lat="44.73546" lon="4.49231">
        <ele>812.9</ele>
        <time>2022-06-09T07:45:38Z</time>
      </trkpt>
      <trkpt lat="44.73548" lon="4.4923">
        <ele>813</ele>
        <time>2022-06-09T07:45:39Z</time>
      </trkpt>
      <trkpt lat="44.73549" lon="4.49229">
        <ele>813.1</ele>
        <time>2022-06-09T07:45:40Z</time>
      </trkpt>
      <trkpt lat="44.73551" lon="4.49228">
        <ele>813.3</ele>
        <time>2022-06-09T07:45:41Z</time>
      </trkpt>
      <trkpt lat="44.73553" lon="4.49226">
        <ele>813.4</ele>
        <time>2022-06-09T07:45:42Z</time>
      </trkpt>
      <trkpt lat="44.73555" lon="4.49225">
        <ele>813.6</ele>
        <time>2022-06-09T07:45:44Z</time>
      </trkpt>
      <trkpt lat="44.73557" lon="4.49223">
        <ele>813.8</ele>
        <time>2022-06-09T07:45:45Z</time>
      </trkpt>
      <trkpt lat="44.73558" lon="4.49222">
        <ele>813.9</ele>
        <time>2022-06-09T07:45:46Z</time>
      </trkpt>
      <trkpt lat="44.73559" lon="4.49221">
        <ele>814</ele>
        <time>2022-06-09T07:45:47Z</time>
      </trkpt>
      <trkpt lat="44.7356" lon="4.4922">
        <ele>814.2</ele>
        <time>2022-06-09T07:45:48Z</time>
      </trkpt>
      <trkpt lat="44.73562" lon="4.49219">
        <ele>814.4</ele>
        <time>2022-06-09T07:45:49Z</time>
      </trkpt>
      <trkpt lat="44.73563" lon="4.49217">
        <ele>814.5</ele>
        <time>2022-06-09T07:45:50Z</time>
      </trkpt>
      <trkpt lat="44.73566" lon="4.49215">
        <ele>814.7</ele>
        <time>2022-06-09T07:45:52Z</time>
      </trkpt>
      <trkpt lat="44.7357" lon="4.49212">
        <ele>815.1</ele>
        <time>2022-06-09T07:45:54Z</time>
      </trkpt>
      <trkpt lat="44.73573" lon="4.4921">
        <ele>815.3</ele>
        <time>2022-06-09T07:45:56Z</time>
      </trkpt>
      <trkpt lat="44.73574" lon="4.4921">
        <ele>815.4</ele>
        <time>2022-06-09T07:45:57Z</time>
      </trkpt>
      <trkpt lat="44.73577" lon="4.49208">
        <ele>815.7</ele>
        <time>2022-06-09T07:45:58Z</time>
      </trkpt>
      <trkpt lat="44.73578" lon="4.49207">
        <ele>815.8</ele>
        <time>2022-06-09T07:45:59Z</time>
      </trkpt>
      <trkpt lat="44.73581" lon="4.49205">
        <ele>816.1</ele>
        <time>2022-06-09T07:46:00Z</time>
      </trkpt>
      <trkpt lat="44.73583" lon="4.49204">
        <ele>816.2</ele>
        <time>2022-06-09T07:46:01Z</time>
      </trkpt>
      <trkpt lat="44.73584" lon="4.49203">
        <ele>816.3</ele>
        <time>2022-06-09T07:46:02Z</time>
      </trkpt>
      <trkpt lat="44.73587" lon="4.49202">
        <ele>816.5</ele>
        <time>2022-06-09T07:46:04Z</time>
      </trkpt>
      <trkpt lat="44.7359" lon="4.492">
        <ele>816.8</ele>
        <time>2022-06-09T07:46:06Z</time>
      </trkpt>
      <trkpt lat="44.73591" lon="4.49199">
        <ele>816.9</ele>
        <time>2022-06-09T07:46:07Z</time>
      </trkpt>
      <trkpt lat="44.73593" lon="4.49197">
        <ele>817.2</ele>
        <time>2022-06-09T07:46:08Z</time>
      </trkpt>
      <trkpt lat="44.73594" lon="4.49196">
        <ele>817.2</ele>
        <time>2022-06-09T07:46:09Z</time>
      </trkpt>
      <trkpt lat="44.73597" lon="4.49194">
        <ele>817.5</ele>
        <time>2022-06-09T07:46:10Z</time>
      </trkpt>
      <trkpt lat="44.73598" lon="4.49193">
        <ele>817.6</ele>
        <time>2022-06-09T07:46:12Z</time>
      </trkpt>
      <trkpt lat="44.73601" lon="4.4919">
        <ele>817.9</ele>
        <time>2022-06-09T07:46:13Z</time>
      </trkpt>
      <trkpt lat="44.73603" lon="4.49187">
        <ele>818.2</ele>
        <time>2022-06-09T07:46:15Z</time>
      </trkpt>
      <trkpt lat="44.73605" lon="4.49185">
        <ele>818.3</ele>
        <time>2022-06-09T07:46:16Z</time>
      </trkpt>
      <trkpt lat="44.73606" lon="4.49184">
        <ele>818.5</ele>
        <time>2022-06-09T07:46:17Z</time>
      </trkpt>
      <trkpt lat="44.73609" lon="4.49183">
        <ele>818.8</ele>
        <time>2022-06-09T07:46:19Z</time>
      </trkpt>
      <trkpt lat="44.7361" lon="4.49182">
        <ele>818.9</ele>
        <time>2022-06-09T07:46:20Z</time>
      </trkpt>
      <trkpt lat="44.73612" lon="4.49181">
        <ele>819.1</ele>
        <time>2022-06-09T07:46:21Z</time>
      </trkpt>
      <trkpt lat="44.73613" lon="4.4918">
        <ele>819.2</ele>
        <time>2022-06-09T07:46:22Z</time>
      </trkpt>
      <trkpt lat="44.73615" lon="4.49178">
        <ele>819.4</ele>
        <time>2022-06-09T07:46:23Z</time>
      </trkpt>
      <trkpt lat="44.73616" lon="4.49177">
        <ele>819.5</ele>
        <time>2022-06-09T07:46:24Z</time>
      </trkpt>
      <trkpt lat="44.73618" lon="4.49175">
        <ele>819.8</ele>
        <time>2022-06-09T07:46:25Z</time>
      </trkpt>
      <trkpt lat="44.73619" lon="4.49175">
        <ele>819.9</ele>
        <time>2022-06-09T07:46:26Z</time>
      </trkpt>
      <trkpt lat="44.73621" lon="4.49172">
        <ele>820.1</ele>
        <time>2022-06-09T07:46:27Z</time>
      </trkpt>
      <trkpt lat="44.73622" lon="4.49171">
        <ele>820.2</ele>
        <time>2022-06-09T07:46:28Z</time>
      </trkpt>
      <trkpt lat="44.73623" lon="4.49169">
        <ele>820.4</ele>
        <time>2022-06-09T07:46:29Z</time>
      </trkpt>
      <trkpt lat="44.73624" lon="4.49168">
        <ele>820.5</ele>
        <time>2022-06-09T07:46:30Z</time>
      </trkpt>
      <trkpt lat="44.73627" lon="4.49166">
        <ele>820.8</ele>
        <time>2022-06-09T07:46:31Z</time>
      </trkpt>
      <trkpt lat="44.7363" lon="4.49163">
        <ele>821.1</ele>
        <time>2022-06-09T07:46:33Z</time>
      </trkpt>
      <trkpt lat="44.73631" lon="4.49162">
        <ele>821.3</ele>
        <time>2022-06-09T07:46:34Z</time>
      </trkpt>
      <trkpt lat="44.73632" lon="4.49159">
        <ele>821.5</ele>
        <time>2022-06-09T07:46:35Z</time>
      </trkpt>
      <trkpt lat="44.73633" lon="4.49158">
        <ele>821.6</ele>
        <time>2022-06-09T07:46:36Z</time>
      </trkpt>
      <trkpt lat="44.73635" lon="4.49155">
        <ele>821.9</ele>
        <time>2022-06-09T07:46:37Z</time>
      </trkpt>
      <trkpt lat="44.73636" lon="4.49154">
        <ele>822</ele>
        <time>2022-06-09T07:46:38Z</time>
      </trkpt>
      <trkpt lat="44.73637" lon="4.49152">
        <ele>822.2</ele>
        <time>2022-06-09T07:46:39Z</time>
      </trkpt>
      <trkpt lat="44.73638" lon="4.4915">
        <ele>822.4</ele>
        <time>2022-06-09T07:46:40Z</time>
      </trkpt>
      <trkpt lat="44.7364" lon="4.49147">
        <ele>822.7</ele>
        <time>2022-06-09T07:46:42Z</time>
      </trkpt>
      <trkpt lat="44.73641" lon="4.49146">
        <ele>822.8</ele>
        <time>2022-06-09T07:46:43Z</time>
      </trkpt>
      <trkpt lat="44.73642" lon="4.49144">
        <ele>823</ele>
        <time>2022-06-09T07:46:44Z</time>
      </trkpt>
      <trkpt lat="44.73643" lon="4.49142">
        <ele>823.1</ele>
        <time>2022-06-09T07:46:46Z</time>
      </trkpt>
      <trkpt lat="44.73644" lon="4.4914">
        <ele>823.3</ele>
        <time>2022-06-09T07:46:47Z</time>
      </trkpt>
      <trkpt lat="44.73645" lon="4.49138">
        <ele>823.4</ele>
        <time>2022-06-09T07:46:48Z</time>
      </trkpt>
      <trkpt lat="44.73647" lon="4.49135">
        <ele>823.7</ele>
        <time>2022-06-09T07:46:49Z</time>
      </trkpt>
      <trkpt lat="44.73647" lon="4.49134">
        <ele>823.8</ele>
        <time>2022-06-09T07:46:50Z</time>
      </trkpt>
      <trkpt lat="44.73649" lon="4.4913">
        <ele>824.2</ele>
        <time>2022-06-09T07:46:51Z</time>
      </trkpt>
      <trkpt lat="44.7365" lon="4.49129">
        <ele>824.3</ele>
        <time>2022-06-09T07:46:52Z</time>
      </trkpt>
      <trkpt lat="44.73651" lon="4.49127">
        <ele>824.4</ele>
        <time>2022-06-09T07:46:53Z</time>
      </trkpt>
      <trkpt lat="44.73652" lon="4.49126">
        <ele>824.6</ele>
        <time>2022-06-09T07:46:54Z</time>
      </trkpt>
      <trkpt lat="44.73653" lon="4.49123">
        <ele>824.8</ele>
        <time>2022-06-09T07:46:55Z</time>
      </trkpt>
      <trkpt lat="44.73653" lon="4.49121">
        <ele>824.9</ele>
        <time>2022-06-09T07:46:57Z</time>
      </trkpt>
      <trkpt lat="44.73653" lon="4.4912">
        <ele>825</ele>
        <time>2022-06-09T07:46:58Z</time>
      </trkpt>
      <trkpt lat="44.73655" lon="4.49116">
        <ele>825.4</ele>
        <time>2022-06-09T07:46:59Z</time>
      </trkpt>
      <trkpt lat="44.73655" lon="4.49115">
        <ele>825.5</ele>
        <time>2022-06-09T07:47:00Z</time>
      </trkpt>
      <trkpt lat="44.73656" lon="4.49113">
        <ele>825.6</ele>
        <time>2022-06-09T07:47:02Z</time>
      </trkpt>
      <trkpt lat="44.73657" lon="4.49111">
        <ele>825.8</ele>
        <time>2022-06-09T07:47:03Z</time>
      </trkpt>
      <trkpt lat="44.73658" lon="4.49108">
        <ele>826.1</ele>
        <time>2022-06-09T07:47:04Z</time>
      </trkpt>
      <trkpt lat="44.73659" lon="4.49106">
        <ele>826.2</ele>
        <time>2022-06-09T07:47:05Z</time>
      </trkpt>
      <trkpt lat="44.73659" lon="4.49104">
        <ele>826.4</ele>
        <time>2022-06-09T07:47:07Z</time>
      </trkpt>
      <trkpt lat="44.73659" lon="4.49102">
        <ele>826.5</ele>
        <time>2022-06-09T07:47:08Z</time>
      </trkpt>
      <trkpt lat="44.7366" lon="4.49098">
        <ele>826.7</ele>
        <time>2022-06-09T07:47:09Z</time>
      </trkpt>
      <trkpt lat="44.73661" lon="4.49095">
        <ele>826.9</ele>
        <time>2022-06-09T07:47:11Z</time>
      </trkpt>
      <trkpt lat="44.73661" lon="4.49093">
        <ele>827</ele>
        <time>2022-06-09T07:47:12Z</time>
      </trkpt>
      <trkpt lat="44.73662" lon="4.49092">
        <ele>827.1</ele>
        <time>2022-06-09T07:47:13Z</time>
      </trkpt>
      <trkpt lat="44.73662" lon="4.49089">
        <ele>827.3</ele>
        <time>2022-06-09T07:47:14Z</time>
      </trkpt>
      <trkpt lat="44.73663" lon="4.49087">
        <ele>827.4</ele>
        <time>2022-06-09T07:47:16Z</time>
      </trkpt>
      <trkpt lat="44.73664" lon="4.49083">
        <ele>827.6</ele>
        <time>2022-06-09T07:47:17Z</time>
      </trkpt>
      <trkpt lat="44.73665" lon="4.49081">
        <ele>827.7</ele>
        <time>2022-06-09T07:47:19Z</time>
      </trkpt>
      <trkpt lat="44.73666" lon="4.49079">
        <ele>827.8</ele>
        <time>2022-06-09T07:47:20Z</time>
      </trkpt>
      <trkpt lat="44.73666" lon="4.49077">
        <ele>827.9</ele>
        <time>2022-06-09T07:47:21Z</time>
      </trkpt>
      <trkpt lat="44.73667" lon="4.49075">
        <ele>828</ele>
        <time>2022-06-09T07:47:22Z</time>
      </trkpt>
      <trkpt lat="44.73668" lon="4.49073">
        <ele>828.1</ele>
        <time>2022-06-09T07:47:23Z</time>
      </trkpt>
      <trkpt lat="44.73668" lon="4.49071">
        <ele>828.2</ele>
        <time>2022-06-09T07:47:24Z</time>
      </trkpt>
      <trkpt lat="44.73668" lon="4.49068">
        <ele>828.4</ele>
        <time>2022-06-09T07:47:25Z</time>
      </trkpt>
      <trkpt lat="44.73669" lon="4.49066">
        <ele>828.5</ele>
        <time>2022-06-09T07:47:26Z</time>
      </trkpt>
      <trkpt lat="44.73669" lon="4.49064">
        <ele>828.5</ele>
        <time>2022-06-09T07:47:27Z</time>
      </trkpt>
      <trkpt lat="44.7367" lon="4.49062">
        <ele>828.6</ele>
        <time>2022-06-09T07:47:28Z</time>
      </trkpt>
      <trkpt lat="44.7367" lon="4.4906">
        <ele>828.7</ele>
        <time>2022-06-09T07:47:29Z</time>
      </trkpt>
      <trkpt lat="44.73671" lon="4.49058">
        <ele>828.8</ele>
        <time>2022-06-09T07:47:30Z</time>
      </trkpt>
      <trkpt lat="44.73672" lon="4.49056">
        <ele>828.9</ele>
        <time>2022-06-09T07:47:31Z</time>
      </trkpt>
      <trkpt lat="44.73673" lon="4.49054">
        <ele>829</ele>
        <time>2022-06-09T07:47:32Z</time>
      </trkpt>
      <trkpt lat="44.73673" lon="4.49051">
        <ele>829.2</ele>
        <time>2022-06-09T07:47:33Z</time>
      </trkpt>
      <trkpt lat="44.73673" lon="4.49049">
        <ele>829.2</ele>
        <time>2022-06-09T07:47:34Z</time>
      </trkpt>
      <trkpt lat="44.73673" lon="4.49048">
        <ele>829.3</ele>
        <time>2022-06-09T07:47:35Z</time>
      </trkpt>
      <trkpt lat="44.73674" lon="4.49044">
        <ele>829.4</ele>
        <time>2022-06-09T07:47:36Z</time>
      </trkpt>
      <trkpt lat="44.73675" lon="4.49039">
        <ele>829.6</ele>
        <time>2022-06-09T07:47:38Z</time>
      </trkpt>
      <trkpt lat="44.73675" lon="4.49037">
        <ele>829.6</ele>
        <time>2022-06-09T07:47:40Z</time>
      </trkpt>
      <trkpt lat="44.73675" lon="4.49036">
        <ele>829.7</ele>
        <time>2022-06-09T07:47:41Z</time>
      </trkpt>
      <trkpt lat="44.73675" lon="4.49031">
        <ele>829.8</ele>
        <time>2022-06-09T07:47:42Z</time>
      </trkpt>
      <trkpt lat="44.73675" lon="4.49025">
        <ele>830</ele>
        <time>2022-06-09T07:47:44Z</time>
      </trkpt>
      <trkpt lat="44.73675" lon="4.49023">
        <ele>830.1</ele>
        <time>2022-06-09T07:47:45Z</time>
      </trkpt>
      <trkpt lat="44.73674" lon="4.49021">
        <ele>830.1</ele>
        <time>2022-06-09T07:47:46Z</time>
      </trkpt>
      <trkpt lat="44.73674" lon="4.49019">
        <ele>830.2</ele>
        <time>2022-06-09T07:47:47Z</time>
      </trkpt>
      <trkpt lat="44.73675" lon="4.49016">
        <ele>830.3</ele>
        <time>2022-06-09T07:47:48Z</time>
      </trkpt>
      <trkpt lat="44.73674" lon="4.49012">
        <ele>830.3</ele>
        <time>2022-06-09T07:47:49Z</time>
      </trkpt>
      <trkpt lat="44.73674" lon="4.49011">
        <ele>830.4</ele>
        <time>2022-06-09T07:47:50Z</time>
      </trkpt>
      <trkpt lat="44.73674" lon="4.49005">
        <ele>830.5</ele>
        <time>2022-06-09T07:47:52Z</time>
      </trkpt>
      <trkpt lat="44.73674" lon="4.49001">
        <ele>830.6</ele>
        <time>2022-06-09T07:47:54Z</time>
      </trkpt>
      <trkpt lat="44.73674" lon="4.49">
        <ele>830.6</ele>
        <time>2022-06-09T07:47:55Z</time>
      </trkpt>
      <trkpt lat="44.73674" lon="4.48995">
        <ele>830.7</ele>
        <time>2022-06-09T07:47:56Z</time>
      </trkpt>
      <trkpt lat="44.73674" lon="4.48993">
        <ele>830.7</ele>
        <time>2022-06-09T07:47:57Z</time>
      </trkpt>
      <trkpt lat="44.73674" lon="4.48988">
        <ele>830.8</ele>
        <time>2022-06-09T07:47:58Z</time>
      </trkpt>
      <trkpt lat="44.73674" lon="4.48984">
        <ele>830.9</ele>
        <time>2022-06-09T07:48:00Z</time>
      </trkpt>
      <trkpt lat="44.73675" lon="4.48977">
        <ele>831</ele>
        <time>2022-06-09T07:48:01Z</time>
      </trkpt>
      <trkpt lat="44.73676" lon="4.4897">
        <ele>831</ele>
        <time>2022-06-09T07:48:03Z</time>
      </trkpt>
      <trkpt lat="44.73677" lon="4.48967">
        <ele>831.1</ele>
        <time>2022-06-09T07:48:04Z</time>
      </trkpt>
      <trkpt lat="44.73679" lon="4.48961">
        <ele>831.1</ele>
        <time>2022-06-09T07:48:06Z</time>
      </trkpt>
      <trkpt lat="44.73679" lon="4.48958">
        <ele>831.1</ele>
        <time>2022-06-09T07:48:07Z</time>
      </trkpt>
      <trkpt lat="44.7368" lon="4.48956">
        <ele>831.2</ele>
        <time>2022-06-09T07:48:08Z</time>
      </trkpt>
      <trkpt lat="44.73682" lon="4.4895">
        <ele>831.2</ele>
        <time>2022-06-09T07:48:09Z</time>
      </trkpt>
      <trkpt lat="44.73684" lon="4.48945">
        <ele>831.2</ele>
        <time>2022-06-09T07:48:11Z</time>
      </trkpt>
      <trkpt lat="44.73684" lon="4.48943">
        <ele>831.2</ele>
        <time>2022-06-09T07:48:12Z</time>
      </trkpt>
      <trkpt lat="44.73687" lon="4.48937">
        <ele>831.3</ele>
        <time>2022-06-09T07:48:13Z</time>
      </trkpt>
      <trkpt lat="44.73689" lon="4.48933">
        <ele>831.3</ele>
        <time>2022-06-09T07:48:15Z</time>
      </trkpt>
      <trkpt lat="44.73691" lon="4.4893">
        <ele>831.3</ele>
        <time>2022-06-09T07:48:16Z</time>
      </trkpt>
      <trkpt lat="44.73693" lon="4.48927">
        <ele>831.3</ele>
        <time>2022-06-09T07:48:17Z</time>
      </trkpt>
      <trkpt lat="44.73697" lon="4.4892">
        <ele>831.3</ele>
        <time>2022-06-09T07:48:19Z</time>
      </trkpt>
      <trkpt lat="44.73699" lon="4.48917">
        <ele>831.3</ele>
        <time>2022-06-09T07:48:20Z</time>
      </trkpt>
      <trkpt lat="44.73701" lon="4.48913">
        <ele>831.4</ele>
        <time>2022-06-09T07:48:21Z</time>
      </trkpt>
      <trkpt lat="44.73704" lon="4.48909">
        <ele>831.4</ele>
        <time>2022-06-09T07:48:22Z</time>
      </trkpt>
      <trkpt lat="44.73705" lon="4.48906">
        <ele>831.4</ele>
        <time>2022-06-09T07:48:24Z</time>
      </trkpt>
      <trkpt lat="44.73708" lon="4.48903">
        <ele>831.4</ele>
        <time>2022-06-09T07:48:25Z</time>
      </trkpt>
      <trkpt lat="44.7371" lon="4.489">
        <ele>831.5</ele>
        <time>2022-06-09T07:48:26Z</time>
      </trkpt>
      <trkpt lat="44.73713" lon="4.48897">
        <ele>831.5</ele>
        <time>2022-06-09T07:48:27Z</time>
      </trkpt>
      <trkpt lat="44.73716" lon="4.48893">
        <ele>831.6</ele>
        <time>2022-06-09T07:48:29Z</time>
      </trkpt>
      <trkpt lat="44.73717" lon="4.4889">
        <ele>831.6</ele>
        <time>2022-06-09T07:48:30Z</time>
      </trkpt>
      <trkpt lat="44.73719" lon="4.48887">
        <ele>831.6</ele>
        <time>2022-06-09T07:48:31Z</time>
      </trkpt>
      <trkpt lat="44.73722" lon="4.48884">
        <ele>831.6</ele>
        <time>2022-06-09T07:48:32Z</time>
      </trkpt>
      <trkpt lat="44.73724" lon="4.48879">
        <ele>831.6</ele>
        <time>2022-06-09T07:48:33Z</time>
      </trkpt>
      <trkpt lat="44.73725" lon="4.48878">
        <ele>831.6</ele>
        <time>2022-06-09T07:48:34Z</time>
      </trkpt>
      <trkpt lat="44.73728" lon="4.48873">
        <ele>831.6</ele>
        <time>2022-06-09T07:48:36Z</time>
      </trkpt>
      <trkpt lat="44.73729" lon="4.48871">
        <ele>831.6</ele>
        <time>2022-06-09T07:48:37Z</time>
      </trkpt>
      <trkpt lat="44.7373" lon="4.48869">
        <ele>831.6</ele>
        <time>2022-06-09T07:48:38Z</time>
      </trkpt>
      <trkpt lat="44.73732" lon="4.48864">
        <ele>831.6</ele>
        <time>2022-06-09T07:48:39Z</time>
      </trkpt>
      <trkpt lat="44.73736" lon="4.48855">
        <ele>831.6</ele>
        <time>2022-06-09T07:48:41Z</time>
      </trkpt>
      <trkpt lat="44.73738" lon="4.48851">
        <ele>831.6</ele>
        <time>2022-06-09T07:48:43Z</time>
      </trkpt>
      <trkpt lat="44.7374" lon="4.48847">
        <ele>831.6</ele>
        <time>2022-06-09T07:48:44Z</time>
      </trkpt>
      <trkpt lat="44.73741" lon="4.48842">
        <ele>831.6</ele>
        <time>2022-06-09T07:48:45Z</time>
      </trkpt>
      <trkpt lat="44.73743" lon="4.48838">
        <ele>831.6</ele>
        <time>2022-06-09T07:48:46Z</time>
      </trkpt>
      <trkpt lat="44.73744" lon="4.48834">
        <ele>831.6</ele>
        <time>2022-06-09T07:48:47Z</time>
      </trkpt>
      <trkpt lat="44.73745" lon="4.48828">
        <ele>831.5</ele>
        <time>2022-06-09T07:48:48Z</time>
      </trkpt>
      <trkpt lat="44.73745" lon="4.48823">
        <ele>831.5</ele>
        <time>2022-06-09T07:48:49Z</time>
      </trkpt>
      <trkpt lat="44.73746" lon="4.48818">
        <ele>831.5</ele>
        <time>2022-06-09T07:48:50Z</time>
      </trkpt>
      <trkpt lat="44.73746" lon="4.48813">
        <ele>831.5</ele>
        <time>2022-06-09T07:48:51Z</time>
      </trkpt>
      <trkpt lat="44.73746" lon="4.48807">
        <ele>831.5</ele>
        <time>2022-06-09T07:48:52Z</time>
      </trkpt>
      <trkpt lat="44.73747" lon="4.48801">
        <ele>831.5</ele>
        <time>2022-06-09T07:48:53Z</time>
      </trkpt>
      <trkpt lat="44.73747" lon="4.48795">
        <ele>831.5</ele>
        <time>2022-06-09T07:48:54Z</time>
      </trkpt>
      <trkpt lat="44.73746" lon="4.4879">
        <ele>831.5</ele>
        <time>2022-06-09T07:48:55Z</time>
      </trkpt>
      <trkpt lat="44.73745" lon="4.48784">
        <ele>831.5</ele>
        <time>2022-06-09T07:48:56Z</time>
      </trkpt>
      <trkpt lat="44.73744" lon="4.48778">
        <ele>831.5</ele>
        <time>2022-06-09T07:48:57Z</time>
      </trkpt>
      <trkpt lat="44.73742" lon="4.48773">
        <ele>831.5</ele>
        <time>2022-06-09T07:48:58Z</time>
      </trkpt>
      <trkpt lat="44.73741" lon="4.48768">
        <ele>831.5</ele>
        <time>2022-06-09T07:48:59Z</time>
      </trkpt>
      <trkpt lat="44.73739" lon="4.48762">
        <ele>831.6</ele>
        <time>2022-06-09T07:49:00Z</time>
      </trkpt>
      <trkpt lat="44.73737" lon="4.48758">
        <ele>831.6</ele>
        <time>2022-06-09T07:49:01Z</time>
      </trkpt>
      <trkpt lat="44.73735" lon="4.48753">
        <ele>831.6</ele>
        <time>2022-06-09T07:49:02Z</time>
      </trkpt>
      <trkpt lat="44.73732" lon="4.48743">
        <ele>831.6</ele>
        <time>2022-06-09T07:49:03Z</time>
      </trkpt>
      <trkpt lat="44.73729" lon="4.48737">
        <ele>831.6</ele>
        <time>2022-06-09T07:49:05Z</time>
      </trkpt>
      <trkpt lat="44.73728" lon="4.48732">
        <ele>831.6</ele>
        <time>2022-06-09T07:49:06Z</time>
      </trkpt>
      <trkpt lat="44.73726" lon="4.48726">
        <ele>831.6</ele>
        <time>2022-06-09T07:49:07Z</time>
      </trkpt>
      <trkpt lat="44.73724" lon="4.48721">
        <ele>831.6</ele>
        <time>2022-06-09T07:49:08Z</time>
      </trkpt>
      <trkpt lat="44.73722" lon="4.48715">
        <ele>831.6</ele>
        <time>2022-06-09T07:49:09Z</time>
      </trkpt>
      <trkpt lat="44.73719" lon="4.48708">
        <ele>831.6</ele>
        <time>2022-06-09T07:49:10Z</time>
      </trkpt>
      <trkpt lat="44.73717" lon="4.48701">
        <ele>831.6</ele>
        <time>2022-06-09T07:49:12Z</time>
      </trkpt>
      <trkpt lat="44.73715" lon="4.48696">
        <ele>831.7</ele>
        <time>2022-06-09T07:49:13Z</time>
      </trkpt>
      <trkpt lat="44.73713" lon="4.4869">
        <ele>831.7</ele>
        <time>2022-06-09T07:49:14Z</time>
      </trkpt>
      <trkpt lat="44.73711" lon="4.48685">
        <ele>831.7</ele>
        <time>2022-06-09T07:49:15Z</time>
      </trkpt>
      <trkpt lat="44.73709" lon="4.4868">
        <ele>831.7</ele>
        <time>2022-06-09T07:49:16Z</time>
      </trkpt>
      <trkpt lat="44.73708" lon="4.48675">
        <ele>831.7</ele>
        <time>2022-06-09T07:49:17Z</time>
      </trkpt>
      <trkpt lat="44.73707" lon="4.4867">
        <ele>831.7</ele>
        <time>2022-06-09T07:49:18Z</time>
      </trkpt>
      <trkpt lat="44.73707" lon="4.48667">
        <ele>831.7</ele>
        <time>2022-06-09T07:49:20Z</time>
      </trkpt>
      <trkpt lat="44.73707" lon="4.48665">
        <ele>831.7</ele>
        <time>2022-06-09T07:49:21Z</time>
      </trkpt>
      <trkpt lat="44.73707" lon="4.48661">
        <ele>831.7</ele>
        <time>2022-06-09T07:49:23Z</time>
      </trkpt>
      <trkpt lat="44.73707" lon="4.4866">
        <ele>831.7</ele>
        <time>2022-06-09T07:49:24Z</time>
      </trkpt>
      <trkpt lat="44.73704" lon="4.48655">
        <ele>831.7</ele>
        <time>2022-06-09T07:49:25Z</time>
      </trkpt>
      <trkpt lat="44.73703" lon="4.48653">
        <ele>831.7</ele>
        <time>2022-06-09T07:49:26Z</time>
      </trkpt>
      <trkpt lat="44.73701" lon="4.48648">
        <ele>831.7</ele>
        <time>2022-06-09T07:49:27Z</time>
      </trkpt>
      <trkpt lat="44.737" lon="4.48647">
        <ele>831.7</ele>
        <time>2022-06-09T07:49:28Z</time>
      </trkpt>
      <trkpt lat="44.73699" lon="4.48642">
        <ele>831.7</ele>
        <time>2022-06-09T07:49:29Z</time>
      </trkpt>
      <trkpt lat="44.73698" lon="4.48638">
        <ele>831.7</ele>
        <time>2022-06-09T07:49:30Z</time>
      </trkpt>
      <trkpt lat="44.73698" lon="4.48633">
        <ele>831.7</ele>
        <time>2022-06-09T07:49:31Z</time>
      </trkpt>
      <trkpt lat="44.73697" lon="4.48627">
        <ele>831.7</ele>
        <time>2022-06-09T07:49:32Z</time>
      </trkpt>
      <trkpt lat="44.73696" lon="4.48622">
        <ele>831.8</ele>
        <time>2022-06-09T07:49:34Z</time>
      </trkpt>
      <trkpt lat="44.73695" lon="4.48615">
        <ele>831.8</ele>
        <time>2022-06-09T07:49:35Z</time>
      </trkpt>
      <trkpt lat="44.73694" lon="4.48609">
        <ele>831.8</ele>
        <time>2022-06-09T07:49:36Z</time>
      </trkpt>
      <trkpt lat="44.73692" lon="4.48602">
        <ele>831.8</ele>
        <time>2022-06-09T07:49:38Z</time>
      </trkpt>
      <trkpt lat="44.73691" lon="4.48598">
        <ele>831.8</ele>
        <time>2022-06-09T07:49:39Z</time>
      </trkpt>
      <trkpt lat="44.73689" lon="4.48589">
        <ele>831.9</ele>
        <time>2022-06-09T07:49:40Z</time>
      </trkpt>
      <trkpt lat="44.73688" lon="4.48584">
        <ele>831.9</ele>
        <time>2022-06-09T07:49:42Z</time>
      </trkpt>
      <trkpt lat="44.73687" lon="4.4858">
        <ele>832</ele>
        <time>2022-06-09T07:49:43Z</time>
      </trkpt>
      <trkpt lat="44.73686" lon="4.48575">
        <ele>832</ele>
        <time>2022-06-09T07:49:44Z</time>
      </trkpt>
      <trkpt lat="44.73684" lon="4.48565">
        <ele>832.1</ele>
        <time>2022-06-09T07:49:45Z</time>
      </trkpt>
      <trkpt lat="44.73683" lon="4.4856">
        <ele>832.1</ele>
        <time>2022-06-09T07:49:47Z</time>
      </trkpt>
      <trkpt lat="44.73682" lon="4.48555">
        <ele>832.2</ele>
        <time>2022-06-09T07:49:48Z</time>
      </trkpt>
      <trkpt lat="44.7368" lon="4.48549">
        <ele>832.2</ele>
        <time>2022-06-09T07:49:49Z</time>
      </trkpt>
      <trkpt lat="44.7368" lon="4.48544">
        <ele>832.2</ele>
        <time>2022-06-09T07:49:50Z</time>
      </trkpt>
      <trkpt lat="44.73679" lon="4.48539">
        <ele>832.3</ele>
        <time>2022-06-09T07:49:51Z</time>
      </trkpt>
      <trkpt lat="44.73677" lon="4.4853">
        <ele>832.3</ele>
        <time>2022-06-09T07:49:52Z</time>
      </trkpt>
      <trkpt lat="44.73676" lon="4.48525">
        <ele>832.3</ele>
        <time>2022-06-09T07:49:53Z</time>
      </trkpt>
      <trkpt lat="44.73675" lon="4.48519">
        <ele>832.4</ele>
        <time>2022-06-09T07:49:55Z</time>
      </trkpt>
      <trkpt lat="44.73673" lon="4.48513">
        <ele>832.4</ele>
        <time>2022-06-09T07:49:56Z</time>
      </trkpt>
      <trkpt lat="44.73673" lon="4.48507">
        <ele>832.4</ele>
        <time>2022-06-09T07:49:57Z</time>
      </trkpt>
      <trkpt lat="44.73672" lon="4.48501">
        <ele>832.5</ele>
        <time>2022-06-09T07:49:58Z</time>
      </trkpt>
      <trkpt lat="44.73671" lon="4.48495">
        <ele>832.5</ele>
        <time>2022-06-09T07:49:59Z</time>
      </trkpt>
      <trkpt lat="44.73671" lon="4.48489">
        <ele>832.5</ele>
        <time>2022-06-09T07:50:00Z</time>
      </trkpt>
      <trkpt lat="44.73671" lon="4.48483">
        <ele>832.6</ele>
        <time>2022-06-09T07:50:01Z</time>
      </trkpt>
      <trkpt lat="44.7367" lon="4.48477">
        <ele>832.6</ele>
        <time>2022-06-09T07:50:02Z</time>
      </trkpt>
      <trkpt lat="44.73669" lon="4.48471">
        <ele>832.6</ele>
        <time>2022-06-09T07:50:03Z</time>
      </trkpt>
      <trkpt lat="44.73669" lon="4.48465">
        <ele>832.6</ele>
        <time>2022-06-09T07:50:04Z</time>
      </trkpt>
      <trkpt lat="44.73668" lon="4.4846">
        <ele>832.6</ele>
        <time>2022-06-09T07:50:05Z</time>
      </trkpt>
      <trkpt lat="44.73667" lon="4.48454">
        <ele>832.7</ele>
        <time>2022-06-09T07:50:06Z</time>
      </trkpt>
      <trkpt lat="44.73666" lon="4.48445">
        <ele>832.7</ele>
        <time>2022-06-09T07:50:08Z</time>
      </trkpt>
      <trkpt lat="44.73665" lon="4.4844">
        <ele>832.7</ele>
        <time>2022-06-09T07:50:09Z</time>
      </trkpt>
      <trkpt lat="44.73665" lon="4.48435">
        <ele>832.7</ele>
        <time>2022-06-09T07:50:10Z</time>
      </trkpt>
      <trkpt lat="44.73664" lon="4.48429">
        <ele>832.7</ele>
        <time>2022-06-09T07:50:11Z</time>
      </trkpt>
      <trkpt lat="44.73662" lon="4.48421">
        <ele>832.7</ele>
        <time>2022-06-09T07:50:12Z</time>
      </trkpt>
      <trkpt lat="44.73661" lon="4.48415">
        <ele>832.8</ele>
        <time>2022-06-09T07:50:13Z</time>
      </trkpt>
      <trkpt lat="44.7366" lon="4.48409">
        <ele>832.8</ele>
        <time>2022-06-09T07:50:14Z</time>
      </trkpt>
      <trkpt lat="44.73658" lon="4.48401">
        <ele>832.8</ele>
        <time>2022-06-09T07:50:16Z</time>
      </trkpt>
      <trkpt lat="44.73657" lon="4.48396">
        <ele>832.8</ele>
        <time>2022-06-09T07:50:17Z</time>
      </trkpt>
      <trkpt lat="44.73653" lon="4.48386">
        <ele>832.9</ele>
        <time>2022-06-09T07:50:18Z</time>
      </trkpt>
      <trkpt lat="44.73651" lon="4.4838">
        <ele>832.9</ele>
        <time>2022-06-09T07:50:20Z</time>
      </trkpt>
      <trkpt lat="44.7365" lon="4.48375">
        <ele>832.9</ele>
        <time>2022-06-09T07:50:21Z</time>
      </trkpt>
      <trkpt lat="44.73648" lon="4.48366">
        <ele>833</ele>
        <time>2022-06-09T07:50:22Z</time>
      </trkpt>
      <trkpt lat="44.73646" lon="4.48359">
        <ele>833</ele>
        <time>2022-06-09T07:50:23Z</time>
      </trkpt>
      <trkpt lat="44.73644" lon="4.48351">
        <ele>833</ele>
        <time>2022-06-09T07:50:25Z</time>
      </trkpt>
      <trkpt lat="44.73642" lon="4.48345">
        <ele>833.1</ele>
        <time>2022-06-09T07:50:26Z</time>
      </trkpt>
      <trkpt lat="44.7364" lon="4.4834">
        <ele>833.1</ele>
        <time>2022-06-09T07:50:27Z</time>
      </trkpt>
      <trkpt lat="44.73638" lon="4.48334">
        <ele>833.1</ele>
        <time>2022-06-09T07:50:28Z</time>
      </trkpt>
      <trkpt lat="44.73637" lon="4.48328">
        <ele>833.1</ele>
        <time>2022-06-09T07:50:29Z</time>
      </trkpt>
      <trkpt lat="44.73636" lon="4.48323">
        <ele>833.1</ele>
        <time>2022-06-09T07:50:30Z</time>
      </trkpt>
      <trkpt lat="44.73634" lon="4.48317">
        <ele>833.1</ele>
        <time>2022-06-09T07:50:31Z</time>
      </trkpt>
      <trkpt lat="44.73634" lon="4.48311">
        <ele>833.2</ele>
        <time>2022-06-09T07:50:32Z</time>
      </trkpt>
      <trkpt lat="44.73634" lon="4.48305">
        <ele>833.2</ele>
        <time>2022-06-09T07:50:33Z</time>
      </trkpt>
      <trkpt lat="44.73633" lon="4.48299">
        <ele>833.2</ele>
        <time>2022-06-09T07:50:34Z</time>
      </trkpt>
      <trkpt lat="44.73634" lon="4.48293">
        <ele>833.2</ele>
        <time>2022-06-09T07:50:35Z</time>
      </trkpt>
      <trkpt lat="44.73634" lon="4.48288">
        <ele>833.2</ele>
        <time>2022-06-09T07:50:36Z</time>
      </trkpt>
      <trkpt lat="44.73634" lon="4.48282">
        <ele>833.2</ele>
        <time>2022-06-09T07:50:37Z</time>
      </trkpt>
      <trkpt lat="44.73635" lon="4.48276">
        <ele>833.2</ele>
        <time>2022-06-09T07:50:38Z</time>
      </trkpt>
      <trkpt lat="44.73636" lon="4.4827">
        <ele>833.2</ele>
        <time>2022-06-09T07:50:39Z</time>
      </trkpt>
      <trkpt lat="44.73639" lon="4.48264">
        <ele>833.2</ele>
        <time>2022-06-09T07:50:40Z</time>
      </trkpt>
      <trkpt lat="44.73641" lon="4.48258">
        <ele>833.2</ele>
        <time>2022-06-09T07:50:41Z</time>
      </trkpt>
      <trkpt lat="44.73643" lon="4.48252">
        <ele>833.2</ele>
        <time>2022-06-09T07:50:42Z</time>
      </trkpt>
      <trkpt lat="44.73645" lon="4.48248">
        <ele>833.2</ele>
        <time>2022-06-09T07:50:43Z</time>
      </trkpt>
      <trkpt lat="44.73648" lon="4.48243">
        <ele>833.2</ele>
        <time>2022-06-09T07:50:44Z</time>
      </trkpt>
      <trkpt lat="44.73652" lon="4.48238">
        <ele>833.2</ele>
        <time>2022-06-09T07:50:45Z</time>
      </trkpt>
      <trkpt lat="44.73656" lon="4.48233">
        <ele>833.1</ele>
        <time>2022-06-09T07:50:46Z</time>
      </trkpt>
      <trkpt lat="44.73659" lon="4.48228">
        <ele>833.1</ele>
        <time>2022-06-09T07:50:47Z</time>
      </trkpt>
      <trkpt lat="44.73663" lon="4.48224">
        <ele>833.1</ele>
        <time>2022-06-09T07:50:48Z</time>
      </trkpt>
      <trkpt lat="44.73666" lon="4.4822">
        <ele>833.1</ele>
        <time>2022-06-09T07:50:49Z</time>
      </trkpt>
      <trkpt lat="44.7367" lon="4.48215">
        <ele>833.1</ele>
        <time>2022-06-09T07:50:50Z</time>
      </trkpt>
      <trkpt lat="44.73673" lon="4.4821">
        <ele>833</ele>
        <time>2022-06-09T07:50:51Z</time>
      </trkpt>
      <trkpt lat="44.73676" lon="4.48204">
        <ele>833</ele>
        <time>2022-06-09T07:50:52Z</time>
      </trkpt>
      <trkpt lat="44.73678" lon="4.48198">
        <ele>833</ele>
        <time>2022-06-09T07:50:53Z</time>
      </trkpt>
      <trkpt lat="44.73681" lon="4.48192">
        <ele>833.1</ele>
        <time>2022-06-09T07:50:54Z</time>
      </trkpt>
      <trkpt lat="44.73682" lon="4.48186">
        <ele>833.1</ele>
        <time>2022-06-09T07:50:55Z</time>
      </trkpt>
      <trkpt lat="44.73684" lon="4.4818">
        <ele>833.1</ele>
        <time>2022-06-09T07:50:56Z</time>
      </trkpt>
      <trkpt lat="44.73685" lon="4.48173">
        <ele>833.1</ele>
        <time>2022-06-09T07:50:57Z</time>
      </trkpt>
      <trkpt lat="44.73685" lon="4.48166">
        <ele>833.2</ele>
        <time>2022-06-09T07:50:58Z</time>
      </trkpt>
      <trkpt lat="44.73686" lon="4.4816">
        <ele>833.2</ele>
        <time>2022-06-09T07:50:59Z</time>
      </trkpt>
      <trkpt lat="44.73686" lon="4.48155">
        <ele>833.2</ele>
        <time>2022-06-09T07:51:00Z</time>
      </trkpt>
      <trkpt lat="44.73686" lon="4.4815">
        <ele>833.2</ele>
        <time>2022-06-09T07:51:01Z</time>
      </trkpt>
      <trkpt lat="44.73685" lon="4.48144">
        <ele>833.3</ele>
        <time>2022-06-09T07:51:02Z</time>
      </trkpt>
      <trkpt lat="44.73684" lon="4.48139">
        <ele>833.3</ele>
        <time>2022-06-09T07:51:03Z</time>
      </trkpt>
      <trkpt lat="44.73683" lon="4.48133">
        <ele>833.4</ele>
        <time>2022-06-09T07:51:04Z</time>
      </trkpt>
      <trkpt lat="44.7368" lon="4.48128">
        <ele>833.4</ele>
        <time>2022-06-09T07:51:05Z</time>
      </trkpt>
      <trkpt lat="44.73679" lon="4.48127">
        <ele>833.4</ele>
        <time>2022-06-09T07:51:06Z</time>
      </trkpt>
      <trkpt lat="44.73678" lon="4.48121">
        <ele>833.4</ele>
        <time>2022-06-09T07:51:07Z</time>
      </trkpt>
      <trkpt lat="44.73674" lon="4.4811">
        <ele>833.5</ele>
        <time>2022-06-09T07:51:08Z</time>
      </trkpt>
      <trkpt lat="44.7367" lon="4.48101">
        <ele>833.5</ele>
        <time>2022-06-09T07:51:10Z</time>
      </trkpt>
      <trkpt lat="44.73668" lon="4.48095">
        <ele>833.5</ele>
        <time>2022-06-09T07:51:12Z</time>
      </trkpt>
      <trkpt lat="44.73664" lon="4.48089">
        <ele>833.6</ele>
        <time>2022-06-09T07:51:13Z</time>
      </trkpt>
      <trkpt lat="44.73661" lon="4.48085">
        <ele>833.6</ele>
        <time>2022-06-09T07:51:14Z</time>
      </trkpt>
      <trkpt lat="44.73659" lon="4.48081">
        <ele>833.6</ele>
        <time>2022-06-09T07:51:15Z</time>
      </trkpt>
      <trkpt lat="44.73656" lon="4.48075">
        <ele>833.6</ele>
        <time>2022-06-09T07:51:16Z</time>
      </trkpt>
      <trkpt lat="44.73653" lon="4.4807">
        <ele>833.6</ele>
        <time>2022-06-09T07:51:18Z</time>
      </trkpt>
      <trkpt lat="44.7365" lon="4.48065">
        <ele>833.6</ele>
        <time>2022-06-09T07:51:19Z</time>
      </trkpt>
      <trkpt lat="44.73646" lon="4.4806">
        <ele>833.7</ele>
        <time>2022-06-09T07:51:20Z</time>
      </trkpt>
      <trkpt lat="44.73642" lon="4.48054">
        <ele>833.7</ele>
        <time>2022-06-09T07:51:21Z</time>
      </trkpt>
      <trkpt lat="44.7364" lon="4.4805">
        <ele>833.7</ele>
        <time>2022-06-09T07:51:22Z</time>
      </trkpt>
      <trkpt lat="44.73637" lon="4.48044">
        <ele>833.7</ele>
        <time>2022-06-09T07:51:24Z</time>
      </trkpt>
      <trkpt lat="44.73634" lon="4.48039">
        <ele>833.8</ele>
        <time>2022-06-09T07:51:25Z</time>
      </trkpt>
      <trkpt lat="44.73631" lon="4.48035">
        <ele>833.8</ele>
        <time>2022-06-09T07:51:26Z</time>
      </trkpt>
      <trkpt lat="44.73628" lon="4.48031">
        <ele>833.8</ele>
        <time>2022-06-09T07:51:27Z</time>
      </trkpt>
      <trkpt lat="44.73626" lon="4.48026">
        <ele>833.9</ele>
        <time>2022-06-09T07:51:28Z</time>
      </trkpt>
      <trkpt lat="44.73623" lon="4.48021">
        <ele>833.9</ele>
        <time>2022-06-09T07:51:29Z</time>
      </trkpt>
      <trkpt lat="44.73621" lon="4.48016">
        <ele>833.9</ele>
        <time>2022-06-09T07:51:30Z</time>
      </trkpt>
      <trkpt lat="44.73616" lon="4.48007">
        <ele>834</ele>
        <time>2022-06-09T07:51:31Z</time>
      </trkpt>
      <trkpt lat="44.73614" lon="4.48002">
        <ele>834.1</ele>
        <time>2022-06-09T07:51:32Z</time>
      </trkpt>
      <trkpt lat="44.73612" lon="4.47997">
        <ele>834.1</ele>
        <time>2022-06-09T07:51:34Z</time>
      </trkpt>
      <trkpt lat="44.73609" lon="4.47991">
        <ele>834.1</ele>
        <time>2022-06-09T07:51:35Z</time>
      </trkpt>
      <trkpt lat="44.73608" lon="4.47986">
        <ele>834.1</ele>
        <time>2022-06-09T07:51:36Z</time>
      </trkpt>
      <trkpt lat="44.73607" lon="4.47981">
        <ele>834.1</ele>
        <time>2022-06-09T07:51:37Z</time>
      </trkpt>
      <trkpt lat="44.73606" lon="4.47972">
        <ele>834.1</ele>
        <time>2022-06-09T07:51:38Z</time>
      </trkpt>
      <trkpt lat="44.73605" lon="4.47966">
        <ele>834.1</ele>
        <time>2022-06-09T07:51:39Z</time>
      </trkpt>
      <trkpt lat="44.73605" lon="4.47959">
        <ele>834.1</ele>
        <time>2022-06-09T07:51:40Z</time>
      </trkpt>
      <trkpt lat="44.73606" lon="4.47945">
        <ele>834.1</ele>
        <time>2022-06-09T07:51:42Z</time>
      </trkpt>
      <trkpt lat="44.73608" lon="4.47937">
        <ele>834.1</ele>
        <time>2022-06-09T07:51:44Z</time>
      </trkpt>
      <trkpt lat="44.7361" lon="4.4793">
        <ele>834.1</ele>
        <time>2022-06-09T07:51:45Z</time>
      </trkpt>
      <trkpt lat="44.73612" lon="4.47924">
        <ele>834.1</ele>
        <time>2022-06-09T07:51:46Z</time>
      </trkpt>
      <trkpt lat="44.73615" lon="4.47919">
        <ele>834.1</ele>
        <time>2022-06-09T07:51:47Z</time>
      </trkpt>
      <trkpt lat="44.73617" lon="4.47913">
        <ele>834.1</ele>
        <time>2022-06-09T07:51:48Z</time>
      </trkpt>
      <trkpt lat="44.73621" lon="4.47904">
        <ele>834.1</ele>
        <time>2022-06-09T07:51:49Z</time>
      </trkpt>
      <trkpt lat="44.73623" lon="4.47899">
        <ele>834.2</ele>
        <time>2022-06-09T07:51:51Z</time>
      </trkpt>
      <trkpt lat="44.73631" lon="4.47892">
        <ele>834.1</ele>
        <time>2022-06-09T07:51:52Z</time>
      </trkpt>
      <trkpt lat="44.73636" lon="4.47888">
        <ele>834.1</ele>
        <time>2022-06-09T07:51:54Z</time>
      </trkpt>
      <trkpt lat="44.73645" lon="4.47884">
        <ele>834</ele>
        <time>2022-06-09T07:51:56Z</time>
      </trkpt>
      <trkpt lat="44.73649" lon="4.47882">
        <ele>834</ele>
        <time>2022-06-09T07:51:57Z</time>
      </trkpt>
      <trkpt lat="44.73654" lon="4.47881">
        <ele>833.9</ele>
        <time>2022-06-09T07:51:58Z</time>
      </trkpt>
      <trkpt lat="44.73658" lon="4.4788">
        <ele>833.9</ele>
        <time>2022-06-09T07:51:59Z</time>
      </trkpt>
      <trkpt lat="44.73663" lon="4.47879">
        <ele>833.8</ele>
        <time>2022-06-09T07:52:00Z</time>
      </trkpt>
      <trkpt lat="44.73668" lon="4.47877">
        <ele>833.8</ele>
        <time>2022-06-09T07:52:01Z</time>
      </trkpt>
      <trkpt lat="44.73673" lon="4.47876">
        <ele>833.7</ele>
        <time>2022-06-09T07:52:02Z</time>
      </trkpt>
      <trkpt lat="44.73678" lon="4.47874">
        <ele>833.7</ele>
        <time>2022-06-09T07:52:03Z</time>
      </trkpt>
      <trkpt lat="44.73683" lon="4.47871">
        <ele>833.7</ele>
        <time>2022-06-09T07:52:04Z</time>
      </trkpt>
      <trkpt lat="44.73688" lon="4.47868">
        <ele>833.6</ele>
        <time>2022-06-09T07:52:05Z</time>
      </trkpt>
      <trkpt lat="44.73692" lon="4.47864">
        <ele>833.6</ele>
        <time>2022-06-09T07:52:06Z</time>
      </trkpt>
      <trkpt lat="44.73697" lon="4.47859">
        <ele>833.5</ele>
        <time>2022-06-09T07:52:07Z</time>
      </trkpt>
      <trkpt lat="44.73701" lon="4.47853">
        <ele>833.5</ele>
        <time>2022-06-09T07:52:08Z</time>
      </trkpt>
      <trkpt lat="44.73704" lon="4.47847">
        <ele>833.4</ele>
        <time>2022-06-09T07:52:09Z</time>
      </trkpt>
      <trkpt lat="44.73706" lon="4.47841">
        <ele>833.4</ele>
        <time>2022-06-09T07:52:10Z</time>
      </trkpt>
      <trkpt lat="44.73708" lon="4.47834">
        <ele>833.4</ele>
        <time>2022-06-09T07:52:11Z</time>
      </trkpt>
      <trkpt lat="44.73709" lon="4.47826">
        <ele>833.3</ele>
        <time>2022-06-09T07:52:12Z</time>
      </trkpt>
      <trkpt lat="44.73709" lon="4.47819">
        <ele>833.3</ele>
        <time>2022-06-09T07:52:13Z</time>
      </trkpt>
      <trkpt lat="44.73709" lon="4.47811">
        <ele>833.3</ele>
        <time>2022-06-09T07:52:14Z</time>
      </trkpt>
      <trkpt lat="44.73708" lon="4.47804">
        <ele>833.2</ele>
        <time>2022-06-09T07:52:15Z</time>
      </trkpt>
      <trkpt lat="44.73706" lon="4.47797">
        <ele>833.2</ele>
        <time>2022-06-09T07:52:16Z</time>
      </trkpt>
      <trkpt lat="44.73704" lon="4.4779">
        <ele>833.2</ele>
        <time>2022-06-09T07:52:17Z</time>
      </trkpt>
      <trkpt lat="44.73701" lon="4.47783">
        <ele>833.2</ele>
        <time>2022-06-09T07:52:18Z</time>
      </trkpt>
      <trkpt lat="44.73698" lon="4.47777">
        <ele>833.2</ele>
        <time>2022-06-09T07:52:19Z</time>
      </trkpt>
      <trkpt lat="44.73694" lon="4.47772">
        <ele>833.2</ele>
        <time>2022-06-09T07:52:20Z</time>
      </trkpt>
      <trkpt lat="44.7369" lon="4.47767">
        <ele>833.2</ele>
        <time>2022-06-09T07:52:21Z</time>
      </trkpt>
      <trkpt lat="44.73685" lon="4.47763">
        <ele>833.2</ele>
        <time>2022-06-09T07:52:22Z</time>
      </trkpt>
      <trkpt lat="44.73681" lon="4.47759">
        <ele>833.3</ele>
        <time>2022-06-09T07:52:23Z</time>
      </trkpt>
      <trkpt lat="44.73676" lon="4.47755">
        <ele>833.3</ele>
        <time>2022-06-09T07:52:24Z</time>
      </trkpt>
      <trkpt lat="44.73671" lon="4.4775">
        <ele>833.3</ele>
        <time>2022-06-09T07:52:25Z</time>
      </trkpt>
      <trkpt lat="44.73666" lon="4.47746">
        <ele>833.4</ele>
        <time>2022-06-09T07:52:26Z</time>
      </trkpt>
      <trkpt lat="44.73662" lon="4.47743">
        <ele>833.4</ele>
        <time>2022-06-09T07:52:27Z</time>
      </trkpt>
      <trkpt lat="44.73657" lon="4.4774">
        <ele>833.5</ele>
        <time>2022-06-09T07:52:28Z</time>
      </trkpt>
      <trkpt lat="44.73652" lon="4.47736">
        <ele>833.6</ele>
        <time>2022-06-09T07:52:29Z</time>
      </trkpt>
      <trkpt lat="44.73648" lon="4.47733">
        <ele>833.6</ele>
        <time>2022-06-09T07:52:30Z</time>
      </trkpt>
      <trkpt lat="44.73643" lon="4.4773">
        <ele>833.6</ele>
        <time>2022-06-09T07:52:31Z</time>
      </trkpt>
      <trkpt lat="44.73639" lon="4.47727">
        <ele>833.7</ele>
        <time>2022-06-09T07:52:32Z</time>
      </trkpt>
      <trkpt lat="44.73635" lon="4.47723">
        <ele>833.7</ele>
        <time>2022-06-09T07:52:33Z</time>
      </trkpt>
      <trkpt lat="44.73631" lon="4.47718">
        <ele>833.7</ele>
        <time>2022-06-09T07:52:34Z</time>
      </trkpt>
      <trkpt lat="44.73627" lon="4.47713">
        <ele>833.7</ele>
        <time>2022-06-09T07:52:35Z</time>
      </trkpt>
      <trkpt lat="44.73624" lon="4.47707">
        <ele>833.7</ele>
        <time>2022-06-09T07:52:36Z</time>
      </trkpt>
      <trkpt lat="44.73622" lon="4.477">
        <ele>833.7</ele>
        <time>2022-06-09T07:52:37Z</time>
      </trkpt>
      <trkpt lat="44.7362" lon="4.47693">
        <ele>833.7</ele>
        <time>2022-06-09T07:52:38Z</time>
      </trkpt>
      <trkpt lat="44.73619" lon="4.47685">
        <ele>833.7</ele>
        <time>2022-06-09T07:52:39Z</time>
      </trkpt>
      <trkpt lat="44.7362" lon="4.47678">
        <ele>833.7</ele>
        <time>2022-06-09T07:52:40Z</time>
      </trkpt>
      <trkpt lat="44.7362" lon="4.4767">
        <ele>833.8</ele>
        <time>2022-06-09T07:52:41Z</time>
      </trkpt>
      <trkpt lat="44.7362" lon="4.47662">
        <ele>833.8</ele>
        <time>2022-06-09T07:52:42Z</time>
      </trkpt>
      <trkpt lat="44.73621" lon="4.47655">
        <ele>833.8</ele>
        <time>2022-06-09T07:52:43Z</time>
      </trkpt>
      <trkpt lat="44.73621" lon="4.47647">
        <ele>833.9</ele>
        <time>2022-06-09T07:52:44Z</time>
      </trkpt>
      <trkpt lat="44.73621" lon="4.47641">
        <ele>833.9</ele>
        <time>2022-06-09T07:52:45Z</time>
      </trkpt>
      <trkpt lat="44.73621" lon="4.47634">
        <ele>834</ele>
        <time>2022-06-09T07:52:46Z</time>
      </trkpt>
      <trkpt lat="44.73622" lon="4.47627">
        <ele>834</ele>
        <time>2022-06-09T07:52:47Z</time>
      </trkpt>
      <trkpt lat="44.73623" lon="4.4762">
        <ele>834</ele>
        <time>2022-06-09T07:52:48Z</time>
      </trkpt>
      <trkpt lat="44.73623" lon="4.47613">
        <ele>834.1</ele>
        <time>2022-06-09T07:52:49Z</time>
      </trkpt>
      <trkpt lat="44.73624" lon="4.47606">
        <ele>834.1</ele>
        <time>2022-06-09T07:52:50Z</time>
      </trkpt>
      <trkpt lat="44.73624" lon="4.47599">
        <ele>834.1</ele>
        <time>2022-06-09T07:52:51Z</time>
      </trkpt>
      <trkpt lat="44.73624" lon="4.47592">
        <ele>834.1</ele>
        <time>2022-06-09T07:52:52Z</time>
      </trkpt>
      <trkpt lat="44.73624" lon="4.47584">
        <ele>834.1</ele>
        <time>2022-06-09T07:52:53Z</time>
      </trkpt>
      <trkpt lat="44.73625" lon="4.47576">
        <ele>834.1</ele>
        <time>2022-06-09T07:52:54Z</time>
      </trkpt>
      <trkpt lat="44.73625" lon="4.47569">
        <ele>834.1</ele>
        <time>2022-06-09T07:52:55Z</time>
      </trkpt>
      <trkpt lat="44.73626" lon="4.47561">
        <ele>834.1</ele>
        <time>2022-06-09T07:52:56Z</time>
      </trkpt>
      <trkpt lat="44.73626" lon="4.47553">
        <ele>834.1</ele>
        <time>2022-06-09T07:52:57Z</time>
      </trkpt>
      <trkpt lat="44.73626" lon="4.47545">
        <ele>834.2</ele>
        <time>2022-06-09T07:52:58Z</time>
      </trkpt>
      <trkpt lat="44.73626" lon="4.47538">
        <ele>834.3</ele>
        <time>2022-06-09T07:52:59Z</time>
      </trkpt>
      <trkpt lat="44.73625" lon="4.47531">
        <ele>834.3</ele>
        <time>2022-06-09T07:53:00Z</time>
      </trkpt>
      <trkpt lat="44.73623" lon="4.47524">
        <ele>834.4</ele>
        <time>2022-06-09T07:53:01Z</time>
      </trkpt>
      <trkpt lat="44.73622" lon="4.47517">
        <ele>834.4</ele>
        <time>2022-06-09T07:53:02Z</time>
      </trkpt>
      <trkpt lat="44.7362" lon="4.47511">
        <ele>834.5</ele>
        <time>2022-06-09T07:53:03Z</time>
      </trkpt>
      <trkpt lat="44.73618" lon="4.47505">
        <ele>834.5</ele>
        <time>2022-06-09T07:53:04Z</time>
      </trkpt>
      <trkpt lat="44.73615" lon="4.475">
        <ele>834.6</ele>
        <time>2022-06-09T07:53:05Z</time>
      </trkpt>
      <trkpt lat="44.73612" lon="4.47494">
        <ele>834.6</ele>
        <time>2022-06-09T07:53:06Z</time>
      </trkpt>
      <trkpt lat="44.73609" lon="4.4749">
        <ele>834.7</ele>
        <time>2022-06-09T07:53:07Z</time>
      </trkpt>
      <trkpt lat="44.73605" lon="4.47486">
        <ele>834.7</ele>
        <time>2022-06-09T07:53:08Z</time>
      </trkpt>
      <trkpt lat="44.73601" lon="4.47482">
        <ele>834.8</ele>
        <time>2022-06-09T07:53:09Z</time>
      </trkpt>
      <trkpt lat="44.73597" lon="4.47479">
        <ele>834.9</ele>
        <time>2022-06-09T07:53:10Z</time>
      </trkpt>
      <trkpt lat="44.73593" lon="4.47476">
        <ele>834.9</ele>
        <time>2022-06-09T07:53:11Z</time>
      </trkpt>
      <trkpt lat="44.73588" lon="4.47474">
        <ele>835</ele>
        <time>2022-06-09T07:53:12Z</time>
      </trkpt>
      <trkpt lat="44.73583" lon="4.47472">
        <ele>835</ele>
        <time>2022-06-09T07:53:13Z</time>
      </trkpt>
      <trkpt lat="44.73579" lon="4.4747">
        <ele>835.1</ele>
        <time>2022-06-09T07:53:14Z</time>
      </trkpt>
      <trkpt lat="44.73574" lon="4.47469">
        <ele>835.1</ele>
        <time>2022-06-09T07:53:15Z</time>
      </trkpt>
      <trkpt lat="44.73569" lon="4.47469">
        <ele>835.2</ele>
        <time>2022-06-09T07:53:16Z</time>
      </trkpt>
      <trkpt lat="44.73564" lon="4.47468">
        <ele>835.2</ele>
        <time>2022-06-09T07:53:17Z</time>
      </trkpt>
      <trkpt lat="44.73559" lon="4.47468">
        <ele>835.2</ele>
        <time>2022-06-09T07:53:18Z</time>
      </trkpt>
      <trkpt lat="44.73554" lon="4.47468">
        <ele>835.3</ele>
        <time>2022-06-09T07:53:19Z</time>
      </trkpt>
      <trkpt lat="44.73549" lon="4.47468">
        <ele>835.3</ele>
        <time>2022-06-09T07:53:20Z</time>
      </trkpt>
      <trkpt lat="44.73544" lon="4.47469">
        <ele>835.3</ele>
        <time>2022-06-09T07:53:21Z</time>
      </trkpt>
      <trkpt lat="44.73539" lon="4.47469">
        <ele>835.4</ele>
        <time>2022-06-09T07:53:22Z</time>
      </trkpt>
      <trkpt lat="44.73534" lon="4.4747">
        <ele>835.5</ele>
        <time>2022-06-09T07:53:23Z</time>
      </trkpt>
      <trkpt lat="44.73529" lon="4.4747">
        <ele>835.5</ele>
        <time>2022-06-09T07:53:24Z</time>
      </trkpt>
      <trkpt lat="44.73524" lon="4.47471">
        <ele>835.6</ele>
        <time>2022-06-09T07:53:25Z</time>
      </trkpt>
      <trkpt lat="44.73519" lon="4.47472">
        <ele>835.6</ele>
        <time>2022-06-09T07:53:26Z</time>
      </trkpt>
      <trkpt lat="44.73514" lon="4.47473">
        <ele>835.7</ele>
        <time>2022-06-09T07:53:27Z</time>
      </trkpt>
      <trkpt lat="44.73509" lon="4.47474">
        <ele>835.7</ele>
        <time>2022-06-09T07:53:28Z</time>
      </trkpt>
      <trkpt lat="44.73505" lon="4.47476">
        <ele>835.8</ele>
        <time>2022-06-09T07:53:29Z</time>
      </trkpt>
      <trkpt lat="44.735" lon="4.47478">
        <ele>835.8</ele>
        <time>2022-06-09T07:53:30Z</time>
      </trkpt>
      <trkpt lat="44.73495" lon="4.4748">
        <ele>835.9</ele>
        <time>2022-06-09T07:53:31Z</time>
      </trkpt>
      <trkpt lat="44.73491" lon="4.47482">
        <ele>835.9</ele>
        <time>2022-06-09T07:53:32Z</time>
      </trkpt>
      <trkpt lat="44.73486" lon="4.47484">
        <ele>836</ele>
        <time>2022-06-09T07:53:33Z</time>
      </trkpt>
      <trkpt lat="44.73481" lon="4.47486">
        <ele>836</ele>
        <time>2022-06-09T07:53:34Z</time>
      </trkpt>
      <trkpt lat="44.73476" lon="4.47487">
        <ele>836</ele>
        <time>2022-06-09T07:53:35Z</time>
      </trkpt>
      <trkpt lat="44.73471" lon="4.47488">
        <ele>836</ele>
        <time>2022-06-09T07:53:36Z</time>
      </trkpt>
      <trkpt lat="44.73466" lon="4.47489">
        <ele>836.1</ele>
        <time>2022-06-09T07:53:37Z</time>
      </trkpt>
      <trkpt lat="44.7346" lon="4.47489">
        <ele>836.1</ele>
        <time>2022-06-09T07:53:38Z</time>
      </trkpt>
      <trkpt lat="44.73455" lon="4.47489">
        <ele>836.1</ele>
        <time>2022-06-09T07:53:39Z</time>
      </trkpt>
      <trkpt lat="44.7345" lon="4.47488">
        <ele>836.1</ele>
        <time>2022-06-09T07:53:40Z</time>
      </trkpt>
      <trkpt lat="44.73445" lon="4.47486">
        <ele>836.1</ele>
        <time>2022-06-09T07:53:41Z</time>
      </trkpt>
      <trkpt lat="44.7344" lon="4.47483">
        <ele>836.1</ele>
        <time>2022-06-09T07:53:42Z</time>
      </trkpt>
      <trkpt lat="44.73436" lon="4.47479">
        <ele>836.1</ele>
        <time>2022-06-09T07:53:43Z</time>
      </trkpt>
      <trkpt lat="44.73431" lon="4.47475">
        <ele>836.1</ele>
        <time>2022-06-09T07:53:44Z</time>
      </trkpt>
      <trkpt lat="44.73427" lon="4.47471">
        <ele>836.1</ele>
        <time>2022-06-09T07:53:45Z</time>
      </trkpt>
      <trkpt lat="44.73424" lon="4.47466">
        <ele>836.1</ele>
        <time>2022-06-09T07:53:46Z</time>
      </trkpt>
      <trkpt lat="44.73421" lon="4.4746">
        <ele>836.2</ele>
        <time>2022-06-09T07:53:47Z</time>
      </trkpt>
      <trkpt lat="44.73418" lon="4.47454">
        <ele>836.2</ele>
        <time>2022-06-09T07:53:48Z</time>
      </trkpt>
      <trkpt lat="44.73416" lon="4.47448">
        <ele>836.2</ele>
        <time>2022-06-09T07:53:49Z</time>
      </trkpt>
      <trkpt lat="44.73415" lon="4.47441">
        <ele>836.2</ele>
        <time>2022-06-09T07:53:50Z</time>
      </trkpt>
      <trkpt lat="44.73413" lon="4.47434">
        <ele>836.2</ele>
        <time>2022-06-09T07:53:51Z</time>
      </trkpt>
      <trkpt lat="44.73412" lon="4.47427">
        <ele>836.2</ele>
        <time>2022-06-09T07:53:52Z</time>
      </trkpt>
      <trkpt lat="44.73411" lon="4.4742">
        <ele>836.2</ele>
        <time>2022-06-09T07:53:53Z</time>
      </trkpt>
      <trkpt lat="44.73411" lon="4.47413">
        <ele>836.2</ele>
        <time>2022-06-09T07:53:54Z</time>
      </trkpt>
      <trkpt lat="44.73411" lon="4.47407">
        <ele>836.2</ele>
        <time>2022-06-09T07:53:55Z</time>
      </trkpt>
      <trkpt lat="44.73412" lon="4.47399">
        <ele>836.2</ele>
        <time>2022-06-09T07:53:56Z</time>
      </trkpt>
      <trkpt lat="44.73411" lon="4.47392">
        <ele>836.2</ele>
        <time>2022-06-09T07:53:57Z</time>
      </trkpt>
      <trkpt lat="44.73411" lon="4.47385">
        <ele>836.2</ele>
        <time>2022-06-09T07:53:58Z</time>
      </trkpt>
      <trkpt lat="44.7341" lon="4.47379">
        <ele>836.2</ele>
        <time>2022-06-09T07:53:59Z</time>
      </trkpt>
      <trkpt lat="44.73408" lon="4.47373">
        <ele>836.1</ele>
        <time>2022-06-09T07:54:00Z</time>
      </trkpt>
      <trkpt lat="44.73407" lon="4.47367">
        <ele>836.1</ele>
        <time>2022-06-09T07:54:01Z</time>
      </trkpt>
      <trkpt lat="44.73405" lon="4.47361">
        <ele>836</ele>
        <time>2022-06-09T07:54:02Z</time>
      </trkpt>
      <trkpt lat="44.73403" lon="4.47355">
        <ele>836</ele>
        <time>2022-06-09T07:54:03Z</time>
      </trkpt>
      <trkpt lat="44.73401" lon="4.47348">
        <ele>835.8</ele>
        <time>2022-06-09T07:54:04Z</time>
      </trkpt>
      <trkpt lat="44.734" lon="4.47342">
        <ele>835.7</ele>
        <time>2022-06-09T07:54:05Z</time>
      </trkpt>
      <trkpt lat="44.734" lon="4.47334">
        <ele>835.5</ele>
        <time>2022-06-09T07:54:06Z</time>
      </trkpt>
      <trkpt lat="44.734" lon="4.47327">
        <ele>835.3</ele>
        <time>2022-06-09T07:54:07Z</time>
      </trkpt>
      <trkpt lat="44.73401" lon="4.47319">
        <ele>835.1</ele>
        <time>2022-06-09T07:54:08Z</time>
      </trkpt>
      <trkpt lat="44.73404" lon="4.47312">
        <ele>834.9</ele>
        <time>2022-06-09T07:54:09Z</time>
      </trkpt>
      <trkpt lat="44.73407" lon="4.47305">
        <ele>834.6</ele>
        <time>2022-06-09T07:54:10Z</time>
      </trkpt>
      <trkpt lat="44.73412" lon="4.47299">
        <ele>834.3</ele>
        <time>2022-06-09T07:54:11Z</time>
      </trkpt>
      <trkpt lat="44.73417" lon="4.47294">
        <ele>834.1</ele>
        <time>2022-06-09T07:54:12Z</time>
      </trkpt>
      <trkpt lat="44.73422" lon="4.47288">
        <ele>833.7</ele>
        <time>2022-06-09T07:54:13Z</time>
      </trkpt>
      <trkpt lat="44.73426" lon="4.47282">
        <ele>833.4</ele>
        <time>2022-06-09T07:54:14Z</time>
      </trkpt>
      <trkpt lat="44.73429" lon="4.47273">
        <ele>833.1</ele>
        <time>2022-06-09T07:54:15Z</time>
      </trkpt>
      <trkpt lat="44.73431" lon="4.47264">
        <ele>832.7</ele>
        <time>2022-06-09T07:54:16Z</time>
      </trkpt>
      <trkpt lat="44.73431" lon="4.47255">
        <ele>832.4</ele>
        <time>2022-06-09T07:54:17Z</time>
      </trkpt>
      <trkpt lat="44.73431" lon="4.47245">
        <ele>832.1</ele>
        <time>2022-06-09T07:54:18Z</time>
      </trkpt>
      <trkpt lat="44.7343" lon="4.47235">
        <ele>831.7</ele>
        <time>2022-06-09T07:54:19Z</time>
      </trkpt>
      <trkpt lat="44.73428" lon="4.47226">
        <ele>831.4</ele>
        <time>2022-06-09T07:54:20Z</time>
      </trkpt>
      <trkpt lat="44.73424" lon="4.47218">
        <ele>831.2</ele>
        <time>2022-06-09T07:54:21Z</time>
      </trkpt>
      <trkpt lat="44.73419" lon="4.4721">
        <ele>830.9</ele>
        <time>2022-06-09T07:54:22Z</time>
      </trkpt>
      <trkpt lat="44.73414" lon="4.47203">
        <ele>830.7</ele>
        <time>2022-06-09T07:54:23Z</time>
      </trkpt>
      <trkpt lat="44.73409" lon="4.47196">
        <ele>830.5</ele>
        <time>2022-06-09T07:54:24Z</time>
      </trkpt>
      <trkpt lat="44.73404" lon="4.47189">
        <ele>830.3</ele>
        <time>2022-06-09T07:54:25Z</time>
      </trkpt>
      <trkpt lat="44.73398" lon="4.47181">
        <ele>830.2</ele>
        <time>2022-06-09T07:54:26Z</time>
      </trkpt>
      <trkpt lat="44.73393" lon="4.47174">
        <ele>830.1</ele>
        <time>2022-06-09T07:54:27Z</time>
      </trkpt>
      <trkpt lat="44.73388" lon="4.47166">
        <ele>829.9</ele>
        <time>2022-06-09T07:54:28Z</time>
      </trkpt>
      <trkpt lat="44.73383" lon="4.47159">
        <ele>829.8</ele>
        <time>2022-06-09T07:54:29Z</time>
      </trkpt>
      <trkpt lat="44.73378" lon="4.47151">
        <ele>829.6</ele>
        <time>2022-06-09T07:54:30Z</time>
      </trkpt>
      <trkpt lat="44.73373" lon="4.47143">
        <ele>829.5</ele>
        <time>2022-06-09T07:54:31Z</time>
      </trkpt>
      <trkpt lat="44.73371" lon="4.47134">
        <ele>829.3</ele>
        <time>2022-06-09T07:54:32Z</time>
      </trkpt>
      <trkpt lat="44.7337" lon="4.47123">
        <ele>829.1</ele>
        <time>2022-06-09T07:54:33Z</time>
      </trkpt>
      <trkpt lat="44.73372" lon="4.47112">
        <ele>828.8</ele>
        <time>2022-06-09T07:54:34Z</time>
      </trkpt>
      <trkpt lat="44.73376" lon="4.47103">
        <ele>828.5</ele>
        <time>2022-06-09T07:54:35Z</time>
      </trkpt>
      <trkpt lat="44.73381" lon="4.47096">
        <ele>828.2</ele>
        <time>2022-06-09T07:54:36Z</time>
      </trkpt>
      <trkpt lat="44.73388" lon="4.47091">
        <ele>827.9</ele>
        <time>2022-06-09T07:54:37Z</time>
      </trkpt>
      <trkpt lat="44.73395" lon="4.47088">
        <ele>827.6</ele>
        <time>2022-06-09T07:54:38Z</time>
      </trkpt>
      <trkpt lat="44.73403" lon="4.47086">
        <ele>827.4</ele>
        <time>2022-06-09T07:54:39Z</time>
      </trkpt>
      <trkpt lat="44.7341" lon="4.47084">
        <ele>827.1</ele>
        <time>2022-06-09T07:54:40Z</time>
      </trkpt>
      <trkpt lat="44.73418" lon="4.47082">
        <ele>826.9</ele>
        <time>2022-06-09T07:54:41Z</time>
      </trkpt>
      <trkpt lat="44.73425" lon="4.4708">
        <ele>826.7</ele>
        <time>2022-06-09T07:54:42Z</time>
      </trkpt>
      <trkpt lat="44.73432" lon="4.47077">
        <ele>826.5</ele>
        <time>2022-06-09T07:54:43Z</time>
      </trkpt>
      <trkpt lat="44.73439" lon="4.47074">
        <ele>826.4</ele>
        <time>2022-06-09T07:54:44Z</time>
      </trkpt>
      <trkpt lat="44.73446" lon="4.47071">
        <ele>826.3</ele>
        <time>2022-06-09T07:54:45Z</time>
      </trkpt>
      <trkpt lat="44.73452" lon="4.47068">
        <ele>826.2</ele>
        <time>2022-06-09T07:54:46Z</time>
      </trkpt>
      <trkpt lat="44.73459" lon="4.47064">
        <ele>826</ele>
        <time>2022-06-09T07:54:47Z</time>
      </trkpt>
      <trkpt lat="44.73464" lon="4.47059">
        <ele>825.9</ele>
        <time>2022-06-09T07:54:48Z</time>
      </trkpt>
      <trkpt lat="44.7347" lon="4.47053">
        <ele>825.8</ele>
        <time>2022-06-09T07:54:49Z</time>
      </trkpt>
      <trkpt lat="44.73474" lon="4.47045">
        <ele>825.7</ele>
        <time>2022-06-09T07:54:50Z</time>
      </trkpt>
      <trkpt lat="44.73478" lon="4.47037">
        <ele>825.6</ele>
        <time>2022-06-09T07:54:51Z</time>
      </trkpt>
      <trkpt lat="44.73482" lon="4.47029">
        <ele>825.5</ele>
        <time>2022-06-09T07:54:52Z</time>
      </trkpt>
      <trkpt lat="44.73486" lon="4.47021">
        <ele>825.4</ele>
        <time>2022-06-09T07:54:53Z</time>
      </trkpt>
      <trkpt lat="44.7349" lon="4.47013">
        <ele>825.4</ele>
        <time>2022-06-09T07:54:54Z</time>
      </trkpt>
      <trkpt lat="44.73494" lon="4.47006">
        <ele>825.3</ele>
        <time>2022-06-09T07:54:55Z</time>
      </trkpt>
      <trkpt lat="44.73499" lon="4.46998">
        <ele>825.3</ele>
        <time>2022-06-09T07:54:56Z</time>
      </trkpt>
      <trkpt lat="44.73504" lon="4.46992">
        <ele>825.3</ele>
        <time>2022-06-09T07:54:57Z</time>
      </trkpt>
      <trkpt lat="44.73509" lon="4.46985">
        <ele>825.3</ele>
        <time>2022-06-09T07:54:58Z</time>
      </trkpt>
      <trkpt lat="44.73513" lon="4.46979">
        <ele>825.3</ele>
        <time>2022-06-09T07:54:59Z</time>
      </trkpt>
      <trkpt lat="44.73518" lon="4.46973">
        <ele>825.3</ele>
        <time>2022-06-09T07:55:00Z</time>
      </trkpt>
      <trkpt lat="44.73523" lon="4.46967">
        <ele>825.4</ele>
        <time>2022-06-09T07:55:01Z</time>
      </trkpt>
      <trkpt lat="44.73528" lon="4.46961">
        <ele>825.5</ele>
        <time>2022-06-09T07:55:02Z</time>
      </trkpt>
      <trkpt lat="44.73532" lon="4.46955">
        <ele>825.5</ele>
        <time>2022-06-09T07:55:03Z</time>
      </trkpt>
      <trkpt lat="44.73535" lon="4.46949">
        <ele>825.6</ele>
        <time>2022-06-09T07:55:04Z</time>
      </trkpt>
      <trkpt lat="44.73539" lon="4.46943">
        <ele>825.7</ele>
        <time>2022-06-09T07:55:05Z</time>
      </trkpt>
      <trkpt lat="44.73542" lon="4.46937">
        <ele>825.7</ele>
        <time>2022-06-09T07:55:06Z</time>
      </trkpt>
      <trkpt lat="44.73545" lon="4.46931">
        <ele>825.8</ele>
        <time>2022-06-09T07:55:07Z</time>
      </trkpt>
      <trkpt lat="44.73547" lon="4.46925">
        <ele>825.9</ele>
        <time>2022-06-09T07:55:08Z</time>
      </trkpt>
      <trkpt lat="44.7355" lon="4.46919">
        <ele>826</ele>
        <time>2022-06-09T07:55:09Z</time>
      </trkpt>
      <trkpt lat="44.73552" lon="4.46914">
        <ele>826</ele>
        <time>2022-06-09T07:55:10Z</time>
      </trkpt>
      <trkpt lat="44.73554" lon="4.46907">
        <ele>826.1</ele>
        <time>2022-06-09T07:55:11Z</time>
      </trkpt>
      <trkpt lat="44.73556" lon="4.46901">
        <ele>826.2</ele>
        <time>2022-06-09T07:55:12Z</time>
      </trkpt>
      <trkpt lat="44.73558" lon="4.46895">
        <ele>826.3</ele>
        <time>2022-06-09T07:55:13Z</time>
      </trkpt>
      <trkpt lat="44.73559" lon="4.46889">
        <ele>826.3</ele>
        <time>2022-06-09T07:55:14Z</time>
      </trkpt>
      <trkpt lat="44.7356" lon="4.46885">
        <ele>826.3</ele>
        <time>2022-06-09T07:55:15Z</time>
      </trkpt>
      <trkpt lat="44.73561" lon="4.4688">
        <ele>826.3</ele>
        <time>2022-06-09T07:55:16Z</time>
      </trkpt>
      <trkpt lat="44.73563" lon="4.46872">
        <ele>826.4</ele>
        <time>2022-06-09T07:55:17Z</time>
      </trkpt>
      <trkpt lat="44.73564" lon="4.46867">
        <ele>826.4</ele>
        <time>2022-06-09T07:55:18Z</time>
      </trkpt>
      <trkpt lat="44.73565" lon="4.46861">
        <ele>826.4</ele>
        <time>2022-06-09T07:55:19Z</time>
      </trkpt>
      <trkpt lat="44.73566" lon="4.46855">
        <ele>826.5</ele>
        <time>2022-06-09T07:55:20Z</time>
      </trkpt>
      <trkpt lat="44.73566" lon="4.46848">
        <ele>826.5</ele>
        <time>2022-06-09T07:55:21Z</time>
      </trkpt>
      <trkpt lat="44.73568" lon="4.4684">
        <ele>826.6</ele>
        <time>2022-06-09T07:55:23Z</time>
      </trkpt>
      <trkpt lat="44.73569" lon="4.46833">
        <ele>826.6</ele>
        <time>2022-06-09T07:55:24Z</time>
      </trkpt>
      <trkpt lat="44.73569" lon="4.46827">
        <ele>826.7</ele>
        <time>2022-06-09T07:55:25Z</time>
      </trkpt>
      <trkpt lat="44.7357" lon="4.46821">
        <ele>826.8</ele>
        <time>2022-06-09T07:55:26Z</time>
      </trkpt>
      <trkpt lat="44.7357" lon="4.46816">
        <ele>826.8</ele>
        <time>2022-06-09T07:55:27Z</time>
      </trkpt>
      <trkpt lat="44.73571" lon="4.46809">
        <ele>826.9</ele>
        <time>2022-06-09T07:55:28Z</time>
      </trkpt>
      <trkpt lat="44.73571" lon="4.468">
        <ele>826.9</ele>
        <time>2022-06-09T07:55:30Z</time>
      </trkpt>
      <trkpt lat="44.7357" lon="4.46793">
        <ele>827</ele>
        <time>2022-06-09T07:55:31Z</time>
      </trkpt>
      <trkpt lat="44.7357" lon="4.46787">
        <ele>827</ele>
        <time>2022-06-09T07:55:32Z</time>
      </trkpt>
      <trkpt lat="44.73569" lon="4.46781">
        <ele>827.1</ele>
        <time>2022-06-09T07:55:33Z</time>
      </trkpt>
      <trkpt lat="44.73569" lon="4.46776">
        <ele>827.1</ele>
        <time>2022-06-09T07:55:34Z</time>
      </trkpt>
      <trkpt lat="44.73568" lon="4.46767">
        <ele>827.1</ele>
        <time>2022-06-09T07:55:36Z</time>
      </trkpt>
      <trkpt lat="44.73567" lon="4.46762">
        <ele>827.1</ele>
        <time>2022-06-09T07:55:37Z</time>
      </trkpt>
      <trkpt lat="44.73567" lon="4.46756">
        <ele>827.1</ele>
        <time>2022-06-09T07:55:38Z</time>
      </trkpt>
      <trkpt lat="44.73565" lon="4.46747">
        <ele>827.2</ele>
        <time>2022-06-09T07:55:39Z</time>
      </trkpt>
      <trkpt lat="44.73564" lon="4.4674">
        <ele>827.2</ele>
        <time>2022-06-09T07:55:40Z</time>
      </trkpt>
      <trkpt lat="44.7356" lon="4.4673">
        <ele>827.3</ele>
        <time>2022-06-09T07:55:42Z</time>
      </trkpt>
      <trkpt lat="44.73558" lon="4.46724">
        <ele>827.3</ele>
        <time>2022-06-09T07:55:43Z</time>
      </trkpt>
      <trkpt lat="44.73556" lon="4.46718">
        <ele>827.3</ele>
        <time>2022-06-09T07:55:44Z</time>
      </trkpt>
      <trkpt lat="44.73555" lon="4.46712">
        <ele>827.4</ele>
        <time>2022-06-09T07:55:45Z</time>
      </trkpt>
      <trkpt lat="44.73553" lon="4.46706">
        <ele>827.5</ele>
        <time>2022-06-09T07:55:46Z</time>
      </trkpt>
      <trkpt lat="44.73551" lon="4.46698">
        <ele>827.6</ele>
        <time>2022-06-09T07:55:47Z</time>
      </trkpt>
      <trkpt lat="44.7355" lon="4.46692">
        <ele>827.6</ele>
        <time>2022-06-09T07:55:48Z</time>
      </trkpt>
      <trkpt lat="44.73549" lon="4.46685">
        <ele>827.7</ele>
        <time>2022-06-09T07:55:49Z</time>
      </trkpt>
      <trkpt lat="44.73547" lon="4.4668">
        <ele>827.8</ele>
        <time>2022-06-09T07:55:51Z</time>
      </trkpt>
      <trkpt lat="44.73546" lon="4.46674">
        <ele>827.9</ele>
        <time>2022-06-09T07:55:52Z</time>
      </trkpt>
      <trkpt lat="44.73545" lon="4.46667">
        <ele>828</ele>
        <time>2022-06-09T07:55:53Z</time>
      </trkpt>
      <trkpt lat="44.73543" lon="4.4666">
        <ele>828.1</ele>
        <time>2022-06-09T07:55:54Z</time>
      </trkpt>
      <trkpt lat="44.73543" lon="4.46654">
        <ele>828.2</ele>
        <time>2022-06-09T07:55:55Z</time>
      </trkpt>
      <trkpt lat="44.73542" lon="4.46647">
        <ele>828.2</ele>
        <time>2022-06-09T07:55:56Z</time>
      </trkpt>
      <trkpt lat="44.73543" lon="4.4664">
        <ele>828.3</ele>
        <time>2022-06-09T07:55:58Z</time>
      </trkpt>
      <trkpt lat="44.73545" lon="4.46634">
        <ele>828.3</ele>
        <time>2022-06-09T07:55:59Z</time>
      </trkpt>
      <trkpt lat="44.73548" lon="4.46626">
        <ele>828.3</ele>
        <time>2022-06-09T07:56:00Z</time>
      </trkpt>
      <trkpt lat="44.73552" lon="4.4662">
        <ele>828.3</ele>
        <time>2022-06-09T07:56:02Z</time>
      </trkpt>
      <trkpt lat="44.73561" lon="4.46614">
        <ele>828.2</ele>
        <time>2022-06-09T07:56:04Z</time>
      </trkpt>
      <trkpt lat="44.73566" lon="4.46612">
        <ele>828.1</ele>
        <time>2022-06-09T07:56:05Z</time>
      </trkpt>
      <trkpt lat="44.73571" lon="4.4661">
        <ele>828</ele>
        <time>2022-06-09T07:56:06Z</time>
      </trkpt>
      <trkpt lat="44.73575" lon="4.46608">
        <ele>828</ele>
        <time>2022-06-09T07:56:07Z</time>
      </trkpt>
      <trkpt lat="44.7358" lon="4.46606">
        <ele>827.9</ele>
        <time>2022-06-09T07:56:08Z</time>
      </trkpt>
      <trkpt lat="44.73585" lon="4.46604">
        <ele>827.9</ele>
        <time>2022-06-09T07:56:09Z</time>
      </trkpt>
      <trkpt lat="44.73589" lon="4.46601">
        <ele>827.8</ele>
        <time>2022-06-09T07:56:10Z</time>
      </trkpt>
      <trkpt lat="44.73594" lon="4.46597">
        <ele>827.8</ele>
        <time>2022-06-09T07:56:11Z</time>
      </trkpt>
      <trkpt lat="44.73598" lon="4.46593">
        <ele>827.8</ele>
        <time>2022-06-09T07:56:12Z</time>
      </trkpt>
      <trkpt lat="44.73602" lon="4.46589">
        <ele>827.8</ele>
        <time>2022-06-09T07:56:13Z</time>
      </trkpt>
      <trkpt lat="44.73606" lon="4.46584">
        <ele>827.8</ele>
        <time>2022-06-09T07:56:14Z</time>
      </trkpt>
      <trkpt lat="44.7361" lon="4.4658">
        <ele>827.8</ele>
        <time>2022-06-09T07:56:15Z</time>
      </trkpt>
      <trkpt lat="44.73613" lon="4.46575">
        <ele>827.8</ele>
        <time>2022-06-09T07:56:16Z</time>
      </trkpt>
      <trkpt lat="44.73617" lon="4.4657">
        <ele>827.8</ele>
        <time>2022-06-09T07:56:17Z</time>
      </trkpt>
      <trkpt lat="44.73621" lon="4.46565">
        <ele>827.8</ele>
        <time>2022-06-09T07:56:18Z</time>
      </trkpt>
      <trkpt lat="44.73624" lon="4.4656">
        <ele>827.8</ele>
        <time>2022-06-09T07:56:19Z</time>
      </trkpt>
      <trkpt lat="44.73627" lon="4.46556">
        <ele>827.8</ele>
        <time>2022-06-09T07:56:20Z</time>
      </trkpt>
      <trkpt lat="44.73632" lon="4.46552">
        <ele>827.8</ele>
        <time>2022-06-09T07:56:21Z</time>
      </trkpt>
      <trkpt lat="44.73636" lon="4.46549">
        <ele>827.8</ele>
        <time>2022-06-09T07:56:22Z</time>
      </trkpt>
      <trkpt lat="44.73641" lon="4.46546">
        <ele>827.7</ele>
        <time>2022-06-09T07:56:23Z</time>
      </trkpt>
      <trkpt lat="44.73646" lon="4.46544">
        <ele>827.7</ele>
        <time>2022-06-09T07:56:24Z</time>
      </trkpt>
      <trkpt lat="44.73651" lon="4.46543">
        <ele>827.7</ele>
        <time>2022-06-09T07:56:25Z</time>
      </trkpt>
      <trkpt lat="44.73657" lon="4.46542">
        <ele>827.6</ele>
        <time>2022-06-09T07:56:26Z</time>
      </trkpt>
      <trkpt lat="44.73662" lon="4.46543">
        <ele>827.6</ele>
        <time>2022-06-09T07:56:27Z</time>
      </trkpt>
      <trkpt lat="44.73666" lon="4.46543">
        <ele>827.6</ele>
        <time>2022-06-09T07:56:28Z</time>
      </trkpt>
      <trkpt lat="44.73671" lon="4.46543">
        <ele>827.6</ele>
        <time>2022-06-09T07:56:29Z</time>
      </trkpt>
      <trkpt lat="44.73676" lon="4.46544">
        <ele>827.5</ele>
        <time>2022-06-09T07:56:30Z</time>
      </trkpt>
      <trkpt lat="44.7368" lon="4.46544">
        <ele>827.5</ele>
        <time>2022-06-09T07:56:31Z</time>
      </trkpt>
      <trkpt lat="44.73685" lon="4.46544">
        <ele>827.5</ele>
        <time>2022-06-09T07:56:32Z</time>
      </trkpt>
      <trkpt lat="44.7369" lon="4.46542">
        <ele>827.5</ele>
        <time>2022-06-09T07:56:33Z</time>
      </trkpt>
      <trkpt lat="44.73694" lon="4.4654">
        <ele>827.5</ele>
        <time>2022-06-09T07:56:34Z</time>
      </trkpt>
      <trkpt lat="44.73698" lon="4.46537">
        <ele>827.5</ele>
        <time>2022-06-09T07:56:35Z</time>
      </trkpt>
      <trkpt lat="44.73702" lon="4.46533">
        <ele>827.5</ele>
        <time>2022-06-09T07:56:36Z</time>
      </trkpt>
      <trkpt lat="44.73704" lon="4.4653">
        <ele>827.5</ele>
        <time>2022-06-09T07:56:37Z</time>
      </trkpt>
      <trkpt lat="44.73707" lon="4.46527">
        <ele>827.4</ele>
        <time>2022-06-09T07:56:38Z</time>
      </trkpt>
      <trkpt lat="44.7371" lon="4.46522">
        <ele>827.4</ele>
        <time>2022-06-09T07:56:39Z</time>
      </trkpt>
      <trkpt lat="44.73713" lon="4.46518">
        <ele>827.4</ele>
        <time>2022-06-09T07:56:40Z</time>
      </trkpt>
      <trkpt lat="44.73716" lon="4.46514">
        <ele>827.4</ele>
        <time>2022-06-09T07:56:41Z</time>
      </trkpt>
      <trkpt lat="44.7372" lon="4.4651">
        <ele>827.4</ele>
        <time>2022-06-09T07:56:42Z</time>
      </trkpt>
      <trkpt lat="44.73725" lon="4.46507">
        <ele>827.4</ele>
        <time>2022-06-09T07:56:43Z</time>
      </trkpt>
      <trkpt lat="44.7373" lon="4.46503">
        <ele>827.3</ele>
        <time>2022-06-09T07:56:44Z</time>
      </trkpt>
      <trkpt lat="44.73735" lon="4.46501">
        <ele>827.3</ele>
        <time>2022-06-09T07:56:45Z</time>
      </trkpt>
      <trkpt lat="44.7374" lon="4.465">
        <ele>827.2</ele>
        <time>2022-06-09T07:56:46Z</time>
      </trkpt>
      <trkpt lat="44.73744" lon="4.46499">
        <ele>827.2</ele>
        <time>2022-06-09T07:56:47Z</time>
      </trkpt>
      <trkpt lat="44.73749" lon="4.46499">
        <ele>827.1</ele>
        <time>2022-06-09T07:56:48Z</time>
      </trkpt>
      <trkpt lat="44.73754" lon="4.46499">
        <ele>827.1</ele>
        <time>2022-06-09T07:56:49Z</time>
      </trkpt>
      <trkpt lat="44.73758" lon="4.465">
        <ele>827</ele>
        <time>2022-06-09T07:56:50Z</time>
      </trkpt>
      <trkpt lat="44.73763" lon="4.465">
        <ele>827</ele>
        <time>2022-06-09T07:56:51Z</time>
      </trkpt>
      <trkpt lat="44.73768" lon="4.46501">
        <ele>827</ele>
        <time>2022-06-09T07:56:52Z</time>
      </trkpt>
      <trkpt lat="44.73773" lon="4.46502">
        <ele>826.9</ele>
        <time>2022-06-09T07:56:53Z</time>
      </trkpt>
      <trkpt lat="44.73777" lon="4.46503">
        <ele>826.9</ele>
        <time>2022-06-09T07:56:54Z</time>
      </trkpt>
      <trkpt lat="44.73781" lon="4.46504">
        <ele>826.9</ele>
        <time>2022-06-09T07:56:55Z</time>
      </trkpt>
      <trkpt lat="44.73785" lon="4.46504">
        <ele>826.9</ele>
        <time>2022-06-09T07:56:56Z</time>
      </trkpt>
      <trkpt lat="44.73791" lon="4.46502">
        <ele>826.9</ele>
        <time>2022-06-09T07:56:57Z</time>
      </trkpt>
      <trkpt lat="44.73796" lon="4.465">
        <ele>827</ele>
        <time>2022-06-09T07:56:59Z</time>
      </trkpt>
      <trkpt lat="44.738" lon="4.46497">
        <ele>827</ele>
        <time>2022-06-09T07:57:00Z</time>
      </trkpt>
      <trkpt lat="44.73803" lon="4.46495">
        <ele>827</ele>
        <time>2022-06-09T07:57:01Z</time>
      </trkpt>
      <trkpt lat="44.73808" lon="4.46491">
        <ele>827.1</ele>
        <time>2022-06-09T07:57:02Z</time>
      </trkpt>
      <trkpt lat="44.73811" lon="4.46488">
        <ele>827.1</ele>
        <time>2022-06-09T07:57:04Z</time>
      </trkpt>
      <trkpt lat="44.73815" lon="4.46481">
        <ele>827.2</ele>
        <time>2022-06-09T07:57:05Z</time>
      </trkpt>
      <trkpt lat="44.73817" lon="4.46474">
        <ele>827.2</ele>
        <time>2022-06-09T07:57:07Z</time>
      </trkpt>
      <trkpt lat="44.73818" lon="4.46469">
        <ele>827.2</ele>
        <time>2022-06-09T07:57:08Z</time>
      </trkpt>
      <trkpt lat="44.73819" lon="4.46462">
        <ele>827.2</ele>
        <time>2022-06-09T07:57:09Z</time>
      </trkpt>
      <trkpt lat="44.7382" lon="4.46453">
        <ele>827.2</ele>
        <time>2022-06-09T07:57:11Z</time>
      </trkpt>
      <trkpt lat="44.73821" lon="4.46448">
        <ele>827.2</ele>
        <time>2022-06-09T07:57:13Z</time>
      </trkpt>
      <trkpt lat="44.73821" lon="4.46443">
        <ele>827.2</ele>
        <time>2022-06-09T07:57:14Z</time>
      </trkpt>
      <trkpt lat="44.7382" lon="4.46435">
        <ele>827.1</ele>
        <time>2022-06-09T07:57:15Z</time>
      </trkpt>
      <trkpt lat="44.7382" lon="4.46429">
        <ele>827.1</ele>
        <time>2022-06-09T07:57:16Z</time>
      </trkpt>
      <trkpt lat="44.73819" lon="4.46423">
        <ele>827</ele>
        <time>2022-06-09T07:57:17Z</time>
      </trkpt>
      <trkpt lat="44.73815" lon="4.46411">
        <ele>826.9</ele>
        <time>2022-06-09T07:57:19Z</time>
      </trkpt>
      <trkpt lat="44.73814" lon="4.46404">
        <ele>826.8</ele>
        <time>2022-06-09T07:57:20Z</time>
      </trkpt>
      <trkpt lat="44.73812" lon="4.46397">
        <ele>826.7</ele>
        <time>2022-06-09T07:57:21Z</time>
      </trkpt>
      <trkpt lat="44.73811" lon="4.4639">
        <ele>826.6</ele>
        <time>2022-06-09T07:57:22Z</time>
      </trkpt>
      <trkpt lat="44.7381" lon="4.46383">
        <ele>826.4</ele>
        <time>2022-06-09T07:57:23Z</time>
      </trkpt>
      <trkpt lat="44.73808" lon="4.46376">
        <ele>826.3</ele>
        <time>2022-06-09T07:57:24Z</time>
      </trkpt>
      <trkpt lat="44.73807" lon="4.46368">
        <ele>826.1</ele>
        <time>2022-06-09T07:57:25Z</time>
      </trkpt>
      <trkpt lat="44.73805" lon="4.4636">
        <ele>826</ele>
        <time>2022-06-09T07:57:26Z</time>
      </trkpt>
      <trkpt lat="44.73804" lon="4.46351">
        <ele>825.8</ele>
        <time>2022-06-09T07:57:27Z</time>
      </trkpt>
      <trkpt lat="44.73803" lon="4.46343">
        <ele>825.7</ele>
        <time>2022-06-09T07:57:28Z</time>
      </trkpt>
      <trkpt lat="44.73801" lon="4.46334">
        <ele>825.5</ele>
        <time>2022-06-09T07:57:29Z</time>
      </trkpt>
      <trkpt lat="44.738" lon="4.46325">
        <ele>825.4</ele>
        <time>2022-06-09T07:57:30Z</time>
      </trkpt>
      <trkpt lat="44.73798" lon="4.46317">
        <ele>825.2</ele>
        <time>2022-06-09T07:57:31Z</time>
      </trkpt>
      <trkpt lat="44.73798" lon="4.46308">
        <ele>825.1</ele>
        <time>2022-06-09T07:57:32Z</time>
      </trkpt>
      <trkpt lat="44.73797" lon="4.46299">
        <ele>824.9</ele>
        <time>2022-06-09T07:57:33Z</time>
      </trkpt>
      <trkpt lat="44.73798" lon="4.4629">
        <ele>824.7</ele>
        <time>2022-06-09T07:57:34Z</time>
      </trkpt>
      <trkpt lat="44.73799" lon="4.46282">
        <ele>824.5</ele>
        <time>2022-06-09T07:57:35Z</time>
      </trkpt>
      <trkpt lat="44.73801" lon="4.46273">
        <ele>824.2</ele>
        <time>2022-06-09T07:57:36Z</time>
      </trkpt>
      <trkpt lat="44.73804" lon="4.46265">
        <ele>824</ele>
        <time>2022-06-09T07:57:37Z</time>
      </trkpt>
      <trkpt lat="44.73807" lon="4.46257">
        <ele>823.9</ele>
        <time>2022-06-09T07:57:38Z</time>
      </trkpt>
      <trkpt lat="44.7381" lon="4.4625">
        <ele>823.7</ele>
        <time>2022-06-09T07:57:39Z</time>
      </trkpt>
      <trkpt lat="44.73813" lon="4.46243">
        <ele>823.6</ele>
        <time>2022-06-09T07:57:40Z</time>
      </trkpt>
      <trkpt lat="44.73817" lon="4.46236">
        <ele>823.4</ele>
        <time>2022-06-09T07:57:41Z</time>
      </trkpt>
      <trkpt lat="44.73822" lon="4.4623">
        <ele>823.3</ele>
        <time>2022-06-09T07:57:42Z</time>
      </trkpt>
      <trkpt lat="44.73825" lon="4.46224">
        <ele>823.2</ele>
        <time>2022-06-09T07:57:43Z</time>
      </trkpt>
      <trkpt lat="44.73829" lon="4.46218">
        <ele>823.1</ele>
        <time>2022-06-09T07:57:44Z</time>
      </trkpt>
      <trkpt lat="44.73833" lon="4.46213">
        <ele>823</ele>
        <time>2022-06-09T07:57:45Z</time>
      </trkpt>
      <trkpt lat="44.73837" lon="4.46207">
        <ele>823</ele>
        <time>2022-06-09T07:57:46Z</time>
      </trkpt>
      <trkpt lat="44.73841" lon="4.46201">
        <ele>822.9</ele>
        <time>2022-06-09T07:57:47Z</time>
      </trkpt>
      <trkpt lat="44.73844" lon="4.46195">
        <ele>822.9</ele>
        <time>2022-06-09T07:57:48Z</time>
      </trkpt>
      <trkpt lat="44.73847" lon="4.46189">
        <ele>822.9</ele>
        <time>2022-06-09T07:57:49Z</time>
      </trkpt>
      <trkpt lat="44.73849" lon="4.46183">
        <ele>822.9</ele>
        <time>2022-06-09T07:57:50Z</time>
      </trkpt>
      <trkpt lat="44.73852" lon="4.46176">
        <ele>822.9</ele>
        <time>2022-06-09T07:57:51Z</time>
      </trkpt>
      <trkpt lat="44.73854" lon="4.4617">
        <ele>822.9</ele>
        <time>2022-06-09T07:57:52Z</time>
      </trkpt>
      <trkpt lat="44.73856" lon="4.46164">
        <ele>822.8</ele>
        <time>2022-06-09T07:57:53Z</time>
      </trkpt>
      <trkpt lat="44.73857" lon="4.46157">
        <ele>822.8</ele>
        <time>2022-06-09T07:57:54Z</time>
      </trkpt>
      <trkpt lat="44.73859" lon="4.46151">
        <ele>822.8</ele>
        <time>2022-06-09T07:57:55Z</time>
      </trkpt>
      <trkpt lat="44.73862" lon="4.46144">
        <ele>822.7</ele>
        <time>2022-06-09T07:57:56Z</time>
      </trkpt>
      <trkpt lat="44.73864" lon="4.46138">
        <ele>822.7</ele>
        <time>2022-06-09T07:57:57Z</time>
      </trkpt>
      <trkpt lat="44.73866" lon="4.46131">
        <ele>822.6</ele>
        <time>2022-06-09T07:57:58Z</time>
      </trkpt>
      <trkpt lat="44.73867" lon="4.46124">
        <ele>822.6</ele>
        <time>2022-06-09T07:57:59Z</time>
      </trkpt>
      <trkpt lat="44.73869" lon="4.46117">
        <ele>822.6</ele>
        <time>2022-06-09T07:58:00Z</time>
      </trkpt>
      <trkpt lat="44.73871" lon="4.46111">
        <ele>822.6</ele>
        <time>2022-06-09T07:58:01Z</time>
      </trkpt>
      <trkpt lat="44.73874" lon="4.46105">
        <ele>822.7</ele>
        <time>2022-06-09T07:58:02Z</time>
      </trkpt>
      <trkpt lat="44.73877" lon="4.46099">
        <ele>822.7</ele>
        <time>2022-06-09T07:58:03Z</time>
      </trkpt>
      <trkpt lat="44.73879" lon="4.46095">
        <ele>822.8</ele>
        <time>2022-06-09T07:58:04Z</time>
      </trkpt>
      <trkpt lat="44.73881" lon="4.46091">
        <ele>822.8</ele>
        <time>2022-06-09T07:58:05Z</time>
      </trkpt>
      <trkpt lat="44.73882" lon="4.46089">
        <ele>822.8</ele>
        <time>2022-06-09T07:58:06Z</time>
      </trkpt>
      <trkpt lat="44.73879" lon="4.46085">
        <ele>822.9</ele>
        <time>2022-06-09T07:58:07Z</time>
      </trkpt>
      <trkpt lat="44.73878" lon="4.46084">
        <ele>822.9</ele>
        <time>2022-06-09T07:58:08Z</time>
      </trkpt>
      <trkpt lat="44.73875" lon="4.46084">
        <ele>823</ele>
        <time>2022-06-09T07:58:09Z</time>
      </trkpt>
      <trkpt lat="44.73873" lon="4.46084">
        <ele>823</ele>
        <time>2022-06-09T07:58:10Z</time>
      </trkpt>
      <trkpt lat="44.7387" lon="4.46084">
        <ele>823</ele>
        <time>2022-06-09T07:58:11Z</time>
      </trkpt>
      <trkpt lat="44.73869" lon="4.46084">
        <ele>823</ele>
        <time>2022-06-09T07:58:12Z</time>
      </trkpt>
      <trkpt lat="44.73868" lon="4.46084">
        <ele>823</ele>
        <time>2022-06-09T07:58:13Z</time>
      </trkpt>
      <trkpt lat="44.73865" lon="4.46082">
        <ele>823.1</ele>
        <time>2022-06-09T07:58:14Z</time>
      </trkpt>
      <trkpt lat="44.73862" lon="4.46081">
        <ele>823.1</ele>
        <time>2022-06-09T07:58:15Z</time>
      </trkpt>
      <trkpt lat="44.73859" lon="4.4608">
        <ele>823.2</ele>
        <time>2022-06-09T07:58:16Z</time>
      </trkpt>
      <trkpt lat="44.73856" lon="4.46078">
        <ele>823.2</ele>
        <time>2022-06-09T07:58:17Z</time>
      </trkpt>
      <trkpt lat="44.73855" lon="4.46078">
        <ele>823.2</ele>
        <time>2022-06-09T07:58:18Z</time>
      </trkpt>
      <trkpt lat="44.73852" lon="4.46077">
        <ele>823.3</ele>
        <time>2022-06-09T07:58:20Z</time>
      </trkpt>
      <trkpt lat="44.7385" lon="4.46076">
        <ele>823.3</ele>
        <time>2022-06-09T07:58:21Z</time>
      </trkpt>
      <trkpt lat="44.73847" lon="4.46076">
        <ele>823.4</ele>
        <time>2022-06-09T07:58:22Z</time>
      </trkpt>
      <trkpt lat="44.73844" lon="4.46075">
        <ele>823.4</ele>
        <time>2022-06-09T07:58:23Z</time>
      </trkpt>
      <trkpt lat="44.7384" lon="4.46074">
        <ele>823.5</ele>
        <time>2022-06-09T07:58:25Z</time>
      </trkpt>
      <trkpt lat="44.73839" lon="4.46073">
        <ele>823.5</ele>
        <time>2022-06-09T07:58:26Z</time>
      </trkpt>
      <trkpt lat="44.73838" lon="4.46074">
        <ele>823.5</ele>
        <time>2022-06-09T07:58:29Z</time>
      </trkpt>
      <trkpt lat="44.73838" lon="4.46074">
        <ele>823.5</ele>
        <time>2022-06-09T07:58:30Z</time>
      </trkpt>
      <trkpt lat="44.73839" lon="4.46075">
        <ele>823.5</ele>
        <time>2022-06-09T07:58:31Z</time>
      </trkpt>
      <trkpt lat="44.73839" lon="4.46075">
        <ele>823.5</ele>
        <time>2022-06-09T07:58:32Z</time>
      </trkpt>
      <trkpt lat="44.73839" lon="4.46075">
        <ele>823.5</ele>
        <time>2022-06-09T07:58:33Z</time>
      </trkpt>
      <trkpt lat="44.73839" lon="4.46075">
        <ele>823.5</ele>
        <time>2022-06-09T07:58:34Z</time>
      </trkpt>
      <trkpt lat="44.73839" lon="4.46075">
        <ele>823.5</ele>
        <time>2022-06-09T07:58:35Z</time>
      </trkpt>
      <trkpt lat="44.73839" lon="4.46076">
        <ele>823.5</ele>
        <time>2022-06-09T07:58:36Z</time>
      </trkpt>
      <trkpt lat="44.73837" lon="4.46071">
        <ele>823.6</ele>
        <time>2022-06-09T08:03:02Z</time>
      </trkpt>
      <trkpt lat="44.73837" lon="4.46071">
        <ele>823.6</ele>
        <time>2022-06-09T08:03:03Z</time>
      </trkpt>
      <trkpt lat="44.73837" lon="4.4607">
        <ele>823.6</ele>
        <time>2022-06-09T08:03:04Z</time>
      </trkpt>
      <trkpt lat="44.73837" lon="4.4607">
        <ele>823.6</ele>
        <time>2022-06-09T08:03:05Z</time>
      </trkpt>
      <trkpt lat="44.73836" lon="4.46069">
        <ele>823.6</ele>
        <time>2022-06-09T08:03:06Z</time>
      </trkpt>
      <trkpt lat="44.73836" lon="4.46069">
        <ele>823.6</ele>
        <time>2022-06-09T08:03:08Z</time>
      </trkpt>
      <trkpt lat="44.73836" lon="4.46068">
        <ele>823.6</ele>
        <time>2022-06-09T08:03:09Z</time>
      </trkpt>
      <trkpt lat="44.73837" lon="4.46068">
        <ele>823.6</ele>
        <time>2022-06-09T08:03:10Z</time>
      </trkpt>
      <trkpt lat="44.73837" lon="4.46068">
        <ele>823.6</ele>
        <time>2022-06-09T08:03:12Z</time>
      </trkpt>
      <trkpt lat="44.73837" lon="4.46067">
        <ele>823.6</ele>
        <time>2022-06-09T08:03:13Z</time>
      </trkpt>
      <trkpt lat="44.73838" lon="4.46067">
        <ele>823.6</ele>
        <time>2022-06-09T08:03:14Z</time>
      </trkpt>
      <trkpt lat="44.73838" lon="4.46067">
        <ele>823.6</ele>
        <time>2022-06-09T08:03:15Z</time>
      </trkpt>
      <trkpt lat="44.73838" lon="4.46067">
        <ele>823.6</ele>
        <time>2022-06-09T08:03:16Z</time>
      </trkpt>
      <trkpt lat="44.73838" lon="4.46067">
        <ele>823.6</ele>
        <time>2022-06-09T08:03:17Z</time>
      </trkpt>
      <trkpt lat="44.73838" lon="4.46067">
        <ele>823.6</ele>
        <time>2022-06-09T08:03:18Z</time>
      </trkpt>
      <trkpt lat="44.73838" lon="4.46067">
        <ele>823.6</ele>
        <time>2022-06-09T08:03:19Z</time>
      </trkpt>
      <trkpt lat="44.73838" lon="4.46067">
        <ele>823.6</ele>
        <time>2022-06-09T08:03:20Z</time>
      </trkpt>
      <trkpt lat="44.73836" lon="4.46072">
        <ele>823.7</ele>
        <time>2022-06-09T08:05:01Z</time>
      </trkpt>
      <trkpt lat="44.73836" lon="4.46074">
        <ele>823.7</ele>
        <time>2022-06-09T08:05:02Z</time>
      </trkpt>
      <trkpt lat="44.73837" lon="4.46075">
        <ele>823.7</ele>
        <time>2022-06-09T08:05:03Z</time>
      </trkpt>
      <trkpt lat="44.73838" lon="4.46075">
        <ele>823.7</ele>
        <time>2022-06-09T08:05:04Z</time>
      </trkpt>
      <trkpt lat="44.73839" lon="4.46076">
        <ele>823.8</ele>
        <time>2022-06-09T08:05:06Z</time>
      </trkpt>
      <trkpt lat="44.7384" lon="4.46076">
        <ele>823.8</ele>
        <time>2022-06-09T08:05:07Z</time>
      </trkpt>
      <trkpt lat="44.7384" lon="4.46076">
        <ele>823.8</ele>
        <time>2022-06-09T08:05:08Z</time>
      </trkpt>
      <trkpt lat="44.73841" lon="4.46077">
        <ele>823.8</ele>
        <time>2022-06-09T08:05:09Z</time>
      </trkpt>
      <trkpt lat="44.73842" lon="4.46077">
        <ele>823.8</ele>
        <time>2022-06-09T08:05:10Z</time>
      </trkpt>
      <trkpt lat="44.73843" lon="4.46078">
        <ele>823.8</ele>
        <time>2022-06-09T08:05:12Z</time>
      </trkpt>
      <trkpt lat="44.73844" lon="4.46078">
        <ele>823.8</ele>
        <time>2022-06-09T08:05:13Z</time>
      </trkpt>
      <trkpt lat="44.73845" lon="4.46078">
        <ele>823.9</ele>
        <time>2022-06-09T08:08:07Z</time>
      </trkpt>
      <trkpt lat="44.73846" lon="4.46079">
        <ele>823.9</ele>
        <time>2022-06-09T08:08:08Z</time>
      </trkpt>
      <trkpt lat="44.73847" lon="4.46079">
        <ele>823.9</ele>
        <time>2022-06-09T08:08:09Z</time>
      </trkpt>
      <trkpt lat="44.7385" lon="4.4608">
        <ele>823.7</ele>
        <time>2022-06-09T08:08:10Z</time>
      </trkpt>
      <trkpt lat="44.73853" lon="4.4608">
        <ele>823.6</ele>
        <time>2022-06-09T08:08:11Z</time>
      </trkpt>
      <trkpt lat="44.73858" lon="4.46082">
        <ele>823.4</ele>
        <time>2022-06-09T08:08:13Z</time>
      </trkpt>
      <trkpt lat="44.7386" lon="4.46083">
        <ele>823.4</ele>
        <time>2022-06-09T08:08:14Z</time>
      </trkpt>
      <trkpt lat="44.73861" lon="4.46083">
        <ele>823.3</ele>
        <time>2022-06-09T08:08:15Z</time>
      </trkpt>
      <trkpt lat="44.73865" lon="4.46085">
        <ele>823.2</ele>
        <time>2022-06-09T08:08:17Z</time>
      </trkpt>
      <trkpt lat="44.7387" lon="4.46088">
        <ele>823</ele>
        <time>2022-06-09T08:08:18Z</time>
      </trkpt>
      <trkpt lat="44.73875" lon="4.46091">
        <ele>822.8</ele>
        <time>2022-06-09T08:08:20Z</time>
      </trkpt>
      <trkpt lat="44.73878" lon="4.46092">
        <ele>822.9</ele>
        <time>2022-06-09T08:08:22Z</time>
      </trkpt>
      <trkpt lat="44.73881" lon="4.46091">
        <ele>822.9</ele>
        <time>2022-06-09T08:08:23Z</time>
      </trkpt>
      <trkpt lat="44.73884" lon="4.46089">
        <ele>822.9</ele>
        <time>2022-06-09T08:08:24Z</time>
      </trkpt>
      <trkpt lat="44.73886" lon="4.46086">
        <ele>822.9</ele>
        <time>2022-06-09T08:08:25Z</time>
      </trkpt>
      <trkpt lat="44.73888" lon="4.46083">
        <ele>823</ele>
        <time>2022-06-09T08:08:26Z</time>
      </trkpt>
      <trkpt lat="44.73892" lon="4.46076">
        <ele>823.1</ele>
        <time>2022-06-09T08:08:27Z</time>
      </trkpt>
      <trkpt lat="44.73895" lon="4.46072">
        <ele>823.1</ele>
        <time>2022-06-09T08:08:29Z</time>
      </trkpt>
      <trkpt lat="44.73897" lon="4.46068">
        <ele>823.1</ele>
        <time>2022-06-09T08:08:30Z</time>
      </trkpt>
      <trkpt lat="44.73899" lon="4.46063">
        <ele>823.2</ele>
        <time>2022-06-09T08:08:31Z</time>
      </trkpt>
      <trkpt lat="44.73902" lon="4.46058">
        <ele>823.2</ele>
        <time>2022-06-09T08:08:32Z</time>
      </trkpt>
      <trkpt lat="44.73905" lon="4.46053">
        <ele>823.2</ele>
        <time>2022-06-09T08:08:33Z</time>
      </trkpt>
      <trkpt lat="44.73907" lon="4.46049">
        <ele>823.3</ele>
        <time>2022-06-09T08:08:34Z</time>
      </trkpt>
      <trkpt lat="44.7391" lon="4.46045">
        <ele>823.3</ele>
        <time>2022-06-09T08:08:36Z</time>
      </trkpt>
      <trkpt lat="44.73912" lon="4.46041">
        <ele>823.3</ele>
        <time>2022-06-09T08:08:37Z</time>
      </trkpt>
      <trkpt lat="44.73916" lon="4.46033">
        <ele>823.4</ele>
        <time>2022-06-09T08:08:38Z</time>
      </trkpt>
      <trkpt lat="44.73918" lon="4.46028">
        <ele>823.4</ele>
        <time>2022-06-09T08:08:40Z</time>
      </trkpt>
      <trkpt lat="44.7392" lon="4.46024">
        <ele>823.4</ele>
        <time>2022-06-09T08:08:41Z</time>
      </trkpt>
      <trkpt lat="44.73921" lon="4.46019">
        <ele>823.5</ele>
        <time>2022-06-09T08:08:42Z</time>
      </trkpt>
      <trkpt lat="44.73923" lon="4.46014">
        <ele>823.5</ele>
        <time>2022-06-09T08:08:43Z</time>
      </trkpt>
      <trkpt lat="44.73924" lon="4.46009">
        <ele>823.5</ele>
        <time>2022-06-09T08:08:44Z</time>
      </trkpt>
      <trkpt lat="44.73927" lon="4.46">
        <ele>823.6</ele>
        <time>2022-06-09T08:08:45Z</time>
      </trkpt>
      <trkpt lat="44.73927" lon="4.45994">
        <ele>823.6</ele>
        <time>2022-06-09T08:08:46Z</time>
      </trkpt>
      <trkpt lat="44.73928" lon="4.45989">
        <ele>823.7</ele>
        <time>2022-06-09T08:08:48Z</time>
      </trkpt>
      <trkpt lat="44.73929" lon="4.45984">
        <ele>823.7</ele>
        <time>2022-06-09T08:08:49Z</time>
      </trkpt>
      <trkpt lat="44.7393" lon="4.45979">
        <ele>823.7</ele>
        <time>2022-06-09T08:08:50Z</time>
      </trkpt>
      <trkpt lat="44.73931" lon="4.45974">
        <ele>823.8</ele>
        <time>2022-06-09T08:08:51Z</time>
      </trkpt>
      <trkpt lat="44.73932" lon="4.45968">
        <ele>823.8</ele>
        <time>2022-06-09T08:08:52Z</time>
      </trkpt>
      <trkpt lat="44.73932" lon="4.45964">
        <ele>823.9</ele>
        <time>2022-06-09T08:08:53Z</time>
      </trkpt>
      <trkpt lat="44.73933" lon="4.45959">
        <ele>823.9</ele>
        <time>2022-06-09T08:08:54Z</time>
      </trkpt>
      <trkpt lat="44.73934" lon="4.45954">
        <ele>824</ele>
        <time>2022-06-09T08:08:55Z</time>
      </trkpt>
      <trkpt lat="44.73935" lon="4.45949">
        <ele>824.1</ele>
        <time>2022-06-09T08:08:56Z</time>
      </trkpt>
      <trkpt lat="44.73936" lon="4.45945">
        <ele>824.1</ele>
        <time>2022-06-09T08:08:57Z</time>
      </trkpt>
      <trkpt lat="44.73937" lon="4.45941">
        <ele>824.2</ele>
        <time>2022-06-09T08:08:58Z</time>
      </trkpt>
      <trkpt lat="44.73938" lon="4.45937">
        <ele>824.3</ele>
        <time>2022-06-09T08:08:59Z</time>
      </trkpt>
      <trkpt lat="44.7394" lon="4.45933">
        <ele>824.3</ele>
        <time>2022-06-09T08:09:00Z</time>
      </trkpt>
      <trkpt lat="44.73943" lon="4.4593">
        <ele>824.4</ele>
        <time>2022-06-09T08:09:01Z</time>
      </trkpt>
      <trkpt lat="44.73945" lon="4.45927">
        <ele>824.5</ele>
        <time>2022-06-09T08:09:02Z</time>
      </trkpt>
      <trkpt lat="44.73947" lon="4.45924">
        <ele>824.5</ele>
        <time>2022-06-09T08:09:03Z</time>
      </trkpt>
      <trkpt lat="44.7395" lon="4.45919">
        <ele>824.6</ele>
        <time>2022-06-09T08:09:04Z</time>
      </trkpt>
      <trkpt lat="44.73953" lon="4.45917">
        <ele>824.6</ele>
        <time>2022-06-09T08:09:05Z</time>
      </trkpt>
      <trkpt lat="44.73957" lon="4.45913">
        <ele>824.7</ele>
        <time>2022-06-09T08:09:07Z</time>
      </trkpt>
      <trkpt lat="44.73958" lon="4.45912">
        <ele>824.7</ele>
        <time>2022-06-09T08:09:08Z</time>
      </trkpt>
      <trkpt lat="44.7396" lon="4.45911">
        <ele>824.7</ele>
        <time>2022-06-09T08:09:09Z</time>
      </trkpt>
      <trkpt lat="44.73964" lon="4.45909">
        <ele>824.8</ele>
        <time>2022-06-09T08:09:10Z</time>
      </trkpt>
      <trkpt lat="44.73967" lon="4.45906">
        <ele>824.8</ele>
        <time>2022-06-09T08:09:11Z</time>
      </trkpt>
      <trkpt lat="44.73972" lon="4.45903">
        <ele>824.9</ele>
        <time>2022-06-09T08:09:13Z</time>
      </trkpt>
      <trkpt lat="44.73975" lon="4.45902">
        <ele>825</ele>
        <time>2022-06-09T08:09:15Z</time>
      </trkpt>
      <trkpt lat="44.73979" lon="4.459">
        <ele>825</ele>
        <time>2022-06-09T08:09:16Z</time>
      </trkpt>
      <trkpt lat="44.73981" lon="4.459">
        <ele>825</ele>
        <time>2022-06-09T08:09:17Z</time>
      </trkpt>
      <trkpt lat="44.73984" lon="4.45897">
        <ele>825.1</ele>
        <time>2022-06-09T08:09:18Z</time>
      </trkpt>
      <trkpt lat="44.73987" lon="4.45895">
        <ele>825.1</ele>
        <time>2022-06-09T08:09:19Z</time>
      </trkpt>
      <trkpt lat="44.73991" lon="4.45893">
        <ele>825.2</ele>
        <time>2022-06-09T08:09:21Z</time>
      </trkpt>
      <trkpt lat="44.73994" lon="4.45892">
        <ele>825.2</ele>
        <time>2022-06-09T08:09:22Z</time>
      </trkpt>
      <trkpt lat="44.73998" lon="4.4589">
        <ele>825.3</ele>
        <time>2022-06-09T08:09:23Z</time>
      </trkpt>
      <trkpt lat="44.73999" lon="4.45889">
        <ele>825.3</ele>
        <time>2022-06-09T08:09:24Z</time>
      </trkpt>
      <trkpt lat="44.74003" lon="4.45888">
        <ele>825.4</ele>
        <time>2022-06-09T08:09:25Z</time>
      </trkpt>
      <trkpt lat="44.74004" lon="4.45888">
        <ele>825.4</ele>
        <time>2022-06-09T08:09:26Z</time>
      </trkpt>
      <trkpt lat="44.74007" lon="4.45887">
        <ele>825.4</ele>
        <time>2022-06-09T08:09:27Z</time>
      </trkpt>
      <trkpt lat="44.7401" lon="4.45886">
        <ele>825.5</ele>
        <time>2022-06-09T08:09:28Z</time>
      </trkpt>
      <trkpt lat="44.74013" lon="4.45884">
        <ele>825.5</ele>
        <time>2022-06-09T08:09:29Z</time>
      </trkpt>
      <trkpt lat="44.74018" lon="4.45883">
        <ele>825.6</ele>
        <time>2022-06-09T08:09:30Z</time>
      </trkpt>
      <trkpt lat="44.74021" lon="4.45881">
        <ele>825.7</ele>
        <time>2022-06-09T08:09:32Z</time>
      </trkpt>
      <trkpt lat="44.74024" lon="4.4588">
        <ele>825.7</ele>
        <time>2022-06-09T08:09:33Z</time>
      </trkpt>
      <trkpt lat="44.74027" lon="4.45879">
        <ele>825.8</ele>
        <time>2022-06-09T08:09:34Z</time>
      </trkpt>
      <trkpt lat="44.74031" lon="4.45879">
        <ele>825.9</ele>
        <time>2022-06-09T08:09:35Z</time>
      </trkpt>
      <trkpt lat="44.74032" lon="4.45878">
        <ele>825.9</ele>
        <time>2022-06-09T08:09:36Z</time>
      </trkpt>
      <trkpt lat="44.74037" lon="4.45876">
        <ele>826</ele>
        <time>2022-06-09T08:09:37Z</time>
      </trkpt>
      <trkpt lat="44.74041" lon="4.45874">
        <ele>826</ele>
        <time>2022-06-09T08:09:39Z</time>
      </trkpt>
      <trkpt lat="44.74043" lon="4.45873">
        <ele>826.1</ele>
        <time>2022-06-09T08:09:40Z</time>
      </trkpt>
      <trkpt lat="44.74046" lon="4.45871">
        <ele>826.1</ele>
        <time>2022-06-09T08:09:41Z</time>
      </trkpt>
      <trkpt lat="44.74049" lon="4.4587">
        <ele>826.2</ele>
        <time>2022-06-09T08:09:42Z</time>
      </trkpt>
      <trkpt lat="44.74052" lon="4.45869">
        <ele>826.2</ele>
        <time>2022-06-09T08:09:43Z</time>
      </trkpt>
      <trkpt lat="44.74056" lon="4.45868">
        <ele>826.3</ele>
        <time>2022-06-09T08:09:44Z</time>
      </trkpt>
      <trkpt lat="44.74057" lon="4.45868">
        <ele>826.3</ele>
        <time>2022-06-09T08:09:45Z</time>
      </trkpt>
      <trkpt lat="44.74061" lon="4.45866">
        <ele>826.4</ele>
        <time>2022-06-09T08:09:46Z</time>
      </trkpt>
      <trkpt lat="44.74065" lon="4.45864">
        <ele>826.5</ele>
        <time>2022-06-09T08:09:48Z</time>
      </trkpt>
      <trkpt lat="44.74068" lon="4.45863">
        <ele>826.5</ele>
        <time>2022-06-09T08:09:49Z</time>
      </trkpt>
      <trkpt lat="44.74071" lon="4.45861">
        <ele>826.6</ele>
        <time>2022-06-09T08:09:50Z</time>
      </trkpt>
      <trkpt lat="44.74074" lon="4.45859">
        <ele>826.6</ele>
        <time>2022-06-09T08:09:51Z</time>
      </trkpt>
      <trkpt lat="44.74076" lon="4.45858">
        <ele>826.7</ele>
        <time>2022-06-09T08:09:52Z</time>
      </trkpt>
      <trkpt lat="44.74081" lon="4.45857">
        <ele>826.8</ele>
        <time>2022-06-09T08:09:53Z</time>
      </trkpt>
      <trkpt lat="44.74086" lon="4.45855">
        <ele>826.9</ele>
        <time>2022-06-09T08:09:54Z</time>
      </trkpt>
      <trkpt lat="44.74089" lon="4.45853">
        <ele>826.9</ele>
        <time>2022-06-09T08:09:56Z</time>
      </trkpt>
      <trkpt lat="44.74091" lon="4.45852">
        <ele>827</ele>
        <time>2022-06-09T08:09:57Z</time>
      </trkpt>
      <trkpt lat="44.74094" lon="4.45851">
        <ele>827</ele>
        <time>2022-06-09T08:09:58Z</time>
      </trkpt>
      <trkpt lat="44.74099" lon="4.45849">
        <ele>827.1</ele>
        <time>2022-06-09T08:09:59Z</time>
      </trkpt>
      <trkpt lat="44.74104" lon="4.45847">
        <ele>827.1</ele>
        <time>2022-06-09T08:10:00Z</time>
      </trkpt>
      <trkpt lat="44.74108" lon="4.45845">
        <ele>827.2</ele>
        <time>2022-06-09T08:10:02Z</time>
      </trkpt>
      <trkpt lat="44.74113" lon="4.45843">
        <ele>827.3</ele>
        <time>2022-06-09T08:10:03Z</time>
      </trkpt>
      <trkpt lat="44.74117" lon="4.45841">
        <ele>827.3</ele>
        <time>2022-06-09T08:10:05Z</time>
      </trkpt>
      <trkpt lat="44.7412" lon="4.45841">
        <ele>827.4</ele>
        <time>2022-06-09T08:10:06Z</time>
      </trkpt>
      <trkpt lat="44.74123" lon="4.45841">
        <ele>827.4</ele>
        <time>2022-06-09T08:10:07Z</time>
      </trkpt>
      <trkpt lat="44.74126" lon="4.4584">
        <ele>827.5</ele>
        <time>2022-06-09T08:10:08Z</time>
      </trkpt>
      <trkpt lat="44.74129" lon="4.4584">
        <ele>827.5</ele>
        <time>2022-06-09T08:10:09Z</time>
      </trkpt>
      <trkpt lat="44.74132" lon="4.4584">
        <ele>827.6</ele>
        <time>2022-06-09T08:10:10Z</time>
      </trkpt>
      <trkpt lat="44.74136" lon="4.45839">
        <ele>827.6</ele>
        <time>2022-06-09T08:10:11Z</time>
      </trkpt>
      <trkpt lat="44.74139" lon="4.45839">
        <ele>827.7</ele>
        <time>2022-06-09T08:10:12Z</time>
      </trkpt>
      <trkpt lat="44.74143" lon="4.45838">
        <ele>827.8</ele>
        <time>2022-06-09T08:10:13Z</time>
      </trkpt>
      <trkpt lat="44.74146" lon="4.45838">
        <ele>827.9</ele>
        <time>2022-06-09T08:10:14Z</time>
      </trkpt>
      <trkpt lat="44.7415" lon="4.45838">
        <ele>828</ele>
        <time>2022-06-09T08:10:15Z</time>
      </trkpt>
      <trkpt lat="44.74153" lon="4.45837">
        <ele>828.1</ele>
        <time>2022-06-09T08:10:16Z</time>
      </trkpt>
      <trkpt lat="44.74156" lon="4.45835">
        <ele>828.2</ele>
        <time>2022-06-09T08:10:17Z</time>
      </trkpt>
      <trkpt lat="44.74159" lon="4.45834">
        <ele>828.3</ele>
        <time>2022-06-09T08:10:18Z</time>
      </trkpt>
      <trkpt lat="44.74163" lon="4.45833">
        <ele>828.4</ele>
        <time>2022-06-09T08:10:19Z</time>
      </trkpt>
      <trkpt lat="44.74166" lon="4.4583">
        <ele>828.5</ele>
        <time>2022-06-09T08:10:20Z</time>
      </trkpt>
      <trkpt lat="44.74169" lon="4.45828">
        <ele>828.6</ele>
        <time>2022-06-09T08:10:21Z</time>
      </trkpt>
      <trkpt lat="44.74172" lon="4.45825">
        <ele>828.7</ele>
        <time>2022-06-09T08:10:22Z</time>
      </trkpt>
      <trkpt lat="44.74175" lon="4.45822">
        <ele>828.8</ele>
        <time>2022-06-09T08:10:23Z</time>
      </trkpt>
      <trkpt lat="44.74177" lon="4.45818">
        <ele>828.9</ele>
        <time>2022-06-09T08:10:24Z</time>
      </trkpt>
      <trkpt lat="44.74179" lon="4.45814">
        <ele>829</ele>
        <time>2022-06-09T08:10:25Z</time>
      </trkpt>
      <trkpt lat="44.74181" lon="4.4581">
        <ele>829.1</ele>
        <time>2022-06-09T08:10:26Z</time>
      </trkpt>
      <trkpt lat="44.74183" lon="4.45806">
        <ele>829.2</ele>
        <time>2022-06-09T08:10:27Z</time>
      </trkpt>
      <trkpt lat="44.74186" lon="4.45796">
        <ele>829.4</ele>
        <time>2022-06-09T08:10:28Z</time>
      </trkpt>
      <trkpt lat="44.74189" lon="4.45791">
        <ele>829.6</ele>
        <time>2022-06-09T08:10:30Z</time>
      </trkpt>
      <trkpt lat="44.74191" lon="4.45787">
        <ele>829.7</ele>
        <time>2022-06-09T08:10:31Z</time>
      </trkpt>
      <trkpt lat="44.74192" lon="4.45783">
        <ele>829.8</ele>
        <time>2022-06-09T08:10:32Z</time>
      </trkpt>
      <trkpt lat="44.74194" lon="4.45779">
        <ele>829.9</ele>
        <time>2022-06-09T08:10:33Z</time>
      </trkpt>
      <trkpt lat="44.74196" lon="4.45775">
        <ele>829.9</ele>
        <time>2022-06-09T08:10:34Z</time>
      </trkpt>
      <trkpt lat="44.742" lon="4.4577">
        <ele>830.1</ele>
        <time>2022-06-09T08:10:35Z</time>
      </trkpt>
      <trkpt lat="44.74203" lon="4.45766">
        <ele>830.2</ele>
        <time>2022-06-09T08:10:37Z</time>
      </trkpt>
      <trkpt lat="44.74206" lon="4.45763">
        <ele>830.2</ele>
        <time>2022-06-09T08:10:38Z</time>
      </trkpt>
      <trkpt lat="44.74209" lon="4.45761">
        <ele>830.3</ele>
        <time>2022-06-09T08:10:39Z</time>
      </trkpt>
      <trkpt lat="44.74214" lon="4.45758">
        <ele>830.4</ele>
        <time>2022-06-09T08:10:40Z</time>
      </trkpt>
      <trkpt lat="44.74217" lon="4.45755">
        <ele>830.5</ele>
        <time>2022-06-09T08:10:41Z</time>
      </trkpt>
      <trkpt lat="44.7422" lon="4.45753">
        <ele>830.6</ele>
        <time>2022-06-09T08:10:42Z</time>
      </trkpt>
      <trkpt lat="44.74223" lon="4.4575">
        <ele>830.7</ele>
        <time>2022-06-09T08:10:43Z</time>
      </trkpt>
      <trkpt lat="44.74226" lon="4.45747">
        <ele>830.8</ele>
        <time>2022-06-09T08:10:45Z</time>
      </trkpt>
      <trkpt lat="44.74228" lon="4.45745">
        <ele>830.9</ele>
        <time>2022-06-09T08:10:46Z</time>
      </trkpt>
      <trkpt lat="44.74232" lon="4.45742">
        <ele>831</ele>
        <time>2022-06-09T08:10:47Z</time>
      </trkpt>
      <trkpt lat="44.74236" lon="4.45738">
        <ele>831.2</ele>
        <time>2022-06-09T08:10:48Z</time>
      </trkpt>
      <trkpt lat="44.74239" lon="4.45735">
        <ele>831.3</ele>
        <time>2022-06-09T08:10:50Z</time>
      </trkpt>
      <trkpt lat="44.74242" lon="4.45733">
        <ele>831.3</ele>
        <time>2022-06-09T08:10:51Z</time>
      </trkpt>
      <trkpt lat="44.74244" lon="4.4573">
        <ele>831.4</ele>
        <time>2022-06-09T08:10:52Z</time>
      </trkpt>
      <trkpt lat="44.74248" lon="4.45723">
        <ele>831.6</ele>
        <time>2022-06-09T08:10:53Z</time>
      </trkpt>
      <trkpt lat="44.7425" lon="4.4572">
        <ele>831.7</ele>
        <time>2022-06-09T08:10:55Z</time>
      </trkpt>
      <trkpt lat="44.74252" lon="4.45716">
        <ele>831.8</ele>
        <time>2022-06-09T08:10:56Z</time>
      </trkpt>
      <trkpt lat="44.74255" lon="4.45711">
        <ele>831.9</ele>
        <time>2022-06-09T08:10:57Z</time>
      </trkpt>
      <trkpt lat="44.74256" lon="4.45706">
        <ele>832</ele>
        <time>2022-06-09T08:10:58Z</time>
      </trkpt>
      <trkpt lat="44.74258" lon="4.457">
        <ele>832.2</ele>
        <time>2022-06-09T08:11:00Z</time>
      </trkpt>
      <trkpt lat="44.7426" lon="4.45697">
        <ele>832.3</ele>
        <time>2022-06-09T08:11:01Z</time>
      </trkpt>
      <trkpt lat="44.74264" lon="4.45689">
        <ele>832.4</ele>
        <time>2022-06-09T08:11:03Z</time>
      </trkpt>
      <trkpt lat="44.74266" lon="4.45683">
        <ele>832.6</ele>
        <time>2022-06-09T08:11:04Z</time>
      </trkpt>
      <trkpt lat="44.7427" lon="4.45674">
        <ele>832.8</ele>
        <time>2022-06-09T08:11:06Z</time>
      </trkpt>
      <trkpt lat="44.74272" lon="4.45669">
        <ele>832.9</ele>
        <time>2022-06-09T08:11:08Z</time>
      </trkpt>
      <trkpt lat="44.74274" lon="4.45665">
        <ele>832.9</ele>
        <time>2022-06-09T08:11:09Z</time>
      </trkpt>
      <trkpt lat="44.74277" lon="4.45659">
        <ele>833.1</ele>
        <time>2022-06-09T08:11:10Z</time>
      </trkpt>
      <trkpt lat="44.7428" lon="4.45655">
        <ele>833.2</ele>
        <time>2022-06-09T08:11:11Z</time>
      </trkpt>
      <trkpt lat="44.74282" lon="4.45651">
        <ele>833.3</ele>
        <time>2022-06-09T08:11:13Z</time>
      </trkpt>
      <trkpt lat="44.74284" lon="4.45648">
        <ele>833.4</ele>
        <time>2022-06-09T08:11:14Z</time>
      </trkpt>
      <trkpt lat="44.74286" lon="4.45644">
        <ele>833.5</ele>
        <time>2022-06-09T08:11:15Z</time>
      </trkpt>
      <trkpt lat="44.74287" lon="4.4564">
        <ele>833.6</ele>
        <time>2022-06-09T08:11:16Z</time>
      </trkpt>
      <trkpt lat="44.74288" lon="4.45637">
        <ele>833.7</ele>
        <time>2022-06-09T08:11:17Z</time>
      </trkpt>
      <trkpt lat="44.74289" lon="4.45633">
        <ele>833.8</ele>
        <time>2022-06-09T08:11:18Z</time>
      </trkpt>
      <trkpt lat="44.74291" lon="4.45628">
        <ele>833.9</ele>
        <time>2022-06-09T08:11:19Z</time>
      </trkpt>
      <trkpt lat="44.74292" lon="4.45627">
        <ele>834</ele>
        <time>2022-06-09T08:11:20Z</time>
      </trkpt>
      <trkpt lat="44.74293" lon="4.45623">
        <ele>834</ele>
        <time>2022-06-09T08:11:21Z</time>
      </trkpt>
      <trkpt lat="44.74295" lon="4.45618">
        <ele>834.2</ele>
        <time>2022-06-09T08:11:22Z</time>
      </trkpt>
      <trkpt lat="44.74297" lon="4.45612">
        <ele>834.3</ele>
        <time>2022-06-09T08:11:23Z</time>
      </trkpt>
      <trkpt lat="44.743" lon="4.45605">
        <ele>834.5</ele>
        <time>2022-06-09T08:11:25Z</time>
      </trkpt>
      <trkpt lat="44.74301" lon="4.45601">
        <ele>834.6</ele>
        <time>2022-06-09T08:11:26Z</time>
      </trkpt>
      <trkpt lat="44.74303" lon="4.45597">
        <ele>834.7</ele>
        <time>2022-06-09T08:11:28Z</time>
      </trkpt>
      <trkpt lat="44.74305" lon="4.45593">
        <ele>834.8</ele>
        <time>2022-06-09T08:11:29Z</time>
      </trkpt>
      <trkpt lat="44.74307" lon="4.4559">
        <ele>834.9</ele>
        <time>2022-06-09T08:11:30Z</time>
      </trkpt>
      <trkpt lat="44.7431" lon="4.45585">
        <ele>835</ele>
        <time>2022-06-09T08:11:31Z</time>
      </trkpt>
      <trkpt lat="44.74313" lon="4.4558">
        <ele>835.1</ele>
        <time>2022-06-09T08:11:32Z</time>
      </trkpt>
      <trkpt lat="44.74317" lon="4.45574">
        <ele>835.2</ele>
        <time>2022-06-09T08:11:34Z</time>
      </trkpt>
      <trkpt lat="44.74319" lon="4.45571">
        <ele>835.3</ele>
        <time>2022-06-09T08:11:35Z</time>
      </trkpt>
      <trkpt lat="44.74324" lon="4.45565">
        <ele>835.4</ele>
        <time>2022-06-09T08:11:37Z</time>
      </trkpt>
      <trkpt lat="44.74326" lon="4.45561">
        <ele>835.5</ele>
        <time>2022-06-09T08:11:38Z</time>
      </trkpt>
      <trkpt lat="44.74328" lon="4.45558">
        <ele>835.6</ele>
        <time>2022-06-09T08:11:40Z</time>
      </trkpt>
      <trkpt lat="44.74332" lon="4.45554">
        <ele>835.7</ele>
        <time>2022-06-09T08:11:41Z</time>
      </trkpt>
      <trkpt lat="44.74335" lon="4.4555">
        <ele>835.8</ele>
        <time>2022-06-09T08:11:42Z</time>
      </trkpt>
      <trkpt lat="44.74337" lon="4.45547">
        <ele>835.9</ele>
        <time>2022-06-09T08:11:44Z</time>
      </trkpt>
      <trkpt lat="44.74341" lon="4.45544">
        <ele>836</ele>
        <time>2022-06-09T08:11:45Z</time>
      </trkpt>
      <trkpt lat="44.74344" lon="4.45541">
        <ele>836</ele>
        <time>2022-06-09T08:11:46Z</time>
      </trkpt>
      <trkpt lat="44.74346" lon="4.45538">
        <ele>836.1</ele>
        <time>2022-06-09T08:11:47Z</time>
      </trkpt>
      <trkpt lat="44.74352" lon="4.45533">
        <ele>836.3</ele>
        <time>2022-06-09T08:11:49Z</time>
      </trkpt>
      <trkpt lat="44.74354" lon="4.4553">
        <ele>836.4</ele>
        <time>2022-06-09T08:11:51Z</time>
      </trkpt>
      <trkpt lat="44.74357" lon="4.45528">
        <ele>836.4</ele>
        <time>2022-06-09T08:11:52Z</time>
      </trkpt>
      <trkpt lat="44.7436" lon="4.45526">
        <ele>836.5</ele>
        <time>2022-06-09T08:11:53Z</time>
      </trkpt>
      <trkpt lat="44.74363" lon="4.45524">
        <ele>836.6</ele>
        <time>2022-06-09T08:11:54Z</time>
      </trkpt>
      <trkpt lat="44.74366" lon="4.45522">
        <ele>836.7</ele>
        <time>2022-06-09T08:11:55Z</time>
      </trkpt>
      <trkpt lat="44.74369" lon="4.4552">
        <ele>836.8</ele>
        <time>2022-06-09T08:11:56Z</time>
      </trkpt>
      <trkpt lat="44.74372" lon="4.45518">
        <ele>836.9</ele>
        <time>2022-06-09T08:11:57Z</time>
      </trkpt>
      <trkpt lat="44.74374" lon="4.45516">
        <ele>836.9</ele>
        <time>2022-06-09T08:11:58Z</time>
      </trkpt>
      <trkpt lat="44.74377" lon="4.45515">
        <ele>837</ele>
        <time>2022-06-09T08:11:59Z</time>
      </trkpt>
      <trkpt lat="44.7438" lon="4.45513">
        <ele>837.1</ele>
        <time>2022-06-09T08:12:00Z</time>
      </trkpt>
      <trkpt lat="44.74383" lon="4.45512">
        <ele>837.2</ele>
        <time>2022-06-09T08:12:01Z</time>
      </trkpt>
      <trkpt lat="44.74385" lon="4.4551">
        <ele>837.3</ele>
        <time>2022-06-09T08:12:02Z</time>
      </trkpt>
      <trkpt lat="44.74388" lon="4.45509">
        <ele>837.3</ele>
        <time>2022-06-09T08:12:03Z</time>
      </trkpt>
      <trkpt lat="44.7439" lon="4.45507">
        <ele>837.4</ele>
        <time>2022-06-09T08:12:04Z</time>
      </trkpt>
      <trkpt lat="44.74393" lon="4.45505">
        <ele>837.5</ele>
        <time>2022-06-09T08:12:05Z</time>
      </trkpt>
      <trkpt lat="44.74396" lon="4.45502">
        <ele>837.6</ele>
        <time>2022-06-09T08:12:06Z</time>
      </trkpt>
      <trkpt lat="44.744" lon="4.45499">
        <ele>837.7</ele>
        <time>2022-06-09T08:12:07Z</time>
      </trkpt>
      <trkpt lat="44.74404" lon="4.45493">
        <ele>837.8</ele>
        <time>2022-06-09T08:12:09Z</time>
      </trkpt>
      <trkpt lat="44.74407" lon="4.45489">
        <ele>837.9</ele>
        <time>2022-06-09T08:12:10Z</time>
      </trkpt>
      <trkpt lat="44.7441" lon="4.45485">
        <ele>838</ele>
        <time>2022-06-09T08:12:11Z</time>
      </trkpt>
      <trkpt lat="44.74412" lon="4.45481">
        <ele>838.1</ele>
        <time>2022-06-09T08:12:12Z</time>
      </trkpt>
      <trkpt lat="44.74414" lon="4.45477">
        <ele>838.2</ele>
        <time>2022-06-09T08:12:13Z</time>
      </trkpt>
      <trkpt lat="44.74415" lon="4.45472">
        <ele>838.2</ele>
        <time>2022-06-09T08:12:15Z</time>
      </trkpt>
      <trkpt lat="44.74418" lon="4.45463">
        <ele>838.3</ele>
        <time>2022-06-09T08:12:16Z</time>
      </trkpt>
      <trkpt lat="44.74419" lon="4.45458">
        <ele>838.4</ele>
        <time>2022-06-09T08:12:17Z</time>
      </trkpt>
      <trkpt lat="44.74419" lon="4.45452">
        <ele>838.4</ele>
        <time>2022-06-09T08:12:19Z</time>
      </trkpt>
      <trkpt lat="44.7442" lon="4.45447">
        <ele>838.5</ele>
        <time>2022-06-09T08:12:20Z</time>
      </trkpt>
      <trkpt lat="44.7442" lon="4.45442">
        <ele>838.5</ele>
        <time>2022-06-09T08:12:21Z</time>
      </trkpt>
      <trkpt lat="44.7442" lon="4.45437">
        <ele>838.6</ele>
        <time>2022-06-09T08:12:22Z</time>
      </trkpt>
      <trkpt lat="44.7442" lon="4.45426">
        <ele>838.7</ele>
        <time>2022-06-09T08:12:23Z</time>
      </trkpt>
      <trkpt lat="44.7442" lon="4.45421">
        <ele>838.7</ele>
        <time>2022-06-09T08:12:25Z</time>
      </trkpt>
      <trkpt lat="44.74419" lon="4.45416">
        <ele>838.8</ele>
        <time>2022-06-09T08:12:26Z</time>
      </trkpt>
      <trkpt lat="44.74418" lon="4.45408">
        <ele>838.9</ele>
        <time>2022-06-09T08:12:27Z</time>
      </trkpt>
      <trkpt lat="44.74417" lon="4.454">
        <ele>839</ele>
        <time>2022-06-09T08:12:29Z</time>
      </trkpt>
      <trkpt lat="44.74416" lon="4.45391">
        <ele>839.1</ele>
        <time>2022-06-09T08:12:30Z</time>
      </trkpt>
      <trkpt lat="44.74414" lon="4.45383">
        <ele>839.2</ele>
        <time>2022-06-09T08:12:32Z</time>
      </trkpt>
      <trkpt lat="44.74411" lon="4.45372">
        <ele>839.3</ele>
        <time>2022-06-09T08:12:34Z</time>
      </trkpt>
      <trkpt lat="44.7441" lon="4.45367">
        <ele>839.4</ele>
        <time>2022-06-09T08:12:36Z</time>
      </trkpt>
      <trkpt lat="44.74409" lon="4.45362">
        <ele>839.5</ele>
        <time>2022-06-09T08:12:37Z</time>
      </trkpt>
      <trkpt lat="44.74407" lon="4.45353">
        <ele>839.6</ele>
        <time>2022-06-09T08:12:39Z</time>
      </trkpt>
      <trkpt lat="44.74406" lon="4.45348">
        <ele>839.7</ele>
        <time>2022-06-09T08:12:40Z</time>
      </trkpt>
      <trkpt lat="44.74405" lon="4.45344">
        <ele>839.8</ele>
        <time>2022-06-09T08:12:41Z</time>
      </trkpt>
      <trkpt lat="44.74405" lon="4.4534">
        <ele>839.9</ele>
        <time>2022-06-09T08:12:42Z</time>
      </trkpt>
      <trkpt lat="44.74404" lon="4.45335">
        <ele>839.9</ele>
        <time>2022-06-09T08:12:43Z</time>
      </trkpt>
      <trkpt lat="44.74403" lon="4.4533">
        <ele>840</ele>
        <time>2022-06-09T08:12:44Z</time>
      </trkpt>
      <trkpt lat="44.74402" lon="4.45326">
        <ele>840.1</ele>
        <time>2022-06-09T08:12:45Z</time>
      </trkpt>
      <trkpt lat="44.74401" lon="4.45321">
        <ele>840.1</ele>
        <time>2022-06-09T08:12:46Z</time>
      </trkpt>
      <trkpt lat="44.744" lon="4.45316">
        <ele>840.2</ele>
        <time>2022-06-09T08:12:47Z</time>
      </trkpt>
      <trkpt lat="44.74399" lon="4.45311">
        <ele>840.3</ele>
        <time>2022-06-09T08:12:48Z</time>
      </trkpt>
      <trkpt lat="44.74399" lon="4.45303">
        <ele>840.4</ele>
        <time>2022-06-09T08:12:49Z</time>
      </trkpt>
      <trkpt lat="44.74398" lon="4.45296">
        <ele>840.5</ele>
        <time>2022-06-09T08:12:51Z</time>
      </trkpt>
      <trkpt lat="44.74399" lon="4.45292">
        <ele>840.6</ele>
        <time>2022-06-09T08:12:52Z</time>
      </trkpt>
      <trkpt lat="44.74399" lon="4.45287">
        <ele>840.7</ele>
        <time>2022-06-09T08:12:53Z</time>
      </trkpt>
      <trkpt lat="44.744" lon="4.45283">
        <ele>840.8</ele>
        <time>2022-06-09T08:12:54Z</time>
      </trkpt>
      <trkpt lat="44.74401" lon="4.45274">
        <ele>841</ele>
        <time>2022-06-09T08:12:55Z</time>
      </trkpt>
      <trkpt lat="44.74403" lon="4.45267">
        <ele>841.2</ele>
        <time>2022-06-09T08:12:57Z</time>
      </trkpt>
      <trkpt lat="44.74404" lon="4.45262">
        <ele>841.3</ele>
        <time>2022-06-09T08:12:58Z</time>
      </trkpt>
      <trkpt lat="44.74407" lon="4.45256">
        <ele>841.4</ele>
        <time>2022-06-09T08:13:00Z</time>
      </trkpt>
      <trkpt lat="44.74408" lon="4.45252">
        <ele>841.5</ele>
        <time>2022-06-09T08:13:02Z</time>
      </trkpt>
      <trkpt lat="44.74409" lon="4.45248">
        <ele>841.5</ele>
        <time>2022-06-09T08:13:03Z</time>
      </trkpt>
      <trkpt lat="44.74412" lon="4.45244">
        <ele>841.6</ele>
        <time>2022-06-09T08:13:04Z</time>
      </trkpt>
      <trkpt lat="44.74413" lon="4.45243">
        <ele>841.7</ele>
        <time>2022-06-09T08:13:05Z</time>
      </trkpt>
      <trkpt lat="44.74415" lon="4.4524">
        <ele>841.8</ele>
        <time>2022-06-09T08:13:06Z</time>
      </trkpt>
      <trkpt lat="44.74418" lon="4.45237">
        <ele>841.8</ele>
        <time>2022-06-09T08:13:07Z</time>
      </trkpt>
      <trkpt lat="44.7442" lon="4.45233">
        <ele>841.9</ele>
        <time>2022-06-09T08:13:08Z</time>
      </trkpt>
      <trkpt lat="44.74421" lon="4.45232">
        <ele>841.9</ele>
        <time>2022-06-09T08:13:09Z</time>
      </trkpt>
      <trkpt lat="44.74423" lon="4.45228">
        <ele>842</ele>
        <time>2022-06-09T08:13:10Z</time>
      </trkpt>
      <trkpt lat="44.74427" lon="4.45222">
        <ele>842.2</ele>
        <time>2022-06-09T08:13:12Z</time>
      </trkpt>
      <trkpt lat="44.74428" lon="4.4522">
        <ele>842.2</ele>
        <time>2022-06-09T08:13:13Z</time>
      </trkpt>
      <trkpt lat="44.74429" lon="4.45218">
        <ele>842.3</ele>
        <time>2022-06-09T08:13:14Z</time>
      </trkpt>
      <trkpt lat="44.74433" lon="4.45213">
        <ele>842.4</ele>
        <time>2022-06-09T08:13:16Z</time>
      </trkpt>
      <trkpt lat="44.74434" lon="4.45211">
        <ele>842.4</ele>
        <time>2022-06-09T08:13:17Z</time>
      </trkpt>
      <trkpt lat="44.74435" lon="4.4521">
        <ele>842.5</ele>
        <time>2022-06-09T08:13:18Z</time>
      </trkpt>
      <trkpt lat="44.74438" lon="4.45206">
        <ele>842.6</ele>
        <time>2022-06-09T08:13:19Z</time>
      </trkpt>
      <trkpt lat="44.74439" lon="4.45203">
        <ele>842.6</ele>
        <time>2022-06-09T08:13:20Z</time>
      </trkpt>
      <trkpt lat="44.74442" lon="4.452">
        <ele>842.7</ele>
        <time>2022-06-09T08:13:22Z</time>
      </trkpt>
      <trkpt lat="44.74445" lon="4.45196">
        <ele>842.8</ele>
        <time>2022-06-09T08:13:23Z</time>
      </trkpt>
      <trkpt lat="44.74448" lon="4.45193">
        <ele>842.9</ele>
        <time>2022-06-09T08:13:25Z</time>
      </trkpt>
      <trkpt lat="44.74451" lon="4.4519">
        <ele>843</ele>
        <time>2022-06-09T08:13:26Z</time>
      </trkpt>
      <trkpt lat="44.74453" lon="4.45187">
        <ele>843</ele>
        <time>2022-06-09T08:13:27Z</time>
      </trkpt>
      <trkpt lat="44.74456" lon="4.45185">
        <ele>843.1</ele>
        <time>2022-06-09T08:13:29Z</time>
      </trkpt>
      <trkpt lat="44.74459" lon="4.45183">
        <ele>843.1</ele>
        <time>2022-06-09T08:13:30Z</time>
      </trkpt>
      <trkpt lat="44.7446" lon="4.45182">
        <ele>843.2</ele>
        <time>2022-06-09T08:13:31Z</time>
      </trkpt>
      <trkpt lat="44.74464" lon="4.45178">
        <ele>843.3</ele>
        <time>2022-06-09T08:13:32Z</time>
      </trkpt>
      <trkpt lat="44.74466" lon="4.45177">
        <ele>843.3</ele>
        <time>2022-06-09T08:13:33Z</time>
      </trkpt>
      <trkpt lat="44.74468" lon="4.45175">
        <ele>843.3</ele>
        <time>2022-06-09T08:13:34Z</time>
      </trkpt>
      <trkpt lat="44.74471" lon="4.45174">
        <ele>843.4</ele>
        <time>2022-06-09T08:13:35Z</time>
      </trkpt>
      <trkpt lat="44.74475" lon="4.45171">
        <ele>843.5</ele>
        <time>2022-06-09T08:13:37Z</time>
      </trkpt>
      <trkpt lat="44.7448" lon="4.45169">
        <ele>843.6</ele>
        <time>2022-06-09T08:13:39Z</time>
      </trkpt>
      <trkpt lat="44.74481" lon="4.45168">
        <ele>843.6</ele>
        <time>2022-06-09T08:13:40Z</time>
      </trkpt>
      <trkpt lat="44.74482" lon="4.45167">
        <ele>843.7</ele>
        <time>2022-06-09T08:13:41Z</time>
      </trkpt>
      <trkpt lat="44.74486" lon="4.45166">
        <ele>843.8</ele>
        <time>2022-06-09T08:13:42Z</time>
      </trkpt>
      <trkpt lat="44.74487" lon="4.45166">
        <ele>843.8</ele>
        <time>2022-06-09T08:13:43Z</time>
      </trkpt>
      <trkpt lat="44.74491" lon="4.45164">
        <ele>843.9</ele>
        <time>2022-06-09T08:13:44Z</time>
      </trkpt>
      <trkpt lat="44.74492" lon="4.45164">
        <ele>843.9</ele>
        <time>2022-06-09T08:13:45Z</time>
      </trkpt>
      <trkpt lat="44.74497" lon="4.45162">
        <ele>844</ele>
        <time>2022-06-09T08:13:46Z</time>
      </trkpt>
      <trkpt lat="44.74499" lon="4.45161">
        <ele>844.1</ele>
        <time>2022-06-09T08:13:47Z</time>
      </trkpt>
      <trkpt lat="44.74502" lon="4.4516">
        <ele>844.1</ele>
        <time>2022-06-09T08:13:48Z</time>
      </trkpt>
      <trkpt lat="44.74505" lon="4.45159">
        <ele>844.2</ele>
        <time>2022-06-09T08:13:50Z</time>
      </trkpt>
      <trkpt lat="44.74509" lon="4.45157">
        <ele>844.3</ele>
        <time>2022-06-09T08:13:51Z</time>
      </trkpt>
      <trkpt lat="44.7451" lon="4.45157">
        <ele>844.3</ele>
        <time>2022-06-09T08:13:52Z</time>
      </trkpt>
      <trkpt lat="44.74513" lon="4.45157">
        <ele>844.4</ele>
        <time>2022-06-09T08:13:53Z</time>
      </trkpt>
      <trkpt lat="44.74516" lon="4.45155">
        <ele>844.5</ele>
        <time>2022-06-09T08:13:54Z</time>
      </trkpt>
      <trkpt lat="44.74522" lon="4.45154">
        <ele>844.6</ele>
        <time>2022-06-09T08:13:56Z</time>
      </trkpt>
      <trkpt lat="44.74524" lon="4.45154">
        <ele>844.7</ele>
        <time>2022-06-09T08:13:57Z</time>
      </trkpt>
      <trkpt lat="44.74527" lon="4.45153">
        <ele>844.8</ele>
        <time>2022-06-09T08:13:58Z</time>
      </trkpt>
      <trkpt lat="44.74533" lon="4.45151">
        <ele>845</ele>
        <time>2022-06-09T08:13:59Z</time>
      </trkpt>
      <trkpt lat="44.74535" lon="4.4515">
        <ele>845</ele>
        <time>2022-06-09T08:14:00Z</time>
      </trkpt>
      <trkpt lat="44.74539" lon="4.4515">
        <ele>845.1</ele>
        <time>2022-06-09T08:14:02Z</time>
      </trkpt>
      <trkpt lat="44.74541" lon="4.45149">
        <ele>845.2</ele>
        <time>2022-06-09T08:14:03Z</time>
      </trkpt>
      <trkpt lat="44.74544" lon="4.45149">
        <ele>845.3</ele>
        <time>2022-06-09T08:14:04Z</time>
      </trkpt>
      <trkpt lat="44.74548" lon="4.45149">
        <ele>845.4</ele>
        <time>2022-06-09T08:14:05Z</time>
      </trkpt>
      <trkpt lat="44.7455" lon="4.45149">
        <ele>845.5</ele>
        <time>2022-06-09T08:14:06Z</time>
      </trkpt>
      <trkpt lat="44.74555" lon="4.45148">
        <ele>845.6</ele>
        <time>2022-06-09T08:14:07Z</time>
      </trkpt>
      <trkpt lat="44.74558" lon="4.45148">
        <ele>845.7</ele>
        <time>2022-06-09T08:14:08Z</time>
      </trkpt>
      <trkpt lat="44.74561" lon="4.45149">
        <ele>845.8</ele>
        <time>2022-06-09T08:14:10Z</time>
      </trkpt>
      <trkpt lat="44.74564" lon="4.45149">
        <ele>845.8</ele>
        <time>2022-06-09T08:14:11Z</time>
      </trkpt>
      <trkpt lat="44.74568" lon="4.4515">
        <ele>845.9</ele>
        <time>2022-06-09T08:14:12Z</time>
      </trkpt>
      <trkpt lat="44.74572" lon="4.4515">
        <ele>846</ele>
        <time>2022-06-09T08:14:13Z</time>
      </trkpt>
      <trkpt lat="44.74575" lon="4.45151">
        <ele>846.1</ele>
        <time>2022-06-09T08:14:14Z</time>
      </trkpt>
      <trkpt lat="44.74579" lon="4.45152">
        <ele>846.2</ele>
        <time>2022-06-09T08:14:16Z</time>
      </trkpt>
      <trkpt lat="44.74583" lon="4.45153">
        <ele>846.3</ele>
        <time>2022-06-09T08:14:17Z</time>
      </trkpt>
      <trkpt lat="44.74584" lon="4.45153">
        <ele>846.3</ele>
        <time>2022-06-09T08:14:18Z</time>
      </trkpt>
      <trkpt lat="44.74588" lon="4.45155">
        <ele>846.4</ele>
        <time>2022-06-09T08:14:19Z</time>
      </trkpt>
      <trkpt lat="44.74589" lon="4.45155">
        <ele>846.5</ele>
        <time>2022-06-09T08:14:20Z</time>
      </trkpt>
      <trkpt lat="44.74593" lon="4.45157">
        <ele>846.6</ele>
        <time>2022-06-09T08:14:21Z</time>
      </trkpt>
      <trkpt lat="44.74597" lon="4.45158">
        <ele>846.7</ele>
        <time>2022-06-09T08:14:23Z</time>
      </trkpt>
      <trkpt lat="44.74599" lon="4.45159">
        <ele>846.8</ele>
        <time>2022-06-09T08:14:24Z</time>
      </trkpt>
      <trkpt lat="44.746" lon="4.4516">
        <ele>846.8</ele>
        <time>2022-06-09T08:14:25Z</time>
      </trkpt>
      <trkpt lat="44.74604" lon="4.45161">
        <ele>847</ele>
        <time>2022-06-09T08:14:26Z</time>
      </trkpt>
      <trkpt lat="44.74605" lon="4.45161">
        <ele>847</ele>
        <time>2022-06-09T08:14:27Z</time>
      </trkpt>
      <trkpt lat="44.7461" lon="4.45163">
        <ele>847.2</ele>
        <time>2022-06-09T08:14:29Z</time>
      </trkpt>
      <trkpt lat="44.74615" lon="4.45165">
        <ele>847.3</ele>
        <time>2022-06-09T08:14:30Z</time>
      </trkpt>
      <trkpt lat="44.74617" lon="4.45166">
        <ele>847.4</ele>
        <time>2022-06-09T08:14:31Z</time>
      </trkpt>
      <trkpt lat="44.74622" lon="4.45167">
        <ele>847.6</ele>
        <time>2022-06-09T08:14:34Z</time>
      </trkpt>
      <trkpt lat="44.74625" lon="4.45167">
        <ele>847.7</ele>
        <time>2022-06-09T08:14:35Z</time>
      </trkpt>
      <trkpt lat="44.74629" lon="4.45168">
        <ele>847.9</ele>
        <time>2022-06-09T08:14:37Z</time>
      </trkpt>
      <trkpt lat="44.74635" lon="4.45167">
        <ele>848</ele>
        <time>2022-06-09T08:14:38Z</time>
      </trkpt>
      <trkpt lat="44.74639" lon="4.45166">
        <ele>848.1</ele>
        <time>2022-06-09T08:14:40Z</time>
      </trkpt>
      <trkpt lat="44.74642" lon="4.45165">
        <ele>848.2</ele>
        <time>2022-06-09T08:14:41Z</time>
      </trkpt>
      <trkpt lat="44.74647" lon="4.45163">
        <ele>848.4</ele>
        <time>2022-06-09T08:14:43Z</time>
      </trkpt>
      <trkpt lat="44.7465" lon="4.45161">
        <ele>848.5</ele>
        <time>2022-06-09T08:14:44Z</time>
      </trkpt>
      <trkpt lat="44.74653" lon="4.45159">
        <ele>848.6</ele>
        <time>2022-06-09T08:14:46Z</time>
      </trkpt>
      <trkpt lat="44.74656" lon="4.45157">
        <ele>848.6</ele>
        <time>2022-06-09T08:14:47Z</time>
      </trkpt>
      <trkpt lat="44.74659" lon="4.45153">
        <ele>848.7</ele>
        <time>2022-06-09T08:14:48Z</time>
      </trkpt>
      <trkpt lat="44.74664" lon="4.45147">
        <ele>848.8</ele>
        <time>2022-06-09T08:14:49Z</time>
      </trkpt>
      <trkpt lat="44.74666" lon="4.45142">
        <ele>848.9</ele>
        <time>2022-06-09T08:14:51Z</time>
      </trkpt>
      <trkpt lat="44.7467" lon="4.45133">
        <ele>849</ele>
        <time>2022-06-09T08:14:52Z</time>
      </trkpt>
      <trkpt lat="44.74671" lon="4.45128">
        <ele>849</ele>
        <time>2022-06-09T08:14:54Z</time>
      </trkpt>
      <trkpt lat="44.74672" lon="4.45123">
        <ele>849</ele>
        <time>2022-06-09T08:14:55Z</time>
      </trkpt>
      <trkpt lat="44.74673" lon="4.45117">
        <ele>849.1</ele>
        <time>2022-06-09T08:14:56Z</time>
      </trkpt>
      <trkpt lat="44.74674" lon="4.45112">
        <ele>849.1</ele>
        <time>2022-06-09T08:14:57Z</time>
      </trkpt>
      <trkpt lat="44.74674" lon="4.45106">
        <ele>849.1</ele>
        <time>2022-06-09T08:14:58Z</time>
      </trkpt>
      <trkpt lat="44.74675" lon="4.451">
        <ele>849.2</ele>
        <time>2022-06-09T08:14:59Z</time>
      </trkpt>
      <trkpt lat="44.74675" lon="4.45094">
        <ele>849.2</ele>
        <time>2022-06-09T08:15:00Z</time>
      </trkpt>
      <trkpt lat="44.74675" lon="4.45088">
        <ele>849.2</ele>
        <time>2022-06-09T08:15:01Z</time>
      </trkpt>
      <trkpt lat="44.74675" lon="4.45082">
        <ele>849.3</ele>
        <time>2022-06-09T08:15:02Z</time>
      </trkpt>
      <trkpt lat="44.74675" lon="4.45076">
        <ele>849.3</ele>
        <time>2022-06-09T08:15:03Z</time>
      </trkpt>
      <trkpt lat="44.74675" lon="4.45069">
        <ele>849.4</ele>
        <time>2022-06-09T08:15:04Z</time>
      </trkpt>
      <trkpt lat="44.74676" lon="4.45064">
        <ele>849.5</ele>
        <time>2022-06-09T08:15:05Z</time>
      </trkpt>
      <trkpt lat="44.74677" lon="4.45052">
        <ele>849.6</ele>
        <time>2022-06-09T08:15:06Z</time>
      </trkpt>
      <trkpt lat="44.74678" lon="4.45046">
        <ele>849.7</ele>
        <time>2022-06-09T08:15:08Z</time>
      </trkpt>
      <trkpt lat="44.74679" lon="4.4504">
        <ele>849.8</ele>
        <time>2022-06-09T08:15:09Z</time>
      </trkpt>
      <trkpt lat="44.74681" lon="4.45035">
        <ele>849.9</ele>
        <time>2022-06-09T08:15:10Z</time>
      </trkpt>
      <trkpt lat="44.74682" lon="4.4503">
        <ele>850</ele>
        <time>2022-06-09T08:15:11Z</time>
      </trkpt>
      <trkpt lat="44.74684" lon="4.45025">
        <ele>850.1</ele>
        <time>2022-06-09T08:15:12Z</time>
      </trkpt>
      <trkpt lat="44.74686" lon="4.45021">
        <ele>850.2</ele>
        <time>2022-06-09T08:15:13Z</time>
      </trkpt>
      <trkpt lat="44.74689" lon="4.45017">
        <ele>850.3</ele>
        <time>2022-06-09T08:15:14Z</time>
      </trkpt>
      <trkpt lat="44.74692" lon="4.45014">
        <ele>850.4</ele>
        <time>2022-06-09T08:15:15Z</time>
      </trkpt>
      <trkpt lat="44.74694" lon="4.45011">
        <ele>850.5</ele>
        <time>2022-06-09T08:15:16Z</time>
      </trkpt>
      <trkpt lat="44.74697" lon="4.45009">
        <ele>850.7</ele>
        <time>2022-06-09T08:15:17Z</time>
      </trkpt>
      <trkpt lat="44.747" lon="4.45007">
        <ele>850.8</ele>
        <time>2022-06-09T08:15:18Z</time>
      </trkpt>
      <trkpt lat="44.74703" lon="4.45005">
        <ele>850.9</ele>
        <time>2022-06-09T08:15:19Z</time>
      </trkpt>
      <trkpt lat="44.74708" lon="4.45004">
        <ele>851.1</ele>
        <time>2022-06-09T08:15:20Z</time>
      </trkpt>
      <trkpt lat="44.74709" lon="4.45004">
        <ele>851.2</ele>
        <time>2022-06-09T08:15:21Z</time>
      </trkpt>
      <trkpt lat="44.74712" lon="4.45004">
        <ele>851.3</ele>
        <time>2022-06-09T08:15:22Z</time>
      </trkpt>
      <trkpt lat="44.74717" lon="4.45005">
        <ele>851.5</ele>
        <time>2022-06-09T08:15:23Z</time>
      </trkpt>
      <trkpt lat="44.74719" lon="4.45005">
        <ele>851.5</ele>
        <time>2022-06-09T08:15:24Z</time>
      </trkpt>
      <trkpt lat="44.74723" lon="4.45006">
        <ele>851.7</ele>
        <time>2022-06-09T08:15:26Z</time>
      </trkpt>
      <trkpt lat="44.74726" lon="4.45007">
        <ele>851.8</ele>
        <time>2022-06-09T08:15:27Z</time>
      </trkpt>
      <trkpt lat="44.74728" lon="4.45009">
        <ele>851.9</ele>
        <time>2022-06-09T08:15:28Z</time>
      </trkpt>
      <trkpt lat="44.74732" lon="4.4501">
        <ele>852</ele>
        <time>2022-06-09T08:15:30Z</time>
      </trkpt>
      <trkpt lat="44.74734" lon="4.45012">
        <ele>852.1</ele>
        <time>2022-06-09T08:15:31Z</time>
      </trkpt>
      <trkpt lat="44.74737" lon="4.45014">
        <ele>852.2</ele>
        <time>2022-06-09T08:15:33Z</time>
      </trkpt>
      <trkpt lat="44.74738" lon="4.45015">
        <ele>852.2</ele>
        <time>2022-06-09T08:15:34Z</time>
      </trkpt>
      <trkpt lat="44.74741" lon="4.45017">
        <ele>852.3</ele>
        <time>2022-06-09T08:15:35Z</time>
      </trkpt>
      <trkpt lat="44.74743" lon="4.45019">
        <ele>852.4</ele>
        <time>2022-06-09T08:15:36Z</time>
      </trkpt>
      <trkpt lat="44.74746" lon="4.45023">
        <ele>852.5</ele>
        <time>2022-06-09T08:15:38Z</time>
      </trkpt>
      <trkpt lat="44.74747" lon="4.45024">
        <ele>852.5</ele>
        <time>2022-06-09T08:15:39Z</time>
      </trkpt>
      <trkpt lat="44.74749" lon="4.45028">
        <ele>852.6</ele>
        <time>2022-06-09T08:15:40Z</time>
      </trkpt>
      <trkpt lat="44.7475" lon="4.45029">
        <ele>852.7</ele>
        <time>2022-06-09T08:15:41Z</time>
      </trkpt>
      <trkpt lat="44.74752" lon="4.45033">
        <ele>852.8</ele>
        <time>2022-06-09T08:15:42Z</time>
      </trkpt>
      <trkpt lat="44.74754" lon="4.45036">
        <ele>852.8</ele>
        <time>2022-06-09T08:15:43Z</time>
      </trkpt>
      <trkpt lat="44.74757" lon="4.45042">
        <ele>853</ele>
        <time>2022-06-09T08:15:45Z</time>
      </trkpt>
      <trkpt lat="44.74757" lon="4.45043">
        <ele>853</ele>
        <time>2022-06-09T08:15:46Z</time>
      </trkpt>
      <trkpt lat="44.74758" lon="4.45045">
        <ele>853</ele>
        <time>2022-06-09T08:15:47Z</time>
      </trkpt>
      <trkpt lat="44.74761" lon="4.4505">
        <ele>853.2</ele>
        <time>2022-06-09T08:15:48Z</time>
      </trkpt>
      <trkpt lat="44.74763" lon="4.45054">
        <ele>853.2</ele>
        <time>2022-06-09T08:15:50Z</time>
      </trkpt>
      <trkpt lat="44.74764" lon="4.45055">
        <ele>853.3</ele>
        <time>2022-06-09T08:15:51Z</time>
      </trkpt>
      <trkpt lat="44.74766" lon="4.45059">
        <ele>853.4</ele>
        <time>2022-06-09T08:15:52Z</time>
      </trkpt>
      <trkpt lat="44.74767" lon="4.45061">
        <ele>853.4</ele>
        <time>2022-06-09T08:15:53Z</time>
      </trkpt>
      <trkpt lat="44.74769" lon="4.45064">
        <ele>853.5</ele>
        <time>2022-06-09T08:15:54Z</time>
      </trkpt>
      <trkpt lat="44.7477" lon="4.45066">
        <ele>853.5</ele>
        <time>2022-06-09T08:15:55Z</time>
      </trkpt>
      <trkpt lat="44.74772" lon="4.45069">
        <ele>853.6</ele>
        <time>2022-06-09T08:15:56Z</time>
      </trkpt>
      <trkpt lat="44.74773" lon="4.4507">
        <ele>853.6</ele>
        <time>2022-06-09T08:15:57Z</time>
      </trkpt>
      <trkpt lat="44.74774" lon="4.45074">
        <ele>853.7</ele>
        <time>2022-06-09T08:15:58Z</time>
      </trkpt>
      <trkpt lat="44.74775" lon="4.45076">
        <ele>853.7</ele>
        <time>2022-06-09T08:15:59Z</time>
      </trkpt>
      <trkpt lat="44.74777" lon="4.45079">
        <ele>853.8</ele>
        <time>2022-06-09T08:16:00Z</time>
      </trkpt>
      <trkpt lat="44.74778" lon="4.4508">
        <ele>853.8</ele>
        <time>2022-06-09T08:16:01Z</time>
      </trkpt>
      <trkpt lat="44.7478" lon="4.45084">
        <ele>853.9</ele>
        <time>2022-06-09T08:16:02Z</time>
      </trkpt>
      <trkpt lat="44.74781" lon="4.45085">
        <ele>853.9</ele>
        <time>2022-06-09T08:16:03Z</time>
      </trkpt>
      <trkpt lat="44.74783" lon="4.45088">
        <ele>854</ele>
        <time>2022-06-09T08:16:04Z</time>
      </trkpt>
      <trkpt lat="44.74784" lon="4.45089">
        <ele>854</ele>
        <time>2022-06-09T08:16:05Z</time>
      </trkpt>
      <trkpt lat="44.74786" lon="4.45093">
        <ele>854.1</ele>
        <time>2022-06-09T08:16:06Z</time>
      </trkpt>
      <trkpt lat="44.74787" lon="4.45094">
        <ele>854.1</ele>
        <time>2022-06-09T08:16:07Z</time>
      </trkpt>
      <trkpt lat="44.74789" lon="4.45097">
        <ele>854.2</ele>
        <time>2022-06-09T08:16:08Z</time>
      </trkpt>
      <trkpt lat="44.7479" lon="4.45098">
        <ele>854.2</ele>
        <time>2022-06-09T08:16:09Z</time>
      </trkpt>
      <trkpt lat="44.74794" lon="4.451">
        <ele>854.3</ele>
        <time>2022-06-09T08:16:10Z</time>
      </trkpt>
      <trkpt lat="44.74795" lon="4.45101">
        <ele>854.3</ele>
        <time>2022-06-09T08:16:11Z</time>
      </trkpt>
      <trkpt lat="44.74798" lon="4.45104">
        <ele>854.4</ele>
        <time>2022-06-09T08:16:12Z</time>
      </trkpt>
      <trkpt lat="44.74799" lon="4.45105">
        <ele>854.4</ele>
        <time>2022-06-09T08:16:13Z</time>
      </trkpt>
      <trkpt lat="44.74801" lon="4.45107">
        <ele>854.5</ele>
        <time>2022-06-09T08:16:14Z</time>
      </trkpt>
      <trkpt lat="44.74804" lon="4.4511">
        <ele>854.5</ele>
        <time>2022-06-09T08:16:15Z</time>
      </trkpt>
      <trkpt lat="44.74805" lon="4.45111">
        <ele>854.6</ele>
        <time>2022-06-09T08:16:16Z</time>
      </trkpt>
      <trkpt lat="44.74808" lon="4.45112">
        <ele>854.6</ele>
        <time>2022-06-09T08:16:17Z</time>
      </trkpt>
      <trkpt lat="44.74812" lon="4.45114">
        <ele>854.7</ele>
        <time>2022-06-09T08:16:18Z</time>
      </trkpt>
      <trkpt lat="44.74816" lon="4.45116">
        <ele>854.8</ele>
        <time>2022-06-09T08:16:19Z</time>
      </trkpt>
      <trkpt lat="44.74818" lon="4.45117">
        <ele>854.8</ele>
        <time>2022-06-09T08:16:20Z</time>
      </trkpt>
      <trkpt lat="44.7482" lon="4.45119">
        <ele>854.9</ele>
        <time>2022-06-09T08:16:21Z</time>
      </trkpt>
      <trkpt lat="44.74823" lon="4.45121">
        <ele>855</ele>
        <time>2022-06-09T08:16:23Z</time>
      </trkpt>
      <trkpt lat="44.74828" lon="4.45125">
        <ele>855.1</ele>
        <time>2022-06-09T08:16:24Z</time>
      </trkpt>
      <trkpt lat="44.7483" lon="4.45128">
        <ele>855.2</ele>
        <time>2022-06-09T08:16:26Z</time>
      </trkpt>
      <trkpt lat="44.74834" lon="4.45131">
        <ele>855.3</ele>
        <time>2022-06-09T08:16:27Z</time>
      </trkpt>
      <trkpt lat="44.74836" lon="4.45133">
        <ele>855.4</ele>
        <time>2022-06-09T08:16:28Z</time>
      </trkpt>
      <trkpt lat="44.74839" lon="4.45137">
        <ele>855.5</ele>
        <time>2022-06-09T08:16:29Z</time>
      </trkpt>
      <trkpt lat="44.74842" lon="4.45141">
        <ele>855.5</ele>
        <time>2022-06-09T08:16:31Z</time>
      </trkpt>
      <trkpt lat="44.74845" lon="4.45144">
        <ele>855.6</ele>
        <time>2022-06-09T08:16:32Z</time>
      </trkpt>
      <trkpt lat="44.74848" lon="4.45147">
        <ele>855.7</ele>
        <time>2022-06-09T08:16:34Z</time>
      </trkpt>
      <trkpt lat="44.7485" lon="4.4515">
        <ele>855.8</ele>
        <time>2022-06-09T08:16:35Z</time>
      </trkpt>
      <trkpt lat="44.74851" lon="4.45152">
        <ele>855.8</ele>
        <time>2022-06-09T08:16:36Z</time>
      </trkpt>
      <trkpt lat="44.74854" lon="4.45154">
        <ele>855.9</ele>
        <time>2022-06-09T08:16:37Z</time>
      </trkpt>
      <trkpt lat="44.74857" lon="4.45159">
        <ele>856</ele>
        <time>2022-06-09T08:16:38Z</time>
      </trkpt>
      <trkpt lat="44.7486" lon="4.45162">
        <ele>856</ele>
        <time>2022-06-09T08:16:40Z</time>
      </trkpt>
      <trkpt lat="44.74862" lon="4.45165">
        <ele>856.1</ele>
        <time>2022-06-09T08:16:41Z</time>
      </trkpt>
      <trkpt lat="44.74865" lon="4.45168">
        <ele>856.2</ele>
        <time>2022-06-09T08:16:42Z</time>
      </trkpt>
      <trkpt lat="44.74866" lon="4.45169">
        <ele>856.2</ele>
        <time>2022-06-09T08:16:43Z</time>
      </trkpt>
      <trkpt lat="44.7487" lon="4.45173">
        <ele>856.3</ele>
        <time>2022-06-09T08:16:44Z</time>
      </trkpt>
      <trkpt lat="44.74872" lon="4.45176">
        <ele>856.4</ele>
        <time>2022-06-09T08:16:46Z</time>
      </trkpt>
      <trkpt lat="44.74875" lon="4.4518">
        <ele>856.5</ele>
        <time>2022-06-09T08:16:47Z</time>
      </trkpt>
      <trkpt lat="44.74877" lon="4.45183">
        <ele>856.6</ele>
        <time>2022-06-09T08:16:48Z</time>
      </trkpt>
      <trkpt lat="44.7488" lon="4.45186">
        <ele>856.7</ele>
        <time>2022-06-09T08:16:50Z</time>
      </trkpt>
      <trkpt lat="44.74884" lon="4.45189">
        <ele>856.8</ele>
        <time>2022-06-09T08:16:51Z</time>
      </trkpt>
      <trkpt lat="44.74886" lon="4.45192">
        <ele>856.9</ele>
        <time>2022-06-09T08:16:52Z</time>
      </trkpt>
      <trkpt lat="44.74889" lon="4.45194">
        <ele>857</ele>
        <time>2022-06-09T08:16:54Z</time>
      </trkpt>
      <trkpt lat="44.74892" lon="4.45196">
        <ele>857.1</ele>
        <time>2022-06-09T08:16:55Z</time>
      </trkpt>
      <trkpt lat="44.74895" lon="4.45198">
        <ele>857.2</ele>
        <time>2022-06-09T08:16:56Z</time>
      </trkpt>
      <trkpt lat="44.74897" lon="4.45199">
        <ele>857.3</ele>
        <time>2022-06-09T08:16:57Z</time>
      </trkpt>
      <trkpt lat="44.74903" lon="4.45202">
        <ele>857.4</ele>
        <time>2022-06-09T08:16:59Z</time>
      </trkpt>
      <trkpt lat="44.74906" lon="4.45203">
        <ele>857.5</ele>
        <time>2022-06-09T08:17:00Z</time>
      </trkpt>
      <trkpt lat="44.74909" lon="4.45204">
        <ele>857.6</ele>
        <time>2022-06-09T08:17:01Z</time>
      </trkpt>
      <trkpt lat="44.7491" lon="4.45205">
        <ele>857.6</ele>
        <time>2022-06-09T08:17:02Z</time>
      </trkpt>
      <trkpt lat="44.74914" lon="4.45204">
        <ele>857.8</ele>
        <time>2022-06-09T08:17:03Z</time>
      </trkpt>
      <trkpt lat="44.74916" lon="4.45205">
        <ele>857.8</ele>
        <time>2022-06-09T08:17:04Z</time>
      </trkpt>
      <trkpt lat="44.74918" lon="4.45204">
        <ele>857.9</ele>
        <time>2022-06-09T08:17:05Z</time>
      </trkpt>
      <trkpt lat="44.74921" lon="4.45205">
        <ele>857.9</ele>
        <time>2022-06-09T08:17:06Z</time>
      </trkpt>
      <trkpt lat="44.74924" lon="4.45205">
        <ele>858</ele>
        <time>2022-06-09T08:17:07Z</time>
      </trkpt>
      <trkpt lat="44.74929" lon="4.45205">
        <ele>858.2</ele>
        <time>2022-06-09T08:17:08Z</time>
      </trkpt>
      <trkpt lat="44.74932" lon="4.45205">
        <ele>858.2</ele>
        <time>2022-06-09T08:17:09Z</time>
      </trkpt>
      <trkpt lat="44.74935" lon="4.45205">
        <ele>858.3</ele>
        <time>2022-06-09T08:17:11Z</time>
      </trkpt>
      <trkpt lat="44.74938" lon="4.45205">
        <ele>858.4</ele>
        <time>2022-06-09T08:17:12Z</time>
      </trkpt>
      <trkpt lat="44.74941" lon="4.45205">
        <ele>858.5</ele>
        <time>2022-06-09T08:17:13Z</time>
      </trkpt>
      <trkpt lat="44.74944" lon="4.45205">
        <ele>858.5</ele>
        <time>2022-06-09T08:17:14Z</time>
      </trkpt>
      <trkpt lat="44.74948" lon="4.45205">
        <ele>858.6</ele>
        <time>2022-06-09T08:17:15Z</time>
      </trkpt>
      <trkpt lat="44.74951" lon="4.45204">
        <ele>858.7</ele>
        <time>2022-06-09T08:17:16Z</time>
      </trkpt>
      <trkpt lat="44.74954" lon="4.45204">
        <ele>858.7</ele>
        <time>2022-06-09T08:17:17Z</time>
      </trkpt>
      <trkpt lat="44.74958" lon="4.45203">
        <ele>858.8</ele>
        <time>2022-06-09T08:17:18Z</time>
      </trkpt>
      <trkpt lat="44.74962" lon="4.45203">
        <ele>858.9</ele>
        <time>2022-06-09T08:17:19Z</time>
      </trkpt>
      <trkpt lat="44.74966" lon="4.45203">
        <ele>858.9</ele>
        <time>2022-06-09T08:17:20Z</time>
      </trkpt>
      <trkpt lat="44.74969" lon="4.45202">
        <ele>859</ele>
        <time>2022-06-09T08:17:21Z</time>
      </trkpt>
      <trkpt lat="44.74975" lon="4.45203">
        <ele>859.1</ele>
        <time>2022-06-09T08:17:22Z</time>
      </trkpt>
      <trkpt lat="44.74978" lon="4.45203">
        <ele>859.2</ele>
        <time>2022-06-09T08:17:23Z</time>
      </trkpt>
      <trkpt lat="44.74984" lon="4.45203">
        <ele>859.3</ele>
        <time>2022-06-09T08:17:25Z</time>
      </trkpt>
      <trkpt lat="44.74988" lon="4.45203">
        <ele>859.4</ele>
        <time>2022-06-09T08:17:27Z</time>
      </trkpt>
      <trkpt lat="44.74991" lon="4.45203">
        <ele>859.5</ele>
        <time>2022-06-09T08:17:28Z</time>
      </trkpt>
      <trkpt lat="44.74998" lon="4.45203">
        <ele>859.7</ele>
        <time>2022-06-09T08:17:29Z</time>
      </trkpt>
      <trkpt lat="44.75001" lon="4.45203">
        <ele>859.7</ele>
        <time>2022-06-09T08:17:30Z</time>
      </trkpt>
      <trkpt lat="44.75004" lon="4.45203">
        <ele>859.8</ele>
        <time>2022-06-09T08:17:32Z</time>
      </trkpt>
      <trkpt lat="44.75009" lon="4.45204">
        <ele>859.9</ele>
        <time>2022-06-09T08:17:33Z</time>
      </trkpt>
      <trkpt lat="44.75012" lon="4.45204">
        <ele>860</ele>
        <time>2022-06-09T08:17:34Z</time>
      </trkpt>
      <trkpt lat="44.75016" lon="4.45204">
        <ele>860.1</ele>
        <time>2022-06-09T08:17:35Z</time>
      </trkpt>
      <trkpt lat="44.7502" lon="4.45204">
        <ele>860.2</ele>
        <time>2022-06-09T08:17:37Z</time>
      </trkpt>
      <trkpt lat="44.75023" lon="4.45205">
        <ele>860.3</ele>
        <time>2022-06-09T08:17:38Z</time>
      </trkpt>
      <trkpt lat="44.75026" lon="4.45205">
        <ele>860.4</ele>
        <time>2022-06-09T08:17:39Z</time>
      </trkpt>
      <trkpt lat="44.75032" lon="4.45206">
        <ele>860.6</ele>
        <time>2022-06-09T08:17:41Z</time>
      </trkpt>
      <trkpt lat="44.75035" lon="4.45207">
        <ele>860.7</ele>
        <time>2022-06-09T08:17:42Z</time>
      </trkpt>
      <trkpt lat="44.75038" lon="4.45208">
        <ele>860.8</ele>
        <time>2022-06-09T08:17:43Z</time>
      </trkpt>
      <trkpt lat="44.75041" lon="4.45209">
        <ele>860.9</ele>
        <time>2022-06-09T08:17:44Z</time>
      </trkpt>
      <trkpt lat="44.75044" lon="4.4521">
        <ele>861</ele>
        <time>2022-06-09T08:17:45Z</time>
      </trkpt>
      <trkpt lat="44.75047" lon="4.4521">
        <ele>861.1</ele>
        <time>2022-06-09T08:17:46Z</time>
      </trkpt>
      <trkpt lat="44.7505" lon="4.45211">
        <ele>861.2</ele>
        <time>2022-06-09T08:17:47Z</time>
      </trkpt>
      <trkpt lat="44.75053" lon="4.45212">
        <ele>861.3</ele>
        <time>2022-06-09T08:17:48Z</time>
      </trkpt>
      <trkpt lat="44.7506" lon="4.45213">
        <ele>861.5</ele>
        <time>2022-06-09T08:17:49Z</time>
      </trkpt>
      <trkpt lat="44.75066" lon="4.45216">
        <ele>861.7</ele>
        <time>2022-06-09T08:17:51Z</time>
      </trkpt>
      <trkpt lat="44.75069" lon="4.45217">
        <ele>861.8</ele>
        <time>2022-06-09T08:17:52Z</time>
      </trkpt>
      <trkpt lat="44.75073" lon="4.45217">
        <ele>861.9</ele>
        <time>2022-06-09T08:17:54Z</time>
      </trkpt>
      <trkpt lat="44.75076" lon="4.45218">
        <ele>861.9</ele>
        <time>2022-06-09T08:17:55Z</time>
      </trkpt>
      <trkpt lat="44.75079" lon="4.45218">
        <ele>862</ele>
        <time>2022-06-09T08:17:56Z</time>
      </trkpt>
      <trkpt lat="44.75082" lon="4.45218">
        <ele>862.1</ele>
        <time>2022-06-09T08:17:57Z</time>
      </trkpt>
      <trkpt lat="44.75085" lon="4.45218">
        <ele>862.2</ele>
        <time>2022-06-09T08:17:58Z</time>
      </trkpt>
      <trkpt lat="44.75088" lon="4.45218">
        <ele>862.3</ele>
        <time>2022-06-09T08:17:59Z</time>
      </trkpt>
      <trkpt lat="44.75091" lon="4.45218">
        <ele>862.4</ele>
        <time>2022-06-09T08:18:00Z</time>
      </trkpt>
      <trkpt lat="44.75094" lon="4.45218">
        <ele>862.5</ele>
        <time>2022-06-09T08:18:01Z</time>
      </trkpt>
      <trkpt lat="44.75097" lon="4.45218">
        <ele>862.6</ele>
        <time>2022-06-09T08:18:02Z</time>
      </trkpt>
      <trkpt lat="44.751" lon="4.45218">
        <ele>862.7</ele>
        <time>2022-06-09T08:18:03Z</time>
      </trkpt>
      <trkpt lat="44.75103" lon="4.45217">
        <ele>862.8</ele>
        <time>2022-06-09T08:18:04Z</time>
      </trkpt>
      <trkpt lat="44.75107" lon="4.45216">
        <ele>862.9</ele>
        <time>2022-06-09T08:18:05Z</time>
      </trkpt>
      <trkpt lat="44.7511" lon="4.45215">
        <ele>863</ele>
        <time>2022-06-09T08:18:06Z</time>
      </trkpt>
      <trkpt lat="44.75113" lon="4.45214">
        <ele>863.1</ele>
        <time>2022-06-09T08:18:07Z</time>
      </trkpt>
      <trkpt lat="44.75116" lon="4.45213">
        <ele>863.1</ele>
        <time>2022-06-09T08:18:08Z</time>
      </trkpt>
      <trkpt lat="44.7512" lon="4.45211">
        <ele>863.2</ele>
        <time>2022-06-09T08:18:09Z</time>
      </trkpt>
      <trkpt lat="44.75123" lon="4.4521">
        <ele>863.3</ele>
        <time>2022-06-09T08:18:10Z</time>
      </trkpt>
      <trkpt lat="44.75126" lon="4.45208">
        <ele>863.4</ele>
        <time>2022-06-09T08:18:11Z</time>
      </trkpt>
      <trkpt lat="44.75129" lon="4.45207">
        <ele>863.4</ele>
        <time>2022-06-09T08:18:12Z</time>
      </trkpt>
      <trkpt lat="44.75132" lon="4.45205">
        <ele>863.5</ele>
        <time>2022-06-09T08:18:13Z</time>
      </trkpt>
      <trkpt lat="44.75135" lon="4.45202">
        <ele>863.6</ele>
        <time>2022-06-09T08:18:14Z</time>
      </trkpt>
      <trkpt lat="44.75138" lon="4.45201">
        <ele>863.6</ele>
        <time>2022-06-09T08:18:15Z</time>
      </trkpt>
      <trkpt lat="44.75142" lon="4.45199">
        <ele>863.7</ele>
        <time>2022-06-09T08:18:16Z</time>
      </trkpt>
      <trkpt lat="44.75146" lon="4.45195">
        <ele>863.8</ele>
        <time>2022-06-09T08:18:17Z</time>
      </trkpt>
      <trkpt lat="44.75151" lon="4.45192">
        <ele>863.9</ele>
        <time>2022-06-09T08:18:18Z</time>
      </trkpt>
      <trkpt lat="44.75155" lon="4.45188">
        <ele>863.9</ele>
        <time>2022-06-09T08:18:20Z</time>
      </trkpt>
      <trkpt lat="44.75159" lon="4.45185">
        <ele>864</ele>
        <time>2022-06-09T08:18:21Z</time>
      </trkpt>
      <trkpt lat="44.75163" lon="4.45181">
        <ele>864.1</ele>
        <time>2022-06-09T08:18:22Z</time>
      </trkpt>
      <trkpt lat="44.75167" lon="4.45177">
        <ele>864.2</ele>
        <time>2022-06-09T08:18:23Z</time>
      </trkpt>
      <trkpt lat="44.75171" lon="4.45173">
        <ele>864.2</ele>
        <time>2022-06-09T08:18:25Z</time>
      </trkpt>
      <trkpt lat="44.75173" lon="4.4517">
        <ele>864.3</ele>
        <time>2022-06-09T08:18:26Z</time>
      </trkpt>
      <trkpt lat="44.75178" lon="4.45165">
        <ele>864.3</ele>
        <time>2022-06-09T08:18:28Z</time>
      </trkpt>
      <trkpt lat="44.7518" lon="4.45161">
        <ele>864.4</ele>
        <time>2022-06-09T08:18:29Z</time>
      </trkpt>
      <trkpt lat="44.75184" lon="4.45156">
        <ele>864.5</ele>
        <time>2022-06-09T08:18:30Z</time>
      </trkpt>
      <trkpt lat="44.75188" lon="4.4515">
        <ele>864.6</ele>
        <time>2022-06-09T08:18:31Z</time>
      </trkpt>
      <trkpt lat="44.7519" lon="4.45146">
        <ele>864.6</ele>
        <time>2022-06-09T08:18:32Z</time>
      </trkpt>
      <trkpt lat="44.75193" lon="4.45142">
        <ele>864.7</ele>
        <time>2022-06-09T08:18:33Z</time>
      </trkpt>
      <trkpt lat="44.75196" lon="4.45137">
        <ele>864.8</ele>
        <time>2022-06-09T08:18:35Z</time>
      </trkpt>
      <trkpt lat="44.75198" lon="4.45132">
        <ele>864.9</ele>
        <time>2022-06-09T08:18:36Z</time>
      </trkpt>
      <trkpt lat="44.75201" lon="4.45125">
        <ele>865</ele>
        <time>2022-06-09T08:18:37Z</time>
      </trkpt>
      <trkpt lat="44.75204" lon="4.45119">
        <ele>865.1</ele>
        <time>2022-06-09T08:18:38Z</time>
      </trkpt>
      <trkpt lat="44.75207" lon="4.45113">
        <ele>865.2</ele>
        <time>2022-06-09T08:18:40Z</time>
      </trkpt>
      <trkpt lat="44.75209" lon="4.45106">
        <ele>865.4</ele>
        <time>2022-06-09T08:18:41Z</time>
      </trkpt>
      <trkpt lat="44.75212" lon="4.45101">
        <ele>865.5</ele>
        <time>2022-06-09T08:18:42Z</time>
      </trkpt>
      <trkpt lat="44.75215" lon="4.45095">
        <ele>865.7</ele>
        <time>2022-06-09T08:18:44Z</time>
      </trkpt>
      <trkpt lat="44.75217" lon="4.45091">
        <ele>865.8</ele>
        <time>2022-06-09T08:18:45Z</time>
      </trkpt>
      <trkpt lat="44.7522" lon="4.45084">
        <ele>865.9</ele>
        <time>2022-06-09T08:18:46Z</time>
      </trkpt>
      <trkpt lat="44.75224" lon="4.45079">
        <ele>866.1</ele>
        <time>2022-06-09T08:18:48Z</time>
      </trkpt>
      <trkpt lat="44.75226" lon="4.45075">
        <ele>866.2</ele>
        <time>2022-06-09T08:18:49Z</time>
      </trkpt>
      <trkpt lat="44.75229" lon="4.45072">
        <ele>866.3</ele>
        <time>2022-06-09T08:18:50Z</time>
      </trkpt>
      <trkpt lat="44.75231" lon="4.45069">
        <ele>866.3</ele>
        <time>2022-06-09T08:18:51Z</time>
      </trkpt>
      <trkpt lat="44.75233" lon="4.45065">
        <ele>866.4</ele>
        <time>2022-06-09T08:18:52Z</time>
      </trkpt>
      <trkpt lat="44.75235" lon="4.45062">
        <ele>866.5</ele>
        <time>2022-06-09T08:18:53Z</time>
      </trkpt>
      <trkpt lat="44.75237" lon="4.45059">
        <ele>866.6</ele>
        <time>2022-06-09T08:18:54Z</time>
      </trkpt>
      <trkpt lat="44.75239" lon="4.45056">
        <ele>866.7</ele>
        <time>2022-06-09T08:18:55Z</time>
      </trkpt>
      <trkpt lat="44.75241" lon="4.45053">
        <ele>866.7</ele>
        <time>2022-06-09T08:18:56Z</time>
      </trkpt>
      <trkpt lat="44.75243" lon="4.45051">
        <ele>866.8</ele>
        <time>2022-06-09T08:18:57Z</time>
      </trkpt>
      <trkpt lat="44.75246" lon="4.45048">
        <ele>866.9</ele>
        <time>2022-06-09T08:18:58Z</time>
      </trkpt>
      <trkpt lat="44.75248" lon="4.45045">
        <ele>867</ele>
        <time>2022-06-09T08:18:59Z</time>
      </trkpt>
      <trkpt lat="44.75251" lon="4.45042">
        <ele>867.1</ele>
        <time>2022-06-09T08:19:00Z</time>
      </trkpt>
      <trkpt lat="44.75252" lon="4.4504">
        <ele>867.1</ele>
        <time>2022-06-09T08:19:01Z</time>
      </trkpt>
      <trkpt lat="44.75255" lon="4.45037">
        <ele>867.2</ele>
        <time>2022-06-09T08:19:02Z</time>
      </trkpt>
      <trkpt lat="44.75257" lon="4.45035">
        <ele>867.3</ele>
        <time>2022-06-09T08:19:03Z</time>
      </trkpt>
      <trkpt lat="44.75261" lon="4.45032">
        <ele>867.4</ele>
        <time>2022-06-09T08:19:05Z</time>
      </trkpt>
      <trkpt lat="44.75264" lon="4.45029">
        <ele>867.5</ele>
        <time>2022-06-09T08:19:06Z</time>
      </trkpt>
      <trkpt lat="44.75267" lon="4.45025">
        <ele>867.6</ele>
        <time>2022-06-09T08:19:07Z</time>
      </trkpt>
      <trkpt lat="44.7527" lon="4.45021">
        <ele>867.7</ele>
        <time>2022-06-09T08:19:08Z</time>
      </trkpt>
      <trkpt lat="44.75273" lon="4.45017">
        <ele>867.8</ele>
        <time>2022-06-09T08:19:09Z</time>
      </trkpt>
      <trkpt lat="44.75275" lon="4.45015">
        <ele>867.9</ele>
        <time>2022-06-09T08:19:11Z</time>
      </trkpt>
      <trkpt lat="44.75277" lon="4.45012">
        <ele>868</ele>
        <time>2022-06-09T08:19:12Z</time>
      </trkpt>
      <trkpt lat="44.7528" lon="4.45009">
        <ele>868.1</ele>
        <time>2022-06-09T08:19:13Z</time>
      </trkpt>
      <trkpt lat="44.75282" lon="4.45006">
        <ele>868.1</ele>
        <time>2022-06-09T08:19:14Z</time>
      </trkpt>
      <trkpt lat="44.75284" lon="4.45003">
        <ele>868.2</ele>
        <time>2022-06-09T08:19:15Z</time>
      </trkpt>
      <trkpt lat="44.75287" lon="4.45">
        <ele>868.3</ele>
        <time>2022-06-09T08:19:16Z</time>
      </trkpt>
      <trkpt lat="44.75291" lon="4.44995">
        <ele>868.5</ele>
        <time>2022-06-09T08:19:18Z</time>
      </trkpt>
      <trkpt lat="44.75294" lon="4.44992">
        <ele>868.6</ele>
        <time>2022-06-09T08:19:19Z</time>
      </trkpt>
      <trkpt lat="44.75298" lon="4.44989">
        <ele>868.8</ele>
        <time>2022-06-09T08:19:20Z</time>
      </trkpt>
      <trkpt lat="44.753" lon="4.44987">
        <ele>868.8</ele>
        <time>2022-06-09T08:19:21Z</time>
      </trkpt>
      <trkpt lat="44.75303" lon="4.44985">
        <ele>868.9</ele>
        <time>2022-06-09T08:19:22Z</time>
      </trkpt>
      <trkpt lat="44.75306" lon="4.44982">
        <ele>869</ele>
        <time>2022-06-09T08:19:23Z</time>
      </trkpt>
      <trkpt lat="44.7531" lon="4.4498">
        <ele>869.1</ele>
        <time>2022-06-09T08:19:25Z</time>
      </trkpt>
      <trkpt lat="44.75312" lon="4.44979">
        <ele>869.2</ele>
        <time>2022-06-09T08:19:26Z</time>
      </trkpt>
      <trkpt lat="44.75317" lon="4.44977">
        <ele>869.4</ele>
        <time>2022-06-09T08:19:27Z</time>
      </trkpt>
      <trkpt lat="44.75319" lon="4.44977">
        <ele>869.4</ele>
        <time>2022-06-09T08:19:28Z</time>
      </trkpt>
      <trkpt lat="44.75323" lon="4.44976">
        <ele>869.5</ele>
        <time>2022-06-09T08:19:29Z</time>
      </trkpt>
      <trkpt lat="44.75325" lon="4.44976">
        <ele>869.6</ele>
        <time>2022-06-09T08:19:30Z</time>
      </trkpt>
      <trkpt lat="44.75328" lon="4.44975">
        <ele>869.7</ele>
        <time>2022-06-09T08:19:31Z</time>
      </trkpt>
      <trkpt lat="44.75333" lon="4.44974">
        <ele>869.9</ele>
        <time>2022-06-09T08:19:33Z</time>
      </trkpt>
      <trkpt lat="44.75335" lon="4.44973">
        <ele>869.9</ele>
        <time>2022-06-09T08:19:34Z</time>
      </trkpt>
      <trkpt lat="44.75336" lon="4.44973">
        <ele>870</ele>
        <time>2022-06-09T08:19:35Z</time>
      </trkpt>
      <trkpt lat="44.7534" lon="4.44972">
        <ele>870.1</ele>
        <time>2022-06-09T08:19:36Z</time>
      </trkpt>
      <trkpt lat="44.75341" lon="4.44972">
        <ele>870.1</ele>
        <time>2022-06-09T08:19:37Z</time>
      </trkpt>
      <trkpt lat="44.75346" lon="4.4497">
        <ele>870.3</ele>
        <time>2022-06-09T08:19:38Z</time>
      </trkpt>
      <trkpt lat="44.75348" lon="4.4497">
        <ele>870.4</ele>
        <time>2022-06-09T08:19:39Z</time>
      </trkpt>
      <trkpt lat="44.75351" lon="4.44969">
        <ele>870.4</ele>
        <time>2022-06-09T08:19:40Z</time>
      </trkpt>
      <trkpt lat="44.75356" lon="4.44968">
        <ele>870.6</ele>
        <time>2022-06-09T08:19:42Z</time>
      </trkpt>
      <trkpt lat="44.75358" lon="4.44967">
        <ele>870.7</ele>
        <time>2022-06-09T08:19:43Z</time>
      </trkpt>
      <trkpt lat="44.75362" lon="4.44966">
        <ele>870.8</ele>
        <time>2022-06-09T08:19:45Z</time>
      </trkpt>
      <trkpt lat="44.75365" lon="4.44965">
        <ele>870.8</ele>
        <time>2022-06-09T08:19:46Z</time>
      </trkpt>
      <trkpt lat="44.75367" lon="4.44964">
        <ele>870.9</ele>
        <time>2022-06-09T08:19:47Z</time>
      </trkpt>
      <trkpt lat="44.7537" lon="4.44963">
        <ele>871</ele>
        <time>2022-06-09T08:19:48Z</time>
      </trkpt>
      <trkpt lat="44.75376" lon="4.4496">
        <ele>871.1</ele>
        <time>2022-06-09T08:19:49Z</time>
      </trkpt>
      <trkpt lat="44.75379" lon="4.44959">
        <ele>871.2</ele>
        <time>2022-06-09T08:19:51Z</time>
      </trkpt>
      <trkpt lat="44.75382" lon="4.44958">
        <ele>871.3</ele>
        <time>2022-06-09T08:19:52Z</time>
      </trkpt>
      <trkpt lat="44.75385" lon="4.44956">
        <ele>871.4</ele>
        <time>2022-06-09T08:19:53Z</time>
      </trkpt>
      <trkpt lat="44.75388" lon="4.44955">
        <ele>871.5</ele>
        <time>2022-06-09T08:19:54Z</time>
      </trkpt>
      <trkpt lat="44.75391" lon="4.44953">
        <ele>871.5</ele>
        <time>2022-06-09T08:19:55Z</time>
      </trkpt>
      <trkpt lat="44.75394" lon="4.44951">
        <ele>871.6</ele>
        <time>2022-06-09T08:19:56Z</time>
      </trkpt>
      <trkpt lat="44.75396" lon="4.44949">
        <ele>871.7</ele>
        <time>2022-06-09T08:19:57Z</time>
      </trkpt>
      <trkpt lat="44.75399" lon="4.44948">
        <ele>871.8</ele>
        <time>2022-06-09T08:19:58Z</time>
      </trkpt>
      <trkpt lat="44.75405" lon="4.44944">
        <ele>871.9</ele>
        <time>2022-06-09T08:19:59Z</time>
      </trkpt>
      <trkpt lat="44.75408" lon="4.44942">
        <ele>872</ele>
        <time>2022-06-09T08:20:01Z</time>
      </trkpt>
      <trkpt lat="44.75412" lon="4.44939">
        <ele>872.1</ele>
        <time>2022-06-09T08:20:02Z</time>
      </trkpt>
      <trkpt lat="44.75415" lon="4.44936">
        <ele>872.2</ele>
        <time>2022-06-09T08:20:03Z</time>
      </trkpt>
      <trkpt lat="44.75419" lon="4.44932">
        <ele>872.3</ele>
        <time>2022-06-09T08:20:05Z</time>
      </trkpt>
      <trkpt lat="44.75421" lon="4.44929">
        <ele>872.4</ele>
        <time>2022-06-09T08:20:06Z</time>
      </trkpt>
      <trkpt lat="44.75424" lon="4.44926">
        <ele>872.5</ele>
        <time>2022-06-09T08:20:07Z</time>
      </trkpt>
      <trkpt lat="44.75427" lon="4.44923">
        <ele>872.6</ele>
        <time>2022-06-09T08:20:08Z</time>
      </trkpt>
      <trkpt lat="44.75429" lon="4.44921">
        <ele>872.7</ele>
        <time>2022-06-09T08:20:09Z</time>
      </trkpt>
      <trkpt lat="44.75433" lon="4.44917">
        <ele>872.8</ele>
        <time>2022-06-09T08:20:10Z</time>
      </trkpt>
      <trkpt lat="44.75435" lon="4.44914">
        <ele>872.8</ele>
        <time>2022-06-09T08:20:11Z</time>
      </trkpt>
      <trkpt lat="44.75438" lon="4.4491">
        <ele>872.9</ele>
        <time>2022-06-09T08:20:13Z</time>
      </trkpt>
      <trkpt lat="44.75441" lon="4.44905">
        <ele>873</ele>
        <time>2022-06-09T08:20:14Z</time>
      </trkpt>
      <trkpt lat="44.75444" lon="4.449">
        <ele>873.1</ele>
        <time>2022-06-09T08:20:16Z</time>
      </trkpt>
      <trkpt lat="44.75446" lon="4.44896">
        <ele>873.2</ele>
        <time>2022-06-09T08:20:17Z</time>
      </trkpt>
      <trkpt lat="44.7545" lon="4.4489">
        <ele>873.2</ele>
        <time>2022-06-09T08:20:18Z</time>
      </trkpt>
      <trkpt lat="44.75452" lon="4.44886">
        <ele>873.2</ele>
        <time>2022-06-09T08:20:20Z</time>
      </trkpt>
      <trkpt lat="44.75455" lon="4.44879">
        <ele>873.3</ele>
        <time>2022-06-09T08:20:21Z</time>
      </trkpt>
      <trkpt lat="44.75457" lon="4.44873">
        <ele>873.3</ele>
        <time>2022-06-09T08:20:22Z</time>
      </trkpt>
      <trkpt lat="44.75459" lon="4.44869">
        <ele>873.3</ele>
        <time>2022-06-09T08:20:23Z</time>
      </trkpt>
      <trkpt lat="44.75461" lon="4.44863">
        <ele>873.3</ele>
        <time>2022-06-09T08:20:25Z</time>
      </trkpt>
      <trkpt lat="44.75465" lon="4.44854">
        <ele>873.3</ele>
        <time>2022-06-09T08:20:26Z</time>
      </trkpt>
      <trkpt lat="44.75468" lon="4.44845">
        <ele>873.4</ele>
        <time>2022-06-09T08:20:28Z</time>
      </trkpt>
      <trkpt lat="44.7547" lon="4.44838">
        <ele>873.4</ele>
        <time>2022-06-09T08:20:29Z</time>
      </trkpt>
      <trkpt lat="44.75473" lon="4.44831">
        <ele>873.4</ele>
        <time>2022-06-09T08:20:31Z</time>
      </trkpt>
      <trkpt lat="44.75478" lon="4.44819">
        <ele>873.4</ele>
        <time>2022-06-09T08:20:33Z</time>
      </trkpt>
      <trkpt lat="44.7548" lon="4.44814">
        <ele>873.4</ele>
        <time>2022-06-09T08:20:34Z</time>
      </trkpt>
      <trkpt lat="44.75483" lon="4.44808">
        <ele>873.4</ele>
        <time>2022-06-09T08:20:35Z</time>
      </trkpt>
      <trkpt lat="44.75485" lon="4.44802">
        <ele>873.4</ele>
        <time>2022-06-09T08:20:36Z</time>
      </trkpt>
      <trkpt lat="44.75487" lon="4.44797">
        <ele>873.4</ele>
        <time>2022-06-09T08:20:37Z</time>
      </trkpt>
      <trkpt lat="44.75489" lon="4.44791">
        <ele>873.5</ele>
        <time>2022-06-09T08:20:38Z</time>
      </trkpt>
      <trkpt lat="44.75491" lon="4.44785">
        <ele>873.5</ele>
        <time>2022-06-09T08:20:39Z</time>
      </trkpt>
      <trkpt lat="44.75493" lon="4.44779">
        <ele>873.5</ele>
        <time>2022-06-09T08:20:40Z</time>
      </trkpt>
      <trkpt lat="44.75495" lon="4.44773">
        <ele>873.5</ele>
        <time>2022-06-09T08:20:41Z</time>
      </trkpt>
      <trkpt lat="44.75496" lon="4.44766">
        <ele>873.5</ele>
        <time>2022-06-09T08:20:42Z</time>
      </trkpt>
      <trkpt lat="44.75498" lon="4.4476">
        <ele>873.5</ele>
        <time>2022-06-09T08:20:43Z</time>
      </trkpt>
      <trkpt lat="44.75499" lon="4.44753">
        <ele>873.5</ele>
        <time>2022-06-09T08:20:44Z</time>
      </trkpt>
      <trkpt lat="44.755" lon="4.44746">
        <ele>873.6</ele>
        <time>2022-06-09T08:20:45Z</time>
      </trkpt>
      <trkpt lat="44.75501" lon="4.44739">
        <ele>873.6</ele>
        <time>2022-06-09T08:20:46Z</time>
      </trkpt>
      <trkpt lat="44.75502" lon="4.44733">
        <ele>873.6</ele>
        <time>2022-06-09T08:20:47Z</time>
      </trkpt>
      <trkpt lat="44.75502" lon="4.44726">
        <ele>873.6</ele>
        <time>2022-06-09T08:20:48Z</time>
      </trkpt>
      <trkpt lat="44.75502" lon="4.44719">
        <ele>873.6</ele>
        <time>2022-06-09T08:20:49Z</time>
      </trkpt>
      <trkpt lat="44.75503" lon="4.44712">
        <ele>873.6</ele>
        <time>2022-06-09T08:20:50Z</time>
      </trkpt>
      <trkpt lat="44.75503" lon="4.44705">
        <ele>873.5</ele>
        <time>2022-06-09T08:20:51Z</time>
      </trkpt>
      <trkpt lat="44.75503" lon="4.44697">
        <ele>873.5</ele>
        <time>2022-06-09T08:20:52Z</time>
      </trkpt>
      <trkpt lat="44.75502" lon="4.4469">
        <ele>873.5</ele>
        <time>2022-06-09T08:20:53Z</time>
      </trkpt>
      <trkpt lat="44.75502" lon="4.44683">
        <ele>873.5</ele>
        <time>2022-06-09T08:20:54Z</time>
      </trkpt>
      <trkpt lat="44.75501" lon="4.44675">
        <ele>873.4</ele>
        <time>2022-06-09T08:20:55Z</time>
      </trkpt>
      <trkpt lat="44.75501" lon="4.44668">
        <ele>873.4</ele>
        <time>2022-06-09T08:20:56Z</time>
      </trkpt>
      <trkpt lat="44.75501" lon="4.44661">
        <ele>873.4</ele>
        <time>2022-06-09T08:20:57Z</time>
      </trkpt>
      <trkpt lat="44.755" lon="4.44653">
        <ele>873.3</ele>
        <time>2022-06-09T08:20:58Z</time>
      </trkpt>
      <trkpt lat="44.755" lon="4.44646">
        <ele>873.3</ele>
        <time>2022-06-09T08:20:59Z</time>
      </trkpt>
      <trkpt lat="44.755" lon="4.44638">
        <ele>873.3</ele>
        <time>2022-06-09T08:21:00Z</time>
      </trkpt>
      <trkpt lat="44.755" lon="4.44631">
        <ele>873.3</ele>
        <time>2022-06-09T08:21:01Z</time>
      </trkpt>
      <trkpt lat="44.75501" lon="4.44624">
        <ele>873.3</ele>
        <time>2022-06-09T08:21:02Z</time>
      </trkpt>
      <trkpt lat="44.75501" lon="4.44616">
        <ele>873.3</ele>
        <time>2022-06-09T08:21:03Z</time>
      </trkpt>
      <trkpt lat="44.75502" lon="4.44609">
        <ele>873.3</ele>
        <time>2022-06-09T08:21:04Z</time>
      </trkpt>
      <trkpt lat="44.75503" lon="4.44602">
        <ele>873.3</ele>
        <time>2022-06-09T08:21:05Z</time>
      </trkpt>
      <trkpt lat="44.75505" lon="4.44595">
        <ele>873.3</ele>
        <time>2022-06-09T08:21:06Z</time>
      </trkpt>
      <trkpt lat="44.75507" lon="4.44588">
        <ele>873.3</ele>
        <time>2022-06-09T08:21:07Z</time>
      </trkpt>
      <trkpt lat="44.75509" lon="4.44581">
        <ele>873.3</ele>
        <time>2022-06-09T08:21:08Z</time>
      </trkpt>
      <trkpt lat="44.75511" lon="4.44575">
        <ele>873.3</ele>
        <time>2022-06-09T08:21:09Z</time>
      </trkpt>
      <trkpt lat="44.75513" lon="4.44569">
        <ele>873.3</ele>
        <time>2022-06-09T08:21:10Z</time>
      </trkpt>
      <trkpt lat="44.75515" lon="4.44562">
        <ele>873.3</ele>
        <time>2022-06-09T08:21:11Z</time>
      </trkpt>
      <trkpt lat="44.75516" lon="4.44556">
        <ele>873.3</ele>
        <time>2022-06-09T08:21:12Z</time>
      </trkpt>
      <trkpt lat="44.75517" lon="4.44549">
        <ele>873.3</ele>
        <time>2022-06-09T08:21:13Z</time>
      </trkpt>
      <trkpt lat="44.75518" lon="4.44542">
        <ele>873.3</ele>
        <time>2022-06-09T08:21:14Z</time>
      </trkpt>
      <trkpt lat="44.75519" lon="4.44535">
        <ele>873.3</ele>
        <time>2022-06-09T08:21:15Z</time>
      </trkpt>
      <trkpt lat="44.75519" lon="4.44528">
        <ele>873.3</ele>
        <time>2022-06-09T08:21:16Z</time>
      </trkpt>
      <trkpt lat="44.75519" lon="4.44521">
        <ele>873.2</ele>
        <time>2022-06-09T08:21:17Z</time>
      </trkpt>
      <trkpt lat="44.7552" lon="4.44513">
        <ele>873.2</ele>
        <time>2022-06-09T08:21:18Z</time>
      </trkpt>
      <trkpt lat="44.7552" lon="4.44506">
        <ele>873.2</ele>
        <time>2022-06-09T08:21:19Z</time>
      </trkpt>
      <trkpt lat="44.7552" lon="4.44498">
        <ele>873.2</ele>
        <time>2022-06-09T08:21:20Z</time>
      </trkpt>
      <trkpt lat="44.7552" lon="4.44491">
        <ele>873.2</ele>
        <time>2022-06-09T08:21:21Z</time>
      </trkpt>
      <trkpt lat="44.75519" lon="4.44484">
        <ele>873.2</ele>
        <time>2022-06-09T08:21:22Z</time>
      </trkpt>
      <trkpt lat="44.75518" lon="4.44478">
        <ele>873.3</ele>
        <time>2022-06-09T08:21:23Z</time>
      </trkpt>
      <trkpt lat="44.75518" lon="4.44471">
        <ele>873.3</ele>
        <time>2022-06-09T08:21:24Z</time>
      </trkpt>
      <trkpt lat="44.75517" lon="4.44465">
        <ele>873.3</ele>
        <time>2022-06-09T08:21:25Z</time>
      </trkpt>
      <trkpt lat="44.75516" lon="4.44458">
        <ele>873.4</ele>
        <time>2022-06-09T08:21:26Z</time>
      </trkpt>
      <trkpt lat="44.75515" lon="4.44452">
        <ele>873.4</ele>
        <time>2022-06-09T08:21:27Z</time>
      </trkpt>
      <trkpt lat="44.75513" lon="4.44446">
        <ele>873.4</ele>
        <time>2022-06-09T08:21:28Z</time>
      </trkpt>
      <trkpt lat="44.75512" lon="4.44441">
        <ele>873.4</ele>
        <time>2022-06-09T08:21:29Z</time>
      </trkpt>
      <trkpt lat="44.75511" lon="4.44436">
        <ele>873.4</ele>
        <time>2022-06-09T08:21:30Z</time>
      </trkpt>
      <trkpt lat="44.7551" lon="4.44431">
        <ele>873.4</ele>
        <time>2022-06-09T08:21:31Z</time>
      </trkpt>
      <trkpt lat="44.75508" lon="4.44422">
        <ele>873.4</ele>
        <time>2022-06-09T08:21:32Z</time>
      </trkpt>
      <trkpt lat="44.75507" lon="4.44415">
        <ele>873.5</ele>
        <time>2022-06-09T08:21:33Z</time>
      </trkpt>
      <trkpt lat="44.75505" lon="4.44409">
        <ele>873.5</ele>
        <time>2022-06-09T08:21:34Z</time>
      </trkpt>
      <trkpt lat="44.75504" lon="4.44403">
        <ele>873.5</ele>
        <time>2022-06-09T08:21:35Z</time>
      </trkpt>
      <trkpt lat="44.75505" lon="4.44398">
        <ele>873.5</ele>
        <time>2022-06-09T08:21:36Z</time>
      </trkpt>
      <trkpt lat="44.75503" lon="4.4439">
        <ele>873.6</ele>
        <time>2022-06-09T08:21:37Z</time>
      </trkpt>
      <trkpt lat="44.75501" lon="4.44382">
        <ele>873.6</ele>
        <time>2022-06-09T08:21:39Z</time>
      </trkpt>
      <trkpt lat="44.75499" lon="4.44373">
        <ele>873.7</ele>
        <time>2022-06-09T08:21:40Z</time>
      </trkpt>
      <trkpt lat="44.75497" lon="4.44365">
        <ele>873.8</ele>
        <time>2022-06-09T08:21:42Z</time>
      </trkpt>
      <trkpt lat="44.75496" lon="4.44359">
        <ele>873.9</ele>
        <time>2022-06-09T08:21:43Z</time>
      </trkpt>
      <trkpt lat="44.75495" lon="4.44353">
        <ele>873.9</ele>
        <time>2022-06-09T08:21:44Z</time>
      </trkpt>
      <trkpt lat="44.75494" lon="4.44349">
        <ele>874</ele>
        <time>2022-06-09T08:21:45Z</time>
      </trkpt>
      <trkpt lat="44.75493" lon="4.44342">
        <ele>874.1</ele>
        <time>2022-06-09T08:21:46Z</time>
      </trkpt>
      <trkpt lat="44.75492" lon="4.44338">
        <ele>874.1</ele>
        <time>2022-06-09T08:21:47Z</time>
      </trkpt>
      <trkpt lat="44.75491" lon="4.44332">
        <ele>874.1</ele>
        <time>2022-06-09T08:21:49Z</time>
      </trkpt>
      <trkpt lat="44.75489" lon="4.44325">
        <ele>874.2</ele>
        <time>2022-06-09T08:21:51Z</time>
      </trkpt>
      <trkpt lat="44.75488" lon="4.4432">
        <ele>874.4</ele>
        <time>2022-06-09T08:21:52Z</time>
      </trkpt>
      <trkpt lat="44.75488" lon="4.44318">
        <ele>874.5</ele>
        <time>2022-06-09T08:21:53Z</time>
      </trkpt>
      <trkpt lat="44.75487" lon="4.44313">
        <ele>874.7</ele>
        <time>2022-06-09T08:21:55Z</time>
      </trkpt>
      <trkpt lat="44.75487" lon="4.44307">
        <ele>874.9</ele>
        <time>2022-06-09T08:21:56Z</time>
      </trkpt>
      <trkpt lat="44.75486" lon="4.44302">
        <ele>875</ele>
        <time>2022-06-09T08:21:58Z</time>
      </trkpt>
      <trkpt lat="44.75486" lon="4.44301">
        <ele>875.1</ele>
        <time>2022-06-09T08:21:59Z</time>
      </trkpt>
      <trkpt lat="44.75485" lon="4.44295">
        <ele>875.3</ele>
        <time>2022-06-09T08:22:00Z</time>
      </trkpt>
      <trkpt lat="44.75484" lon="4.44292">
        <ele>875.4</ele>
        <time>2022-06-09T08:22:01Z</time>
      </trkpt>
      <trkpt lat="44.75483" lon="4.4429">
        <ele>875.5</ele>
        <time>2022-06-09T08:22:02Z</time>
      </trkpt>
      <trkpt lat="44.75484" lon="4.44286">
        <ele>875.7</ele>
        <time>2022-06-09T08:22:04Z</time>
      </trkpt>
      <trkpt lat="44.75484" lon="4.44284">
        <ele>875.7</ele>
        <time>2022-06-09T08:22:05Z</time>
      </trkpt>
      <trkpt lat="44.75483" lon="4.4428">
        <ele>875.9</ele>
        <time>2022-06-09T08:22:06Z</time>
      </trkpt>
      <trkpt lat="44.75482" lon="4.44279">
        <ele>876</ele>
        <time>2022-06-09T08:22:07Z</time>
      </trkpt>
      <trkpt lat="44.75482" lon="4.44275">
        <ele>876.1</ele>
        <time>2022-06-09T08:22:08Z</time>
      </trkpt>
      <trkpt lat="44.75482" lon="4.44274">
        <ele>876.2</ele>
        <time>2022-06-09T08:22:09Z</time>
      </trkpt>
      <trkpt lat="44.7548" lon="4.4427">
        <ele>876.3</ele>
        <time>2022-06-09T08:22:10Z</time>
      </trkpt>
      <trkpt lat="44.7548" lon="4.44268">
        <ele>876.4</ele>
        <time>2022-06-09T08:22:11Z</time>
      </trkpt>
      <trkpt lat="44.75478" lon="4.44264">
        <ele>876.6</ele>
        <time>2022-06-09T08:22:12Z</time>
      </trkpt>
      <trkpt lat="44.75478" lon="4.44262">
        <ele>876.6</ele>
        <time>2022-06-09T08:22:13Z</time>
      </trkpt>
      <trkpt lat="44.75477" lon="4.44258">
        <ele>876.8</ele>
        <time>2022-06-09T08:22:14Z</time>
      </trkpt>
      <trkpt lat="44.75477" lon="4.44257">
        <ele>876.9</ele>
        <time>2022-06-09T08:22:15Z</time>
      </trkpt>
      <trkpt lat="44.75476" lon="4.44252">
        <ele>877.1</ele>
        <time>2022-06-09T08:22:16Z</time>
      </trkpt>
      <trkpt lat="44.75474" lon="4.44245">
        <ele>877.3</ele>
        <time>2022-06-09T08:22:18Z</time>
      </trkpt>
      <trkpt lat="44.75474" lon="4.44242">
        <ele>877.5</ele>
        <time>2022-06-09T08:22:19Z</time>
      </trkpt>
      <trkpt lat="44.75474" lon="4.44239">
        <ele>877.6</ele>
        <time>2022-06-09T08:22:20Z</time>
      </trkpt>
      <trkpt lat="44.75473" lon="4.44235">
        <ele>877.7</ele>
        <time>2022-06-09T08:22:22Z</time>
      </trkpt>
      <trkpt lat="44.75472" lon="4.4423">
        <ele>877.9</ele>
        <time>2022-06-09T08:22:23Z</time>
      </trkpt>
      <trkpt lat="44.75472" lon="4.44229">
        <ele>878</ele>
        <time>2022-06-09T08:22:24Z</time>
      </trkpt>
      <trkpt lat="44.75472" lon="4.44224">
        <ele>878.1</ele>
        <time>2022-06-09T08:22:25Z</time>
      </trkpt>
      <trkpt lat="44.75472" lon="4.44223">
        <ele>878.2</ele>
        <time>2022-06-09T08:22:26Z</time>
      </trkpt>
      <trkpt lat="44.7547" lon="4.44218">
        <ele>878.4</ele>
        <time>2022-06-09T08:22:27Z</time>
      </trkpt>
      <trkpt lat="44.7547" lon="4.44216">
        <ele>878.5</ele>
        <time>2022-06-09T08:22:28Z</time>
      </trkpt>
      <trkpt lat="44.75469" lon="4.4421">
        <ele>878.7</ele>
        <time>2022-06-09T08:22:30Z</time>
      </trkpt>
      <trkpt lat="44.75469" lon="4.44208">
        <ele>878.8</ele>
        <time>2022-06-09T08:22:31Z</time>
      </trkpt>
      <trkpt lat="44.75469" lon="4.44206">
        <ele>878.9</ele>
        <time>2022-06-09T08:22:32Z</time>
      </trkpt>
      <trkpt lat="44.75468" lon="4.44202">
        <ele>879</ele>
        <time>2022-06-09T08:22:33Z</time>
      </trkpt>
      <trkpt lat="44.75467" lon="4.44197">
        <ele>879.2</ele>
        <time>2022-06-09T08:22:34Z</time>
      </trkpt>
      <trkpt lat="44.75466" lon="4.44191">
        <ele>879.5</ele>
        <time>2022-06-09T08:22:36Z</time>
      </trkpt>
      <trkpt lat="44.75466" lon="4.44188">
        <ele>879.6</ele>
        <time>2022-06-09T08:22:37Z</time>
      </trkpt>
      <trkpt lat="44.75465" lon="4.44186">
        <ele>879.7</ele>
        <time>2022-06-09T08:22:38Z</time>
      </trkpt>
      <trkpt lat="44.75464" lon="4.44181">
        <ele>879.9</ele>
        <time>2022-06-09T08:22:40Z</time>
      </trkpt>
      <trkpt lat="44.75464" lon="4.44179">
        <ele>880</ele>
        <time>2022-06-09T08:22:41Z</time>
      </trkpt>
      <trkpt lat="44.75463" lon="4.44176">
        <ele>880.1</ele>
        <time>2022-06-09T08:22:42Z</time>
      </trkpt>
      <trkpt lat="44.75463" lon="4.4417">
        <ele>880.4</ele>
        <time>2022-06-09T08:22:44Z</time>
      </trkpt>
      <trkpt lat="44.75462" lon="4.44165">
        <ele>880.6</ele>
        <time>2022-06-09T08:22:45Z</time>
      </trkpt>
      <trkpt lat="44.75461" lon="4.44164">
        <ele>880.7</ele>
        <time>2022-06-09T08:22:46Z</time>
      </trkpt>
      <trkpt lat="44.75461" lon="4.44159">
        <ele>880.9</ele>
        <time>2022-06-09T08:22:47Z</time>
      </trkpt>
      <trkpt lat="44.7546" lon="4.44158">
        <ele>880.9</ele>
        <time>2022-06-09T08:22:48Z</time>
      </trkpt>
      <trkpt lat="44.75461" lon="4.44153">
        <ele>881.1</ele>
        <time>2022-06-09T08:22:49Z</time>
      </trkpt>
      <trkpt lat="44.7546" lon="4.44145">
        <ele>881.5</ele>
        <time>2022-06-09T08:22:51Z</time>
      </trkpt>
      <trkpt lat="44.75459" lon="4.44142">
        <ele>881.6</ele>
        <time>2022-06-09T08:22:52Z</time>
      </trkpt>
      <trkpt lat="44.75459" lon="4.44139">
        <ele>881.7</ele>
        <time>2022-06-09T08:22:53Z</time>
      </trkpt>
      <trkpt lat="44.75458" lon="4.44136">
        <ele>881.9</ele>
        <time>2022-06-09T08:22:55Z</time>
      </trkpt>
      <trkpt lat="44.75458" lon="4.44131">
        <ele>882.1</ele>
        <time>2022-06-09T08:22:56Z</time>
      </trkpt>
      <trkpt lat="44.75458" lon="4.4413">
        <ele>882.1</ele>
        <time>2022-06-09T08:22:57Z</time>
      </trkpt>
      <trkpt lat="44.75457" lon="4.44125">
        <ele>882.3</ele>
        <time>2022-06-09T08:22:58Z</time>
      </trkpt>
      <trkpt lat="44.75457" lon="4.4412">
        <ele>882.5</ele>
        <time>2022-06-09T08:23:00Z</time>
      </trkpt>
      <trkpt lat="44.75457" lon="4.44116">
        <ele>882.7</ele>
        <time>2022-06-09T08:23:01Z</time>
      </trkpt>
      <trkpt lat="44.75457" lon="4.44114">
        <ele>882.8</ele>
        <time>2022-06-09T08:23:02Z</time>
      </trkpt>
      <trkpt lat="44.75457" lon="4.4411">
        <ele>883</ele>
        <time>2022-06-09T08:23:03Z</time>
      </trkpt>
      <trkpt lat="44.75457" lon="4.44108">
        <ele>883.1</ele>
        <time>2022-06-09T08:23:04Z</time>
      </trkpt>
      <trkpt lat="44.75458" lon="4.44104">
        <ele>883.2</ele>
        <time>2022-06-09T08:23:05Z</time>
      </trkpt>
      <trkpt lat="44.75458" lon="4.44102">
        <ele>883.3</ele>
        <time>2022-06-09T08:23:06Z</time>
      </trkpt>
      <trkpt lat="44.7546" lon="4.44098">
        <ele>883.5</ele>
        <time>2022-06-09T08:23:07Z</time>
      </trkpt>
      <trkpt lat="44.7546" lon="4.44096">
        <ele>883.6</ele>
        <time>2022-06-09T08:23:08Z</time>
      </trkpt>
      <trkpt lat="44.75461" lon="4.44092">
        <ele>883.7</ele>
        <time>2022-06-09T08:23:09Z</time>
      </trkpt>
      <trkpt lat="44.75462" lon="4.44091">
        <ele>883.8</ele>
        <time>2022-06-09T08:23:10Z</time>
      </trkpt>
      <trkpt lat="44.75463" lon="4.44087">
        <ele>884</ele>
        <time>2022-06-09T08:23:11Z</time>
      </trkpt>
      <trkpt lat="44.75464" lon="4.44086">
        <ele>884</ele>
        <time>2022-06-09T08:23:12Z</time>
      </trkpt>
      <trkpt lat="44.75466" lon="4.44082">
        <ele>884.2</ele>
        <time>2022-06-09T08:23:13Z</time>
      </trkpt>
      <trkpt lat="44.75467" lon="4.44081">
        <ele>884.3</ele>
        <time>2022-06-09T08:23:14Z</time>
      </trkpt>
      <trkpt lat="44.75468" lon="4.44079">
        <ele>884.3</ele>
        <time>2022-06-09T08:23:15Z</time>
      </trkpt>
      <trkpt lat="44.75469" lon="4.44078">
        <ele>884.4</ele>
        <time>2022-06-09T08:23:16Z</time>
      </trkpt>
      <trkpt lat="44.75471" lon="4.44077">
        <ele>884.5</ele>
        <time>2022-06-09T08:23:17Z</time>
      </trkpt>
      <trkpt lat="44.75472" lon="4.44076">
        <ele>884.6</ele>
        <time>2022-06-09T08:23:18Z</time>
      </trkpt>
      <trkpt lat="44.75474" lon="4.44075">
        <ele>884.7</ele>
        <time>2022-06-09T08:23:19Z</time>
      </trkpt>
      <trkpt lat="44.75475" lon="4.44074">
        <ele>884.8</ele>
        <time>2022-06-09T08:23:20Z</time>
      </trkpt>
      <trkpt lat="44.75477" lon="4.44073">
        <ele>884.8</ele>
        <time>2022-06-09T08:23:21Z</time>
      </trkpt>
      <trkpt lat="44.75478" lon="4.44072">
        <ele>884.9</ele>
        <time>2022-06-09T08:23:22Z</time>
      </trkpt>
      <trkpt lat="44.7548" lon="4.44071">
        <ele>885</ele>
        <time>2022-06-09T08:23:23Z</time>
      </trkpt>
      <trkpt lat="44.75481" lon="4.44071">
        <ele>885.1</ele>
        <time>2022-06-09T08:23:24Z</time>
      </trkpt>
      <trkpt lat="44.75484" lon="4.4407">
        <ele>885.2</ele>
        <time>2022-06-09T08:23:25Z</time>
      </trkpt>
      <trkpt lat="44.75485" lon="4.44069">
        <ele>885.3</ele>
        <time>2022-06-09T08:23:26Z</time>
      </trkpt>
      <trkpt lat="44.75488" lon="4.44068">
        <ele>885.4</ele>
        <time>2022-06-09T08:23:27Z</time>
      </trkpt>
      <trkpt lat="44.75489" lon="4.44068">
        <ele>885.5</ele>
        <time>2022-06-09T08:23:28Z</time>
      </trkpt>
      <trkpt lat="44.75491" lon="4.44068">
        <ele>885.6</ele>
        <time>2022-06-09T08:23:29Z</time>
      </trkpt>
      <trkpt lat="44.75492" lon="4.44068">
        <ele>885.6</ele>
        <time>2022-06-09T08:23:30Z</time>
      </trkpt>
      <trkpt lat="44.75494" lon="4.44068">
        <ele>885.7</ele>
        <time>2022-06-09T08:23:31Z</time>
      </trkpt>
      <trkpt lat="44.75497" lon="4.44066">
        <ele>885.9</ele>
        <time>2022-06-09T08:23:33Z</time>
      </trkpt>
      <trkpt lat="44.75499" lon="4.44066">
        <ele>886</ele>
        <time>2022-06-09T08:23:34Z</time>
      </trkpt>
      <trkpt lat="44.755" lon="4.44066">
        <ele>886</ele>
        <time>2022-06-09T08:23:35Z</time>
      </trkpt>
      <trkpt lat="44.75502" lon="4.44064">
        <ele>886.1</ele>
        <time>2022-06-09T08:23:36Z</time>
      </trkpt>
      <trkpt lat="44.75503" lon="4.44064">
        <ele>886.2</ele>
        <time>2022-06-09T08:23:37Z</time>
      </trkpt>
      <trkpt lat="44.75503" lon="4.44064">
        <ele>886.2</ele>
        <time>2022-06-09T08:23:38Z</time>
      </trkpt>
      <trkpt lat="44.75504" lon="4.44063">
        <ele>886.2</ele>
        <time>2022-06-09T08:23:39Z</time>
      </trkpt>
      <trkpt lat="44.75504" lon="4.44063">
        <ele>886.2</ele>
        <time>2022-06-09T08:23:40Z</time>
      </trkpt>
      <trkpt lat="44.75505" lon="4.44063">
        <ele>886.3</ele>
        <time>2022-06-09T08:23:41Z</time>
      </trkpt>
      <trkpt lat="44.75505" lon="4.44062">
        <ele>886.3</ele>
        <time>2022-06-09T08:23:42Z</time>
      </trkpt>
      <trkpt lat="44.75506" lon="4.44062">
        <ele>886.3</ele>
        <time>2022-06-09T08:23:43Z</time>
      </trkpt>
      <trkpt lat="44.75507" lon="4.44062">
        <ele>886.4</ele>
        <time>2022-06-09T08:23:45Z</time>
      </trkpt>
      <trkpt lat="44.75507" lon="4.44061">
        <ele>886.4</ele>
        <time>2022-06-09T08:23:46Z</time>
      </trkpt>
      <trkpt lat="44.75508" lon="4.44061">
        <ele>886.4</ele>
        <time>2022-06-09T08:23:47Z</time>
      </trkpt>
      <trkpt lat="44.75508" lon="4.44061">
        <ele>886.5</ele>
        <time>2022-06-09T08:24:30Z</time>
      </trkpt>
      <trkpt lat="44.75509" lon="4.4406">
        <ele>886.5</ele>
        <time>2022-06-09T08:24:31Z</time>
      </trkpt>
      <trkpt lat="44.75509" lon="4.4406">
        <ele>886.5</ele>
        <time>2022-06-09T08:24:32Z</time>
      </trkpt>
      <trkpt lat="44.75513" lon="4.44059">
        <ele>886.7</ele>
        <time>2022-06-09T08:24:33Z</time>
      </trkpt>
      <trkpt lat="44.75515" lon="4.44058">
        <ele>886.8</ele>
        <time>2022-06-09T08:24:34Z</time>
      </trkpt>
      <trkpt lat="44.75519" lon="4.44058">
        <ele>887</ele>
        <time>2022-06-09T08:24:36Z</time>
      </trkpt>
      <trkpt lat="44.7552" lon="4.44057">
        <ele>887.1</ele>
        <time>2022-06-09T08:24:37Z</time>
      </trkpt>
      <trkpt lat="44.75523" lon="4.44056">
        <ele>887.2</ele>
        <time>2022-06-09T08:24:38Z</time>
      </trkpt>
      <trkpt lat="44.75524" lon="4.44056">
        <ele>887.3</ele>
        <time>2022-06-09T08:24:39Z</time>
      </trkpt>
      <trkpt lat="44.75526" lon="4.44055">
        <ele>887.4</ele>
        <time>2022-06-09T08:24:40Z</time>
      </trkpt>
      <trkpt lat="44.7553" lon="4.44054">
        <ele>887.6</ele>
        <time>2022-06-09T08:24:42Z</time>
      </trkpt>
      <trkpt lat="44.75533" lon="4.44054">
        <ele>887.7</ele>
        <time>2022-06-09T08:24:43Z</time>
      </trkpt>
      <trkpt lat="44.75534" lon="4.44054">
        <ele>887.8</ele>
        <time>2022-06-09T08:24:44Z</time>
      </trkpt>
      <trkpt lat="44.75538" lon="4.44053">
        <ele>888</ele>
        <time>2022-06-09T08:24:45Z</time>
      </trkpt>
      <trkpt lat="44.75539" lon="4.44052">
        <ele>888</ele>
        <time>2022-06-09T08:24:46Z</time>
      </trkpt>
      <trkpt lat="44.75542" lon="4.44051">
        <ele>888.2</ele>
        <time>2022-06-09T08:24:47Z</time>
      </trkpt>
      <trkpt lat="44.75545" lon="4.4405">
        <ele>888.3</ele>
        <time>2022-06-09T08:24:48Z</time>
      </trkpt>
      <trkpt lat="44.75548" lon="4.4405">
        <ele>888.5</ele>
        <time>2022-06-09T08:24:50Z</time>
      </trkpt>
      <trkpt lat="44.75549" lon="4.44049">
        <ele>888.6</ele>
        <time>2022-06-09T08:24:51Z</time>
      </trkpt>
      <trkpt lat="44.75553" lon="4.44048">
        <ele>888.8</ele>
        <time>2022-06-09T08:24:52Z</time>
      </trkpt>
      <trkpt lat="44.75555" lon="4.44047">
        <ele>888.9</ele>
        <time>2022-06-09T08:24:53Z</time>
      </trkpt>
      <trkpt lat="44.75557" lon="4.44046">
        <ele>889</ele>
        <time>2022-06-09T08:24:55Z</time>
      </trkpt>
      <trkpt lat="44.7556" lon="4.44046">
        <ele>889.2</ele>
        <time>2022-06-09T08:24:56Z</time>
      </trkpt>
      <trkpt lat="44.75563" lon="4.44046">
        <ele>889.3</ele>
        <time>2022-06-09T08:24:57Z</time>
      </trkpt>
      <trkpt lat="44.75565" lon="4.44046">
        <ele>889.4</ele>
        <time>2022-06-09T08:24:59Z</time>
      </trkpt>
      <trkpt lat="44.75568" lon="4.44046">
        <ele>889.6</ele>
        <time>2022-06-09T08:25:00Z</time>
      </trkpt>
      <trkpt lat="44.75569" lon="4.44045">
        <ele>889.7</ele>
        <time>2022-06-09T08:25:01Z</time>
      </trkpt>
      <trkpt lat="44.75572" lon="4.44044">
        <ele>889.9</ele>
        <time>2022-06-09T08:25:02Z</time>
      </trkpt>
      <trkpt lat="44.75573" lon="4.44043">
        <ele>889.9</ele>
        <time>2022-06-09T08:25:03Z</time>
      </trkpt>
      <trkpt lat="44.75575" lon="4.44042">
        <ele>890.1</ele>
        <time>2022-06-09T08:25:04Z</time>
      </trkpt>
      <trkpt lat="44.75576" lon="4.44041">
        <ele>890.1</ele>
        <time>2022-06-09T08:25:05Z</time>
      </trkpt>
      <trkpt lat="44.7558" lon="4.4404">
        <ele>890.4</ele>
        <time>2022-06-09T08:25:06Z</time>
      </trkpt>
      <trkpt lat="44.75583" lon="4.44039">
        <ele>890.5</ele>
        <time>2022-06-09T08:25:07Z</time>
      </trkpt>
      <trkpt lat="44.75585" lon="4.44038">
        <ele>890.6</ele>
        <time>2022-06-09T08:25:09Z</time>
      </trkpt>
      <trkpt lat="44.75588" lon="4.44036">
        <ele>890.8</ele>
        <time>2022-06-09T08:25:10Z</time>
      </trkpt>
      <trkpt lat="44.75589" lon="4.44035">
        <ele>890.8</ele>
        <time>2022-06-09T08:25:11Z</time>
      </trkpt>
      <trkpt lat="44.75592" lon="4.44033">
        <ele>891</ele>
        <time>2022-06-09T08:25:12Z</time>
      </trkpt>
      <trkpt lat="44.75594" lon="4.4403">
        <ele>891.1</ele>
        <time>2022-06-09T08:25:13Z</time>
      </trkpt>
      <trkpt lat="44.75596" lon="4.44027">
        <ele>891.2</ele>
        <time>2022-06-09T08:25:15Z</time>
      </trkpt>
      <trkpt lat="44.75599" lon="4.44024">
        <ele>891.4</ele>
        <time>2022-06-09T08:25:16Z</time>
      </trkpt>
      <trkpt lat="44.756" lon="4.44023">
        <ele>891.4</ele>
        <time>2022-06-09T08:25:17Z</time>
      </trkpt>
      <trkpt lat="44.75603" lon="4.44018">
        <ele>891.6</ele>
        <time>2022-06-09T08:25:18Z</time>
      </trkpt>
      <trkpt lat="44.75605" lon="4.44014">
        <ele>891.8</ele>
        <time>2022-06-09T08:25:20Z</time>
      </trkpt>
      <trkpt lat="44.75606" lon="4.44013">
        <ele>891.8</ele>
        <time>2022-06-09T08:25:21Z</time>
      </trkpt>
      <trkpt lat="44.75609" lon="4.44008">
        <ele>892</ele>
        <time>2022-06-09T08:25:22Z</time>
      </trkpt>
      <trkpt lat="44.75609" lon="4.44007">
        <ele>892.1</ele>
        <time>2022-06-09T08:25:23Z</time>
      </trkpt>
      <trkpt lat="44.75611" lon="4.44004">
        <ele>892.2</ele>
        <time>2022-06-09T08:25:24Z</time>
      </trkpt>
      <trkpt lat="44.75614" lon="4.44">
        <ele>892.4</ele>
        <time>2022-06-09T08:25:25Z</time>
      </trkpt>
      <trkpt lat="44.75614" lon="4.43998">
        <ele>892.4</ele>
        <time>2022-06-09T08:25:26Z</time>
      </trkpt>
      <trkpt lat="44.75616" lon="4.43994">
        <ele>892.6</ele>
        <time>2022-06-09T08:25:27Z</time>
      </trkpt>
      <trkpt lat="44.75616" lon="4.43993">
        <ele>892.6</ele>
        <time>2022-06-09T08:25:28Z</time>
      </trkpt>
      <trkpt lat="44.75618" lon="4.43988">
        <ele>892.8</ele>
        <time>2022-06-09T08:25:29Z</time>
      </trkpt>
      <trkpt lat="44.75618" lon="4.43987">
        <ele>892.8</ele>
        <time>2022-06-09T08:25:30Z</time>
      </trkpt>
      <trkpt lat="44.7562" lon="4.43982">
        <ele>893</ele>
        <time>2022-06-09T08:25:31Z</time>
      </trkpt>
      <trkpt lat="44.7562" lon="4.4398">
        <ele>893.1</ele>
        <time>2022-06-09T08:25:32Z</time>
      </trkpt>
      <trkpt lat="44.7562" lon="4.43976">
        <ele>893.2</ele>
        <time>2022-06-09T08:25:33Z</time>
      </trkpt>
      <trkpt lat="44.7562" lon="4.43974">
        <ele>893.3</ele>
        <time>2022-06-09T08:25:34Z</time>
      </trkpt>
      <trkpt lat="44.75622" lon="4.43969">
        <ele>893.5</ele>
        <time>2022-06-09T08:25:35Z</time>
      </trkpt>
      <trkpt lat="44.75622" lon="4.43967">
        <ele>893.5</ele>
        <time>2022-06-09T08:25:36Z</time>
      </trkpt>
      <trkpt lat="44.75622" lon="4.43963">
        <ele>893.7</ele>
        <time>2022-06-09T08:25:37Z</time>
      </trkpt>
      <trkpt lat="44.75622" lon="4.43959">
        <ele>893.8</ele>
        <time>2022-06-09T08:25:38Z</time>
      </trkpt>
      <trkpt lat="44.75622" lon="4.43951">
        <ele>894.1</ele>
        <time>2022-06-09T08:25:40Z</time>
      </trkpt>
      <trkpt lat="44.75621" lon="4.43948">
        <ele>894.2</ele>
        <time>2022-06-09T08:25:42Z</time>
      </trkpt>
      <trkpt lat="44.75621" lon="4.43945">
        <ele>894.3</ele>
        <time>2022-06-09T08:25:43Z</time>
      </trkpt>
      <trkpt lat="44.7562" lon="4.43939">
        <ele>894.5</ele>
        <time>2022-06-09T08:25:45Z</time>
      </trkpt>
      <trkpt lat="44.75618" lon="4.43934">
        <ele>894.8</ele>
        <time>2022-06-09T08:25:46Z</time>
      </trkpt>
      <trkpt lat="44.75616" lon="4.43929">
        <ele>895</ele>
        <time>2022-06-09T08:25:48Z</time>
      </trkpt>
      <trkpt lat="44.75614" lon="4.43923">
        <ele>895.3</ele>
        <time>2022-06-09T08:25:50Z</time>
      </trkpt>
      <trkpt lat="44.75613" lon="4.43921">
        <ele>895.3</ele>
        <time>2022-06-09T08:25:51Z</time>
      </trkpt>
      <trkpt lat="44.75613" lon="4.4392">
        <ele>895.4</ele>
        <time>2022-06-09T08:25:52Z</time>
      </trkpt>
      <trkpt lat="44.7561" lon="4.43916">
        <ele>895.7</ele>
        <time>2022-06-09T08:25:53Z</time>
      </trkpt>
      <trkpt lat="44.75608" lon="4.43912">
        <ele>895.8</ele>
        <time>2022-06-09T08:25:54Z</time>
      </trkpt>
      <trkpt lat="44.75605" lon="4.43908">
        <ele>896.1</ele>
        <time>2022-06-09T08:25:56Z</time>
      </trkpt>
      <trkpt lat="44.75604" lon="4.43906">
        <ele>896.1</ele>
        <time>2022-06-09T08:25:57Z</time>
      </trkpt>
      <trkpt lat="44.75603" lon="4.43905">
        <ele>896.2</ele>
        <time>2022-06-09T08:25:58Z</time>
      </trkpt>
      <trkpt lat="44.75601" lon="4.43901">
        <ele>896.4</ele>
        <time>2022-06-09T08:25:59Z</time>
      </trkpt>
      <trkpt lat="44.756" lon="4.43899">
        <ele>896.5</ele>
        <time>2022-06-09T08:26:00Z</time>
      </trkpt>
      <trkpt lat="44.75598" lon="4.43895">
        <ele>896.6</ele>
        <time>2022-06-09T08:26:01Z</time>
      </trkpt>
      <trkpt lat="44.75597" lon="4.43894">
        <ele>896.7</ele>
        <time>2022-06-09T08:26:02Z</time>
      </trkpt>
      <trkpt lat="44.75594" lon="4.43891">
        <ele>896.8</ele>
        <time>2022-06-09T08:26:03Z</time>
      </trkpt>
      <trkpt lat="44.75594" lon="4.4389">
        <ele>896.9</ele>
        <time>2022-06-09T08:26:04Z</time>
      </trkpt>
      <trkpt lat="44.7559" lon="4.43885">
        <ele>897.1</ele>
        <time>2022-06-09T08:26:05Z</time>
      </trkpt>
      <trkpt lat="44.75588" lon="4.43881">
        <ele>897.3</ele>
        <time>2022-06-09T08:26:07Z</time>
      </trkpt>
      <trkpt lat="44.75587" lon="4.4388">
        <ele>897.4</ele>
        <time>2022-06-09T08:26:08Z</time>
      </trkpt>
      <trkpt lat="44.75584" lon="4.43877">
        <ele>897.5</ele>
        <time>2022-06-09T08:26:09Z</time>
      </trkpt>
      <trkpt lat="44.75583" lon="4.43876">
        <ele>897.6</ele>
        <time>2022-06-09T08:26:10Z</time>
      </trkpt>
      <trkpt lat="44.75581" lon="4.43872">
        <ele>897.8</ele>
        <time>2022-06-09T08:26:11Z</time>
      </trkpt>
      <trkpt lat="44.7558" lon="4.4387">
        <ele>897.9</ele>
        <time>2022-06-09T08:26:12Z</time>
      </trkpt>
      <trkpt lat="44.75578" lon="4.43866">
        <ele>898.1</ele>
        <time>2022-06-09T08:26:13Z</time>
      </trkpt>
      <trkpt lat="44.75576" lon="4.43863">
        <ele>898.2</ele>
        <time>2022-06-09T08:26:15Z</time>
      </trkpt>
      <trkpt lat="44.75573" lon="4.4386">
        <ele>898.4</ele>
        <time>2022-06-09T08:26:16Z</time>
      </trkpt>
      <trkpt lat="44.7557" lon="4.43856">
        <ele>898.6</ele>
        <time>2022-06-09T08:26:17Z</time>
      </trkpt>
      <trkpt lat="44.75569" lon="4.43855">
        <ele>898.7</ele>
        <time>2022-06-09T08:26:18Z</time>
      </trkpt>
      <trkpt lat="44.75565" lon="4.43851">
        <ele>898.9</ele>
        <time>2022-06-09T08:26:20Z</time>
      </trkpt>
      <trkpt lat="44.75564" lon="4.43848">
        <ele>899</ele>
        <time>2022-06-09T08:26:21Z</time>
      </trkpt>
      <trkpt lat="44.75562" lon="4.43845">
        <ele>899.2</ele>
        <time>2022-06-09T08:26:22Z</time>
      </trkpt>
      <trkpt lat="44.7556" lon="4.43842">
        <ele>899.4</ele>
        <time>2022-06-09T08:26:23Z</time>
      </trkpt>
      <trkpt lat="44.75559" lon="4.43839">
        <ele>899.5</ele>
        <time>2022-06-09T08:26:24Z</time>
      </trkpt>
      <trkpt lat="44.75556" lon="4.43836">
        <ele>899.7</ele>
        <time>2022-06-09T08:26:26Z</time>
      </trkpt>
      <trkpt lat="44.75554" lon="4.43832">
        <ele>899.9</ele>
        <time>2022-06-09T08:26:27Z</time>
      </trkpt>
      <trkpt lat="44.75552" lon="4.43829">
        <ele>900</ele>
        <time>2022-06-09T08:26:29Z</time>
      </trkpt>
      <trkpt lat="44.7555" lon="4.43824">
        <ele>900.2</ele>
        <time>2022-06-09T08:26:30Z</time>
      </trkpt>
      <trkpt lat="44.75547" lon="4.43821">
        <ele>900.4</ele>
        <time>2022-06-09T08:26:32Z</time>
      </trkpt>
      <trkpt lat="44.75545" lon="4.43817">
        <ele>900.6</ele>
        <time>2022-06-09T08:26:33Z</time>
      </trkpt>
      <trkpt lat="44.75541" lon="4.43812">
        <ele>900.9</ele>
        <time>2022-06-09T08:26:35Z</time>
      </trkpt>
      <trkpt lat="44.75539" lon="4.4381">
        <ele>901</ele>
        <time>2022-06-09T08:26:37Z</time>
      </trkpt>
      <trkpt lat="44.75536" lon="4.43806">
        <ele>901.2</ele>
        <time>2022-06-09T08:26:38Z</time>
      </trkpt>
      <trkpt lat="44.75536" lon="4.43804">
        <ele>901.3</ele>
        <time>2022-06-09T08:26:39Z</time>
      </trkpt>
      <trkpt lat="44.75532" lon="4.43799">
        <ele>901.5</ele>
        <time>2022-06-09T08:26:40Z</time>
      </trkpt>
      <trkpt lat="44.7553" lon="4.43795">
        <ele>901.8</ele>
        <time>2022-06-09T08:26:42Z</time>
      </trkpt>
      <trkpt lat="44.75529" lon="4.43793">
        <ele>901.8</ele>
        <time>2022-06-09T08:26:43Z</time>
      </trkpt>
      <trkpt lat="44.75527" lon="4.43789">
        <ele>902</ele>
        <time>2022-06-09T08:26:44Z</time>
      </trkpt>
      <trkpt lat="44.75525" lon="4.43786">
        <ele>902.1</ele>
        <time>2022-06-09T08:26:45Z</time>
      </trkpt>
      <trkpt lat="44.75523" lon="4.43779">
        <ele>902.4</ele>
        <time>2022-06-09T08:26:47Z</time>
      </trkpt>
      <trkpt lat="44.75522" lon="4.43776">
        <ele>902.5</ele>
        <time>2022-06-09T08:26:48Z</time>
      </trkpt>
      <trkpt lat="44.7552" lon="4.43768">
        <ele>902.8</ele>
        <time>2022-06-09T08:26:50Z</time>
      </trkpt>
      <trkpt lat="44.75518" lon="4.43759">
        <ele>903</ele>
        <time>2022-06-09T08:26:52Z</time>
      </trkpt>
      <trkpt lat="44.75518" lon="4.43755">
        <ele>903.2</ele>
        <time>2022-06-09T08:26:53Z</time>
      </trkpt>
      <trkpt lat="44.75518" lon="4.43749">
        <ele>903.4</ele>
        <time>2022-06-09T08:26:54Z</time>
      </trkpt>
      <trkpt lat="44.75518" lon="4.43747">
        <ele>903.4</ele>
        <time>2022-06-09T08:26:55Z</time>
      </trkpt>
      <trkpt lat="44.75518" lon="4.43743">
        <ele>903.6</ele>
        <time>2022-06-09T08:26:57Z</time>
      </trkpt>
      <trkpt lat="44.75518" lon="4.43738">
        <ele>903.7</ele>
        <time>2022-06-09T08:26:58Z</time>
      </trkpt>
      <trkpt lat="44.7552" lon="4.43733">
        <ele>903.9</ele>
        <time>2022-06-09T08:26:59Z</time>
      </trkpt>
      <trkpt lat="44.7552" lon="4.43731">
        <ele>903.9</ele>
        <time>2022-06-09T08:27:00Z</time>
      </trkpt>
      <trkpt lat="44.75521" lon="4.43726">
        <ele>904.1</ele>
        <time>2022-06-09T08:27:01Z</time>
      </trkpt>
      <trkpt lat="44.75522" lon="4.43724">
        <ele>904.2</ele>
        <time>2022-06-09T08:27:02Z</time>
      </trkpt>
      <trkpt lat="44.75523" lon="4.43719">
        <ele>904.4</ele>
        <time>2022-06-09T08:27:03Z</time>
      </trkpt>
      <trkpt lat="44.75523" lon="4.43717">
        <ele>904.4</ele>
        <time>2022-06-09T08:27:04Z</time>
      </trkpt>
      <trkpt lat="44.75525" lon="4.43713">
        <ele>904.6</ele>
        <time>2022-06-09T08:27:05Z</time>
      </trkpt>
      <trkpt lat="44.75526" lon="4.43709">
        <ele>904.7</ele>
        <time>2022-06-09T08:27:07Z</time>
      </trkpt>
      <trkpt lat="44.75528" lon="4.43703">
        <ele>905</ele>
        <time>2022-06-09T08:27:08Z</time>
      </trkpt>
      <trkpt lat="44.75529" lon="4.43699">
        <ele>905.1</ele>
        <time>2022-06-09T08:27:09Z</time>
      </trkpt>
      <trkpt lat="44.7553" lon="4.43697">
        <ele>905.2</ele>
        <time>2022-06-09T08:27:11Z</time>
      </trkpt>
      <trkpt lat="44.75532" lon="4.43693">
        <ele>905.4</ele>
        <time>2022-06-09T08:27:12Z</time>
      </trkpt>
      <trkpt lat="44.75533" lon="4.43689">
        <ele>905.5</ele>
        <time>2022-06-09T08:27:13Z</time>
      </trkpt>
      <trkpt lat="44.75535" lon="4.43684">
        <ele>905.7</ele>
        <time>2022-06-09T08:27:14Z</time>
      </trkpt>
      <trkpt lat="44.75536" lon="4.43682">
        <ele>905.7</ele>
        <time>2022-06-09T08:27:15Z</time>
      </trkpt>
      <trkpt lat="44.75537" lon="4.43678">
        <ele>905.9</ele>
        <time>2022-06-09T08:27:16Z</time>
      </trkpt>
      <trkpt lat="44.75538" lon="4.43676">
        <ele>906</ele>
        <time>2022-06-09T08:27:18Z</time>
      </trkpt>
      <trkpt lat="44.75539" lon="4.43671">
        <ele>906.1</ele>
        <time>2022-06-09T08:27:19Z</time>
      </trkpt>
      <trkpt lat="44.7554" lon="4.43669">
        <ele>906.2</ele>
        <time>2022-06-09T08:27:20Z</time>
      </trkpt>
      <trkpt lat="44.75542" lon="4.43665">
        <ele>906.4</ele>
        <time>2022-06-09T08:27:22Z</time>
      </trkpt>
      <trkpt lat="44.75543" lon="4.4366">
        <ele>906.6</ele>
        <time>2022-06-09T08:27:23Z</time>
      </trkpt>
      <trkpt lat="44.75544" lon="4.43658">
        <ele>906.6</ele>
        <time>2022-06-09T08:27:24Z</time>
      </trkpt>
      <trkpt lat="44.75546" lon="4.43654">
        <ele>906.8</ele>
        <time>2022-06-09T08:27:25Z</time>
      </trkpt>
      <trkpt lat="44.75547" lon="4.43651">
        <ele>906.9</ele>
        <time>2022-06-09T08:27:26Z</time>
      </trkpt>
      <trkpt lat="44.75548" lon="4.43648">
        <ele>907.1</ele>
        <time>2022-06-09T08:27:28Z</time>
      </trkpt>
      <trkpt lat="44.75549" lon="4.43644">
        <ele>907.2</ele>
        <time>2022-06-09T08:27:29Z</time>
      </trkpt>
      <trkpt lat="44.7555" lon="4.43642">
        <ele>907.3</ele>
        <time>2022-06-09T08:27:30Z</time>
      </trkpt>
      <trkpt lat="44.75552" lon="4.43638">
        <ele>907.5</ele>
        <time>2022-06-09T08:27:31Z</time>
      </trkpt>
      <trkpt lat="44.75552" lon="4.43636">
        <ele>907.5</ele>
        <time>2022-06-09T08:27:32Z</time>
      </trkpt>
      <trkpt lat="44.75554" lon="4.43632">
        <ele>907.7</ele>
        <time>2022-06-09T08:27:33Z</time>
      </trkpt>
      <trkpt lat="44.75555" lon="4.43631">
        <ele>907.7</ele>
        <time>2022-06-09T08:27:34Z</time>
      </trkpt>
      <trkpt lat="44.75557" lon="4.43627">
        <ele>907.9</ele>
        <time>2022-06-09T08:27:35Z</time>
      </trkpt>
      <trkpt lat="44.75557" lon="4.43626">
        <ele>907.9</ele>
        <time>2022-06-09T08:27:36Z</time>
      </trkpt>
      <trkpt lat="44.75558" lon="4.43622">
        <ele>908.1</ele>
        <time>2022-06-09T08:27:37Z</time>
      </trkpt>
      <trkpt lat="44.75559" lon="4.4362">
        <ele>908.2</ele>
        <time>2022-06-09T08:27:38Z</time>
      </trkpt>
      <trkpt lat="44.75561" lon="4.43616">
        <ele>908.3</ele>
        <time>2022-06-09T08:27:39Z</time>
      </trkpt>
      <trkpt lat="44.75561" lon="4.43615">
        <ele>908.4</ele>
        <time>2022-06-09T08:27:40Z</time>
      </trkpt>
      <trkpt lat="44.75563" lon="4.43611">
        <ele>908.5</ele>
        <time>2022-06-09T08:27:41Z</time>
      </trkpt>
      <trkpt lat="44.75564" lon="4.4361">
        <ele>908.6</ele>
        <time>2022-06-09T08:27:42Z</time>
      </trkpt>
      <trkpt lat="44.75566" lon="4.43606">
        <ele>908.7</ele>
        <time>2022-06-09T08:27:43Z</time>
      </trkpt>
      <trkpt lat="44.75566" lon="4.43605">
        <ele>908.8</ele>
        <time>2022-06-09T08:27:44Z</time>
      </trkpt>
      <trkpt lat="44.75568" lon="4.436">
        <ele>909</ele>
        <time>2022-06-09T08:27:45Z</time>
      </trkpt>
      <trkpt lat="44.75569" lon="4.43599">
        <ele>909</ele>
        <time>2022-06-09T08:27:46Z</time>
      </trkpt>
      <trkpt lat="44.75571" lon="4.43596">
        <ele>909.2</ele>
        <time>2022-06-09T08:27:48Z</time>
      </trkpt>
      <trkpt lat="44.75572" lon="4.43592">
        <ele>909.3</ele>
        <time>2022-06-09T08:27:49Z</time>
      </trkpt>
      <trkpt lat="44.75574" lon="4.43588">
        <ele>909.5</ele>
        <time>2022-06-09T08:27:50Z</time>
      </trkpt>
      <trkpt lat="44.75575" lon="4.43587">
        <ele>909.5</ele>
        <time>2022-06-09T08:27:51Z</time>
      </trkpt>
      <trkpt lat="44.75577" lon="4.43584">
        <ele>909.6</ele>
        <time>2022-06-09T08:27:52Z</time>
      </trkpt>
      <trkpt lat="44.75579" lon="4.4358">
        <ele>909.8</ele>
        <time>2022-06-09T08:27:54Z</time>
      </trkpt>
      <trkpt lat="44.75581" lon="4.43577">
        <ele>909.9</ele>
        <time>2022-06-09T08:27:55Z</time>
      </trkpt>
      <trkpt lat="44.75582" lon="4.43573">
        <ele>910.1</ele>
        <time>2022-06-09T08:27:56Z</time>
      </trkpt>
      <trkpt lat="44.75584" lon="4.43566">
        <ele>910.3</ele>
        <time>2022-06-09T08:27:58Z</time>
      </trkpt>
      <trkpt lat="44.75585" lon="4.43564">
        <ele>910.3</ele>
        <time>2022-06-09T08:28:00Z</time>
      </trkpt>
      <trkpt lat="44.75587" lon="4.43566">
        <ele>910.4</ele>
        <time>2022-06-09T08:28:01Z</time>
      </trkpt>
      <trkpt lat="44.75587" lon="4.43567">
        <ele>910.5</ele>
        <time>2022-06-09T08:28:02Z</time>
      </trkpt>
      <trkpt lat="44.75588" lon="4.43568">
        <ele>910.5</ele>
        <time>2022-06-09T08:28:03Z</time>
      </trkpt>
      <trkpt lat="44.75588" lon="4.43569">
        <ele>910.5</ele>
        <time>2022-06-09T08:28:04Z</time>
      </trkpt>
      <trkpt lat="44.75589" lon="4.43571">
        <ele>910.6</ele>
        <time>2022-06-09T08:28:06Z</time>
      </trkpt>
      <trkpt lat="44.75589" lon="4.43571">
        <ele>910.6</ele>
        <time>2022-06-09T08:28:07Z</time>
      </trkpt>
      <trkpt lat="44.75588" lon="4.43572">
        <ele>910.6</ele>
        <time>2022-06-09T08:28:08Z</time>
      </trkpt>
      <trkpt lat="44.75588" lon="4.43572">
        <ele>910.6</ele>
        <time>2022-06-09T08:28:09Z</time>
      </trkpt>
      <trkpt lat="44.75588" lon="4.43572">
        <ele>910.6</ele>
        <time>2022-06-09T08:28:10Z</time>
      </trkpt>
      <trkpt lat="44.75587" lon="4.43572">
        <ele>910.6</ele>
        <time>2022-06-09T08:28:11Z</time>
      </trkpt>
      <trkpt lat="44.75587" lon="4.43572">
        <ele>910.6</ele>
        <time>2022-06-09T08:28:12Z</time>
      </trkpt>
      <trkpt lat="44.75587" lon="4.43573">
        <ele>910.7</ele>
        <time>2022-06-09T08:28:13Z</time>
      </trkpt>
      <trkpt lat="44.75587" lon="4.43573">
        <ele>910.7</ele>
        <time>2022-06-09T08:28:14Z</time>
      </trkpt>
      <trkpt lat="44.75587" lon="4.43573">
        <ele>910.7</ele>
        <time>2022-06-09T08:28:15Z</time>
      </trkpt>
      <trkpt lat="44.75586" lon="4.43573">
        <ele>910.7</ele>
        <time>2022-06-09T08:28:16Z</time>
      </trkpt>
      <trkpt lat="44.75586" lon="4.43572">
        <ele>910.7</ele>
        <time>2022-06-09T08:28:17Z</time>
      </trkpt>
      <trkpt lat="44.75586" lon="4.43571">
        <ele>910.7</ele>
        <time>2022-06-09T08:28:18Z</time>
      </trkpt>
      <trkpt lat="44.75586" lon="4.43571">
        <ele>910.7</ele>
        <time>2022-06-09T08:28:19Z</time>
      </trkpt>
      <trkpt lat="44.75586" lon="4.4357">
        <ele>910.8</ele>
        <time>2022-06-09T08:28:20Z</time>
      </trkpt>
      <trkpt lat="44.75586" lon="4.43569">
        <ele>910.8</ele>
        <time>2022-06-09T08:28:21Z</time>
      </trkpt>
      <trkpt lat="44.75586" lon="4.43568">
        <ele>910.8</ele>
        <time>2022-06-09T08:28:22Z</time>
      </trkpt>
      <trkpt lat="44.75586" lon="4.43567">
        <ele>910.8</ele>
        <time>2022-06-09T08:28:23Z</time>
      </trkpt>
      <trkpt lat="44.75585" lon="4.43566">
        <ele>910.8</ele>
        <time>2022-06-09T08:30:49Z</time>
      </trkpt>
      <trkpt lat="44.75585" lon="4.43566">
        <ele>910.9</ele>
        <time>2022-06-09T08:30:50Z</time>
      </trkpt>
      <trkpt lat="44.75585" lon="4.43565">
        <ele>910.9</ele>
        <time>2022-06-09T08:30:51Z</time>
      </trkpt>
      <trkpt lat="44.75585" lon="4.43564">
        <ele>910.9</ele>
        <time>2022-06-09T08:30:52Z</time>
      </trkpt>
      <trkpt lat="44.75585" lon="4.43563">
        <ele>910.9</ele>
        <time>2022-06-09T08:30:53Z</time>
      </trkpt>
      <trkpt lat="44.75585" lon="4.43562">
        <ele>911</ele>
        <time>2022-06-09T08:30:54Z</time>
      </trkpt>
      <trkpt lat="44.75585" lon="4.43561">
        <ele>911</ele>
        <time>2022-06-09T08:30:55Z</time>
      </trkpt>
      <trkpt lat="44.75585" lon="4.43561">
        <ele>911</ele>
        <time>2022-06-09T08:30:56Z</time>
      </trkpt>
      <trkpt lat="44.75585" lon="4.4356">
        <ele>911</ele>
        <time>2022-06-09T08:30:58Z</time>
      </trkpt>
      <trkpt lat="44.75585" lon="4.43559">
        <ele>911</ele>
        <time>2022-06-09T08:30:59Z</time>
      </trkpt>
      <trkpt lat="44.75586" lon="4.43556">
        <ele>911.1</ele>
        <time>2022-06-09T08:31:00Z</time>
      </trkpt>
      <trkpt lat="44.75589" lon="4.43552">
        <ele>911.3</ele>
        <time>2022-06-09T08:31:01Z</time>
      </trkpt>
      <trkpt lat="44.75593" lon="4.43547">
        <ele>911.4</ele>
        <time>2022-06-09T08:31:03Z</time>
      </trkpt>
      <trkpt lat="44.75593" lon="4.43546">
        <ele>911.5</ele>
        <time>2022-06-09T08:31:04Z</time>
      </trkpt>
      <trkpt lat="44.75594" lon="4.43544">
        <ele>911.6</ele>
        <time>2022-06-09T08:31:05Z</time>
      </trkpt>
      <trkpt lat="44.75596" lon="4.4354">
        <ele>911.7</ele>
        <time>2022-06-09T08:31:06Z</time>
      </trkpt>
      <trkpt lat="44.75597" lon="4.43537">
        <ele>911.8</ele>
        <time>2022-06-09T08:31:07Z</time>
      </trkpt>
      <trkpt lat="44.75599" lon="4.43531">
        <ele>911.9</ele>
        <time>2022-06-09T08:31:08Z</time>
      </trkpt>
      <trkpt lat="44.75601" lon="4.43527">
        <ele>912.1</ele>
        <time>2022-06-09T08:31:10Z</time>
      </trkpt>
      <trkpt lat="44.75602" lon="4.43522">
        <ele>912.2</ele>
        <time>2022-06-09T08:31:11Z</time>
      </trkpt>
      <trkpt lat="44.75603" lon="4.43521">
        <ele>912.2</ele>
        <time>2022-06-09T08:31:12Z</time>
      </trkpt>
      <trkpt lat="44.75604" lon="4.43514">
        <ele>912.4</ele>
        <time>2022-06-09T08:31:13Z</time>
      </trkpt>
      <trkpt lat="44.75605" lon="4.43511">
        <ele>912.5</ele>
        <time>2022-06-09T08:31:14Z</time>
      </trkpt>
      <trkpt lat="44.75607" lon="4.43504">
        <ele>912.7</ele>
        <time>2022-06-09T08:31:16Z</time>
      </trkpt>
      <trkpt lat="44.75608" lon="4.435">
        <ele>912.8</ele>
        <time>2022-06-09T08:31:18Z</time>
      </trkpt>
      <trkpt lat="44.75609" lon="4.43494">
        <ele>913</ele>
        <time>2022-06-09T08:31:19Z</time>
      </trkpt>
      <trkpt lat="44.75609" lon="4.43491">
        <ele>913</ele>
        <time>2022-06-09T08:31:20Z</time>
      </trkpt>
      <trkpt lat="44.7561" lon="4.43485">
        <ele>913.2</ele>
        <time>2022-06-09T08:31:22Z</time>
      </trkpt>
      <trkpt lat="44.75611" lon="4.43479">
        <ele>913.3</ele>
        <time>2022-06-09T08:31:23Z</time>
      </trkpt>
      <trkpt lat="44.75613" lon="4.43474">
        <ele>913.4</ele>
        <time>2022-06-09T08:31:24Z</time>
      </trkpt>
      <trkpt lat="44.75614" lon="4.4347">
        <ele>913.5</ele>
        <time>2022-06-09T08:31:25Z</time>
      </trkpt>
      <trkpt lat="44.75614" lon="4.43464">
        <ele>913.6</ele>
        <time>2022-06-09T08:31:27Z</time>
      </trkpt>
      <trkpt lat="44.75615" lon="4.4346">
        <ele>913.7</ele>
        <time>2022-06-09T08:31:28Z</time>
      </trkpt>
      <trkpt lat="44.75617" lon="4.43455">
        <ele>913.8</ele>
        <time>2022-06-09T08:31:29Z</time>
      </trkpt>
      <trkpt lat="44.75618" lon="4.43452">
        <ele>913.8</ele>
        <time>2022-06-09T08:31:30Z</time>
      </trkpt>
      <trkpt lat="44.7562" lon="4.43446">
        <ele>913.9</ele>
        <time>2022-06-09T08:31:31Z</time>
      </trkpt>
      <trkpt lat="44.75623" lon="4.43439">
        <ele>914.1</ele>
        <time>2022-06-09T08:31:33Z</time>
      </trkpt>
      <trkpt lat="44.75624" lon="4.43435">
        <ele>914.1</ele>
        <time>2022-06-09T08:31:34Z</time>
      </trkpt>
      <trkpt lat="44.75625" lon="4.4343">
        <ele>914.2</ele>
        <time>2022-06-09T08:31:35Z</time>
      </trkpt>
      <trkpt lat="44.75627" lon="4.43424">
        <ele>914.3</ele>
        <time>2022-06-09T08:31:37Z</time>
      </trkpt>
      <trkpt lat="44.75628" lon="4.4342">
        <ele>914.4</ele>
        <time>2022-06-09T08:31:38Z</time>
      </trkpt>
      <trkpt lat="44.75631" lon="4.43412">
        <ele>914.5</ele>
        <time>2022-06-09T08:31:39Z</time>
      </trkpt>
      <trkpt lat="44.75634" lon="4.43407">
        <ele>914.6</ele>
        <time>2022-06-09T08:31:41Z</time>
      </trkpt>
      <trkpt lat="44.75635" lon="4.43402">
        <ele>914.7</ele>
        <time>2022-06-09T08:31:42Z</time>
      </trkpt>
      <trkpt lat="44.75637" lon="4.43396">
        <ele>914.8</ele>
        <time>2022-06-09T08:31:43Z</time>
      </trkpt>
      <trkpt lat="44.75639" lon="4.43391">
        <ele>914.8</ele>
        <time>2022-06-09T08:31:44Z</time>
      </trkpt>
      <trkpt lat="44.75641" lon="4.43386">
        <ele>914.9</ele>
        <time>2022-06-09T08:31:46Z</time>
      </trkpt>
      <trkpt lat="44.75642" lon="4.4338">
        <ele>915</ele>
        <time>2022-06-09T08:31:47Z</time>
      </trkpt>
      <trkpt lat="44.75644" lon="4.43374">
        <ele>915.1</ele>
        <time>2022-06-09T08:31:49Z</time>
      </trkpt>
      <trkpt lat="44.75646" lon="4.43369">
        <ele>915.2</ele>
        <time>2022-06-09T08:31:50Z</time>
      </trkpt>
      <trkpt lat="44.75647" lon="4.43364">
        <ele>915.3</ele>
        <time>2022-06-09T08:31:51Z</time>
      </trkpt>
      <trkpt lat="44.75649" lon="4.4336">
        <ele>915.4</ele>
        <time>2022-06-09T08:31:52Z</time>
      </trkpt>
      <trkpt lat="44.7565" lon="4.43356">
        <ele>915.5</ele>
        <time>2022-06-09T08:31:53Z</time>
      </trkpt>
      <trkpt lat="44.75652" lon="4.43351">
        <ele>915.5</ele>
        <time>2022-06-09T08:31:55Z</time>
      </trkpt>
      <trkpt lat="44.75653" lon="4.43348">
        <ele>915.6</ele>
        <time>2022-06-09T08:31:56Z</time>
      </trkpt>
      <trkpt lat="44.75654" lon="4.43344">
        <ele>915.7</ele>
        <time>2022-06-09T08:31:57Z</time>
      </trkpt>
      <trkpt lat="44.75656" lon="4.4334">
        <ele>915.7</ele>
        <time>2022-06-09T08:31:58Z</time>
      </trkpt>
      <trkpt lat="44.75657" lon="4.43336">
        <ele>915.8</ele>
        <time>2022-06-09T08:31:59Z</time>
      </trkpt>
      <trkpt lat="44.75659" lon="4.43332">
        <ele>915.9</ele>
        <time>2022-06-09T08:32:00Z</time>
      </trkpt>
      <trkpt lat="44.7566" lon="4.4333">
        <ele>915.9</ele>
        <time>2022-06-09T08:32:01Z</time>
      </trkpt>
      <trkpt lat="44.75662" lon="4.43325">
        <ele>916</ele>
        <time>2022-06-09T08:32:02Z</time>
      </trkpt>
      <trkpt lat="44.75662" lon="4.43323">
        <ele>916.1</ele>
        <time>2022-06-09T08:32:03Z</time>
      </trkpt>
      <trkpt lat="44.75664" lon="4.43318">
        <ele>916.2</ele>
        <time>2022-06-09T08:32:04Z</time>
      </trkpt>
      <trkpt lat="44.75665" lon="4.43316">
        <ele>916.2</ele>
        <time>2022-06-09T08:32:05Z</time>
      </trkpt>
      <trkpt lat="44.75667" lon="4.43313">
        <ele>916.3</ele>
        <time>2022-06-09T08:32:06Z</time>
      </trkpt>
      <trkpt lat="44.75668" lon="4.43309">
        <ele>916.3</ele>
        <time>2022-06-09T08:32:07Z</time>
      </trkpt>
      <trkpt lat="44.7567" lon="4.43306">
        <ele>916.4</ele>
        <time>2022-06-09T08:32:08Z</time>
      </trkpt>
      <trkpt lat="44.75671" lon="4.43302">
        <ele>916.4</ele>
        <time>2022-06-09T08:32:09Z</time>
      </trkpt>
      <trkpt lat="44.75673" lon="4.43298">
        <ele>916.5</ele>
        <time>2022-06-09T08:32:10Z</time>
      </trkpt>
      <trkpt lat="44.75674" lon="4.43295">
        <ele>916.5</ele>
        <time>2022-06-09T08:32:11Z</time>
      </trkpt>
      <trkpt lat="44.75676" lon="4.43291">
        <ele>916.6</ele>
        <time>2022-06-09T08:32:12Z</time>
      </trkpt>
      <trkpt lat="44.75678" lon="4.43287">
        <ele>916.6</ele>
        <time>2022-06-09T08:32:13Z</time>
      </trkpt>
      <trkpt lat="44.75679" lon="4.43283">
        <ele>916.7</ele>
        <time>2022-06-09T08:32:14Z</time>
      </trkpt>
      <trkpt lat="44.75682" lon="4.43276">
        <ele>916.8</ele>
        <time>2022-06-09T08:32:15Z</time>
      </trkpt>
      <trkpt lat="44.75683" lon="4.43272">
        <ele>916.9</ele>
        <time>2022-06-09T08:32:17Z</time>
      </trkpt>
      <trkpt lat="44.75685" lon="4.43267">
        <ele>917</ele>
        <time>2022-06-09T08:32:18Z</time>
      </trkpt>
      <trkpt lat="44.75686" lon="4.43265">
        <ele>917</ele>
        <time>2022-06-09T08:32:19Z</time>
      </trkpt>
      <trkpt lat="44.75687" lon="4.4326">
        <ele>917.1</ele>
        <time>2022-06-09T08:32:20Z</time>
      </trkpt>
      <trkpt lat="44.75689" lon="4.43256">
        <ele>917.1</ele>
        <time>2022-06-09T08:32:22Z</time>
      </trkpt>
      <trkpt lat="44.7569" lon="4.4325">
        <ele>917.2</ele>
        <time>2022-06-09T08:32:23Z</time>
      </trkpt>
      <trkpt lat="44.75691" lon="4.43245">
        <ele>917.3</ele>
        <time>2022-06-09T08:32:24Z</time>
      </trkpt>
      <trkpt lat="44.75692" lon="4.43241">
        <ele>917.4</ele>
        <time>2022-06-09T08:32:26Z</time>
      </trkpt>
      <trkpt lat="44.75692" lon="4.43237">
        <ele>917.4</ele>
        <time>2022-06-09T08:32:27Z</time>
      </trkpt>
      <trkpt lat="44.75692" lon="4.43232">
        <ele>917.5</ele>
        <time>2022-06-09T08:32:28Z</time>
      </trkpt>
      <trkpt lat="44.75692" lon="4.43228">
        <ele>917.6</ele>
        <time>2022-06-09T08:32:29Z</time>
      </trkpt>
      <trkpt lat="44.75692" lon="4.43224">
        <ele>917.6</ele>
        <time>2022-06-09T08:32:30Z</time>
      </trkpt>
      <trkpt lat="44.75692" lon="4.43219">
        <ele>917.7</ele>
        <time>2022-06-09T08:32:31Z</time>
      </trkpt>
      <trkpt lat="44.75692" lon="4.43214">
        <ele>917.8</ele>
        <time>2022-06-09T08:32:32Z</time>
      </trkpt>
      <trkpt lat="44.75691" lon="4.43209">
        <ele>917.9</ele>
        <time>2022-06-09T08:32:33Z</time>
      </trkpt>
      <trkpt lat="44.7569" lon="4.43201">
        <ele>918</ele>
        <time>2022-06-09T08:32:34Z</time>
      </trkpt>
      <trkpt lat="44.7569" lon="4.43196">
        <ele>918.1</ele>
        <time>2022-06-09T08:32:35Z</time>
      </trkpt>
      <trkpt lat="44.7569" lon="4.4319">
        <ele>918.2</ele>
        <time>2022-06-09T08:32:36Z</time>
      </trkpt>
      <trkpt lat="44.75689" lon="4.43185">
        <ele>918.3</ele>
        <time>2022-06-09T08:32:37Z</time>
      </trkpt>
      <trkpt lat="44.75689" lon="4.43175">
        <ele>918.5</ele>
        <time>2022-06-09T08:32:39Z</time>
      </trkpt>
      <trkpt lat="44.75689" lon="4.4317">
        <ele>918.6</ele>
        <time>2022-06-09T08:32:40Z</time>
      </trkpt>
      <trkpt lat="44.75689" lon="4.43164">
        <ele>918.7</ele>
        <time>2022-06-09T08:32:42Z</time>
      </trkpt>
      <trkpt lat="44.7569" lon="4.43157">
        <ele>918.8</ele>
        <time>2022-06-09T08:32:43Z</time>
      </trkpt>
      <trkpt lat="44.75692" lon="4.43151">
        <ele>918.9</ele>
        <time>2022-06-09T08:32:45Z</time>
      </trkpt>
      <trkpt lat="44.75693" lon="4.43146">
        <ele>919</ele>
        <time>2022-06-09T08:32:46Z</time>
      </trkpt>
      <trkpt lat="44.75695" lon="4.43143">
        <ele>919</ele>
        <time>2022-06-09T08:32:47Z</time>
      </trkpt>
      <trkpt lat="44.75697" lon="4.43139">
        <ele>919.1</ele>
        <time>2022-06-09T08:32:48Z</time>
      </trkpt>
      <trkpt lat="44.75701" lon="4.43136">
        <ele>919.2</ele>
        <time>2022-06-09T08:32:49Z</time>
      </trkpt>
      <trkpt lat="44.75704" lon="4.43134">
        <ele>919.2</ele>
        <time>2022-06-09T08:32:50Z</time>
      </trkpt>
      <trkpt lat="44.75707" lon="4.43132">
        <ele>919.3</ele>
        <time>2022-06-09T08:32:51Z</time>
      </trkpt>
      <trkpt lat="44.7571" lon="4.43131">
        <ele>919.3</ele>
        <time>2022-06-09T08:32:52Z</time>
      </trkpt>
      <trkpt lat="44.75713" lon="4.43131">
        <ele>919.3</ele>
        <time>2022-06-09T08:32:53Z</time>
      </trkpt>
      <trkpt lat="44.75717" lon="4.43131">
        <ele>919.4</ele>
        <time>2022-06-09T08:32:55Z</time>
      </trkpt>
      <trkpt lat="44.75721" lon="4.43132">
        <ele>919.4</ele>
        <time>2022-06-09T08:32:56Z</time>
      </trkpt>
      <trkpt lat="44.75725" lon="4.43133">
        <ele>919.5</ele>
        <time>2022-06-09T08:32:58Z</time>
      </trkpt>
      <trkpt lat="44.75729" lon="4.43133">
        <ele>919.5</ele>
        <time>2022-06-09T08:32:59Z</time>
      </trkpt>
      <trkpt lat="44.75732" lon="4.43134">
        <ele>919.6</ele>
        <time>2022-06-09T08:33:00Z</time>
      </trkpt>
      <trkpt lat="44.75736" lon="4.43135">
        <ele>919.6</ele>
        <time>2022-06-09T08:33:02Z</time>
      </trkpt>
      <trkpt lat="44.75739" lon="4.43135">
        <ele>919.7</ele>
        <time>2022-06-09T08:33:03Z</time>
      </trkpt>
      <trkpt lat="44.75745" lon="4.43136">
        <ele>919.8</ele>
        <time>2022-06-09T08:33:04Z</time>
      </trkpt>
      <trkpt lat="44.75747" lon="4.43137">
        <ele>919.8</ele>
        <time>2022-06-09T08:33:06Z</time>
      </trkpt>
      <trkpt lat="44.75751" lon="4.43138">
        <ele>919.8</ele>
        <time>2022-06-09T08:33:07Z</time>
      </trkpt>
      <trkpt lat="44.75755" lon="4.43138">
        <ele>919.9</ele>
        <time>2022-06-09T08:33:08Z</time>
      </trkpt>
      <trkpt lat="44.75759" lon="4.43139">
        <ele>920</ele>
        <time>2022-06-09T08:33:10Z</time>
      </trkpt>
      <trkpt lat="44.75763" lon="4.4314">
        <ele>920</ele>
        <time>2022-06-09T08:33:11Z</time>
      </trkpt>
      <trkpt lat="44.75764" lon="4.43141">
        <ele>920</ele>
        <time>2022-06-09T08:33:12Z</time>
      </trkpt>
      <trkpt lat="44.75767" lon="4.43141">
        <ele>920.1</ele>
        <time>2022-06-09T08:33:13Z</time>
      </trkpt>
      <trkpt lat="44.7577" lon="4.43141">
        <ele>920.2</ele>
        <time>2022-06-09T08:33:14Z</time>
      </trkpt>
      <trkpt lat="44.75773" lon="4.43141">
        <ele>920.2</ele>
        <time>2022-06-09T08:33:15Z</time>
      </trkpt>
      <trkpt lat="44.75777" lon="4.43142">
        <ele>920.3</ele>
        <time>2022-06-09T08:33:16Z</time>
      </trkpt>
      <trkpt lat="44.75779" lon="4.43142">
        <ele>920.4</ele>
        <time>2022-06-09T08:33:17Z</time>
      </trkpt>
      <trkpt lat="44.75782" lon="4.43143">
        <ele>920.4</ele>
        <time>2022-06-09T08:33:18Z</time>
      </trkpt>
      <trkpt lat="44.75784" lon="4.43143">
        <ele>920.5</ele>
        <time>2022-06-09T08:33:19Z</time>
      </trkpt>
      <trkpt lat="44.75787" lon="4.43143">
        <ele>920.5</ele>
        <time>2022-06-09T08:33:20Z</time>
      </trkpt>
      <trkpt lat="44.7579" lon="4.43143">
        <ele>920.6</ele>
        <time>2022-06-09T08:33:21Z</time>
      </trkpt>
      <trkpt lat="44.75793" lon="4.43144">
        <ele>920.6</ele>
        <time>2022-06-09T08:33:22Z</time>
      </trkpt>
      <trkpt lat="44.75795" lon="4.43144">
        <ele>920.7</ele>
        <time>2022-06-09T08:33:23Z</time>
      </trkpt>
      <trkpt lat="44.75799" lon="4.43143">
        <ele>920.7</ele>
        <time>2022-06-09T08:33:24Z</time>
      </trkpt>
      <trkpt lat="44.75805" lon="4.43143">
        <ele>920.9</ele>
        <time>2022-06-09T08:33:26Z</time>
      </trkpt>
      <trkpt lat="44.75809" lon="4.43142">
        <ele>921</ele>
        <time>2022-06-09T08:33:28Z</time>
      </trkpt>
      <trkpt lat="44.75813" lon="4.43141">
        <ele>921.1</ele>
        <time>2022-06-09T08:33:29Z</time>
      </trkpt>
      <trkpt lat="44.75817" lon="4.43141">
        <ele>921.2</ele>
        <time>2022-06-09T08:33:31Z</time>
      </trkpt>
      <trkpt lat="44.75819" lon="4.43141">
        <ele>921.2</ele>
        <time>2022-06-09T08:33:32Z</time>
      </trkpt>
      <trkpt lat="44.75821" lon="4.43141">
        <ele>921.3</ele>
        <time>2022-06-09T08:33:33Z</time>
      </trkpt>
      <trkpt lat="44.75824" lon="4.4314">
        <ele>921.4</ele>
        <time>2022-06-09T08:33:34Z</time>
      </trkpt>
      <trkpt lat="44.75828" lon="4.4314">
        <ele>921.4</ele>
        <time>2022-06-09T08:33:35Z</time>
      </trkpt>
      <trkpt lat="44.75831" lon="4.43139">
        <ele>921.5</ele>
        <time>2022-06-09T08:33:36Z</time>
      </trkpt>
      <trkpt lat="44.75834" lon="4.43138">
        <ele>921.6</ele>
        <time>2022-06-09T08:33:38Z</time>
      </trkpt>
      <trkpt lat="44.75839" lon="4.43137">
        <ele>921.7</ele>
        <time>2022-06-09T08:33:39Z</time>
      </trkpt>
      <trkpt lat="44.75841" lon="4.43137">
        <ele>921.8</ele>
        <time>2022-06-09T08:33:40Z</time>
      </trkpt>
      <trkpt lat="44.75845" lon="4.43136">
        <ele>921.9</ele>
        <time>2022-06-09T08:33:42Z</time>
      </trkpt>
      <trkpt lat="44.75848" lon="4.43135">
        <ele>921.9</ele>
        <time>2022-06-09T08:33:43Z</time>
      </trkpt>
      <trkpt lat="44.75851" lon="4.43133">
        <ele>922</ele>
        <time>2022-06-09T08:33:44Z</time>
      </trkpt>
      <trkpt lat="44.75854" lon="4.43132">
        <ele>922.1</ele>
        <time>2022-06-09T08:33:45Z</time>
      </trkpt>
      <trkpt lat="44.75856" lon="4.4313">
        <ele>922.1</ele>
        <time>2022-06-09T08:33:46Z</time>
      </trkpt>
      <trkpt lat="44.75859" lon="4.4313">
        <ele>922.2</ele>
        <time>2022-06-09T08:33:48Z</time>
      </trkpt>
      <trkpt lat="44.75863" lon="4.4313">
        <ele>922.3</ele>
        <time>2022-06-09T08:33:49Z</time>
      </trkpt>
      <trkpt lat="44.75864" lon="4.43129">
        <ele>922.3</ele>
        <time>2022-06-09T08:33:50Z</time>
      </trkpt>
      <trkpt lat="44.75868" lon="4.43128">
        <ele>922.4</ele>
        <time>2022-06-09T08:33:51Z</time>
      </trkpt>
      <trkpt lat="44.75869" lon="4.43128">
        <ele>922.4</ele>
        <time>2022-06-09T08:33:52Z</time>
      </trkpt>
      <trkpt lat="44.75873" lon="4.43127">
        <ele>922.5</ele>
        <time>2022-06-09T08:33:53Z</time>
      </trkpt>
      <trkpt lat="44.75874" lon="4.43126">
        <ele>922.5</ele>
        <time>2022-06-09T08:33:54Z</time>
      </trkpt>
      <trkpt lat="44.7588" lon="4.43124">
        <ele>922.6</ele>
        <time>2022-06-09T08:33:55Z</time>
      </trkpt>
      <trkpt lat="44.75882" lon="4.43123">
        <ele>922.7</ele>
        <time>2022-06-09T08:33:56Z</time>
      </trkpt>
      <trkpt lat="44.75885" lon="4.43122">
        <ele>922.8</ele>
        <time>2022-06-09T08:33:58Z</time>
      </trkpt>
      <trkpt lat="44.75888" lon="4.4312">
        <ele>922.8</ele>
        <time>2022-06-09T08:33:59Z</time>
      </trkpt>
      <trkpt lat="44.75891" lon="4.43119">
        <ele>922.9</ele>
        <time>2022-06-09T08:34:00Z</time>
      </trkpt>
      <trkpt lat="44.75893" lon="4.43118">
        <ele>923</ele>
        <time>2022-06-09T08:34:01Z</time>
      </trkpt>
      <trkpt lat="44.75896" lon="4.43117">
        <ele>923</ele>
        <time>2022-06-09T08:34:02Z</time>
      </trkpt>
      <trkpt lat="44.75899" lon="4.43117">
        <ele>923.1</ele>
        <time>2022-06-09T08:34:03Z</time>
      </trkpt>
      <trkpt lat="44.75902" lon="4.43116">
        <ele>923.2</ele>
        <time>2022-06-09T08:34:04Z</time>
      </trkpt>
      <trkpt lat="44.75904" lon="4.43117">
        <ele>923.2</ele>
        <time>2022-06-09T08:34:05Z</time>
      </trkpt>
      <trkpt lat="44.7591" lon="4.43118">
        <ele>923.4</ele>
        <time>2022-06-09T08:34:06Z</time>
      </trkpt>
      <trkpt lat="44.75912" lon="4.43119">
        <ele>923.4</ele>
        <time>2022-06-09T08:34:08Z</time>
      </trkpt>
      <trkpt lat="44.75915" lon="4.4312">
        <ele>923.5</ele>
        <time>2022-06-09T08:34:09Z</time>
      </trkpt>
      <trkpt lat="44.75919" lon="4.43121">
        <ele>923.6</ele>
        <time>2022-06-09T08:34:10Z</time>
      </trkpt>
      <trkpt lat="44.75919" lon="4.43122">
        <ele>923.6</ele>
        <time>2022-06-09T08:34:11Z</time>
      </trkpt>
      <trkpt lat="44.75923" lon="4.43124">
        <ele>923.7</ele>
        <time>2022-06-09T08:34:12Z</time>
      </trkpt>
      <trkpt lat="44.75926" lon="4.43126">
        <ele>923.8</ele>
        <time>2022-06-09T08:34:13Z</time>
      </trkpt>
      <trkpt lat="44.75929" lon="4.43128">
        <ele>923.8</ele>
        <time>2022-06-09T08:34:15Z</time>
      </trkpt>
      <trkpt lat="44.75931" lon="4.43129">
        <ele>923.9</ele>
        <time>2022-06-09T08:34:16Z</time>
      </trkpt>
      <trkpt lat="44.75934" lon="4.43134">
        <ele>924</ele>
        <time>2022-06-09T08:34:17Z</time>
      </trkpt>
      <trkpt lat="44.75936" lon="4.43136">
        <ele>924</ele>
        <time>2022-06-09T08:34:18Z</time>
      </trkpt>
      <trkpt lat="44.75938" lon="4.43138">
        <ele>924.1</ele>
        <time>2022-06-09T08:34:19Z</time>
      </trkpt>
      <trkpt lat="44.75941" lon="4.43141">
        <ele>924.1</ele>
        <time>2022-06-09T08:34:20Z</time>
      </trkpt>
      <trkpt lat="44.75943" lon="4.43144">
        <ele>924.2</ele>
        <time>2022-06-09T08:34:22Z</time>
      </trkpt>
      <trkpt lat="44.75946" lon="4.43148">
        <ele>924.3</ele>
        <time>2022-06-09T08:34:23Z</time>
      </trkpt>
      <trkpt lat="44.75949" lon="4.43152">
        <ele>924.3</ele>
        <time>2022-06-09T08:34:24Z</time>
      </trkpt>
      <trkpt lat="44.75952" lon="4.43158">
        <ele>924.4</ele>
        <time>2022-06-09T08:34:26Z</time>
      </trkpt>
      <trkpt lat="44.75954" lon="4.43161">
        <ele>924.5</ele>
        <time>2022-06-09T08:34:27Z</time>
      </trkpt>
      <trkpt lat="44.75958" lon="4.43168">
        <ele>924.6</ele>
        <time>2022-06-09T08:34:29Z</time>
      </trkpt>
      <trkpt lat="44.7596" lon="4.43171">
        <ele>924.7</ele>
        <time>2022-06-09T08:34:31Z</time>
      </trkpt>
      <trkpt lat="44.75962" lon="4.43174">
        <ele>924.8</ele>
        <time>2022-06-09T08:34:32Z</time>
      </trkpt>
      <trkpt lat="44.75963" lon="4.43175">
        <ele>924.8</ele>
        <time>2022-06-09T08:34:33Z</time>
      </trkpt>
      <trkpt lat="44.75965" lon="4.43179">
        <ele>924.9</ele>
        <time>2022-06-09T08:34:34Z</time>
      </trkpt>
      <trkpt lat="44.75967" lon="4.43182">
        <ele>924.9</ele>
        <time>2022-06-09T08:34:35Z</time>
      </trkpt>
      <trkpt lat="44.75968" lon="4.43184">
        <ele>925</ele>
        <time>2022-06-09T08:34:36Z</time>
      </trkpt>
      <trkpt lat="44.7597" lon="4.43187">
        <ele>925</ele>
        <time>2022-06-09T08:34:37Z</time>
      </trkpt>
      <trkpt lat="44.75972" lon="4.43189">
        <ele>925.1</ele>
        <time>2022-06-09T08:34:39Z</time>
      </trkpt>
      <trkpt lat="44.75975" lon="4.43192">
        <ele>925.2</ele>
        <time>2022-06-09T08:34:40Z</time>
      </trkpt>
      <trkpt lat="44.75976" lon="4.43194">
        <ele>925.2</ele>
        <time>2022-06-09T08:34:41Z</time>
      </trkpt>
      <trkpt lat="44.75979" lon="4.43197">
        <ele>925.3</ele>
        <time>2022-06-09T08:34:43Z</time>
      </trkpt>
      <trkpt lat="44.75982" lon="4.432">
        <ele>925.3</ele>
        <time>2022-06-09T08:34:44Z</time>
      </trkpt>
      <trkpt lat="44.75985" lon="4.43202">
        <ele>925.4</ele>
        <time>2022-06-09T08:34:45Z</time>
      </trkpt>
      <trkpt lat="44.75988" lon="4.43203">
        <ele>925.5</ele>
        <time>2022-06-09T08:34:46Z</time>
      </trkpt>
      <trkpt lat="44.75993" lon="4.43205">
        <ele>925.6</ele>
        <time>2022-06-09T08:34:48Z</time>
      </trkpt>
      <trkpt lat="44.75995" lon="4.43206">
        <ele>925.6</ele>
        <time>2022-06-09T08:34:49Z</time>
      </trkpt>
      <trkpt lat="44.75997" lon="4.43207">
        <ele>925.6</ele>
        <time>2022-06-09T08:34:50Z</time>
      </trkpt>
      <trkpt lat="44.75999" lon="4.43207">
        <ele>925.7</ele>
        <time>2022-06-09T08:34:51Z</time>
      </trkpt>
      <trkpt lat="44.76002" lon="4.43208">
        <ele>925.7</ele>
        <time>2022-06-09T08:34:52Z</time>
      </trkpt>
      <trkpt lat="44.76006" lon="4.43208">
        <ele>925.8</ele>
        <time>2022-06-09T08:34:53Z</time>
      </trkpt>
      <trkpt lat="44.7601" lon="4.43207">
        <ele>925.9</ele>
        <time>2022-06-09T08:34:54Z</time>
      </trkpt>
      <trkpt lat="44.76015" lon="4.43205">
        <ele>926</ele>
        <time>2022-06-09T08:34:56Z</time>
      </trkpt>
      <trkpt lat="44.76018" lon="4.43204">
        <ele>926.1</ele>
        <time>2022-06-09T08:34:58Z</time>
      </trkpt>
      <trkpt lat="44.76021" lon="4.43202">
        <ele>926.2</ele>
        <time>2022-06-09T08:34:59Z</time>
      </trkpt>
      <trkpt lat="44.76025" lon="4.43199">
        <ele>926.3</ele>
        <time>2022-06-09T08:35:01Z</time>
      </trkpt>
      <trkpt lat="44.76029" lon="4.43196">
        <ele>926.4</ele>
        <time>2022-06-09T08:35:02Z</time>
      </trkpt>
      <trkpt lat="44.76031" lon="4.43194">
        <ele>926.5</ele>
        <time>2022-06-09T08:35:04Z</time>
      </trkpt>
      <trkpt lat="44.76035" lon="4.4319">
        <ele>926.6</ele>
        <time>2022-06-09T08:35:05Z</time>
      </trkpt>
      <trkpt lat="44.76037" lon="4.43188">
        <ele>926.6</ele>
        <time>2022-06-09T08:35:06Z</time>
      </trkpt>
      <trkpt lat="44.76039" lon="4.43186">
        <ele>926.7</ele>
        <time>2022-06-09T08:35:08Z</time>
      </trkpt>
      <trkpt lat="44.76042" lon="4.43183">
        <ele>926.8</ele>
        <time>2022-06-09T08:35:09Z</time>
      </trkpt>
      <trkpt lat="44.76043" lon="4.43181">
        <ele>926.8</ele>
        <time>2022-06-09T08:35:10Z</time>
      </trkpt>
      <trkpt lat="44.76046" lon="4.43178">
        <ele>926.9</ele>
        <time>2022-06-09T08:35:11Z</time>
      </trkpt>
      <trkpt lat="44.76047" lon="4.43177">
        <ele>926.9</ele>
        <time>2022-06-09T08:35:12Z</time>
      </trkpt>
      <trkpt lat="44.7605" lon="4.43173">
        <ele>927</ele>
        <time>2022-06-09T08:35:13Z</time>
      </trkpt>
      <trkpt lat="44.76051" lon="4.43171">
        <ele>927</ele>
        <time>2022-06-09T08:35:14Z</time>
      </trkpt>
      <trkpt lat="44.76053" lon="4.43168">
        <ele>927</ele>
        <time>2022-06-09T08:35:15Z</time>
      </trkpt>
      <trkpt lat="44.76057" lon="4.43163">
        <ele>927.1</ele>
        <time>2022-06-09T08:35:16Z</time>
      </trkpt>
      <trkpt lat="44.76059" lon="4.4316">
        <ele>927.2</ele>
        <time>2022-06-09T08:35:18Z</time>
      </trkpt>
      <trkpt lat="44.76062" lon="4.43156">
        <ele>927.2</ele>
        <time>2022-06-09T08:35:19Z</time>
      </trkpt>
      <trkpt lat="44.76063" lon="4.43155">
        <ele>927.2</ele>
        <time>2022-06-09T08:35:20Z</time>
      </trkpt>
      <trkpt lat="44.76065" lon="4.43152">
        <ele>927.3</ele>
        <time>2022-06-09T08:35:21Z</time>
      </trkpt>
      <trkpt lat="44.76068" lon="4.43149">
        <ele>927.3</ele>
        <time>2022-06-09T08:35:22Z</time>
      </trkpt>
      <trkpt lat="44.7607" lon="4.43146">
        <ele>927.3</ele>
        <time>2022-06-09T08:35:23Z</time>
      </trkpt>
      <trkpt lat="44.76072" lon="4.43144">
        <ele>927.4</ele>
        <time>2022-06-09T08:35:24Z</time>
      </trkpt>
      <trkpt lat="44.76075" lon="4.4314">
        <ele>927.4</ele>
        <time>2022-06-09T08:35:25Z</time>
      </trkpt>
      <trkpt lat="44.76078" lon="4.43136">
        <ele>927.5</ele>
        <time>2022-06-09T08:35:26Z</time>
      </trkpt>
      <trkpt lat="44.76081" lon="4.43134">
        <ele>927.5</ele>
        <time>2022-06-09T08:35:27Z</time>
      </trkpt>
      <trkpt lat="44.76084" lon="4.4313">
        <ele>927.6</ele>
        <time>2022-06-09T08:35:29Z</time>
      </trkpt>
      <trkpt lat="44.76087" lon="4.43127">
        <ele>927.6</ele>
        <time>2022-06-09T08:35:30Z</time>
      </trkpt>
      <trkpt lat="44.7609" lon="4.43123">
        <ele>927.7</ele>
        <time>2022-06-09T08:35:31Z</time>
      </trkpt>
      <trkpt lat="44.76093" lon="4.4312">
        <ele>927.7</ele>
        <time>2022-06-09T08:35:32Z</time>
      </trkpt>
      <trkpt lat="44.76097" lon="4.43116">
        <ele>927.8</ele>
        <time>2022-06-09T08:35:34Z</time>
      </trkpt>
      <trkpt lat="44.761" lon="4.43113">
        <ele>927.9</ele>
        <time>2022-06-09T08:35:35Z</time>
      </trkpt>
      <trkpt lat="44.76103" lon="4.4311">
        <ele>928</ele>
        <time>2022-06-09T08:35:37Z</time>
      </trkpt>
      <trkpt lat="44.76106" lon="4.43106">
        <ele>928.1</ele>
        <time>2022-06-09T08:35:38Z</time>
      </trkpt>
      <trkpt lat="44.76109" lon="4.43103">
        <ele>928.2</ele>
        <time>2022-06-09T08:35:39Z</time>
      </trkpt>
      <trkpt lat="44.76112" lon="4.431">
        <ele>928.3</ele>
        <time>2022-06-09T08:35:40Z</time>
      </trkpt>
      <trkpt lat="44.76115" lon="4.43097">
        <ele>928.3</ele>
        <time>2022-06-09T08:35:42Z</time>
      </trkpt>
      <trkpt lat="44.76119" lon="4.43093">
        <ele>928.4</ele>
        <time>2022-06-09T08:35:43Z</time>
      </trkpt>
      <trkpt lat="44.76122" lon="4.4309">
        <ele>928.5</ele>
        <time>2022-06-09T08:35:44Z</time>
      </trkpt>
      <trkpt lat="44.76124" lon="4.43087">
        <ele>928.5</ele>
        <time>2022-06-09T08:35:45Z</time>
      </trkpt>
      <trkpt lat="44.76127" lon="4.43084">
        <ele>928.6</ele>
        <time>2022-06-09T08:35:47Z</time>
      </trkpt>
      <trkpt lat="44.76129" lon="4.43081">
        <ele>928.7</ele>
        <time>2022-06-09T08:35:48Z</time>
      </trkpt>
      <trkpt lat="44.76133" lon="4.43075">
        <ele>928.7</ele>
        <time>2022-06-09T08:35:49Z</time>
      </trkpt>
      <trkpt lat="44.76135" lon="4.43071">
        <ele>928.8</ele>
        <time>2022-06-09T08:35:51Z</time>
      </trkpt>
      <trkpt lat="44.76137" lon="4.43068">
        <ele>928.8</ele>
        <time>2022-06-09T08:35:52Z</time>
      </trkpt>
      <trkpt lat="44.76139" lon="4.43059">
        <ele>929</ele>
        <time>2022-06-09T08:35:53Z</time>
      </trkpt>
      <trkpt lat="44.7614" lon="4.43054">
        <ele>929</ele>
        <time>2022-06-09T08:35:55Z</time>
      </trkpt>
      <trkpt lat="44.76141" lon="4.43044">
        <ele>929.2</ele>
        <time>2022-06-09T08:35:57Z</time>
      </trkpt>
      <trkpt lat="44.7614" lon="4.43039">
        <ele>929.2</ele>
        <time>2022-06-09T08:35:58Z</time>
      </trkpt>
      <trkpt lat="44.76138" lon="4.43035">
        <ele>929.3</ele>
        <time>2022-06-09T08:35:59Z</time>
      </trkpt>
      <trkpt lat="44.76136" lon="4.43028">
        <ele>929.4</ele>
        <time>2022-06-09T08:36:00Z</time>
      </trkpt>
      <trkpt lat="44.76134" lon="4.43024">
        <ele>929.5</ele>
        <time>2022-06-09T08:36:01Z</time>
      </trkpt>
      <trkpt lat="44.76132" lon="4.43018">
        <ele>929.5</ele>
        <time>2022-06-09T08:36:03Z</time>
      </trkpt>
      <trkpt lat="44.76131" lon="4.43014">
        <ele>929.6</ele>
        <time>2022-06-09T08:36:04Z</time>
      </trkpt>
      <trkpt lat="44.7613" lon="4.4301">
        <ele>929.6</ele>
        <time>2022-06-09T08:36:05Z</time>
      </trkpt>
      <trkpt lat="44.76127" lon="4.43006">
        <ele>929.7</ele>
        <time>2022-06-09T08:36:06Z</time>
      </trkpt>
      <trkpt lat="44.76125" lon="4.43002">
        <ele>929.8</ele>
        <time>2022-06-09T08:36:07Z</time>
      </trkpt>
      <trkpt lat="44.76122" lon="4.42994">
        <ele>929.9</ele>
        <time>2022-06-09T08:36:08Z</time>
      </trkpt>
      <trkpt lat="44.76118" lon="4.42986">
        <ele>930.1</ele>
        <time>2022-06-09T08:36:10Z</time>
      </trkpt>
      <trkpt lat="44.76116" lon="4.42982">
        <ele>930.1</ele>
        <time>2022-06-09T08:36:12Z</time>
      </trkpt>
      <trkpt lat="44.76114" lon="4.42978">
        <ele>930.2</ele>
        <time>2022-06-09T08:36:13Z</time>
      </trkpt>
      <trkpt lat="44.76112" lon="4.42974">
        <ele>930.3</ele>
        <time>2022-06-09T08:36:14Z</time>
      </trkpt>
      <trkpt lat="44.7611" lon="4.4297">
        <ele>930.4</ele>
        <time>2022-06-09T08:36:15Z</time>
      </trkpt>
      <trkpt lat="44.76108" lon="4.42964">
        <ele>930.5</ele>
        <time>2022-06-09T08:36:16Z</time>
      </trkpt>
      <trkpt lat="44.76106" lon="4.42959">
        <ele>930.6</ele>
        <time>2022-06-09T08:36:17Z</time>
      </trkpt>
      <trkpt lat="44.76104" lon="4.42955">
        <ele>930.7</ele>
        <time>2022-06-09T08:36:18Z</time>
      </trkpt>
      <trkpt lat="44.76102" lon="4.42951">
        <ele>930.8</ele>
        <time>2022-06-09T08:36:19Z</time>
      </trkpt>
      <trkpt lat="44.761" lon="4.42947">
        <ele>930.8</ele>
        <time>2022-06-09T08:36:20Z</time>
      </trkpt>
      <trkpt lat="44.76098" lon="4.42942">
        <ele>930.9</ele>
        <time>2022-06-09T08:36:21Z</time>
      </trkpt>
      <trkpt lat="44.76097" lon="4.42938">
        <ele>930.9</ele>
        <time>2022-06-09T08:36:22Z</time>
      </trkpt>
      <trkpt lat="44.76096" lon="4.42931">
        <ele>931</ele>
        <time>2022-06-09T08:36:23Z</time>
      </trkpt>
      <trkpt lat="44.76095" lon="4.42924">
        <ele>931.1</ele>
        <time>2022-06-09T08:36:24Z</time>
      </trkpt>
      <trkpt lat="44.76095" lon="4.42919">
        <ele>931.2</ele>
        <time>2022-06-09T08:36:25Z</time>
      </trkpt>
      <trkpt lat="44.76095" lon="4.42911">
        <ele>931.3</ele>
        <time>2022-06-09T08:36:26Z</time>
      </trkpt>
      <trkpt lat="44.76097" lon="4.42904">
        <ele>931.4</ele>
        <time>2022-06-09T08:36:27Z</time>
      </trkpt>
      <trkpt lat="44.76099" lon="4.42898">
        <ele>931.4</ele>
        <time>2022-06-09T08:36:29Z</time>
      </trkpt>
      <trkpt lat="44.76102" lon="4.42891">
        <ele>931.5</ele>
        <time>2022-06-09T08:36:30Z</time>
      </trkpt>
      <trkpt lat="44.76104" lon="4.42887">
        <ele>931.6</ele>
        <time>2022-06-09T08:36:31Z</time>
      </trkpt>
      <trkpt lat="44.76106" lon="4.42881">
        <ele>931.7</ele>
        <time>2022-06-09T08:36:32Z</time>
      </trkpt>
      <trkpt lat="44.76108" lon="4.42874">
        <ele>931.7</ele>
        <time>2022-06-09T08:36:34Z</time>
      </trkpt>
      <trkpt lat="44.7611" lon="4.4287">
        <ele>931.8</ele>
        <time>2022-06-09T08:36:35Z</time>
      </trkpt>
      <trkpt lat="44.76113" lon="4.42863">
        <ele>931.9</ele>
        <time>2022-06-09T08:36:36Z</time>
      </trkpt>
      <trkpt lat="44.76115" lon="4.42857">
        <ele>931.9</ele>
        <time>2022-06-09T08:36:37Z</time>
      </trkpt>
      <trkpt lat="44.76118" lon="4.42852">
        <ele>932</ele>
        <time>2022-06-09T08:36:38Z</time>
      </trkpt>
      <trkpt lat="44.7612" lon="4.42847">
        <ele>932.1</ele>
        <time>2022-06-09T08:36:39Z</time>
      </trkpt>
      <trkpt lat="44.76123" lon="4.42836">
        <ele>932.2</ele>
        <time>2022-06-09T08:36:41Z</time>
      </trkpt>
      <trkpt lat="44.76126" lon="4.42831">
        <ele>932.3</ele>
        <time>2022-06-09T08:36:43Z</time>
      </trkpt>
      <trkpt lat="44.76129" lon="4.42824">
        <ele>932.4</ele>
        <time>2022-06-09T08:36:44Z</time>
      </trkpt>
      <trkpt lat="44.76131" lon="4.42817">
        <ele>932.5</ele>
        <time>2022-06-09T08:36:46Z</time>
      </trkpt>
      <trkpt lat="44.76133" lon="4.42812">
        <ele>932.6</ele>
        <time>2022-06-09T08:36:47Z</time>
      </trkpt>
      <trkpt lat="44.76135" lon="4.42808">
        <ele>932.7</ele>
        <time>2022-06-09T08:36:48Z</time>
      </trkpt>
      <trkpt lat="44.76137" lon="4.42802">
        <ele>932.8</ele>
        <time>2022-06-09T08:36:49Z</time>
      </trkpt>
      <trkpt lat="44.76139" lon="4.42798">
        <ele>932.9</ele>
        <time>2022-06-09T08:36:50Z</time>
      </trkpt>
      <trkpt lat="44.7614" lon="4.42793">
        <ele>932.9</ele>
        <time>2022-06-09T08:36:51Z</time>
      </trkpt>
      <trkpt lat="44.76141" lon="4.42788">
        <ele>933</ele>
        <time>2022-06-09T08:36:52Z</time>
      </trkpt>
      <trkpt lat="44.76143" lon="4.42778">
        <ele>933.1</ele>
        <time>2022-06-09T08:36:53Z</time>
      </trkpt>
      <trkpt lat="44.76144" lon="4.42773">
        <ele>933.2</ele>
        <time>2022-06-09T08:36:55Z</time>
      </trkpt>
      <trkpt lat="44.76145" lon="4.42768">
        <ele>933.2</ele>
        <time>2022-06-09T08:36:56Z</time>
      </trkpt>
      <trkpt lat="44.76145" lon="4.42763">
        <ele>933.3</ele>
        <time>2022-06-09T08:36:57Z</time>
      </trkpt>
      <trkpt lat="44.76146" lon="4.42758">
        <ele>933.4</ele>
        <time>2022-06-09T08:36:58Z</time>
      </trkpt>
      <trkpt lat="44.76146" lon="4.42753">
        <ele>933.5</ele>
        <time>2022-06-09T08:36:59Z</time>
      </trkpt>
      <trkpt lat="44.76146" lon="4.42748">
        <ele>933.6</ele>
        <time>2022-06-09T08:37:00Z</time>
      </trkpt>
      <trkpt lat="44.76146" lon="4.42737">
        <ele>933.7</ele>
        <time>2022-06-09T08:37:01Z</time>
      </trkpt>
      <trkpt lat="44.76146" lon="4.42732">
        <ele>933.8</ele>
        <time>2022-06-09T08:37:03Z</time>
      </trkpt>
      <trkpt lat="44.76145" lon="4.42727">
        <ele>933.9</ele>
        <time>2022-06-09T08:37:04Z</time>
      </trkpt>
      <trkpt lat="44.76144" lon="4.42722">
        <ele>934</ele>
        <time>2022-06-09T08:37:05Z</time>
      </trkpt>
      <trkpt lat="44.76144" lon="4.42717">
        <ele>934.1</ele>
        <time>2022-06-09T08:37:06Z</time>
      </trkpt>
      <trkpt lat="44.76143" lon="4.42711">
        <ele>934.2</ele>
        <time>2022-06-09T08:37:07Z</time>
      </trkpt>
      <trkpt lat="44.76142" lon="4.42706">
        <ele>934.2</ele>
        <time>2022-06-09T08:37:08Z</time>
      </trkpt>
      <trkpt lat="44.7614" lon="4.42701">
        <ele>934.3</ele>
        <time>2022-06-09T08:37:09Z</time>
      </trkpt>
      <trkpt lat="44.76139" lon="4.42692">
        <ele>934.4</ele>
        <time>2022-06-09T08:37:10Z</time>
      </trkpt>
      <trkpt lat="44.76138" lon="4.42687">
        <ele>934.5</ele>
        <time>2022-06-09T08:37:12Z</time>
      </trkpt>
      <trkpt lat="44.76137" lon="4.42681">
        <ele>934.6</ele>
        <time>2022-06-09T08:37:13Z</time>
      </trkpt>
      <trkpt lat="44.76135" lon="4.42677">
        <ele>934.6</ele>
        <time>2022-06-09T08:37:14Z</time>
      </trkpt>
      <trkpt lat="44.76134" lon="4.42672">
        <ele>934.7</ele>
        <time>2022-06-09T08:37:15Z</time>
      </trkpt>
      <trkpt lat="44.76132" lon="4.42667">
        <ele>934.8</ele>
        <time>2022-06-09T08:37:16Z</time>
      </trkpt>
      <trkpt lat="44.76131" lon="4.42662">
        <ele>934.9</ele>
        <time>2022-06-09T08:37:17Z</time>
      </trkpt>
      <trkpt lat="44.7613" lon="4.42658">
        <ele>935</ele>
        <time>2022-06-09T08:37:18Z</time>
      </trkpt>
      <trkpt lat="44.76129" lon="4.42651">
        <ele>935.1</ele>
        <time>2022-06-09T08:37:19Z</time>
      </trkpt>
      <trkpt lat="44.76128" lon="4.42645">
        <ele>935.2</ele>
        <time>2022-06-09T08:37:20Z</time>
      </trkpt>
      <trkpt lat="44.76126" lon="4.42638">
        <ele>935.4</ele>
        <time>2022-06-09T08:37:22Z</time>
      </trkpt>
      <trkpt lat="44.76125" lon="4.42633">
        <ele>935.5</ele>
        <time>2022-06-09T08:37:23Z</time>
      </trkpt>
      <trkpt lat="44.76123" lon="4.42626">
        <ele>935.6</ele>
        <time>2022-06-09T08:37:24Z</time>
      </trkpt>
      <trkpt lat="44.76121" lon="4.42621">
        <ele>935.7</ele>
        <time>2022-06-09T08:37:25Z</time>
      </trkpt>
      <trkpt lat="44.7612" lon="4.42615">
        <ele>935.8</ele>
        <time>2022-06-09T08:37:26Z</time>
      </trkpt>
      <trkpt lat="44.76119" lon="4.42611">
        <ele>935.8</ele>
        <time>2022-06-09T08:37:27Z</time>
      </trkpt>
      <trkpt lat="44.76117" lon="4.42604">
        <ele>935.9</ele>
        <time>2022-06-09T08:37:28Z</time>
      </trkpt>
      <trkpt lat="44.76115" lon="4.42598">
        <ele>936</ele>
        <time>2022-06-09T08:37:29Z</time>
      </trkpt>
      <trkpt lat="44.76113" lon="4.42592">
        <ele>936.1</ele>
        <time>2022-06-09T08:37:31Z</time>
      </trkpt>
      <trkpt lat="44.76112" lon="4.42587">
        <ele>936.1</ele>
        <time>2022-06-09T08:37:32Z</time>
      </trkpt>
      <trkpt lat="44.7611" lon="4.42579">
        <ele>936.2</ele>
        <time>2022-06-09T08:37:33Z</time>
      </trkpt>
      <trkpt lat="44.76109" lon="4.42574">
        <ele>936.3</ele>
        <time>2022-06-09T08:37:34Z</time>
      </trkpt>
      <trkpt lat="44.76108" lon="4.42567">
        <ele>936.3</ele>
        <time>2022-06-09T08:37:35Z</time>
      </trkpt>
      <trkpt lat="44.76106" lon="4.42562">
        <ele>936.4</ele>
        <time>2022-06-09T08:37:36Z</time>
      </trkpt>
      <trkpt lat="44.76104" lon="4.42556">
        <ele>936.5</ele>
        <time>2022-06-09T08:37:38Z</time>
      </trkpt>
      <trkpt lat="44.76103" lon="4.42551">
        <ele>936.6</ele>
        <time>2022-06-09T08:37:39Z</time>
      </trkpt>
      <trkpt lat="44.76101" lon="4.42546">
        <ele>936.7</ele>
        <time>2022-06-09T08:37:40Z</time>
      </trkpt>
      <trkpt lat="44.761" lon="4.42541">
        <ele>936.8</ele>
        <time>2022-06-09T08:37:41Z</time>
      </trkpt>
      <trkpt lat="44.76097" lon="4.42531">
        <ele>937</ele>
        <time>2022-06-09T08:37:42Z</time>
      </trkpt>
      <trkpt lat="44.76096" lon="4.42525">
        <ele>937.1</ele>
        <time>2022-06-09T08:37:44Z</time>
      </trkpt>
      <trkpt lat="44.76095" lon="4.4252">
        <ele>937.2</ele>
        <time>2022-06-09T08:37:45Z</time>
      </trkpt>
      <trkpt lat="44.76093" lon="4.42515">
        <ele>937.3</ele>
        <time>2022-06-09T08:37:46Z</time>
      </trkpt>
      <trkpt lat="44.76092" lon="4.42506">
        <ele>937.4</ele>
        <time>2022-06-09T08:37:47Z</time>
      </trkpt>
      <trkpt lat="44.76092" lon="4.42501">
        <ele>937.5</ele>
        <time>2022-06-09T08:37:48Z</time>
      </trkpt>
      <trkpt lat="44.7609" lon="4.42495">
        <ele>937.6</ele>
        <time>2022-06-09T08:37:50Z</time>
      </trkpt>
      <trkpt lat="44.76089" lon="4.4249">
        <ele>937.7</ele>
        <time>2022-06-09T08:37:51Z</time>
      </trkpt>
      <trkpt lat="44.76088" lon="4.42484">
        <ele>937.8</ele>
        <time>2022-06-09T08:37:52Z</time>
      </trkpt>
      <trkpt lat="44.76087" lon="4.42479">
        <ele>938</ele>
        <time>2022-06-09T08:37:53Z</time>
      </trkpt>
      <trkpt lat="44.76087" lon="4.42474">
        <ele>938</ele>
        <time>2022-06-09T08:37:54Z</time>
      </trkpt>
      <trkpt lat="44.76087" lon="4.4247">
        <ele>938.1</ele>
        <time>2022-06-09T08:37:55Z</time>
      </trkpt>
      <trkpt lat="44.76086" lon="4.42465">
        <ele>938.2</ele>
        <time>2022-06-09T08:37:56Z</time>
      </trkpt>
      <trkpt lat="44.76086" lon="4.4246">
        <ele>938.4</ele>
        <time>2022-06-09T08:37:57Z</time>
      </trkpt>
      <trkpt lat="44.76085" lon="4.42451">
        <ele>938.6</ele>
        <time>2022-06-09T08:37:58Z</time>
      </trkpt>
      <trkpt lat="44.76084" lon="4.42446">
        <ele>938.7</ele>
        <time>2022-06-09T08:38:00Z</time>
      </trkpt>
      <trkpt lat="44.76084" lon="4.42442">
        <ele>938.8</ele>
        <time>2022-06-09T08:38:01Z</time>
      </trkpt>
      <trkpt lat="44.76084" lon="4.42437">
        <ele>938.9</ele>
        <time>2022-06-09T08:38:02Z</time>
      </trkpt>
      <trkpt lat="44.76084" lon="4.42432">
        <ele>939</ele>
        <time>2022-06-09T08:38:03Z</time>
      </trkpt>
      <trkpt lat="44.76084" lon="4.42425">
        <ele>939.1</ele>
        <time>2022-06-09T08:38:04Z</time>
      </trkpt>
      <trkpt lat="44.76085" lon="4.4242">
        <ele>939.2</ele>
        <time>2022-06-09T08:38:05Z</time>
      </trkpt>
      <trkpt lat="44.76086" lon="4.42416">
        <ele>939.3</ele>
        <time>2022-06-09T08:38:06Z</time>
      </trkpt>
      <trkpt lat="44.76087" lon="4.42411">
        <ele>939.3</ele>
        <time>2022-06-09T08:38:07Z</time>
      </trkpt>
      <trkpt lat="44.76089" lon="4.42402">
        <ele>939.5</ele>
        <time>2022-06-09T08:38:09Z</time>
      </trkpt>
      <trkpt lat="44.7609" lon="4.42397">
        <ele>939.5</ele>
        <time>2022-06-09T08:38:10Z</time>
      </trkpt>
      <trkpt lat="44.76093" lon="4.42389">
        <ele>939.7</ele>
        <time>2022-06-09T08:38:12Z</time>
      </trkpt>
      <trkpt lat="44.76095" lon="4.42384">
        <ele>939.7</ele>
        <time>2022-06-09T08:38:14Z</time>
      </trkpt>
      <trkpt lat="44.76098" lon="4.42379">
        <ele>939.8</ele>
        <time>2022-06-09T08:38:15Z</time>
      </trkpt>
      <trkpt lat="44.76101" lon="4.42374">
        <ele>939.9</ele>
        <time>2022-06-09T08:38:16Z</time>
      </trkpt>
      <trkpt lat="44.76105" lon="4.42371">
        <ele>940</ele>
        <time>2022-06-09T08:38:17Z</time>
      </trkpt>
      <trkpt lat="44.76109" lon="4.42367">
        <ele>940</ele>
        <time>2022-06-09T08:38:19Z</time>
      </trkpt>
      <trkpt lat="44.76113" lon="4.42361">
        <ele>940.1</ele>
        <time>2022-06-09T08:38:20Z</time>
      </trkpt>
      <trkpt lat="44.76117" lon="4.42357">
        <ele>940.1</ele>
        <time>2022-06-09T08:38:22Z</time>
      </trkpt>
      <trkpt lat="44.76121" lon="4.42353">
        <ele>940.2</ele>
        <time>2022-06-09T08:38:23Z</time>
      </trkpt>
      <trkpt lat="44.76125" lon="4.42351">
        <ele>940.3</ele>
        <time>2022-06-09T08:38:24Z</time>
      </trkpt>
      <trkpt lat="44.76129" lon="4.42348">
        <ele>940.3</ele>
        <time>2022-06-09T08:38:25Z</time>
      </trkpt>
      <trkpt lat="44.76132" lon="4.42345">
        <ele>940.4</ele>
        <time>2022-06-09T08:38:27Z</time>
      </trkpt>
      <trkpt lat="44.76135" lon="4.42342">
        <ele>940.4</ele>
        <time>2022-06-09T08:38:28Z</time>
      </trkpt>
      <trkpt lat="44.76139" lon="4.42339">
        <ele>940.4</ele>
        <time>2022-06-09T08:38:29Z</time>
      </trkpt>
      <trkpt lat="44.76144" lon="4.42335">
        <ele>940.5</ele>
        <time>2022-06-09T08:38:30Z</time>
      </trkpt>
      <trkpt lat="44.76148" lon="4.42333">
        <ele>940.5</ele>
        <time>2022-06-09T08:38:31Z</time>
      </trkpt>
      <trkpt lat="44.76151" lon="4.42331">
        <ele>940.6</ele>
        <time>2022-06-09T08:38:32Z</time>
      </trkpt>
      <trkpt lat="44.76155" lon="4.42329">
        <ele>940.6</ele>
        <time>2022-06-09T08:38:34Z</time>
      </trkpt>
      <trkpt lat="44.76158" lon="4.42328">
        <ele>940.7</ele>
        <time>2022-06-09T08:38:35Z</time>
      </trkpt>
      <trkpt lat="44.76163" lon="4.42325">
        <ele>940.7</ele>
        <time>2022-06-09T08:38:36Z</time>
      </trkpt>
      <trkpt lat="44.76168" lon="4.42322">
        <ele>940.8</ele>
        <time>2022-06-09T08:38:37Z</time>
      </trkpt>
      <trkpt lat="44.76171" lon="4.4232">
        <ele>940.8</ele>
        <time>2022-06-09T08:38:38Z</time>
      </trkpt>
      <trkpt lat="44.76176" lon="4.42318">
        <ele>940.9</ele>
        <time>2022-06-09T08:38:40Z</time>
      </trkpt>
      <trkpt lat="44.76179" lon="4.42317">
        <ele>941</ele>
        <time>2022-06-09T08:38:41Z</time>
      </trkpt>
      <trkpt lat="44.76183" lon="4.42316">
        <ele>941</ele>
        <time>2022-06-09T08:38:42Z</time>
      </trkpt>
      <trkpt lat="44.76186" lon="4.42314">
        <ele>941.1</ele>
        <time>2022-06-09T08:38:43Z</time>
      </trkpt>
      <trkpt lat="44.76189" lon="4.42312">
        <ele>941.1</ele>
        <time>2022-06-09T08:38:44Z</time>
      </trkpt>
      <trkpt lat="44.76195" lon="4.42309">
        <ele>941.2</ele>
        <time>2022-06-09T08:38:45Z</time>
      </trkpt>
      <trkpt lat="44.76201" lon="4.42305">
        <ele>941.3</ele>
        <time>2022-06-09T08:38:47Z</time>
      </trkpt>
      <trkpt lat="44.76205" lon="4.42303">
        <ele>941.4</ele>
        <time>2022-06-09T08:38:49Z</time>
      </trkpt>
      <trkpt lat="44.76209" lon="4.423">
        <ele>941.5</ele>
        <time>2022-06-09T08:38:50Z</time>
      </trkpt>
      <trkpt lat="44.76211" lon="4.42298">
        <ele>941.5</ele>
        <time>2022-06-09T08:38:51Z</time>
      </trkpt>
      <trkpt lat="44.76214" lon="4.42295">
        <ele>941.6</ele>
        <time>2022-06-09T08:38:52Z</time>
      </trkpt>
      <trkpt lat="44.76219" lon="4.42288">
        <ele>941.7</ele>
        <time>2022-06-09T08:38:54Z</time>
      </trkpt>
      <trkpt lat="44.76222" lon="4.42286">
        <ele>941.7</ele>
        <time>2022-06-09T08:38:56Z</time>
      </trkpt>
      <trkpt lat="44.76224" lon="4.42282">
        <ele>941.8</ele>
        <time>2022-06-09T08:38:57Z</time>
      </trkpt>
      <trkpt lat="44.76229" lon="4.42276">
        <ele>941.9</ele>
        <time>2022-06-09T08:38:58Z</time>
      </trkpt>
      <trkpt lat="44.76232" lon="4.42271">
        <ele>941.9</ele>
        <time>2022-06-09T08:39:00Z</time>
      </trkpt>
      <trkpt lat="44.76234" lon="4.42268">
        <ele>942</ele>
        <time>2022-06-09T08:39:01Z</time>
      </trkpt>
      <trkpt lat="44.76238" lon="4.42262">
        <ele>942.1</ele>
        <time>2022-06-09T08:39:02Z</time>
      </trkpt>
      <trkpt lat="44.7624" lon="4.42257">
        <ele>942.1</ele>
        <time>2022-06-09T08:39:03Z</time>
      </trkpt>
      <trkpt lat="44.76242" lon="4.42252">
        <ele>942.2</ele>
        <time>2022-06-09T08:39:04Z</time>
      </trkpt>
      <trkpt lat="44.76244" lon="4.42246">
        <ele>942.4</ele>
        <time>2022-06-09T08:39:05Z</time>
      </trkpt>
      <trkpt lat="44.76246" lon="4.4224">
        <ele>942.5</ele>
        <time>2022-06-09T08:39:06Z</time>
      </trkpt>
      <trkpt lat="44.76247" lon="4.42235">
        <ele>942.6</ele>
        <time>2022-06-09T08:39:07Z</time>
      </trkpt>
      <trkpt lat="44.76249" lon="4.42228">
        <ele>942.7</ele>
        <time>2022-06-09T08:39:09Z</time>
      </trkpt>
      <trkpt lat="44.76251" lon="4.42223">
        <ele>942.8</ele>
        <time>2022-06-09T08:39:10Z</time>
      </trkpt>
      <trkpt lat="44.76252" lon="4.42217">
        <ele>942.9</ele>
        <time>2022-06-09T08:39:11Z</time>
      </trkpt>
      <trkpt lat="44.76253" lon="4.4221">
        <ele>943</ele>
        <time>2022-06-09T08:39:13Z</time>
      </trkpt>
      <trkpt lat="44.76254" lon="4.42205">
        <ele>943</ele>
        <time>2022-06-09T08:39:14Z</time>
      </trkpt>
      <trkpt lat="44.76255" lon="4.42197">
        <ele>943.2</ele>
        <time>2022-06-09T08:39:15Z</time>
      </trkpt>
      <trkpt lat="44.76256" lon="4.42193">
        <ele>943.2</ele>
        <time>2022-06-09T08:39:17Z</time>
      </trkpt>
      <trkpt lat="44.76257" lon="4.42186">
        <ele>943.3</ele>
        <time>2022-06-09T08:39:18Z</time>
      </trkpt>
      <trkpt lat="44.76258" lon="4.42181">
        <ele>943.4</ele>
        <time>2022-06-09T08:39:19Z</time>
      </trkpt>
      <trkpt lat="44.76259" lon="4.42176">
        <ele>943.5</ele>
        <time>2022-06-09T08:39:20Z</time>
      </trkpt>
      <trkpt lat="44.76259" lon="4.4217">
        <ele>943.6</ele>
        <time>2022-06-09T08:39:21Z</time>
      </trkpt>
      <trkpt lat="44.7626" lon="4.42165">
        <ele>943.7</ele>
        <time>2022-06-09T08:39:22Z</time>
      </trkpt>
      <trkpt lat="44.7626" lon="4.42159">
        <ele>943.8</ele>
        <time>2022-06-09T08:39:24Z</time>
      </trkpt>
      <trkpt lat="44.76261" lon="4.42153">
        <ele>943.9</ele>
        <time>2022-06-09T08:39:25Z</time>
      </trkpt>
      <trkpt lat="44.76261" lon="4.42149">
        <ele>944</ele>
        <time>2022-06-09T08:39:26Z</time>
      </trkpt>
      <trkpt lat="44.76262" lon="4.42144">
        <ele>944</ele>
        <time>2022-06-09T08:39:27Z</time>
      </trkpt>
      <trkpt lat="44.76262" lon="4.4214">
        <ele>944.1</ele>
        <time>2022-06-09T08:39:28Z</time>
      </trkpt>
      <trkpt lat="44.76263" lon="4.42136">
        <ele>944.1</ele>
        <time>2022-06-09T08:39:29Z</time>
      </trkpt>
      <trkpt lat="44.76263" lon="4.42131">
        <ele>944.2</ele>
        <time>2022-06-09T08:39:30Z</time>
      </trkpt>
      <trkpt lat="44.76264" lon="4.42124">
        <ele>944.3</ele>
        <time>2022-06-09T08:39:31Z</time>
      </trkpt>
      <trkpt lat="44.76264" lon="4.4212">
        <ele>944.3</ele>
        <time>2022-06-09T08:39:32Z</time>
      </trkpt>
      <trkpt lat="44.76265" lon="4.42115">
        <ele>944.3</ele>
        <time>2022-06-09T08:39:34Z</time>
      </trkpt>
      <trkpt lat="44.76265" lon="4.4211">
        <ele>944.4</ele>
        <time>2022-06-09T08:39:35Z</time>
      </trkpt>
      <trkpt lat="44.76266" lon="4.421">
        <ele>944.5</ele>
        <time>2022-06-09T08:39:36Z</time>
      </trkpt>
      <trkpt lat="44.76267" lon="4.42094">
        <ele>944.5</ele>
        <time>2022-06-09T08:39:38Z</time>
      </trkpt>
      <trkpt lat="44.76268" lon="4.42088">
        <ele>944.5</ele>
        <time>2022-06-09T08:39:39Z</time>
      </trkpt>
      <trkpt lat="44.7627" lon="4.42083">
        <ele>944.6</ele>
        <time>2022-06-09T08:39:40Z</time>
      </trkpt>
      <trkpt lat="44.76272" lon="4.42078">
        <ele>944.6</ele>
        <time>2022-06-09T08:39:41Z</time>
      </trkpt>
      <trkpt lat="44.76274" lon="4.42072">
        <ele>944.7</ele>
        <time>2022-06-09T08:39:42Z</time>
      </trkpt>
      <trkpt lat="44.76276" lon="4.42067">
        <ele>944.7</ele>
        <time>2022-06-09T08:39:43Z</time>
      </trkpt>
      <trkpt lat="44.76278" lon="4.42062">
        <ele>944.8</ele>
        <time>2022-06-09T08:39:44Z</time>
      </trkpt>
      <trkpt lat="44.76281" lon="4.42059">
        <ele>944.9</ele>
        <time>2022-06-09T08:39:45Z</time>
      </trkpt>
      <trkpt lat="44.76284" lon="4.42055">
        <ele>944.9</ele>
        <time>2022-06-09T08:39:46Z</time>
      </trkpt>
      <trkpt lat="44.76288" lon="4.42049">
        <ele>945</ele>
        <time>2022-06-09T08:39:47Z</time>
      </trkpt>
      <trkpt lat="44.7629" lon="4.42045">
        <ele>945.1</ele>
        <time>2022-06-09T08:39:49Z</time>
      </trkpt>
      <trkpt lat="44.76294" lon="4.42042">
        <ele>945.1</ele>
        <time>2022-06-09T08:39:50Z</time>
      </trkpt>
      <trkpt lat="44.76297" lon="4.42039">
        <ele>945.2</ele>
        <time>2022-06-09T08:39:51Z</time>
      </trkpt>
      <trkpt lat="44.763" lon="4.42034">
        <ele>945.3</ele>
        <time>2022-06-09T08:39:52Z</time>
      </trkpt>
      <trkpt lat="44.76304" lon="4.42029">
        <ele>945.4</ele>
        <time>2022-06-09T08:39:54Z</time>
      </trkpt>
      <trkpt lat="44.76307" lon="4.42026">
        <ele>945.4</ele>
        <time>2022-06-09T08:39:55Z</time>
      </trkpt>
      <trkpt lat="44.76309" lon="4.42024">
        <ele>945.5</ele>
        <time>2022-06-09T08:39:56Z</time>
      </trkpt>
      <trkpt lat="44.76312" lon="4.42021">
        <ele>945.5</ele>
        <time>2022-06-09T08:39:58Z</time>
      </trkpt>
      <trkpt lat="44.76315" lon="4.42017">
        <ele>945.6</ele>
        <time>2022-06-09T08:39:59Z</time>
      </trkpt>
      <trkpt lat="44.76318" lon="4.42013">
        <ele>945.7</ele>
        <time>2022-06-09T08:40:00Z</time>
      </trkpt>
      <trkpt lat="44.7632" lon="4.4201">
        <ele>945.8</ele>
        <time>2022-06-09T08:40:01Z</time>
      </trkpt>
      <trkpt lat="44.76323" lon="4.42007">
        <ele>945.8</ele>
        <time>2022-06-09T08:40:03Z</time>
      </trkpt>
      <trkpt lat="44.76325" lon="4.42003">
        <ele>945.9</ele>
        <time>2022-06-09T08:40:04Z</time>
      </trkpt>
      <trkpt lat="44.76327" lon="4.42">
        <ele>945.9</ele>
        <time>2022-06-09T08:40:05Z</time>
      </trkpt>
      <trkpt lat="44.7633" lon="4.41996">
        <ele>946</ele>
        <time>2022-06-09T08:40:06Z</time>
      </trkpt>
      <trkpt lat="44.76332" lon="4.41993">
        <ele>946.1</ele>
        <time>2022-06-09T08:40:07Z</time>
      </trkpt>
      <trkpt lat="44.76336" lon="4.41989">
        <ele>946.2</ele>
        <time>2022-06-09T08:40:09Z</time>
      </trkpt>
      <trkpt lat="44.76338" lon="4.41985">
        <ele>946.2</ele>
        <time>2022-06-09T08:40:10Z</time>
      </trkpt>
      <trkpt lat="44.76341" lon="4.41981">
        <ele>946.3</ele>
        <time>2022-06-09T08:40:11Z</time>
      </trkpt>
      <trkpt lat="44.76344" lon="4.41978">
        <ele>946.4</ele>
        <time>2022-06-09T08:40:12Z</time>
      </trkpt>
      <trkpt lat="44.76348" lon="4.41971">
        <ele>946.5</ele>
        <time>2022-06-09T08:40:14Z</time>
      </trkpt>
      <trkpt lat="44.7635" lon="4.41968">
        <ele>946.6</ele>
        <time>2022-06-09T08:40:15Z</time>
      </trkpt>
      <trkpt lat="44.76353" lon="4.41965">
        <ele>946.6</ele>
        <time>2022-06-09T08:40:17Z</time>
      </trkpt>
      <trkpt lat="44.76355" lon="4.41962">
        <ele>946.7</ele>
        <time>2022-06-09T08:40:18Z</time>
      </trkpt>
      <trkpt lat="44.76359" lon="4.41958">
        <ele>946.9</ele>
        <time>2022-06-09T08:40:19Z</time>
      </trkpt>
      <trkpt lat="44.76361" lon="4.41954">
        <ele>947</ele>
        <time>2022-06-09T08:40:20Z</time>
      </trkpt>
      <trkpt lat="44.76364" lon="4.41951">
        <ele>947.1</ele>
        <time>2022-06-09T08:40:21Z</time>
      </trkpt>
      <trkpt lat="44.76366" lon="4.41948">
        <ele>947.2</ele>
        <time>2022-06-09T08:40:22Z</time>
      </trkpt>
      <trkpt lat="44.76369" lon="4.41943">
        <ele>947.3</ele>
        <time>2022-06-09T08:40:23Z</time>
      </trkpt>
      <trkpt lat="44.76372" lon="4.4194">
        <ele>947.4</ele>
        <time>2022-06-09T08:40:25Z</time>
      </trkpt>
      <trkpt lat="44.76376" lon="4.41935">
        <ele>947.5</ele>
        <time>2022-06-09T08:40:26Z</time>
      </trkpt>
      <trkpt lat="44.76379" lon="4.41931">
        <ele>947.6</ele>
        <time>2022-06-09T08:40:28Z</time>
      </trkpt>
      <trkpt lat="44.76383" lon="4.41928">
        <ele>947.7</ele>
        <time>2022-06-09T08:40:29Z</time>
      </trkpt>
      <trkpt lat="44.76386" lon="4.41924">
        <ele>947.7</ele>
        <time>2022-06-09T08:40:30Z</time>
      </trkpt>
      <trkpt lat="44.7639" lon="4.41921">
        <ele>947.8</ele>
        <time>2022-06-09T08:40:31Z</time>
      </trkpt>
      <trkpt lat="44.76393" lon="4.41919">
        <ele>947.9</ele>
        <time>2022-06-09T08:40:33Z</time>
      </trkpt>
      <trkpt lat="44.76396" lon="4.41917">
        <ele>947.9</ele>
        <time>2022-06-09T08:40:34Z</time>
      </trkpt>
      <trkpt lat="44.76399" lon="4.41915">
        <ele>948</ele>
        <time>2022-06-09T08:40:35Z</time>
      </trkpt>
      <trkpt lat="44.76404" lon="4.41913">
        <ele>948.1</ele>
        <time>2022-06-09T08:40:36Z</time>
      </trkpt>
      <trkpt lat="44.76407" lon="4.41912">
        <ele>948.2</ele>
        <time>2022-06-09T08:40:38Z</time>
      </trkpt>
      <trkpt lat="44.76411" lon="4.41913">
        <ele>948.3</ele>
        <time>2022-06-09T08:40:39Z</time>
      </trkpt>
      <trkpt lat="44.76415" lon="4.41914">
        <ele>948.4</ele>
        <time>2022-06-09T08:40:40Z</time>
      </trkpt>
      <trkpt lat="44.76419" lon="4.41916">
        <ele>948.5</ele>
        <time>2022-06-09T08:40:41Z</time>
      </trkpt>
      <trkpt lat="44.76422" lon="4.41918">
        <ele>948.5</ele>
        <time>2022-06-09T08:40:42Z</time>
      </trkpt>
      <trkpt lat="44.76424" lon="4.41921">
        <ele>948.6</ele>
        <time>2022-06-09T08:40:43Z</time>
      </trkpt>
      <trkpt lat="44.76427" lon="4.41924">
        <ele>948.7</ele>
        <time>2022-06-09T08:40:44Z</time>
      </trkpt>
      <trkpt lat="44.7643" lon="4.41927">
        <ele>948.7</ele>
        <time>2022-06-09T08:40:45Z</time>
      </trkpt>
      <trkpt lat="44.76432" lon="4.4193">
        <ele>948.8</ele>
        <time>2022-06-09T08:40:46Z</time>
      </trkpt>
      <trkpt lat="44.76435" lon="4.41934">
        <ele>948.9</ele>
        <time>2022-06-09T08:40:47Z</time>
      </trkpt>
      <trkpt lat="44.76437" lon="4.41938">
        <ele>948.9</ele>
        <time>2022-06-09T08:40:48Z</time>
      </trkpt>
      <trkpt lat="44.76439" lon="4.41942">
        <ele>949</ele>
        <time>2022-06-09T08:40:49Z</time>
      </trkpt>
      <trkpt lat="44.76442" lon="4.41945">
        <ele>949</ele>
        <time>2022-06-09T08:40:50Z</time>
      </trkpt>
      <trkpt lat="44.76444" lon="4.41947">
        <ele>949.1</ele>
        <time>2022-06-09T08:40:51Z</time>
      </trkpt>
      <trkpt lat="44.76446" lon="4.41951">
        <ele>949.1</ele>
        <time>2022-06-09T08:40:52Z</time>
      </trkpt>
      <trkpt lat="44.76449" lon="4.41955">
        <ele>949.2</ele>
        <time>2022-06-09T08:40:53Z</time>
      </trkpt>
      <trkpt lat="44.76452" lon="4.41959">
        <ele>949.2</ele>
        <time>2022-06-09T08:40:54Z</time>
      </trkpt>
      <trkpt lat="44.76456" lon="4.41962">
        <ele>949.3</ele>
        <time>2022-06-09T08:40:55Z</time>
      </trkpt>
      <trkpt lat="44.76462" lon="4.41967">
        <ele>949.4</ele>
        <time>2022-06-09T08:40:57Z</time>
      </trkpt>
      <trkpt lat="44.76465" lon="4.41967">
        <ele>949.4</ele>
        <time>2022-06-09T08:40:59Z</time>
      </trkpt>
      <trkpt lat="44.76468" lon="4.41967">
        <ele>949.4</ele>
        <time>2022-06-09T08:41:00Z</time>
      </trkpt>
      <trkpt lat="44.76471" lon="4.41967">
        <ele>949.5</ele>
        <time>2022-06-09T08:41:01Z</time>
      </trkpt>
      <trkpt lat="44.76475" lon="4.41967">
        <ele>949.5</ele>
        <time>2022-06-09T08:41:02Z</time>
      </trkpt>
      <trkpt lat="44.76478" lon="4.41966">
        <ele>949.5</ele>
        <time>2022-06-09T08:41:03Z</time>
      </trkpt>
      <trkpt lat="44.76481" lon="4.41964">
        <ele>949.6</ele>
        <time>2022-06-09T08:41:04Z</time>
      </trkpt>
      <trkpt lat="44.76486" lon="4.41958">
        <ele>949.7</ele>
        <time>2022-06-09T08:41:05Z</time>
      </trkpt>
      <trkpt lat="44.76489" lon="4.41955">
        <ele>949.8</ele>
        <time>2022-06-09T08:41:06Z</time>
      </trkpt>
      <trkpt lat="44.76491" lon="4.41951">
        <ele>949.8</ele>
        <time>2022-06-09T08:41:07Z</time>
      </trkpt>
      <trkpt lat="44.76493" lon="4.41948">
        <ele>949.9</ele>
        <time>2022-06-09T08:41:09Z</time>
      </trkpt>
      <trkpt lat="44.76496" lon="4.41944">
        <ele>950</ele>
        <time>2022-06-09T08:41:10Z</time>
      </trkpt>
      <trkpt lat="44.76499" lon="4.41941">
        <ele>950.1</ele>
        <time>2022-06-09T08:41:11Z</time>
      </trkpt>
      <trkpt lat="44.76502" lon="4.41936">
        <ele>950.2</ele>
        <time>2022-06-09T08:41:12Z</time>
      </trkpt>
      <trkpt lat="44.76504" lon="4.41932">
        <ele>950.3</ele>
        <time>2022-06-09T08:41:13Z</time>
      </trkpt>
      <trkpt lat="44.76508" lon="4.41928">
        <ele>950.4</ele>
        <time>2022-06-09T08:41:14Z</time>
      </trkpt>
      <trkpt lat="44.7651" lon="4.41924">
        <ele>950.5</ele>
        <time>2022-06-09T08:41:16Z</time>
      </trkpt>
      <trkpt lat="44.76513" lon="4.41918">
        <ele>950.6</ele>
        <time>2022-06-09T08:41:17Z</time>
      </trkpt>
      <trkpt lat="44.76516" lon="4.41913">
        <ele>950.7</ele>
        <time>2022-06-09T08:41:18Z</time>
      </trkpt>
      <trkpt lat="44.76518" lon="4.41909">
        <ele>950.7</ele>
        <time>2022-06-09T08:41:19Z</time>
      </trkpt>
      <trkpt lat="44.7652" lon="4.41905">
        <ele>950.8</ele>
        <time>2022-06-09T08:41:20Z</time>
      </trkpt>
      <trkpt lat="44.76523" lon="4.419">
        <ele>950.9</ele>
        <time>2022-06-09T08:41:22Z</time>
      </trkpt>
      <trkpt lat="44.76527" lon="4.41891">
        <ele>951.1</ele>
        <time>2022-06-09T08:41:23Z</time>
      </trkpt>
      <trkpt lat="44.7653" lon="4.41887">
        <ele>951.1</ele>
        <time>2022-06-09T08:41:25Z</time>
      </trkpt>
      <trkpt lat="44.76533" lon="4.41882">
        <ele>951.2</ele>
        <time>2022-06-09T08:41:26Z</time>
      </trkpt>
      <trkpt lat="44.76535" lon="4.41878">
        <ele>951.3</ele>
        <time>2022-06-09T08:41:27Z</time>
      </trkpt>
      <trkpt lat="44.76538" lon="4.41872">
        <ele>951.4</ele>
        <time>2022-06-09T08:41:28Z</time>
      </trkpt>
      <trkpt lat="44.76541" lon="4.41867">
        <ele>951.5</ele>
        <time>2022-06-09T08:41:29Z</time>
      </trkpt>
      <trkpt lat="44.76544" lon="4.41863">
        <ele>951.5</ele>
        <time>2022-06-09T08:41:30Z</time>
      </trkpt>
      <trkpt lat="44.76546" lon="4.41858">
        <ele>951.6</ele>
        <time>2022-06-09T08:41:31Z</time>
      </trkpt>
      <trkpt lat="44.76548" lon="4.41854">
        <ele>951.6</ele>
        <time>2022-06-09T08:41:32Z</time>
      </trkpt>
      <trkpt lat="44.76551" lon="4.41849">
        <ele>951.7</ele>
        <time>2022-06-09T08:41:33Z</time>
      </trkpt>
      <trkpt lat="44.76554" lon="4.41844">
        <ele>951.7</ele>
        <time>2022-06-09T08:41:34Z</time>
      </trkpt>
      <trkpt lat="44.76557" lon="4.4184">
        <ele>951.8</ele>
        <time>2022-06-09T08:41:35Z</time>
      </trkpt>
      <trkpt lat="44.76559" lon="4.41836">
        <ele>951.8</ele>
        <time>2022-06-09T08:41:36Z</time>
      </trkpt>
      <trkpt lat="44.76562" lon="4.41831">
        <ele>951.9</ele>
        <time>2022-06-09T08:41:37Z</time>
      </trkpt>
      <trkpt lat="44.76565" lon="4.41821">
        <ele>952</ele>
        <time>2022-06-09T08:41:38Z</time>
      </trkpt>
      <trkpt lat="44.76568" lon="4.41815">
        <ele>952.1</ele>
        <time>2022-06-09T08:41:40Z</time>
      </trkpt>
      <trkpt lat="44.76572" lon="4.41808">
        <ele>952.2</ele>
        <time>2022-06-09T08:41:41Z</time>
      </trkpt>
      <trkpt lat="44.76577" lon="4.41799">
        <ele>952.4</ele>
        <time>2022-06-09T08:41:43Z</time>
      </trkpt>
      <trkpt lat="44.7658" lon="4.41793">
        <ele>952.5</ele>
        <time>2022-06-09T08:41:45Z</time>
      </trkpt>
      <trkpt lat="44.76582" lon="4.41789">
        <ele>952.6</ele>
        <time>2022-06-09T08:41:46Z</time>
      </trkpt>
      <trkpt lat="44.76584" lon="4.41784">
        <ele>952.6</ele>
        <time>2022-06-09T08:41:47Z</time>
      </trkpt>
      <trkpt lat="44.76586" lon="4.41778">
        <ele>952.7</ele>
        <time>2022-06-09T08:41:48Z</time>
      </trkpt>
      <trkpt lat="44.76589" lon="4.41774">
        <ele>952.8</ele>
        <time>2022-06-09T08:41:49Z</time>
      </trkpt>
      <trkpt lat="44.76591" lon="4.41767">
        <ele>952.9</ele>
        <time>2022-06-09T08:41:50Z</time>
      </trkpt>
      <trkpt lat="44.76593" lon="4.41763">
        <ele>952.9</ele>
        <time>2022-06-09T08:41:51Z</time>
      </trkpt>
      <trkpt lat="44.76595" lon="4.41758">
        <ele>953</ele>
        <time>2022-06-09T08:41:53Z</time>
      </trkpt>
      <trkpt lat="44.76597" lon="4.41754">
        <ele>953.1</ele>
        <time>2022-06-09T08:41:54Z</time>
      </trkpt>
      <trkpt lat="44.76598" lon="4.41749">
        <ele>953.1</ele>
        <time>2022-06-09T08:41:55Z</time>
      </trkpt>
      <trkpt lat="44.76599" lon="4.41744">
        <ele>953.2</ele>
        <time>2022-06-09T08:41:56Z</time>
      </trkpt>
      <trkpt lat="44.766" lon="4.41737">
        <ele>953.3</ele>
        <time>2022-06-09T08:41:57Z</time>
      </trkpt>
      <trkpt lat="44.76601" lon="4.41732">
        <ele>953.4</ele>
        <time>2022-06-09T08:41:58Z</time>
      </trkpt>
      <trkpt lat="44.76601" lon="4.41727">
        <ele>953.5</ele>
        <time>2022-06-09T08:41:59Z</time>
      </trkpt>
      <trkpt lat="44.76602" lon="4.41721">
        <ele>953.5</ele>
        <time>2022-06-09T08:42:00Z</time>
      </trkpt>
      <trkpt lat="44.76603" lon="4.41716">
        <ele>953.6</ele>
        <time>2022-06-09T08:42:02Z</time>
      </trkpt>
      <trkpt lat="44.76603" lon="4.41711">
        <ele>953.7</ele>
        <time>2022-06-09T08:42:03Z</time>
      </trkpt>
      <trkpt lat="44.76604" lon="4.41707">
        <ele>953.8</ele>
        <time>2022-06-09T08:42:04Z</time>
      </trkpt>
      <trkpt lat="44.76604" lon="4.41703">
        <ele>953.8</ele>
        <time>2022-06-09T08:42:05Z</time>
      </trkpt>
      <trkpt lat="44.76606" lon="4.41696">
        <ele>954</ele>
        <time>2022-06-09T08:42:06Z</time>
      </trkpt>
      <trkpt lat="44.76607" lon="4.41691">
        <ele>954</ele>
        <time>2022-06-09T08:42:07Z</time>
      </trkpt>
      <trkpt lat="44.76609" lon="4.41687">
        <ele>954.1</ele>
        <time>2022-06-09T08:42:08Z</time>
      </trkpt>
      <trkpt lat="44.76611" lon="4.41682">
        <ele>954.2</ele>
        <time>2022-06-09T08:42:10Z</time>
      </trkpt>
      <trkpt lat="44.76614" lon="4.41676">
        <ele>954.3</ele>
        <time>2022-06-09T08:42:11Z</time>
      </trkpt>
      <trkpt lat="44.76617" lon="4.41672">
        <ele>954.4</ele>
        <time>2022-06-09T08:42:12Z</time>
      </trkpt>
      <trkpt lat="44.76621" lon="4.41669">
        <ele>954.5</ele>
        <time>2022-06-09T08:42:14Z</time>
      </trkpt>
      <trkpt lat="44.76624" lon="4.41666">
        <ele>954.5</ele>
        <time>2022-06-09T08:42:15Z</time>
      </trkpt>
      <trkpt lat="44.76627" lon="4.41664">
        <ele>954.6</ele>
        <time>2022-06-09T08:42:16Z</time>
      </trkpt>
      <trkpt lat="44.7663" lon="4.41662">
        <ele>954.6</ele>
        <time>2022-06-09T08:42:17Z</time>
      </trkpt>
      <trkpt lat="44.76634" lon="4.4166">
        <ele>954.7</ele>
        <time>2022-06-09T08:42:18Z</time>
      </trkpt>
      <trkpt lat="44.76636" lon="4.41657">
        <ele>954.8</ele>
        <time>2022-06-09T08:42:19Z</time>
      </trkpt>
      <trkpt lat="44.7664" lon="4.41654">
        <ele>954.8</ele>
        <time>2022-06-09T08:42:20Z</time>
      </trkpt>
      <trkpt lat="44.76642" lon="4.41652">
        <ele>954.9</ele>
        <time>2022-06-09T08:42:21Z</time>
      </trkpt>
      <trkpt lat="44.76645" lon="4.41648">
        <ele>955</ele>
        <time>2022-06-09T08:42:22Z</time>
      </trkpt>
      <trkpt lat="44.76647" lon="4.41644">
        <ele>955.1</ele>
        <time>2022-06-09T08:42:23Z</time>
      </trkpt>
      <trkpt lat="44.7665" lon="4.41635">
        <ele>955.3</ele>
        <time>2022-06-09T08:42:24Z</time>
      </trkpt>
      <trkpt lat="44.76651" lon="4.41629">
        <ele>955.5</ele>
        <time>2022-06-09T08:42:26Z</time>
      </trkpt>
      <trkpt lat="44.76651" lon="4.41624">
        <ele>955.6</ele>
        <time>2022-06-09T08:42:27Z</time>
      </trkpt>
      <trkpt lat="44.76652" lon="4.41618">
        <ele>955.8</ele>
        <time>2022-06-09T08:42:28Z</time>
      </trkpt>
      <trkpt lat="44.76653" lon="4.41613">
        <ele>955.9</ele>
        <time>2022-06-09T08:42:29Z</time>
      </trkpt>
      <trkpt lat="44.76655" lon="4.41607">
        <ele>956</ele>
        <time>2022-06-09T08:42:30Z</time>
      </trkpt>
      <trkpt lat="44.76658" lon="4.41603">
        <ele>956.1</ele>
        <time>2022-06-09T08:42:31Z</time>
      </trkpt>
      <trkpt lat="44.76661" lon="4.41599">
        <ele>956.2</ele>
        <time>2022-06-09T08:42:32Z</time>
      </trkpt>
      <trkpt lat="44.76667" lon="4.41596">
        <ele>956.3</ele>
        <time>2022-06-09T08:42:33Z</time>
      </trkpt>
      <trkpt lat="44.76672" lon="4.41596">
        <ele>956.3</ele>
        <time>2022-06-09T08:42:35Z</time>
      </trkpt>
      <trkpt lat="44.76677" lon="4.41597">
        <ele>956.3</ele>
        <time>2022-06-09T08:42:36Z</time>
      </trkpt>
      <trkpt lat="44.76681" lon="4.41598">
        <ele>956.3</ele>
        <time>2022-06-09T08:42:37Z</time>
      </trkpt>
      <trkpt lat="44.76685" lon="4.41601">
        <ele>956.4</ele>
        <time>2022-06-09T08:42:38Z</time>
      </trkpt>
      <trkpt lat="44.76688" lon="4.41605">
        <ele>956.4</ele>
        <time>2022-06-09T08:42:39Z</time>
      </trkpt>
      <trkpt lat="44.7669" lon="4.41609">
        <ele>956.4</ele>
        <time>2022-06-09T08:42:40Z</time>
      </trkpt>
      <trkpt lat="44.76695" lon="4.41617">
        <ele>956.5</ele>
        <time>2022-06-09T08:42:41Z</time>
      </trkpt>
      <trkpt lat="44.76697" lon="4.41622">
        <ele>956.5</ele>
        <time>2022-06-09T08:42:43Z</time>
      </trkpt>
      <trkpt lat="44.76699" lon="4.41627">
        <ele>956.6</ele>
        <time>2022-06-09T08:42:44Z</time>
      </trkpt>
      <trkpt lat="44.76702" lon="4.41635">
        <ele>956.6</ele>
        <time>2022-06-09T08:42:45Z</time>
      </trkpt>
      <trkpt lat="44.76704" lon="4.41639">
        <ele>956.7</ele>
        <time>2022-06-09T08:42:47Z</time>
      </trkpt>
      <trkpt lat="44.76706" lon="4.41644">
        <ele>956.7</ele>
        <time>2022-06-09T08:42:48Z</time>
      </trkpt>
      <trkpt lat="44.76708" lon="4.41651">
        <ele>956.8</ele>
        <time>2022-06-09T08:42:49Z</time>
      </trkpt>
      <trkpt lat="44.7671" lon="4.41657">
        <ele>956.9</ele>
        <time>2022-06-09T08:42:50Z</time>
      </trkpt>
      <trkpt lat="44.76711" lon="4.41661">
        <ele>957</ele>
        <time>2022-06-09T08:42:51Z</time>
      </trkpt>
      <trkpt lat="44.76713" lon="4.41668">
        <ele>957.1</ele>
        <time>2022-06-09T08:42:53Z</time>
      </trkpt>
      <trkpt lat="44.76715" lon="4.41674">
        <ele>957.2</ele>
        <time>2022-06-09T08:42:54Z</time>
      </trkpt>
      <trkpt lat="44.76716" lon="4.41679">
        <ele>957.2</ele>
        <time>2022-06-09T08:42:55Z</time>
      </trkpt>
      <trkpt lat="44.76718" lon="4.41684">
        <ele>957.3</ele>
        <time>2022-06-09T08:42:56Z</time>
      </trkpt>
      <trkpt lat="44.7672" lon="4.41689">
        <ele>957.4</ele>
        <time>2022-06-09T08:42:57Z</time>
      </trkpt>
      <trkpt lat="44.76723" lon="4.41695">
        <ele>957.5</ele>
        <time>2022-06-09T08:42:59Z</time>
      </trkpt>
      <trkpt lat="44.76724" lon="4.417">
        <ele>957.6</ele>
        <time>2022-06-09T08:43:00Z</time>
      </trkpt>
      <trkpt lat="44.76725" lon="4.41705">
        <ele>957.7</ele>
        <time>2022-06-09T08:43:01Z</time>
      </trkpt>
      <trkpt lat="44.76726" lon="4.41709">
        <ele>957.8</ele>
        <time>2022-06-09T08:43:02Z</time>
      </trkpt>
      <trkpt lat="44.76728" lon="4.41714">
        <ele>957.9</ele>
        <time>2022-06-09T08:43:03Z</time>
      </trkpt>
      <trkpt lat="44.76731" lon="4.41723">
        <ele>958.1</ele>
        <time>2022-06-09T08:43:04Z</time>
      </trkpt>
      <trkpt lat="44.76733" lon="4.41727">
        <ele>958.2</ele>
        <time>2022-06-09T08:43:05Z</time>
      </trkpt>
      <trkpt lat="44.76734" lon="4.41731">
        <ele>958.3</ele>
        <time>2022-06-09T08:43:07Z</time>
      </trkpt>
      <trkpt lat="44.76735" lon="4.41735">
        <ele>958.4</ele>
        <time>2022-06-09T08:43:08Z</time>
      </trkpt>
      <trkpt lat="44.76738" lon="4.41742">
        <ele>958.6</ele>
        <time>2022-06-09T08:43:09Z</time>
      </trkpt>
      <trkpt lat="44.76739" lon="4.41746">
        <ele>958.7</ele>
        <time>2022-06-09T08:43:10Z</time>
      </trkpt>
      <trkpt lat="44.7674" lon="4.4175">
        <ele>958.8</ele>
        <time>2022-06-09T08:43:11Z</time>
      </trkpt>
      <trkpt lat="44.76744" lon="4.41759">
        <ele>959</ele>
        <time>2022-06-09T08:43:13Z</time>
      </trkpt>
      <trkpt lat="44.76746" lon="4.41764">
        <ele>959.1</ele>
        <time>2022-06-09T08:43:15Z</time>
      </trkpt>
      <trkpt lat="44.76748" lon="4.41769">
        <ele>959.1</ele>
        <time>2022-06-09T08:43:16Z</time>
      </trkpt>
      <trkpt lat="44.7675" lon="4.41774">
        <ele>959.2</ele>
        <time>2022-06-09T08:43:17Z</time>
      </trkpt>
      <trkpt lat="44.76752" lon="4.41778">
        <ele>959.3</ele>
        <time>2022-06-09T08:43:18Z</time>
      </trkpt>
      <trkpt lat="44.76753" lon="4.41783">
        <ele>959.4</ele>
        <time>2022-06-09T08:43:19Z</time>
      </trkpt>
      <trkpt lat="44.76755" lon="4.41787">
        <ele>959.4</ele>
        <time>2022-06-09T08:43:20Z</time>
      </trkpt>
      <trkpt lat="44.76758" lon="4.41792">
        <ele>959.5</ele>
        <time>2022-06-09T08:43:21Z</time>
      </trkpt>
      <trkpt lat="44.76759" lon="4.41796">
        <ele>959.6</ele>
        <time>2022-06-09T08:43:22Z</time>
      </trkpt>
      <trkpt lat="44.76761" lon="4.418">
        <ele>959.6</ele>
        <time>2022-06-09T08:43:23Z</time>
      </trkpt>
      <trkpt lat="44.76764" lon="4.41804">
        <ele>959.7</ele>
        <time>2022-06-09T08:43:24Z</time>
      </trkpt>
      <trkpt lat="44.76767" lon="4.41807">
        <ele>959.8</ele>
        <time>2022-06-09T08:43:25Z</time>
      </trkpt>
      <trkpt lat="44.76774" lon="4.41809">
        <ele>959.8</ele>
        <time>2022-06-09T08:43:27Z</time>
      </trkpt>
      <trkpt lat="44.76778" lon="4.41809">
        <ele>959.9</ele>
        <time>2022-06-09T08:43:28Z</time>
      </trkpt>
      <trkpt lat="44.76781" lon="4.41809">
        <ele>959.9</ele>
        <time>2022-06-09T08:43:29Z</time>
      </trkpt>
      <trkpt lat="44.76785" lon="4.41809">
        <ele>960</ele>
        <time>2022-06-09T08:43:30Z</time>
      </trkpt>
      <trkpt lat="44.76788" lon="4.41808">
        <ele>960</ele>
        <time>2022-06-09T08:43:31Z</time>
      </trkpt>
      <trkpt lat="44.76794" lon="4.41808">
        <ele>960.1</ele>
        <time>2022-06-09T08:43:32Z</time>
      </trkpt>
      <trkpt lat="44.76798" lon="4.41807">
        <ele>960.1</ele>
        <time>2022-06-09T08:43:33Z</time>
      </trkpt>
      <trkpt lat="44.76801" lon="4.41806">
        <ele>960.2</ele>
        <time>2022-06-09T08:43:34Z</time>
      </trkpt>
      <trkpt lat="44.76804" lon="4.41804">
        <ele>960.2</ele>
        <time>2022-06-09T08:43:36Z</time>
      </trkpt>
      <trkpt lat="44.76809" lon="4.41803">
        <ele>960.3</ele>
        <time>2022-06-09T08:43:37Z</time>
      </trkpt>
      <trkpt lat="44.76813" lon="4.41802">
        <ele>960.3</ele>
        <time>2022-06-09T08:43:38Z</time>
      </trkpt>
      <trkpt lat="44.76817" lon="4.418">
        <ele>960.4</ele>
        <time>2022-06-09T08:43:39Z</time>
      </trkpt>
      <trkpt lat="44.76821" lon="4.41799">
        <ele>960.4</ele>
        <time>2022-06-09T08:43:40Z</time>
      </trkpt>
      <trkpt lat="44.76824" lon="4.41798">
        <ele>960.5</ele>
        <time>2022-06-09T08:43:41Z</time>
      </trkpt>
      <trkpt lat="44.76828" lon="4.41798">
        <ele>960.5</ele>
        <time>2022-06-09T08:43:42Z</time>
      </trkpt>
      <trkpt lat="44.76832" lon="4.41797">
        <ele>960.6</ele>
        <time>2022-06-09T08:43:44Z</time>
      </trkpt>
      <trkpt lat="44.76836" lon="4.41796">
        <ele>960.7</ele>
        <time>2022-06-09T08:43:45Z</time>
      </trkpt>
      <trkpt lat="44.76839" lon="4.41795">
        <ele>960.7</ele>
        <time>2022-06-09T08:43:46Z</time>
      </trkpt>
      <trkpt lat="44.76843" lon="4.41795">
        <ele>960.8</ele>
        <time>2022-06-09T08:43:47Z</time>
      </trkpt>
      <trkpt lat="44.76847" lon="4.41795">
        <ele>960.9</ele>
        <time>2022-06-09T08:43:48Z</time>
      </trkpt>
      <trkpt lat="44.76851" lon="4.41796">
        <ele>960.9</ele>
        <time>2022-06-09T08:43:49Z</time>
      </trkpt>
      <trkpt lat="44.76856" lon="4.41796">
        <ele>961</ele>
        <time>2022-06-09T08:43:50Z</time>
      </trkpt>
      <trkpt lat="44.7686" lon="4.41797">
        <ele>961.1</ele>
        <time>2022-06-09T08:43:51Z</time>
      </trkpt>
      <trkpt lat="44.76866" lon="4.41797">
        <ele>961.2</ele>
        <time>2022-06-09T08:43:53Z</time>
      </trkpt>
      <trkpt lat="44.7687" lon="4.41798">
        <ele>961.2</ele>
        <time>2022-06-09T08:43:55Z</time>
      </trkpt>
      <trkpt lat="44.76875" lon="4.41799">
        <ele>961.3</ele>
        <time>2022-06-09T08:43:56Z</time>
      </trkpt>
      <trkpt lat="44.76879" lon="4.41799">
        <ele>961.3</ele>
        <time>2022-06-09T08:43:57Z</time>
      </trkpt>
      <trkpt lat="44.76884" lon="4.41798">
        <ele>961.3</ele>
        <time>2022-06-09T08:43:58Z</time>
      </trkpt>
      <trkpt lat="44.76888" lon="4.41798">
        <ele>961.4</ele>
        <time>2022-06-09T08:44:00Z</time>
      </trkpt>
      <trkpt lat="44.76892" lon="4.41796">
        <ele>961.4</ele>
        <time>2022-06-09T08:44:01Z</time>
      </trkpt>
      <trkpt lat="44.76899" lon="4.41794">
        <ele>961.6</ele>
        <time>2022-06-09T08:44:02Z</time>
      </trkpt>
      <trkpt lat="44.76902" lon="4.41793">
        <ele>961.6</ele>
        <time>2022-06-09T08:44:04Z</time>
      </trkpt>
      <trkpt lat="44.76906" lon="4.41792">
        <ele>961.7</ele>
        <time>2022-06-09T08:44:05Z</time>
      </trkpt>
      <trkpt lat="44.76909" lon="4.4179">
        <ele>961.8</ele>
        <time>2022-06-09T08:44:06Z</time>
      </trkpt>
      <trkpt lat="44.76914" lon="4.41786">
        <ele>961.9</ele>
        <time>2022-06-09T08:44:07Z</time>
      </trkpt>
      <trkpt lat="44.76918" lon="4.41784">
        <ele>962</ele>
        <time>2022-06-09T08:44:08Z</time>
      </trkpt>
      <trkpt lat="44.76921" lon="4.41782">
        <ele>962</ele>
        <time>2022-06-09T08:44:09Z</time>
      </trkpt>
      <trkpt lat="44.76925" lon="4.41779">
        <ele>962.1</ele>
        <time>2022-06-09T08:44:10Z</time>
      </trkpt>
      <trkpt lat="44.76926" lon="4.41777">
        <ele>962.1</ele>
        <time>2022-06-09T08:44:11Z</time>
      </trkpt>
      <trkpt lat="44.76929" lon="4.41773">
        <ele>962.2</ele>
        <time>2022-06-09T08:44:12Z</time>
      </trkpt>
      <trkpt lat="44.76931" lon="4.4177">
        <ele>962.3</ele>
        <time>2022-06-09T08:44:14Z</time>
      </trkpt>
      <trkpt lat="44.76934" lon="4.41767">
        <ele>962.3</ele>
        <time>2022-06-09T08:44:15Z</time>
      </trkpt>
      <trkpt lat="44.76936" lon="4.41763">
        <ele>962.4</ele>
        <time>2022-06-09T08:44:16Z</time>
      </trkpt>
      <trkpt lat="44.76939" lon="4.4176">
        <ele>962.5</ele>
        <time>2022-06-09T08:44:17Z</time>
      </trkpt>
      <trkpt lat="44.76943" lon="4.41753">
        <ele>962.6</ele>
        <time>2022-06-09T08:44:18Z</time>
      </trkpt>
      <trkpt lat="44.76946" lon="4.4175">
        <ele>962.7</ele>
        <time>2022-06-09T08:44:20Z</time>
      </trkpt>
      <trkpt lat="44.76949" lon="4.41747">
        <ele>962.7</ele>
        <time>2022-06-09T08:44:21Z</time>
      </trkpt>
      <trkpt lat="44.76951" lon="4.41744">
        <ele>962.8</ele>
        <time>2022-06-09T08:44:22Z</time>
      </trkpt>
      <trkpt lat="44.76953" lon="4.41741">
        <ele>962.8</ele>
        <time>2022-06-09T08:44:23Z</time>
      </trkpt>
      <trkpt lat="44.76956" lon="4.41738">
        <ele>962.9</ele>
        <time>2022-06-09T08:44:24Z</time>
      </trkpt>
      <trkpt lat="44.76959" lon="4.41735">
        <ele>962.9</ele>
        <time>2022-06-09T08:44:25Z</time>
      </trkpt>
      <trkpt lat="44.76963" lon="4.41732">
        <ele>963</ele>
        <time>2022-06-09T08:44:26Z</time>
      </trkpt>
      <trkpt lat="44.76966" lon="4.41729">
        <ele>963</ele>
        <time>2022-06-09T08:44:27Z</time>
      </trkpt>
      <trkpt lat="44.76968" lon="4.41725">
        <ele>963.1</ele>
        <time>2022-06-09T08:44:28Z</time>
      </trkpt>
      <trkpt lat="44.76972" lon="4.4172">
        <ele>963.1</ele>
        <time>2022-06-09T08:44:30Z</time>
      </trkpt>
      <trkpt lat="44.76976" lon="4.41715">
        <ele>963.2</ele>
        <time>2022-06-09T08:44:31Z</time>
      </trkpt>
      <trkpt lat="44.76979" lon="4.4171">
        <ele>963.3</ele>
        <time>2022-06-09T08:44:32Z</time>
      </trkpt>
      <trkpt lat="44.76981" lon="4.41706">
        <ele>963.3</ele>
        <time>2022-06-09T08:44:33Z</time>
      </trkpt>
      <trkpt lat="44.76985" lon="4.41699">
        <ele>963.3</ele>
        <time>2022-06-09T08:44:34Z</time>
      </trkpt>
      <trkpt lat="44.76987" lon="4.41695">
        <ele>963.3</ele>
        <time>2022-06-09T08:44:35Z</time>
      </trkpt>
      <trkpt lat="44.7699" lon="4.41691">
        <ele>963.4</ele>
        <time>2022-06-09T08:44:37Z</time>
      </trkpt>
      <trkpt lat="44.76992" lon="4.41687">
        <ele>963.4</ele>
        <time>2022-06-09T08:44:38Z</time>
      </trkpt>
      <trkpt lat="44.76994" lon="4.41683">
        <ele>963.4</ele>
        <time>2022-06-09T08:44:39Z</time>
      </trkpt>
      <trkpt lat="44.76996" lon="4.41679">
        <ele>963.4</ele>
        <time>2022-06-09T08:44:40Z</time>
      </trkpt>
      <trkpt lat="44.76998" lon="4.41675">
        <ele>963.5</ele>
        <time>2022-06-09T08:44:41Z</time>
      </trkpt>
      <trkpt lat="44.77001" lon="4.4167">
        <ele>963.5</ele>
        <time>2022-06-09T08:44:42Z</time>
      </trkpt>
      <trkpt lat="44.77005" lon="4.41662">
        <ele>963.7</ele>
        <time>2022-06-09T08:44:43Z</time>
      </trkpt>
      <trkpt lat="44.77007" lon="4.41657">
        <ele>963.7</ele>
        <time>2022-06-09T08:44:45Z</time>
      </trkpt>
      <trkpt lat="44.77009" lon="4.41653">
        <ele>963.8</ele>
        <time>2022-06-09T08:44:46Z</time>
      </trkpt>
      <trkpt lat="44.77011" lon="4.41649">
        <ele>963.9</ele>
        <time>2022-06-09T08:44:47Z</time>
      </trkpt>
      <trkpt lat="44.77014" lon="4.41641">
        <ele>964</ele>
        <time>2022-06-09T08:44:48Z</time>
      </trkpt>
      <trkpt lat="44.77017" lon="4.41632">
        <ele>964.2</ele>
        <time>2022-06-09T08:44:50Z</time>
      </trkpt>
      <trkpt lat="44.77019" lon="4.41626">
        <ele>964.3</ele>
        <time>2022-06-09T08:44:52Z</time>
      </trkpt>
      <trkpt lat="44.77021" lon="4.41622">
        <ele>964.3</ele>
        <time>2022-06-09T08:44:53Z</time>
      </trkpt>
      <trkpt lat="44.77023" lon="4.41617">
        <ele>964.4</ele>
        <time>2022-06-09T08:44:54Z</time>
      </trkpt>
      <trkpt lat="44.77024" lon="4.41614">
        <ele>964.4</ele>
        <time>2022-06-09T08:44:55Z</time>
      </trkpt>
      <trkpt lat="44.77026" lon="4.4161">
        <ele>964.5</ele>
        <time>2022-06-09T08:44:56Z</time>
      </trkpt>
      <trkpt lat="44.77027" lon="4.41606">
        <ele>964.6</ele>
        <time>2022-06-09T08:44:57Z</time>
      </trkpt>
      <trkpt lat="44.77029" lon="4.41599">
        <ele>964.7</ele>
        <time>2022-06-09T08:44:58Z</time>
      </trkpt>
      <trkpt lat="44.77032" lon="4.41593">
        <ele>964.7</ele>
        <time>2022-06-09T08:44:59Z</time>
      </trkpt>
      <trkpt lat="44.77034" lon="4.41586">
        <ele>964.8</ele>
        <time>2022-06-09T08:45:00Z</time>
      </trkpt>
      <trkpt lat="44.77036" lon="4.41581">
        <ele>964.9</ele>
        <time>2022-06-09T08:45:02Z</time>
      </trkpt>
      <trkpt lat="44.77041" lon="4.41572">
        <ele>965.1</ele>
        <time>2022-06-09T08:45:03Z</time>
      </trkpt>
      <trkpt lat="44.77042" lon="4.41567">
        <ele>965.1</ele>
        <time>2022-06-09T08:45:05Z</time>
      </trkpt>
      <trkpt lat="44.77044" lon="4.41562">
        <ele>965.2</ele>
        <time>2022-06-09T08:45:06Z</time>
      </trkpt>
      <trkpt lat="44.77048" lon="4.41555">
        <ele>965.3</ele>
        <time>2022-06-09T08:45:07Z</time>
      </trkpt>
      <trkpt lat="44.77051" lon="4.41551">
        <ele>965.5</ele>
        <time>2022-06-09T08:45:08Z</time>
      </trkpt>
      <trkpt lat="44.77054" lon="4.41546">
        <ele>965.6</ele>
        <time>2022-06-09T08:45:09Z</time>
      </trkpt>
      <trkpt lat="44.77057" lon="4.41541">
        <ele>965.7</ele>
        <time>2022-06-09T08:45:10Z</time>
      </trkpt>
      <trkpt lat="44.7706" lon="4.41537">
        <ele>965.8</ele>
        <time>2022-06-09T08:45:11Z</time>
      </trkpt>
      <trkpt lat="44.77063" lon="4.41532">
        <ele>966</ele>
        <time>2022-06-09T08:45:13Z</time>
      </trkpt>
      <trkpt lat="44.77067" lon="4.41526">
        <ele>966.1</ele>
        <time>2022-06-09T08:45:14Z</time>
      </trkpt>
      <trkpt lat="44.7707" lon="4.41522">
        <ele>966.3</ele>
        <time>2022-06-09T08:45:15Z</time>
      </trkpt>
      <trkpt lat="44.77075" lon="4.41517">
        <ele>966.5</ele>
        <time>2022-06-09T08:45:16Z</time>
      </trkpt>
      <trkpt lat="44.7708" lon="4.41512">
        <ele>966.7</ele>
        <time>2022-06-09T08:45:19Z</time>
      </trkpt>
      <trkpt lat="44.77082" lon="4.41509">
        <ele>966.8</ele>
        <time>2022-06-09T08:45:20Z</time>
      </trkpt>
      <trkpt lat="44.77087" lon="4.41505">
        <ele>966.9</ele>
        <time>2022-06-09T08:45:21Z</time>
      </trkpt>
      <trkpt lat="44.77089" lon="4.41503">
        <ele>967</ele>
        <time>2022-06-09T08:45:22Z</time>
      </trkpt>
      <trkpt lat="44.77097" lon="4.41501">
        <ele>967.2</ele>
        <time>2022-06-09T08:45:24Z</time>
      </trkpt>
      <trkpt lat="44.77101" lon="4.41502">
        <ele>967.2</ele>
        <time>2022-06-09T08:45:26Z</time>
      </trkpt>
      <trkpt lat="44.77105" lon="4.41503">
        <ele>967.3</ele>
        <time>2022-06-09T08:45:27Z</time>
      </trkpt>
      <trkpt lat="44.77111" lon="4.41509">
        <ele>967.4</ele>
        <time>2022-06-09T08:45:28Z</time>
      </trkpt>
      <trkpt lat="44.77114" lon="4.41512">
        <ele>967.4</ele>
        <time>2022-06-09T08:45:30Z</time>
      </trkpt>
      <trkpt lat="44.77118" lon="4.41519">
        <ele>967.4</ele>
        <time>2022-06-09T08:45:31Z</time>
      </trkpt>
      <trkpt lat="44.7712" lon="4.41523">
        <ele>967.5</ele>
        <time>2022-06-09T08:45:32Z</time>
      </trkpt>
      <trkpt lat="44.77122" lon="4.41527">
        <ele>967.5</ele>
        <time>2022-06-09T08:45:34Z</time>
      </trkpt>
      <trkpt lat="44.77124" lon="4.41531">
        <ele>967.5</ele>
        <time>2022-06-09T08:45:35Z</time>
      </trkpt>
      <trkpt lat="44.77125" lon="4.41534">
        <ele>967.5</ele>
        <time>2022-06-09T08:45:36Z</time>
      </trkpt>
      <trkpt lat="44.77128" lon="4.41538">
        <ele>967.6</ele>
        <time>2022-06-09T08:45:37Z</time>
      </trkpt>
      <trkpt lat="44.7713" lon="4.41541">
        <ele>967.6</ele>
        <time>2022-06-09T08:45:38Z</time>
      </trkpt>
      <trkpt lat="44.77132" lon="4.41545">
        <ele>967.6</ele>
        <time>2022-06-09T08:45:39Z</time>
      </trkpt>
      <trkpt lat="44.77134" lon="4.41549">
        <ele>967.6</ele>
        <time>2022-06-09T08:45:40Z</time>
      </trkpt>
      <trkpt lat="44.77136" lon="4.41554">
        <ele>967.7</ele>
        <time>2022-06-09T08:45:41Z</time>
      </trkpt>
      <trkpt lat="44.77139" lon="4.41557">
        <ele>967.7</ele>
        <time>2022-06-09T08:45:42Z</time>
      </trkpt>
      <trkpt lat="44.77141" lon="4.41561">
        <ele>967.7</ele>
        <time>2022-06-09T08:45:43Z</time>
      </trkpt>
      <trkpt lat="44.77143" lon="4.41565">
        <ele>967.7</ele>
        <time>2022-06-09T08:45:44Z</time>
      </trkpt>
      <trkpt lat="44.77145" lon="4.41569">
        <ele>967.8</ele>
        <time>2022-06-09T08:45:45Z</time>
      </trkpt>
      <trkpt lat="44.77147" lon="4.41573">
        <ele>967.8</ele>
        <time>2022-06-09T08:45:46Z</time>
      </trkpt>
      <trkpt lat="44.7715" lon="4.41577">
        <ele>967.9</ele>
        <time>2022-06-09T08:45:47Z</time>
      </trkpt>
      <trkpt lat="44.77152" lon="4.41581">
        <ele>967.9</ele>
        <time>2022-06-09T08:45:48Z</time>
      </trkpt>
      <trkpt lat="44.77155" lon="4.41585">
        <ele>968</ele>
        <time>2022-06-09T08:45:49Z</time>
      </trkpt>
      <trkpt lat="44.77157" lon="4.41589">
        <ele>968</ele>
        <time>2022-06-09T08:45:50Z</time>
      </trkpt>
      <trkpt lat="44.77159" lon="4.41593">
        <ele>968.1</ele>
        <time>2022-06-09T08:45:51Z</time>
      </trkpt>
      <trkpt lat="44.77161" lon="4.41596">
        <ele>968.1</ele>
        <time>2022-06-09T08:45:52Z</time>
      </trkpt>
      <trkpt lat="44.77163" lon="4.41601">
        <ele>968.2</ele>
        <time>2022-06-09T08:45:53Z</time>
      </trkpt>
      <trkpt lat="44.77166" lon="4.41604">
        <ele>968.2</ele>
        <time>2022-06-09T08:45:54Z</time>
      </trkpt>
      <trkpt lat="44.77168" lon="4.41608">
        <ele>968.3</ele>
        <time>2022-06-09T08:45:55Z</time>
      </trkpt>
      <trkpt lat="44.77173" lon="4.41615">
        <ele>968.4</ele>
        <time>2022-06-09T08:45:56Z</time>
      </trkpt>
      <trkpt lat="44.77179" lon="4.41622">
        <ele>968.5</ele>
        <time>2022-06-09T08:45:58Z</time>
      </trkpt>
      <trkpt lat="44.77181" lon="4.41626">
        <ele>968.6</ele>
        <time>2022-06-09T08:46:00Z</time>
      </trkpt>
      <trkpt lat="44.77184" lon="4.41629">
        <ele>968.6</ele>
        <time>2022-06-09T08:46:01Z</time>
      </trkpt>
      <trkpt lat="44.77187" lon="4.41633">
        <ele>968.7</ele>
        <time>2022-06-09T08:46:02Z</time>
      </trkpt>
      <trkpt lat="44.77189" lon="4.41636">
        <ele>968.8</ele>
        <time>2022-06-09T08:46:03Z</time>
      </trkpt>
      <trkpt lat="44.77191" lon="4.41641">
        <ele>968.8</ele>
        <time>2022-06-09T08:46:04Z</time>
      </trkpt>
      <trkpt lat="44.77194" lon="4.41644">
        <ele>968.9</ele>
        <time>2022-06-09T08:46:05Z</time>
      </trkpt>
      <trkpt lat="44.77196" lon="4.41647">
        <ele>968.9</ele>
        <time>2022-06-09T08:46:06Z</time>
      </trkpt>
      <trkpt lat="44.77198" lon="4.41651">
        <ele>969</ele>
        <time>2022-06-09T08:46:07Z</time>
      </trkpt>
      <trkpt lat="44.77202" lon="4.41656">
        <ele>969.1</ele>
        <time>2022-06-09T08:46:08Z</time>
      </trkpt>
      <trkpt lat="44.77205" lon="4.41661">
        <ele>969.2</ele>
        <time>2022-06-09T08:46:09Z</time>
      </trkpt>
      <trkpt lat="44.77208" lon="4.41665">
        <ele>969.3</ele>
        <time>2022-06-09T08:46:11Z</time>
      </trkpt>
      <trkpt lat="44.77213" lon="4.41672">
        <ele>969.4</ele>
        <time>2022-06-09T08:46:12Z</time>
      </trkpt>
      <trkpt lat="44.77217" lon="4.41676">
        <ele>969.5</ele>
        <time>2022-06-09T08:46:14Z</time>
      </trkpt>
      <trkpt lat="44.77219" lon="4.4168">
        <ele>969.6</ele>
        <time>2022-06-09T08:46:15Z</time>
      </trkpt>
      <trkpt lat="44.77222" lon="4.41683">
        <ele>969.6</ele>
        <time>2022-06-09T08:46:16Z</time>
      </trkpt>
      <trkpt lat="44.77226" lon="4.41686">
        <ele>969.7</ele>
        <time>2022-06-09T08:46:17Z</time>
      </trkpt>
      <trkpt lat="44.7723" lon="4.41689">
        <ele>969.8</ele>
        <time>2022-06-09T08:46:19Z</time>
      </trkpt>
      <trkpt lat="44.77233" lon="4.4169">
        <ele>969.8</ele>
        <time>2022-06-09T08:46:20Z</time>
      </trkpt>
      <trkpt lat="44.77236" lon="4.41691">
        <ele>969.9</ele>
        <time>2022-06-09T08:46:21Z</time>
      </trkpt>
      <trkpt lat="44.77243" lon="4.41691">
        <ele>970</ele>
        <time>2022-06-09T08:46:22Z</time>
      </trkpt>
      <trkpt lat="44.77247" lon="4.4169">
        <ele>970.1</ele>
        <time>2022-06-09T08:46:24Z</time>
      </trkpt>
      <trkpt lat="44.77252" lon="4.41689">
        <ele>970.1</ele>
        <time>2022-06-09T08:46:25Z</time>
      </trkpt>
      <trkpt lat="44.77256" lon="4.41688">
        <ele>970.2</ele>
        <time>2022-06-09T08:46:26Z</time>
      </trkpt>
      <trkpt lat="44.77259" lon="4.41687">
        <ele>970.3</ele>
        <time>2022-06-09T08:46:27Z</time>
      </trkpt>
      <trkpt lat="44.77263" lon="4.41684">
        <ele>970.4</ele>
        <time>2022-06-09T08:46:28Z</time>
      </trkpt>
      <trkpt lat="44.77267" lon="4.41683">
        <ele>970.5</ele>
        <time>2022-06-09T08:46:29Z</time>
      </trkpt>
      <trkpt lat="44.7727" lon="4.41681">
        <ele>970.6</ele>
        <time>2022-06-09T08:46:31Z</time>
      </trkpt>
      <trkpt lat="44.77274" lon="4.41679">
        <ele>970.7</ele>
        <time>2022-06-09T08:46:32Z</time>
      </trkpt>
      <trkpt lat="44.77277" lon="4.41677">
        <ele>970.8</ele>
        <time>2022-06-09T08:46:33Z</time>
      </trkpt>
      <trkpt lat="44.77279" lon="4.41676">
        <ele>971</ele>
        <time>2022-06-09T08:46:34Z</time>
      </trkpt>
      <trkpt lat="44.77283" lon="4.41674">
        <ele>971.1</ele>
        <time>2022-06-09T08:46:36Z</time>
      </trkpt>
      <trkpt lat="44.77289" lon="4.4167">
        <ele>971.3</ele>
        <time>2022-06-09T08:46:37Z</time>
      </trkpt>
      <trkpt lat="44.77291" lon="4.41669">
        <ele>971.5</ele>
        <time>2022-06-09T08:46:39Z</time>
      </trkpt>
      <trkpt lat="44.77294" lon="4.41667">
        <ele>971.6</ele>
        <time>2022-06-09T08:46:40Z</time>
      </trkpt>
      <trkpt lat="44.77298" lon="4.41665">
        <ele>971.8</ele>
        <time>2022-06-09T08:46:41Z</time>
      </trkpt>
      <trkpt lat="44.773" lon="4.41663">
        <ele>971.8</ele>
        <time>2022-06-09T08:46:42Z</time>
      </trkpt>
      <trkpt lat="44.77302" lon="4.41662">
        <ele>971.9</ele>
        <time>2022-06-09T08:46:44Z</time>
      </trkpt>
      <trkpt lat="44.77303" lon="4.4166">
        <ele>972</ele>
        <time>2022-06-09T08:46:45Z</time>
      </trkpt>
      <trkpt lat="44.77308" lon="4.41657">
        <ele>972.2</ele>
        <time>2022-06-09T08:46:47Z</time>
      </trkpt>
      <trkpt lat="44.77311" lon="4.41654">
        <ele>972.4</ele>
        <time>2022-06-09T08:46:48Z</time>
      </trkpt>
      <trkpt lat="44.77312" lon="4.41653">
        <ele>972.4</ele>
        <time>2022-06-09T08:46:49Z</time>
      </trkpt>
      <trkpt lat="44.77315" lon="4.4165">
        <ele>972.6</ele>
        <time>2022-06-09T08:46:50Z</time>
      </trkpt>
      <trkpt lat="44.77316" lon="4.41649">
        <ele>972.6</ele>
        <time>2022-06-09T08:46:51Z</time>
      </trkpt>
      <trkpt lat="44.77319" lon="4.41646">
        <ele>972.8</ele>
        <time>2022-06-09T08:46:52Z</time>
      </trkpt>
      <trkpt lat="44.7732" lon="4.41645">
        <ele>972.9</ele>
        <time>2022-06-09T08:46:53Z</time>
      </trkpt>
      <trkpt lat="44.77324" lon="4.41642">
        <ele>973</ele>
        <time>2022-06-09T08:46:54Z</time>
      </trkpt>
      <trkpt lat="44.77325" lon="4.4164">
        <ele>973.1</ele>
        <time>2022-06-09T08:46:55Z</time>
      </trkpt>
      <trkpt lat="44.77328" lon="4.41638">
        <ele>973.2</ele>
        <time>2022-06-09T08:46:57Z</time>
      </trkpt>
      <trkpt lat="44.77331" lon="4.41635">
        <ele>973.4</ele>
        <time>2022-06-09T08:46:58Z</time>
      </trkpt>
      <trkpt lat="44.77332" lon="4.41634">
        <ele>973.4</ele>
        <time>2022-06-09T08:46:59Z</time>
      </trkpt>
      <trkpt lat="44.77335" lon="4.4163">
        <ele>973.6</ele>
        <time>2022-06-09T08:47:00Z</time>
      </trkpt>
      <trkpt lat="44.77335" lon="4.41629">
        <ele>973.7</ele>
        <time>2022-06-09T08:47:01Z</time>
      </trkpt>
      <trkpt lat="44.77338" lon="4.41626">
        <ele>973.8</ele>
        <time>2022-06-09T08:47:02Z</time>
      </trkpt>
      <trkpt lat="44.77338" lon="4.41625">
        <ele>973.8</ele>
        <time>2022-06-09T08:47:03Z</time>
      </trkpt>
      <trkpt lat="44.77341" lon="4.41622">
        <ele>974</ele>
        <time>2022-06-09T08:47:04Z</time>
      </trkpt>
      <trkpt lat="44.77342" lon="4.4162">
        <ele>974</ele>
        <time>2022-06-09T08:47:05Z</time>
      </trkpt>
      <trkpt lat="44.77345" lon="4.41615">
        <ele>974.2</ele>
        <time>2022-06-09T08:47:06Z</time>
      </trkpt>
      <trkpt lat="44.77347" lon="4.41613">
        <ele>974.3</ele>
        <time>2022-06-09T08:47:07Z</time>
      </trkpt>
      <trkpt lat="44.77348" lon="4.4161">
        <ele>974.5</ele>
        <time>2022-06-09T08:47:09Z</time>
      </trkpt>
      <trkpt lat="44.77351" lon="4.41606">
        <ele>974.6</ele>
        <time>2022-06-09T08:47:10Z</time>
      </trkpt>
      <trkpt lat="44.77353" lon="4.41603">
        <ele>974.7</ele>
        <time>2022-06-09T08:47:11Z</time>
      </trkpt>
      <trkpt lat="44.77355" lon="4.416">
        <ele>974.9</ele>
        <time>2022-06-09T08:47:12Z</time>
      </trkpt>
      <trkpt lat="44.77357" lon="4.41594">
        <ele>975</ele>
        <time>2022-06-09T08:47:14Z</time>
      </trkpt>
      <trkpt lat="44.77357" lon="4.41593">
        <ele>975.1</ele>
        <time>2022-06-09T08:47:15Z</time>
      </trkpt>
      <trkpt lat="44.7736" lon="4.41588">
        <ele>975.3</ele>
        <time>2022-06-09T08:47:16Z</time>
      </trkpt>
      <trkpt lat="44.77361" lon="4.41585">
        <ele>975.4</ele>
        <time>2022-06-09T08:47:17Z</time>
      </trkpt>
      <trkpt lat="44.77363" lon="4.41582">
        <ele>975.5</ele>
        <time>2022-06-09T08:47:19Z</time>
      </trkpt>
      <trkpt lat="44.77364" lon="4.41576">
        <ele>975.7</ele>
        <time>2022-06-09T08:47:20Z</time>
      </trkpt>
      <trkpt lat="44.77365" lon="4.41572">
        <ele>975.8</ele>
        <time>2022-06-09T08:47:22Z</time>
      </trkpt>
      <trkpt lat="44.77367" lon="4.41566">
        <ele>976</ele>
        <time>2022-06-09T08:47:23Z</time>
      </trkpt>
      <trkpt lat="44.77368" lon="4.41562">
        <ele>976.1</ele>
        <time>2022-06-09T08:47:25Z</time>
      </trkpt>
      <trkpt lat="44.77369" lon="4.41556">
        <ele>976.3</ele>
        <time>2022-06-09T08:47:26Z</time>
      </trkpt>
      <trkpt lat="44.77369" lon="4.41552">
        <ele>976.4</ele>
        <time>2022-06-09T08:47:27Z</time>
      </trkpt>
      <trkpt lat="44.77369" lon="4.41548">
        <ele>976.6</ele>
        <time>2022-06-09T08:47:29Z</time>
      </trkpt>
      <trkpt lat="44.77369" lon="4.41542">
        <ele>976.7</ele>
        <time>2022-06-09T08:47:30Z</time>
      </trkpt>
      <trkpt lat="44.77369" lon="4.41537">
        <ele>976.9</ele>
        <time>2022-06-09T08:47:31Z</time>
      </trkpt>
      <trkpt lat="44.77369" lon="4.41533">
        <ele>977.1</ele>
        <time>2022-06-09T08:47:32Z</time>
      </trkpt>
      <trkpt lat="44.7737" lon="4.41526">
        <ele>977.3</ele>
        <time>2022-06-09T08:47:34Z</time>
      </trkpt>
      <trkpt lat="44.7737" lon="4.41524">
        <ele>977.4</ele>
        <time>2022-06-09T08:47:35Z</time>
      </trkpt>
      <trkpt lat="44.7737" lon="4.41521">
        <ele>977.5</ele>
        <time>2022-06-09T08:47:36Z</time>
      </trkpt>
      <trkpt lat="44.7737" lon="4.41516">
        <ele>977.7</ele>
        <time>2022-06-09T08:47:37Z</time>
      </trkpt>
      <trkpt lat="44.7737" lon="4.41509">
        <ele>978</ele>
        <time>2022-06-09T08:47:39Z</time>
      </trkpt>
      <trkpt lat="44.7737" lon="4.41507">
        <ele>978</ele>
        <time>2022-06-09T08:47:40Z</time>
      </trkpt>
      <trkpt lat="44.77369" lon="4.41505">
        <ele>978.1</ele>
        <time>2022-06-09T08:47:41Z</time>
      </trkpt>
      <trkpt lat="44.77369" lon="4.415">
        <ele>978.3</ele>
        <time>2022-06-09T08:47:42Z</time>
      </trkpt>
      <trkpt lat="44.77369" lon="4.41499">
        <ele>978.4</ele>
        <time>2022-06-09T08:47:43Z</time>
      </trkpt>
      <trkpt lat="44.77369" lon="4.41494">
        <ele>978.5</ele>
        <time>2022-06-09T08:47:44Z</time>
      </trkpt>
      <trkpt lat="44.77369" lon="4.41493">
        <ele>978.6</ele>
        <time>2022-06-09T08:47:45Z</time>
      </trkpt>
      <trkpt lat="44.77368" lon="4.41487">
        <ele>978.8</ele>
        <time>2022-06-09T08:47:46Z</time>
      </trkpt>
      <trkpt lat="44.77366" lon="4.41484">
        <ele>978.9</ele>
        <time>2022-06-09T08:47:48Z</time>
      </trkpt>
      <trkpt lat="44.77365" lon="4.41484">
        <ele>979</ele>
        <time>2022-06-09T08:47:49Z</time>
      </trkpt>
      <trkpt lat="44.77362" lon="4.41484">
        <ele>979.1</ele>
        <time>2022-06-09T08:47:50Z</time>
      </trkpt>
      <trkpt lat="44.77361" lon="4.41484">
        <ele>979.2</ele>
        <time>2022-06-09T08:47:52Z</time>
      </trkpt>
      <trkpt lat="44.77361" lon="4.41483">
        <ele>979.2</ele>
        <time>2022-06-09T08:47:53Z</time>
      </trkpt>
      <trkpt lat="44.77361" lon="4.41483">
        <ele>979.2</ele>
        <time>2022-06-09T08:47:54Z</time>
      </trkpt>
      <trkpt lat="44.77361" lon="4.41482">
        <ele>979.2</ele>
        <time>2022-06-09T08:47:55Z</time>
      </trkpt>
      <trkpt lat="44.77361" lon="4.41482">
        <ele>979.2</ele>
        <time>2022-06-09T08:47:56Z</time>
      </trkpt>
      <trkpt lat="44.77362" lon="4.41481">
        <ele>979.2</ele>
        <time>2022-06-09T08:47:57Z</time>
      </trkpt>
      <trkpt lat="44.77362" lon="4.41481">
        <ele>979.3</ele>
        <time>2022-06-09T08:47:58Z</time>
      </trkpt>
      <trkpt lat="44.77362" lon="4.4148">
        <ele>979.3</ele>
        <time>2022-06-09T08:47:59Z</time>
      </trkpt>
      <trkpt lat="44.77362" lon="4.4148">
        <ele>979.3</ele>
        <time>2022-06-09T08:48:00Z</time>
      </trkpt>
      <trkpt lat="44.77362" lon="4.41479">
        <ele>979.3</ele>
        <time>2022-06-09T08:48:01Z</time>
      </trkpt>
      <trkpt lat="44.77362" lon="4.41479">
        <ele>979.3</ele>
        <time>2022-06-09T08:48:02Z</time>
      </trkpt>
      <trkpt lat="44.77362" lon="4.41478">
        <ele>979.3</ele>
        <time>2022-06-09T08:48:03Z</time>
      </trkpt>
      <trkpt lat="44.77362" lon="4.41478">
        <ele>979.4</ele>
        <time>2022-06-09T08:48:04Z</time>
      </trkpt>
      <trkpt lat="44.77362" lon="4.41477">
        <ele>979.4</ele>
        <time>2022-06-09T08:48:05Z</time>
      </trkpt>
      <trkpt lat="44.77362" lon="4.41476">
        <ele>979.4</ele>
        <time>2022-06-09T08:48:06Z</time>
      </trkpt>
      <trkpt lat="44.77362" lon="4.41476">
        <ele>979.4</ele>
        <time>2022-06-09T08:48:07Z</time>
      </trkpt>
      <trkpt lat="44.77363" lon="4.41475">
        <ele>979.4</ele>
        <time>2022-06-09T08:48:08Z</time>
      </trkpt>
      <trkpt lat="44.77363" lon="4.41475">
        <ele>979.4</ele>
        <time>2022-06-09T08:48:09Z</time>
      </trkpt>
      <trkpt lat="44.77363" lon="4.41474">
        <ele>979.5</ele>
        <time>2022-06-09T08:48:10Z</time>
      </trkpt>
      <trkpt lat="44.77363" lon="4.41474">
        <ele>979.5</ele>
        <time>2022-06-09T08:48:11Z</time>
      </trkpt>
      <trkpt lat="44.77363" lon="4.41473">
        <ele>979.5</ele>
        <time>2022-06-09T09:03:05Z</time>
      </trkpt>
      <trkpt lat="44.77363" lon="4.41473">
        <ele>979.5</ele>
        <time>2022-06-09T09:03:06Z</time>
      </trkpt>
      <trkpt lat="44.77363" lon="4.41472">
        <ele>979.5</ele>
        <time>2022-06-09T09:03:07Z</time>
      </trkpt>
      <trkpt lat="44.77364" lon="4.41469">
        <ele>979.6</ele>
        <time>2022-06-09T09:03:08Z</time>
      </trkpt>
      <trkpt lat="44.77364" lon="4.41468">
        <ele>979.7</ele>
        <time>2022-06-09T09:03:09Z</time>
      </trkpt>
      <trkpt lat="44.77364" lon="4.41466">
        <ele>979.7</ele>
        <time>2022-06-09T09:03:10Z</time>
      </trkpt>
      <trkpt lat="44.77365" lon="4.41462">
        <ele>979.8</ele>
        <time>2022-06-09T09:03:11Z</time>
      </trkpt>
      <trkpt lat="44.77365" lon="4.41461">
        <ele>979.9</ele>
        <time>2022-06-09T09:03:12Z</time>
      </trkpt>
      <trkpt lat="44.77366" lon="4.41456">
        <ele>980</ele>
        <time>2022-06-09T09:03:13Z</time>
      </trkpt>
      <trkpt lat="44.77366" lon="4.41454">
        <ele>980.1</ele>
        <time>2022-06-09T09:03:14Z</time>
      </trkpt>
      <trkpt lat="44.77366" lon="4.41448">
        <ele>980.3</ele>
        <time>2022-06-09T09:03:15Z</time>
      </trkpt>
      <trkpt lat="44.77366" lon="4.41445">
        <ele>980.4</ele>
        <time>2022-06-09T09:03:16Z</time>
      </trkpt>
      <trkpt lat="44.77365" lon="4.41438">
        <ele>980.6</ele>
        <time>2022-06-09T09:03:18Z</time>
      </trkpt>
      <trkpt lat="44.77365" lon="4.41435">
        <ele>980.7</ele>
        <time>2022-06-09T09:03:20Z</time>
      </trkpt>
      <trkpt lat="44.77366" lon="4.41429">
        <ele>980.9</ele>
        <time>2022-06-09T09:03:21Z</time>
      </trkpt>
      <trkpt lat="44.77366" lon="4.41424">
        <ele>981</ele>
        <time>2022-06-09T09:03:23Z</time>
      </trkpt>
      <trkpt lat="44.77369" lon="4.41419">
        <ele>981.2</ele>
        <time>2022-06-09T09:03:24Z</time>
      </trkpt>
      <trkpt lat="44.77371" lon="4.41416">
        <ele>981.3</ele>
        <time>2022-06-09T09:03:25Z</time>
      </trkpt>
      <trkpt lat="44.77374" lon="4.41413">
        <ele>981.4</ele>
        <time>2022-06-09T09:03:26Z</time>
      </trkpt>
      <trkpt lat="44.77377" lon="4.4141">
        <ele>981.5</ele>
        <time>2022-06-09T09:03:27Z</time>
      </trkpt>
      <trkpt lat="44.7738" lon="4.41408">
        <ele>981.5</ele>
        <time>2022-06-09T09:03:28Z</time>
      </trkpt>
      <trkpt lat="44.77381" lon="4.41408">
        <ele>981.6</ele>
        <time>2022-06-09T09:03:29Z</time>
      </trkpt>
      <trkpt lat="44.77385" lon="4.41405">
        <ele>981.6</ele>
        <time>2022-06-09T09:03:31Z</time>
      </trkpt>
      <trkpt lat="44.77386" lon="4.41403">
        <ele>981.7</ele>
        <time>2022-06-09T09:03:32Z</time>
      </trkpt>
      <trkpt lat="44.7739" lon="4.41402">
        <ele>981.7</ele>
        <time>2022-06-09T09:03:33Z</time>
      </trkpt>
      <trkpt lat="44.77391" lon="4.41401">
        <ele>981.7</ele>
        <time>2022-06-09T09:03:34Z</time>
      </trkpt>
      <trkpt lat="44.77394" lon="4.41398">
        <ele>981.8</ele>
        <time>2022-06-09T09:03:36Z</time>
      </trkpt>
      <trkpt lat="44.77398" lon="4.41396">
        <ele>981.8</ele>
        <time>2022-06-09T09:03:37Z</time>
      </trkpt>
      <trkpt lat="44.77399" lon="4.41396">
        <ele>981.8</ele>
        <time>2022-06-09T09:03:38Z</time>
      </trkpt>
      <trkpt lat="44.77402" lon="4.41394">
        <ele>982</ele>
        <time>2022-06-09T09:03:39Z</time>
      </trkpt>
      <trkpt lat="44.77403" lon="4.41394">
        <ele>982</ele>
        <time>2022-06-09T09:03:40Z</time>
      </trkpt>
      <trkpt lat="44.77407" lon="4.41392">
        <ele>982.2</ele>
        <time>2022-06-09T09:03:41Z</time>
      </trkpt>
      <trkpt lat="44.77409" lon="4.4139">
        <ele>982.3</ele>
        <time>2022-06-09T09:03:42Z</time>
      </trkpt>
      <trkpt lat="44.77413" lon="4.41388">
        <ele>982.4</ele>
        <time>2022-06-09T09:03:43Z</time>
      </trkpt>
      <trkpt lat="44.77414" lon="4.41388">
        <ele>982.5</ele>
        <time>2022-06-09T09:03:44Z</time>
      </trkpt>
      <trkpt lat="44.77417" lon="4.41386">
        <ele>982.6</ele>
        <time>2022-06-09T09:03:45Z</time>
      </trkpt>
      <trkpt lat="44.7742" lon="4.41384">
        <ele>982.8</ele>
        <time>2022-06-09T09:03:47Z</time>
      </trkpt>
      <trkpt lat="44.77423" lon="4.41381">
        <ele>982.9</ele>
        <time>2022-06-09T09:03:48Z</time>
      </trkpt>
      <trkpt lat="44.77426" lon="4.4138">
        <ele>983.1</ele>
        <time>2022-06-09T09:03:49Z</time>
      </trkpt>
      <trkpt lat="44.7743" lon="4.41378">
        <ele>983.3</ele>
        <time>2022-06-09T09:03:51Z</time>
      </trkpt>
      <trkpt lat="44.77432" lon="4.41377">
        <ele>983.4</ele>
        <time>2022-06-09T09:03:52Z</time>
      </trkpt>
      <trkpt lat="44.77433" lon="4.41376">
        <ele>983.4</ele>
        <time>2022-06-09T09:03:53Z</time>
      </trkpt>
      <trkpt lat="44.77436" lon="4.41375">
        <ele>983.6</ele>
        <time>2022-06-09T09:03:54Z</time>
      </trkpt>
      <trkpt lat="44.7744" lon="4.41373">
        <ele>983.8</ele>
        <time>2022-06-09T09:03:55Z</time>
      </trkpt>
      <trkpt lat="44.77441" lon="4.41372">
        <ele>983.8</ele>
        <time>2022-06-09T09:03:56Z</time>
      </trkpt>
      <trkpt lat="44.77444" lon="4.41371">
        <ele>983.9</ele>
        <time>2022-06-09T09:03:57Z</time>
      </trkpt>
      <trkpt lat="44.77448" lon="4.41369">
        <ele>984.1</ele>
        <time>2022-06-09T09:03:59Z</time>
      </trkpt>
      <trkpt lat="44.7745" lon="4.41368">
        <ele>984.3</ele>
        <time>2022-06-09T09:04:01Z</time>
      </trkpt>
      <trkpt lat="44.77453" lon="4.41365">
        <ele>984.4</ele>
        <time>2022-06-09T09:04:02Z</time>
      </trkpt>
      <trkpt lat="44.77454" lon="4.41365">
        <ele>984.5</ele>
        <time>2022-06-09T09:04:03Z</time>
      </trkpt>
      <trkpt lat="44.77457" lon="4.41363">
        <ele>984.6</ele>
        <time>2022-06-09T09:04:04Z</time>
      </trkpt>
      <trkpt lat="44.77458" lon="4.41362">
        <ele>984.6</ele>
        <time>2022-06-09T09:04:05Z</time>
      </trkpt>
      <trkpt lat="44.77461" lon="4.41359">
        <ele>984.8</ele>
        <time>2022-06-09T09:04:06Z</time>
      </trkpt>
      <trkpt lat="44.77463" lon="4.41358">
        <ele>984.9</ele>
        <time>2022-06-09T09:04:07Z</time>
      </trkpt>
      <trkpt lat="44.77465" lon="4.41356">
        <ele>985</ele>
        <time>2022-06-09T09:04:09Z</time>
      </trkpt>
      <trkpt lat="44.77468" lon="4.41353">
        <ele>985.2</ele>
        <time>2022-06-09T09:04:10Z</time>
      </trkpt>
      <trkpt lat="44.77471" lon="4.41351">
        <ele>985.3</ele>
        <time>2022-06-09T09:04:11Z</time>
      </trkpt>
      <trkpt lat="44.77474" lon="4.41348">
        <ele>985.4</ele>
        <time>2022-06-09T09:04:13Z</time>
      </trkpt>
      <trkpt lat="44.77476" lon="4.41345">
        <ele>985.6</ele>
        <time>2022-06-09T09:04:14Z</time>
      </trkpt>
      <trkpt lat="44.77478" lon="4.41342">
        <ele>985.7</ele>
        <time>2022-06-09T09:04:15Z</time>
      </trkpt>
      <trkpt lat="44.77482" lon="4.41336">
        <ele>985.9</ele>
        <time>2022-06-09T09:04:17Z</time>
      </trkpt>
      <trkpt lat="44.77484" lon="4.41334">
        <ele>986</ele>
        <time>2022-06-09T09:04:19Z</time>
      </trkpt>
      <trkpt lat="44.77486" lon="4.41331">
        <ele>986.2</ele>
        <time>2022-06-09T09:04:20Z</time>
      </trkpt>
      <trkpt lat="44.77487" lon="4.4133">
        <ele>986.2</ele>
        <time>2022-06-09T09:04:21Z</time>
      </trkpt>
      <trkpt lat="44.77489" lon="4.41326">
        <ele>986.4</ele>
        <time>2022-06-09T09:04:22Z</time>
      </trkpt>
      <trkpt lat="44.77492" lon="4.41321">
        <ele>986.6</ele>
        <time>2022-06-09T09:04:24Z</time>
      </trkpt>
      <trkpt lat="44.77493" lon="4.41319">
        <ele>986.6</ele>
        <time>2022-06-09T09:04:25Z</time>
      </trkpt>
      <trkpt lat="44.77493" lon="4.41317">
        <ele>986.7</ele>
        <time>2022-06-09T09:04:26Z</time>
      </trkpt>
      <trkpt lat="44.77495" lon="4.41313">
        <ele>986.8</ele>
        <time>2022-06-09T09:04:27Z</time>
      </trkpt>
      <trkpt lat="44.77495" lon="4.41312">
        <ele>986.9</ele>
        <time>2022-06-09T09:04:28Z</time>
      </trkpt>
      <trkpt lat="44.77498" lon="4.41306">
        <ele>987.1</ele>
        <time>2022-06-09T09:04:29Z</time>
      </trkpt>
      <trkpt lat="44.77499" lon="4.41303">
        <ele>987.2</ele>
        <time>2022-06-09T09:04:30Z</time>
      </trkpt>
      <trkpt lat="44.775" lon="4.41299">
        <ele>987.3</ele>
        <time>2022-06-09T09:04:32Z</time>
      </trkpt>
      <trkpt lat="44.77501" lon="4.41293">
        <ele>987.5</ele>
        <time>2022-06-09T09:04:33Z</time>
      </trkpt>
      <trkpt lat="44.77502" lon="4.4129">
        <ele>987.6</ele>
        <time>2022-06-09T09:04:34Z</time>
      </trkpt>
      <trkpt lat="44.77503" lon="4.41286">
        <ele>987.7</ele>
        <time>2022-06-09T09:04:36Z</time>
      </trkpt>
      <trkpt lat="44.77504" lon="4.41282">
        <ele>987.8</ele>
        <time>2022-06-09T09:04:37Z</time>
      </trkpt>
      <trkpt lat="44.77504" lon="4.41276">
        <ele>988</ele>
        <time>2022-06-09T09:04:38Z</time>
      </trkpt>
      <trkpt lat="44.77505" lon="4.41274">
        <ele>988.1</ele>
        <time>2022-06-09T09:04:39Z</time>
      </trkpt>
      <trkpt lat="44.77504" lon="4.41268">
        <ele>988.2</ele>
        <time>2022-06-09T09:04:41Z</time>
      </trkpt>
      <trkpt lat="44.77505" lon="4.41262">
        <ele>988.4</ele>
        <time>2022-06-09T09:04:42Z</time>
      </trkpt>
      <trkpt lat="44.77505" lon="4.4126">
        <ele>988.5</ele>
        <time>2022-06-09T09:04:43Z</time>
      </trkpt>
      <trkpt lat="44.77505" lon="4.41254">
        <ele>988.6</ele>
        <time>2022-06-09T09:04:45Z</time>
      </trkpt>
      <trkpt lat="44.77505" lon="4.4125">
        <ele>988.7</ele>
        <time>2022-06-09T09:04:46Z</time>
      </trkpt>
      <trkpt lat="44.77505" lon="4.41246">
        <ele>988.8</ele>
        <time>2022-06-09T09:04:48Z</time>
      </trkpt>
      <trkpt lat="44.77504" lon="4.41242">
        <ele>989</ele>
        <time>2022-06-09T09:04:49Z</time>
      </trkpt>
      <trkpt lat="44.77504" lon="4.41237">
        <ele>989.1</ele>
        <time>2022-06-09T09:04:50Z</time>
      </trkpt>
      <trkpt lat="44.77503" lon="4.41231">
        <ele>989.3</ele>
        <time>2022-06-09T09:04:52Z</time>
      </trkpt>
      <trkpt lat="44.77503" lon="4.41228">
        <ele>989.3</ele>
        <time>2022-06-09T09:04:53Z</time>
      </trkpt>
      <trkpt lat="44.77503" lon="4.41224">
        <ele>989.5</ele>
        <time>2022-06-09T09:04:54Z</time>
      </trkpt>
      <trkpt lat="44.77502" lon="4.4122">
        <ele>989.6</ele>
        <time>2022-06-09T09:04:55Z</time>
      </trkpt>
      <trkpt lat="44.77501" lon="4.41215">
        <ele>989.8</ele>
        <time>2022-06-09T09:04:56Z</time>
      </trkpt>
      <trkpt lat="44.77501" lon="4.41213">
        <ele>989.8</ele>
        <time>2022-06-09T09:04:57Z</time>
      </trkpt>
      <trkpt lat="44.77501" lon="4.41207">
        <ele>990</ele>
        <time>2022-06-09T09:04:59Z</time>
      </trkpt>
      <trkpt lat="44.77501" lon="4.41205">
        <ele>990.1</ele>
        <time>2022-06-09T09:05:00Z</time>
      </trkpt>
      <trkpt lat="44.775" lon="4.41203">
        <ele>990.1</ele>
        <time>2022-06-09T09:05:01Z</time>
      </trkpt>
      <trkpt lat="44.775" lon="4.41197">
        <ele>990.3</ele>
        <time>2022-06-09T09:05:02Z</time>
      </trkpt>
      <trkpt lat="44.775" lon="4.41194">
        <ele>990.4</ele>
        <time>2022-06-09T09:05:03Z</time>
      </trkpt>
      <trkpt lat="44.775" lon="4.41191">
        <ele>990.5</ele>
        <time>2022-06-09T09:05:05Z</time>
      </trkpt>
      <trkpt lat="44.77499" lon="4.41186">
        <ele>990.7</ele>
        <time>2022-06-09T09:05:06Z</time>
      </trkpt>
      <trkpt lat="44.77499" lon="4.41184">
        <ele>990.7</ele>
        <time>2022-06-09T09:05:07Z</time>
      </trkpt>
      <trkpt lat="44.77498" lon="4.4118">
        <ele>990.9</ele>
        <time>2022-06-09T09:05:08Z</time>
      </trkpt>
      <trkpt lat="44.77498" lon="4.41178">
        <ele>990.9</ele>
        <time>2022-06-09T09:05:09Z</time>
      </trkpt>
      <trkpt lat="44.77498" lon="4.41174">
        <ele>991.1</ele>
        <time>2022-06-09T09:05:10Z</time>
      </trkpt>
      <trkpt lat="44.77498" lon="4.41173">
        <ele>991.1</ele>
        <time>2022-06-09T09:05:11Z</time>
      </trkpt>
      <trkpt lat="44.77497" lon="4.41168">
        <ele>991.3</ele>
        <time>2022-06-09T09:05:12Z</time>
      </trkpt>
      <trkpt lat="44.77497" lon="4.41167">
        <ele>991.3</ele>
        <time>2022-06-09T09:05:13Z</time>
      </trkpt>
      <trkpt lat="44.77496" lon="4.41162">
        <ele>991.5</ele>
        <time>2022-06-09T09:05:14Z</time>
      </trkpt>
      <trkpt lat="44.77496" lon="4.41161">
        <ele>991.5</ele>
        <time>2022-06-09T09:05:15Z</time>
      </trkpt>
      <trkpt lat="44.77496" lon="4.41156">
        <ele>991.7</ele>
        <time>2022-06-09T09:05:16Z</time>
      </trkpt>
      <trkpt lat="44.77495" lon="4.41151">
        <ele>991.8</ele>
        <time>2022-06-09T09:05:17Z</time>
      </trkpt>
      <trkpt lat="44.77495" lon="4.41147">
        <ele>992</ele>
        <time>2022-06-09T09:05:19Z</time>
      </trkpt>
      <trkpt lat="44.77494" lon="4.41141">
        <ele>992.1</ele>
        <time>2022-06-09T09:05:20Z</time>
      </trkpt>
      <trkpt lat="44.77494" lon="4.41137">
        <ele>992.3</ele>
        <time>2022-06-09T09:05:21Z</time>
      </trkpt>
      <trkpt lat="44.77492" lon="4.41131">
        <ele>992.5</ele>
        <time>2022-06-09T09:05:22Z</time>
      </trkpt>
      <trkpt lat="44.77492" lon="4.41129">
        <ele>992.6</ele>
        <time>2022-06-09T09:05:23Z</time>
      </trkpt>
      <trkpt lat="44.77491" lon="4.41125">
        <ele>992.7</ele>
        <time>2022-06-09T09:05:24Z</time>
      </trkpt>
      <trkpt lat="44.7749" lon="4.41118">
        <ele>993</ele>
        <time>2022-06-09T09:05:26Z</time>
      </trkpt>
      <trkpt lat="44.7749" lon="4.41114">
        <ele>993.1</ele>
        <time>2022-06-09T09:05:27Z</time>
      </trkpt>
      <trkpt lat="44.77489" lon="4.41111">
        <ele>993.2</ele>
        <time>2022-06-09T09:05:28Z</time>
      </trkpt>
      <trkpt lat="44.77489" lon="4.41107">
        <ele>993.3</ele>
        <time>2022-06-09T09:05:30Z</time>
      </trkpt>
      <trkpt lat="44.77488" lon="4.41102">
        <ele>993.5</ele>
        <time>2022-06-09T09:05:31Z</time>
      </trkpt>
      <trkpt lat="44.77488" lon="4.411">
        <ele>993.6</ele>
        <time>2022-06-09T09:05:32Z</time>
      </trkpt>
      <trkpt lat="44.77487" lon="4.41093">
        <ele>993.8</ele>
        <time>2022-06-09T09:05:33Z</time>
      </trkpt>
      <trkpt lat="44.77486" lon="4.41086">
        <ele>994</ele>
        <time>2022-06-09T09:05:35Z</time>
      </trkpt>
      <trkpt lat="44.77485" lon="4.41083">
        <ele>994.1</ele>
        <time>2022-06-09T09:05:36Z</time>
      </trkpt>
      <trkpt lat="44.77484" lon="4.41079">
        <ele>994.2</ele>
        <time>2022-06-09T09:05:37Z</time>
      </trkpt>
      <trkpt lat="44.77484" lon="4.41075">
        <ele>994.3</ele>
        <time>2022-06-09T09:05:39Z</time>
      </trkpt>
      <trkpt lat="44.77482" lon="4.4107">
        <ele>994.5</ele>
        <time>2022-06-09T09:05:40Z</time>
      </trkpt>
      <trkpt lat="44.77482" lon="4.41069">
        <ele>994.6</ele>
        <time>2022-06-09T09:05:41Z</time>
      </trkpt>
      <trkpt lat="44.7748" lon="4.41064">
        <ele>994.7</ele>
        <time>2022-06-09T09:05:42Z</time>
      </trkpt>
      <trkpt lat="44.7748" lon="4.41062">
        <ele>994.8</ele>
        <time>2022-06-09T09:05:43Z</time>
      </trkpt>
      <trkpt lat="44.77479" lon="4.41058">
        <ele>994.9</ele>
        <time>2022-06-09T09:05:44Z</time>
      </trkpt>
      <trkpt lat="44.77478" lon="4.41054">
        <ele>995</ele>
        <time>2022-06-09T09:05:45Z</time>
      </trkpt>
      <trkpt lat="44.77476" lon="4.4105">
        <ele>995.2</ele>
        <time>2022-06-09T09:05:46Z</time>
      </trkpt>
      <trkpt lat="44.77475" lon="4.41047">
        <ele>995.3</ele>
        <time>2022-06-09T09:05:47Z</time>
      </trkpt>
      <trkpt lat="44.77474" lon="4.41044">
        <ele>995.4</ele>
        <time>2022-06-09T09:05:48Z</time>
      </trkpt>
      <trkpt lat="44.77472" lon="4.4104">
        <ele>995.5</ele>
        <time>2022-06-09T09:05:50Z</time>
      </trkpt>
      <trkpt lat="44.7747" lon="4.41036">
        <ele>995.7</ele>
        <time>2022-06-09T09:05:51Z</time>
      </trkpt>
      <trkpt lat="44.77467" lon="4.41032">
        <ele>995.8</ele>
        <time>2022-06-09T09:05:52Z</time>
      </trkpt>
      <trkpt lat="44.77464" lon="4.41027">
        <ele>996</ele>
        <time>2022-06-09T09:05:54Z</time>
      </trkpt>
      <trkpt lat="44.77462" lon="4.41024">
        <ele>996.2</ele>
        <time>2022-06-09T09:05:56Z</time>
      </trkpt>
      <trkpt lat="44.77459" lon="4.41018">
        <ele>996.4</ele>
        <time>2022-06-09T09:05:57Z</time>
      </trkpt>
      <trkpt lat="44.77455" lon="4.41013">
        <ele>996.7</ele>
        <time>2022-06-09T09:05:59Z</time>
      </trkpt>
      <trkpt lat="44.77453" lon="4.41011">
        <ele>996.8</ele>
        <time>2022-06-09T09:06:00Z</time>
      </trkpt>
      <trkpt lat="44.77452" lon="4.41009">
        <ele>996.9</ele>
        <time>2022-06-09T09:06:01Z</time>
      </trkpt>
      <trkpt lat="44.77448" lon="4.41004">
        <ele>997.2</ele>
        <time>2022-06-09T09:06:03Z</time>
      </trkpt>
      <trkpt lat="44.77446" lon="4.41003">
        <ele>997.4</ele>
        <time>2022-06-09T09:06:04Z</time>
      </trkpt>
      <trkpt lat="44.77443" lon="4.41">
        <ele>997.6</ele>
        <time>2022-06-09T09:06:05Z</time>
      </trkpt>
      <trkpt lat="44.7744" lon="4.40998">
        <ele>997.8</ele>
        <time>2022-06-09T09:06:07Z</time>
      </trkpt>
      <trkpt lat="44.77439" lon="4.40997">
        <ele>997.9</ele>
        <time>2022-06-09T09:06:08Z</time>
      </trkpt>
      <trkpt lat="44.77436" lon="4.40994">
        <ele>998.1</ele>
        <time>2022-06-09T09:06:09Z</time>
      </trkpt>
      <trkpt lat="44.77435" lon="4.40993">
        <ele>998.2</ele>
        <time>2022-06-09T09:06:10Z</time>
      </trkpt>
      <trkpt lat="44.77432" lon="4.4099">
        <ele>998.5</ele>
        <time>2022-06-09T09:06:11Z</time>
      </trkpt>
      <trkpt lat="44.7743" lon="4.4099">
        <ele>998.6</ele>
        <time>2022-06-09T09:06:12Z</time>
      </trkpt>
      <trkpt lat="44.77427" lon="4.40987">
        <ele>998.9</ele>
        <time>2022-06-09T09:06:13Z</time>
      </trkpt>
      <trkpt lat="44.77426" lon="4.40986">
        <ele>999</ele>
        <time>2022-06-09T09:06:14Z</time>
      </trkpt>
      <trkpt lat="44.77422" lon="4.40984">
        <ele>999.4</ele>
        <time>2022-06-09T09:06:15Z</time>
      </trkpt>
      <trkpt lat="44.7742" lon="4.40983">
        <ele>999.5</ele>
        <time>2022-06-09T09:06:16Z</time>
      </trkpt>
      <trkpt lat="44.77417" lon="4.40981">
        <ele>999.8</ele>
        <time>2022-06-09T09:06:18Z</time>
      </trkpt>
      <trkpt lat="44.77414" lon="4.40979">
        <ele>1000.1</ele>
        <time>2022-06-09T09:06:19Z</time>
      </trkpt>
      <trkpt lat="44.77413" lon="4.40978">
        <ele>1000.2</ele>
        <time>2022-06-09T09:06:20Z</time>
      </trkpt>
      <trkpt lat="44.7741" lon="4.40975">
        <ele>1000.5</ele>
        <time>2022-06-09T09:06:21Z</time>
      </trkpt>
      <trkpt lat="44.77409" lon="4.40974">
        <ele>1000.6</ele>
        <time>2022-06-09T09:06:22Z</time>
      </trkpt>
      <trkpt lat="44.77405" lon="4.40971">
        <ele>1001</ele>
        <time>2022-06-09T09:06:23Z</time>
      </trkpt>
      <trkpt lat="44.77403" lon="4.40969">
        <ele>1001.2</ele>
        <time>2022-06-09T09:06:24Z</time>
      </trkpt>
      <trkpt lat="44.77401" lon="4.40968">
        <ele>1001.4</ele>
        <time>2022-06-09T09:06:25Z</time>
      </trkpt>
      <trkpt lat="44.77397" lon="4.40965">
        <ele>1001.7</ele>
        <time>2022-06-09T09:06:27Z</time>
      </trkpt>
      <trkpt lat="44.77396" lon="4.40964">
        <ele>1001.8</ele>
        <time>2022-06-09T09:06:28Z</time>
      </trkpt>
      <trkpt lat="44.77393" lon="4.40962">
        <ele>1002.1</ele>
        <time>2022-06-09T09:06:29Z</time>
      </trkpt>
      <trkpt lat="44.77391" lon="4.4096">
        <ele>1002.3</ele>
        <time>2022-06-09T09:06:30Z</time>
      </trkpt>
      <trkpt lat="44.77388" lon="4.40958">
        <ele>1002.6</ele>
        <time>2022-06-09T09:06:31Z</time>
      </trkpt>
      <trkpt lat="44.77384" lon="4.40954">
        <ele>1002.9</ele>
        <time>2022-06-09T09:06:33Z</time>
      </trkpt>
      <trkpt lat="44.77383" lon="4.40953">
        <ele>1003</ele>
        <time>2022-06-09T09:06:34Z</time>
      </trkpt>
      <trkpt lat="44.77381" lon="4.40952">
        <ele>1003.2</ele>
        <time>2022-06-09T09:06:35Z</time>
      </trkpt>
      <trkpt lat="44.77379" lon="4.40949">
        <ele>1003.3</ele>
        <time>2022-06-09T09:06:36Z</time>
      </trkpt>
      <trkpt lat="44.77375" lon="4.40946">
        <ele>1003.6</ele>
        <time>2022-06-09T09:06:38Z</time>
      </trkpt>
      <trkpt lat="44.77373" lon="4.40944">
        <ele>1003.7</ele>
        <time>2022-06-09T09:06:39Z</time>
      </trkpt>
      <trkpt lat="44.77372" lon="4.40943">
        <ele>1003.8</ele>
        <time>2022-06-09T09:06:40Z</time>
      </trkpt>
      <trkpt lat="44.7737" lon="4.40939">
        <ele>1003.9</ele>
        <time>2022-06-09T09:06:41Z</time>
      </trkpt>
      <trkpt lat="44.77368" lon="4.40935">
        <ele>1004</ele>
        <time>2022-06-09T09:06:43Z</time>
      </trkpt>
      <trkpt lat="44.77367" lon="4.40932">
        <ele>1004.1</ele>
        <time>2022-06-09T09:06:44Z</time>
      </trkpt>
      <trkpt lat="44.77366" lon="4.40925">
        <ele>1004.2</ele>
        <time>2022-06-09T09:06:45Z</time>
      </trkpt>
      <trkpt lat="44.77366" lon="4.40922">
        <ele>1004.2</ele>
        <time>2022-06-09T09:06:46Z</time>
      </trkpt>
      <trkpt lat="44.77366" lon="4.40917">
        <ele>1004.2</ele>
        <time>2022-06-09T09:06:47Z</time>
      </trkpt>
      <trkpt lat="44.77368" lon="4.40912">
        <ele>1004.2</ele>
        <time>2022-06-09T09:06:48Z</time>
      </trkpt>
      <trkpt lat="44.77369" lon="4.4091">
        <ele>1004.2</ele>
        <time>2022-06-09T09:06:49Z</time>
      </trkpt>
      <trkpt lat="44.77371" lon="4.40908">
        <ele>1004.2</ele>
        <time>2022-06-09T09:06:51Z</time>
      </trkpt>
      <trkpt lat="44.77372" lon="4.40907">
        <ele>1004.2</ele>
        <time>2022-06-09T09:06:52Z</time>
      </trkpt>
      <trkpt lat="44.77373" lon="4.40906">
        <ele>1004.1</ele>
        <time>2022-06-09T09:06:53Z</time>
      </trkpt>
      <trkpt lat="44.77375" lon="4.40906">
        <ele>1004.1</ele>
        <time>2022-06-09T09:06:54Z</time>
      </trkpt>
      <trkpt lat="44.77378" lon="4.40904">
        <ele>1004.1</ele>
        <time>2022-06-09T09:06:55Z</time>
      </trkpt>
      <trkpt lat="44.77379" lon="4.40903">
        <ele>1004.1</ele>
        <time>2022-06-09T09:06:57Z</time>
      </trkpt>
      <trkpt lat="44.77381" lon="4.40901">
        <ele>1004</ele>
        <time>2022-06-09T09:06:58Z</time>
      </trkpt>
      <trkpt lat="44.77385" lon="4.409">
        <ele>1004</ele>
        <time>2022-06-09T09:07:00Z</time>
      </trkpt>
      <trkpt lat="44.77386" lon="4.40901">
        <ele>1004</ele>
        <time>2022-06-09T09:07:01Z</time>
      </trkpt>
      <trkpt lat="44.77388" lon="4.40901">
        <ele>1004</ele>
        <time>2022-06-09T09:07:02Z</time>
      </trkpt>
      <trkpt lat="44.77391" lon="4.40899">
        <ele>1003.9</ele>
        <time>2022-06-09T09:07:03Z</time>
      </trkpt>
      <trkpt lat="44.77392" lon="4.40899">
        <ele>1003.9</ele>
        <time>2022-06-09T09:07:04Z</time>
      </trkpt>
      <trkpt lat="44.77396" lon="4.40898">
        <ele>1003.9</ele>
        <time>2022-06-09T09:07:06Z</time>
      </trkpt>
      <trkpt lat="44.77398" lon="4.40897">
        <ele>1003.9</ele>
        <time>2022-06-09T09:07:08Z</time>
      </trkpt>
      <trkpt lat="44.77399" lon="4.40897">
        <ele>1003.9</ele>
        <time>2022-06-09T09:07:09Z</time>
      </trkpt>
      <trkpt lat="44.77403" lon="4.40896">
        <ele>1004</ele>
        <time>2022-06-09T09:07:10Z</time>
      </trkpt>
      <trkpt lat="44.77405" lon="4.40896">
        <ele>1004</ele>
        <time>2022-06-09T09:07:11Z</time>
      </trkpt>
      <trkpt lat="44.77408" lon="4.40895">
        <ele>1004</ele>
        <time>2022-06-09T09:07:12Z</time>
      </trkpt>
      <trkpt lat="44.77413" lon="4.40893">
        <ele>1004.1</ele>
        <time>2022-06-09T09:07:14Z</time>
      </trkpt>
      <trkpt lat="44.77416" lon="4.40891">
        <ele>1004.2</ele>
        <time>2022-06-09T09:07:16Z</time>
      </trkpt>
      <trkpt lat="44.77419" lon="4.4089">
        <ele>1004.2</ele>
        <time>2022-06-09T09:07:17Z</time>
      </trkpt>
      <trkpt lat="44.77421" lon="4.40889">
        <ele>1004.2</ele>
        <time>2022-06-09T09:07:18Z</time>
      </trkpt>
      <trkpt lat="44.77425" lon="4.40887">
        <ele>1004.3</ele>
        <time>2022-06-09T09:07:19Z</time>
      </trkpt>
      <trkpt lat="44.77427" lon="4.40885">
        <ele>1004.4</ele>
        <time>2022-06-09T09:07:20Z</time>
      </trkpt>
      <trkpt lat="44.7743" lon="4.40883">
        <ele>1004.5</ele>
        <time>2022-06-09T09:07:22Z</time>
      </trkpt>
      <trkpt lat="44.77432" lon="4.40881">
        <ele>1004.5</ele>
        <time>2022-06-09T09:07:23Z</time>
      </trkpt>
      <trkpt lat="44.77438" lon="4.40877">
        <ele>1004.7</ele>
        <time>2022-06-09T09:07:24Z</time>
      </trkpt>
      <trkpt lat="44.77442" lon="4.40874">
        <ele>1004.9</ele>
        <time>2022-06-09T09:07:26Z</time>
      </trkpt>
      <trkpt lat="44.77447" lon="4.40868">
        <ele>1005.1</ele>
        <time>2022-06-09T09:07:28Z</time>
      </trkpt>
      <trkpt lat="44.77449" lon="4.40866">
        <ele>1005.2</ele>
        <time>2022-06-09T09:07:30Z</time>
      </trkpt>
      <trkpt lat="44.77451" lon="4.40863">
        <ele>1005.3</ele>
        <time>2022-06-09T09:07:31Z</time>
      </trkpt>
      <trkpt lat="44.77455" lon="4.40859">
        <ele>1005.4</ele>
        <time>2022-06-09T09:07:32Z</time>
      </trkpt>
      <trkpt lat="44.77457" lon="4.40856">
        <ele>1005.6</ele>
        <time>2022-06-09T09:07:34Z</time>
      </trkpt>
      <trkpt lat="44.7746" lon="4.40853">
        <ele>1005.7</ele>
        <time>2022-06-09T09:07:35Z</time>
      </trkpt>
      <trkpt lat="44.77463" lon="4.4085">
        <ele>1005.8</ele>
        <time>2022-06-09T09:07:37Z</time>
      </trkpt>
      <trkpt lat="44.77465" lon="4.40846">
        <ele>1006</ele>
        <time>2022-06-09T09:07:38Z</time>
      </trkpt>
      <trkpt lat="44.77469" lon="4.40841">
        <ele>1006.2</ele>
        <time>2022-06-09T09:07:40Z</time>
      </trkpt>
      <trkpt lat="44.7747" lon="4.40839">
        <ele>1006.3</ele>
        <time>2022-06-09T09:07:41Z</time>
      </trkpt>
      <trkpt lat="44.77472" lon="4.40837">
        <ele>1006.4</ele>
        <time>2022-06-09T09:07:42Z</time>
      </trkpt>
      <trkpt lat="44.77474" lon="4.40834">
        <ele>1006.5</ele>
        <time>2022-06-09T09:07:43Z</time>
      </trkpt>
      <trkpt lat="44.77476" lon="4.4083">
        <ele>1006.7</ele>
        <time>2022-06-09T09:07:45Z</time>
      </trkpt>
      <trkpt lat="44.77478" lon="4.40826">
        <ele>1006.9</ele>
        <time>2022-06-09T09:07:46Z</time>
      </trkpt>
      <trkpt lat="44.77481" lon="4.40822">
        <ele>1007</ele>
        <time>2022-06-09T09:07:47Z</time>
      </trkpt>
      <trkpt lat="44.77482" lon="4.40821">
        <ele>1007.1</ele>
        <time>2022-06-09T09:07:48Z</time>
      </trkpt>
      <trkpt lat="44.77485" lon="4.40817">
        <ele>1007.3</ele>
        <time>2022-06-09T09:07:49Z</time>
      </trkpt>
      <trkpt lat="44.77488" lon="4.4081">
        <ele>1007.6</ele>
        <time>2022-06-09T09:07:51Z</time>
      </trkpt>
      <trkpt lat="44.7749" lon="4.40808">
        <ele>1007.7</ele>
        <time>2022-06-09T09:07:52Z</time>
      </trkpt>
      <trkpt lat="44.77491" lon="4.40805">
        <ele>1007.8</ele>
        <time>2022-06-09T09:07:53Z</time>
      </trkpt>
      <trkpt lat="44.77493" lon="4.40803">
        <ele>1008</ele>
        <time>2022-06-09T09:07:55Z</time>
      </trkpt>
      <trkpt lat="44.77495" lon="4.40799">
        <ele>1008.1</ele>
        <time>2022-06-09T09:07:56Z</time>
      </trkpt>
      <trkpt lat="44.77496" lon="4.40797">
        <ele>1008.2</ele>
        <time>2022-06-09T09:07:57Z</time>
      </trkpt>
      <trkpt lat="44.77499" lon="4.40794">
        <ele>1008.4</ele>
        <time>2022-06-09T09:07:58Z</time>
      </trkpt>
      <trkpt lat="44.775" lon="4.40792">
        <ele>1008.4</ele>
        <time>2022-06-09T09:07:59Z</time>
      </trkpt>
      <trkpt lat="44.77502" lon="4.40789">
        <ele>1008.6</ele>
        <time>2022-06-09T09:08:00Z</time>
      </trkpt>
      <trkpt lat="44.77503" lon="4.40787">
        <ele>1008.7</ele>
        <time>2022-06-09T09:08:01Z</time>
      </trkpt>
      <trkpt lat="44.77505" lon="4.40783">
        <ele>1008.9</ele>
        <time>2022-06-09T09:08:02Z</time>
      </trkpt>
      <trkpt lat="44.77506" lon="4.40782">
        <ele>1008.9</ele>
        <time>2022-06-09T09:08:03Z</time>
      </trkpt>
      <trkpt lat="44.77509" lon="4.40778">
        <ele>1009.1</ele>
        <time>2022-06-09T09:08:04Z</time>
      </trkpt>
      <trkpt lat="44.7751" lon="4.40777">
        <ele>1009.2</ele>
        <time>2022-06-09T09:08:05Z</time>
      </trkpt>
      <trkpt lat="44.77512" lon="4.40773">
        <ele>1009.3</ele>
        <time>2022-06-09T09:08:06Z</time>
      </trkpt>
      <trkpt lat="44.77513" lon="4.40772">
        <ele>1009.4</ele>
        <time>2022-06-09T09:08:07Z</time>
      </trkpt>
      <trkpt lat="44.77515" lon="4.40766">
        <ele>1009.6</ele>
        <time>2022-06-09T09:08:08Z</time>
      </trkpt>
      <trkpt lat="44.77517" lon="4.40764">
        <ele>1009.7</ele>
        <time>2022-06-09T09:08:09Z</time>
      </trkpt>
      <trkpt lat="44.77518" lon="4.4076">
        <ele>1009.9</ele>
        <time>2022-06-09T09:08:11Z</time>
      </trkpt>
      <trkpt lat="44.77521" lon="4.40754">
        <ele>1010.1</ele>
        <time>2022-06-09T09:08:12Z</time>
      </trkpt>
      <trkpt lat="44.77522" lon="4.40751">
        <ele>1010.2</ele>
        <time>2022-06-09T09:08:13Z</time>
      </trkpt>
      <trkpt lat="44.77524" lon="4.40747">
        <ele>1010.3</ele>
        <time>2022-06-09T09:08:15Z</time>
      </trkpt>
      <trkpt lat="44.77526" lon="4.40744">
        <ele>1010.5</ele>
        <time>2022-06-09T09:08:16Z</time>
      </trkpt>
      <trkpt lat="44.77528" lon="4.40741">
        <ele>1010.6</ele>
        <time>2022-06-09T09:08:18Z</time>
      </trkpt>
      <trkpt lat="44.7753" lon="4.40737">
        <ele>1010.7</ele>
        <time>2022-06-09T09:08:19Z</time>
      </trkpt>
      <trkpt lat="44.77532" lon="4.40734">
        <ele>1010.9</ele>
        <time>2022-06-09T09:08:20Z</time>
      </trkpt>
      <trkpt lat="44.77535" lon="4.40729">
        <ele>1011</ele>
        <time>2022-06-09T09:08:21Z</time>
      </trkpt>
      <trkpt lat="44.77536" lon="4.40728">
        <ele>1011.1</ele>
        <time>2022-06-09T09:08:22Z</time>
      </trkpt>
      <trkpt lat="44.77539" lon="4.40721">
        <ele>1011.3</ele>
        <time>2022-06-09T09:08:24Z</time>
      </trkpt>
      <trkpt lat="44.7754" lon="4.40718">
        <ele>1011.4</ele>
        <time>2022-06-09T09:08:26Z</time>
      </trkpt>
      <trkpt lat="44.77541" lon="4.40713">
        <ele>1011.6</ele>
        <time>2022-06-09T09:08:27Z</time>
      </trkpt>
      <trkpt lat="44.77542" lon="4.40712">
        <ele>1011.6</ele>
        <time>2022-06-09T09:08:28Z</time>
      </trkpt>
      <trkpt lat="44.77544" lon="4.40707">
        <ele>1011.8</ele>
        <time>2022-06-09T09:08:29Z</time>
      </trkpt>
      <trkpt lat="44.77545" lon="4.40704">
        <ele>1011.9</ele>
        <time>2022-06-09T09:08:30Z</time>
      </trkpt>
      <trkpt lat="44.77547" lon="4.407">
        <ele>1012.1</ele>
        <time>2022-06-09T09:08:31Z</time>
      </trkpt>
      <trkpt lat="44.77548" lon="4.40697">
        <ele>1012.2</ele>
        <time>2022-06-09T09:08:32Z</time>
      </trkpt>
      <trkpt lat="44.77549" lon="4.40693">
        <ele>1012.3</ele>
        <time>2022-06-09T09:08:34Z</time>
      </trkpt>
      <trkpt lat="44.7755" lon="4.40689">
        <ele>1012.5</ele>
        <time>2022-06-09T09:08:35Z</time>
      </trkpt>
      <trkpt lat="44.77552" lon="4.40685">
        <ele>1012.6</ele>
        <time>2022-06-09T09:08:36Z</time>
      </trkpt>
      <trkpt lat="44.77554" lon="4.4068">
        <ele>1012.8</ele>
        <time>2022-06-09T09:08:38Z</time>
      </trkpt>
      <trkpt lat="44.77554" lon="4.40678">
        <ele>1012.9</ele>
        <time>2022-06-09T09:08:39Z</time>
      </trkpt>
      <trkpt lat="44.77556" lon="4.40673">
        <ele>1013.1</ele>
        <time>2022-06-09T09:08:40Z</time>
      </trkpt>
      <trkpt lat="44.77558" lon="4.40667">
        <ele>1013.3</ele>
        <time>2022-06-09T09:08:42Z</time>
      </trkpt>
      <trkpt lat="44.77558" lon="4.40665">
        <ele>1013.4</ele>
        <time>2022-06-09T09:08:43Z</time>
      </trkpt>
      <trkpt lat="44.77559" lon="4.40661">
        <ele>1013.6</ele>
        <time>2022-06-09T09:08:44Z</time>
      </trkpt>
      <trkpt lat="44.7756" lon="4.40658">
        <ele>1013.7</ele>
        <time>2022-06-09T09:08:45Z</time>
      </trkpt>
      <trkpt lat="44.77561" lon="4.40654">
        <ele>1013.8</ele>
        <time>2022-06-09T09:08:47Z</time>
      </trkpt>
      <trkpt lat="44.77562" lon="4.4065">
        <ele>1014</ele>
        <time>2022-06-09T09:08:48Z</time>
      </trkpt>
      <trkpt lat="44.77564" lon="4.40647">
        <ele>1014.2</ele>
        <time>2022-06-09T09:08:49Z</time>
      </trkpt>
      <trkpt lat="44.77566" lon="4.40641">
        <ele>1014.4</ele>
        <time>2022-06-09T09:08:50Z</time>
      </trkpt>
      <trkpt lat="44.77568" lon="4.40636">
        <ele>1014.6</ele>
        <time>2022-06-09T09:08:52Z</time>
      </trkpt>
      <trkpt lat="44.77569" lon="4.40635">
        <ele>1014.7</ele>
        <time>2022-06-09T09:08:53Z</time>
      </trkpt>
      <trkpt lat="44.77571" lon="4.40631">
        <ele>1014.9</ele>
        <time>2022-06-09T09:08:54Z</time>
      </trkpt>
      <trkpt lat="44.77571" lon="4.40629">
        <ele>1015</ele>
        <time>2022-06-09T09:08:55Z</time>
      </trkpt>
      <trkpt lat="44.77573" lon="4.40626">
        <ele>1015.2</ele>
        <time>2022-06-09T09:08:56Z</time>
      </trkpt>
      <trkpt lat="44.77575" lon="4.40623">
        <ele>1015.4</ele>
        <time>2022-06-09T09:08:57Z</time>
      </trkpt>
      <trkpt lat="44.77578" lon="4.4062">
        <ele>1015.6</ele>
        <time>2022-06-09T09:08:58Z</time>
      </trkpt>
      <trkpt lat="44.77582" lon="4.40615">
        <ele>1015.9</ele>
        <time>2022-06-09T09:09:00Z</time>
      </trkpt>
      <trkpt lat="44.77583" lon="4.40614">
        <ele>1016</ele>
        <time>2022-06-09T09:09:01Z</time>
      </trkpt>
      <trkpt lat="44.77585" lon="4.40612">
        <ele>1016.1</ele>
        <time>2022-06-09T09:09:02Z</time>
      </trkpt>
      <trkpt lat="44.77588" lon="4.4061">
        <ele>1016.4</ele>
        <time>2022-06-09T09:09:04Z</time>
      </trkpt>
      <trkpt lat="44.77591" lon="4.40609">
        <ele>1016.5</ele>
        <time>2022-06-09T09:09:05Z</time>
      </trkpt>
      <trkpt lat="44.77594" lon="4.40606">
        <ele>1016.8</ele>
        <time>2022-06-09T09:09:06Z</time>
      </trkpt>
      <trkpt lat="44.77597" lon="4.40604">
        <ele>1017</ele>
        <time>2022-06-09T09:09:08Z</time>
      </trkpt>
      <trkpt lat="44.77599" lon="4.40603">
        <ele>1017.1</ele>
        <time>2022-06-09T09:09:09Z</time>
      </trkpt>
      <trkpt lat="44.77601" lon="4.40602">
        <ele>1017.2</ele>
        <time>2022-06-09T09:09:10Z</time>
      </trkpt>
      <trkpt lat="44.77604" lon="4.40601">
        <ele>1017.4</ele>
        <time>2022-06-09T09:09:12Z</time>
      </trkpt>
      <trkpt lat="44.77607" lon="4.40599">
        <ele>1017.6</ele>
        <time>2022-06-09T09:09:13Z</time>
      </trkpt>
      <trkpt lat="44.77609" lon="4.40597">
        <ele>1017.7</ele>
        <time>2022-06-09T09:09:14Z</time>
      </trkpt>
      <trkpt lat="44.77612" lon="4.40596">
        <ele>1017.8</ele>
        <time>2022-06-09T09:09:15Z</time>
      </trkpt>
      <trkpt lat="44.77615" lon="4.40596">
        <ele>1017.9</ele>
        <time>2022-06-09T09:09:16Z</time>
      </trkpt>
      <trkpt lat="44.77617" lon="4.40596">
        <ele>1018</ele>
        <time>2022-06-09T09:09:17Z</time>
      </trkpt>
      <trkpt lat="44.7762" lon="4.40597">
        <ele>1018.1</ele>
        <time>2022-06-09T09:09:19Z</time>
      </trkpt>
      <trkpt lat="44.77626" lon="4.40599">
        <ele>1018.3</ele>
        <time>2022-06-09T09:09:20Z</time>
      </trkpt>
      <trkpt lat="44.7763" lon="4.40602">
        <ele>1018.4</ele>
        <time>2022-06-09T09:09:22Z</time>
      </trkpt>
      <trkpt lat="44.77631" lon="4.40604">
        <ele>1018.5</ele>
        <time>2022-06-09T09:09:23Z</time>
      </trkpt>
      <trkpt lat="44.77632" lon="4.40605">
        <ele>1018.5</ele>
        <time>2022-06-09T09:09:24Z</time>
      </trkpt>
      <trkpt lat="44.77635" lon="4.40608">
        <ele>1018.6</ele>
        <time>2022-06-09T09:09:25Z</time>
      </trkpt>
      <trkpt lat="44.77636" lon="4.40609">
        <ele>1018.6</ele>
        <time>2022-06-09T09:09:26Z</time>
      </trkpt>
      <trkpt lat="44.77638" lon="4.40614">
        <ele>1018.7</ele>
        <time>2022-06-09T09:09:27Z</time>
      </trkpt>
      <trkpt lat="44.77639" lon="4.40618">
        <ele>1018.8</ele>
        <time>2022-06-09T09:09:29Z</time>
      </trkpt>
      <trkpt lat="44.7764" lon="4.40619">
        <ele>1018.8</ele>
        <time>2022-06-09T09:09:30Z</time>
      </trkpt>
      <trkpt lat="44.77641" lon="4.40624">
        <ele>1018.9</ele>
        <time>2022-06-09T09:09:31Z</time>
      </trkpt>
      <trkpt lat="44.77642" lon="4.40626">
        <ele>1018.9</ele>
        <time>2022-06-09T09:09:32Z</time>
      </trkpt>
      <trkpt lat="44.77644" lon="4.40631">
        <ele>1019</ele>
        <time>2022-06-09T09:09:34Z</time>
      </trkpt>
      <trkpt lat="44.77645" lon="4.40633">
        <ele>1019</ele>
        <time>2022-06-09T09:09:35Z</time>
      </trkpt>
      <trkpt lat="44.77646" lon="4.40637">
        <ele>1019.1</ele>
        <time>2022-06-09T09:09:37Z</time>
      </trkpt>
      <trkpt lat="44.77647" lon="4.40638">
        <ele>1019.1</ele>
        <time>2022-06-09T09:09:38Z</time>
      </trkpt>
      <trkpt lat="44.77648" lon="4.40642">
        <ele>1019.2</ele>
        <time>2022-06-09T09:09:39Z</time>
      </trkpt>
      <trkpt lat="44.77648" lon="4.40643">
        <ele>1019.2</ele>
        <time>2022-06-09T09:09:40Z</time>
      </trkpt>
      <trkpt lat="44.7765" lon="4.40646">
        <ele>1019.3</ele>
        <time>2022-06-09T09:09:41Z</time>
      </trkpt>
      <trkpt lat="44.77651" lon="4.40647">
        <ele>1019.3</ele>
        <time>2022-06-09T09:09:42Z</time>
      </trkpt>
      <trkpt lat="44.77653" lon="4.40651">
        <ele>1019.4</ele>
        <time>2022-06-09T09:09:43Z</time>
      </trkpt>
      <trkpt lat="44.77654" lon="4.40654">
        <ele>1019.4</ele>
        <time>2022-06-09T09:09:44Z</time>
      </trkpt>
      <trkpt lat="44.77655" lon="4.40656">
        <ele>1019.5</ele>
        <time>2022-06-09T09:09:46Z</time>
      </trkpt>
      <trkpt lat="44.77657" lon="4.40659">
        <ele>1019.6</ele>
        <time>2022-06-09T09:09:47Z</time>
      </trkpt>
      <trkpt lat="44.77659" lon="4.40663">
        <ele>1019.7</ele>
        <time>2022-06-09T09:09:48Z</time>
      </trkpt>
      <trkpt lat="44.7766" lon="4.40665">
        <ele>1019.7</ele>
        <time>2022-06-09T09:09:49Z</time>
      </trkpt>
      <trkpt lat="44.77662" lon="4.40667">
        <ele>1019.8</ele>
        <time>2022-06-09T09:09:50Z</time>
      </trkpt>
      <trkpt lat="44.77665" lon="4.4067">
        <ele>1020</ele>
        <time>2022-06-09T09:09:52Z</time>
      </trkpt>
      <trkpt lat="44.77666" lon="4.40672">
        <ele>1020</ele>
        <time>2022-06-09T09:09:53Z</time>
      </trkpt>
      <trkpt lat="44.77668" lon="4.40674">
        <ele>1020.1</ele>
        <time>2022-06-09T09:09:54Z</time>
      </trkpt>
      <trkpt lat="44.77671" lon="4.40677">
        <ele>1020.2</ele>
        <time>2022-06-09T09:09:56Z</time>
      </trkpt>
      <trkpt lat="44.77672" lon="4.40678">
        <ele>1020.3</ele>
        <time>2022-06-09T09:09:57Z</time>
      </trkpt>
      <trkpt lat="44.77675" lon="4.40682">
        <ele>1020.4</ele>
        <time>2022-06-09T09:09:58Z</time>
      </trkpt>
      <trkpt lat="44.77678" lon="4.40686">
        <ele>1020.6</ele>
        <time>2022-06-09T09:10:00Z</time>
      </trkpt>
      <trkpt lat="44.77679" lon="4.40688">
        <ele>1020.6</ele>
        <time>2022-06-09T09:10:01Z</time>
      </trkpt>
      <trkpt lat="44.77682" lon="4.40692">
        <ele>1020.8</ele>
        <time>2022-06-09T09:10:02Z</time>
      </trkpt>
      <trkpt lat="44.77683" lon="4.40693">
        <ele>1020.8</ele>
        <time>2022-06-09T09:10:03Z</time>
      </trkpt>
      <trkpt lat="44.77686" lon="4.40697">
        <ele>1021</ele>
        <time>2022-06-09T09:10:05Z</time>
      </trkpt>
      <trkpt lat="44.77687" lon="4.40698">
        <ele>1021</ele>
        <time>2022-06-09T09:10:06Z</time>
      </trkpt>
      <trkpt lat="44.77689" lon="4.40701">
        <ele>1021.2</ele>
        <time>2022-06-09T09:10:07Z</time>
      </trkpt>
      <trkpt lat="44.7769" lon="4.40703">
        <ele>1021.2</ele>
        <time>2022-06-09T09:10:08Z</time>
      </trkpt>
      <trkpt lat="44.77693" lon="4.40706">
        <ele>1021.4</ele>
        <time>2022-06-09T09:10:10Z</time>
      </trkpt>
      <trkpt lat="44.77694" lon="4.40707">
        <ele>1021.4</ele>
        <time>2022-06-09T09:10:11Z</time>
      </trkpt>
      <trkpt lat="44.77698" lon="4.40715">
        <ele>1021.7</ele>
        <time>2022-06-09T09:10:13Z</time>
      </trkpt>
      <trkpt lat="44.77702" lon="4.40719">
        <ele>1021.8</ele>
        <time>2022-06-09T09:10:15Z</time>
      </trkpt>
      <trkpt lat="44.77703" lon="4.40721">
        <ele>1021.9</ele>
        <time>2022-06-09T09:10:17Z</time>
      </trkpt>
      <trkpt lat="44.77705" lon="4.40724">
        <ele>1022</ele>
        <time>2022-06-09T09:10:18Z</time>
      </trkpt>
      <trkpt lat="44.77706" lon="4.40725">
        <ele>1022.1</ele>
        <time>2022-06-09T09:10:19Z</time>
      </trkpt>
      <trkpt lat="44.77708" lon="4.40729">
        <ele>1022.2</ele>
        <time>2022-06-09T09:10:20Z</time>
      </trkpt>
      <trkpt lat="44.77709" lon="4.4073">
        <ele>1022.2</ele>
        <time>2022-06-09T09:10:21Z</time>
      </trkpt>
      <trkpt lat="44.7771" lon="4.40734">
        <ele>1022.4</ele>
        <time>2022-06-09T09:10:22Z</time>
      </trkpt>
      <trkpt lat="44.77711" lon="4.40735">
        <ele>1022.4</ele>
        <time>2022-06-09T09:10:23Z</time>
      </trkpt>
      <trkpt lat="44.77713" lon="4.4074">
        <ele>1022.5</ele>
        <time>2022-06-09T09:10:24Z</time>
      </trkpt>
      <trkpt lat="44.77714" lon="4.40742">
        <ele>1022.6</ele>
        <time>2022-06-09T09:10:25Z</time>
      </trkpt>
      <trkpt lat="44.77715" lon="4.40746">
        <ele>1022.7</ele>
        <time>2022-06-09T09:10:27Z</time>
      </trkpt>
      <trkpt lat="44.77716" lon="4.40751">
        <ele>1022.9</ele>
        <time>2022-06-09T09:10:28Z</time>
      </trkpt>
      <trkpt lat="44.77717" lon="4.40758">
        <ele>1023</ele>
        <time>2022-06-09T09:10:30Z</time>
      </trkpt>
      <trkpt lat="44.77718" lon="4.40761">
        <ele>1023.1</ele>
        <time>2022-06-09T09:10:31Z</time>
      </trkpt>
      <trkpt lat="44.77719" lon="4.40766">
        <ele>1023.3</ele>
        <time>2022-06-09T09:10:33Z</time>
      </trkpt>
      <trkpt lat="44.7772" lon="4.4077">
        <ele>1023.4</ele>
        <time>2022-06-09T09:10:34Z</time>
      </trkpt>
      <trkpt lat="44.77721" lon="4.40772">
        <ele>1023.4</ele>
        <time>2022-06-09T09:10:35Z</time>
      </trkpt>
      <trkpt lat="44.77722" lon="4.40777">
        <ele>1023.6</ele>
        <time>2022-06-09T09:10:36Z</time>
      </trkpt>
      <trkpt lat="44.77723" lon="4.40779">
        <ele>1023.7</ele>
        <time>2022-06-09T09:10:37Z</time>
      </trkpt>
      <trkpt lat="44.77723" lon="4.40783">
        <ele>1023.8</ele>
        <time>2022-06-09T09:10:39Z</time>
      </trkpt>
      <trkpt lat="44.77724" lon="4.40787">
        <ele>1023.9</ele>
        <time>2022-06-09T09:10:40Z</time>
      </trkpt>
      <trkpt lat="44.77724" lon="4.40788">
        <ele>1023.9</ele>
        <time>2022-06-09T09:10:41Z</time>
      </trkpt>
      <trkpt lat="44.77726" lon="4.40793">
        <ele>1024</ele>
        <time>2022-06-09T09:10:42Z</time>
      </trkpt>
      <trkpt lat="44.77727" lon="4.40797">
        <ele>1024.2</ele>
        <time>2022-06-09T09:10:44Z</time>
      </trkpt>
      <trkpt lat="44.77728" lon="4.40798">
        <ele>1024.2</ele>
        <time>2022-06-09T09:10:45Z</time>
      </trkpt>
      <trkpt lat="44.77728" lon="4.40803">
        <ele>1024.3</ele>
        <time>2022-06-09T09:10:46Z</time>
      </trkpt>
      <trkpt lat="44.77731" lon="4.40808">
        <ele>1024.5</ele>
        <time>2022-06-09T09:10:48Z</time>
      </trkpt>
      <trkpt lat="44.77733" lon="4.40812">
        <ele>1024.6</ele>
        <time>2022-06-09T09:10:50Z</time>
      </trkpt>
      <trkpt lat="44.77734" lon="4.40815">
        <ele>1024.7</ele>
        <time>2022-06-09T09:10:51Z</time>
      </trkpt>
      <trkpt lat="44.77735" lon="4.40818">
        <ele>1024.8</ele>
        <time>2022-06-09T09:10:52Z</time>
      </trkpt>
      <trkpt lat="44.77736" lon="4.4082">
        <ele>1024.9</ele>
        <time>2022-06-09T09:10:54Z</time>
      </trkpt>
      <trkpt lat="44.77739" lon="4.40824">
        <ele>1025</ele>
        <time>2022-06-09T09:10:55Z</time>
      </trkpt>
      <trkpt lat="44.77741" lon="4.40828">
        <ele>1025.2</ele>
        <time>2022-06-09T09:10:56Z</time>
      </trkpt>
      <trkpt lat="44.77741" lon="4.40829">
        <ele>1025.2</ele>
        <time>2022-06-09T09:10:57Z</time>
      </trkpt>
      <trkpt lat="44.77744" lon="4.40834">
        <ele>1025.4</ele>
        <time>2022-06-09T09:10:59Z</time>
      </trkpt>
      <trkpt lat="44.77745" lon="4.40837">
        <ele>1025.4</ele>
        <time>2022-06-09T09:11:00Z</time>
      </trkpt>
      <trkpt lat="44.77746" lon="4.40839">
        <ele>1025.5</ele>
        <time>2022-06-09T09:11:01Z</time>
      </trkpt>
      <trkpt lat="44.77749" lon="4.40843">
        <ele>1025.7</ele>
        <time>2022-06-09T09:11:03Z</time>
      </trkpt>
      <trkpt lat="44.7775" lon="4.40845">
        <ele>1025.7</ele>
        <time>2022-06-09T09:11:04Z</time>
      </trkpt>
      <trkpt lat="44.77751" lon="4.40846">
        <ele>1025.8</ele>
        <time>2022-06-09T09:11:05Z</time>
      </trkpt>
      <trkpt lat="44.77753" lon="4.4085">
        <ele>1025.9</ele>
        <time>2022-06-09T09:11:07Z</time>
      </trkpt>
      <trkpt lat="44.77754" lon="4.40851">
        <ele>1025.9</ele>
        <time>2022-06-09T09:11:08Z</time>
      </trkpt>
      <trkpt lat="44.77755" lon="4.40854">
        <ele>1026.1</ele>
        <time>2022-06-09T09:11:09Z</time>
      </trkpt>
      <trkpt lat="44.77756" lon="4.40857">
        <ele>1026.1</ele>
        <time>2022-06-09T09:11:11Z</time>
      </trkpt>
      <trkpt lat="44.77757" lon="4.40858">
        <ele>1026.2</ele>
        <time>2022-06-09T09:11:12Z</time>
      </trkpt>
      <trkpt lat="44.77758" lon="4.40859">
        <ele>1026.2</ele>
        <time>2022-06-09T09:11:13Z</time>
      </trkpt>
      <trkpt lat="44.77759" lon="4.40861">
        <ele>1026.3</ele>
        <time>2022-06-09T09:11:14Z</time>
      </trkpt>
      <trkpt lat="44.77761" lon="4.40864">
        <ele>1026.4</ele>
        <time>2022-06-09T09:11:15Z</time>
      </trkpt>
      <trkpt lat="44.77761" lon="4.40865">
        <ele>1026.4</ele>
        <time>2022-06-09T09:11:16Z</time>
      </trkpt>
      <trkpt lat="44.77762" lon="4.40867">
        <ele>1026.5</ele>
        <time>2022-06-09T09:11:17Z</time>
      </trkpt>
      <trkpt lat="44.77764" lon="4.4087">
        <ele>1026.6</ele>
        <time>2022-06-09T09:11:18Z</time>
      </trkpt>
      <trkpt lat="44.77765" lon="4.40873">
        <ele>1026.7</ele>
        <time>2022-06-09T09:11:20Z</time>
      </trkpt>
      <trkpt lat="44.77767" lon="4.40876">
        <ele>1026.8</ele>
        <time>2022-06-09T09:11:21Z</time>
      </trkpt>
      <trkpt lat="44.7777" lon="4.40879">
        <ele>1027</ele>
        <time>2022-06-09T09:11:23Z</time>
      </trkpt>
      <trkpt lat="44.7777" lon="4.4088">
        <ele>1027</ele>
        <time>2022-06-09T09:11:24Z</time>
      </trkpt>
      <trkpt lat="44.77773" lon="4.40883">
        <ele>1027.1</ele>
        <time>2022-06-09T09:11:25Z</time>
      </trkpt>
      <trkpt lat="44.77774" lon="4.40883">
        <ele>1027.2</ele>
        <time>2022-06-09T09:11:26Z</time>
      </trkpt>
      <trkpt lat="44.77777" lon="4.40886">
        <ele>1027.3</ele>
        <time>2022-06-09T09:11:27Z</time>
      </trkpt>
      <trkpt lat="44.77778" lon="4.40886">
        <ele>1027.4</ele>
        <time>2022-06-09T09:11:28Z</time>
      </trkpt>
      <trkpt lat="44.77781" lon="4.40889">
        <ele>1027.5</ele>
        <time>2022-06-09T09:11:29Z</time>
      </trkpt>
      <trkpt lat="44.77782" lon="4.4089">
        <ele>1027.6</ele>
        <time>2022-06-09T09:11:30Z</time>
      </trkpt>
      <trkpt lat="44.77785" lon="4.40893">
        <ele>1027.7</ele>
        <time>2022-06-09T09:11:31Z</time>
      </trkpt>
      <trkpt lat="44.77785" lon="4.40894">
        <ele>1027.7</ele>
        <time>2022-06-09T09:11:32Z</time>
      </trkpt>
      <trkpt lat="44.77788" lon="4.40896">
        <ele>1027.9</ele>
        <time>2022-06-09T09:11:33Z</time>
      </trkpt>
      <trkpt lat="44.77789" lon="4.40897">
        <ele>1027.9</ele>
        <time>2022-06-09T09:11:34Z</time>
      </trkpt>
      <trkpt lat="44.77792" lon="4.40898">
        <ele>1028</ele>
        <time>2022-06-09T09:11:35Z</time>
      </trkpt>
      <trkpt lat="44.77793" lon="4.40899">
        <ele>1028.1</ele>
        <time>2022-06-09T09:11:36Z</time>
      </trkpt>
      <trkpt lat="44.77795" lon="4.40901">
        <ele>1028.2</ele>
        <time>2022-06-09T09:11:37Z</time>
      </trkpt>
      <trkpt lat="44.77796" lon="4.40902">
        <ele>1028.2</ele>
        <time>2022-06-09T09:11:38Z</time>
      </trkpt>
      <trkpt lat="44.77799" lon="4.40904">
        <ele>1028.3</ele>
        <time>2022-06-09T09:11:39Z</time>
      </trkpt>
      <trkpt lat="44.77801" lon="4.40905">
        <ele>1028.4</ele>
        <time>2022-06-09T09:11:40Z</time>
      </trkpt>
      <trkpt lat="44.77805" lon="4.40908">
        <ele>1028.5</ele>
        <time>2022-06-09T09:11:42Z</time>
      </trkpt>
      <trkpt lat="44.77807" lon="4.40908">
        <ele>1028.6</ele>
        <time>2022-06-09T09:11:43Z</time>
      </trkpt>
      <trkpt lat="44.77809" lon="4.40909">
        <ele>1028.7</ele>
        <time>2022-06-09T09:11:44Z</time>
      </trkpt>
      <trkpt lat="44.77811" lon="4.40911">
        <ele>1028.7</ele>
        <time>2022-06-09T09:11:45Z</time>
      </trkpt>
      <trkpt lat="44.77814" lon="4.40912">
        <ele>1028.8</ele>
        <time>2022-06-09T09:11:47Z</time>
      </trkpt>
      <trkpt lat="44.77818" lon="4.40914">
        <ele>1029</ele>
        <time>2022-06-09T09:11:48Z</time>
      </trkpt>
      <trkpt lat="44.77819" lon="4.40914">
        <ele>1029</ele>
        <time>2022-06-09T09:11:49Z</time>
      </trkpt>
      <trkpt lat="44.77823" lon="4.40916">
        <ele>1029.2</ele>
        <time>2022-06-09T09:11:50Z</time>
      </trkpt>
      <trkpt lat="44.77824" lon="4.40916">
        <ele>1029.2</ele>
        <time>2022-06-09T09:11:51Z</time>
      </trkpt>
      <trkpt lat="44.77828" lon="4.40917">
        <ele>1029.3</ele>
        <time>2022-06-09T09:11:53Z</time>
      </trkpt>
      <trkpt lat="44.7783" lon="4.40917">
        <ele>1029.4</ele>
        <time>2022-06-09T09:11:54Z</time>
      </trkpt>
      <trkpt lat="44.77834" lon="4.40919">
        <ele>1029.6</ele>
        <time>2022-06-09T09:11:56Z</time>
      </trkpt>
      <trkpt lat="44.77835" lon="4.40919">
        <ele>1029.6</ele>
        <time>2022-06-09T09:11:57Z</time>
      </trkpt>
      <trkpt lat="44.77836" lon="4.4092">
        <ele>1029.6</ele>
        <time>2022-06-09T09:11:58Z</time>
      </trkpt>
      <trkpt lat="44.7784" lon="4.4092">
        <ele>1029.8</ele>
        <time>2022-06-09T09:11:59Z</time>
      </trkpt>
      <trkpt lat="44.77841" lon="4.40921">
        <ele>1029.8</ele>
        <time>2022-06-09T09:12:00Z</time>
      </trkpt>
      <trkpt lat="44.77844" lon="4.40923">
        <ele>1030</ele>
        <time>2022-06-09T09:12:01Z</time>
      </trkpt>
      <trkpt lat="44.77846" lon="4.40924">
        <ele>1030</ele>
        <time>2022-06-09T09:12:02Z</time>
      </trkpt>
      <trkpt lat="44.77848" lon="4.40925">
        <ele>1030.1</ele>
        <time>2022-06-09T09:12:03Z</time>
      </trkpt>
      <trkpt lat="44.77851" lon="4.40925">
        <ele>1030.2</ele>
        <time>2022-06-09T09:12:05Z</time>
      </trkpt>
      <trkpt lat="44.77854" lon="4.40927">
        <ele>1030.4</ele>
        <time>2022-06-09T09:12:06Z</time>
      </trkpt>
      <trkpt lat="44.77855" lon="4.40927">
        <ele>1030.4</ele>
        <time>2022-06-09T09:12:07Z</time>
      </trkpt>
      <trkpt lat="44.77858" lon="4.40927">
        <ele>1030.5</ele>
        <time>2022-06-09T09:12:08Z</time>
      </trkpt>
      <trkpt lat="44.77859" lon="4.40927">
        <ele>1030.6</ele>
        <time>2022-06-09T09:12:09Z</time>
      </trkpt>
      <trkpt lat="44.77862" lon="4.40928">
        <ele>1030.7</ele>
        <time>2022-06-09T09:12:10Z</time>
      </trkpt>
      <trkpt lat="44.77862" lon="4.40928">
        <ele>1030.7</ele>
        <time>2022-06-09T09:12:11Z</time>
      </trkpt>
      <trkpt lat="44.77864" lon="4.40928">
        <ele>1030.8</ele>
        <time>2022-06-09T09:12:12Z</time>
      </trkpt>
      <trkpt lat="44.77866" lon="4.40928">
        <ele>1030.9</ele>
        <time>2022-06-09T09:12:13Z</time>
      </trkpt>
      <trkpt lat="44.77869" lon="4.40928">
        <ele>1031</ele>
        <time>2022-06-09T09:12:14Z</time>
      </trkpt>
      <trkpt lat="44.7787" lon="4.40928">
        <ele>1031</ele>
        <time>2022-06-09T09:12:15Z</time>
      </trkpt>
      <trkpt lat="44.77871" lon="4.40929">
        <ele>1031.1</ele>
        <time>2022-06-09T09:12:16Z</time>
      </trkpt>
      <trkpt lat="44.77873" lon="4.40928">
        <ele>1031.2</ele>
        <time>2022-06-09T09:12:17Z</time>
      </trkpt>
      <trkpt lat="44.77877" lon="4.40929">
        <ele>1031.4</ele>
        <time>2022-06-09T09:12:18Z</time>
      </trkpt>
      <trkpt lat="44.77881" lon="4.40928">
        <ele>1031.5</ele>
        <time>2022-06-09T09:12:20Z</time>
      </trkpt>
      <trkpt lat="44.77883" lon="4.40929">
        <ele>1031.6</ele>
        <time>2022-06-09T09:12:22Z</time>
      </trkpt>
      <trkpt lat="44.77886" lon="4.40929">
        <ele>1031.7</ele>
        <time>2022-06-09T09:12:23Z</time>
      </trkpt>
      <trkpt lat="44.77889" lon="4.40929">
        <ele>1031.8</ele>
        <time>2022-06-09T09:12:24Z</time>
      </trkpt>
      <trkpt lat="44.77891" lon="4.4093">
        <ele>1031.9</ele>
        <time>2022-06-09T09:12:26Z</time>
      </trkpt>
      <trkpt lat="44.77894" lon="4.4093">
        <ele>1032</ele>
        <time>2022-06-09T09:12:27Z</time>
      </trkpt>
      <trkpt lat="44.77897" lon="4.4093">
        <ele>1032.2</ele>
        <time>2022-06-09T09:12:28Z</time>
      </trkpt>
      <trkpt lat="44.77898" lon="4.4093">
        <ele>1032.2</ele>
        <time>2022-06-09T09:12:29Z</time>
      </trkpt>
      <trkpt lat="44.779" lon="4.4093">
        <ele>1032.3</ele>
        <time>2022-06-09T09:12:31Z</time>
      </trkpt>
      <trkpt lat="44.77904" lon="4.40931">
        <ele>1032.4</ele>
        <time>2022-06-09T09:12:33Z</time>
      </trkpt>
      <trkpt lat="44.77906" lon="4.4093">
        <ele>1032.5</ele>
        <time>2022-06-09T09:12:34Z</time>
      </trkpt>
      <trkpt lat="44.77907" lon="4.40929">
        <ele>1032.6</ele>
        <time>2022-06-09T09:12:35Z</time>
      </trkpt>
      <trkpt lat="44.7791" lon="4.40928">
        <ele>1032.7</ele>
        <time>2022-06-09T09:12:36Z</time>
      </trkpt>
      <trkpt lat="44.77914" lon="4.40928">
        <ele>1032.8</ele>
        <time>2022-06-09T09:12:37Z</time>
      </trkpt>
      <trkpt lat="44.77915" lon="4.40928">
        <ele>1032.9</ele>
        <time>2022-06-09T09:12:38Z</time>
      </trkpt>
      <trkpt lat="44.7792" lon="4.40926">
        <ele>1033</ele>
        <time>2022-06-09T09:12:40Z</time>
      </trkpt>
      <trkpt lat="44.77924" lon="4.40925">
        <ele>1033.2</ele>
        <time>2022-06-09T09:12:42Z</time>
      </trkpt>
      <trkpt lat="44.77925" lon="4.40925">
        <ele>1033.2</ele>
        <time>2022-06-09T09:12:43Z</time>
      </trkpt>
      <trkpt lat="44.77928" lon="4.40924">
        <ele>1033.3</ele>
        <time>2022-06-09T09:12:45Z</time>
      </trkpt>
      <trkpt lat="44.77929" lon="4.40924">
        <ele>1033.4</ele>
        <time>2022-06-09T09:12:46Z</time>
      </trkpt>
      <trkpt lat="44.77932" lon="4.40923">
        <ele>1033.5</ele>
        <time>2022-06-09T09:12:47Z</time>
      </trkpt>
      <trkpt lat="44.77933" lon="4.40922">
        <ele>1033.5</ele>
        <time>2022-06-09T09:12:48Z</time>
      </trkpt>
      <trkpt lat="44.77936" lon="4.4092">
        <ele>1033.7</ele>
        <time>2022-06-09T09:12:49Z</time>
      </trkpt>
      <trkpt lat="44.77938" lon="4.40919">
        <ele>1033.8</ele>
        <time>2022-06-09T09:12:50Z</time>
      </trkpt>
      <trkpt lat="44.7794" lon="4.40917">
        <ele>1033.9</ele>
        <time>2022-06-09T09:12:52Z</time>
      </trkpt>
      <trkpt lat="44.77943" lon="4.40915">
        <ele>1034</ele>
        <time>2022-06-09T09:12:53Z</time>
      </trkpt>
      <trkpt lat="44.77946" lon="4.40914">
        <ele>1034.1</ele>
        <time>2022-06-09T09:12:54Z</time>
      </trkpt>
      <trkpt lat="44.77949" lon="4.40913">
        <ele>1034.2</ele>
        <time>2022-06-09T09:12:56Z</time>
      </trkpt>
      <trkpt lat="44.77952" lon="4.40911">
        <ele>1034.3</ele>
        <time>2022-06-09T09:12:57Z</time>
      </trkpt>
      <trkpt lat="44.77954" lon="4.40909">
        <ele>1034.4</ele>
        <time>2022-06-09T09:12:58Z</time>
      </trkpt>
      <trkpt lat="44.77956" lon="4.40907">
        <ele>1034.6</ele>
        <time>2022-06-09T09:13:00Z</time>
      </trkpt>
      <trkpt lat="44.77959" lon="4.40906">
        <ele>1034.7</ele>
        <time>2022-06-09T09:13:01Z</time>
      </trkpt>
      <trkpt lat="44.7796" lon="4.40905">
        <ele>1034.7</ele>
        <time>2022-06-09T09:13:02Z</time>
      </trkpt>
      <trkpt lat="44.77963" lon="4.40902">
        <ele>1034.9</ele>
        <time>2022-06-09T09:13:04Z</time>
      </trkpt>
      <trkpt lat="44.77964" lon="4.40901">
        <ele>1034.9</ele>
        <time>2022-06-09T09:13:05Z</time>
      </trkpt>
      <trkpt lat="44.77968" lon="4.40899">
        <ele>1035.1</ele>
        <time>2022-06-09T09:13:06Z</time>
      </trkpt>
      <trkpt lat="44.77969" lon="4.40898">
        <ele>1035.2</ele>
        <time>2022-06-09T09:13:07Z</time>
      </trkpt>
      <trkpt lat="44.77972" lon="4.40894">
        <ele>1035.3</ele>
        <time>2022-06-09T09:13:08Z</time>
      </trkpt>
      <trkpt lat="44.77973" lon="4.40893">
        <ele>1035.4</ele>
        <time>2022-06-09T09:13:09Z</time>
      </trkpt>
      <trkpt lat="44.77975" lon="4.40891">
        <ele>1035.5</ele>
        <time>2022-06-09T09:13:10Z</time>
      </trkpt>
      <trkpt lat="44.77976" lon="4.4089">
        <ele>1035.5</ele>
        <time>2022-06-09T09:13:11Z</time>
      </trkpt>
      <trkpt lat="44.77979" lon="4.40888">
        <ele>1035.7</ele>
        <time>2022-06-09T09:13:12Z</time>
      </trkpt>
      <trkpt lat="44.7798" lon="4.40887">
        <ele>1035.7</ele>
        <time>2022-06-09T09:13:13Z</time>
      </trkpt>
      <trkpt lat="44.77983" lon="4.40883">
        <ele>1035.8</ele>
        <time>2022-06-09T09:13:14Z</time>
      </trkpt>
      <trkpt lat="44.77983" lon="4.40883">
        <ele>1035.9</ele>
        <time>2022-06-09T09:13:15Z</time>
      </trkpt>
      <trkpt lat="44.77986" lon="4.4088">
        <ele>1036</ele>
        <time>2022-06-09T09:13:16Z</time>
      </trkpt>
      <trkpt lat="44.77987" lon="4.40879">
        <ele>1036</ele>
        <time>2022-06-09T09:13:17Z</time>
      </trkpt>
      <trkpt lat="44.77989" lon="4.40875">
        <ele>1036.2</ele>
        <time>2022-06-09T09:13:18Z</time>
      </trkpt>
      <trkpt lat="44.7799" lon="4.40874">
        <ele>1036.3</ele>
        <time>2022-06-09T09:13:19Z</time>
      </trkpt>
      <trkpt lat="44.77992" lon="4.40869">
        <ele>1036.5</ele>
        <time>2022-06-09T09:13:20Z</time>
      </trkpt>
      <trkpt lat="44.77994" lon="4.40866">
        <ele>1036.6</ele>
        <time>2022-06-09T09:13:22Z</time>
      </trkpt>
      <trkpt lat="44.77995" lon="4.40864">
        <ele>1036.7</ele>
        <time>2022-06-09T09:13:23Z</time>
      </trkpt>
      <trkpt lat="44.77998" lon="4.40861">
        <ele>1036.8</ele>
        <time>2022-06-09T09:13:24Z</time>
      </trkpt>
      <trkpt lat="44.77999" lon="4.40859">
        <ele>1036.9</ele>
        <time>2022-06-09T09:13:25Z</time>
      </trkpt>
      <trkpt lat="44.78001" lon="4.40856">
        <ele>1037</ele>
        <time>2022-06-09T09:13:27Z</time>
      </trkpt>
      <trkpt lat="44.78003" lon="4.40853">
        <ele>1037.1</ele>
        <time>2022-06-09T09:13:28Z</time>
      </trkpt>
      <trkpt lat="44.78005" lon="4.40848">
        <ele>1037.3</ele>
        <time>2022-06-09T09:13:29Z</time>
      </trkpt>
      <trkpt lat="44.78006" lon="4.40847">
        <ele>1037.4</ele>
        <time>2022-06-09T09:13:30Z</time>
      </trkpt>
      <trkpt lat="44.78008" lon="4.40843">
        <ele>1037.5</ele>
        <time>2022-06-09T09:13:32Z</time>
      </trkpt>
      <trkpt lat="44.7801" lon="4.40839">
        <ele>1037.6</ele>
        <time>2022-06-09T09:13:33Z</time>
      </trkpt>
      <trkpt lat="44.78012" lon="4.40834">
        <ele>1037.8</ele>
        <time>2022-06-09T09:13:34Z</time>
      </trkpt>
      <trkpt lat="44.78013" lon="4.40832">
        <ele>1037.8</ele>
        <time>2022-06-09T09:13:35Z</time>
      </trkpt>
      <trkpt lat="44.78015" lon="4.40827">
        <ele>1038</ele>
        <time>2022-06-09T09:13:37Z</time>
      </trkpt>
      <trkpt lat="44.78016" lon="4.40825">
        <ele>1038.1</ele>
        <time>2022-06-09T09:13:38Z</time>
      </trkpt>
      <trkpt lat="44.78016" lon="4.40823">
        <ele>1038.1</ele>
        <time>2022-06-09T09:13:39Z</time>
      </trkpt>
      <trkpt lat="44.78019" lon="4.40818">
        <ele>1038.3</ele>
        <time>2022-06-09T09:13:40Z</time>
      </trkpt>
      <trkpt lat="44.7802" lon="4.40815">
        <ele>1038.4</ele>
        <time>2022-06-09T09:13:41Z</time>
      </trkpt>
      <trkpt lat="44.78022" lon="4.40808">
        <ele>1038.6</ele>
        <time>2022-06-09T09:13:43Z</time>
      </trkpt>
      <trkpt lat="44.78023" lon="4.40805">
        <ele>1038.7</ele>
        <time>2022-06-09T09:13:44Z</time>
      </trkpt>
      <trkpt lat="44.78024" lon="4.40803">
        <ele>1038.8</ele>
        <time>2022-06-09T09:13:45Z</time>
      </trkpt>
      <trkpt lat="44.78026" lon="4.40798">
        <ele>1038.9</ele>
        <time>2022-06-09T09:13:47Z</time>
      </trkpt>
      <trkpt lat="44.78027" lon="4.40796">
        <ele>1039</ele>
        <time>2022-06-09T09:13:48Z</time>
      </trkpt>
      <trkpt lat="44.78027" lon="4.40794">
        <ele>1039</ele>
        <time>2022-06-09T09:13:49Z</time>
      </trkpt>
      <trkpt lat="44.7803" lon="4.40789">
        <ele>1039.2</ele>
        <time>2022-06-09T09:13:50Z</time>
      </trkpt>
      <trkpt lat="44.78031" lon="4.40785">
        <ele>1039.3</ele>
        <time>2022-06-09T09:13:52Z</time>
      </trkpt>
      <trkpt lat="44.78031" lon="4.40784">
        <ele>1039.3</ele>
        <time>2022-06-09T09:13:53Z</time>
      </trkpt>
      <trkpt lat="44.78033" lon="4.40779">
        <ele>1039.4</ele>
        <time>2022-06-09T09:13:54Z</time>
      </trkpt>
      <trkpt lat="44.78034" lon="4.40776">
        <ele>1039.5</ele>
        <time>2022-06-09T09:13:55Z</time>
      </trkpt>
      <trkpt lat="44.78034" lon="4.40773">
        <ele>1039.6</ele>
        <time>2022-06-09T09:13:57Z</time>
      </trkpt>
      <trkpt lat="44.78035" lon="4.40768">
        <ele>1039.7</ele>
        <time>2022-06-09T09:13:58Z</time>
      </trkpt>
      <trkpt lat="44.78035" lon="4.40767">
        <ele>1039.7</ele>
        <time>2022-06-09T09:13:59Z</time>
      </trkpt>
      <trkpt lat="44.78035" lon="4.40761">
        <ele>1039.9</ele>
        <time>2022-06-09T09:14:00Z</time>
      </trkpt>
      <trkpt lat="44.78036" lon="4.40758">
        <ele>1039.9</ele>
        <time>2022-06-09T09:14:01Z</time>
      </trkpt>
      <trkpt lat="44.78036" lon="4.40755">
        <ele>1040</ele>
        <time>2022-06-09T09:14:02Z</time>
      </trkpt>
      <trkpt lat="44.78037" lon="4.40751">
        <ele>1040.1</ele>
        <time>2022-06-09T09:14:04Z</time>
      </trkpt>
      <trkpt lat="44.78038" lon="4.40745">
        <ele>1040.3</ele>
        <time>2022-06-09T09:14:05Z</time>
      </trkpt>
      <trkpt lat="44.78038" lon="4.40742">
        <ele>1040.4</ele>
        <time>2022-06-09T09:14:06Z</time>
      </trkpt>
      <trkpt lat="44.78039" lon="4.40739">
        <ele>1040.4</ele>
        <time>2022-06-09T09:14:08Z</time>
      </trkpt>
      <trkpt lat="44.78039" lon="4.40735">
        <ele>1040.6</ele>
        <time>2022-06-09T09:14:09Z</time>
      </trkpt>
      <trkpt lat="44.78039" lon="4.40733">
        <ele>1040.6</ele>
        <time>2022-06-09T09:14:10Z</time>
      </trkpt>
      <trkpt lat="44.78039" lon="4.40729">
        <ele>1040.7</ele>
        <time>2022-06-09T09:14:11Z</time>
      </trkpt>
      <trkpt lat="44.78039" lon="4.40728">
        <ele>1040.8</ele>
        <time>2022-06-09T09:14:12Z</time>
      </trkpt>
      <trkpt lat="44.78039" lon="4.40723">
        <ele>1041</ele>
        <time>2022-06-09T09:14:13Z</time>
      </trkpt>
      <trkpt lat="44.7804" lon="4.40721">
        <ele>1041</ele>
        <time>2022-06-09T09:14:14Z</time>
      </trkpt>
      <trkpt lat="44.78039" lon="4.40715">
        <ele>1041.2</ele>
        <time>2022-06-09T09:14:16Z</time>
      </trkpt>
      <trkpt lat="44.7804" lon="4.40713">
        <ele>1041.3</ele>
        <time>2022-06-09T09:14:17Z</time>
      </trkpt>
      <trkpt lat="44.7804" lon="4.40712">
        <ele>1041.3</ele>
        <time>2022-06-09T09:14:18Z</time>
      </trkpt>
      <trkpt lat="44.7804" lon="4.40709">
        <ele>1041.4</ele>
        <time>2022-06-09T09:14:19Z</time>
      </trkpt>
      <trkpt lat="44.7804" lon="4.40707">
        <ele>1041.5</ele>
        <time>2022-06-09T09:14:20Z</time>
      </trkpt>
      <trkpt lat="44.7804" lon="4.40702">
        <ele>1041.6</ele>
        <time>2022-06-09T09:14:21Z</time>
      </trkpt>
      <trkpt lat="44.78041" lon="4.40697">
        <ele>1041.8</ele>
        <time>2022-06-09T09:14:23Z</time>
      </trkpt>
      <trkpt lat="44.78042" lon="4.40694">
        <ele>1041.9</ele>
        <time>2022-06-09T09:14:24Z</time>
      </trkpt>
      <trkpt lat="44.78042" lon="4.4069">
        <ele>1042</ele>
        <time>2022-06-09T09:14:26Z</time>
      </trkpt>
      <trkpt lat="44.78042" lon="4.40688">
        <ele>1042</ele>
        <time>2022-06-09T09:14:27Z</time>
      </trkpt>
      <trkpt lat="44.78043" lon="4.40684">
        <ele>1042.2</ele>
        <time>2022-06-09T09:14:28Z</time>
      </trkpt>
      <trkpt lat="44.78043" lon="4.40683">
        <ele>1042.2</ele>
        <time>2022-06-09T09:14:29Z</time>
      </trkpt>
      <trkpt lat="44.78043" lon="4.40677">
        <ele>1042.4</ele>
        <time>2022-06-09T09:14:30Z</time>
      </trkpt>
      <trkpt lat="44.78043" lon="4.40674">
        <ele>1042.5</ele>
        <time>2022-06-09T09:14:31Z</time>
      </trkpt>
      <trkpt lat="44.78043" lon="4.4067">
        <ele>1042.6</ele>
        <time>2022-06-09T09:14:32Z</time>
      </trkpt>
      <trkpt lat="44.78044" lon="4.40667">
        <ele>1042.7</ele>
        <time>2022-06-09T09:14:34Z</time>
      </trkpt>
      <trkpt lat="44.78044" lon="4.40662">
        <ele>1042.9</ele>
        <time>2022-06-09T09:14:35Z</time>
      </trkpt>
      <trkpt lat="44.78045" lon="4.40659">
        <ele>1042.9</ele>
        <time>2022-06-09T09:14:36Z</time>
      </trkpt>
      <trkpt lat="44.78045" lon="4.40654">
        <ele>1043.1</ele>
        <time>2022-06-09T09:14:37Z</time>
      </trkpt>
      <trkpt lat="44.78045" lon="4.40651">
        <ele>1043.2</ele>
        <time>2022-06-09T09:14:38Z</time>
      </trkpt>
      <trkpt lat="44.78046" lon="4.40647">
        <ele>1043.3</ele>
        <time>2022-06-09T09:14:39Z</time>
      </trkpt>
      <trkpt lat="44.78047" lon="4.40644">
        <ele>1043.4</ele>
        <time>2022-06-09T09:14:40Z</time>
      </trkpt>
      <trkpt lat="44.78047" lon="4.4064">
        <ele>1043.5</ele>
        <time>2022-06-09T09:14:42Z</time>
      </trkpt>
      <trkpt lat="44.78048" lon="4.40636">
        <ele>1043.7</ele>
        <time>2022-06-09T09:14:43Z</time>
      </trkpt>
      <trkpt lat="44.78049" lon="4.40631">
        <ele>1043.8</ele>
        <time>2022-06-09T09:14:44Z</time>
      </trkpt>
      <trkpt lat="44.7805" lon="4.40627">
        <ele>1043.9</ele>
        <time>2022-06-09T09:14:46Z</time>
      </trkpt>
      <trkpt lat="44.78053" lon="4.40621">
        <ele>1044.1</ele>
        <time>2022-06-09T09:14:47Z</time>
      </trkpt>
      <trkpt lat="44.78054" lon="4.40616">
        <ele>1044.2</ele>
        <time>2022-06-09T09:14:49Z</time>
      </trkpt>
      <trkpt lat="44.78055" lon="4.40615">
        <ele>1044.3</ele>
        <time>2022-06-09T09:14:50Z</time>
      </trkpt>
      <trkpt lat="44.78056" lon="4.4061">
        <ele>1044.5</ele>
        <time>2022-06-09T09:14:52Z</time>
      </trkpt>
      <trkpt lat="44.78058" lon="4.40606">
        <ele>1044.6</ele>
        <time>2022-06-09T09:14:53Z</time>
      </trkpt>
      <trkpt lat="44.78059" lon="4.40601">
        <ele>1044.8</ele>
        <time>2022-06-09T09:14:54Z</time>
      </trkpt>
      <trkpt lat="44.7806" lon="4.40599">
        <ele>1044.8</ele>
        <time>2022-06-09T09:14:55Z</time>
      </trkpt>
      <trkpt lat="44.78062" lon="4.40594">
        <ele>1045</ele>
        <time>2022-06-09T09:14:57Z</time>
      </trkpt>
      <trkpt lat="44.78062" lon="4.40592">
        <ele>1045.1</ele>
        <time>2022-06-09T09:14:58Z</time>
      </trkpt>
      <trkpt lat="44.78064" lon="4.40588">
        <ele>1045.2</ele>
        <time>2022-06-09T09:14:59Z</time>
      </trkpt>
      <trkpt lat="44.78065" lon="4.40586">
        <ele>1045.3</ele>
        <time>2022-06-09T09:15:00Z</time>
      </trkpt>
      <trkpt lat="44.78065" lon="4.4058">
        <ele>1045.5</ele>
        <time>2022-06-09T09:15:02Z</time>
      </trkpt>
      <trkpt lat="44.78065" lon="4.40575">
        <ele>1045.7</ele>
        <time>2022-06-09T09:15:04Z</time>
      </trkpt>
      <trkpt lat="44.78065" lon="4.40573">
        <ele>1045.8</ele>
        <time>2022-06-09T09:15:05Z</time>
      </trkpt>
      <trkpt lat="44.78066" lon="4.40568">
        <ele>1045.9</ele>
        <time>2022-06-09T09:15:06Z</time>
      </trkpt>
      <trkpt lat="44.78067" lon="4.40563">
        <ele>1046.1</ele>
        <time>2022-06-09T09:15:08Z</time>
      </trkpt>
      <trkpt lat="44.78067" lon="4.40561">
        <ele>1046.2</ele>
        <time>2022-06-09T09:15:09Z</time>
      </trkpt>
      <trkpt lat="44.78068" lon="4.40557">
        <ele>1046.3</ele>
        <time>2022-06-09T09:15:10Z</time>
      </trkpt>
      <trkpt lat="44.78069" lon="4.40553">
        <ele>1046.5</ele>
        <time>2022-06-09T09:15:12Z</time>
      </trkpt>
      <trkpt lat="44.78069" lon="4.40549">
        <ele>1046.6</ele>
        <time>2022-06-09T09:15:13Z</time>
      </trkpt>
      <trkpt lat="44.7807" lon="4.40547">
        <ele>1046.7</ele>
        <time>2022-06-09T09:15:14Z</time>
      </trkpt>
      <trkpt lat="44.78071" lon="4.40543">
        <ele>1046.8</ele>
        <time>2022-06-09T09:15:15Z</time>
      </trkpt>
      <trkpt lat="44.78071" lon="4.40542">
        <ele>1046.8</ele>
        <time>2022-06-09T09:15:16Z</time>
      </trkpt>
      <trkpt lat="44.78072" lon="4.40537">
        <ele>1047</ele>
        <time>2022-06-09T09:15:17Z</time>
      </trkpt>
      <trkpt lat="44.78072" lon="4.40536">
        <ele>1047</ele>
        <time>2022-06-09T09:15:18Z</time>
      </trkpt>
      <trkpt lat="44.78072" lon="4.40531">
        <ele>1047.2</ele>
        <time>2022-06-09T09:15:19Z</time>
      </trkpt>
      <trkpt lat="44.78072" lon="4.40529">
        <ele>1047.2</ele>
        <time>2022-06-09T09:15:20Z</time>
      </trkpt>
      <trkpt lat="44.78073" lon="4.40524">
        <ele>1047.4</ele>
        <time>2022-06-09T09:15:21Z</time>
      </trkpt>
      <trkpt lat="44.78073" lon="4.40519">
        <ele>1047.6</ele>
        <time>2022-06-09T09:15:23Z</time>
      </trkpt>
      <trkpt lat="44.78074" lon="4.40513">
        <ele>1047.8</ele>
        <time>2022-06-09T09:15:24Z</time>
      </trkpt>
      <trkpt lat="44.78074" lon="4.4051">
        <ele>1047.8</ele>
        <time>2022-06-09T09:15:25Z</time>
      </trkpt>
      <trkpt lat="44.78075" lon="4.40502">
        <ele>1048.1</ele>
        <time>2022-06-09T09:15:27Z</time>
      </trkpt>
      <trkpt lat="44.78076" lon="4.40499">
        <ele>1048.2</ele>
        <time>2022-06-09T09:15:28Z</time>
      </trkpt>
      <trkpt lat="44.78076" lon="4.40496">
        <ele>1048.3</ele>
        <time>2022-06-09T09:15:29Z</time>
      </trkpt>
      <trkpt lat="44.78076" lon="4.40492">
        <ele>1048.4</ele>
        <time>2022-06-09T09:15:31Z</time>
      </trkpt>
      <trkpt lat="44.78076" lon="4.40487">
        <ele>1048.6</ele>
        <time>2022-06-09T09:15:32Z</time>
      </trkpt>
      <trkpt lat="44.78076" lon="4.40486">
        <ele>1048.6</ele>
        <time>2022-06-09T09:15:33Z</time>
      </trkpt>
      <trkpt lat="44.78076" lon="4.40481">
        <ele>1048.8</ele>
        <time>2022-06-09T09:15:34Z</time>
      </trkpt>
      <trkpt lat="44.78076" lon="4.4048">
        <ele>1048.9</ele>
        <time>2022-06-09T09:15:35Z</time>
      </trkpt>
      <trkpt lat="44.78076" lon="4.40473">
        <ele>1049.1</ele>
        <time>2022-06-09T09:15:36Z</time>
      </trkpt>
      <trkpt lat="44.78077" lon="4.4047">
        <ele>1049.2</ele>
        <time>2022-06-09T09:15:37Z</time>
      </trkpt>
      <trkpt lat="44.78077" lon="4.40467">
        <ele>1049.3</ele>
        <time>2022-06-09T09:15:39Z</time>
      </trkpt>
      <trkpt lat="44.78078" lon="4.40462">
        <ele>1049.4</ele>
        <time>2022-06-09T09:15:40Z</time>
      </trkpt>
      <trkpt lat="44.78078" lon="4.40461">
        <ele>1049.5</ele>
        <time>2022-06-09T09:15:41Z</time>
      </trkpt>
      <trkpt lat="44.78078" lon="4.40456">
        <ele>1049.6</ele>
        <time>2022-06-09T09:15:42Z</time>
      </trkpt>
      <trkpt lat="44.78078" lon="4.40454">
        <ele>1049.7</ele>
        <time>2022-06-09T09:15:43Z</time>
      </trkpt>
      <trkpt lat="44.78079" lon="4.40449">
        <ele>1049.8</ele>
        <time>2022-06-09T09:15:44Z</time>
      </trkpt>
      <trkpt lat="44.78079" lon="4.40448">
        <ele>1049.9</ele>
        <time>2022-06-09T09:15:45Z</time>
      </trkpt>
      <trkpt lat="44.78079" lon="4.40443">
        <ele>1050.1</ele>
        <time>2022-06-09T09:15:46Z</time>
      </trkpt>
      <trkpt lat="44.78079" lon="4.40441">
        <ele>1050.1</ele>
        <time>2022-06-09T09:15:47Z</time>
      </trkpt>
      <trkpt lat="44.78079" lon="4.40435">
        <ele>1050.3</ele>
        <time>2022-06-09T09:15:48Z</time>
      </trkpt>
      <trkpt lat="44.78078" lon="4.40432">
        <ele>1050.5</ele>
        <time>2022-06-09T09:15:49Z</time>
      </trkpt>
      <trkpt lat="44.78078" lon="4.40428">
        <ele>1050.6</ele>
        <time>2022-06-09T09:15:51Z</time>
      </trkpt>
      <trkpt lat="44.78077" lon="4.40423">
        <ele>1050.8</ele>
        <time>2022-06-09T09:15:52Z</time>
      </trkpt>
      <trkpt lat="44.78077" lon="4.40422">
        <ele>1050.9</ele>
        <time>2022-06-09T09:15:53Z</time>
      </trkpt>
      <trkpt lat="44.78075" lon="4.40417">
        <ele>1051.1</ele>
        <time>2022-06-09T09:15:54Z</time>
      </trkpt>
      <trkpt lat="44.78075" lon="4.40416">
        <ele>1051.2</ele>
        <time>2022-06-09T09:15:55Z</time>
      </trkpt>
      <trkpt lat="44.78073" lon="4.40411">
        <ele>1051.4</ele>
        <time>2022-06-09T09:15:56Z</time>
      </trkpt>
      <trkpt lat="44.78073" lon="4.4041">
        <ele>1051.5</ele>
        <time>2022-06-09T09:15:57Z</time>
      </trkpt>
      <trkpt lat="44.78072" lon="4.40405">
        <ele>1051.7</ele>
        <time>2022-06-09T09:15:58Z</time>
      </trkpt>
      <trkpt lat="44.78071" lon="4.40404">
        <ele>1051.7</ele>
        <time>2022-06-09T09:15:59Z</time>
      </trkpt>
      <trkpt lat="44.7807" lon="4.40401">
        <ele>1051.9</ele>
        <time>2022-06-09T09:16:00Z</time>
      </trkpt>
      <trkpt lat="44.78067" lon="4.40394">
        <ele>1052.2</ele>
        <time>2022-06-09T09:16:02Z</time>
      </trkpt>
      <trkpt lat="44.78067" lon="4.40392">
        <ele>1052.4</ele>
        <time>2022-06-09T09:16:04Z</time>
      </trkpt>
      <trkpt lat="44.78065" lon="4.40387">
        <ele>1052.6</ele>
        <time>2022-06-09T09:16:05Z</time>
      </trkpt>
      <trkpt lat="44.78064" lon="4.40382">
        <ele>1052.8</ele>
        <time>2022-06-09T09:16:07Z</time>
      </trkpt>
      <trkpt lat="44.78064" lon="4.40377">
        <ele>1053</ele>
        <time>2022-06-09T09:16:08Z</time>
      </trkpt>
      <trkpt lat="44.78064" lon="4.40372">
        <ele>1053.2</ele>
        <time>2022-06-09T09:16:09Z</time>
      </trkpt>
      <trkpt lat="44.78064" lon="4.40363">
        <ele>1053.6</ele>
        <time>2022-06-09T09:16:11Z</time>
      </trkpt>
      <trkpt lat="44.78064" lon="4.40361">
        <ele>1053.6</ele>
        <time>2022-06-09T09:16:12Z</time>
      </trkpt>
      <trkpt lat="44.78065" lon="4.40357">
        <ele>1053.8</ele>
        <time>2022-06-09T09:16:14Z</time>
      </trkpt>
      <trkpt lat="44.78067" lon="4.40352">
        <ele>1054</ele>
        <time>2022-06-09T09:16:15Z</time>
      </trkpt>
      <trkpt lat="44.78068" lon="4.4035">
        <ele>1054.1</ele>
        <time>2022-06-09T09:16:16Z</time>
      </trkpt>
      <trkpt lat="44.7807" lon="4.40347">
        <ele>1054.2</ele>
        <time>2022-06-09T09:16:17Z</time>
      </trkpt>
      <trkpt lat="44.78073" lon="4.40344">
        <ele>1054.3</ele>
        <time>2022-06-09T09:16:19Z</time>
      </trkpt>
      <trkpt lat="44.78074" lon="4.40343">
        <ele>1054.3</ele>
        <time>2022-06-09T09:16:20Z</time>
      </trkpt>
      <trkpt lat="44.78077" lon="4.40341">
        <ele>1054.4</ele>
        <time>2022-06-09T09:16:21Z</time>
      </trkpt>
      <trkpt lat="44.78079" lon="4.40341">
        <ele>1054.4</ele>
        <time>2022-06-09T09:16:22Z</time>
      </trkpt>
      <trkpt lat="44.78083" lon="4.4034">
        <ele>1054.5</ele>
        <time>2022-06-09T09:16:24Z</time>
      </trkpt>
      <trkpt lat="44.78087" lon="4.40341">
        <ele>1054.7</ele>
        <time>2022-06-09T09:16:25Z</time>
      </trkpt>
      <trkpt lat="44.78091" lon="4.40342">
        <ele>1054.7</ele>
        <time>2022-06-09T09:16:26Z</time>
      </trkpt>
      <trkpt lat="44.78095" lon="4.40343">
        <ele>1054.8</ele>
        <time>2022-06-09T09:16:28Z</time>
      </trkpt>
      <trkpt lat="44.78099" lon="4.40344">
        <ele>1054.9</ele>
        <time>2022-06-09T09:16:30Z</time>
      </trkpt>
      <trkpt lat="44.78104" lon="4.40345">
        <ele>1055</ele>
        <time>2022-06-09T09:16:31Z</time>
      </trkpt>
      <trkpt lat="44.78106" lon="4.40345">
        <ele>1055.1</ele>
        <time>2022-06-09T09:16:32Z</time>
      </trkpt>
      <trkpt lat="44.7811" lon="4.40347">
        <ele>1055.2</ele>
        <time>2022-06-09T09:16:34Z</time>
      </trkpt>
      <trkpt lat="44.78111" lon="4.40347">
        <ele>1055.2</ele>
        <time>2022-06-09T09:16:35Z</time>
      </trkpt>
      <trkpt lat="44.78116" lon="4.40349">
        <ele>1055.4</ele>
        <time>2022-06-09T09:16:37Z</time>
      </trkpt>
      <trkpt lat="44.7812" lon="4.4035">
        <ele>1055.5</ele>
        <time>2022-06-09T09:16:38Z</time>
      </trkpt>
      <trkpt lat="44.78124" lon="4.40351">
        <ele>1055.7</ele>
        <time>2022-06-09T09:16:39Z</time>
      </trkpt>
      <trkpt lat="44.78126" lon="4.40351">
        <ele>1055.7</ele>
        <time>2022-06-09T09:16:40Z</time>
      </trkpt>
      <trkpt lat="44.7813" lon="4.40352">
        <ele>1055.9</ele>
        <time>2022-06-09T09:16:42Z</time>
      </trkpt>
      <trkpt lat="44.78132" lon="4.40352">
        <ele>1056</ele>
        <time>2022-06-09T09:16:43Z</time>
      </trkpt>
      <trkpt lat="44.78134" lon="4.40353">
        <ele>1056</ele>
        <time>2022-06-09T09:16:44Z</time>
      </trkpt>
      <trkpt lat="44.78137" lon="4.40354">
        <ele>1056.2</ele>
        <time>2022-06-09T09:16:45Z</time>
      </trkpt>
      <trkpt lat="44.78138" lon="4.40354">
        <ele>1056.2</ele>
        <time>2022-06-09T09:16:46Z</time>
      </trkpt>
      <trkpt lat="44.78142" lon="4.40355">
        <ele>1056.4</ele>
        <time>2022-06-09T09:16:47Z</time>
      </trkpt>
      <trkpt lat="44.78144" lon="4.40356">
        <ele>1056.5</ele>
        <time>2022-06-09T09:16:48Z</time>
      </trkpt>
      <trkpt lat="44.78147" lon="4.40357">
        <ele>1056.6</ele>
        <time>2022-06-09T09:16:49Z</time>
      </trkpt>
      <trkpt lat="44.78151" lon="4.40358">
        <ele>1056.8</ele>
        <time>2022-06-09T09:16:50Z</time>
      </trkpt>
      <trkpt lat="44.78152" lon="4.40358">
        <ele>1056.8</ele>
        <time>2022-06-09T09:16:51Z</time>
      </trkpt>
      <trkpt lat="44.78155" lon="4.40359">
        <ele>1057</ele>
        <time>2022-06-09T09:16:52Z</time>
      </trkpt>
      <trkpt lat="44.78156" lon="4.40359">
        <ele>1057.1</ele>
        <time>2022-06-09T09:16:53Z</time>
      </trkpt>
      <trkpt lat="44.78159" lon="4.4036">
        <ele>1057.2</ele>
        <time>2022-06-09T09:16:54Z</time>
      </trkpt>
      <trkpt lat="44.78163" lon="4.40361">
        <ele>1057.4</ele>
        <time>2022-06-09T09:16:55Z</time>
      </trkpt>
      <trkpt lat="44.78164" lon="4.40361">
        <ele>1057.5</ele>
        <time>2022-06-09T09:16:56Z</time>
      </trkpt>
      <trkpt lat="44.78169" lon="4.40363">
        <ele>1057.7</ele>
        <time>2022-06-09T09:16:57Z</time>
      </trkpt>
      <trkpt lat="44.78171" lon="4.40363">
        <ele>1057.9</ele>
        <time>2022-06-09T09:16:58Z</time>
      </trkpt>
      <trkpt lat="44.78174" lon="4.40364">
        <ele>1058</ele>
        <time>2022-06-09T09:17:00Z</time>
      </trkpt>
      <trkpt lat="44.78178" lon="4.40366">
        <ele>1058.3</ele>
        <time>2022-06-09T09:17:02Z</time>
      </trkpt>
      <trkpt lat="44.78182" lon="4.40366">
        <ele>1058.5</ele>
        <time>2022-06-09T09:17:03Z</time>
      </trkpt>
      <trkpt lat="44.78186" lon="4.40367">
        <ele>1058.7</ele>
        <time>2022-06-09T09:17:04Z</time>
      </trkpt>
      <trkpt lat="44.78187" lon="4.40367">
        <ele>1058.8</ele>
        <time>2022-06-09T09:17:05Z</time>
      </trkpt>
      <trkpt lat="44.7819" lon="4.40367">
        <ele>1058.9</ele>
        <time>2022-06-09T09:17:06Z</time>
      </trkpt>
      <trkpt lat="44.78192" lon="4.40367">
        <ele>1059</ele>
        <time>2022-06-09T09:17:08Z</time>
      </trkpt>
      <trkpt lat="44.78197" lon="4.40367">
        <ele>1059.2</ele>
        <time>2022-06-09T09:17:09Z</time>
      </trkpt>
      <trkpt lat="44.78199" lon="4.40366">
        <ele>1059.3</ele>
        <time>2022-06-09T09:17:10Z</time>
      </trkpt>
      <trkpt lat="44.78201" lon="4.40365">
        <ele>1059.4</ele>
        <time>2022-06-09T09:17:11Z</time>
      </trkpt>
      <trkpt lat="44.78205" lon="4.40363">
        <ele>1059.6</ele>
        <time>2022-06-09T09:17:13Z</time>
      </trkpt>
      <trkpt lat="44.78208" lon="4.4036">
        <ele>1059.7</ele>
        <time>2022-06-09T09:17:14Z</time>
      </trkpt>
      <trkpt lat="44.78209" lon="4.40359">
        <ele>1059.8</ele>
        <time>2022-06-09T09:17:15Z</time>
      </trkpt>
      <trkpt lat="44.78212" lon="4.40356">
        <ele>1059.9</ele>
        <time>2022-06-09T09:17:16Z</time>
      </trkpt>
      <trkpt lat="44.78214" lon="4.40353">
        <ele>1060</ele>
        <time>2022-06-09T09:17:17Z</time>
      </trkpt>
      <trkpt lat="44.78216" lon="4.4035">
        <ele>1060.1</ele>
        <time>2022-06-09T09:17:18Z</time>
      </trkpt>
      <trkpt lat="44.78218" lon="4.40347">
        <ele>1060.2</ele>
        <time>2022-06-09T09:17:19Z</time>
      </trkpt>
      <trkpt lat="44.7822" lon="4.40344">
        <ele>1060.4</ele>
        <time>2022-06-09T09:17:20Z</time>
      </trkpt>
      <trkpt lat="44.78222" lon="4.40341">
        <ele>1060.5</ele>
        <time>2022-06-09T09:17:21Z</time>
      </trkpt>
      <trkpt lat="44.78224" lon="4.40334">
        <ele>1060.7</ele>
        <time>2022-06-09T09:17:22Z</time>
      </trkpt>
      <trkpt lat="44.78225" lon="4.40331">
        <ele>1060.8</ele>
        <time>2022-06-09T09:17:24Z</time>
      </trkpt>
      <trkpt lat="44.78226" lon="4.40327">
        <ele>1060.9</ele>
        <time>2022-06-09T09:17:25Z</time>
      </trkpt>
      <trkpt lat="44.78227" lon="4.40323">
        <ele>1061.1</ele>
        <time>2022-06-09T09:17:26Z</time>
      </trkpt>
      <trkpt lat="44.78228" lon="4.40318">
        <ele>1061.2</ele>
        <time>2022-06-09T09:17:27Z</time>
      </trkpt>
      <trkpt lat="44.78228" lon="4.40316">
        <ele>1061.3</ele>
        <time>2022-06-09T09:17:28Z</time>
      </trkpt>
      <trkpt lat="44.78228" lon="4.4031">
        <ele>1061.5</ele>
        <time>2022-06-09T09:17:29Z</time>
      </trkpt>
      <trkpt lat="44.78228" lon="4.40308">
        <ele>1061.5</ele>
        <time>2022-06-09T09:17:30Z</time>
      </trkpt>
      <trkpt lat="44.78229" lon="4.40303">
        <ele>1061.7</ele>
        <time>2022-06-09T09:17:31Z</time>
      </trkpt>
      <trkpt lat="44.78229" lon="4.40302">
        <ele>1061.7</ele>
        <time>2022-06-09T09:17:32Z</time>
      </trkpt>
      <trkpt lat="44.78228" lon="4.40296">
        <ele>1061.9</ele>
        <time>2022-06-09T09:17:33Z</time>
      </trkpt>
      <trkpt lat="44.78228" lon="4.40294">
        <ele>1062</ele>
        <time>2022-06-09T09:17:34Z</time>
      </trkpt>
      <trkpt lat="44.78228" lon="4.4029">
        <ele>1062.1</ele>
        <time>2022-06-09T09:17:35Z</time>
      </trkpt>
      <trkpt lat="44.78227" lon="4.40284">
        <ele>1062.3</ele>
        <time>2022-06-09T09:17:36Z</time>
      </trkpt>
      <trkpt lat="44.78227" lon="4.40278">
        <ele>1062.5</ele>
        <time>2022-06-09T09:17:38Z</time>
      </trkpt>
      <trkpt lat="44.78227" lon="4.40276">
        <ele>1062.6</ele>
        <time>2022-06-09T09:17:39Z</time>
      </trkpt>
      <trkpt lat="44.78227" lon="4.40271">
        <ele>1062.7</ele>
        <time>2022-06-09T09:17:40Z</time>
      </trkpt>
      <trkpt lat="44.78227" lon="4.4027">
        <ele>1062.8</ele>
        <time>2022-06-09T09:17:41Z</time>
      </trkpt>
      <trkpt lat="44.78227" lon="4.40265">
        <ele>1062.9</ele>
        <time>2022-06-09T09:17:42Z</time>
      </trkpt>
      <trkpt lat="44.78227" lon="4.40264">
        <ele>1063</ele>
        <time>2022-06-09T09:17:43Z</time>
      </trkpt>
      <trkpt lat="44.78226" lon="4.40259">
        <ele>1063.2</ele>
        <time>2022-06-09T09:17:44Z</time>
      </trkpt>
      <trkpt lat="44.78226" lon="4.40255">
        <ele>1063.4</ele>
        <time>2022-06-09T09:17:46Z</time>
      </trkpt>
      <trkpt lat="44.78226" lon="4.40249">
        <ele>1063.6</ele>
        <time>2022-06-09T09:17:47Z</time>
      </trkpt>
      <trkpt lat="44.78225" lon="4.40243">
        <ele>1063.8</ele>
        <time>2022-06-09T09:17:49Z</time>
      </trkpt>
      <trkpt lat="44.78226" lon="4.4024">
        <ele>1063.9</ele>
        <time>2022-06-09T09:17:50Z</time>
      </trkpt>
      <trkpt lat="44.78226" lon="4.40237">
        <ele>1064.1</ele>
        <time>2022-06-09T09:17:52Z</time>
      </trkpt>
      <trkpt lat="44.78226" lon="4.40231">
        <ele>1064.3</ele>
        <time>2022-06-09T09:17:53Z</time>
      </trkpt>
      <trkpt lat="44.78226" lon="4.40229">
        <ele>1064.4</ele>
        <time>2022-06-09T09:17:54Z</time>
      </trkpt>
      <trkpt lat="44.78226" lon="4.40222">
        <ele>1064.7</ele>
        <time>2022-06-09T09:17:56Z</time>
      </trkpt>
      <trkpt lat="44.78226" lon="4.4022">
        <ele>1064.8</ele>
        <time>2022-06-09T09:17:57Z</time>
      </trkpt>
      <trkpt lat="44.78226" lon="4.40218">
        <ele>1064.9</ele>
        <time>2022-06-09T09:17:58Z</time>
      </trkpt>
      <trkpt lat="44.78226" lon="4.40213">
        <ele>1065.1</ele>
        <time>2022-06-09T09:17:59Z</time>
      </trkpt>
      <trkpt lat="44.78226" lon="4.40212">
        <ele>1065.2</ele>
        <time>2022-06-09T09:18:00Z</time>
      </trkpt>
      <trkpt lat="44.78225" lon="4.40205">
        <ele>1065.5</ele>
        <time>2022-06-09T09:18:01Z</time>
      </trkpt>
      <trkpt lat="44.78225" lon="4.40202">
        <ele>1065.7</ele>
        <time>2022-06-09T09:18:02Z</time>
      </trkpt>
      <trkpt lat="44.78225" lon="4.40198">
        <ele>1065.9</ele>
        <time>2022-06-09T09:18:04Z</time>
      </trkpt>
      <trkpt lat="44.78225" lon="4.40194">
        <ele>1066.1</ele>
        <time>2022-06-09T09:18:05Z</time>
      </trkpt>
      <trkpt lat="44.78225" lon="4.40193">
        <ele>1066.2</ele>
        <time>2022-06-09T09:18:06Z</time>
      </trkpt>
      <trkpt lat="44.78226" lon="4.40189">
        <ele>1066.4</ele>
        <time>2022-06-09T09:18:07Z</time>
      </trkpt>
      <trkpt lat="44.78226" lon="4.40187">
        <ele>1066.5</ele>
        <time>2022-06-09T09:18:08Z</time>
      </trkpt>
      <trkpt lat="44.78228" lon="4.40183">
        <ele>1066.8</ele>
        <time>2022-06-09T09:18:09Z</time>
      </trkpt>
      <trkpt lat="44.78228" lon="4.40182">
        <ele>1066.8</ele>
        <time>2022-06-09T09:18:10Z</time>
      </trkpt>
      <trkpt lat="44.7823" lon="4.40178">
        <ele>1067</ele>
        <time>2022-06-09T09:18:11Z</time>
      </trkpt>
      <trkpt lat="44.78231" lon="4.40177">
        <ele>1067.1</ele>
        <time>2022-06-09T09:18:12Z</time>
      </trkpt>
      <trkpt lat="44.78233" lon="4.40173">
        <ele>1067.3</ele>
        <time>2022-06-09T09:18:13Z</time>
      </trkpt>
      <trkpt lat="44.78234" lon="4.40173">
        <ele>1067.3</ele>
        <time>2022-06-09T09:18:14Z</time>
      </trkpt>
      <trkpt lat="44.78237" lon="4.4017">
        <ele>1067.5</ele>
        <time>2022-06-09T09:18:15Z</time>
      </trkpt>
      <trkpt lat="44.78238" lon="4.40169">
        <ele>1067.6</ele>
        <time>2022-06-09T09:18:16Z</time>
      </trkpt>
      <trkpt lat="44.78241" lon="4.40168">
        <ele>1067.7</ele>
        <time>2022-06-09T09:18:17Z</time>
      </trkpt>
      <trkpt lat="44.78246" lon="4.40168">
        <ele>1067.8</ele>
        <time>2022-06-09T09:18:19Z</time>
      </trkpt>
      <trkpt lat="44.78248" lon="4.40169">
        <ele>1067.9</ele>
        <time>2022-06-09T09:18:20Z</time>
      </trkpt>
      <trkpt lat="44.78249" lon="4.4017">
        <ele>1067.9</ele>
        <time>2022-06-09T09:18:21Z</time>
      </trkpt>
      <trkpt lat="44.78252" lon="4.40172">
        <ele>1068</ele>
        <time>2022-06-09T09:18:22Z</time>
      </trkpt>
      <trkpt lat="44.78253" lon="4.40174">
        <ele>1068</ele>
        <time>2022-06-09T09:18:24Z</time>
      </trkpt>
      <trkpt lat="44.78256" lon="4.40179">
        <ele>1068</ele>
        <time>2022-06-09T09:18:25Z</time>
      </trkpt>
      <trkpt lat="44.78259" lon="4.40183">
        <ele>1068.1</ele>
        <time>2022-06-09T09:18:26Z</time>
      </trkpt>
      <trkpt lat="44.7826" lon="4.40184">
        <ele>1068.1</ele>
        <time>2022-06-09T09:18:27Z</time>
      </trkpt>
      <trkpt lat="44.78263" lon="4.40189">
        <ele>1068.1</ele>
        <time>2022-06-09T09:18:29Z</time>
      </trkpt>
      <trkpt lat="44.78265" lon="4.40191">
        <ele>1068.1</ele>
        <time>2022-06-09T09:18:30Z</time>
      </trkpt>
      <trkpt lat="44.78267" lon="4.40194">
        <ele>1068.1</ele>
        <time>2022-06-09T09:18:31Z</time>
      </trkpt>
      <trkpt lat="44.78269" lon="4.40198">
        <ele>1068.1</ele>
        <time>2022-06-09T09:18:33Z</time>
      </trkpt>
      <trkpt lat="44.78272" lon="4.40203">
        <ele>1068.2</ele>
        <time>2022-06-09T09:18:34Z</time>
      </trkpt>
      <trkpt lat="44.78275" lon="4.40207">
        <ele>1068.2</ele>
        <time>2022-06-09T09:18:36Z</time>
      </trkpt>
      <trkpt lat="44.78278" lon="4.40211">
        <ele>1068.3</ele>
        <time>2022-06-09T09:18:38Z</time>
      </trkpt>
      <trkpt lat="44.78279" lon="4.40212">
        <ele>1068.3</ele>
        <time>2022-06-09T09:18:39Z</time>
      </trkpt>
      <trkpt lat="44.78281" lon="4.40215">
        <ele>1068.3</ele>
        <time>2022-06-09T09:18:40Z</time>
      </trkpt>
      <trkpt lat="44.78283" lon="4.40218">
        <ele>1068.4</ele>
        <time>2022-06-09T09:18:41Z</time>
      </trkpt>
      <trkpt lat="44.78284" lon="4.40219">
        <ele>1068.4</ele>
        <time>2022-06-09T09:18:42Z</time>
      </trkpt>
      <trkpt lat="44.78287" lon="4.40224">
        <ele>1068.5</ele>
        <time>2022-06-09T09:18:43Z</time>
      </trkpt>
      <trkpt lat="44.78289" lon="4.40227">
        <ele>1068.6</ele>
        <time>2022-06-09T09:18:45Z</time>
      </trkpt>
      <trkpt lat="44.7829" lon="4.40229">
        <ele>1068.6</ele>
        <time>2022-06-09T09:18:46Z</time>
      </trkpt>
      <trkpt lat="44.78291" lon="4.4023">
        <ele>1068.6</ele>
        <time>2022-06-09T09:18:47Z</time>
      </trkpt>
      <trkpt lat="44.78291" lon="4.40231">
        <ele>1068.6</ele>
        <time>2022-06-09T09:18:48Z</time>
      </trkpt>
      <trkpt lat="44.7829" lon="4.40229">
        <ele>1068.7</ele>
        <time>2022-06-09T09:18:49Z</time>
      </trkpt>
      <trkpt lat="44.7829" lon="4.40229">
        <ele>1068.7</ele>
        <time>2022-06-09T09:18:50Z</time>
      </trkpt>
      <trkpt lat="44.7829" lon="4.40229">
        <ele>1068.7</ele>
        <time>2022-06-09T09:18:51Z</time>
      </trkpt>
      <trkpt lat="44.78289" lon="4.40229">
        <ele>1068.7</ele>
        <time>2022-06-09T09:18:52Z</time>
      </trkpt>
      <trkpt lat="44.78289" lon="4.40228">
        <ele>1068.7</ele>
        <time>2022-06-09T09:18:53Z</time>
      </trkpt>
      <trkpt lat="44.78289" lon="4.40228">
        <ele>1068.7</ele>
        <time>2022-06-09T09:18:54Z</time>
      </trkpt>
      <trkpt lat="44.78289" lon="4.40228">
        <ele>1068.7</ele>
        <time>2022-06-09T09:18:55Z</time>
      </trkpt>
      <trkpt lat="44.78289" lon="4.40228">
        <ele>1068.7</ele>
        <time>2022-06-09T09:18:56Z</time>
      </trkpt>
      <trkpt lat="44.78289" lon="4.40228">
        <ele>1068.7</ele>
        <time>2022-06-09T09:18:57Z</time>
      </trkpt>
      <trkpt lat="44.78293" lon="4.40231">
        <ele>1068.8</ele>
        <time>2022-06-09T09:20:15Z</time>
      </trkpt>
      <trkpt lat="44.78294" lon="4.40232">
        <ele>1068.9</ele>
        <time>2022-06-09T09:20:16Z</time>
      </trkpt>
      <trkpt lat="44.78295" lon="4.40233">
        <ele>1068.9</ele>
        <time>2022-06-09T09:20:17Z</time>
      </trkpt>
      <trkpt lat="44.78299" lon="4.40234">
        <ele>1069</ele>
        <time>2022-06-09T09:20:18Z</time>
      </trkpt>
      <trkpt lat="44.783" lon="4.40235">
        <ele>1069.1</ele>
        <time>2022-06-09T09:20:19Z</time>
      </trkpt>
      <trkpt lat="44.78304" lon="4.40239">
        <ele>1069.2</ele>
        <time>2022-06-09T09:20:21Z</time>
      </trkpt>
      <trkpt lat="44.78307" lon="4.40243">
        <ele>1069.4</ele>
        <time>2022-06-09T09:20:22Z</time>
      </trkpt>
      <trkpt lat="44.78311" lon="4.40247">
        <ele>1069.5</ele>
        <time>2022-06-09T09:20:24Z</time>
      </trkpt>
      <trkpt lat="44.78313" lon="4.40248">
        <ele>1069.6</ele>
        <time>2022-06-09T09:20:25Z</time>
      </trkpt>
      <trkpt lat="44.78316" lon="4.40251">
        <ele>1069.7</ele>
        <time>2022-06-09T09:20:27Z</time>
      </trkpt>
      <trkpt lat="44.78319" lon="4.40255">
        <ele>1069.9</ele>
        <time>2022-06-09T09:20:28Z</time>
      </trkpt>
      <trkpt lat="44.78323" lon="4.40258">
        <ele>1070</ele>
        <time>2022-06-09T09:20:30Z</time>
      </trkpt>
      <trkpt lat="44.78326" lon="4.4026">
        <ele>1070.1</ele>
        <time>2022-06-09T09:20:31Z</time>
      </trkpt>
      <trkpt lat="44.78328" lon="4.40262">
        <ele>1070.2</ele>
        <time>2022-06-09T09:20:32Z</time>
      </trkpt>
      <trkpt lat="44.78333" lon="4.40265">
        <ele>1070.4</ele>
        <time>2022-06-09T09:20:34Z</time>
      </trkpt>
      <trkpt lat="44.78335" lon="4.40267">
        <ele>1070.5</ele>
        <time>2022-06-09T09:20:35Z</time>
      </trkpt>
      <trkpt lat="44.78339" lon="4.40271">
        <ele>1070.7</ele>
        <time>2022-06-09T09:20:37Z</time>
      </trkpt>
      <trkpt lat="44.78341" lon="4.40273">
        <ele>1070.8</ele>
        <time>2022-06-09T09:20:39Z</time>
      </trkpt>
      <trkpt lat="44.78346" lon="4.40276">
        <ele>1071</ele>
        <time>2022-06-09T09:20:40Z</time>
      </trkpt>
      <trkpt lat="44.78348" lon="4.40278">
        <ele>1071.1</ele>
        <time>2022-06-09T09:20:41Z</time>
      </trkpt>
      <trkpt lat="44.78351" lon="4.4028">
        <ele>1071.2</ele>
        <time>2022-06-09T09:20:43Z</time>
      </trkpt>
      <trkpt lat="44.78351" lon="4.40281">
        <ele>1071.3</ele>
        <time>2022-06-09T09:20:44Z</time>
      </trkpt>
      <trkpt lat="44.78354" lon="4.40285">
        <ele>1071.4</ele>
        <time>2022-06-09T09:20:45Z</time>
      </trkpt>
      <trkpt lat="44.78355" lon="4.40286">
        <ele>1071.4</ele>
        <time>2022-06-09T09:20:46Z</time>
      </trkpt>
      <trkpt lat="44.7836" lon="4.40294">
        <ele>1071.7</ele>
        <time>2022-06-09T09:20:48Z</time>
      </trkpt>
      <trkpt lat="44.78361" lon="4.40297">
        <ele>1071.8</ele>
        <time>2022-06-09T09:20:50Z</time>
      </trkpt>
      <trkpt lat="44.78363" lon="4.40301">
        <ele>1072</ele>
        <time>2022-06-09T09:20:51Z</time>
      </trkpt>
      <trkpt lat="44.78365" lon="4.40303">
        <ele>1072.1</ele>
        <time>2022-06-09T09:20:52Z</time>
      </trkpt>
      <trkpt lat="44.78367" lon="4.40307">
        <ele>1072.2</ele>
        <time>2022-06-09T09:20:53Z</time>
      </trkpt>
      <trkpt lat="44.78369" lon="4.40311">
        <ele>1072.3</ele>
        <time>2022-06-09T09:20:54Z</time>
      </trkpt>
      <trkpt lat="44.7837" lon="4.40313">
        <ele>1072.4</ele>
        <time>2022-06-09T09:20:55Z</time>
      </trkpt>
      <trkpt lat="44.78372" lon="4.40318">
        <ele>1072.6</ele>
        <time>2022-06-09T09:20:57Z</time>
      </trkpt>
      <trkpt lat="44.78373" lon="4.4032">
        <ele>1072.6</ele>
        <time>2022-06-09T09:20:58Z</time>
      </trkpt>
      <trkpt lat="44.78373" lon="4.40322">
        <ele>1072.7</ele>
        <time>2022-06-09T09:20:59Z</time>
      </trkpt>
      <trkpt lat="44.78375" lon="4.40326">
        <ele>1072.8</ele>
        <time>2022-06-09T09:21:00Z</time>
      </trkpt>
      <trkpt lat="44.78376" lon="4.40329">
        <ele>1073</ele>
        <time>2022-06-09T09:21:01Z</time>
      </trkpt>
      <trkpt lat="44.78377" lon="4.40333">
        <ele>1073.1</ele>
        <time>2022-06-09T09:21:02Z</time>
      </trkpt>
      <trkpt lat="44.78379" lon="4.40336">
        <ele>1073.2</ele>
        <time>2022-06-09T09:21:03Z</time>
      </trkpt>
      <trkpt lat="44.78381" lon="4.4034">
        <ele>1073.4</ele>
        <time>2022-06-09T09:21:04Z</time>
      </trkpt>
      <trkpt lat="44.78382" lon="4.40342">
        <ele>1073.4</ele>
        <time>2022-06-09T09:21:05Z</time>
      </trkpt>
      <trkpt lat="44.78384" lon="4.40347">
        <ele>1073.6</ele>
        <time>2022-06-09T09:21:06Z</time>
      </trkpt>
      <trkpt lat="44.78385" lon="4.4035">
        <ele>1073.7</ele>
        <time>2022-06-09T09:21:07Z</time>
      </trkpt>
      <trkpt lat="44.78388" lon="4.40356">
        <ele>1073.9</ele>
        <time>2022-06-09T09:21:09Z</time>
      </trkpt>
      <trkpt lat="44.78391" lon="4.40363">
        <ele>1074.1</ele>
        <time>2022-06-09T09:21:11Z</time>
      </trkpt>
      <trkpt lat="44.78393" lon="4.40366">
        <ele>1074.2</ele>
        <time>2022-06-09T09:21:12Z</time>
      </trkpt>
      <trkpt lat="44.78395" lon="4.4037">
        <ele>1074.4</ele>
        <time>2022-06-09T09:21:14Z</time>
      </trkpt>
      <trkpt lat="44.78396" lon="4.40373">
        <ele>1074.5</ele>
        <time>2022-06-09T09:21:15Z</time>
      </trkpt>
      <trkpt lat="44.78399" lon="4.40379">
        <ele>1074.8</ele>
        <time>2022-06-09T09:21:17Z</time>
      </trkpt>
      <trkpt lat="44.784" lon="4.40384">
        <ele>1074.9</ele>
        <time>2022-06-09T09:21:18Z</time>
      </trkpt>
      <trkpt lat="44.78402" lon="4.40388">
        <ele>1075.1</ele>
        <time>2022-06-09T09:21:19Z</time>
      </trkpt>
      <trkpt lat="44.78403" lon="4.40391">
        <ele>1075.2</ele>
        <time>2022-06-09T09:21:20Z</time>
      </trkpt>
      <trkpt lat="44.78406" lon="4.40398">
        <ele>1075.5</ele>
        <time>2022-06-09T09:21:22Z</time>
      </trkpt>
      <trkpt lat="44.78407" lon="4.40402">
        <ele>1075.6</ele>
        <time>2022-06-09T09:21:23Z</time>
      </trkpt>
      <trkpt lat="44.78409" lon="4.40407">
        <ele>1075.8</ele>
        <time>2022-06-09T09:21:25Z</time>
      </trkpt>
      <trkpt lat="44.7841" lon="4.40412">
        <ele>1075.9</ele>
        <time>2022-06-09T09:21:26Z</time>
      </trkpt>
      <trkpt lat="44.78412" lon="4.40419">
        <ele>1076.1</ele>
        <time>2022-06-09T09:21:28Z</time>
      </trkpt>
      <trkpt lat="44.78413" lon="4.40422">
        <ele>1076.3</ele>
        <time>2022-06-09T09:21:30Z</time>
      </trkpt>
      <trkpt lat="44.78414" lon="4.40427">
        <ele>1076.4</ele>
        <time>2022-06-09T09:21:31Z</time>
      </trkpt>
      <trkpt lat="44.78415" lon="4.40432">
        <ele>1076.5</ele>
        <time>2022-06-09T09:21:32Z</time>
      </trkpt>
      <trkpt lat="44.78416" lon="4.40437">
        <ele>1076.7</ele>
        <time>2022-06-09T09:21:33Z</time>
      </trkpt>
      <trkpt lat="44.78417" lon="4.40442">
        <ele>1076.8</ele>
        <time>2022-06-09T09:21:35Z</time>
      </trkpt>
      <trkpt lat="44.78417" lon="4.40444">
        <ele>1076.9</ele>
        <time>2022-06-09T09:21:36Z</time>
      </trkpt>
      <trkpt lat="44.78418" lon="4.40447">
        <ele>1077</ele>
        <time>2022-06-09T09:21:37Z</time>
      </trkpt>
      <trkpt lat="44.78419" lon="4.40454">
        <ele>1077.2</ele>
        <time>2022-06-09T09:21:38Z</time>
      </trkpt>
      <trkpt lat="44.78419" lon="4.40458">
        <ele>1077.3</ele>
        <time>2022-06-09T09:21:39Z</time>
      </trkpt>
      <trkpt lat="44.78419" lon="4.40461">
        <ele>1077.4</ele>
        <time>2022-06-09T09:21:41Z</time>
      </trkpt>
      <trkpt lat="44.7842" lon="4.40467">
        <ele>1077.5</ele>
        <time>2022-06-09T09:21:42Z</time>
      </trkpt>
      <trkpt lat="44.78421" lon="4.40469">
        <ele>1077.6</ele>
        <time>2022-06-09T09:21:43Z</time>
      </trkpt>
      <trkpt lat="44.78421" lon="4.40476">
        <ele>1077.8</ele>
        <time>2022-06-09T09:21:44Z</time>
      </trkpt>
      <trkpt lat="44.78422" lon="4.40479">
        <ele>1077.9</ele>
        <time>2022-06-09T09:21:45Z</time>
      </trkpt>
      <trkpt lat="44.78422" lon="4.40483">
        <ele>1078.1</ele>
        <time>2022-06-09T09:21:47Z</time>
      </trkpt>
      <trkpt lat="44.78423" lon="4.40489">
        <ele>1078.3</ele>
        <time>2022-06-09T09:21:48Z</time>
      </trkpt>
      <trkpt lat="44.78423" lon="4.40494">
        <ele>1078.5</ele>
        <time>2022-06-09T09:21:49Z</time>
      </trkpt>
      <trkpt lat="44.78424" lon="4.405">
        <ele>1078.7</ele>
        <time>2022-06-09T09:21:51Z</time>
      </trkpt>
      <trkpt lat="44.78424" lon="4.40503">
        <ele>1078.8</ele>
        <time>2022-06-09T09:21:52Z</time>
      </trkpt>
      <trkpt lat="44.78424" lon="4.40505">
        <ele>1078.8</ele>
        <time>2022-06-09T09:21:53Z</time>
      </trkpt>
      <trkpt lat="44.78425" lon="4.4051">
        <ele>1079</ele>
        <time>2022-06-09T09:21:54Z</time>
      </trkpt>
      <trkpt lat="44.78426" lon="4.40512">
        <ele>1079.1</ele>
        <time>2022-06-09T09:21:55Z</time>
      </trkpt>
      <trkpt lat="44.78426" lon="4.40516">
        <ele>1079.2</ele>
        <time>2022-06-09T09:21:56Z</time>
      </trkpt>
      <trkpt lat="44.78426" lon="4.40518">
        <ele>1079.3</ele>
        <time>2022-06-09T09:21:57Z</time>
      </trkpt>
      <trkpt lat="44.78427" lon="4.40523">
        <ele>1079.4</ele>
        <time>2022-06-09T09:21:58Z</time>
      </trkpt>
      <trkpt lat="44.78427" lon="4.40525">
        <ele>1079.5</ele>
        <time>2022-06-09T09:21:59Z</time>
      </trkpt>
      <trkpt lat="44.78428" lon="4.40532">
        <ele>1079.7</ele>
        <time>2022-06-09T09:22:00Z</time>
      </trkpt>
      <trkpt lat="44.78428" lon="4.40535">
        <ele>1079.8</ele>
        <time>2022-06-09T09:22:01Z</time>
      </trkpt>
      <trkpt lat="44.78429" lon="4.40539">
        <ele>1079.9</ele>
        <time>2022-06-09T09:22:03Z</time>
      </trkpt>
      <trkpt lat="44.7843" lon="4.40544">
        <ele>1080.1</ele>
        <time>2022-06-09T09:22:04Z</time>
      </trkpt>
      <trkpt lat="44.78431" lon="4.40549">
        <ele>1080.2</ele>
        <time>2022-06-09T09:22:05Z</time>
      </trkpt>
      <trkpt lat="44.78431" lon="4.40553">
        <ele>1080.4</ele>
        <time>2022-06-09T09:22:06Z</time>
      </trkpt>
      <trkpt lat="44.78432" lon="4.40557">
        <ele>1080.5</ele>
        <time>2022-06-09T09:22:07Z</time>
      </trkpt>
      <trkpt lat="44.78433" lon="4.4056">
        <ele>1080.6</ele>
        <time>2022-06-09T09:22:09Z</time>
      </trkpt>
      <trkpt lat="44.78433" lon="4.40565">
        <ele>1080.7</ele>
        <time>2022-06-09T09:22:10Z</time>
      </trkpt>
      <trkpt lat="44.78434" lon="4.40568">
        <ele>1080.8</ele>
        <time>2022-06-09T09:22:11Z</time>
      </trkpt>
      <trkpt lat="44.78434" lon="4.40569">
        <ele>1080.9</ele>
        <time>2022-06-09T09:22:12Z</time>
      </trkpt>
      <trkpt lat="44.78436" lon="4.40573">
        <ele>1081</ele>
        <time>2022-06-09T09:22:14Z</time>
      </trkpt>
      <trkpt lat="44.78436" lon="4.40577">
        <ele>1081.2</ele>
        <time>2022-06-09T09:22:15Z</time>
      </trkpt>
      <trkpt lat="44.78437" lon="4.40582">
        <ele>1081.3</ele>
        <time>2022-06-09T09:22:17Z</time>
      </trkpt>
      <trkpt lat="44.78439" lon="4.40586">
        <ele>1081.5</ele>
        <time>2022-06-09T09:22:18Z</time>
      </trkpt>
      <trkpt lat="44.7844" lon="4.4059">
        <ele>1081.6</ele>
        <time>2022-06-09T09:22:19Z</time>
      </trkpt>
      <trkpt lat="44.78441" lon="4.40594">
        <ele>1081.8</ele>
        <time>2022-06-09T09:22:20Z</time>
      </trkpt>
      <trkpt lat="44.78442" lon="4.40597">
        <ele>1081.9</ele>
        <time>2022-06-09T09:22:22Z</time>
      </trkpt>
      <trkpt lat="44.78444" lon="4.40602">
        <ele>1082.1</ele>
        <time>2022-06-09T09:22:23Z</time>
      </trkpt>
      <trkpt lat="44.78446" lon="4.40606">
        <ele>1082.3</ele>
        <time>2022-06-09T09:22:25Z</time>
      </trkpt>
      <trkpt lat="44.78446" lon="4.40607">
        <ele>1082.3</ele>
        <time>2022-06-09T09:22:26Z</time>
      </trkpt>
      <trkpt lat="44.78448" lon="4.40611">
        <ele>1082.5</ele>
        <time>2022-06-09T09:22:27Z</time>
      </trkpt>
      <trkpt lat="44.78449" lon="4.40612">
        <ele>1082.5</ele>
        <time>2022-06-09T09:22:28Z</time>
      </trkpt>
      <trkpt lat="44.78451" lon="4.40616">
        <ele>1082.7</ele>
        <time>2022-06-09T09:22:29Z</time>
      </trkpt>
      <trkpt lat="44.78452" lon="4.40617">
        <ele>1082.8</ele>
        <time>2022-06-09T09:22:30Z</time>
      </trkpt>
      <trkpt lat="44.78453" lon="4.40621">
        <ele>1083</ele>
        <time>2022-06-09T09:22:31Z</time>
      </trkpt>
      <trkpt lat="44.78456" lon="4.40625">
        <ele>1083.2</ele>
        <time>2022-06-09T09:22:32Z</time>
      </trkpt>
      <trkpt lat="44.78457" lon="4.40627">
        <ele>1083.2</ele>
        <time>2022-06-09T09:22:33Z</time>
      </trkpt>
      <trkpt lat="44.78458" lon="4.40629">
        <ele>1083.4</ele>
        <time>2022-06-09T09:22:34Z</time>
      </trkpt>
      <trkpt lat="44.78459" lon="4.40632">
        <ele>1083.5</ele>
        <time>2022-06-09T09:22:36Z</time>
      </trkpt>
      <trkpt lat="44.78461" lon="4.40636">
        <ele>1083.6</ele>
        <time>2022-06-09T09:22:37Z</time>
      </trkpt>
      <trkpt lat="44.78461" lon="4.40637">
        <ele>1083.7</ele>
        <time>2022-06-09T09:22:38Z</time>
      </trkpt>
      <trkpt lat="44.78463" lon="4.40641">
        <ele>1083.8</ele>
        <time>2022-06-09T09:22:39Z</time>
      </trkpt>
      <trkpt lat="44.78464" lon="4.40642">
        <ele>1083.9</ele>
        <time>2022-06-09T09:22:40Z</time>
      </trkpt>
      <trkpt lat="44.78465" lon="4.40645">
        <ele>1084.1</ele>
        <time>2022-06-09T09:22:41Z</time>
      </trkpt>
      <trkpt lat="44.78466" lon="4.40646">
        <ele>1084.1</ele>
        <time>2022-06-09T09:22:42Z</time>
      </trkpt>
      <trkpt lat="44.78468" lon="4.4065">
        <ele>1084.3</ele>
        <time>2022-06-09T09:22:43Z</time>
      </trkpt>
      <trkpt lat="44.78468" lon="4.40652">
        <ele>1084.3</ele>
        <time>2022-06-09T09:22:44Z</time>
      </trkpt>
      <trkpt lat="44.78469" lon="4.40654">
        <ele>1084.4</ele>
        <time>2022-06-09T09:22:45Z</time>
      </trkpt>
      <trkpt lat="44.7847" lon="4.40656">
        <ele>1084.5</ele>
        <time>2022-06-09T09:22:46Z</time>
      </trkpt>
      <trkpt lat="44.7847" lon="4.40658">
        <ele>1084.6</ele>
        <time>2022-06-09T09:22:47Z</time>
      </trkpt>
      <trkpt lat="44.78471" lon="4.4066">
        <ele>1084.7</ele>
        <time>2022-06-09T09:22:48Z</time>
      </trkpt>
      <trkpt lat="44.78472" lon="4.40662">
        <ele>1084.8</ele>
        <time>2022-06-09T09:22:49Z</time>
      </trkpt>
      <trkpt lat="44.78473" lon="4.40664">
        <ele>1084.9</ele>
        <time>2022-06-09T09:22:50Z</time>
      </trkpt>
      <trkpt lat="44.78475" lon="4.40668">
        <ele>1085.1</ele>
        <time>2022-06-09T09:22:51Z</time>
      </trkpt>
      <trkpt lat="44.78477" lon="4.40671">
        <ele>1085.3</ele>
        <time>2022-06-09T09:22:52Z</time>
      </trkpt>
      <trkpt lat="44.78477" lon="4.40673">
        <ele>1085.3</ele>
        <time>2022-06-09T09:22:53Z</time>
      </trkpt>
      <trkpt lat="44.78479" lon="4.40677">
        <ele>1085.5</ele>
        <time>2022-06-09T09:22:54Z</time>
      </trkpt>
      <trkpt lat="44.78479" lon="4.40678">
        <ele>1085.6</ele>
        <time>2022-06-09T09:22:55Z</time>
      </trkpt>
      <trkpt lat="44.78481" lon="4.40683">
        <ele>1085.8</ele>
        <time>2022-06-09T09:22:57Z</time>
      </trkpt>
      <trkpt lat="44.78482" lon="4.40684">
        <ele>1085.9</ele>
        <time>2022-06-09T09:22:58Z</time>
      </trkpt>
      <trkpt lat="44.78484" lon="4.40689">
        <ele>1086.1</ele>
        <time>2022-06-09T09:22:59Z</time>
      </trkpt>
      <trkpt lat="44.78485" lon="4.40693">
        <ele>1086.3</ele>
        <time>2022-06-09T09:23:00Z</time>
      </trkpt>
      <trkpt lat="44.78486" lon="4.40694">
        <ele>1086.3</ele>
        <time>2022-06-09T09:23:01Z</time>
      </trkpt>
      <trkpt lat="44.78488" lon="4.40699">
        <ele>1086.5</ele>
        <time>2022-06-09T09:23:03Z</time>
      </trkpt>
      <trkpt lat="44.78488" lon="4.407">
        <ele>1086.6</ele>
        <time>2022-06-09T09:23:04Z</time>
      </trkpt>
      <trkpt lat="44.7849" lon="4.40704">
        <ele>1086.8</ele>
        <time>2022-06-09T09:23:05Z</time>
      </trkpt>
      <trkpt lat="44.7849" lon="4.40705">
        <ele>1086.8</ele>
        <time>2022-06-09T09:23:06Z</time>
      </trkpt>
      <trkpt lat="44.78491" lon="4.4071">
        <ele>1087</ele>
        <time>2022-06-09T09:23:07Z</time>
      </trkpt>
      <trkpt lat="44.78493" lon="4.40716">
        <ele>1087.2</ele>
        <time>2022-06-09T09:23:10Z</time>
      </trkpt>
      <trkpt lat="44.78494" lon="4.4072">
        <ele>1087.4</ele>
        <time>2022-06-09T09:23:11Z</time>
      </trkpt>
      <trkpt lat="44.78495" lon="4.40724">
        <ele>1087.6</ele>
        <time>2022-06-09T09:23:12Z</time>
      </trkpt>
      <trkpt lat="44.78496" lon="4.40726">
        <ele>1087.6</ele>
        <time>2022-06-09T09:23:13Z</time>
      </trkpt>
      <trkpt lat="44.78496" lon="4.40728">
        <ele>1087.7</ele>
        <time>2022-06-09T09:23:14Z</time>
      </trkpt>
      <trkpt lat="44.78497" lon="4.40733">
        <ele>1087.9</ele>
        <time>2022-06-09T09:23:16Z</time>
      </trkpt>
      <trkpt lat="44.78499" lon="4.40737">
        <ele>1088.1</ele>
        <time>2022-06-09T09:23:17Z</time>
      </trkpt>
      <trkpt lat="44.78499" lon="4.40738">
        <ele>1088.1</ele>
        <time>2022-06-09T09:23:18Z</time>
      </trkpt>
      <trkpt lat="44.785" lon="4.40744">
        <ele>1088.3</ele>
        <time>2022-06-09T09:23:19Z</time>
      </trkpt>
      <trkpt lat="44.78501" lon="4.40746">
        <ele>1088.4</ele>
        <time>2022-06-09T09:23:20Z</time>
      </trkpt>
      <trkpt lat="44.78502" lon="4.40749">
        <ele>1088.5</ele>
        <time>2022-06-09T09:23:21Z</time>
      </trkpt>
      <trkpt lat="44.78503" lon="4.40754">
        <ele>1088.7</ele>
        <time>2022-06-09T09:23:23Z</time>
      </trkpt>
      <trkpt lat="44.78504" lon="4.40758">
        <ele>1088.8</ele>
        <time>2022-06-09T09:23:24Z</time>
      </trkpt>
      <trkpt lat="44.78504" lon="4.4076">
        <ele>1088.9</ele>
        <time>2022-06-09T09:23:25Z</time>
      </trkpt>
      <trkpt lat="44.78505" lon="4.40765">
        <ele>1089.1</ele>
        <time>2022-06-09T09:23:26Z</time>
      </trkpt>
      <trkpt lat="44.78505" lon="4.40766">
        <ele>1089.1</ele>
        <time>2022-06-09T09:23:27Z</time>
      </trkpt>
      <trkpt lat="44.78506" lon="4.40773">
        <ele>1089.3</ele>
        <time>2022-06-09T09:23:28Z</time>
      </trkpt>
      <trkpt lat="44.78507" lon="4.40776">
        <ele>1089.4</ele>
        <time>2022-06-09T09:23:29Z</time>
      </trkpt>
      <trkpt lat="44.78507" lon="4.4078">
        <ele>1089.6</ele>
        <time>2022-06-09T09:23:31Z</time>
      </trkpt>
      <trkpt lat="44.78509" lon="4.40785">
        <ele>1089.8</ele>
        <time>2022-06-09T09:23:32Z</time>
      </trkpt>
      <trkpt lat="44.78509" lon="4.40787">
        <ele>1089.8</ele>
        <time>2022-06-09T09:23:33Z</time>
      </trkpt>
      <trkpt lat="44.7851" lon="4.40793">
        <ele>1090</ele>
        <time>2022-06-09T09:23:34Z</time>
      </trkpt>
      <trkpt lat="44.78511" lon="4.40796">
        <ele>1090.1</ele>
        <time>2022-06-09T09:23:35Z</time>
      </trkpt>
      <trkpt lat="44.78511" lon="4.408">
        <ele>1090.3</ele>
        <time>2022-06-09T09:23:36Z</time>
      </trkpt>
      <trkpt lat="44.78513" lon="4.40805">
        <ele>1090.4</ele>
        <time>2022-06-09T09:23:37Z</time>
      </trkpt>
      <trkpt lat="44.78514" lon="4.4081">
        <ele>1090.6</ele>
        <time>2022-06-09T09:23:39Z</time>
      </trkpt>
      <trkpt lat="44.78514" lon="4.40811">
        <ele>1090.7</ele>
        <time>2022-06-09T09:23:40Z</time>
      </trkpt>
      <trkpt lat="44.78515" lon="4.40816">
        <ele>1090.8</ele>
        <time>2022-06-09T09:23:41Z</time>
      </trkpt>
      <trkpt lat="44.78515" lon="4.40818">
        <ele>1090.9</ele>
        <time>2022-06-09T09:23:42Z</time>
      </trkpt>
      <trkpt lat="44.78516" lon="4.40823">
        <ele>1091.1</ele>
        <time>2022-06-09T09:23:43Z</time>
      </trkpt>
      <trkpt lat="44.78516" lon="4.40825">
        <ele>1091.1</ele>
        <time>2022-06-09T09:23:44Z</time>
      </trkpt>
      <trkpt lat="44.78517" lon="4.4083">
        <ele>1091.3</ele>
        <time>2022-06-09T09:23:45Z</time>
      </trkpt>
      <trkpt lat="44.78517" lon="4.40831">
        <ele>1091.4</ele>
        <time>2022-06-09T09:23:46Z</time>
      </trkpt>
      <trkpt lat="44.78518" lon="4.40838">
        <ele>1091.6</ele>
        <time>2022-06-09T09:23:47Z</time>
      </trkpt>
      <trkpt lat="44.78519" lon="4.40842">
        <ele>1091.7</ele>
        <time>2022-06-09T09:23:49Z</time>
      </trkpt>
      <trkpt lat="44.7852" lon="4.40846">
        <ele>1091.9</ele>
        <time>2022-06-09T09:23:50Z</time>
      </trkpt>
      <trkpt lat="44.78521" lon="4.4085">
        <ele>1092</ele>
        <time>2022-06-09T09:23:51Z</time>
      </trkpt>
      <trkpt lat="44.78522" lon="4.40854">
        <ele>1092.2</ele>
        <time>2022-06-09T09:23:53Z</time>
      </trkpt>
      <trkpt lat="44.78523" lon="4.4086">
        <ele>1092.4</ele>
        <time>2022-06-09T09:23:54Z</time>
      </trkpt>
      <trkpt lat="44.78524" lon="4.40865">
        <ele>1092.6</ele>
        <time>2022-06-09T09:23:55Z</time>
      </trkpt>
      <trkpt lat="44.78524" lon="4.40867">
        <ele>1092.6</ele>
        <time>2022-06-09T09:23:56Z</time>
      </trkpt>
      <trkpt lat="44.78525" lon="4.40871">
        <ele>1092.8</ele>
        <time>2022-06-09T09:23:57Z</time>
      </trkpt>
      <trkpt lat="44.78525" lon="4.40875">
        <ele>1092.9</ele>
        <time>2022-06-09T09:23:58Z</time>
      </trkpt>
      <trkpt lat="44.78526" lon="4.40879">
        <ele>1093</ele>
        <time>2022-06-09T09:23:59Z</time>
      </trkpt>
      <trkpt lat="44.78526" lon="4.40885">
        <ele>1093.2</ele>
        <time>2022-06-09T09:24:01Z</time>
      </trkpt>
      <trkpt lat="44.78527" lon="4.40887">
        <ele>1093.3</ele>
        <time>2022-06-09T09:24:02Z</time>
      </trkpt>
      <trkpt lat="44.78527" lon="4.40893">
        <ele>1093.5</ele>
        <time>2022-06-09T09:24:03Z</time>
      </trkpt>
      <trkpt lat="44.78528" lon="4.40895">
        <ele>1093.5</ele>
        <time>2022-06-09T09:24:04Z</time>
      </trkpt>
      <trkpt lat="44.78528" lon="4.40899">
        <ele>1093.7</ele>
        <time>2022-06-09T09:24:05Z</time>
      </trkpt>
      <trkpt lat="44.7853" lon="4.40906">
        <ele>1093.9</ele>
        <time>2022-06-09T09:24:07Z</time>
      </trkpt>
      <trkpt lat="44.7853" lon="4.4091">
        <ele>1094</ele>
        <time>2022-06-09T09:24:08Z</time>
      </trkpt>
      <trkpt lat="44.78531" lon="4.40914">
        <ele>1094.1</ele>
        <time>2022-06-09T09:24:10Z</time>
      </trkpt>
      <trkpt lat="44.78532" lon="4.40918">
        <ele>1094.3</ele>
        <time>2022-06-09T09:24:11Z</time>
      </trkpt>
      <trkpt lat="44.78532" lon="4.40922">
        <ele>1094.4</ele>
        <time>2022-06-09T09:24:12Z</time>
      </trkpt>
      <trkpt lat="44.78533" lon="4.40928">
        <ele>1094.6</ele>
        <time>2022-06-09T09:24:14Z</time>
      </trkpt>
      <trkpt lat="44.78534" lon="4.40931">
        <ele>1094.7</ele>
        <time>2022-06-09T09:24:15Z</time>
      </trkpt>
      <trkpt lat="44.78534" lon="4.40933">
        <ele>1094.8</ele>
        <time>2022-06-09T09:24:16Z</time>
      </trkpt>
      <trkpt lat="44.78535" lon="4.40937">
        <ele>1095</ele>
        <time>2022-06-09T09:24:17Z</time>
      </trkpt>
      <trkpt lat="44.78535" lon="4.40941">
        <ele>1095.1</ele>
        <time>2022-06-09T09:24:18Z</time>
      </trkpt>
      <trkpt lat="44.78536" lon="4.40946">
        <ele>1095.3</ele>
        <time>2022-06-09T09:24:20Z</time>
      </trkpt>
      <trkpt lat="44.78536" lon="4.40947">
        <ele>1095.4</ele>
        <time>2022-06-09T09:24:21Z</time>
      </trkpt>
      <trkpt lat="44.78537" lon="4.40952">
        <ele>1095.6</ele>
        <time>2022-06-09T09:24:22Z</time>
      </trkpt>
      <trkpt lat="44.78538" lon="4.40953">
        <ele>1095.6</ele>
        <time>2022-06-09T09:24:23Z</time>
      </trkpt>
      <trkpt lat="44.78538" lon="4.40957">
        <ele>1095.8</ele>
        <time>2022-06-09T09:24:24Z</time>
      </trkpt>
      <trkpt lat="44.7854" lon="4.40962">
        <ele>1096</ele>
        <time>2022-06-09T09:24:26Z</time>
      </trkpt>
      <trkpt lat="44.78541" lon="4.40966">
        <ele>1096.2</ele>
        <time>2022-06-09T09:24:27Z</time>
      </trkpt>
      <trkpt lat="44.78543" lon="4.4097">
        <ele>1096.4</ele>
        <time>2022-06-09T09:24:28Z</time>
      </trkpt>
      <trkpt lat="44.78544" lon="4.40972">
        <ele>1096.5</ele>
        <time>2022-06-09T09:24:29Z</time>
      </trkpt>
      <trkpt lat="44.78546" lon="4.40976">
        <ele>1096.7</ele>
        <time>2022-06-09T09:24:31Z</time>
      </trkpt>
      <trkpt lat="44.78547" lon="4.40977">
        <ele>1096.8</ele>
        <time>2022-06-09T09:24:32Z</time>
      </trkpt>
      <trkpt lat="44.78549" lon="4.4098">
        <ele>1097</ele>
        <time>2022-06-09T09:24:33Z</time>
      </trkpt>
      <trkpt lat="44.7855" lon="4.40981">
        <ele>1097</ele>
        <time>2022-06-09T09:24:34Z</time>
      </trkpt>
      <trkpt lat="44.78553" lon="4.40983">
        <ele>1097.2</ele>
        <time>2022-06-09T09:24:35Z</time>
      </trkpt>
      <trkpt lat="44.78556" lon="4.40986">
        <ele>1097.4</ele>
        <time>2022-06-09T09:24:36Z</time>
      </trkpt>
      <trkpt lat="44.78562" lon="4.40987">
        <ele>1097.6</ele>
        <time>2022-06-09T09:24:38Z</time>
      </trkpt>
      <trkpt lat="44.78564" lon="4.40988">
        <ele>1097.7</ele>
        <time>2022-06-09T09:24:39Z</time>
      </trkpt>
      <trkpt lat="44.78566" lon="4.40988">
        <ele>1097.8</ele>
        <time>2022-06-09T09:24:40Z</time>
      </trkpt>
      <trkpt lat="44.78569" lon="4.40987">
        <ele>1097.9</ele>
        <time>2022-06-09T09:24:42Z</time>
      </trkpt>
      <trkpt lat="44.78572" lon="4.40986">
        <ele>1097.9</ele>
        <time>2022-06-09T09:24:43Z</time>
      </trkpt>
      <trkpt lat="44.78576" lon="4.40984">
        <ele>1098</ele>
        <time>2022-06-09T09:24:44Z</time>
      </trkpt>
      <trkpt lat="44.7858" lon="4.40982">
        <ele>1098</ele>
        <time>2022-06-09T09:24:45Z</time>
      </trkpt>
      <trkpt lat="44.78583" lon="4.40978">
        <ele>1098.1</ele>
        <time>2022-06-09T09:24:47Z</time>
      </trkpt>
      <trkpt lat="44.78586" lon="4.40976">
        <ele>1098.1</ele>
        <time>2022-06-09T09:24:48Z</time>
      </trkpt>
      <trkpt lat="44.78588" lon="4.40972">
        <ele>1098.1</ele>
        <time>2022-06-09T09:24:50Z</time>
      </trkpt>
      <trkpt lat="44.7859" lon="4.40968">
        <ele>1098.2</ele>
        <time>2022-06-09T09:24:51Z</time>
      </trkpt>
      <trkpt lat="44.78593" lon="4.40964">
        <ele>1098.2</ele>
        <time>2022-06-09T09:24:52Z</time>
      </trkpt>
      <trkpt lat="44.78595" lon="4.40962">
        <ele>1098.2</ele>
        <time>2022-06-09T09:24:53Z</time>
      </trkpt>
      <trkpt lat="44.78597" lon="4.40958">
        <ele>1098.3</ele>
        <time>2022-06-09T09:24:54Z</time>
      </trkpt>
      <trkpt lat="44.786" lon="4.40953">
        <ele>1098.3</ele>
        <time>2022-06-09T09:24:56Z</time>
      </trkpt>
      <trkpt lat="44.78603" lon="4.40949">
        <ele>1098.4</ele>
        <time>2022-06-09T09:24:58Z</time>
      </trkpt>
      <trkpt lat="44.78605" lon="4.40946">
        <ele>1098.4</ele>
        <time>2022-06-09T09:24:59Z</time>
      </trkpt>
      <trkpt lat="44.78609" lon="4.4094">
        <ele>1098.6</ele>
        <time>2022-06-09T09:25:01Z</time>
      </trkpt>
      <trkpt lat="44.78613" lon="4.40934">
        <ele>1098.7</ele>
        <time>2022-06-09T09:25:03Z</time>
      </trkpt>
      <trkpt lat="44.78614" lon="4.40932">
        <ele>1098.7</ele>
        <time>2022-06-09T09:25:04Z</time>
      </trkpt>
      <trkpt lat="44.78616" lon="4.40929">
        <ele>1098.8</ele>
        <time>2022-06-09T09:25:06Z</time>
      </trkpt>
      <trkpt lat="44.78619" lon="4.40925">
        <ele>1098.9</ele>
        <time>2022-06-09T09:25:07Z</time>
      </trkpt>
      <trkpt lat="44.7862" lon="4.40923">
        <ele>1098.9</ele>
        <time>2022-06-09T09:25:08Z</time>
      </trkpt>
      <trkpt lat="44.78623" lon="4.40919">
        <ele>1099</ele>
        <time>2022-06-09T09:25:09Z</time>
      </trkpt>
      <trkpt lat="44.78624" lon="4.40917">
        <ele>1099.1</ele>
        <time>2022-06-09T09:25:10Z</time>
      </trkpt>
      <trkpt lat="44.78626" lon="4.40915">
        <ele>1099.2</ele>
        <time>2022-06-09T09:25:11Z</time>
      </trkpt>
      <trkpt lat="44.78628" lon="4.40913">
        <ele>1099.2</ele>
        <time>2022-06-09T09:25:12Z</time>
      </trkpt>
      <trkpt lat="44.78631" lon="4.40908">
        <ele>1099.4</ele>
        <time>2022-06-09T09:25:14Z</time>
      </trkpt>
      <trkpt lat="44.78634" lon="4.40904">
        <ele>1099.5</ele>
        <time>2022-06-09T09:25:16Z</time>
      </trkpt>
      <trkpt lat="44.78637" lon="4.40899">
        <ele>1099.7</ele>
        <time>2022-06-09T09:25:18Z</time>
      </trkpt>
      <trkpt lat="44.78638" lon="4.40896">
        <ele>1099.8</ele>
        <time>2022-06-09T09:25:20Z</time>
      </trkpt>
      <trkpt lat="44.78641" lon="4.40892">
        <ele>1099.9</ele>
        <time>2022-06-09T09:25:21Z</time>
      </trkpt>
      <trkpt lat="44.78641" lon="4.40891">
        <ele>1100</ele>
        <time>2022-06-09T09:25:22Z</time>
      </trkpt>
      <trkpt lat="44.78643" lon="4.40888">
        <ele>1100.1</ele>
        <time>2022-06-09T09:25:23Z</time>
      </trkpt>
      <trkpt lat="44.78644" lon="4.40887">
        <ele>1100.1</ele>
        <time>2022-06-09T09:25:24Z</time>
      </trkpt>
      <trkpt lat="44.78646" lon="4.40881">
        <ele>1100.3</ele>
        <time>2022-06-09T09:25:25Z</time>
      </trkpt>
      <trkpt lat="44.78648" lon="4.40876">
        <ele>1100.5</ele>
        <time>2022-06-09T09:25:27Z</time>
      </trkpt>
      <trkpt lat="44.78648" lon="4.40875">
        <ele>1100.5</ele>
        <time>2022-06-09T09:25:28Z</time>
      </trkpt>
      <trkpt lat="44.7865" lon="4.4087">
        <ele>1100.7</ele>
        <time>2022-06-09T09:25:29Z</time>
      </trkpt>
      <trkpt lat="44.7865" lon="4.40868">
        <ele>1100.7</ele>
        <time>2022-06-09T09:25:30Z</time>
      </trkpt>
      <trkpt lat="44.78652" lon="4.40862">
        <ele>1100.9</ele>
        <time>2022-06-09T09:25:31Z</time>
      </trkpt>
      <trkpt lat="44.78653" lon="4.40855">
        <ele>1101.1</ele>
        <time>2022-06-09T09:25:33Z</time>
      </trkpt>
      <trkpt lat="44.78654" lon="4.40851">
        <ele>1101.2</ele>
        <time>2022-06-09T09:25:35Z</time>
      </trkpt>
      <trkpt lat="44.78654" lon="4.40846">
        <ele>1101.4</ele>
        <time>2022-06-09T09:25:36Z</time>
      </trkpt>
      <trkpt lat="44.78654" lon="4.40845">
        <ele>1101.4</ele>
        <time>2022-06-09T09:25:37Z</time>
      </trkpt>
      <trkpt lat="44.78655" lon="4.40839">
        <ele>1101.5</ele>
        <time>2022-06-09T09:25:38Z</time>
      </trkpt>
      <trkpt lat="44.78655" lon="4.40837">
        <ele>1101.6</ele>
        <time>2022-06-09T09:25:39Z</time>
      </trkpt>
      <trkpt lat="44.78656" lon="4.40832">
        <ele>1101.7</ele>
        <time>2022-06-09T09:25:40Z</time>
      </trkpt>
      <trkpt lat="44.78656" lon="4.4083">
        <ele>1101.8</ele>
        <time>2022-06-09T09:25:41Z</time>
      </trkpt>
      <trkpt lat="44.78657" lon="4.40825">
        <ele>1101.9</ele>
        <time>2022-06-09T09:25:42Z</time>
      </trkpt>
      <trkpt lat="44.78657" lon="4.40824">
        <ele>1101.9</ele>
        <time>2022-06-09T09:25:43Z</time>
      </trkpt>
      <trkpt lat="44.78658" lon="4.40819">
        <ele>1102</ele>
        <time>2022-06-09T09:25:44Z</time>
      </trkpt>
      <trkpt lat="44.78658" lon="4.40818">
        <ele>1102</ele>
        <time>2022-06-09T09:25:45Z</time>
      </trkpt>
      <trkpt lat="44.78658" lon="4.40813">
        <ele>1102.2</ele>
        <time>2022-06-09T09:25:46Z</time>
      </trkpt>
      <trkpt lat="44.78659" lon="4.40811">
        <ele>1102.2</ele>
        <time>2022-06-09T09:25:47Z</time>
      </trkpt>
      <trkpt lat="44.78659" lon="4.40807">
        <ele>1102.3</ele>
        <time>2022-06-09T09:25:48Z</time>
      </trkpt>
      <trkpt lat="44.7866" lon="4.40802">
        <ele>1102.4</ele>
        <time>2022-06-09T09:25:50Z</time>
      </trkpt>
      <trkpt lat="44.78661" lon="4.40795">
        <ele>1102.5</ele>
        <time>2022-06-09T09:25:51Z</time>
      </trkpt>
      <trkpt lat="44.78662" lon="4.40792">
        <ele>1102.6</ele>
        <time>2022-06-09T09:25:52Z</time>
      </trkpt>
      <trkpt lat="44.78662" lon="4.40788">
        <ele>1102.7</ele>
        <time>2022-06-09T09:25:54Z</time>
      </trkpt>
      <trkpt lat="44.78663" lon="4.40785">
        <ele>1102.8</ele>
        <time>2022-06-09T09:25:55Z</time>
      </trkpt>
      <trkpt lat="44.78664" lon="4.40777">
        <ele>1103</ele>
        <time>2022-06-09T09:25:57Z</time>
      </trkpt>
      <trkpt lat="44.78665" lon="4.40771">
        <ele>1103.1</ele>
        <time>2022-06-09T09:25:58Z</time>
      </trkpt>
      <trkpt lat="44.78667" lon="4.40765">
        <ele>1103.3</ele>
        <time>2022-06-09T09:26:00Z</time>
      </trkpt>
      <trkpt lat="44.78667" lon="4.40763">
        <ele>1103.4</ele>
        <time>2022-06-09T09:26:01Z</time>
      </trkpt>
      <trkpt lat="44.78667" lon="4.4076">
        <ele>1103.4</ele>
        <time>2022-06-09T09:26:02Z</time>
      </trkpt>
      <trkpt lat="44.78668" lon="4.40754">
        <ele>1103.6</ele>
        <time>2022-06-09T09:26:03Z</time>
      </trkpt>
      <trkpt lat="44.78668" lon="4.40751">
        <ele>1103.7</ele>
        <time>2022-06-09T09:26:04Z</time>
      </trkpt>
      <trkpt lat="44.78669" lon="4.40747">
        <ele>1103.8</ele>
        <time>2022-06-09T09:26:06Z</time>
      </trkpt>
      <trkpt lat="44.7867" lon="4.40742">
        <ele>1104</ele>
        <time>2022-06-09T09:26:07Z</time>
      </trkpt>
      <trkpt lat="44.7867" lon="4.4074">
        <ele>1104.1</ele>
        <time>2022-06-09T09:26:08Z</time>
      </trkpt>
      <trkpt lat="44.78671" lon="4.40735">
        <ele>1104.2</ele>
        <time>2022-06-09T09:26:09Z</time>
      </trkpt>
      <trkpt lat="44.78672" lon="4.40733">
        <ele>1104.3</ele>
        <time>2022-06-09T09:26:10Z</time>
      </trkpt>
      <trkpt lat="44.78672" lon="4.40728">
        <ele>1104.4</ele>
        <time>2022-06-09T09:26:11Z</time>
      </trkpt>
      <trkpt lat="44.78673" lon="4.40727">
        <ele>1104.5</ele>
        <time>2022-06-09T09:26:12Z</time>
      </trkpt>
      <trkpt lat="44.78673" lon="4.40721">
        <ele>1104.7</ele>
        <time>2022-06-09T09:26:13Z</time>
      </trkpt>
      <trkpt lat="44.78673" lon="4.40719">
        <ele>1104.7</ele>
        <time>2022-06-09T09:26:14Z</time>
      </trkpt>
      <trkpt lat="44.78674" lon="4.40715">
        <ele>1104.9</ele>
        <time>2022-06-09T09:26:15Z</time>
      </trkpt>
      <trkpt lat="44.78675" lon="4.40711">
        <ele>1105</ele>
        <time>2022-06-09T09:26:17Z</time>
      </trkpt>
      <trkpt lat="44.78676" lon="4.40704">
        <ele>1105.2</ele>
        <time>2022-06-09T09:26:18Z</time>
      </trkpt>
      <trkpt lat="44.78676" lon="4.40701">
        <ele>1105.4</ele>
        <time>2022-06-09T09:26:19Z</time>
      </trkpt>
      <trkpt lat="44.78677" lon="4.40697">
        <ele>1105.5</ele>
        <time>2022-06-09T09:26:21Z</time>
      </trkpt>
      <trkpt lat="44.78677" lon="4.40692">
        <ele>1105.7</ele>
        <time>2022-06-09T09:26:22Z</time>
      </trkpt>
      <trkpt lat="44.78678" lon="4.40687">
        <ele>1105.8</ele>
        <time>2022-06-09T09:26:23Z</time>
      </trkpt>
      <trkpt lat="44.78678" lon="4.40681">
        <ele>1106</ele>
        <time>2022-06-09T09:26:25Z</time>
      </trkpt>
      <trkpt lat="44.78678" lon="4.40676">
        <ele>1106.2</ele>
        <time>2022-06-09T09:26:26Z</time>
      </trkpt>
      <trkpt lat="44.78678" lon="4.40671">
        <ele>1106.3</ele>
        <time>2022-06-09T09:26:27Z</time>
      </trkpt>
      <trkpt lat="44.78678" lon="4.40667">
        <ele>1106.5</ele>
        <time>2022-06-09T09:26:28Z</time>
      </trkpt>
      <trkpt lat="44.78679" lon="4.4066">
        <ele>1106.7</ele>
        <time>2022-06-09T09:26:30Z</time>
      </trkpt>
      <trkpt lat="44.78679" lon="4.40656">
        <ele>1106.8</ele>
        <time>2022-06-09T09:26:32Z</time>
      </trkpt>
      <trkpt lat="44.78681" lon="4.40648">
        <ele>1107</ele>
        <time>2022-06-09T09:26:33Z</time>
      </trkpt>
      <trkpt lat="44.78681" lon="4.40645">
        <ele>1107.2</ele>
        <time>2022-06-09T09:26:35Z</time>
      </trkpt>
      <trkpt lat="44.78682" lon="4.40639">
        <ele>1107.3</ele>
        <time>2022-06-09T09:26:36Z</time>
      </trkpt>
      <trkpt lat="44.78682" lon="4.40638">
        <ele>1107.4</ele>
        <time>2022-06-09T09:26:37Z</time>
      </trkpt>
      <trkpt lat="44.78682" lon="4.40633">
        <ele>1107.5</ele>
        <time>2022-06-09T09:26:38Z</time>
      </trkpt>
      <trkpt lat="44.78682" lon="4.40628">
        <ele>1107.7</ele>
        <time>2022-06-09T09:26:39Z</time>
      </trkpt>
      <trkpt lat="44.78682" lon="4.40627">
        <ele>1107.7</ele>
        <time>2022-06-09T09:26:40Z</time>
      </trkpt>
      <trkpt lat="44.78683" lon="4.40621">
        <ele>1107.9</ele>
        <time>2022-06-09T09:26:41Z</time>
      </trkpt>
      <trkpt lat="44.78683" lon="4.40616">
        <ele>1108</ele>
        <time>2022-06-09T09:26:42Z</time>
      </trkpt>
      <trkpt lat="44.78684" lon="4.40613">
        <ele>1108.1</ele>
        <time>2022-06-09T09:26:44Z</time>
      </trkpt>
      <trkpt lat="44.78684" lon="4.40608">
        <ele>1108.3</ele>
        <time>2022-06-09T09:26:45Z</time>
      </trkpt>
      <trkpt lat="44.78685" lon="4.40604">
        <ele>1108.4</ele>
        <time>2022-06-09T09:26:46Z</time>
      </trkpt>
      <trkpt lat="44.78685" lon="4.40602">
        <ele>1108.4</ele>
        <time>2022-06-09T09:26:47Z</time>
      </trkpt>
      <trkpt lat="44.78685" lon="4.40598">
        <ele>1108.5</ele>
        <time>2022-06-09T09:26:48Z</time>
      </trkpt>
      <trkpt lat="44.78686" lon="4.40595">
        <ele>1108.6</ele>
        <time>2022-06-09T09:26:49Z</time>
      </trkpt>
      <trkpt lat="44.78686" lon="4.40592">
        <ele>1108.7</ele>
        <time>2022-06-09T09:26:51Z</time>
      </trkpt>
      <trkpt lat="44.78687" lon="4.40587">
        <ele>1108.9</ele>
        <time>2022-06-09T09:26:52Z</time>
      </trkpt>
      <trkpt lat="44.78687" lon="4.40585">
        <ele>1108.9</ele>
        <time>2022-06-09T09:26:53Z</time>
      </trkpt>
      <trkpt lat="44.78688" lon="4.4058">
        <ele>1109.1</ele>
        <time>2022-06-09T09:26:54Z</time>
      </trkpt>
      <trkpt lat="44.78689" lon="4.40578">
        <ele>1109.1</ele>
        <time>2022-06-09T09:26:55Z</time>
      </trkpt>
      <trkpt lat="44.7869" lon="4.40572">
        <ele>1109.4</ele>
        <time>2022-06-09T09:26:56Z</time>
      </trkpt>
      <trkpt lat="44.78691" lon="4.40566">
        <ele>1109.6</ele>
        <time>2022-06-09T09:26:58Z</time>
      </trkpt>
      <trkpt lat="44.78692" lon="4.40564">
        <ele>1109.6</ele>
        <time>2022-06-09T09:26:59Z</time>
      </trkpt>
      <trkpt lat="44.78692" lon="4.40561">
        <ele>1109.7</ele>
        <time>2022-06-09T09:27:00Z</time>
      </trkpt>
      <trkpt lat="44.78693" lon="4.40556">
        <ele>1109.8</ele>
        <time>2022-06-09T09:27:01Z</time>
      </trkpt>
      <trkpt lat="44.78693" lon="4.40555">
        <ele>1109.9</ele>
        <time>2022-06-09T09:27:02Z</time>
      </trkpt>
      <trkpt lat="44.78694" lon="4.4055">
        <ele>1110</ele>
        <time>2022-06-09T09:27:03Z</time>
      </trkpt>
      <trkpt lat="44.78694" lon="4.40549">
        <ele>1110.1</ele>
        <time>2022-06-09T09:27:04Z</time>
      </trkpt>
      <trkpt lat="44.78695" lon="4.40544">
        <ele>1110.2</ele>
        <time>2022-06-09T09:27:05Z</time>
      </trkpt>
      <trkpt lat="44.78695" lon="4.40542">
        <ele>1110.3</ele>
        <time>2022-06-09T09:27:06Z</time>
      </trkpt>
      <trkpt lat="44.78697" lon="4.40537">
        <ele>1110.4</ele>
        <time>2022-06-09T09:27:07Z</time>
      </trkpt>
      <trkpt lat="44.78697" lon="4.40536">
        <ele>1110.5</ele>
        <time>2022-06-09T09:27:08Z</time>
      </trkpt>
      <trkpt lat="44.78697" lon="4.4053">
        <ele>1110.6</ele>
        <time>2022-06-09T09:27:09Z</time>
      </trkpt>
      <trkpt lat="44.78697" lon="4.40528">
        <ele>1110.7</ele>
        <time>2022-06-09T09:27:10Z</time>
      </trkpt>
      <trkpt lat="44.78698" lon="4.40523">
        <ele>1110.8</ele>
        <time>2022-06-09T09:27:11Z</time>
      </trkpt>
      <trkpt lat="44.78698" lon="4.40521">
        <ele>1110.9</ele>
        <time>2022-06-09T09:27:12Z</time>
      </trkpt>
      <trkpt lat="44.78699" lon="4.40514">
        <ele>1111.1</ele>
        <time>2022-06-09T09:27:13Z</time>
      </trkpt>
      <trkpt lat="44.787" lon="4.40508">
        <ele>1111.3</ele>
        <time>2022-06-09T09:27:15Z</time>
      </trkpt>
      <trkpt lat="44.787" lon="4.40505">
        <ele>1111.4</ele>
        <time>2022-06-09T09:27:16Z</time>
      </trkpt>
      <trkpt lat="44.78701" lon="4.405">
        <ele>1111.6</ele>
        <time>2022-06-09T09:27:17Z</time>
      </trkpt>
      <trkpt lat="44.78701" lon="4.40495">
        <ele>1111.8</ele>
        <time>2022-06-09T09:27:19Z</time>
      </trkpt>
      <trkpt lat="44.78701" lon="4.40489">
        <ele>1112</ele>
        <time>2022-06-09T09:27:20Z</time>
      </trkpt>
      <trkpt lat="44.78702" lon="4.40484">
        <ele>1112.1</ele>
        <time>2022-06-09T09:27:22Z</time>
      </trkpt>
      <trkpt lat="44.78701" lon="4.4048">
        <ele>1112.3</ele>
        <time>2022-06-09T09:27:23Z</time>
      </trkpt>
      <trkpt lat="44.78701" lon="4.40472">
        <ele>1112.5</ele>
        <time>2022-06-09T09:27:24Z</time>
      </trkpt>
      <trkpt lat="44.78701" lon="4.40466">
        <ele>1112.7</ele>
        <time>2022-06-09T09:27:25Z</time>
      </trkpt>
      <trkpt lat="44.78701" lon="4.40464">
        <ele>1112.7</ele>
        <time>2022-06-09T09:27:26Z</time>
      </trkpt>
      <trkpt lat="44.78701" lon="4.40459">
        <ele>1112.9</ele>
        <time>2022-06-09T09:27:28Z</time>
      </trkpt>
      <trkpt lat="44.78701" lon="4.40457">
        <ele>1113</ele>
        <time>2022-06-09T09:27:29Z</time>
      </trkpt>
      <trkpt lat="44.78701" lon="4.40452">
        <ele>1113.1</ele>
        <time>2022-06-09T09:27:31Z</time>
      </trkpt>
      <trkpt lat="44.78701" lon="4.40448">
        <ele>1113.3</ele>
        <time>2022-06-09T09:27:32Z</time>
      </trkpt>
      <trkpt lat="44.787" lon="4.40442">
        <ele>1113.4</ele>
        <time>2022-06-09T09:27:33Z</time>
      </trkpt>
      <trkpt lat="44.78701" lon="4.4044">
        <ele>1113.5</ele>
        <time>2022-06-09T09:27:34Z</time>
      </trkpt>
      <trkpt lat="44.78701" lon="4.40436">
        <ele>1113.6</ele>
        <time>2022-06-09T09:27:36Z</time>
      </trkpt>
      <trkpt lat="44.78701" lon="4.40435">
        <ele>1113.7</ele>
        <time>2022-06-09T09:27:37Z</time>
      </trkpt>
      <trkpt lat="44.787" lon="4.40429">
        <ele>1113.8</ele>
        <time>2022-06-09T09:27:38Z</time>
      </trkpt>
      <trkpt lat="44.787" lon="4.40428">
        <ele>1113.9</ele>
        <time>2022-06-09T09:27:39Z</time>
      </trkpt>
      <trkpt lat="44.78701" lon="4.40423">
        <ele>1114.1</ele>
        <time>2022-06-09T09:27:41Z</time>
      </trkpt>
      <trkpt lat="44.78701" lon="4.40421">
        <ele>1114.1</ele>
        <time>2022-06-09T09:27:42Z</time>
      </trkpt>
      <trkpt lat="44.78701" lon="4.40415">
        <ele>1114.3</ele>
        <time>2022-06-09T09:27:43Z</time>
      </trkpt>
      <trkpt lat="44.78701" lon="4.40408">
        <ele>1114.5</ele>
        <time>2022-06-09T09:27:45Z</time>
      </trkpt>
      <trkpt lat="44.78701" lon="4.40405">
        <ele>1114.6</ele>
        <time>2022-06-09T09:27:46Z</time>
      </trkpt>
      <trkpt lat="44.78701" lon="4.40401">
        <ele>1114.8</ele>
        <time>2022-06-09T09:27:48Z</time>
      </trkpt>
      <trkpt lat="44.78701" lon="4.40396">
        <ele>1114.9</ele>
        <time>2022-06-09T09:27:49Z</time>
      </trkpt>
      <trkpt lat="44.78701" lon="4.40394">
        <ele>1115</ele>
        <time>2022-06-09T09:27:50Z</time>
      </trkpt>
      <trkpt lat="44.78701" lon="4.4039">
        <ele>1115.1</ele>
        <time>2022-06-09T09:27:51Z</time>
      </trkpt>
      <trkpt lat="44.78701" lon="4.40388">
        <ele>1115.2</ele>
        <time>2022-06-09T09:27:52Z</time>
      </trkpt>
      <trkpt lat="44.78701" lon="4.40384">
        <ele>1115.3</ele>
        <time>2022-06-09T09:27:53Z</time>
      </trkpt>
      <trkpt lat="44.78701" lon="4.40378">
        <ele>1115.5</ele>
        <time>2022-06-09T09:27:55Z</time>
      </trkpt>
      <trkpt lat="44.78701" lon="4.40371">
        <ele>1115.7</ele>
        <time>2022-06-09T09:27:57Z</time>
      </trkpt>
      <trkpt lat="44.78702" lon="4.40367">
        <ele>1115.8</ele>
        <time>2022-06-09T09:27:58Z</time>
      </trkpt>
      <trkpt lat="44.78703" lon="4.40362">
        <ele>1116</ele>
        <time>2022-06-09T09:27:59Z</time>
      </trkpt>
      <trkpt lat="44.78703" lon="4.40357">
        <ele>1116.1</ele>
        <time>2022-06-09T09:28:00Z</time>
      </trkpt>
      <trkpt lat="44.78703" lon="4.40356">
        <ele>1116.1</ele>
        <time>2022-06-09T09:28:01Z</time>
      </trkpt>
      <trkpt lat="44.78703" lon="4.40351">
        <ele>1116.3</ele>
        <time>2022-06-09T09:28:02Z</time>
      </trkpt>
      <trkpt lat="44.78704" lon="4.4035">
        <ele>1116.3</ele>
        <time>2022-06-09T09:28:03Z</time>
      </trkpt>
      <trkpt lat="44.78705" lon="4.40345">
        <ele>1116.4</ele>
        <time>2022-06-09T09:28:05Z</time>
      </trkpt>
      <trkpt lat="44.78705" lon="4.40343">
        <ele>1116.5</ele>
        <time>2022-06-09T09:28:06Z</time>
      </trkpt>
      <trkpt lat="44.78706" lon="4.40337">
        <ele>1116.6</ele>
        <time>2022-06-09T09:28:07Z</time>
      </trkpt>
      <trkpt lat="44.78706" lon="4.40335">
        <ele>1116.7</ele>
        <time>2022-06-09T09:28:08Z</time>
      </trkpt>
      <trkpt lat="44.78707" lon="4.40331">
        <ele>1116.8</ele>
        <time>2022-06-09T09:28:10Z</time>
      </trkpt>
      <trkpt lat="44.78707" lon="4.40329">
        <ele>1116.8</ele>
        <time>2022-06-09T09:28:11Z</time>
      </trkpt>
      <trkpt lat="44.78708" lon="4.40325">
        <ele>1116.9</ele>
        <time>2022-06-09T09:28:12Z</time>
      </trkpt>
      <trkpt lat="44.78709" lon="4.4032">
        <ele>1117.1</ele>
        <time>2022-06-09T09:28:13Z</time>
      </trkpt>
      <trkpt lat="44.78709" lon="4.40318">
        <ele>1117.1</ele>
        <time>2022-06-09T09:28:14Z</time>
      </trkpt>
      <trkpt lat="44.78709" lon="4.40314">
        <ele>1117.2</ele>
        <time>2022-06-09T09:28:15Z</time>
      </trkpt>
      <trkpt lat="44.7871" lon="4.4031">
        <ele>1117.3</ele>
        <time>2022-06-09T09:28:16Z</time>
      </trkpt>
      <trkpt lat="44.7871" lon="4.40304">
        <ele>1117.5</ele>
        <time>2022-06-09T09:28:18Z</time>
      </trkpt>
      <trkpt lat="44.78711" lon="4.40302">
        <ele>1117.6</ele>
        <time>2022-06-09T09:28:19Z</time>
      </trkpt>
      <trkpt lat="44.78711" lon="4.403">
        <ele>1117.6</ele>
        <time>2022-06-09T09:28:20Z</time>
      </trkpt>
      <trkpt lat="44.78712" lon="4.40295">
        <ele>1117.8</ele>
        <time>2022-06-09T09:28:21Z</time>
      </trkpt>
      <trkpt lat="44.78712" lon="4.40294">
        <ele>1117.8</ele>
        <time>2022-06-09T09:28:22Z</time>
      </trkpt>
      <trkpt lat="44.78713" lon="4.40289">
        <ele>1117.9</ele>
        <time>2022-06-09T09:28:23Z</time>
      </trkpt>
      <trkpt lat="44.78713" lon="4.40288">
        <ele>1118</ele>
        <time>2022-06-09T09:28:24Z</time>
      </trkpt>
      <trkpt lat="44.78714" lon="4.40282">
        <ele>1118.2</ele>
        <time>2022-06-09T09:28:25Z</time>
      </trkpt>
      <trkpt lat="44.78714" lon="4.4028">
        <ele>1118.2</ele>
        <time>2022-06-09T09:28:26Z</time>
      </trkpt>
      <trkpt lat="44.78715" lon="4.40275">
        <ele>1118.4</ele>
        <time>2022-06-09T09:28:28Z</time>
      </trkpt>
      <trkpt lat="44.78717" lon="4.40269">
        <ele>1118.6</ele>
        <time>2022-06-09T09:28:29Z</time>
      </trkpt>
      <trkpt lat="44.78718" lon="4.40265">
        <ele>1118.7</ele>
        <time>2022-06-09T09:28:30Z</time>
      </trkpt>
      <trkpt lat="44.78718" lon="4.40263">
        <ele>1118.7</ele>
        <time>2022-06-09T09:28:31Z</time>
      </trkpt>
      <trkpt lat="44.78719" lon="4.40258">
        <ele>1118.9</ele>
        <time>2022-06-09T09:28:33Z</time>
      </trkpt>
      <trkpt lat="44.78719" lon="4.40257">
        <ele>1119</ele>
        <time>2022-06-09T09:28:34Z</time>
      </trkpt>
      <trkpt lat="44.7872" lon="4.40253">
        <ele>1119.1</ele>
        <time>2022-06-09T09:28:35Z</time>
      </trkpt>
      <trkpt lat="44.78721" lon="4.40252">
        <ele>1119.1</ele>
        <time>2022-06-09T09:28:36Z</time>
      </trkpt>
      <trkpt lat="44.78722" lon="4.40247">
        <ele>1119.3</ele>
        <time>2022-06-09T09:28:37Z</time>
      </trkpt>
      <trkpt lat="44.78723" lon="4.40246">
        <ele>1119.3</ele>
        <time>2022-06-09T09:28:38Z</time>
      </trkpt>
      <trkpt lat="44.78723" lon="4.40242">
        <ele>1119.5</ele>
        <time>2022-06-09T09:28:39Z</time>
      </trkpt>
      <trkpt lat="44.78724" lon="4.4024">
        <ele>1119.5</ele>
        <time>2022-06-09T09:28:40Z</time>
      </trkpt>
      <trkpt lat="44.78724" lon="4.40235">
        <ele>1119.7</ele>
        <time>2022-06-09T09:28:41Z</time>
      </trkpt>
      <trkpt lat="44.78724" lon="4.40234">
        <ele>1119.7</ele>
        <time>2022-06-09T09:28:42Z</time>
      </trkpt>
      <trkpt lat="44.78725" lon="4.40229">
        <ele>1119.9</ele>
        <time>2022-06-09T09:28:43Z</time>
      </trkpt>
      <trkpt lat="44.78727" lon="4.40224">
        <ele>1120</ele>
        <time>2022-06-09T09:28:45Z</time>
      </trkpt>
      <trkpt lat="44.78728" lon="4.40218">
        <ele>1120.2</ele>
        <time>2022-06-09T09:28:47Z</time>
      </trkpt>
      <trkpt lat="44.7873" lon="4.40211">
        <ele>1120.4</ele>
        <time>2022-06-09T09:28:48Z</time>
      </trkpt>
      <trkpt lat="44.78731" lon="4.40208">
        <ele>1120.5</ele>
        <time>2022-06-09T09:28:50Z</time>
      </trkpt>
      <trkpt lat="44.78732" lon="4.40204">
        <ele>1120.6</ele>
        <time>2022-06-09T09:28:51Z</time>
      </trkpt>
      <trkpt lat="44.78732" lon="4.40197">
        <ele>1120.9</ele>
        <time>2022-06-09T09:28:52Z</time>
      </trkpt>
      <trkpt lat="44.78732" lon="4.40194">
        <ele>1121</ele>
        <time>2022-06-09T09:28:53Z</time>
      </trkpt>
      <trkpt lat="44.78733" lon="4.4019">
        <ele>1121.1</ele>
        <time>2022-06-09T09:28:54Z</time>
      </trkpt>
      <trkpt lat="44.78733" lon="4.40183">
        <ele>1121.3</ele>
        <time>2022-06-09T09:28:56Z</time>
      </trkpt>
      <trkpt lat="44.78733" lon="4.40181">
        <ele>1121.3</ele>
        <time>2022-06-09T09:28:57Z</time>
      </trkpt>
      <trkpt lat="44.78733" lon="4.40178">
        <ele>1121.4</ele>
        <time>2022-06-09T09:28:58Z</time>
      </trkpt>
      <trkpt lat="44.78735" lon="4.40172">
        <ele>1121.6</ele>
        <time>2022-06-09T09:29:00Z</time>
      </trkpt>
      <trkpt lat="44.78735" lon="4.4017">
        <ele>1121.7</ele>
        <time>2022-06-09T09:29:01Z</time>
      </trkpt>
      <trkpt lat="44.78735" lon="4.40168">
        <ele>1121.7</ele>
        <time>2022-06-09T09:29:02Z</time>
      </trkpt>
      <trkpt lat="44.78735" lon="4.40162">
        <ele>1121.9</ele>
        <time>2022-06-09T09:29:03Z</time>
      </trkpt>
      <trkpt lat="44.78736" lon="4.40159">
        <ele>1122</ele>
        <time>2022-06-09T09:29:04Z</time>
      </trkpt>
      <trkpt lat="44.78736" lon="4.40153">
        <ele>1122.2</ele>
        <time>2022-06-09T09:29:05Z</time>
      </trkpt>
      <trkpt lat="44.78736" lon="4.40151">
        <ele>1122.2</ele>
        <time>2022-06-09T09:29:06Z</time>
      </trkpt>
      <trkpt lat="44.78738" lon="4.40144">
        <ele>1122.4</ele>
        <time>2022-06-09T09:29:08Z</time>
      </trkpt>
      <trkpt lat="44.78738" lon="4.4014">
        <ele>1122.5</ele>
        <time>2022-06-09T09:29:09Z</time>
      </trkpt>
      <trkpt lat="44.78739" lon="4.40137">
        <ele>1122.6</ele>
        <time>2022-06-09T09:29:10Z</time>
      </trkpt>
      <trkpt lat="44.78739" lon="4.40133">
        <ele>1122.7</ele>
        <time>2022-06-09T09:29:12Z</time>
      </trkpt>
      <trkpt lat="44.7874" lon="4.4013">
        <ele>1122.9</ele>
        <time>2022-06-09T09:29:13Z</time>
      </trkpt>
      <trkpt lat="44.78741" lon="4.40124">
        <ele>1123</ele>
        <time>2022-06-09T09:29:14Z</time>
      </trkpt>
      <trkpt lat="44.78741" lon="4.40123">
        <ele>1123.1</ele>
        <time>2022-06-09T09:29:15Z</time>
      </trkpt>
      <trkpt lat="44.78742" lon="4.40117">
        <ele>1123.2</ele>
        <time>2022-06-09T09:29:16Z</time>
      </trkpt>
      <trkpt lat="44.78742" lon="4.40115">
        <ele>1123.3</ele>
        <time>2022-06-09T09:29:17Z</time>
      </trkpt>
      <trkpt lat="44.78742" lon="4.40108">
        <ele>1123.5</ele>
        <time>2022-06-09T09:29:18Z</time>
      </trkpt>
      <trkpt lat="44.78742" lon="4.40105">
        <ele>1123.6</ele>
        <time>2022-06-09T09:29:19Z</time>
      </trkpt>
      <trkpt lat="44.78742" lon="4.40101">
        <ele>1123.7</ele>
        <time>2022-06-09T09:29:21Z</time>
      </trkpt>
      <trkpt lat="44.78742" lon="4.40096">
        <ele>1123.9</ele>
        <time>2022-06-09T09:29:22Z</time>
      </trkpt>
      <trkpt lat="44.78743" lon="4.40092">
        <ele>1124</ele>
        <time>2022-06-09T09:29:23Z</time>
      </trkpt>
      <trkpt lat="44.78743" lon="4.40088">
        <ele>1124.1</ele>
        <time>2022-06-09T09:29:24Z</time>
      </trkpt>
      <trkpt lat="44.78743" lon="4.40083">
        <ele>1124.2</ele>
        <time>2022-06-09T09:29:26Z</time>
      </trkpt>
      <trkpt lat="44.78743" lon="4.40079">
        <ele>1124.3</ele>
        <time>2022-06-09T09:29:27Z</time>
      </trkpt>
      <trkpt lat="44.78744" lon="4.40075">
        <ele>1124.5</ele>
        <time>2022-06-09T09:29:28Z</time>
      </trkpt>
      <trkpt lat="44.78744" lon="4.4007">
        <ele>1124.6</ele>
        <time>2022-06-09T09:29:29Z</time>
      </trkpt>
      <trkpt lat="44.78744" lon="4.40068">
        <ele>1124.7</ele>
        <time>2022-06-09T09:29:30Z</time>
      </trkpt>
      <trkpt lat="44.78745" lon="4.40064">
        <ele>1124.8</ele>
        <time>2022-06-09T09:29:31Z</time>
      </trkpt>
      <trkpt lat="44.78745" lon="4.40061">
        <ele>1125</ele>
        <time>2022-06-09T09:29:32Z</time>
      </trkpt>
      <trkpt lat="44.78745" lon="4.40056">
        <ele>1125.2</ele>
        <time>2022-06-09T09:29:34Z</time>
      </trkpt>
      <trkpt lat="44.78745" lon="4.4005">
        <ele>1125.4</ele>
        <time>2022-06-09T09:29:35Z</time>
      </trkpt>
      <trkpt lat="44.78746" lon="4.40046">
        <ele>1125.5</ele>
        <time>2022-06-09T09:29:36Z</time>
      </trkpt>
      <trkpt lat="44.78746" lon="4.40043">
        <ele>1125.6</ele>
        <time>2022-06-09T09:29:38Z</time>
      </trkpt>
      <trkpt lat="44.78746" lon="4.40038">
        <ele>1125.8</ele>
        <time>2022-06-09T09:29:39Z</time>
      </trkpt>
      <trkpt lat="44.78746" lon="4.40036">
        <ele>1125.8</ele>
        <time>2022-06-09T09:29:40Z</time>
      </trkpt>
      <trkpt lat="44.78747" lon="4.4003">
        <ele>1126</ele>
        <time>2022-06-09T09:29:41Z</time>
      </trkpt>
      <trkpt lat="44.78747" lon="4.40028">
        <ele>1126</ele>
        <time>2022-06-09T09:29:42Z</time>
      </trkpt>
      <trkpt lat="44.78747" lon="4.40024">
        <ele>1126.1</ele>
        <time>2022-06-09T09:29:43Z</time>
      </trkpt>
      <trkpt lat="44.78747" lon="4.40019">
        <ele>1126.3</ele>
        <time>2022-06-09T09:29:44Z</time>
      </trkpt>
      <trkpt lat="44.78747" lon="4.40018">
        <ele>1126.3</ele>
        <time>2022-06-09T09:29:45Z</time>
      </trkpt>
      <trkpt lat="44.78748" lon="4.40012">
        <ele>1126.5</ele>
        <time>2022-06-09T09:29:46Z</time>
      </trkpt>
      <trkpt lat="44.78749" lon="4.40005">
        <ele>1126.7</ele>
        <time>2022-06-09T09:29:48Z</time>
      </trkpt>
      <trkpt lat="44.78749" lon="4.40003">
        <ele>1126.7</ele>
        <time>2022-06-09T09:29:49Z</time>
      </trkpt>
      <trkpt lat="44.7875" lon="4.40001">
        <ele>1126.8</ele>
        <time>2022-06-09T09:29:50Z</time>
      </trkpt>
      <trkpt lat="44.78751" lon="4.39994">
        <ele>1127</ele>
        <time>2022-06-09T09:29:51Z</time>
      </trkpt>
      <trkpt lat="44.78751" lon="4.39988">
        <ele>1127.2</ele>
        <time>2022-06-09T09:29:53Z</time>
      </trkpt>
      <trkpt lat="44.78751" lon="4.39986">
        <ele>1127.2</ele>
        <time>2022-06-09T09:29:54Z</time>
      </trkpt>
      <trkpt lat="44.78751" lon="4.39981">
        <ele>1127.4</ele>
        <time>2022-06-09T09:29:55Z</time>
      </trkpt>
      <trkpt lat="44.78751" lon="4.3998">
        <ele>1127.4</ele>
        <time>2022-06-09T09:29:56Z</time>
      </trkpt>
      <trkpt lat="44.78751" lon="4.39974">
        <ele>1127.6</ele>
        <time>2022-06-09T09:29:57Z</time>
      </trkpt>
      <trkpt lat="44.78751" lon="4.3997">
        <ele>1127.7</ele>
        <time>2022-06-09T09:29:58Z</time>
      </trkpt>
      <trkpt lat="44.78751" lon="4.39969">
        <ele>1127.8</ele>
        <time>2022-06-09T09:29:59Z</time>
      </trkpt>
      <trkpt lat="44.78752" lon="4.39962">
        <ele>1127.9</ele>
        <time>2022-06-09T09:30:01Z</time>
      </trkpt>
      <trkpt lat="44.78752" lon="4.3996">
        <ele>1128</ele>
        <time>2022-06-09T09:30:02Z</time>
      </trkpt>
      <trkpt lat="44.78752" lon="4.39957">
        <ele>1128.1</ele>
        <time>2022-06-09T09:30:03Z</time>
      </trkpt>
      <trkpt lat="44.78752" lon="4.39953">
        <ele>1128.2</ele>
        <time>2022-06-09T09:30:04Z</time>
      </trkpt>
      <trkpt lat="44.78754" lon="4.39948">
        <ele>1128.4</ele>
        <time>2022-06-09T09:30:05Z</time>
      </trkpt>
      <trkpt lat="44.78754" lon="4.39945">
        <ele>1128.5</ele>
        <time>2022-06-09T09:30:06Z</time>
      </trkpt>
      <trkpt lat="44.78755" lon="4.39941">
        <ele>1128.6</ele>
        <time>2022-06-09T09:30:08Z</time>
      </trkpt>
      <trkpt lat="44.78755" lon="4.39935">
        <ele>1128.7</ele>
        <time>2022-06-09T09:30:09Z</time>
      </trkpt>
      <trkpt lat="44.78755" lon="4.39932">
        <ele>1128.8</ele>
        <time>2022-06-09T09:30:10Z</time>
      </trkpt>
      <trkpt lat="44.78755" lon="4.39928">
        <ele>1128.9</ele>
        <time>2022-06-09T09:30:11Z</time>
      </trkpt>
      <trkpt lat="44.78756" lon="4.39926">
        <ele>1128.9</ele>
        <time>2022-06-09T09:30:12Z</time>
      </trkpt>
      <trkpt lat="44.78756" lon="4.39921">
        <ele>1129.1</ele>
        <time>2022-06-09T09:30:13Z</time>
      </trkpt>
      <trkpt lat="44.78756" lon="4.3992">
        <ele>1129.1</ele>
        <time>2022-06-09T09:30:14Z</time>
      </trkpt>
      <trkpt lat="44.78757" lon="4.39912">
        <ele>1129.3</ele>
        <time>2022-06-09T09:30:16Z</time>
      </trkpt>
      <trkpt lat="44.78757" lon="4.39909">
        <ele>1129.4</ele>
        <time>2022-06-09T09:30:18Z</time>
      </trkpt>
      <trkpt lat="44.78758" lon="4.39903">
        <ele>1129.5</ele>
        <time>2022-06-09T09:30:19Z</time>
      </trkpt>
      <trkpt lat="44.78758" lon="4.39898">
        <ele>1129.7</ele>
        <time>2022-06-09T09:30:20Z</time>
      </trkpt>
      <trkpt lat="44.78758" lon="4.39896">
        <ele>1129.7</ele>
        <time>2022-06-09T09:30:21Z</time>
      </trkpt>
      <trkpt lat="44.78758" lon="4.39892">
        <ele>1129.8</ele>
        <time>2022-06-09T09:30:22Z</time>
      </trkpt>
      <trkpt lat="44.78758" lon="4.39891">
        <ele>1129.9</ele>
        <time>2022-06-09T09:30:23Z</time>
      </trkpt>
      <trkpt lat="44.78759" lon="4.39886">
        <ele>1130</ele>
        <time>2022-06-09T09:30:24Z</time>
      </trkpt>
      <trkpt lat="44.78759" lon="4.39881">
        <ele>1130.2</ele>
        <time>2022-06-09T09:30:26Z</time>
      </trkpt>
      <trkpt lat="44.78759" lon="4.39879">
        <ele>1130.2</ele>
        <time>2022-06-09T09:30:27Z</time>
      </trkpt>
      <trkpt lat="44.78759" lon="4.39874">
        <ele>1130.4</ele>
        <time>2022-06-09T09:30:28Z</time>
      </trkpt>
      <trkpt lat="44.78759" lon="4.39873">
        <ele>1130.4</ele>
        <time>2022-06-09T09:30:29Z</time>
      </trkpt>
      <trkpt lat="44.78759" lon="4.39868">
        <ele>1130.6</ele>
        <time>2022-06-09T09:30:30Z</time>
      </trkpt>
      <trkpt lat="44.78759" lon="4.39866">
        <ele>1130.6</ele>
        <time>2022-06-09T09:30:31Z</time>
      </trkpt>
      <trkpt lat="44.78759" lon="4.39861">
        <ele>1130.8</ele>
        <time>2022-06-09T09:30:32Z</time>
      </trkpt>
      <trkpt lat="44.7876" lon="4.39859">
        <ele>1130.8</ele>
        <time>2022-06-09T09:30:33Z</time>
      </trkpt>
      <trkpt lat="44.78761" lon="4.39851">
        <ele>1131.1</ele>
        <time>2022-06-09T09:30:34Z</time>
      </trkpt>
      <trkpt lat="44.78761" lon="4.39845">
        <ele>1131.3</ele>
        <time>2022-06-09T09:30:36Z</time>
      </trkpt>
      <trkpt lat="44.78762" lon="4.39841">
        <ele>1131.4</ele>
        <time>2022-06-09T09:30:37Z</time>
      </trkpt>
      <trkpt lat="44.78763" lon="4.39836">
        <ele>1131.6</ele>
        <time>2022-06-09T09:30:39Z</time>
      </trkpt>
      <trkpt lat="44.78763" lon="4.39834">
        <ele>1131.7</ele>
        <time>2022-06-09T09:30:40Z</time>
      </trkpt>
      <trkpt lat="44.78763" lon="4.39829">
        <ele>1131.8</ele>
        <time>2022-06-09T09:30:41Z</time>
      </trkpt>
      <trkpt lat="44.78764" lon="4.39827">
        <ele>1131.9</ele>
        <time>2022-06-09T09:30:42Z</time>
      </trkpt>
      <trkpt lat="44.78764" lon="4.3982">
        <ele>1132.1</ele>
        <time>2022-06-09T09:30:43Z</time>
      </trkpt>
      <trkpt lat="44.78765" lon="4.39816">
        <ele>1132.3</ele>
        <time>2022-06-09T09:30:44Z</time>
      </trkpt>
      <trkpt lat="44.78768" lon="4.39808">
        <ele>1132.6</ele>
        <time>2022-06-09T09:30:46Z</time>
      </trkpt>
      <trkpt lat="44.7877" lon="4.39804">
        <ele>1132.7</ele>
        <time>2022-06-09T09:30:48Z</time>
      </trkpt>
      <trkpt lat="44.7877" lon="4.39803">
        <ele>1132.7</ele>
        <time>2022-06-09T09:30:49Z</time>
      </trkpt>
      <trkpt lat="44.78771" lon="4.39798">
        <ele>1132.9</ele>
        <time>2022-06-09T09:30:50Z</time>
      </trkpt>
      <trkpt lat="44.78771" lon="4.39797">
        <ele>1132.9</ele>
        <time>2022-06-09T09:30:51Z</time>
      </trkpt>
      <trkpt lat="44.78774" lon="4.39791">
        <ele>1133.1</ele>
        <time>2022-06-09T09:30:52Z</time>
      </trkpt>
      <trkpt lat="44.78775" lon="4.39788">
        <ele>1133.2</ele>
        <time>2022-06-09T09:30:53Z</time>
      </trkpt>
      <trkpt lat="44.78776" lon="4.39784">
        <ele>1133.3</ele>
        <time>2022-06-09T09:30:55Z</time>
      </trkpt>
      <trkpt lat="44.78777" lon="4.3978">
        <ele>1133.5</ele>
        <time>2022-06-09T09:30:56Z</time>
      </trkpt>
      <trkpt lat="44.78777" lon="4.39778">
        <ele>1133.5</ele>
        <time>2022-06-09T09:30:57Z</time>
      </trkpt>
      <trkpt lat="44.78778" lon="4.39774">
        <ele>1133.7</ele>
        <time>2022-06-09T09:30:58Z</time>
      </trkpt>
      <trkpt lat="44.78778" lon="4.39769">
        <ele>1133.8</ele>
        <time>2022-06-09T09:30:59Z</time>
      </trkpt>
      <trkpt lat="44.78778" lon="4.39767">
        <ele>1133.9</ele>
        <time>2022-06-09T09:31:00Z</time>
      </trkpt>
      <trkpt lat="44.78779" lon="4.39761">
        <ele>1134.1</ele>
        <time>2022-06-09T09:31:01Z</time>
      </trkpt>
      <trkpt lat="44.78779" lon="4.39759">
        <ele>1134.1</ele>
        <time>2022-06-09T09:31:02Z</time>
      </trkpt>
      <trkpt lat="44.78779" lon="4.39755">
        <ele>1134.3</ele>
        <time>2022-06-09T09:31:03Z</time>
      </trkpt>
      <trkpt lat="44.78779" lon="4.39748">
        <ele>1134.5</ele>
        <time>2022-06-09T09:31:04Z</time>
      </trkpt>
      <trkpt lat="44.78779" lon="4.39742">
        <ele>1134.7</ele>
        <time>2022-06-09T09:31:06Z</time>
      </trkpt>
      <trkpt lat="44.78779" lon="4.39739">
        <ele>1134.8</ele>
        <time>2022-06-09T09:31:07Z</time>
      </trkpt>
      <trkpt lat="44.78779" lon="4.39735">
        <ele>1134.9</ele>
        <time>2022-06-09T09:31:08Z</time>
      </trkpt>
      <trkpt lat="44.7878" lon="4.39728">
        <ele>1135.1</ele>
        <time>2022-06-09T09:31:10Z</time>
      </trkpt>
      <trkpt lat="44.7878" lon="4.39725">
        <ele>1135.2</ele>
        <time>2022-06-09T09:31:11Z</time>
      </trkpt>
      <trkpt lat="44.78781" lon="4.39722">
        <ele>1135.3</ele>
        <time>2022-06-09T09:31:12Z</time>
      </trkpt>
      <trkpt lat="44.78781" lon="4.39718">
        <ele>1135.5</ele>
        <time>2022-06-09T09:31:13Z</time>
      </trkpt>
      <trkpt lat="44.78783" lon="4.39712">
        <ele>1135.7</ele>
        <time>2022-06-09T09:31:15Z</time>
      </trkpt>
      <trkpt lat="44.78784" lon="4.39709">
        <ele>1135.8</ele>
        <time>2022-06-09T09:31:16Z</time>
      </trkpt>
      <trkpt lat="44.78784" lon="4.39707">
        <ele>1135.9</ele>
        <time>2022-06-09T09:31:17Z</time>
      </trkpt>
      <trkpt lat="44.78785" lon="4.39702">
        <ele>1136</ele>
        <time>2022-06-09T09:31:18Z</time>
      </trkpt>
      <trkpt lat="44.78785" lon="4.39697">
        <ele>1136.2</ele>
        <time>2022-06-09T09:31:19Z</time>
      </trkpt>
      <trkpt lat="44.78785" lon="4.3969">
        <ele>1136.4</ele>
        <time>2022-06-09T09:31:21Z</time>
      </trkpt>
      <trkpt lat="44.78785" lon="4.39684">
        <ele>1136.6</ele>
        <time>2022-06-09T09:31:23Z</time>
      </trkpt>
      <trkpt lat="44.78785" lon="4.39681">
        <ele>1136.6</ele>
        <time>2022-06-09T09:31:24Z</time>
      </trkpt>
      <trkpt lat="44.78786" lon="4.39677">
        <ele>1136.8</ele>
        <time>2022-06-09T09:31:26Z</time>
      </trkpt>
      <trkpt lat="44.78786" lon="4.39671">
        <ele>1137</ele>
        <time>2022-06-09T09:31:27Z</time>
      </trkpt>
      <trkpt lat="44.78786" lon="4.39667">
        <ele>1137.1</ele>
        <time>2022-06-09T09:31:29Z</time>
      </trkpt>
      <trkpt lat="44.78786" lon="4.39665">
        <ele>1137.1</ele>
        <time>2022-06-09T09:31:30Z</time>
      </trkpt>
      <trkpt lat="44.78786" lon="4.39661">
        <ele>1137.3</ele>
        <time>2022-06-09T09:31:31Z</time>
      </trkpt>
      <trkpt lat="44.78786" lon="4.39659">
        <ele>1137.3</ele>
        <time>2022-06-09T09:31:32Z</time>
      </trkpt>
      <trkpt lat="44.78786" lon="4.39654">
        <ele>1137.5</ele>
        <time>2022-06-09T09:31:33Z</time>
      </trkpt>
      <trkpt lat="44.78787" lon="4.39653">
        <ele>1137.5</ele>
        <time>2022-06-09T09:31:34Z</time>
      </trkpt>
      <trkpt lat="44.78787" lon="4.39649">
        <ele>1137.6</ele>
        <time>2022-06-09T09:31:35Z</time>
      </trkpt>
      <trkpt lat="44.78787" lon="4.39648">
        <ele>1137.6</ele>
        <time>2022-06-09T09:31:36Z</time>
      </trkpt>
      <trkpt lat="44.78788" lon="4.39643">
        <ele>1137.8</ele>
        <time>2022-06-09T09:31:37Z</time>
      </trkpt>
      <trkpt lat="44.78788" lon="4.39641">
        <ele>1137.8</ele>
        <time>2022-06-09T09:31:38Z</time>
      </trkpt>
      <trkpt lat="44.78788" lon="4.39636">
        <ele>1138</ele>
        <time>2022-06-09T09:31:39Z</time>
      </trkpt>
      <trkpt lat="44.78788" lon="4.39634">
        <ele>1138</ele>
        <time>2022-06-09T09:31:40Z</time>
      </trkpt>
      <trkpt lat="44.78788" lon="4.39629">
        <ele>1138.2</ele>
        <time>2022-06-09T09:31:41Z</time>
      </trkpt>
      <trkpt lat="44.78788" lon="4.39627">
        <ele>1138.3</ele>
        <time>2022-06-09T09:31:42Z</time>
      </trkpt>
      <trkpt lat="44.78787" lon="4.39622">
        <ele>1138.5</ele>
        <time>2022-06-09T09:31:43Z</time>
      </trkpt>
      <trkpt lat="44.78787" lon="4.3962">
        <ele>1138.5</ele>
        <time>2022-06-09T09:31:44Z</time>
      </trkpt>
      <trkpt lat="44.78787" lon="4.39616">
        <ele>1138.7</ele>
        <time>2022-06-09T09:31:45Z</time>
      </trkpt>
      <trkpt lat="44.78785" lon="4.3961">
        <ele>1138.9</ele>
        <time>2022-06-09T09:31:47Z</time>
      </trkpt>
      <trkpt lat="44.78785" lon="4.39605">
        <ele>1139.1</ele>
        <time>2022-06-09T09:31:48Z</time>
      </trkpt>
      <trkpt lat="44.78785" lon="4.39603">
        <ele>1139.2</ele>
        <time>2022-06-09T09:31:49Z</time>
      </trkpt>
      <trkpt lat="44.78784" lon="4.39598">
        <ele>1139.4</ele>
        <time>2022-06-09T09:31:50Z</time>
      </trkpt>
      <trkpt lat="44.78784" lon="4.39596">
        <ele>1139.5</ele>
        <time>2022-06-09T09:31:51Z</time>
      </trkpt>
      <trkpt lat="44.78785" lon="4.39591">
        <ele>1139.7</ele>
        <time>2022-06-09T09:31:52Z</time>
      </trkpt>
      <trkpt lat="44.78784" lon="4.39585">
        <ele>1139.8</ele>
        <time>2022-06-09T09:31:54Z</time>
      </trkpt>
      <trkpt lat="44.78784" lon="4.39583">
        <ele>1139.9</ele>
        <time>2022-06-09T09:31:55Z</time>
      </trkpt>
      <trkpt lat="44.78785" lon="4.39577">
        <ele>1140.1</ele>
        <time>2022-06-09T09:31:56Z</time>
      </trkpt>
      <trkpt lat="44.78786" lon="4.39575">
        <ele>1140.2</ele>
        <time>2022-06-09T09:31:57Z</time>
      </trkpt>
      <trkpt lat="44.78786" lon="4.39571">
        <ele>1140.3</ele>
        <time>2022-06-09T09:31:58Z</time>
      </trkpt>
      <trkpt lat="44.78787" lon="4.39567">
        <ele>1140.4</ele>
        <time>2022-06-09T09:32:00Z</time>
      </trkpt>
      <trkpt lat="44.78788" lon="4.39561">
        <ele>1140.6</ele>
        <time>2022-06-09T09:32:01Z</time>
      </trkpt>
      <trkpt lat="44.78789" lon="4.39557">
        <ele>1140.7</ele>
        <time>2022-06-09T09:32:02Z</time>
      </trkpt>
      <trkpt lat="44.7879" lon="4.39555">
        <ele>1140.8</ele>
        <time>2022-06-09T09:32:04Z</time>
      </trkpt>
      <trkpt lat="44.78792" lon="4.39549">
        <ele>1141</ele>
        <time>2022-06-09T09:32:05Z</time>
      </trkpt>
      <trkpt lat="44.78793" lon="4.39547">
        <ele>1141</ele>
        <time>2022-06-09T09:32:06Z</time>
      </trkpt>
      <trkpt lat="44.78795" lon="4.39543">
        <ele>1141.1</ele>
        <time>2022-06-09T09:32:08Z</time>
      </trkpt>
      <trkpt lat="44.78796" lon="4.39539">
        <ele>1141.3</ele>
        <time>2022-06-09T09:32:09Z</time>
      </trkpt>
      <trkpt lat="44.78798" lon="4.39534">
        <ele>1141.4</ele>
        <time>2022-06-09T09:32:10Z</time>
      </trkpt>
      <trkpt lat="44.78799" lon="4.39532">
        <ele>1141.5</ele>
        <time>2022-06-09T09:32:11Z</time>
      </trkpt>
      <trkpt lat="44.788" lon="4.39529">
        <ele>1141.5</ele>
        <time>2022-06-09T09:32:13Z</time>
      </trkpt>
      <trkpt lat="44.78802" lon="4.39525">
        <ele>1141.6</ele>
        <time>2022-06-09T09:32:14Z</time>
      </trkpt>
      <trkpt lat="44.78802" lon="4.39524">
        <ele>1141.7</ele>
        <time>2022-06-09T09:32:15Z</time>
      </trkpt>
      <trkpt lat="44.78804" lon="4.3952">
        <ele>1141.8</ele>
        <time>2022-06-09T09:32:16Z</time>
      </trkpt>
      <trkpt lat="44.78805" lon="4.39518">
        <ele>1141.8</ele>
        <time>2022-06-09T09:32:17Z</time>
      </trkpt>
      <trkpt lat="44.78807" lon="4.39515">
        <ele>1142</ele>
        <time>2022-06-09T09:32:18Z</time>
      </trkpt>
      <trkpt lat="44.78808" lon="4.39513">
        <ele>1142</ele>
        <time>2022-06-09T09:32:19Z</time>
      </trkpt>
      <trkpt lat="44.78811" lon="4.39509">
        <ele>1142.2</ele>
        <time>2022-06-09T09:32:20Z</time>
      </trkpt>
      <trkpt lat="44.78813" lon="4.39504">
        <ele>1142.4</ele>
        <time>2022-06-09T09:32:22Z</time>
      </trkpt>
      <trkpt lat="44.78816" lon="4.39499">
        <ele>1142.6</ele>
        <time>2022-06-09T09:32:23Z</time>
      </trkpt>
      <trkpt lat="44.78818" lon="4.39496">
        <ele>1142.7</ele>
        <time>2022-06-09T09:32:25Z</time>
      </trkpt>
      <trkpt lat="44.7882" lon="4.3949">
        <ele>1142.9</ele>
        <time>2022-06-09T09:32:26Z</time>
      </trkpt>
      <trkpt lat="44.78822" lon="4.39486">
        <ele>1143.1</ele>
        <time>2022-06-09T09:32:28Z</time>
      </trkpt>
      <trkpt lat="44.78823" lon="4.39484">
        <ele>1143.1</ele>
        <time>2022-06-09T09:32:29Z</time>
      </trkpt>
      <trkpt lat="44.78825" lon="4.39481">
        <ele>1143.3</ele>
        <time>2022-06-09T09:32:30Z</time>
      </trkpt>
      <trkpt lat="44.7883" lon="4.39474">
        <ele>1143.6</ele>
        <time>2022-06-09T09:32:32Z</time>
      </trkpt>
      <trkpt lat="44.78832" lon="4.3947">
        <ele>1143.7</ele>
        <time>2022-06-09T09:32:34Z</time>
      </trkpt>
      <trkpt lat="44.78833" lon="4.39467">
        <ele>1143.9</ele>
        <time>2022-06-09T09:32:35Z</time>
      </trkpt>
      <trkpt lat="44.78835" lon="4.39463">
        <ele>1144</ele>
        <time>2022-06-09T09:32:36Z</time>
      </trkpt>
      <trkpt lat="44.78837" lon="4.39457">
        <ele>1144.2</ele>
        <time>2022-06-09T09:32:38Z</time>
      </trkpt>
      <trkpt lat="44.78838" lon="4.39455">
        <ele>1144.3</ele>
        <time>2022-06-09T09:32:39Z</time>
      </trkpt>
      <trkpt lat="44.78839" lon="4.39453">
        <ele>1144.4</ele>
        <time>2022-06-09T09:32:40Z</time>
      </trkpt>
      <trkpt lat="44.7884" lon="4.3945">
        <ele>1144.5</ele>
        <time>2022-06-09T09:32:41Z</time>
      </trkpt>
      <trkpt lat="44.78842" lon="4.39445">
        <ele>1144.7</ele>
        <time>2022-06-09T09:32:42Z</time>
      </trkpt>
      <trkpt lat="44.78842" lon="4.39443">
        <ele>1144.8</ele>
        <time>2022-06-09T09:32:43Z</time>
      </trkpt>
      <trkpt lat="44.78845" lon="4.39438">
        <ele>1145</ele>
        <time>2022-06-09T09:32:44Z</time>
      </trkpt>
      <trkpt lat="44.78845" lon="4.39436">
        <ele>1145</ele>
        <time>2022-06-09T09:32:45Z</time>
      </trkpt>
      <trkpt lat="44.78847" lon="4.39431">
        <ele>1145.2</ele>
        <time>2022-06-09T09:32:47Z</time>
      </trkpt>
      <trkpt lat="44.78848" lon="4.3943">
        <ele>1145.3</ele>
        <time>2022-06-09T09:32:48Z</time>
      </trkpt>
      <trkpt lat="44.78849" lon="4.39425">
        <ele>1145.4</ele>
        <time>2022-06-09T09:32:49Z</time>
      </trkpt>
      <trkpt lat="44.78851" lon="4.3942">
        <ele>1145.6</ele>
        <time>2022-06-09T09:32:50Z</time>
      </trkpt>
      <trkpt lat="44.78851" lon="4.39418">
        <ele>1145.7</ele>
        <time>2022-06-09T09:32:51Z</time>
      </trkpt>
      <trkpt lat="44.78853" lon="4.39414">
        <ele>1145.8</ele>
        <time>2022-06-09T09:32:52Z</time>
      </trkpt>
      <trkpt lat="44.78855" lon="4.39407">
        <ele>1146</ele>
        <time>2022-06-09T09:32:54Z</time>
      </trkpt>
      <trkpt lat="44.78857" lon="4.39401">
        <ele>1146.3</ele>
        <time>2022-06-09T09:32:56Z</time>
      </trkpt>
      <trkpt lat="44.78858" lon="4.39397">
        <ele>1146.4</ele>
        <time>2022-06-09T09:32:58Z</time>
      </trkpt>
      <trkpt lat="44.78858" lon="4.39395">
        <ele>1146.5</ele>
        <time>2022-06-09T09:32:59Z</time>
      </trkpt>
      <trkpt lat="44.78859" lon="4.39391">
        <ele>1146.6</ele>
        <time>2022-06-09T09:33:00Z</time>
      </trkpt>
      <trkpt lat="44.78859" lon="4.39389">
        <ele>1146.7</ele>
        <time>2022-06-09T09:33:01Z</time>
      </trkpt>
      <trkpt lat="44.78861" lon="4.39384">
        <ele>1146.9</ele>
        <time>2022-06-09T09:33:02Z</time>
      </trkpt>
      <trkpt lat="44.78862" lon="4.39379">
        <ele>1147</ele>
        <time>2022-06-09T09:33:04Z</time>
      </trkpt>
      <trkpt lat="44.78862" lon="4.39378">
        <ele>1147</ele>
        <time>2022-06-09T09:33:05Z</time>
      </trkpt>
      <trkpt lat="44.78863" lon="4.39376">
        <ele>1147.1</ele>
        <time>2022-06-09T09:33:06Z</time>
      </trkpt>
      <trkpt lat="44.78863" lon="4.39374">
        <ele>1147.2</ele>
        <time>2022-06-09T09:33:07Z</time>
      </trkpt>
      <trkpt lat="44.78863" lon="4.39373">
        <ele>1147.2</ele>
        <time>2022-06-09T09:33:08Z</time>
      </trkpt>
      <trkpt lat="44.78863" lon="4.39374">
        <ele>1147.2</ele>
        <time>2022-06-09T09:33:09Z</time>
      </trkpt>
      <trkpt lat="44.78863" lon="4.39375">
        <ele>1147.3</ele>
        <time>2022-06-09T09:33:10Z</time>
      </trkpt>
      <trkpt lat="44.78863" lon="4.39375">
        <ele>1147.3</ele>
        <time>2022-06-09T09:33:11Z</time>
      </trkpt>
      <trkpt lat="44.78863" lon="4.39376">
        <ele>1147.3</ele>
        <time>2022-06-09T09:33:12Z</time>
      </trkpt>
      <trkpt lat="44.78863" lon="4.39376">
        <ele>1147.3</ele>
        <time>2022-06-09T09:33:13Z</time>
      </trkpt>
      <trkpt lat="44.78863" lon="4.39376">
        <ele>1147.3</ele>
        <time>2022-06-09T09:33:14Z</time>
      </trkpt>
      <trkpt lat="44.78863" lon="4.39376">
        <ele>1147.3</ele>
        <time>2022-06-09T09:33:15Z</time>
      </trkpt>
      <trkpt lat="44.78863" lon="4.39376">
        <ele>1147.3</ele>
        <time>2022-06-09T09:33:16Z</time>
      </trkpt>
      <trkpt lat="44.78863" lon="4.39375">
        <ele>1147.3</ele>
        <time>2022-06-09T09:33:17Z</time>
      </trkpt>
      <trkpt lat="44.78863" lon="4.39375">
        <ele>1147.3</ele>
        <time>2022-06-09T09:33:18Z</time>
      </trkpt>
      <trkpt lat="44.78864" lon="4.39368">
        <ele>1147.5</ele>
        <time>2022-06-09T09:34:44Z</time>
      </trkpt>
      <trkpt lat="44.78864" lon="4.39363">
        <ele>1147.7</ele>
        <time>2022-06-09T09:34:45Z</time>
      </trkpt>
      <trkpt lat="44.78864" lon="4.39359">
        <ele>1147.8</ele>
        <time>2022-06-09T09:34:46Z</time>
      </trkpt>
      <trkpt lat="44.78864" lon="4.39355">
        <ele>1147.9</ele>
        <time>2022-06-09T09:34:47Z</time>
      </trkpt>
      <trkpt lat="44.78864" lon="4.39351">
        <ele>1147.9</ele>
        <time>2022-06-09T09:34:49Z</time>
      </trkpt>
      <trkpt lat="44.78864" lon="4.39345">
        <ele>1148.1</ele>
        <time>2022-06-09T09:34:50Z</time>
      </trkpt>
      <trkpt lat="44.78864" lon="4.3934">
        <ele>1148.2</ele>
        <time>2022-06-09T09:34:51Z</time>
      </trkpt>
      <trkpt lat="44.78864" lon="4.39331">
        <ele>1148.3</ele>
        <time>2022-06-09T09:34:53Z</time>
      </trkpt>
      <trkpt lat="44.78864" lon="4.39327">
        <ele>1148.4</ele>
        <time>2022-06-09T09:34:55Z</time>
      </trkpt>
      <trkpt lat="44.78863" lon="4.39323">
        <ele>1148.4</ele>
        <time>2022-06-09T09:34:56Z</time>
      </trkpt>
      <trkpt lat="44.78862" lon="4.39319">
        <ele>1148.4</ele>
        <time>2022-06-09T09:34:57Z</time>
      </trkpt>
      <trkpt lat="44.78859" lon="4.39313">
        <ele>1148.4</ele>
        <time>2022-06-09T09:34:58Z</time>
      </trkpt>
      <trkpt lat="44.78857" lon="4.39309">
        <ele>1148.4</ele>
        <time>2022-06-09T09:34:59Z</time>
      </trkpt>
      <trkpt lat="44.78855" lon="4.39306">
        <ele>1148.4</ele>
        <time>2022-06-09T09:35:00Z</time>
      </trkpt>
      <trkpt lat="44.78852" lon="4.39299">
        <ele>1148.4</ele>
        <time>2022-06-09T09:35:01Z</time>
      </trkpt>
      <trkpt lat="44.78847" lon="4.39291">
        <ele>1148.4</ele>
        <time>2022-06-09T09:35:03Z</time>
      </trkpt>
      <trkpt lat="44.78844" lon="4.39286">
        <ele>1148.4</ele>
        <time>2022-06-09T09:35:05Z</time>
      </trkpt>
      <trkpt lat="44.78842" lon="4.39281">
        <ele>1148.4</ele>
        <time>2022-06-09T09:35:06Z</time>
      </trkpt>
      <trkpt lat="44.78839" lon="4.39277">
        <ele>1148.4</ele>
        <time>2022-06-09T09:35:07Z</time>
      </trkpt>
      <trkpt lat="44.78837" lon="4.39272">
        <ele>1148.4</ele>
        <time>2022-06-09T09:35:08Z</time>
      </trkpt>
      <trkpt lat="44.78832" lon="4.39263">
        <ele>1148.4</ele>
        <time>2022-06-09T09:35:09Z</time>
      </trkpt>
      <trkpt lat="44.78829" lon="4.39259">
        <ele>1148.4</ele>
        <time>2022-06-09T09:35:11Z</time>
      </trkpt>
      <trkpt lat="44.78826" lon="4.39255">
        <ele>1148.4</ele>
        <time>2022-06-09T09:35:12Z</time>
      </trkpt>
      <trkpt lat="44.78823" lon="4.39251">
        <ele>1148.4</ele>
        <time>2022-06-09T09:35:13Z</time>
      </trkpt>
      <trkpt lat="44.7882" lon="4.39249">
        <ele>1148.4</ele>
        <time>2022-06-09T09:35:14Z</time>
      </trkpt>
      <trkpt lat="44.78817" lon="4.39246">
        <ele>1148.4</ele>
        <time>2022-06-09T09:35:15Z</time>
      </trkpt>
      <trkpt lat="44.78814" lon="4.39243">
        <ele>1148.3</ele>
        <time>2022-06-09T09:35:16Z</time>
      </trkpt>
      <trkpt lat="44.78809" lon="4.39239">
        <ele>1148.3</ele>
        <time>2022-06-09T09:35:17Z</time>
      </trkpt>
      <trkpt lat="44.78805" lon="4.39235">
        <ele>1148.3</ele>
        <time>2022-06-09T09:35:18Z</time>
      </trkpt>
      <trkpt lat="44.78801" lon="4.39231">
        <ele>1148.3</ele>
        <time>2022-06-09T09:35:19Z</time>
      </trkpt>
      <trkpt lat="44.78793" lon="4.39226">
        <ele>1148.3</ele>
        <time>2022-06-09T09:35:21Z</time>
      </trkpt>
      <trkpt lat="44.78789" lon="4.39223">
        <ele>1148.3</ele>
        <time>2022-06-09T09:35:22Z</time>
      </trkpt>
      <trkpt lat="44.78785" lon="4.39219">
        <ele>1148.3</ele>
        <time>2022-06-09T09:35:23Z</time>
      </trkpt>
      <trkpt lat="44.78781" lon="4.39215">
        <ele>1148.3</ele>
        <time>2022-06-09T09:35:24Z</time>
      </trkpt>
      <trkpt lat="44.78777" lon="4.39212">
        <ele>1148.3</ele>
        <time>2022-06-09T09:35:25Z</time>
      </trkpt>
      <trkpt lat="44.78774" lon="4.39208">
        <ele>1148.3</ele>
        <time>2022-06-09T09:35:26Z</time>
      </trkpt>
      <trkpt lat="44.7877" lon="4.39204">
        <ele>1148.3</ele>
        <time>2022-06-09T09:35:27Z</time>
      </trkpt>
      <trkpt lat="44.78767" lon="4.392">
        <ele>1148.3</ele>
        <time>2022-06-09T09:35:28Z</time>
      </trkpt>
      <trkpt lat="44.78764" lon="4.39196">
        <ele>1148.3</ele>
        <time>2022-06-09T09:35:29Z</time>
      </trkpt>
      <trkpt lat="44.78758" lon="4.39193">
        <ele>1148.4</ele>
        <time>2022-06-09T09:35:30Z</time>
      </trkpt>
      <trkpt lat="44.78754" lon="4.39189">
        <ele>1148.4</ele>
        <time>2022-06-09T09:35:31Z</time>
      </trkpt>
      <trkpt lat="44.78745" lon="4.39182">
        <ele>1148.4</ele>
        <time>2022-06-09T09:35:33Z</time>
      </trkpt>
      <trkpt lat="44.78739" lon="4.39178">
        <ele>1148.5</ele>
        <time>2022-06-09T09:35:35Z</time>
      </trkpt>
      <trkpt lat="44.78735" lon="4.39175">
        <ele>1148.5</ele>
        <time>2022-06-09T09:35:36Z</time>
      </trkpt>
      <trkpt lat="44.78732" lon="4.39171">
        <ele>1148.6</ele>
        <time>2022-06-09T09:35:37Z</time>
      </trkpt>
      <trkpt lat="44.78728" lon="4.39167">
        <ele>1148.6</ele>
        <time>2022-06-09T09:35:38Z</time>
      </trkpt>
      <trkpt lat="44.78725" lon="4.39162">
        <ele>1148.7</ele>
        <time>2022-06-09T09:35:39Z</time>
      </trkpt>
      <trkpt lat="44.78722" lon="4.39159">
        <ele>1148.7</ele>
        <time>2022-06-09T09:35:40Z</time>
      </trkpt>
      <trkpt lat="44.78713" lon="4.39151">
        <ele>1148.9</ele>
        <time>2022-06-09T09:35:42Z</time>
      </trkpt>
      <trkpt lat="44.78709" lon="4.39147">
        <ele>1149</ele>
        <time>2022-06-09T09:35:43Z</time>
      </trkpt>
      <trkpt lat="44.78705" lon="4.39142">
        <ele>1149.1</ele>
        <time>2022-06-09T09:35:45Z</time>
      </trkpt>
      <trkpt lat="44.787" lon="4.39138">
        <ele>1149.2</ele>
        <time>2022-06-09T09:35:46Z</time>
      </trkpt>
      <trkpt lat="44.78696" lon="4.39135">
        <ele>1149.3</ele>
        <time>2022-06-09T09:35:48Z</time>
      </trkpt>
      <trkpt lat="44.78693" lon="4.39132">
        <ele>1149.4</ele>
        <time>2022-06-09T09:35:49Z</time>
      </trkpt>
      <trkpt lat="44.78689" lon="4.39128">
        <ele>1149.5</ele>
        <time>2022-06-09T09:35:50Z</time>
      </trkpt>
      <trkpt lat="44.78687" lon="4.39125">
        <ele>1149.5</ele>
        <time>2022-06-09T09:35:51Z</time>
      </trkpt>
      <trkpt lat="44.78684" lon="4.39123">
        <ele>1149.6</ele>
        <time>2022-06-09T09:35:52Z</time>
      </trkpt>
      <trkpt lat="44.78681" lon="4.3912">
        <ele>1149.6</ele>
        <time>2022-06-09T09:35:53Z</time>
      </trkpt>
      <trkpt lat="44.78677" lon="4.39117">
        <ele>1149.6</ele>
        <time>2022-06-09T09:35:54Z</time>
      </trkpt>
      <trkpt lat="44.78675" lon="4.39115">
        <ele>1149.7</ele>
        <time>2022-06-09T09:35:55Z</time>
      </trkpt>
      <trkpt lat="44.78671" lon="4.3911">
        <ele>1149.7</ele>
        <time>2022-06-09T09:35:57Z</time>
      </trkpt>
      <trkpt lat="44.78667" lon="4.39105">
        <ele>1149.8</ele>
        <time>2022-06-09T09:35:58Z</time>
      </trkpt>
      <trkpt lat="44.78665" lon="4.39099">
        <ele>1149.8</ele>
        <time>2022-06-09T09:35:59Z</time>
      </trkpt>
      <trkpt lat="44.78664" lon="4.39091">
        <ele>1149.8</ele>
        <time>2022-06-09T09:36:00Z</time>
      </trkpt>
      <trkpt lat="44.78665" lon="4.39086">
        <ele>1149.9</ele>
        <time>2022-06-09T09:36:02Z</time>
      </trkpt>
      <trkpt lat="44.78666" lon="4.39081">
        <ele>1149.9</ele>
        <time>2022-06-09T09:36:03Z</time>
      </trkpt>
      <trkpt lat="44.78669" lon="4.39073">
        <ele>1150</ele>
        <time>2022-06-09T09:36:04Z</time>
      </trkpt>
      <trkpt lat="44.7867" lon="4.39069">
        <ele>1150</ele>
        <time>2022-06-09T09:36:05Z</time>
      </trkpt>
      <trkpt lat="44.78672" lon="4.39063">
        <ele>1150</ele>
        <time>2022-06-09T09:36:07Z</time>
      </trkpt>
      <trkpt lat="44.78673" lon="4.39056">
        <ele>1150</ele>
        <time>2022-06-09T09:36:08Z</time>
      </trkpt>
      <trkpt lat="44.78674" lon="4.3905">
        <ele>1150</ele>
        <time>2022-06-09T09:36:09Z</time>
      </trkpt>
      <trkpt lat="44.78675" lon="4.3904">
        <ele>1149.9</ele>
        <time>2022-06-09T09:36:11Z</time>
      </trkpt>
      <trkpt lat="44.78676" lon="4.39034">
        <ele>1149.9</ele>
        <time>2022-06-09T09:36:12Z</time>
      </trkpt>
      <trkpt lat="44.78676" lon="4.39028">
        <ele>1149.9</ele>
        <time>2022-06-09T09:36:14Z</time>
      </trkpt>
      <trkpt lat="44.78677" lon="4.39022">
        <ele>1149.9</ele>
        <time>2022-06-09T09:36:15Z</time>
      </trkpt>
      <trkpt lat="44.78676" lon="4.39016">
        <ele>1149.9</ele>
        <time>2022-06-09T09:36:16Z</time>
      </trkpt>
      <trkpt lat="44.78676" lon="4.39009">
        <ele>1150</ele>
        <time>2022-06-09T09:36:17Z</time>
      </trkpt>
      <trkpt lat="44.78676" lon="4.39003">
        <ele>1150</ele>
        <time>2022-06-09T09:36:18Z</time>
      </trkpt>
      <trkpt lat="44.78675" lon="4.38997">
        <ele>1150</ele>
        <time>2022-06-09T09:36:19Z</time>
      </trkpt>
      <trkpt lat="44.78674" lon="4.38992">
        <ele>1150</ele>
        <time>2022-06-09T09:36:20Z</time>
      </trkpt>
      <trkpt lat="44.78673" lon="4.38984">
        <ele>1150.1</ele>
        <time>2022-06-09T09:36:21Z</time>
      </trkpt>
      <trkpt lat="44.78672" lon="4.38976">
        <ele>1150.2</ele>
        <time>2022-06-09T09:36:22Z</time>
      </trkpt>
      <trkpt lat="44.78672" lon="4.38969">
        <ele>1150.2</ele>
        <time>2022-06-09T09:36:24Z</time>
      </trkpt>
      <trkpt lat="44.78671" lon="4.38963">
        <ele>1150.3</ele>
        <time>2022-06-09T09:36:25Z</time>
      </trkpt>
      <trkpt lat="44.7867" lon="4.38956">
        <ele>1150.4</ele>
        <time>2022-06-09T09:36:26Z</time>
      </trkpt>
      <trkpt lat="44.78669" lon="4.38951">
        <ele>1150.4</ele>
        <time>2022-06-09T09:36:27Z</time>
      </trkpt>
      <trkpt lat="44.78668" lon="4.38944">
        <ele>1150.5</ele>
        <time>2022-06-09T09:36:28Z</time>
      </trkpt>
      <trkpt lat="44.78667" lon="4.38939">
        <ele>1150.6</ele>
        <time>2022-06-09T09:36:29Z</time>
      </trkpt>
      <trkpt lat="44.78666" lon="4.38929">
        <ele>1150.7</ele>
        <time>2022-06-09T09:36:31Z</time>
      </trkpt>
      <trkpt lat="44.78664" lon="4.38923">
        <ele>1150.7</ele>
        <time>2022-06-09T09:36:33Z</time>
      </trkpt>
      <trkpt lat="44.78664" lon="4.38918">
        <ele>1150.8</ele>
        <time>2022-06-09T09:36:34Z</time>
      </trkpt>
      <trkpt lat="44.78663" lon="4.38914">
        <ele>1150.8</ele>
        <time>2022-06-09T09:36:35Z</time>
      </trkpt>
      <trkpt lat="44.78661" lon="4.38909">
        <ele>1150.9</ele>
        <time>2022-06-09T09:36:36Z</time>
      </trkpt>
      <trkpt lat="44.7866" lon="4.38904">
        <ele>1150.9</ele>
        <time>2022-06-09T09:36:37Z</time>
      </trkpt>
      <trkpt lat="44.78657" lon="4.38895">
        <ele>1151</ele>
        <time>2022-06-09T09:36:38Z</time>
      </trkpt>
      <trkpt lat="44.78655" lon="4.38889">
        <ele>1151.1</ele>
        <time>2022-06-09T09:36:40Z</time>
      </trkpt>
      <trkpt lat="44.78653" lon="4.38883">
        <ele>1151.2</ele>
        <time>2022-06-09T09:36:41Z</time>
      </trkpt>
      <trkpt lat="44.7865" lon="4.38876">
        <ele>1151.2</ele>
        <time>2022-06-09T09:36:42Z</time>
      </trkpt>
      <trkpt lat="44.78648" lon="4.38871">
        <ele>1151.2</ele>
        <time>2022-06-09T09:36:43Z</time>
      </trkpt>
      <trkpt lat="44.78646" lon="4.38865">
        <ele>1151.3</ele>
        <time>2022-06-09T09:36:45Z</time>
      </trkpt>
      <trkpt lat="44.78645" lon="4.38859">
        <ele>1151.3</ele>
        <time>2022-06-09T09:36:46Z</time>
      </trkpt>
      <trkpt lat="44.78643" lon="4.38855">
        <ele>1151.4</ele>
        <time>2022-06-09T09:36:47Z</time>
      </trkpt>
      <trkpt lat="44.78641" lon="4.3885">
        <ele>1151.4</ele>
        <time>2022-06-09T09:36:48Z</time>
      </trkpt>
      <trkpt lat="44.7864" lon="4.38845">
        <ele>1151.4</ele>
        <time>2022-06-09T09:36:49Z</time>
      </trkpt>
      <trkpt lat="44.78638" lon="4.3884">
        <ele>1151.5</ele>
        <time>2022-06-09T09:36:50Z</time>
      </trkpt>
      <trkpt lat="44.78636" lon="4.38836">
        <ele>1151.5</ele>
        <time>2022-06-09T09:36:51Z</time>
      </trkpt>
      <trkpt lat="44.78634" lon="4.38831">
        <ele>1151.5</ele>
        <time>2022-06-09T09:36:52Z</time>
      </trkpt>
      <trkpt lat="44.78632" lon="4.38827">
        <ele>1151.5</ele>
        <time>2022-06-09T09:36:53Z</time>
      </trkpt>
      <trkpt lat="44.7863" lon="4.38822">
        <ele>1151.5</ele>
        <time>2022-06-09T09:36:54Z</time>
      </trkpt>
      <trkpt lat="44.78628" lon="4.38817">
        <ele>1151.6</ele>
        <time>2022-06-09T09:36:55Z</time>
      </trkpt>
      <trkpt lat="44.78626" lon="4.38812">
        <ele>1151.6</ele>
        <time>2022-06-09T09:36:56Z</time>
      </trkpt>
      <trkpt lat="44.78624" lon="4.38807">
        <ele>1151.6</ele>
        <time>2022-06-09T09:36:57Z</time>
      </trkpt>
      <trkpt lat="44.78622" lon="4.388">
        <ele>1151.6</ele>
        <time>2022-06-09T09:36:58Z</time>
      </trkpt>
      <trkpt lat="44.7862" lon="4.38794">
        <ele>1151.6</ele>
        <time>2022-06-09T09:36:59Z</time>
      </trkpt>
      <trkpt lat="44.78618" lon="4.38788">
        <ele>1151.6</ele>
        <time>2022-06-09T09:37:00Z</time>
      </trkpt>
      <trkpt lat="44.78616" lon="4.38781">
        <ele>1151.6</ele>
        <time>2022-06-09T09:37:01Z</time>
      </trkpt>
      <trkpt lat="44.78614" lon="4.38774">
        <ele>1151.6</ele>
        <time>2022-06-09T09:37:02Z</time>
      </trkpt>
      <trkpt lat="44.78612" lon="4.38768">
        <ele>1151.6</ele>
        <time>2022-06-09T09:37:03Z</time>
      </trkpt>
      <trkpt lat="44.78611" lon="4.38761">
        <ele>1151.6</ele>
        <time>2022-06-09T09:37:04Z</time>
      </trkpt>
      <trkpt lat="44.78609" lon="4.38754">
        <ele>1151.6</ele>
        <time>2022-06-09T09:37:05Z</time>
      </trkpt>
      <trkpt lat="44.78607" lon="4.38748">
        <ele>1151.6</ele>
        <time>2022-06-09T09:37:06Z</time>
      </trkpt>
      <trkpt lat="44.78605" lon="4.38741">
        <ele>1151.6</ele>
        <time>2022-06-09T09:37:07Z</time>
      </trkpt>
      <trkpt lat="44.78603" lon="4.38735">
        <ele>1151.6</ele>
        <time>2022-06-09T09:37:08Z</time>
      </trkpt>
      <trkpt lat="44.786" lon="4.38729">
        <ele>1151.6</ele>
        <time>2022-06-09T09:37:09Z</time>
      </trkpt>
      <trkpt lat="44.78597" lon="4.38723">
        <ele>1151.6</ele>
        <time>2022-06-09T09:37:10Z</time>
      </trkpt>
      <trkpt lat="44.78593" lon="4.38717">
        <ele>1151.6</ele>
        <time>2022-06-09T09:37:11Z</time>
      </trkpt>
      <trkpt lat="44.7859" lon="4.38711">
        <ele>1151.7</ele>
        <time>2022-06-09T09:37:12Z</time>
      </trkpt>
      <trkpt lat="44.78586" lon="4.38706">
        <ele>1151.7</ele>
        <time>2022-06-09T09:37:13Z</time>
      </trkpt>
      <trkpt lat="44.78582" lon="4.38701">
        <ele>1151.8</ele>
        <time>2022-06-09T09:37:14Z</time>
      </trkpt>
      <trkpt lat="44.78579" lon="4.38696">
        <ele>1151.8</ele>
        <time>2022-06-09T09:37:15Z</time>
      </trkpt>
      <trkpt lat="44.78575" lon="4.38691">
        <ele>1151.9</ele>
        <time>2022-06-09T09:37:16Z</time>
      </trkpt>
      <trkpt lat="44.78572" lon="4.38686">
        <ele>1152</ele>
        <time>2022-06-09T09:37:17Z</time>
      </trkpt>
      <trkpt lat="44.78569" lon="4.38681">
        <ele>1152.1</ele>
        <time>2022-06-09T09:37:18Z</time>
      </trkpt>
      <trkpt lat="44.78566" lon="4.38676">
        <ele>1152.1</ele>
        <time>2022-06-09T09:37:19Z</time>
      </trkpt>
      <trkpt lat="44.78563" lon="4.38671">
        <ele>1152.2</ele>
        <time>2022-06-09T09:37:20Z</time>
      </trkpt>
      <trkpt lat="44.7856" lon="4.38667">
        <ele>1152.3</ele>
        <time>2022-06-09T09:37:21Z</time>
      </trkpt>
      <trkpt lat="44.78557" lon="4.38664">
        <ele>1152.4</ele>
        <time>2022-06-09T09:37:22Z</time>
      </trkpt>
      <trkpt lat="44.78555" lon="4.3866">
        <ele>1152.5</ele>
        <time>2022-06-09T09:37:23Z</time>
      </trkpt>
      <trkpt lat="44.78552" lon="4.38657">
        <ele>1152.6</ele>
        <time>2022-06-09T09:37:24Z</time>
      </trkpt>
      <trkpt lat="44.78549" lon="4.38653">
        <ele>1152.7</ele>
        <time>2022-06-09T09:37:25Z</time>
      </trkpt>
      <trkpt lat="44.78546" lon="4.38648">
        <ele>1152.8</ele>
        <time>2022-06-09T09:37:26Z</time>
      </trkpt>
      <trkpt lat="44.78544" lon="4.38645">
        <ele>1152.8</ele>
        <time>2022-06-09T09:37:27Z</time>
      </trkpt>
      <trkpt lat="44.78541" lon="4.38642">
        <ele>1152.9</ele>
        <time>2022-06-09T09:37:28Z</time>
      </trkpt>
      <trkpt lat="44.78537" lon="4.38641">
        <ele>1153</ele>
        <time>2022-06-09T09:37:29Z</time>
      </trkpt>
      <trkpt lat="44.78536" lon="4.38639">
        <ele>1153.1</ele>
        <time>2022-06-09T09:37:30Z</time>
      </trkpt>
      <trkpt lat="44.78528" lon="4.3863">
        <ele>1153.4</ele>
        <time>2022-06-09T09:37:31Z</time>
      </trkpt>
      <trkpt lat="44.78524" lon="4.38626">
        <ele>1153.5</ele>
        <time>2022-06-09T09:37:33Z</time>
      </trkpt>
      <trkpt lat="44.78519" lon="4.38621">
        <ele>1153.6</ele>
        <time>2022-06-09T09:37:34Z</time>
      </trkpt>
      <trkpt lat="44.78516" lon="4.38617">
        <ele>1153.6</ele>
        <time>2022-06-09T09:37:35Z</time>
      </trkpt>
      <trkpt lat="44.78511" lon="4.38608">
        <ele>1153.7</ele>
        <time>2022-06-09T09:37:37Z</time>
      </trkpt>
      <trkpt lat="44.78509" lon="4.38597">
        <ele>1153.7</ele>
        <time>2022-06-09T09:37:39Z</time>
      </trkpt>
      <trkpt lat="44.78508" lon="4.3859">
        <ele>1153.7</ele>
        <time>2022-06-09T09:37:40Z</time>
      </trkpt>
      <trkpt lat="44.78509" lon="4.38583">
        <ele>1153.8</ele>
        <time>2022-06-09T09:37:41Z</time>
      </trkpt>
      <trkpt lat="44.7851" lon="4.38577">
        <ele>1153.8</ele>
        <time>2022-06-09T09:37:42Z</time>
      </trkpt>
      <trkpt lat="44.78512" lon="4.38571">
        <ele>1153.8</ele>
        <time>2022-06-09T09:37:43Z</time>
      </trkpt>
      <trkpt lat="44.78514" lon="4.38565">
        <ele>1153.9</ele>
        <time>2022-06-09T09:37:44Z</time>
      </trkpt>
      <trkpt lat="44.78516" lon="4.38558">
        <ele>1153.9</ele>
        <time>2022-06-09T09:37:45Z</time>
      </trkpt>
      <trkpt lat="44.78519" lon="4.38554">
        <ele>1153.9</ele>
        <time>2022-06-09T09:37:46Z</time>
      </trkpt>
      <trkpt lat="44.78521" lon="4.3855">
        <ele>1154</ele>
        <time>2022-06-09T09:37:48Z</time>
      </trkpt>
      <trkpt lat="44.78523" lon="4.38545">
        <ele>1154</ele>
        <time>2022-06-09T09:37:49Z</time>
      </trkpt>
      <trkpt lat="44.78525" lon="4.38541">
        <ele>1154</ele>
        <time>2022-06-09T09:37:50Z</time>
      </trkpt>
      <trkpt lat="44.78526" lon="4.38537">
        <ele>1154.1</ele>
        <time>2022-06-09T09:37:51Z</time>
      </trkpt>
      <trkpt lat="44.78528" lon="4.38529">
        <ele>1154.1</ele>
        <time>2022-06-09T09:37:53Z</time>
      </trkpt>
      <trkpt lat="44.78528" lon="4.38521">
        <ele>1154.2</ele>
        <time>2022-06-09T09:37:54Z</time>
      </trkpt>
      <trkpt lat="44.78527" lon="4.38513">
        <ele>1154.2</ele>
        <time>2022-06-09T09:37:55Z</time>
      </trkpt>
      <trkpt lat="44.78527" lon="4.38506">
        <ele>1154.3</ele>
        <time>2022-06-09T09:37:57Z</time>
      </trkpt>
      <trkpt lat="44.78526" lon="4.38498">
        <ele>1154.3</ele>
        <time>2022-06-09T09:37:59Z</time>
      </trkpt>
      <trkpt lat="44.78525" lon="4.3849">
        <ele>1154.3</ele>
        <time>2022-06-09T09:38:00Z</time>
      </trkpt>
      <trkpt lat="44.78524" lon="4.38484">
        <ele>1154.4</ele>
        <time>2022-06-09T09:38:02Z</time>
      </trkpt>
      <trkpt lat="44.78524" lon="4.3848">
        <ele>1154.4</ele>
        <time>2022-06-09T09:38:03Z</time>
      </trkpt>
      <trkpt lat="44.78523" lon="4.38475">
        <ele>1154.4</ele>
        <time>2022-06-09T09:38:04Z</time>
      </trkpt>
      <trkpt lat="44.78521" lon="4.38465">
        <ele>1154.4</ele>
        <time>2022-06-09T09:38:05Z</time>
      </trkpt>
      <trkpt lat="44.78521" lon="4.3846">
        <ele>1154.4</ele>
        <time>2022-06-09T09:38:07Z</time>
      </trkpt>
      <trkpt lat="44.78521" lon="4.38455">
        <ele>1154.4</ele>
        <time>2022-06-09T09:38:08Z</time>
      </trkpt>
      <trkpt lat="44.7852" lon="4.3845">
        <ele>1154.5</ele>
        <time>2022-06-09T09:38:09Z</time>
      </trkpt>
      <trkpt lat="44.7852" lon="4.38445">
        <ele>1154.5</ele>
        <time>2022-06-09T09:38:10Z</time>
      </trkpt>
      <trkpt lat="44.7852" lon="4.3844">
        <ele>1154.5</ele>
        <time>2022-06-09T09:38:11Z</time>
      </trkpt>
      <trkpt lat="44.7852" lon="4.38435">
        <ele>1154.5</ele>
        <time>2022-06-09T09:38:12Z</time>
      </trkpt>
      <trkpt lat="44.7852" lon="4.38429">
        <ele>1154.5</ele>
        <time>2022-06-09T09:38:13Z</time>
      </trkpt>
      <trkpt lat="44.7852" lon="4.38424">
        <ele>1154.6</ele>
        <time>2022-06-09T09:38:14Z</time>
      </trkpt>
      <trkpt lat="44.78521" lon="4.38418">
        <ele>1154.6</ele>
        <time>2022-06-09T09:38:15Z</time>
      </trkpt>
      <trkpt lat="44.78521" lon="4.38413">
        <ele>1154.7</ele>
        <time>2022-06-09T09:38:16Z</time>
      </trkpt>
      <trkpt lat="44.78521" lon="4.38408">
        <ele>1154.7</ele>
        <time>2022-06-09T09:38:17Z</time>
      </trkpt>
      <trkpt lat="44.78521" lon="4.38399">
        <ele>1154.8</ele>
        <time>2022-06-09T09:38:18Z</time>
      </trkpt>
      <trkpt lat="44.78522" lon="4.38393">
        <ele>1154.9</ele>
        <time>2022-06-09T09:38:20Z</time>
      </trkpt>
      <trkpt lat="44.78522" lon="4.38389">
        <ele>1154.9</ele>
        <time>2022-06-09T09:38:21Z</time>
      </trkpt>
      <trkpt lat="44.78522" lon="4.38384">
        <ele>1155</ele>
        <time>2022-06-09T09:38:22Z</time>
      </trkpt>
      <trkpt lat="44.78522" lon="4.3838">
        <ele>1155</ele>
        <time>2022-06-09T09:38:23Z</time>
      </trkpt>
      <trkpt lat="44.78522" lon="4.38376">
        <ele>1155</ele>
        <time>2022-06-09T09:38:24Z</time>
      </trkpt>
      <trkpt lat="44.78522" lon="4.38371">
        <ele>1155.1</ele>
        <time>2022-06-09T09:38:25Z</time>
      </trkpt>
      <trkpt lat="44.78521" lon="4.38367">
        <ele>1155.1</ele>
        <time>2022-06-09T09:38:26Z</time>
      </trkpt>
      <trkpt lat="44.78521" lon="4.38362">
        <ele>1155.2</ele>
        <time>2022-06-09T09:38:27Z</time>
      </trkpt>
      <trkpt lat="44.78521" lon="4.38357">
        <ele>1155.2</ele>
        <time>2022-06-09T09:38:28Z</time>
      </trkpt>
      <trkpt lat="44.7852" lon="4.38352">
        <ele>1155.3</ele>
        <time>2022-06-09T09:38:29Z</time>
      </trkpt>
      <trkpt lat="44.78518" lon="4.38348">
        <ele>1155.3</ele>
        <time>2022-06-09T09:38:30Z</time>
      </trkpt>
      <trkpt lat="44.78516" lon="4.38344">
        <ele>1155.4</ele>
        <time>2022-06-09T09:38:31Z</time>
      </trkpt>
      <trkpt lat="44.78515" lon="4.38339">
        <ele>1155.4</ele>
        <time>2022-06-09T09:38:32Z</time>
      </trkpt>
      <trkpt lat="44.78514" lon="4.38334">
        <ele>1155.5</ele>
        <time>2022-06-09T09:38:33Z</time>
      </trkpt>
      <trkpt lat="44.78511" lon="4.38326">
        <ele>1155.5</ele>
        <time>2022-06-09T09:38:34Z</time>
      </trkpt>
      <trkpt lat="44.78507" lon="4.38317">
        <ele>1155.6</ele>
        <time>2022-06-09T09:38:36Z</time>
      </trkpt>
      <trkpt lat="44.78503" lon="4.38308">
        <ele>1155.7</ele>
        <time>2022-06-09T09:38:38Z</time>
      </trkpt>
      <trkpt lat="44.785" lon="4.38303">
        <ele>1155.7</ele>
        <time>2022-06-09T09:38:39Z</time>
      </trkpt>
      <trkpt lat="44.78498" lon="4.38299">
        <ele>1155.8</ele>
        <time>2022-06-09T09:38:40Z</time>
      </trkpt>
      <trkpt lat="44.78496" lon="4.38294">
        <ele>1155.8</ele>
        <time>2022-06-09T09:38:42Z</time>
      </trkpt>
      <trkpt lat="44.78492" lon="4.38289">
        <ele>1155.9</ele>
        <time>2022-06-09T09:38:43Z</time>
      </trkpt>
      <trkpt lat="44.78488" lon="4.38283">
        <ele>1156</ele>
        <time>2022-06-09T09:38:44Z</time>
      </trkpt>
      <trkpt lat="44.78484" lon="4.38278">
        <ele>1156.1</ele>
        <time>2022-06-09T09:38:45Z</time>
      </trkpt>
      <trkpt lat="44.78481" lon="4.38273">
        <ele>1156.1</ele>
        <time>2022-06-09T09:38:47Z</time>
      </trkpt>
      <trkpt lat="44.78476" lon="4.38262">
        <ele>1156.3</ele>
        <time>2022-06-09T09:38:48Z</time>
      </trkpt>
      <trkpt lat="44.78474" lon="4.38256">
        <ele>1156.3</ele>
        <time>2022-06-09T09:38:50Z</time>
      </trkpt>
      <trkpt lat="44.78472" lon="4.3825">
        <ele>1156.3</ele>
        <time>2022-06-09T09:38:51Z</time>
      </trkpt>
      <trkpt lat="44.78471" lon="4.38244">
        <ele>1156.4</ele>
        <time>2022-06-09T09:38:52Z</time>
      </trkpt>
      <trkpt lat="44.7847" lon="4.38239">
        <ele>1156.4</ele>
        <time>2022-06-09T09:38:53Z</time>
      </trkpt>
      <trkpt lat="44.78469" lon="4.38233">
        <ele>1156.5</ele>
        <time>2022-06-09T09:38:54Z</time>
      </trkpt>
      <trkpt lat="44.78468" lon="4.38228">
        <ele>1156.5</ele>
        <time>2022-06-09T09:38:55Z</time>
      </trkpt>
      <trkpt lat="44.78467" lon="4.38222">
        <ele>1156.6</ele>
        <time>2022-06-09T09:38:56Z</time>
      </trkpt>
      <trkpt lat="44.78465" lon="4.38217">
        <ele>1156.6</ele>
        <time>2022-06-09T09:38:57Z</time>
      </trkpt>
      <trkpt lat="44.78463" lon="4.38211">
        <ele>1156.7</ele>
        <time>2022-06-09T09:38:58Z</time>
      </trkpt>
      <trkpt lat="44.78461" lon="4.38205">
        <ele>1156.8</ele>
        <time>2022-06-09T09:38:59Z</time>
      </trkpt>
      <trkpt lat="44.78459" lon="4.382">
        <ele>1156.9</ele>
        <time>2022-06-09T09:39:00Z</time>
      </trkpt>
      <trkpt lat="44.78458" lon="4.38194">
        <ele>1157</ele>
        <time>2022-06-09T09:39:01Z</time>
      </trkpt>
      <trkpt lat="44.78456" lon="4.38188">
        <ele>1157.1</ele>
        <time>2022-06-09T09:39:02Z</time>
      </trkpt>
      <trkpt lat="44.78453" lon="4.38176">
        <ele>1157.3</ele>
        <time>2022-06-09T09:39:03Z</time>
      </trkpt>
      <trkpt lat="44.78451" lon="4.38171">
        <ele>1157.4</ele>
        <time>2022-06-09T09:39:05Z</time>
      </trkpt>
      <trkpt lat="44.7845" lon="4.38166">
        <ele>1157.5</ele>
        <time>2022-06-09T09:39:06Z</time>
      </trkpt>
      <trkpt lat="44.78448" lon="4.38161">
        <ele>1157.6</ele>
        <time>2022-06-09T09:39:07Z</time>
      </trkpt>
      <trkpt lat="44.78446" lon="4.38157">
        <ele>1157.6</ele>
        <time>2022-06-09T09:39:08Z</time>
      </trkpt>
      <trkpt lat="44.78444" lon="4.38152">
        <ele>1157.7</ele>
        <time>2022-06-09T09:39:09Z</time>
      </trkpt>
      <trkpt lat="44.78443" lon="4.38147">
        <ele>1157.8</ele>
        <time>2022-06-09T09:39:10Z</time>
      </trkpt>
      <trkpt lat="44.78441" lon="4.38142">
        <ele>1157.9</ele>
        <time>2022-06-09T09:39:11Z</time>
      </trkpt>
      <trkpt lat="44.78439" lon="4.38138">
        <ele>1158</ele>
        <time>2022-06-09T09:39:12Z</time>
      </trkpt>
      <trkpt lat="44.78437" lon="4.38133">
        <ele>1158.1</ele>
        <time>2022-06-09T09:39:13Z</time>
      </trkpt>
      <trkpt lat="44.78436" lon="4.38128">
        <ele>1158.1</ele>
        <time>2022-06-09T09:39:14Z</time>
      </trkpt>
      <trkpt lat="44.78435" lon="4.38123">
        <ele>1158.2</ele>
        <time>2022-06-09T09:39:15Z</time>
      </trkpt>
      <trkpt lat="44.78434" lon="4.38118">
        <ele>1158.3</ele>
        <time>2022-06-09T09:39:16Z</time>
      </trkpt>
      <trkpt lat="44.78433" lon="4.38113">
        <ele>1158.4</ele>
        <time>2022-06-09T09:39:17Z</time>
      </trkpt>
      <trkpt lat="44.78432" lon="4.38104">
        <ele>1158.5</ele>
        <time>2022-06-09T09:39:18Z</time>
      </trkpt>
      <trkpt lat="44.7843" lon="4.38094">
        <ele>1158.7</ele>
        <time>2022-06-09T09:39:20Z</time>
      </trkpt>
      <trkpt lat="44.7843" lon="4.38089">
        <ele>1158.8</ele>
        <time>2022-06-09T09:39:22Z</time>
      </trkpt>
      <trkpt lat="44.78429" lon="4.38082">
        <ele>1158.9</ele>
        <time>2022-06-09T09:39:23Z</time>
      </trkpt>
      <trkpt lat="44.78428" lon="4.38076">
        <ele>1159</ele>
        <time>2022-06-09T09:39:25Z</time>
      </trkpt>
      <trkpt lat="44.78427" lon="4.38071">
        <ele>1159</ele>
        <time>2022-06-09T09:39:26Z</time>
      </trkpt>
      <trkpt lat="44.78427" lon="4.38065">
        <ele>1159.1</ele>
        <time>2022-06-09T09:39:27Z</time>
      </trkpt>
      <trkpt lat="44.78427" lon="4.38056">
        <ele>1159.3</ele>
        <time>2022-06-09T09:39:29Z</time>
      </trkpt>
      <trkpt lat="44.78429" lon="4.38048">
        <ele>1159.4</ele>
        <time>2022-06-09T09:39:30Z</time>
      </trkpt>
      <trkpt lat="44.78429" lon="4.38043">
        <ele>1159.4</ele>
        <time>2022-06-09T09:39:31Z</time>
      </trkpt>
      <trkpt lat="44.7843" lon="4.38038">
        <ele>1159.5</ele>
        <time>2022-06-09T09:39:33Z</time>
      </trkpt>
      <trkpt lat="44.78431" lon="4.38029">
        <ele>1159.6</ele>
        <time>2022-06-09T09:39:34Z</time>
      </trkpt>
      <trkpt lat="44.78431" lon="4.38023">
        <ele>1159.6</ele>
        <time>2022-06-09T09:39:36Z</time>
      </trkpt>
      <trkpt lat="44.78431" lon="4.38018">
        <ele>1159.7</ele>
        <time>2022-06-09T09:39:37Z</time>
      </trkpt>
      <trkpt lat="44.78432" lon="4.38013">
        <ele>1159.7</ele>
        <time>2022-06-09T09:39:38Z</time>
      </trkpt>
      <trkpt lat="44.78433" lon="4.38004">
        <ele>1159.7</ele>
        <time>2022-06-09T09:39:39Z</time>
      </trkpt>
      <trkpt lat="44.78434" lon="4.37998">
        <ele>1159.7</ele>
        <time>2022-06-09T09:39:40Z</time>
      </trkpt>
      <trkpt lat="44.78436" lon="4.37987">
        <ele>1159.8</ele>
        <time>2022-06-09T09:39:42Z</time>
      </trkpt>
      <trkpt lat="44.78438" lon="4.3798">
        <ele>1159.8</ele>
        <time>2022-06-09T09:39:43Z</time>
      </trkpt>
      <trkpt lat="44.7844" lon="4.37974">
        <ele>1159.8</ele>
        <time>2022-06-09T09:39:44Z</time>
      </trkpt>
      <trkpt lat="44.78442" lon="4.37969">
        <ele>1159.9</ele>
        <time>2022-06-09T09:39:45Z</time>
      </trkpt>
      <trkpt lat="44.78445" lon="4.37964">
        <ele>1159.9</ele>
        <time>2022-06-09T09:39:46Z</time>
      </trkpt>
      <trkpt lat="44.78449" lon="4.37959">
        <ele>1160</ele>
        <time>2022-06-09T09:39:47Z</time>
      </trkpt>
      <trkpt lat="44.78452" lon="4.37954">
        <ele>1160</ele>
        <time>2022-06-09T09:39:48Z</time>
      </trkpt>
      <trkpt lat="44.78454" lon="4.3795">
        <ele>1160</ele>
        <time>2022-06-09T09:39:49Z</time>
      </trkpt>
      <trkpt lat="44.78457" lon="4.37945">
        <ele>1160.1</ele>
        <time>2022-06-09T09:39:50Z</time>
      </trkpt>
      <trkpt lat="44.78461" lon="4.37939">
        <ele>1160.1</ele>
        <time>2022-06-09T09:39:51Z</time>
      </trkpt>
      <trkpt lat="44.78464" lon="4.37933">
        <ele>1160.1</ele>
        <time>2022-06-09T09:39:52Z</time>
      </trkpt>
      <trkpt lat="44.78466" lon="4.37925">
        <ele>1160.1</ele>
        <time>2022-06-09T09:39:54Z</time>
      </trkpt>
      <trkpt lat="44.78466" lon="4.37918">
        <ele>1160.1</ele>
        <time>2022-06-09T09:39:55Z</time>
      </trkpt>
      <trkpt lat="44.78466" lon="4.37911">
        <ele>1160.1</ele>
        <time>2022-06-09T09:39:56Z</time>
      </trkpt>
      <trkpt lat="44.78465" lon="4.37904">
        <ele>1160.1</ele>
        <time>2022-06-09T09:39:57Z</time>
      </trkpt>
      <trkpt lat="44.78464" lon="4.37898">
        <ele>1160.1</ele>
        <time>2022-06-09T09:39:58Z</time>
      </trkpt>
      <trkpt lat="44.78462" lon="4.37891">
        <ele>1160.2</ele>
        <time>2022-06-09T09:39:59Z</time>
      </trkpt>
      <trkpt lat="44.7846" lon="4.37885">
        <ele>1160.2</ele>
        <time>2022-06-09T09:40:00Z</time>
      </trkpt>
      <trkpt lat="44.78458" lon="4.37878">
        <ele>1160.2</ele>
        <time>2022-06-09T09:40:01Z</time>
      </trkpt>
      <trkpt lat="44.78456" lon="4.37872">
        <ele>1160.2</ele>
        <time>2022-06-09T09:40:02Z</time>
      </trkpt>
      <trkpt lat="44.78454" lon="4.37865">
        <ele>1160.3</ele>
        <time>2022-06-09T09:40:03Z</time>
      </trkpt>
      <trkpt lat="44.78453" lon="4.37858">
        <ele>1160.3</ele>
        <time>2022-06-09T09:40:04Z</time>
      </trkpt>
      <trkpt lat="44.78452" lon="4.37851">
        <ele>1160.4</ele>
        <time>2022-06-09T09:40:05Z</time>
      </trkpt>
      <trkpt lat="44.78451" lon="4.37844">
        <ele>1160.4</ele>
        <time>2022-06-09T09:40:06Z</time>
      </trkpt>
      <trkpt lat="44.7845" lon="4.37837">
        <ele>1160.5</ele>
        <time>2022-06-09T09:40:07Z</time>
      </trkpt>
      <trkpt lat="44.78449" lon="4.37831">
        <ele>1160.6</ele>
        <time>2022-06-09T09:40:08Z</time>
      </trkpt>
      <trkpt lat="44.78449" lon="4.37824">
        <ele>1160.6</ele>
        <time>2022-06-09T09:40:09Z</time>
      </trkpt>
      <trkpt lat="44.78449" lon="4.37817">
        <ele>1160.7</ele>
        <time>2022-06-09T09:40:10Z</time>
      </trkpt>
      <trkpt lat="44.7845" lon="4.37811">
        <ele>1160.7</ele>
        <time>2022-06-09T09:40:11Z</time>
      </trkpt>
      <trkpt lat="44.78452" lon="4.37805">
        <ele>1160.8</ele>
        <time>2022-06-09T09:40:12Z</time>
      </trkpt>
      <trkpt lat="44.78454" lon="4.37799">
        <ele>1160.8</ele>
        <time>2022-06-09T09:40:13Z</time>
      </trkpt>
      <trkpt lat="44.78457" lon="4.37794">
        <ele>1160.9</ele>
        <time>2022-06-09T09:40:14Z</time>
      </trkpt>
      <trkpt lat="44.78459" lon="4.37791">
        <ele>1160.9</ele>
        <time>2022-06-09T09:40:15Z</time>
      </trkpt>
      <trkpt lat="44.78462" lon="4.37788">
        <ele>1160.9</ele>
        <time>2022-06-09T09:40:16Z</time>
      </trkpt>
      <trkpt lat="44.78467" lon="4.37784">
        <ele>1161</ele>
        <time>2022-06-09T09:40:17Z</time>
      </trkpt>
      <trkpt lat="44.78471" lon="4.37781">
        <ele>1161</ele>
        <time>2022-06-09T09:40:18Z</time>
      </trkpt>
      <trkpt lat="44.78474" lon="4.37779">
        <ele>1161</ele>
        <time>2022-06-09T09:40:19Z</time>
      </trkpt>
      <trkpt lat="44.78478" lon="4.37778">
        <ele>1161.1</ele>
        <time>2022-06-09T09:40:20Z</time>
      </trkpt>
      <trkpt lat="44.78479" lon="4.37779">
        <ele>1161.1</ele>
        <time>2022-06-09T09:40:21Z</time>
      </trkpt>
      <trkpt lat="44.78483" lon="4.37773">
        <ele>1161.1</ele>
        <time>2022-06-09T09:40:22Z</time>
      </trkpt>
      <trkpt lat="44.78487" lon="4.37764">
        <ele>1161.2</ele>
        <time>2022-06-09T09:40:23Z</time>
      </trkpt>
      <trkpt lat="44.7849" lon="4.37759">
        <ele>1161.2</ele>
        <time>2022-06-09T09:40:25Z</time>
      </trkpt>
      <trkpt lat="44.78496" lon="4.37752">
        <ele>1161.2</ele>
        <time>2022-06-09T09:40:26Z</time>
      </trkpt>
      <trkpt lat="44.785" lon="4.37748">
        <ele>1161.3</ele>
        <time>2022-06-09T09:40:27Z</time>
      </trkpt>
      <trkpt lat="44.78506" lon="4.37739">
        <ele>1161.3</ele>
        <time>2022-06-09T09:40:29Z</time>
      </trkpt>
      <trkpt lat="44.7851" lon="4.37735">
        <ele>1161.4</ele>
        <time>2022-06-09T09:40:30Z</time>
      </trkpt>
      <trkpt lat="44.78513" lon="4.37732">
        <ele>1161.4</ele>
        <time>2022-06-09T09:40:31Z</time>
      </trkpt>
      <trkpt lat="44.78517" lon="4.37727">
        <ele>1161.4</ele>
        <time>2022-06-09T09:40:32Z</time>
      </trkpt>
      <trkpt lat="44.78521" lon="4.37721">
        <ele>1161.5</ele>
        <time>2022-06-09T09:40:33Z</time>
      </trkpt>
      <trkpt lat="44.78526" lon="4.37711">
        <ele>1161.5</ele>
        <time>2022-06-09T09:40:36Z</time>
      </trkpt>
      <trkpt lat="44.78529" lon="4.37704">
        <ele>1161.6</ele>
        <time>2022-06-09T09:40:37Z</time>
      </trkpt>
      <trkpt lat="44.78532" lon="4.37695">
        <ele>1161.6</ele>
        <time>2022-06-09T09:40:39Z</time>
      </trkpt>
      <trkpt lat="44.78533" lon="4.37689">
        <ele>1161.7</ele>
        <time>2022-06-09T09:40:40Z</time>
      </trkpt>
      <trkpt lat="44.78534" lon="4.37682">
        <ele>1161.7</ele>
        <time>2022-06-09T09:40:41Z</time>
      </trkpt>
      <trkpt lat="44.78536" lon="4.37676">
        <ele>1161.7</ele>
        <time>2022-06-09T09:40:42Z</time>
      </trkpt>
      <trkpt lat="44.78537" lon="4.3767">
        <ele>1161.8</ele>
        <time>2022-06-09T09:40:43Z</time>
      </trkpt>
      <trkpt lat="44.78537" lon="4.37663">
        <ele>1161.8</ele>
        <time>2022-06-09T09:40:45Z</time>
      </trkpt>
      <trkpt lat="44.78538" lon="4.37658">
        <ele>1161.9</ele>
        <time>2022-06-09T09:40:46Z</time>
      </trkpt>
      <trkpt lat="44.78539" lon="4.37653">
        <ele>1161.9</ele>
        <time>2022-06-09T09:40:47Z</time>
      </trkpt>
      <trkpt lat="44.78539" lon="4.37648">
        <ele>1162</ele>
        <time>2022-06-09T09:40:48Z</time>
      </trkpt>
      <trkpt lat="44.78539" lon="4.37642">
        <ele>1162</ele>
        <time>2022-06-09T09:40:49Z</time>
      </trkpt>
      <trkpt lat="44.78539" lon="4.37637">
        <ele>1162</ele>
        <time>2022-06-09T09:40:50Z</time>
      </trkpt>
      <trkpt lat="44.78539" lon="4.37632">
        <ele>1162.1</ele>
        <time>2022-06-09T09:40:51Z</time>
      </trkpt>
      <trkpt lat="44.78539" lon="4.37621">
        <ele>1162.2</ele>
        <time>2022-06-09T09:40:52Z</time>
      </trkpt>
      <trkpt lat="44.78539" lon="4.37611">
        <ele>1162.2</ele>
        <time>2022-06-09T09:40:54Z</time>
      </trkpt>
      <trkpt lat="44.78539" lon="4.37606">
        <ele>1162.3</ele>
        <time>2022-06-09T09:40:56Z</time>
      </trkpt>
      <trkpt lat="44.78538" lon="4.37596">
        <ele>1162.3</ele>
        <time>2022-06-09T09:40:57Z</time>
      </trkpt>
      <trkpt lat="44.78537" lon="4.37586">
        <ele>1162.3</ele>
        <time>2022-06-09T09:40:59Z</time>
      </trkpt>
      <trkpt lat="44.78536" lon="4.37581">
        <ele>1162.4</ele>
        <time>2022-06-09T09:41:00Z</time>
      </trkpt>
      <trkpt lat="44.78535" lon="4.37577">
        <ele>1162.4</ele>
        <time>2022-06-09T09:41:02Z</time>
      </trkpt>
      <trkpt lat="44.78534" lon="4.37571">
        <ele>1162.4</ele>
        <time>2022-06-09T09:41:03Z</time>
      </trkpt>
      <trkpt lat="44.78532" lon="4.37563">
        <ele>1162.4</ele>
        <time>2022-06-09T09:41:04Z</time>
      </trkpt>
      <trkpt lat="44.78531" lon="4.37555">
        <ele>1162.5</ele>
        <time>2022-06-09T09:41:05Z</time>
      </trkpt>
      <trkpt lat="44.78529" lon="4.3755">
        <ele>1162.5</ele>
        <time>2022-06-09T09:41:07Z</time>
      </trkpt>
      <trkpt lat="44.78528" lon="4.37544">
        <ele>1162.6</ele>
        <time>2022-06-09T09:41:08Z</time>
      </trkpt>
      <trkpt lat="44.78526" lon="4.37538">
        <ele>1162.7</ele>
        <time>2022-06-09T09:41:09Z</time>
      </trkpt>
      <trkpt lat="44.78525" lon="4.37533">
        <ele>1162.7</ele>
        <time>2022-06-09T09:41:10Z</time>
      </trkpt>
      <trkpt lat="44.78524" lon="4.37523">
        <ele>1162.8</ele>
        <time>2022-06-09T09:41:11Z</time>
      </trkpt>
      <trkpt lat="44.78523" lon="4.37518">
        <ele>1162.9</ele>
        <time>2022-06-09T09:41:12Z</time>
      </trkpt>
      <trkpt lat="44.78522" lon="4.3751">
        <ele>1163</ele>
        <time>2022-06-09T09:41:13Z</time>
      </trkpt>
      <trkpt lat="44.78521" lon="4.37504">
        <ele>1163.1</ele>
        <time>2022-06-09T09:41:15Z</time>
      </trkpt>
      <trkpt lat="44.78519" lon="4.37498">
        <ele>1163.2</ele>
        <time>2022-06-09T09:41:16Z</time>
      </trkpt>
      <trkpt lat="44.78517" lon="4.37492">
        <ele>1163.3</ele>
        <time>2022-06-09T09:41:17Z</time>
      </trkpt>
      <trkpt lat="44.78515" lon="4.37485">
        <ele>1163.4</ele>
        <time>2022-06-09T09:41:18Z</time>
      </trkpt>
      <trkpt lat="44.78513" lon="4.3748">
        <ele>1163.5</ele>
        <time>2022-06-09T09:41:19Z</time>
      </trkpt>
      <trkpt lat="44.78511" lon="4.37476">
        <ele>1163.6</ele>
        <time>2022-06-09T09:41:20Z</time>
      </trkpt>
      <trkpt lat="44.78509" lon="4.37471">
        <ele>1163.6</ele>
        <time>2022-06-09T09:41:22Z</time>
      </trkpt>
      <trkpt lat="44.78507" lon="4.37463">
        <ele>1163.7</ele>
        <time>2022-06-09T09:41:23Z</time>
      </trkpt>
      <trkpt lat="44.78504" lon="4.37458">
        <ele>1163.7</ele>
        <time>2022-06-09T09:41:24Z</time>
      </trkpt>
      <trkpt lat="44.78502" lon="4.37452">
        <ele>1163.8</ele>
        <time>2022-06-09T09:41:25Z</time>
      </trkpt>
      <trkpt lat="44.785" lon="4.37446">
        <ele>1163.9</ele>
        <time>2022-06-09T09:41:26Z</time>
      </trkpt>
      <trkpt lat="44.78497" lon="4.3744">
        <ele>1163.9</ele>
        <time>2022-06-09T09:41:28Z</time>
      </trkpt>
      <trkpt lat="44.78495" lon="4.37435">
        <ele>1163.9</ele>
        <time>2022-06-09T09:41:29Z</time>
      </trkpt>
      <trkpt lat="44.78493" lon="4.37431">
        <ele>1164</ele>
        <time>2022-06-09T09:41:30Z</time>
      </trkpt>
      <trkpt lat="44.78489" lon="4.37424">
        <ele>1164</ele>
        <time>2022-06-09T09:41:31Z</time>
      </trkpt>
      <trkpt lat="44.78486" lon="4.37419">
        <ele>1164.1</ele>
        <time>2022-06-09T09:41:32Z</time>
      </trkpt>
      <trkpt lat="44.78487" lon="4.37414">
        <ele>1164.1</ele>
        <time>2022-06-09T09:41:33Z</time>
      </trkpt>
      <trkpt lat="44.78479" lon="4.37404">
        <ele>1164.2</ele>
        <time>2022-06-09T09:41:35Z</time>
      </trkpt>
      <trkpt lat="44.78475" lon="4.37398">
        <ele>1164.2</ele>
        <time>2022-06-09T09:41:36Z</time>
      </trkpt>
      <trkpt lat="44.78472" lon="4.37393">
        <ele>1164.2</ele>
        <time>2022-06-09T09:41:37Z</time>
      </trkpt>
      <trkpt lat="44.78469" lon="4.37387">
        <ele>1164.2</ele>
        <time>2022-06-09T09:41:38Z</time>
      </trkpt>
      <trkpt lat="44.78466" lon="4.37381">
        <ele>1164.3</ele>
        <time>2022-06-09T09:41:39Z</time>
      </trkpt>
      <trkpt lat="44.78463" lon="4.37376">
        <ele>1164.3</ele>
        <time>2022-06-09T09:41:40Z</time>
      </trkpt>
      <trkpt lat="44.7846" lon="4.37371">
        <ele>1164.4</ele>
        <time>2022-06-09T09:41:41Z</time>
      </trkpt>
      <trkpt lat="44.78457" lon="4.37366">
        <ele>1164.4</ele>
        <time>2022-06-09T09:41:42Z</time>
      </trkpt>
      <trkpt lat="44.78454" lon="4.37361">
        <ele>1164.5</ele>
        <time>2022-06-09T09:41:43Z</time>
      </trkpt>
      <trkpt lat="44.78452" lon="4.37355">
        <ele>1164.6</ele>
        <time>2022-06-09T09:41:44Z</time>
      </trkpt>
      <trkpt lat="44.78449" lon="4.3735">
        <ele>1164.7</ele>
        <time>2022-06-09T09:41:45Z</time>
      </trkpt>
      <trkpt lat="44.78447" lon="4.37344">
        <ele>1164.8</ele>
        <time>2022-06-09T09:41:46Z</time>
      </trkpt>
      <trkpt lat="44.78446" lon="4.37339">
        <ele>1164.9</ele>
        <time>2022-06-09T09:41:47Z</time>
      </trkpt>
      <trkpt lat="44.78444" lon="4.37332">
        <ele>1165</ele>
        <time>2022-06-09T09:41:48Z</time>
      </trkpt>
      <trkpt lat="44.78444" lon="4.37327">
        <ele>1165.1</ele>
        <time>2022-06-09T09:41:49Z</time>
      </trkpt>
      <trkpt lat="44.78444" lon="4.37321">
        <ele>1165.2</ele>
        <time>2022-06-09T09:41:50Z</time>
      </trkpt>
      <trkpt lat="44.78444" lon="4.37318">
        <ele>1165.2</ele>
        <time>2022-06-09T09:41:51Z</time>
      </trkpt>
      <trkpt lat="44.78444" lon="4.37312">
        <ele>1165.3</ele>
        <time>2022-06-09T09:41:52Z</time>
      </trkpt>
      <trkpt lat="44.78445" lon="4.37304">
        <ele>1165.3</ele>
        <time>2022-06-09T09:41:53Z</time>
      </trkpt>
      <trkpt lat="44.78446" lon="4.37297">
        <ele>1165.3</ele>
        <time>2022-06-09T09:41:54Z</time>
      </trkpt>
      <trkpt lat="44.78448" lon="4.37289">
        <ele>1165.4</ele>
        <time>2022-06-09T09:41:55Z</time>
      </trkpt>
      <trkpt lat="44.78451" lon="4.37283">
        <ele>1165.4</ele>
        <time>2022-06-09T09:41:56Z</time>
      </trkpt>
      <trkpt lat="44.78454" lon="4.37277">
        <ele>1165.4</ele>
        <time>2022-06-09T09:41:58Z</time>
      </trkpt>
      <trkpt lat="44.78457" lon="4.37272">
        <ele>1165.5</ele>
        <time>2022-06-09T09:41:59Z</time>
      </trkpt>
      <trkpt lat="44.78462" lon="4.37267">
        <ele>1165.5</ele>
        <time>2022-06-09T09:42:00Z</time>
      </trkpt>
      <trkpt lat="44.78466" lon="4.37263">
        <ele>1165.5</ele>
        <time>2022-06-09T09:42:01Z</time>
      </trkpt>
      <trkpt lat="44.78469" lon="4.37262">
        <ele>1165.5</ele>
        <time>2022-06-09T09:42:02Z</time>
      </trkpt>
      <trkpt lat="44.78474" lon="4.37259">
        <ele>1165.4</ele>
        <time>2022-06-09T09:42:03Z</time>
      </trkpt>
      <trkpt lat="44.78478" lon="4.37257">
        <ele>1165.4</ele>
        <time>2022-06-09T09:42:04Z</time>
      </trkpt>
      <trkpt lat="44.78482" lon="4.37253">
        <ele>1165.3</ele>
        <time>2022-06-09T09:42:05Z</time>
      </trkpt>
      <trkpt lat="44.78492" lon="4.37253">
        <ele>1165.1</ele>
        <time>2022-06-09T09:42:07Z</time>
      </trkpt>
      <trkpt lat="44.78497" lon="4.37252">
        <ele>1165</ele>
        <time>2022-06-09T09:42:08Z</time>
      </trkpt>
      <trkpt lat="44.78502" lon="4.3725">
        <ele>1164.9</ele>
        <time>2022-06-09T09:42:09Z</time>
      </trkpt>
      <trkpt lat="44.78507" lon="4.37249">
        <ele>1164.8</ele>
        <time>2022-06-09T09:42:10Z</time>
      </trkpt>
      <trkpt lat="44.78513" lon="4.37248">
        <ele>1164.8</ele>
        <time>2022-06-09T09:42:11Z</time>
      </trkpt>
      <trkpt lat="44.78518" lon="4.37246">
        <ele>1164.8</ele>
        <time>2022-06-09T09:42:12Z</time>
      </trkpt>
      <trkpt lat="44.78523" lon="4.37245">
        <ele>1164.7</ele>
        <time>2022-06-09T09:42:13Z</time>
      </trkpt>
      <trkpt lat="44.78528" lon="4.37244">
        <ele>1164.7</ele>
        <time>2022-06-09T09:42:14Z</time>
      </trkpt>
      <trkpt lat="44.78533" lon="4.37242">
        <ele>1164.6</ele>
        <time>2022-06-09T09:42:15Z</time>
      </trkpt>
      <trkpt lat="44.78538" lon="4.37241">
        <ele>1164.6</ele>
        <time>2022-06-09T09:42:16Z</time>
      </trkpt>
      <trkpt lat="44.78543" lon="4.37239">
        <ele>1164.4</ele>
        <time>2022-06-09T09:42:17Z</time>
      </trkpt>
      <trkpt lat="44.78547" lon="4.37238">
        <ele>1164.4</ele>
        <time>2022-06-09T09:42:18Z</time>
      </trkpt>
      <trkpt lat="44.78553" lon="4.37236">
        <ele>1164.3</ele>
        <time>2022-06-09T09:42:19Z</time>
      </trkpt>
      <trkpt lat="44.78558" lon="4.37233">
        <ele>1164.3</ele>
        <time>2022-06-09T09:42:20Z</time>
      </trkpt>
      <trkpt lat="44.78563" lon="4.37231">
        <ele>1164.2</ele>
        <time>2022-06-09T09:42:21Z</time>
      </trkpt>
      <trkpt lat="44.78568" lon="4.37228">
        <ele>1164.1</ele>
        <time>2022-06-09T09:42:22Z</time>
      </trkpt>
      <trkpt lat="44.78573" lon="4.37224">
        <ele>1164.1</ele>
        <time>2022-06-09T09:42:23Z</time>
      </trkpt>
      <trkpt lat="44.78577" lon="4.37221">
        <ele>1164</ele>
        <time>2022-06-09T09:42:24Z</time>
      </trkpt>
      <trkpt lat="44.78581" lon="4.37217">
        <ele>1163.9</ele>
        <time>2022-06-09T09:42:25Z</time>
      </trkpt>
      <trkpt lat="44.78585" lon="4.37212">
        <ele>1163.8</ele>
        <time>2022-06-09T09:42:26Z</time>
      </trkpt>
      <trkpt lat="44.78589" lon="4.37208">
        <ele>1163.8</ele>
        <time>2022-06-09T09:42:27Z</time>
      </trkpt>
      <trkpt lat="44.78593" lon="4.37202">
        <ele>1163.7</ele>
        <time>2022-06-09T09:42:28Z</time>
      </trkpt>
      <trkpt lat="44.78596" lon="4.37196">
        <ele>1163.7</ele>
        <time>2022-06-09T09:42:29Z</time>
      </trkpt>
      <trkpt lat="44.78599" lon="4.37189">
        <ele>1163.6</ele>
        <time>2022-06-09T09:42:30Z</time>
      </trkpt>
      <trkpt lat="44.78601" lon="4.37182">
        <ele>1163.6</ele>
        <time>2022-06-09T09:42:31Z</time>
      </trkpt>
      <trkpt lat="44.78603" lon="4.37174">
        <ele>1163.5</ele>
        <time>2022-06-09T09:42:32Z</time>
      </trkpt>
      <trkpt lat="44.78604" lon="4.37167">
        <ele>1163.5</ele>
        <time>2022-06-09T09:42:33Z</time>
      </trkpt>
      <trkpt lat="44.78606" lon="4.3716">
        <ele>1163.5</ele>
        <time>2022-06-09T09:42:34Z</time>
      </trkpt>
      <trkpt lat="44.78608" lon="4.37153">
        <ele>1163.4</ele>
        <time>2022-06-09T09:42:35Z</time>
      </trkpt>
      <trkpt lat="44.78609" lon="4.37146">
        <ele>1163.4</ele>
        <time>2022-06-09T09:42:36Z</time>
      </trkpt>
      <trkpt lat="44.78611" lon="4.37138">
        <ele>1163.5</ele>
        <time>2022-06-09T09:42:37Z</time>
      </trkpt>
      <trkpt lat="44.78614" lon="4.37131">
        <ele>1163.5</ele>
        <time>2022-06-09T09:42:38Z</time>
      </trkpt>
      <trkpt lat="44.78616" lon="4.37124">
        <ele>1163.5</ele>
        <time>2022-06-09T09:42:39Z</time>
      </trkpt>
      <trkpt lat="44.78618" lon="4.37117">
        <ele>1163.6</ele>
        <time>2022-06-09T09:42:40Z</time>
      </trkpt>
      <trkpt lat="44.7862" lon="4.37111">
        <ele>1163.6</ele>
        <time>2022-06-09T09:42:41Z</time>
      </trkpt>
      <trkpt lat="44.78621" lon="4.37104">
        <ele>1163.6</ele>
        <time>2022-06-09T09:42:42Z</time>
      </trkpt>
      <trkpt lat="44.78623" lon="4.37097">
        <ele>1163.7</ele>
        <time>2022-06-09T09:42:43Z</time>
      </trkpt>
      <trkpt lat="44.78624" lon="4.3709">
        <ele>1163.7</ele>
        <time>2022-06-09T09:42:44Z</time>
      </trkpt>
      <trkpt lat="44.78626" lon="4.37084">
        <ele>1163.8</ele>
        <time>2022-06-09T09:42:45Z</time>
      </trkpt>
      <trkpt lat="44.78628" lon="4.37078">
        <ele>1163.8</ele>
        <time>2022-06-09T09:42:46Z</time>
      </trkpt>
      <trkpt lat="44.7863" lon="4.37072">
        <ele>1163.9</ele>
        <time>2022-06-09T09:42:47Z</time>
      </trkpt>
      <trkpt lat="44.78631" lon="4.37066">
        <ele>1164</ele>
        <time>2022-06-09T09:42:48Z</time>
      </trkpt>
      <trkpt lat="44.78633" lon="4.3706">
        <ele>1164</ele>
        <time>2022-06-09T09:42:49Z</time>
      </trkpt>
      <trkpt lat="44.78635" lon="4.37053">
        <ele>1164.1</ele>
        <time>2022-06-09T09:42:50Z</time>
      </trkpt>
      <trkpt lat="44.78636" lon="4.37047">
        <ele>1164.2</ele>
        <time>2022-06-09T09:42:51Z</time>
      </trkpt>
      <trkpt lat="44.78638" lon="4.37041">
        <ele>1164.2</ele>
        <time>2022-06-09T09:42:52Z</time>
      </trkpt>
      <trkpt lat="44.7864" lon="4.37034">
        <ele>1164.3</ele>
        <time>2022-06-09T09:42:53Z</time>
      </trkpt>
      <trkpt lat="44.78642" lon="4.37028">
        <ele>1164.3</ele>
        <time>2022-06-09T09:42:54Z</time>
      </trkpt>
      <trkpt lat="44.78644" lon="4.37022">
        <ele>1164.4</ele>
        <time>2022-06-09T09:42:55Z</time>
      </trkpt>
      <trkpt lat="44.78647" lon="4.37017">
        <ele>1164.4</ele>
        <time>2022-06-09T09:42:56Z</time>
      </trkpt>
      <trkpt lat="44.7865" lon="4.37011">
        <ele>1164.4</ele>
        <time>2022-06-09T09:42:57Z</time>
      </trkpt>
      <trkpt lat="44.78653" lon="4.37006">
        <ele>1164.3</ele>
        <time>2022-06-09T09:42:58Z</time>
      </trkpt>
      <trkpt lat="44.78657" lon="4.37">
        <ele>1164.3</ele>
        <time>2022-06-09T09:42:59Z</time>
      </trkpt>
      <trkpt lat="44.7866" lon="4.36994">
        <ele>1164.2</ele>
        <time>2022-06-09T09:43:00Z</time>
      </trkpt>
      <trkpt lat="44.78664" lon="4.36988">
        <ele>1164.2</ele>
        <time>2022-06-09T09:43:01Z</time>
      </trkpt>
      <trkpt lat="44.78668" lon="4.36982">
        <ele>1164.1</ele>
        <time>2022-06-09T09:43:02Z</time>
      </trkpt>
      <trkpt lat="44.78671" lon="4.36975">
        <ele>1164</ele>
        <time>2022-06-09T09:43:03Z</time>
      </trkpt>
      <trkpt lat="44.78675" lon="4.36968">
        <ele>1163.9</ele>
        <time>2022-06-09T09:43:04Z</time>
      </trkpt>
      <trkpt lat="44.78678" lon="4.3696">
        <ele>1163.8</ele>
        <time>2022-06-09T09:43:05Z</time>
      </trkpt>
      <trkpt lat="44.78681" lon="4.36952">
        <ele>1163.7</ele>
        <time>2022-06-09T09:43:06Z</time>
      </trkpt>
      <trkpt lat="44.78683" lon="4.36944">
        <ele>1163.6</ele>
        <time>2022-06-09T09:43:07Z</time>
      </trkpt>
      <trkpt lat="44.78686" lon="4.36936">
        <ele>1163.5</ele>
        <time>2022-06-09T09:43:08Z</time>
      </trkpt>
      <trkpt lat="44.78689" lon="4.36928">
        <ele>1163.5</ele>
        <time>2022-06-09T09:43:09Z</time>
      </trkpt>
      <trkpt lat="44.78692" lon="4.3692">
        <ele>1163.4</ele>
        <time>2022-06-09T09:43:10Z</time>
      </trkpt>
      <trkpt lat="44.78696" lon="4.36912">
        <ele>1163.4</ele>
        <time>2022-06-09T09:43:11Z</time>
      </trkpt>
      <trkpt lat="44.78699" lon="4.36904">
        <ele>1163.3</ele>
        <time>2022-06-09T09:43:12Z</time>
      </trkpt>
      <trkpt lat="44.78702" lon="4.36896">
        <ele>1163.3</ele>
        <time>2022-06-09T09:43:13Z</time>
      </trkpt>
      <trkpt lat="44.78705" lon="4.36888">
        <ele>1163.3</ele>
        <time>2022-06-09T09:43:14Z</time>
      </trkpt>
      <trkpt lat="44.78708" lon="4.3688">
        <ele>1163.4</ele>
        <time>2022-06-09T09:43:15Z</time>
      </trkpt>
      <trkpt lat="44.78711" lon="4.36872">
        <ele>1163.4</ele>
        <time>2022-06-09T09:43:16Z</time>
      </trkpt>
      <trkpt lat="44.78713" lon="4.36864">
        <ele>1163.4</ele>
        <time>2022-06-09T09:43:17Z</time>
      </trkpt>
      <trkpt lat="44.78715" lon="4.36856">
        <ele>1163.5</ele>
        <time>2022-06-09T09:43:18Z</time>
      </trkpt>
      <trkpt lat="44.78718" lon="4.36848">
        <ele>1163.5</ele>
        <time>2022-06-09T09:43:19Z</time>
      </trkpt>
      <trkpt lat="44.78721" lon="4.3684">
        <ele>1163.6</ele>
        <time>2022-06-09T09:43:20Z</time>
      </trkpt>
      <trkpt lat="44.78723" lon="4.36832">
        <ele>1163.7</ele>
        <time>2022-06-09T09:43:21Z</time>
      </trkpt>
      <trkpt lat="44.78724" lon="4.36824">
        <ele>1163.7</ele>
        <time>2022-06-09T09:43:22Z</time>
      </trkpt>
      <trkpt lat="44.78726" lon="4.36815">
        <ele>1163.7</ele>
        <time>2022-06-09T09:43:23Z</time>
      </trkpt>
      <trkpt lat="44.78728" lon="4.36807">
        <ele>1163.8</ele>
        <time>2022-06-09T09:43:24Z</time>
      </trkpt>
      <trkpt lat="44.78731" lon="4.368">
        <ele>1163.8</ele>
        <time>2022-06-09T09:43:25Z</time>
      </trkpt>
      <trkpt lat="44.78733" lon="4.36792">
        <ele>1163.8</ele>
        <time>2022-06-09T09:43:26Z</time>
      </trkpt>
      <trkpt lat="44.78736" lon="4.36785">
        <ele>1163.8</ele>
        <time>2022-06-09T09:43:27Z</time>
      </trkpt>
      <trkpt lat="44.78739" lon="4.36778">
        <ele>1163.8</ele>
        <time>2022-06-09T09:43:28Z</time>
      </trkpt>
      <trkpt lat="44.78742" lon="4.36771">
        <ele>1163.8</ele>
        <time>2022-06-09T09:43:29Z</time>
      </trkpt>
      <trkpt lat="44.78745" lon="4.36765">
        <ele>1163.9</ele>
        <time>2022-06-09T09:43:30Z</time>
      </trkpt>
      <trkpt lat="44.78748" lon="4.36759">
        <ele>1163.9</ele>
        <time>2022-06-09T09:43:31Z</time>
      </trkpt>
      <trkpt lat="44.78752" lon="4.36753">
        <ele>1163.9</ele>
        <time>2022-06-09T09:43:32Z</time>
      </trkpt>
      <trkpt lat="44.78757" lon="4.36748">
        <ele>1163.9</ele>
        <time>2022-06-09T09:43:33Z</time>
      </trkpt>
      <trkpt lat="44.78762" lon="4.36744">
        <ele>1163.9</ele>
        <time>2022-06-09T09:43:34Z</time>
      </trkpt>
      <trkpt lat="44.78766" lon="4.3674">
        <ele>1163.9</ele>
        <time>2022-06-09T09:43:35Z</time>
      </trkpt>
      <trkpt lat="44.78772" lon="4.36736">
        <ele>1163.8</ele>
        <time>2022-06-09T09:43:36Z</time>
      </trkpt>
      <trkpt lat="44.78778" lon="4.36734">
        <ele>1163.8</ele>
        <time>2022-06-09T09:43:37Z</time>
      </trkpt>
      <trkpt lat="44.78784" lon="4.36732">
        <ele>1163.8</ele>
        <time>2022-06-09T09:43:38Z</time>
      </trkpt>
      <trkpt lat="44.78791" lon="4.36733">
        <ele>1163.8</ele>
        <time>2022-06-09T09:43:39Z</time>
      </trkpt>
      <trkpt lat="44.78796" lon="4.36735">
        <ele>1163.9</ele>
        <time>2022-06-09T09:43:40Z</time>
      </trkpt>
      <trkpt lat="44.78801" lon="4.36737">
        <ele>1163.9</ele>
        <time>2022-06-09T09:43:41Z</time>
      </trkpt>
      <trkpt lat="44.78807" lon="4.3674">
        <ele>1163.9</ele>
        <time>2022-06-09T09:43:42Z</time>
      </trkpt>
      <trkpt lat="44.78813" lon="4.36743">
        <ele>1164</ele>
        <time>2022-06-09T09:43:43Z</time>
      </trkpt>
      <trkpt lat="44.78818" lon="4.36747">
        <ele>1164</ele>
        <time>2022-06-09T09:43:44Z</time>
      </trkpt>
      <trkpt lat="44.78823" lon="4.3675">
        <ele>1164.1</ele>
        <time>2022-06-09T09:43:45Z</time>
      </trkpt>
      <trkpt lat="44.78828" lon="4.36754">
        <ele>1164.1</ele>
        <time>2022-06-09T09:43:46Z</time>
      </trkpt>
      <trkpt lat="44.78832" lon="4.36758">
        <ele>1164.2</ele>
        <time>2022-06-09T09:43:47Z</time>
      </trkpt>
      <trkpt lat="44.78836" lon="4.36763">
        <ele>1164.2</ele>
        <time>2022-06-09T09:43:48Z</time>
      </trkpt>
      <trkpt lat="44.7884" lon="4.36768">
        <ele>1164.2</ele>
        <time>2022-06-09T09:43:49Z</time>
      </trkpt>
      <trkpt lat="44.78844" lon="4.36772">
        <ele>1164.2</ele>
        <time>2022-06-09T09:43:50Z</time>
      </trkpt>
      <trkpt lat="44.78848" lon="4.36777">
        <ele>1164.2</ele>
        <time>2022-06-09T09:43:51Z</time>
      </trkpt>
      <trkpt lat="44.78852" lon="4.36781">
        <ele>1164.3</ele>
        <time>2022-06-09T09:43:52Z</time>
      </trkpt>
      <trkpt lat="44.78856" lon="4.36786">
        <ele>1164.3</ele>
        <time>2022-06-09T09:43:53Z</time>
      </trkpt>
      <trkpt lat="44.7886" lon="4.36791">
        <ele>1164.3</ele>
        <time>2022-06-09T09:43:54Z</time>
      </trkpt>
      <trkpt lat="44.78864" lon="4.36796">
        <ele>1164.3</ele>
        <time>2022-06-09T09:43:55Z</time>
      </trkpt>
      <trkpt lat="44.78867" lon="4.36801">
        <ele>1164.3</ele>
        <time>2022-06-09T09:43:56Z</time>
      </trkpt>
      <trkpt lat="44.78871" lon="4.36806">
        <ele>1164.3</ele>
        <time>2022-06-09T09:43:57Z</time>
      </trkpt>
      <trkpt lat="44.78874" lon="4.36812">
        <ele>1164.3</ele>
        <time>2022-06-09T09:43:58Z</time>
      </trkpt>
      <trkpt lat="44.78878" lon="4.36817">
        <ele>1164.3</ele>
        <time>2022-06-09T09:43:59Z</time>
      </trkpt>
      <trkpt lat="44.78883" lon="4.36823">
        <ele>1164.3</ele>
        <time>2022-06-09T09:44:00Z</time>
      </trkpt>
      <trkpt lat="44.78887" lon="4.36827">
        <ele>1164.3</ele>
        <time>2022-06-09T09:44:01Z</time>
      </trkpt>
      <trkpt lat="44.78891" lon="4.36831">
        <ele>1164.4</ele>
        <time>2022-06-09T09:44:02Z</time>
      </trkpt>
      <trkpt lat="44.78896" lon="4.36835">
        <ele>1164.4</ele>
        <time>2022-06-09T09:44:03Z</time>
      </trkpt>
      <trkpt lat="44.789" lon="4.36836">
        <ele>1164.4</ele>
        <time>2022-06-09T09:44:04Z</time>
      </trkpt>
      <trkpt lat="44.78905" lon="4.36836">
        <ele>1164.4</ele>
        <time>2022-06-09T09:44:05Z</time>
      </trkpt>
      <trkpt lat="44.7891" lon="4.36834">
        <ele>1164.5</ele>
        <time>2022-06-09T09:44:06Z</time>
      </trkpt>
      <trkpt lat="44.78914" lon="4.36831">
        <ele>1164.5</ele>
        <time>2022-06-09T09:44:07Z</time>
      </trkpt>
      <trkpt lat="44.78918" lon="4.36827">
        <ele>1164.4</ele>
        <time>2022-06-09T09:44:08Z</time>
      </trkpt>
      <trkpt lat="44.78921" lon="4.36822">
        <ele>1164.4</ele>
        <time>2022-06-09T09:44:09Z</time>
      </trkpt>
      <trkpt lat="44.78924" lon="4.36817">
        <ele>1164.3</ele>
        <time>2022-06-09T09:44:10Z</time>
      </trkpt>
      <trkpt lat="44.78926" lon="4.3681">
        <ele>1164.3</ele>
        <time>2022-06-09T09:44:11Z</time>
      </trkpt>
      <trkpt lat="44.78927" lon="4.36804">
        <ele>1164.2</ele>
        <time>2022-06-09T09:44:12Z</time>
      </trkpt>
      <trkpt lat="44.78929" lon="4.36797">
        <ele>1164.1</ele>
        <time>2022-06-09T09:44:13Z</time>
      </trkpt>
      <trkpt lat="44.78931" lon="4.3679">
        <ele>1164</ele>
        <time>2022-06-09T09:44:14Z</time>
      </trkpt>
      <trkpt lat="44.78933" lon="4.36783">
        <ele>1164</ele>
        <time>2022-06-09T09:44:15Z</time>
      </trkpt>
      <trkpt lat="44.78934" lon="4.36777">
        <ele>1163.9</ele>
        <time>2022-06-09T09:44:16Z</time>
      </trkpt>
      <trkpt lat="44.78936" lon="4.36769">
        <ele>1163.8</ele>
        <time>2022-06-09T09:44:17Z</time>
      </trkpt>
      <trkpt lat="44.78937" lon="4.36762">
        <ele>1163.8</ele>
        <time>2022-06-09T09:44:18Z</time>
      </trkpt>
      <trkpt lat="44.78939" lon="4.36755">
        <ele>1163.8</ele>
        <time>2022-06-09T09:44:19Z</time>
      </trkpt>
      <trkpt lat="44.7894" lon="4.36748">
        <ele>1163.8</ele>
        <time>2022-06-09T09:44:20Z</time>
      </trkpt>
      <trkpt lat="44.78942" lon="4.36741">
        <ele>1163.8</ele>
        <time>2022-06-09T09:44:21Z</time>
      </trkpt>
      <trkpt lat="44.78943" lon="4.36734">
        <ele>1163.8</ele>
        <time>2022-06-09T09:44:22Z</time>
      </trkpt>
      <trkpt lat="44.78944" lon="4.36727">
        <ele>1163.9</ele>
        <time>2022-06-09T09:44:23Z</time>
      </trkpt>
      <trkpt lat="44.78945" lon="4.3672">
        <ele>1163.9</ele>
        <time>2022-06-09T09:44:24Z</time>
      </trkpt>
      <trkpt lat="44.78946" lon="4.36716">
        <ele>1163.9</ele>
        <time>2022-06-09T09:44:25Z</time>
      </trkpt>
      <trkpt lat="44.78947" lon="4.36706">
        <ele>1163.9</ele>
        <time>2022-06-09T09:44:26Z</time>
      </trkpt>
      <trkpt lat="44.78949" lon="4.36698">
        <ele>1164</ele>
        <time>2022-06-09T09:44:27Z</time>
      </trkpt>
      <trkpt lat="44.78951" lon="4.36691">
        <ele>1164</ele>
        <time>2022-06-09T09:44:28Z</time>
      </trkpt>
      <trkpt lat="44.78953" lon="4.36684">
        <ele>1164</ele>
        <time>2022-06-09T09:44:29Z</time>
      </trkpt>
      <trkpt lat="44.78955" lon="4.36677">
        <ele>1164</ele>
        <time>2022-06-09T09:44:30Z</time>
      </trkpt>
      <trkpt lat="44.78958" lon="4.36671">
        <ele>1164</ele>
        <time>2022-06-09T09:44:31Z</time>
      </trkpt>
      <trkpt lat="44.78961" lon="4.36665">
        <ele>1164</ele>
        <time>2022-06-09T09:44:32Z</time>
      </trkpt>
      <trkpt lat="44.78964" lon="4.36659">
        <ele>1164.1</ele>
        <time>2022-06-09T09:44:33Z</time>
      </trkpt>
      <trkpt lat="44.78967" lon="4.36652">
        <ele>1164.1</ele>
        <time>2022-06-09T09:44:34Z</time>
      </trkpt>
      <trkpt lat="44.7897" lon="4.36646">
        <ele>1164.1</ele>
        <time>2022-06-09T09:44:35Z</time>
      </trkpt>
      <trkpt lat="44.78973" lon="4.36641">
        <ele>1164.1</ele>
        <time>2022-06-09T09:44:36Z</time>
      </trkpt>
      <trkpt lat="44.78976" lon="4.36636">
        <ele>1164.1</ele>
        <time>2022-06-09T09:44:37Z</time>
      </trkpt>
      <trkpt lat="44.78978" lon="4.36631">
        <ele>1164</ele>
        <time>2022-06-09T09:44:38Z</time>
      </trkpt>
      <trkpt lat="44.78982" lon="4.36627">
        <ele>1164</ele>
        <time>2022-06-09T09:44:39Z</time>
      </trkpt>
      <trkpt lat="44.78986" lon="4.36623">
        <ele>1164</ele>
        <time>2022-06-09T09:44:40Z</time>
      </trkpt>
      <trkpt lat="44.78988" lon="4.3662">
        <ele>1163.9</ele>
        <time>2022-06-09T09:44:41Z</time>
      </trkpt>
      <trkpt lat="44.78991" lon="4.36617">
        <ele>1163.9</ele>
        <time>2022-06-09T09:44:42Z</time>
      </trkpt>
      <trkpt lat="44.78994" lon="4.36614">
        <ele>1163.9</ele>
        <time>2022-06-09T09:44:43Z</time>
      </trkpt>
      <trkpt lat="44.78998" lon="4.3661">
        <ele>1163.8</ele>
        <time>2022-06-09T09:44:44Z</time>
      </trkpt>
      <trkpt lat="44.79002" lon="4.36607">
        <ele>1163.8</ele>
        <time>2022-06-09T09:44:45Z</time>
      </trkpt>
      <trkpt lat="44.79005" lon="4.36605">
        <ele>1163.8</ele>
        <time>2022-06-09T09:44:46Z</time>
      </trkpt>
      <trkpt lat="44.79008" lon="4.36605">
        <ele>1163.7</ele>
        <time>2022-06-09T09:44:47Z</time>
      </trkpt>
      <trkpt lat="44.79014" lon="4.36597">
        <ele>1163.7</ele>
        <time>2022-06-09T09:44:48Z</time>
      </trkpt>
      <trkpt lat="44.79019" lon="4.36592">
        <ele>1163.7</ele>
        <time>2022-06-09T09:44:49Z</time>
      </trkpt>
      <trkpt lat="44.79024" lon="4.36588">
        <ele>1163.7</ele>
        <time>2022-06-09T09:44:50Z</time>
      </trkpt>
      <trkpt lat="44.79028" lon="4.36584">
        <ele>1163.7</ele>
        <time>2022-06-09T09:44:51Z</time>
      </trkpt>
      <trkpt lat="44.79032" lon="4.3658">
        <ele>1163.7</ele>
        <time>2022-06-09T09:44:52Z</time>
      </trkpt>
      <trkpt lat="44.79036" lon="4.36576">
        <ele>1163.7</ele>
        <time>2022-06-09T09:44:53Z</time>
      </trkpt>
      <trkpt lat="44.79039" lon="4.36572">
        <ele>1163.7</ele>
        <time>2022-06-09T09:44:54Z</time>
      </trkpt>
      <trkpt lat="44.79043" lon="4.36568">
        <ele>1163.7</ele>
        <time>2022-06-09T09:44:55Z</time>
      </trkpt>
      <trkpt lat="44.79046" lon="4.36563">
        <ele>1163.7</ele>
        <time>2022-06-09T09:44:56Z</time>
      </trkpt>
      <trkpt lat="44.79049" lon="4.36558">
        <ele>1163.8</ele>
        <time>2022-06-09T09:44:57Z</time>
      </trkpt>
      <trkpt lat="44.79052" lon="4.36552">
        <ele>1163.8</ele>
        <time>2022-06-09T09:44:58Z</time>
      </trkpt>
      <trkpt lat="44.79054" lon="4.36546">
        <ele>1163.8</ele>
        <time>2022-06-09T09:44:59Z</time>
      </trkpt>
      <trkpt lat="44.79055" lon="4.3654">
        <ele>1163.9</ele>
        <time>2022-06-09T09:45:00Z</time>
      </trkpt>
      <trkpt lat="44.79057" lon="4.36533">
        <ele>1163.9</ele>
        <time>2022-06-09T09:45:01Z</time>
      </trkpt>
      <trkpt lat="44.79057" lon="4.36529">
        <ele>1163.9</ele>
        <time>2022-06-09T09:45:02Z</time>
      </trkpt>
      <trkpt lat="44.79057" lon="4.36524">
        <ele>1163.9</ele>
        <time>2022-06-09T09:45:03Z</time>
      </trkpt>
      <trkpt lat="44.79058" lon="4.36519">
        <ele>1163.9</ele>
        <time>2022-06-09T09:45:04Z</time>
      </trkpt>
      <trkpt lat="44.79058" lon="4.36512">
        <ele>1164</ele>
        <time>2022-06-09T09:45:05Z</time>
      </trkpt>
      <trkpt lat="44.79059" lon="4.36505">
        <ele>1164</ele>
        <time>2022-06-09T09:45:06Z</time>
      </trkpt>
      <trkpt lat="44.7906" lon="4.365">
        <ele>1164</ele>
        <time>2022-06-09T09:45:07Z</time>
      </trkpt>
      <trkpt lat="44.79061" lon="4.36495">
        <ele>1164</ele>
        <time>2022-06-09T09:45:08Z</time>
      </trkpt>
      <trkpt lat="44.79061" lon="4.36488">
        <ele>1164.1</ele>
        <time>2022-06-09T09:45:09Z</time>
      </trkpt>
      <trkpt lat="44.7906" lon="4.36482">
        <ele>1164.1</ele>
        <time>2022-06-09T09:45:10Z</time>
      </trkpt>
      <trkpt lat="44.7906" lon="4.36476">
        <ele>1164.1</ele>
        <time>2022-06-09T09:45:11Z</time>
      </trkpt>
      <trkpt lat="44.7906" lon="4.36469">
        <ele>1164.1</ele>
        <time>2022-06-09T09:45:12Z</time>
      </trkpt>
      <trkpt lat="44.79061" lon="4.36459">
        <ele>1164.1</ele>
        <time>2022-06-09T09:45:14Z</time>
      </trkpt>
      <trkpt lat="44.79062" lon="4.36451">
        <ele>1164.1</ele>
        <time>2022-06-09T09:45:15Z</time>
      </trkpt>
      <trkpt lat="44.79062" lon="4.36445">
        <ele>1164.1</ele>
        <time>2022-06-09T09:45:16Z</time>
      </trkpt>
      <trkpt lat="44.79063" lon="4.36433">
        <ele>1164.1</ele>
        <time>2022-06-09T09:45:18Z</time>
      </trkpt>
      <trkpt lat="44.79064" lon="4.36426">
        <ele>1164.1</ele>
        <time>2022-06-09T09:45:19Z</time>
      </trkpt>
      <trkpt lat="44.79065" lon="4.3642">
        <ele>1164.1</ele>
        <time>2022-06-09T09:45:20Z</time>
      </trkpt>
      <trkpt lat="44.79067" lon="4.36413">
        <ele>1164.1</ele>
        <time>2022-06-09T09:45:21Z</time>
      </trkpt>
      <trkpt lat="44.79069" lon="4.36406">
        <ele>1164.1</ele>
        <time>2022-06-09T09:45:22Z</time>
      </trkpt>
      <trkpt lat="44.7907" lon="4.364">
        <ele>1164.2</ele>
        <time>2022-06-09T09:45:23Z</time>
      </trkpt>
      <trkpt lat="44.79071" lon="4.36393">
        <ele>1164.2</ele>
        <time>2022-06-09T09:45:24Z</time>
      </trkpt>
      <trkpt lat="44.79073" lon="4.36388">
        <ele>1164.2</ele>
        <time>2022-06-09T09:45:25Z</time>
      </trkpt>
      <trkpt lat="44.79074" lon="4.36381">
        <ele>1164.2</ele>
        <time>2022-06-09T09:45:26Z</time>
      </trkpt>
      <trkpt lat="44.79076" lon="4.36374">
        <ele>1164.2</ele>
        <time>2022-06-09T09:45:27Z</time>
      </trkpt>
      <trkpt lat="44.79078" lon="4.36368">
        <ele>1164.2</ele>
        <time>2022-06-09T09:45:28Z</time>
      </trkpt>
      <trkpt lat="44.79081" lon="4.36361">
        <ele>1164.2</ele>
        <time>2022-06-09T09:45:29Z</time>
      </trkpt>
      <trkpt lat="44.79083" lon="4.36354">
        <ele>1164.2</ele>
        <time>2022-06-09T09:45:30Z</time>
      </trkpt>
      <trkpt lat="44.79085" lon="4.36347">
        <ele>1164.2</ele>
        <time>2022-06-09T09:45:31Z</time>
      </trkpt>
      <trkpt lat="44.79087" lon="4.3634">
        <ele>1164.2</ele>
        <time>2022-06-09T09:45:32Z</time>
      </trkpt>
      <trkpt lat="44.7909" lon="4.36333">
        <ele>1164.3</ele>
        <time>2022-06-09T09:45:33Z</time>
      </trkpt>
      <trkpt lat="44.79092" lon="4.36326">
        <ele>1164.3</ele>
        <time>2022-06-09T09:45:34Z</time>
      </trkpt>
      <trkpt lat="44.79095" lon="4.3632">
        <ele>1164.4</ele>
        <time>2022-06-09T09:45:35Z</time>
      </trkpt>
      <trkpt lat="44.79098" lon="4.36313">
        <ele>1164.4</ele>
        <time>2022-06-09T09:45:36Z</time>
      </trkpt>
      <trkpt lat="44.79101" lon="4.36307">
        <ele>1164.5</ele>
        <time>2022-06-09T09:45:37Z</time>
      </trkpt>
      <trkpt lat="44.79104" lon="4.36302">
        <ele>1164.5</ele>
        <time>2022-06-09T09:45:38Z</time>
      </trkpt>
      <trkpt lat="44.79107" lon="4.36297">
        <ele>1164.5</ele>
        <time>2022-06-09T09:45:39Z</time>
      </trkpt>
      <trkpt lat="44.79112" lon="4.36294">
        <ele>1164.5</ele>
        <time>2022-06-09T09:45:40Z</time>
      </trkpt>
      <trkpt lat="44.79119" lon="4.36294">
        <ele>1164.4</ele>
        <time>2022-06-09T09:45:41Z</time>
      </trkpt>
      <trkpt lat="44.79124" lon="4.36295">
        <ele>1164.4</ele>
        <time>2022-06-09T09:45:42Z</time>
      </trkpt>
      <trkpt lat="44.79129" lon="4.36298">
        <ele>1164.3</ele>
        <time>2022-06-09T09:45:43Z</time>
      </trkpt>
      <trkpt lat="44.79134" lon="4.36301">
        <ele>1164.2</ele>
        <time>2022-06-09T09:45:44Z</time>
      </trkpt>
      <trkpt lat="44.79139" lon="4.36303">
        <ele>1164.1</ele>
        <time>2022-06-09T09:45:45Z</time>
      </trkpt>
      <trkpt lat="44.79144" lon="4.36306">
        <ele>1164</ele>
        <time>2022-06-09T09:45:46Z</time>
      </trkpt>
      <trkpt lat="44.79149" lon="4.36308">
        <ele>1164</ele>
        <time>2022-06-09T09:45:47Z</time>
      </trkpt>
      <trkpt lat="44.79154" lon="4.36309">
        <ele>1164</ele>
        <time>2022-06-09T09:45:48Z</time>
      </trkpt>
      <trkpt lat="44.79159" lon="4.36311">
        <ele>1164</ele>
        <time>2022-06-09T09:45:49Z</time>
      </trkpt>
      <trkpt lat="44.79164" lon="4.36312">
        <ele>1164</ele>
        <time>2022-06-09T09:45:50Z</time>
      </trkpt>
      <trkpt lat="44.79169" lon="4.36313">
        <ele>1164</ele>
        <time>2022-06-09T09:45:51Z</time>
      </trkpt>
      <trkpt lat="44.79173" lon="4.36313">
        <ele>1164</ele>
        <time>2022-06-09T09:45:52Z</time>
      </trkpt>
      <trkpt lat="44.79178" lon="4.36312">
        <ele>1164</ele>
        <time>2022-06-09T09:45:53Z</time>
      </trkpt>
      <trkpt lat="44.79182" lon="4.36311">
        <ele>1164</ele>
        <time>2022-06-09T09:45:54Z</time>
      </trkpt>
      <trkpt lat="44.79186" lon="4.3631">
        <ele>1164</ele>
        <time>2022-06-09T09:45:55Z</time>
      </trkpt>
      <trkpt lat="44.79191" lon="4.36308">
        <ele>1164</ele>
        <time>2022-06-09T09:45:56Z</time>
      </trkpt>
      <trkpt lat="44.79195" lon="4.36306">
        <ele>1164</ele>
        <time>2022-06-09T09:45:57Z</time>
      </trkpt>
      <trkpt lat="44.792" lon="4.36304">
        <ele>1164</ele>
        <time>2022-06-09T09:45:58Z</time>
      </trkpt>
      <trkpt lat="44.79204" lon="4.36301">
        <ele>1164</ele>
        <time>2022-06-09T09:45:59Z</time>
      </trkpt>
      <trkpt lat="44.79209" lon="4.36299">
        <ele>1164</ele>
        <time>2022-06-09T09:46:00Z</time>
      </trkpt>
      <trkpt lat="44.79213" lon="4.36296">
        <ele>1164</ele>
        <time>2022-06-09T09:46:01Z</time>
      </trkpt>
      <trkpt lat="44.79216" lon="4.36293">
        <ele>1164</ele>
        <time>2022-06-09T09:46:02Z</time>
      </trkpt>
      <trkpt lat="44.7922" lon="4.3629">
        <ele>1164</ele>
        <time>2022-06-09T09:46:03Z</time>
      </trkpt>
      <trkpt lat="44.79224" lon="4.36286">
        <ele>1164</ele>
        <time>2022-06-09T09:46:04Z</time>
      </trkpt>
      <trkpt lat="44.79228" lon="4.36283">
        <ele>1164</ele>
        <time>2022-06-09T09:46:05Z</time>
      </trkpt>
      <trkpt lat="44.7923" lon="4.36281">
        <ele>1164.1</ele>
        <time>2022-06-09T09:46:06Z</time>
      </trkpt>
      <trkpt lat="44.79234" lon="4.36278">
        <ele>1164.1</ele>
        <time>2022-06-09T09:46:07Z</time>
      </trkpt>
      <trkpt lat="44.79237" lon="4.36275">
        <ele>1164.1</ele>
        <time>2022-06-09T09:46:08Z</time>
      </trkpt>
      <trkpt lat="44.79241" lon="4.3627">
        <ele>1164.1</ele>
        <time>2022-06-09T09:46:09Z</time>
      </trkpt>
      <trkpt lat="44.79244" lon="4.36266">
        <ele>1164.1</ele>
        <time>2022-06-09T09:46:10Z</time>
      </trkpt>
      <trkpt lat="44.79249" lon="4.36263">
        <ele>1164.1</ele>
        <time>2022-06-09T09:46:11Z</time>
      </trkpt>
      <trkpt lat="44.79251" lon="4.36262">
        <ele>1164.1</ele>
        <time>2022-06-09T09:46:12Z</time>
      </trkpt>
      <trkpt lat="44.79257" lon="4.36251">
        <ele>1164</ele>
        <time>2022-06-09T09:46:14Z</time>
      </trkpt>
      <trkpt lat="44.79261" lon="4.36244">
        <ele>1164</ele>
        <time>2022-06-09T09:46:15Z</time>
      </trkpt>
      <trkpt lat="44.79264" lon="4.36238">
        <ele>1163.9</ele>
        <time>2022-06-09T09:46:16Z</time>
      </trkpt>
      <trkpt lat="44.79269" lon="4.3623">
        <ele>1163.8</ele>
        <time>2022-06-09T09:46:18Z</time>
      </trkpt>
      <trkpt lat="44.79272" lon="4.36224">
        <ele>1163.8</ele>
        <time>2022-06-09T09:46:19Z</time>
      </trkpt>
      <trkpt lat="44.79276" lon="4.36219">
        <ele>1163.8</ele>
        <time>2022-06-09T09:46:20Z</time>
      </trkpt>
      <trkpt lat="44.79279" lon="4.36213">
        <ele>1163.7</ele>
        <time>2022-06-09T09:46:21Z</time>
      </trkpt>
      <trkpt lat="44.79282" lon="4.36208">
        <ele>1163.7</ele>
        <time>2022-06-09T09:46:22Z</time>
      </trkpt>
      <trkpt lat="44.79284" lon="4.36202">
        <ele>1163.6</ele>
        <time>2022-06-09T09:46:23Z</time>
      </trkpt>
      <trkpt lat="44.79287" lon="4.36195">
        <ele>1163.6</ele>
        <time>2022-06-09T09:46:24Z</time>
      </trkpt>
      <trkpt lat="44.7929" lon="4.3619">
        <ele>1163.6</ele>
        <time>2022-06-09T09:46:25Z</time>
      </trkpt>
      <trkpt lat="44.79293" lon="4.36184">
        <ele>1163.5</ele>
        <time>2022-06-09T09:46:26Z</time>
      </trkpt>
      <trkpt lat="44.79296" lon="4.36177">
        <ele>1163.5</ele>
        <time>2022-06-09T09:46:27Z</time>
      </trkpt>
      <trkpt lat="44.79299" lon="4.36171">
        <ele>1163.5</ele>
        <time>2022-06-09T09:46:28Z</time>
      </trkpt>
      <trkpt lat="44.79301" lon="4.36165">
        <ele>1163.5</ele>
        <time>2022-06-09T09:46:29Z</time>
      </trkpt>
      <trkpt lat="44.79303" lon="4.36159">
        <ele>1163.4</ele>
        <time>2022-06-09T09:46:30Z</time>
      </trkpt>
      <trkpt lat="44.79305" lon="4.36154">
        <ele>1163.4</ele>
        <time>2022-06-09T09:46:31Z</time>
      </trkpt>
      <trkpt lat="44.79308" lon="4.36149">
        <ele>1163.4</ele>
        <time>2022-06-09T09:46:32Z</time>
      </trkpt>
      <trkpt lat="44.7931" lon="4.36146">
        <ele>1163.4</ele>
        <time>2022-06-09T09:46:33Z</time>
      </trkpt>
      <trkpt lat="44.79312" lon="4.36142">
        <ele>1163.4</ele>
        <time>2022-06-09T09:46:34Z</time>
      </trkpt>
      <trkpt lat="44.79314" lon="4.36137">
        <ele>1163.4</ele>
        <time>2022-06-09T09:46:35Z</time>
      </trkpt>
      <trkpt lat="44.79317" lon="4.36131">
        <ele>1163.4</ele>
        <time>2022-06-09T09:46:36Z</time>
      </trkpt>
      <trkpt lat="44.7932" lon="4.36126">
        <ele>1163.4</ele>
        <time>2022-06-09T09:46:37Z</time>
      </trkpt>
      <trkpt lat="44.79321" lon="4.36125">
        <ele>1163.4</ele>
        <time>2022-06-09T09:46:38Z</time>
      </trkpt>
      <trkpt lat="44.79322" lon="4.36118">
        <ele>1163.4</ele>
        <time>2022-06-09T09:46:39Z</time>
      </trkpt>
      <trkpt lat="44.79324" lon="4.36113">
        <ele>1163.4</ele>
        <time>2022-06-09T09:46:40Z</time>
      </trkpt>
      <trkpt lat="44.79326" lon="4.36108">
        <ele>1163.4</ele>
        <time>2022-06-09T09:46:41Z</time>
      </trkpt>
      <trkpt lat="44.79327" lon="4.36104">
        <ele>1163.4</ele>
        <time>2022-06-09T09:46:42Z</time>
      </trkpt>
      <trkpt lat="44.7933" lon="4.36097">
        <ele>1163.4</ele>
        <time>2022-06-09T09:46:43Z</time>
      </trkpt>
      <trkpt lat="44.79332" lon="4.36093">
        <ele>1163.4</ele>
        <time>2022-06-09T09:46:44Z</time>
      </trkpt>
      <trkpt lat="44.79334" lon="4.36089">
        <ele>1163.4</ele>
        <time>2022-06-09T09:46:45Z</time>
      </trkpt>
      <trkpt lat="44.79337" lon="4.36083">
        <ele>1163.4</ele>
        <time>2022-06-09T09:46:47Z</time>
      </trkpt>
      <trkpt lat="44.7934" lon="4.36075">
        <ele>1163.4</ele>
        <time>2022-06-09T09:46:48Z</time>
      </trkpt>
      <trkpt lat="44.79343" lon="4.3607">
        <ele>1163.4</ele>
        <time>2022-06-09T09:46:50Z</time>
      </trkpt>
      <trkpt lat="44.79345" lon="4.36064">
        <ele>1163.4</ele>
        <time>2022-06-09T09:46:51Z</time>
      </trkpt>
      <trkpt lat="44.79347" lon="4.36058">
        <ele>1163.4</ele>
        <time>2022-06-09T09:46:52Z</time>
      </trkpt>
      <trkpt lat="44.79349" lon="4.36055">
        <ele>1163.4</ele>
        <time>2022-06-09T09:46:53Z</time>
      </trkpt>
      <trkpt lat="44.7935" lon="4.3605">
        <ele>1163.5</ele>
        <time>2022-06-09T09:46:55Z</time>
      </trkpt>
      <trkpt lat="44.79352" lon="4.36047">
        <ele>1163.5</ele>
        <time>2022-06-09T09:46:56Z</time>
      </trkpt>
      <trkpt lat="44.79355" lon="4.36039">
        <ele>1163.5</ele>
        <time>2022-06-09T09:46:57Z</time>
      </trkpt>
      <trkpt lat="44.79357" lon="4.36035">
        <ele>1163.5</ele>
        <time>2022-06-09T09:46:59Z</time>
      </trkpt>
      <trkpt lat="44.7936" lon="4.36029">
        <ele>1163.5</ele>
        <time>2022-06-09T09:47:00Z</time>
      </trkpt>
      <trkpt lat="44.79361" lon="4.36025">
        <ele>1163.5</ele>
        <time>2022-06-09T09:47:01Z</time>
      </trkpt>
      <trkpt lat="44.79363" lon="4.36021">
        <ele>1163.6</ele>
        <time>2022-06-09T09:47:02Z</time>
      </trkpt>
      <trkpt lat="44.79365" lon="4.36017">
        <ele>1163.6</ele>
        <time>2022-06-09T09:47:03Z</time>
      </trkpt>
      <trkpt lat="44.79368" lon="4.3601">
        <ele>1163.6</ele>
        <time>2022-06-09T09:47:04Z</time>
      </trkpt>
      <trkpt lat="44.79371" lon="4.36003">
        <ele>1163.7</ele>
        <time>2022-06-09T09:47:06Z</time>
      </trkpt>
      <trkpt lat="44.79374" lon="4.35996">
        <ele>1163.7</ele>
        <time>2022-06-09T09:47:07Z</time>
      </trkpt>
      <trkpt lat="44.79376" lon="4.35992">
        <ele>1163.7</ele>
        <time>2022-06-09T09:47:09Z</time>
      </trkpt>
      <trkpt lat="44.79377" lon="4.35988">
        <ele>1163.7</ele>
        <time>2022-06-09T09:47:10Z</time>
      </trkpt>
      <trkpt lat="44.79379" lon="4.35984">
        <ele>1163.8</ele>
        <time>2022-06-09T09:47:11Z</time>
      </trkpt>
      <trkpt lat="44.79381" lon="4.3598">
        <ele>1163.8</ele>
        <time>2022-06-09T09:47:12Z</time>
      </trkpt>
      <trkpt lat="44.79383" lon="4.35976">
        <ele>1163.8</ele>
        <time>2022-06-09T09:47:13Z</time>
      </trkpt>
      <trkpt lat="44.79386" lon="4.3597">
        <ele>1163.9</ele>
        <time>2022-06-09T09:47:14Z</time>
      </trkpt>
      <trkpt lat="44.79388" lon="4.35964">
        <ele>1163.9</ele>
        <time>2022-06-09T09:47:15Z</time>
      </trkpt>
      <trkpt lat="44.79392" lon="4.35956">
        <ele>1164</ele>
        <time>2022-06-09T09:47:17Z</time>
      </trkpt>
      <trkpt lat="44.79394" lon="4.35952">
        <ele>1164</ele>
        <time>2022-06-09T09:47:19Z</time>
      </trkpt>
      <trkpt lat="44.79397" lon="4.35944">
        <ele>1164</ele>
        <time>2022-06-09T09:47:20Z</time>
      </trkpt>
      <trkpt lat="44.794" lon="4.35937">
        <ele>1164</ele>
        <time>2022-06-09T09:47:22Z</time>
      </trkpt>
      <trkpt lat="44.79402" lon="4.35932">
        <ele>1164</ele>
        <time>2022-06-09T09:47:24Z</time>
      </trkpt>
      <trkpt lat="44.79404" lon="4.35928">
        <ele>1164</ele>
        <time>2022-06-09T09:47:25Z</time>
      </trkpt>
      <trkpt lat="44.79406" lon="4.35923">
        <ele>1164</ele>
        <time>2022-06-09T09:47:26Z</time>
      </trkpt>
      <trkpt lat="44.79408" lon="4.35918">
        <ele>1164</ele>
        <time>2022-06-09T09:47:27Z</time>
      </trkpt>
      <trkpt lat="44.79411" lon="4.35913">
        <ele>1164</ele>
        <time>2022-06-09T09:47:28Z</time>
      </trkpt>
      <trkpt lat="44.79415" lon="4.35908">
        <ele>1164</ele>
        <time>2022-06-09T09:47:29Z</time>
      </trkpt>
      <trkpt lat="44.79418" lon="4.35904">
        <ele>1164</ele>
        <time>2022-06-09T09:47:30Z</time>
      </trkpt>
      <trkpt lat="44.79425" lon="4.35897">
        <ele>1164</ele>
        <time>2022-06-09T09:47:31Z</time>
      </trkpt>
      <trkpt lat="44.79429" lon="4.35894">
        <ele>1163.9</ele>
        <time>2022-06-09T09:47:33Z</time>
      </trkpt>
      <trkpt lat="44.79433" lon="4.35892">
        <ele>1163.9</ele>
        <time>2022-06-09T09:47:34Z</time>
      </trkpt>
      <trkpt lat="44.79441" lon="4.35888">
        <ele>1163.9</ele>
        <time>2022-06-09T09:47:35Z</time>
      </trkpt>
      <trkpt lat="44.79445" lon="4.35885">
        <ele>1163.9</ele>
        <time>2022-06-09T09:47:37Z</time>
      </trkpt>
      <trkpt lat="44.79449" lon="4.35883">
        <ele>1163.8</ele>
        <time>2022-06-09T09:47:38Z</time>
      </trkpt>
      <trkpt lat="44.79453" lon="4.35881">
        <ele>1163.8</ele>
        <time>2022-06-09T09:47:39Z</time>
      </trkpt>
      <trkpt lat="44.79461" lon="4.35877">
        <ele>1163.7</ele>
        <time>2022-06-09T09:47:40Z</time>
      </trkpt>
      <trkpt lat="44.79467" lon="4.35873">
        <ele>1163.6</ele>
        <time>2022-06-09T09:47:42Z</time>
      </trkpt>
      <trkpt lat="44.79472" lon="4.35871">
        <ele>1163.5</ele>
        <time>2022-06-09T09:47:43Z</time>
      </trkpt>
      <trkpt lat="44.79476" lon="4.35869">
        <ele>1163.5</ele>
        <time>2022-06-09T09:47:44Z</time>
      </trkpt>
      <trkpt lat="44.7948" lon="4.35867">
        <ele>1163.4</ele>
        <time>2022-06-09T09:47:45Z</time>
      </trkpt>
      <trkpt lat="44.79485" lon="4.35864">
        <ele>1163.4</ele>
        <time>2022-06-09T09:47:46Z</time>
      </trkpt>
      <trkpt lat="44.7949" lon="4.35862">
        <ele>1163.3</ele>
        <time>2022-06-09T09:47:47Z</time>
      </trkpt>
      <trkpt lat="44.79494" lon="4.3586">
        <ele>1163.3</ele>
        <time>2022-06-09T09:47:48Z</time>
      </trkpt>
      <trkpt lat="44.79498" lon="4.35857">
        <ele>1163.3</ele>
        <time>2022-06-09T09:47:49Z</time>
      </trkpt>
      <trkpt lat="44.79503" lon="4.35855">
        <ele>1163.3</ele>
        <time>2022-06-09T09:47:50Z</time>
      </trkpt>
      <trkpt lat="44.79508" lon="4.35852">
        <ele>1163.3</ele>
        <time>2022-06-09T09:47:51Z</time>
      </trkpt>
      <trkpt lat="44.79512" lon="4.3585">
        <ele>1163.3</ele>
        <time>2022-06-09T09:47:52Z</time>
      </trkpt>
      <trkpt lat="44.79514" lon="4.35851">
        <ele>1163.3</ele>
        <time>2022-06-09T09:47:53Z</time>
      </trkpt>
      <trkpt lat="44.79521" lon="4.35845">
        <ele>1163.3</ele>
        <time>2022-06-09T09:47:55Z</time>
      </trkpt>
      <trkpt lat="44.79524" lon="4.35841">
        <ele>1163.2</ele>
        <time>2022-06-09T09:47:56Z</time>
      </trkpt>
      <trkpt lat="44.79529" lon="4.35835">
        <ele>1163.2</ele>
        <time>2022-06-09T09:47:57Z</time>
      </trkpt>
      <trkpt lat="44.79533" lon="4.35831">
        <ele>1163.1</ele>
        <time>2022-06-09T09:47:58Z</time>
      </trkpt>
      <trkpt lat="44.79537" lon="4.35827">
        <ele>1163.1</ele>
        <time>2022-06-09T09:47:59Z</time>
      </trkpt>
      <trkpt lat="44.79542" lon="4.35822">
        <ele>1163</ele>
        <time>2022-06-09T09:48:00Z</time>
      </trkpt>
      <trkpt lat="44.79546" lon="4.35815">
        <ele>1162.9</ele>
        <time>2022-06-09T09:48:02Z</time>
      </trkpt>
      <trkpt lat="44.79549" lon="4.35812">
        <ele>1162.9</ele>
        <time>2022-06-09T09:48:03Z</time>
      </trkpt>
      <trkpt lat="44.79553" lon="4.35806">
        <ele>1162.8</ele>
        <time>2022-06-09T09:48:05Z</time>
      </trkpt>
      <trkpt lat="44.79556" lon="4.35802">
        <ele>1162.8</ele>
        <time>2022-06-09T09:48:06Z</time>
      </trkpt>
      <trkpt lat="44.79559" lon="4.35799">
        <ele>1162.7</ele>
        <time>2022-06-09T09:48:07Z</time>
      </trkpt>
      <trkpt lat="44.79561" lon="4.35795">
        <ele>1162.7</ele>
        <time>2022-06-09T09:48:08Z</time>
      </trkpt>
      <trkpt lat="44.79565" lon="4.35789">
        <ele>1162.6</ele>
        <time>2022-06-09T09:48:09Z</time>
      </trkpt>
      <trkpt lat="44.79568" lon="4.35783">
        <ele>1162.5</ele>
        <time>2022-06-09T09:48:10Z</time>
      </trkpt>
      <trkpt lat="44.79572" lon="4.35777">
        <ele>1162.5</ele>
        <time>2022-06-09T09:48:11Z</time>
      </trkpt>
      <trkpt lat="44.79575" lon="4.35772">
        <ele>1162.4</ele>
        <time>2022-06-09T09:48:13Z</time>
      </trkpt>
      <trkpt lat="44.79578" lon="4.35767">
        <ele>1162.3</ele>
        <time>2022-06-09T09:48:14Z</time>
      </trkpt>
      <trkpt lat="44.7958" lon="4.35763">
        <ele>1162.3</ele>
        <time>2022-06-09T09:48:15Z</time>
      </trkpt>
      <trkpt lat="44.79586" lon="4.35756">
        <ele>1162.1</ele>
        <time>2022-06-09T09:48:16Z</time>
      </trkpt>
      <trkpt lat="44.79594" lon="4.35749">
        <ele>1161.9</ele>
        <time>2022-06-09T09:48:18Z</time>
      </trkpt>
      <trkpt lat="44.796" lon="4.35747">
        <ele>1161.7</ele>
        <time>2022-06-09T09:48:20Z</time>
      </trkpt>
      <trkpt lat="44.79605" lon="4.35745">
        <ele>1161.6</ele>
        <time>2022-06-09T09:48:21Z</time>
      </trkpt>
      <trkpt lat="44.79609" lon="4.35744">
        <ele>1161.5</ele>
        <time>2022-06-09T09:48:22Z</time>
      </trkpt>
      <trkpt lat="44.79614" lon="4.35742">
        <ele>1161.4</ele>
        <time>2022-06-09T09:48:23Z</time>
      </trkpt>
      <trkpt lat="44.79619" lon="4.3574">
        <ele>1161.3</ele>
        <time>2022-06-09T09:48:24Z</time>
      </trkpt>
      <trkpt lat="44.79624" lon="4.35738">
        <ele>1161.2</ele>
        <time>2022-06-09T09:48:25Z</time>
      </trkpt>
      <trkpt lat="44.79628" lon="4.35737">
        <ele>1161.1</ele>
        <time>2022-06-09T09:48:26Z</time>
      </trkpt>
      <trkpt lat="44.79633" lon="4.35736">
        <ele>1161</ele>
        <time>2022-06-09T09:48:27Z</time>
      </trkpt>
      <trkpt lat="44.79638" lon="4.35735">
        <ele>1160.9</ele>
        <time>2022-06-09T09:48:28Z</time>
      </trkpt>
      <trkpt lat="44.79643" lon="4.35734">
        <ele>1160.8</ele>
        <time>2022-06-09T09:48:29Z</time>
      </trkpt>
      <trkpt lat="44.79648" lon="4.35732">
        <ele>1160.7</ele>
        <time>2022-06-09T09:48:30Z</time>
      </trkpt>
      <trkpt lat="44.79653" lon="4.35731">
        <ele>1160.7</ele>
        <time>2022-06-09T09:48:31Z</time>
      </trkpt>
      <trkpt lat="44.79658" lon="4.35729">
        <ele>1160.6</ele>
        <time>2022-06-09T09:48:32Z</time>
      </trkpt>
      <trkpt lat="44.79663" lon="4.35728">
        <ele>1160.5</ele>
        <time>2022-06-09T09:48:33Z</time>
      </trkpt>
      <trkpt lat="44.79668" lon="4.35727">
        <ele>1160.4</ele>
        <time>2022-06-09T09:48:34Z</time>
      </trkpt>
      <trkpt lat="44.79673" lon="4.35725">
        <ele>1160.3</ele>
        <time>2022-06-09T09:48:35Z</time>
      </trkpt>
      <trkpt lat="44.79678" lon="4.35724">
        <ele>1160.2</ele>
        <time>2022-06-09T09:48:36Z</time>
      </trkpt>
      <trkpt lat="44.79683" lon="4.35723">
        <ele>1160.1</ele>
        <time>2022-06-09T09:48:37Z</time>
      </trkpt>
      <trkpt lat="44.79688" lon="4.35721">
        <ele>1160</ele>
        <time>2022-06-09T09:48:38Z</time>
      </trkpt>
      <trkpt lat="44.79693" lon="4.3572">
        <ele>1159.9</ele>
        <time>2022-06-09T09:48:39Z</time>
      </trkpt>
      <trkpt lat="44.79698" lon="4.35719">
        <ele>1159.8</ele>
        <time>2022-06-09T09:48:40Z</time>
      </trkpt>
      <trkpt lat="44.79703" lon="4.35717">
        <ele>1159.6</ele>
        <time>2022-06-09T09:48:41Z</time>
      </trkpt>
      <trkpt lat="44.79709" lon="4.35716">
        <ele>1159.5</ele>
        <time>2022-06-09T09:48:42Z</time>
      </trkpt>
      <trkpt lat="44.79714" lon="4.35714">
        <ele>1159.4</ele>
        <time>2022-06-09T09:48:43Z</time>
      </trkpt>
      <trkpt lat="44.7972" lon="4.35712">
        <ele>1159.3</ele>
        <time>2022-06-09T09:48:44Z</time>
      </trkpt>
      <trkpt lat="44.79726" lon="4.3571">
        <ele>1159.1</ele>
        <time>2022-06-09T09:48:45Z</time>
      </trkpt>
      <trkpt lat="44.79732" lon="4.35708">
        <ele>1159</ele>
        <time>2022-06-09T09:48:46Z</time>
      </trkpt>
      <trkpt lat="44.79737" lon="4.35705">
        <ele>1158.9</ele>
        <time>2022-06-09T09:48:47Z</time>
      </trkpt>
      <trkpt lat="44.79743" lon="4.35703">
        <ele>1158.8</ele>
        <time>2022-06-09T09:48:48Z</time>
      </trkpt>
      <trkpt lat="44.79749" lon="4.357">
        <ele>1158.7</ele>
        <time>2022-06-09T09:48:49Z</time>
      </trkpt>
      <trkpt lat="44.79755" lon="4.35696">
        <ele>1158.6</ele>
        <time>2022-06-09T09:48:50Z</time>
      </trkpt>
      <trkpt lat="44.7976" lon="4.35693">
        <ele>1158.5</ele>
        <time>2022-06-09T09:48:51Z</time>
      </trkpt>
      <trkpt lat="44.79766" lon="4.3569">
        <ele>1158.4</ele>
        <time>2022-06-09T09:48:52Z</time>
      </trkpt>
      <trkpt lat="44.79771" lon="4.35687">
        <ele>1158.3</ele>
        <time>2022-06-09T09:48:53Z</time>
      </trkpt>
      <trkpt lat="44.79776" lon="4.35684">
        <ele>1158.2</ele>
        <time>2022-06-09T09:48:54Z</time>
      </trkpt>
      <trkpt lat="44.79781" lon="4.35681">
        <ele>1158.1</ele>
        <time>2022-06-09T09:48:55Z</time>
      </trkpt>
      <trkpt lat="44.79786" lon="4.35677">
        <ele>1158.1</ele>
        <time>2022-06-09T09:48:56Z</time>
      </trkpt>
      <trkpt lat="44.7979" lon="4.35674">
        <ele>1158</ele>
        <time>2022-06-09T09:48:57Z</time>
      </trkpt>
      <trkpt lat="44.79794" lon="4.35671">
        <ele>1157.9</ele>
        <time>2022-06-09T09:48:58Z</time>
      </trkpt>
      <trkpt lat="44.79799" lon="4.35668">
        <ele>1157.8</ele>
        <time>2022-06-09T09:48:59Z</time>
      </trkpt>
      <trkpt lat="44.79803" lon="4.35665">
        <ele>1157.8</ele>
        <time>2022-06-09T09:49:00Z</time>
      </trkpt>
      <trkpt lat="44.79807" lon="4.35662">
        <ele>1157.7</ele>
        <time>2022-06-09T09:49:01Z</time>
      </trkpt>
      <trkpt lat="44.79811" lon="4.35659">
        <ele>1157.6</ele>
        <time>2022-06-09T09:49:02Z</time>
      </trkpt>
      <trkpt lat="44.79815" lon="4.35656">
        <ele>1157.5</ele>
        <time>2022-06-09T09:49:03Z</time>
      </trkpt>
      <trkpt lat="44.7982" lon="4.35653">
        <ele>1157.4</ele>
        <time>2022-06-09T09:49:04Z</time>
      </trkpt>
      <trkpt lat="44.79824" lon="4.3565">
        <ele>1157.3</ele>
        <time>2022-06-09T09:49:05Z</time>
      </trkpt>
      <trkpt lat="44.79829" lon="4.35647">
        <ele>1157.2</ele>
        <time>2022-06-09T09:49:06Z</time>
      </trkpt>
      <trkpt lat="44.79833" lon="4.35643">
        <ele>1157.1</ele>
        <time>2022-06-09T09:49:07Z</time>
      </trkpt>
      <trkpt lat="44.79837" lon="4.3564">
        <ele>1157</ele>
        <time>2022-06-09T09:49:08Z</time>
      </trkpt>
      <trkpt lat="44.79842" lon="4.35637">
        <ele>1156.9</ele>
        <time>2022-06-09T09:49:09Z</time>
      </trkpt>
      <trkpt lat="44.79846" lon="4.35633">
        <ele>1156.8</ele>
        <time>2022-06-09T09:49:10Z</time>
      </trkpt>
      <trkpt lat="44.7985" lon="4.3563">
        <ele>1156.7</ele>
        <time>2022-06-09T09:49:11Z</time>
      </trkpt>
      <trkpt lat="44.79855" lon="4.35628">
        <ele>1156.6</ele>
        <time>2022-06-09T09:49:12Z</time>
      </trkpt>
      <trkpt lat="44.79859" lon="4.35625">
        <ele>1156.5</ele>
        <time>2022-06-09T09:49:13Z</time>
      </trkpt>
      <trkpt lat="44.79863" lon="4.35622">
        <ele>1156.5</ele>
        <time>2022-06-09T09:49:14Z</time>
      </trkpt>
      <trkpt lat="44.79866" lon="4.35619">
        <ele>1156.4</ele>
        <time>2022-06-09T09:49:15Z</time>
      </trkpt>
      <trkpt lat="44.79869" lon="4.35617">
        <ele>1156.3</ele>
        <time>2022-06-09T09:49:16Z</time>
      </trkpt>
      <trkpt lat="44.79873" lon="4.35615">
        <ele>1156.2</ele>
        <time>2022-06-09T09:49:17Z</time>
      </trkpt>
      <trkpt lat="44.79877" lon="4.35612">
        <ele>1156.1</ele>
        <time>2022-06-09T09:49:18Z</time>
      </trkpt>
      <trkpt lat="44.79882" lon="4.35609">
        <ele>1156</ele>
        <time>2022-06-09T09:49:19Z</time>
      </trkpt>
      <trkpt lat="44.79886" lon="4.35606">
        <ele>1155.9</ele>
        <time>2022-06-09T09:49:20Z</time>
      </trkpt>
      <trkpt lat="44.79891" lon="4.35604">
        <ele>1155.7</ele>
        <time>2022-06-09T09:49:21Z</time>
      </trkpt>
      <trkpt lat="44.79895" lon="4.35602">
        <ele>1155.6</ele>
        <time>2022-06-09T09:49:22Z</time>
      </trkpt>
      <trkpt lat="44.799" lon="4.356">
        <ele>1155.5</ele>
        <time>2022-06-09T09:49:23Z</time>
      </trkpt>
      <trkpt lat="44.79904" lon="4.35598">
        <ele>1155.4</ele>
        <time>2022-06-09T09:49:24Z</time>
      </trkpt>
      <trkpt lat="44.79909" lon="4.35596">
        <ele>1155.3</ele>
        <time>2022-06-09T09:49:25Z</time>
      </trkpt>
      <trkpt lat="44.79913" lon="4.35595">
        <ele>1155.2</ele>
        <time>2022-06-09T09:49:26Z</time>
      </trkpt>
      <trkpt lat="44.79916" lon="4.35593">
        <ele>1155.1</ele>
        <time>2022-06-09T09:49:27Z</time>
      </trkpt>
      <trkpt lat="44.79922" lon="4.35592">
        <ele>1155</ele>
        <time>2022-06-09T09:49:28Z</time>
      </trkpt>
      <trkpt lat="44.79927" lon="4.35592">
        <ele>1154.9</ele>
        <time>2022-06-09T09:49:29Z</time>
      </trkpt>
      <trkpt lat="44.79932" lon="4.35591">
        <ele>1154.8</ele>
        <time>2022-06-09T09:49:30Z</time>
      </trkpt>
      <trkpt lat="44.79936" lon="4.35591">
        <ele>1154.7</ele>
        <time>2022-06-09T09:49:31Z</time>
      </trkpt>
      <trkpt lat="44.79941" lon="4.35591">
        <ele>1154.6</ele>
        <time>2022-06-09T09:49:32Z</time>
      </trkpt>
      <trkpt lat="44.79946" lon="4.35591">
        <ele>1154.5</ele>
        <time>2022-06-09T09:49:33Z</time>
      </trkpt>
      <trkpt lat="44.79951" lon="4.35591">
        <ele>1154.4</ele>
        <time>2022-06-09T09:49:34Z</time>
      </trkpt>
      <trkpt lat="44.79953" lon="4.35592">
        <ele>1154.4</ele>
        <time>2022-06-09T09:49:35Z</time>
      </trkpt>
      <trkpt lat="44.79959" lon="4.35593">
        <ele>1154.2</ele>
        <time>2022-06-09T09:49:36Z</time>
      </trkpt>
      <trkpt lat="44.79964" lon="4.35595">
        <ele>1154.1</ele>
        <time>2022-06-09T09:49:38Z</time>
      </trkpt>
      <trkpt lat="44.79968" lon="4.35597">
        <ele>1154</ele>
        <time>2022-06-09T09:49:39Z</time>
      </trkpt>
      <trkpt lat="44.79972" lon="4.35599">
        <ele>1153.9</ele>
        <time>2022-06-09T09:49:40Z</time>
      </trkpt>
      <trkpt lat="44.79976" lon="4.35602">
        <ele>1153.7</ele>
        <time>2022-06-09T09:49:41Z</time>
      </trkpt>
      <trkpt lat="44.79981" lon="4.35605">
        <ele>1153.6</ele>
        <time>2022-06-09T09:49:42Z</time>
      </trkpt>
      <trkpt lat="44.79986" lon="4.3561">
        <ele>1153.5</ele>
        <time>2022-06-09T09:49:44Z</time>
      </trkpt>
      <trkpt lat="44.79989" lon="4.35612">
        <ele>1153.4</ele>
        <time>2022-06-09T09:49:45Z</time>
      </trkpt>
      <trkpt lat="44.79993" lon="4.35615">
        <ele>1153.3</ele>
        <time>2022-06-09T09:49:46Z</time>
      </trkpt>
      <trkpt lat="44.79999" lon="4.35619">
        <ele>1153.1</ele>
        <time>2022-06-09T09:49:47Z</time>
      </trkpt>
      <trkpt lat="44.80005" lon="4.35626">
        <ele>1152.9</ele>
        <time>2022-06-09T09:49:49Z</time>
      </trkpt>
      <trkpt lat="44.80009" lon="4.3563">
        <ele>1152.8</ele>
        <time>2022-06-09T09:49:50Z</time>
      </trkpt>
      <trkpt lat="44.80014" lon="4.35633">
        <ele>1152.7</ele>
        <time>2022-06-09T09:49:51Z</time>
      </trkpt>
      <trkpt lat="44.80018" lon="4.35637">
        <ele>1152.6</ele>
        <time>2022-06-09T09:49:52Z</time>
      </trkpt>
      <trkpt lat="44.80022" lon="4.35641">
        <ele>1152.5</ele>
        <time>2022-06-09T09:49:53Z</time>
      </trkpt>
      <trkpt lat="44.80026" lon="4.35645">
        <ele>1152.4</ele>
        <time>2022-06-09T09:49:54Z</time>
      </trkpt>
      <trkpt lat="44.80031" lon="4.35649">
        <ele>1152.3</ele>
        <time>2022-06-09T09:49:55Z</time>
      </trkpt>
      <trkpt lat="44.80035" lon="4.35653">
        <ele>1152.1</ele>
        <time>2022-06-09T09:49:56Z</time>
      </trkpt>
      <trkpt lat="44.8004" lon="4.35658">
        <ele>1152</ele>
        <time>2022-06-09T09:49:57Z</time>
      </trkpt>
      <trkpt lat="44.80045" lon="4.35662">
        <ele>1151.8</ele>
        <time>2022-06-09T09:49:58Z</time>
      </trkpt>
      <trkpt lat="44.8005" lon="4.35666">
        <ele>1151.7</ele>
        <time>2022-06-09T09:49:59Z</time>
      </trkpt>
      <trkpt lat="44.80055" lon="4.3567">
        <ele>1151.5</ele>
        <time>2022-06-09T09:50:00Z</time>
      </trkpt>
      <trkpt lat="44.80059" lon="4.35675">
        <ele>1151.4</ele>
        <time>2022-06-09T09:50:01Z</time>
      </trkpt>
      <trkpt lat="44.80065" lon="4.35679">
        <ele>1151.3</ele>
        <time>2022-06-09T09:50:02Z</time>
      </trkpt>
      <trkpt lat="44.8007" lon="4.35684">
        <ele>1151.1</ele>
        <time>2022-06-09T09:50:03Z</time>
      </trkpt>
      <trkpt lat="44.80075" lon="4.35688">
        <ele>1151</ele>
        <time>2022-06-09T09:50:04Z</time>
      </trkpt>
      <trkpt lat="44.80081" lon="4.35691">
        <ele>1150.8</ele>
        <time>2022-06-09T09:50:05Z</time>
      </trkpt>
      <trkpt lat="44.80086" lon="4.35694">
        <ele>1150.7</ele>
        <time>2022-06-09T09:50:06Z</time>
      </trkpt>
      <trkpt lat="44.80092" lon="4.35696">
        <ele>1150.5</ele>
        <time>2022-06-09T09:50:07Z</time>
      </trkpt>
      <trkpt lat="44.80098" lon="4.35698">
        <ele>1150.3</ele>
        <time>2022-06-09T09:50:08Z</time>
      </trkpt>
      <trkpt lat="44.80104" lon="4.357">
        <ele>1150.1</ele>
        <time>2022-06-09T09:50:09Z</time>
      </trkpt>
      <trkpt lat="44.8011" lon="4.35701">
        <ele>1150</ele>
        <time>2022-06-09T09:50:10Z</time>
      </trkpt>
      <trkpt lat="44.80116" lon="4.35701">
        <ele>1149.9</ele>
        <time>2022-06-09T09:50:11Z</time>
      </trkpt>
      <trkpt lat="44.80122" lon="4.357">
        <ele>1149.8</ele>
        <time>2022-06-09T09:50:12Z</time>
      </trkpt>
      <trkpt lat="44.80159" lon="4.35685">
        <ele>1149.1</ele>
        <time>2022-06-09T09:50:19Z</time>
      </trkpt>
      <trkpt lat="44.80166" lon="4.35679">
        <ele>1148.9</ele>
        <time>2022-06-09T09:50:20Z</time>
      </trkpt>
      <trkpt lat="44.80169" lon="4.35675">
        <ele>1148.8</ele>
        <time>2022-06-09T09:50:21Z</time>
      </trkpt>
      <trkpt lat="44.80174" lon="4.35671">
        <ele>1148.7</ele>
        <time>2022-06-09T09:50:22Z</time>
      </trkpt>
      <trkpt lat="44.80179" lon="4.35667">
        <ele>1148.6</ele>
        <time>2022-06-09T09:50:23Z</time>
      </trkpt>
      <trkpt lat="44.80184" lon="4.35662">
        <ele>1148.4</ele>
        <time>2022-06-09T09:50:24Z</time>
      </trkpt>
      <trkpt lat="44.80189" lon="4.35657">
        <ele>1148.3</ele>
        <time>2022-06-09T09:50:25Z</time>
      </trkpt>
      <trkpt lat="44.80194" lon="4.35653">
        <ele>1148.2</ele>
        <time>2022-06-09T09:50:26Z</time>
      </trkpt>
      <trkpt lat="44.80198" lon="4.35649">
        <ele>1148</ele>
        <time>2022-06-09T09:50:27Z</time>
      </trkpt>
      <trkpt lat="44.80203" lon="4.35645">
        <ele>1147.9</ele>
        <time>2022-06-09T09:50:28Z</time>
      </trkpt>
      <trkpt lat="44.80208" lon="4.35641">
        <ele>1147.8</ele>
        <time>2022-06-09T09:50:29Z</time>
      </trkpt>
      <trkpt lat="44.80212" lon="4.35637">
        <ele>1147.7</ele>
        <time>2022-06-09T09:50:30Z</time>
      </trkpt>
      <trkpt lat="44.80217" lon="4.35633">
        <ele>1147.5</ele>
        <time>2022-06-09T09:50:31Z</time>
      </trkpt>
      <trkpt lat="44.80221" lon="4.35628">
        <ele>1147.4</ele>
        <time>2022-06-09T09:50:32Z</time>
      </trkpt>
      <trkpt lat="44.80225" lon="4.35624">
        <ele>1147.3</ele>
        <time>2022-06-09T09:50:33Z</time>
      </trkpt>
      <trkpt lat="44.8023" lon="4.3562">
        <ele>1147.2</ele>
        <time>2022-06-09T09:50:34Z</time>
      </trkpt>
      <trkpt lat="44.80235" lon="4.35616">
        <ele>1147</ele>
        <time>2022-06-09T09:50:35Z</time>
      </trkpt>
      <trkpt lat="44.8024" lon="4.35612">
        <ele>1146.9</ele>
        <time>2022-06-09T09:50:36Z</time>
      </trkpt>
      <trkpt lat="44.80245" lon="4.35608">
        <ele>1146.8</ele>
        <time>2022-06-09T09:50:37Z</time>
      </trkpt>
      <trkpt lat="44.8025" lon="4.35604">
        <ele>1146.7</ele>
        <time>2022-06-09T09:50:38Z</time>
      </trkpt>
      <trkpt lat="44.80255" lon="4.356">
        <ele>1146.6</ele>
        <time>2022-06-09T09:50:39Z</time>
      </trkpt>
      <trkpt lat="44.8026" lon="4.35596">
        <ele>1146.5</ele>
        <time>2022-06-09T09:50:40Z</time>
      </trkpt>
      <trkpt lat="44.80265" lon="4.35592">
        <ele>1146.4</ele>
        <time>2022-06-09T09:50:41Z</time>
      </trkpt>
      <trkpt lat="44.8027" lon="4.35588">
        <ele>1146.2</ele>
        <time>2022-06-09T09:50:42Z</time>
      </trkpt>
      <trkpt lat="44.80274" lon="4.35583">
        <ele>1146.1</ele>
        <time>2022-06-09T09:50:43Z</time>
      </trkpt>
      <trkpt lat="44.80278" lon="4.35579">
        <ele>1146.1</ele>
        <time>2022-06-09T09:50:44Z</time>
      </trkpt>
      <trkpt lat="44.80283" lon="4.35575">
        <ele>1146</ele>
        <time>2022-06-09T09:50:45Z</time>
      </trkpt>
      <trkpt lat="44.80287" lon="4.35572">
        <ele>1145.9</ele>
        <time>2022-06-09T09:50:46Z</time>
      </trkpt>
      <trkpt lat="44.80292" lon="4.35568">
        <ele>1145.8</ele>
        <time>2022-06-09T09:50:47Z</time>
      </trkpt>
      <trkpt lat="44.80297" lon="4.35563">
        <ele>1145.7</ele>
        <time>2022-06-09T09:50:48Z</time>
      </trkpt>
      <trkpt lat="44.80301" lon="4.35559">
        <ele>1145.6</ele>
        <time>2022-06-09T09:50:49Z</time>
      </trkpt>
      <trkpt lat="44.80305" lon="4.35554">
        <ele>1145.5</ele>
        <time>2022-06-09T09:50:50Z</time>
      </trkpt>
      <trkpt lat="44.8031" lon="4.3555">
        <ele>1145.4</ele>
        <time>2022-06-09T09:50:51Z</time>
      </trkpt>
      <trkpt lat="44.80314" lon="4.35545">
        <ele>1145.4</ele>
        <time>2022-06-09T09:50:52Z</time>
      </trkpt>
      <trkpt lat="44.80318" lon="4.3554">
        <ele>1145.3</ele>
        <time>2022-06-09T09:50:53Z</time>
      </trkpt>
      <trkpt lat="44.80323" lon="4.35534">
        <ele>1145.2</ele>
        <time>2022-06-09T09:50:54Z</time>
      </trkpt>
      <trkpt lat="44.80326" lon="4.35527">
        <ele>1145</ele>
        <time>2022-06-09T09:50:55Z</time>
      </trkpt>
      <trkpt lat="44.8033" lon="4.3552">
        <ele>1144.9</ele>
        <time>2022-06-09T09:50:56Z</time>
      </trkpt>
      <trkpt lat="44.80333" lon="4.35512">
        <ele>1144.7</ele>
        <time>2022-06-09T09:50:57Z</time>
      </trkpt>
      <trkpt lat="44.80335" lon="4.35504">
        <ele>1144.6</ele>
        <time>2022-06-09T09:50:58Z</time>
      </trkpt>
      <trkpt lat="44.80337" lon="4.35496">
        <ele>1144.5</ele>
        <time>2022-06-09T09:50:59Z</time>
      </trkpt>
      <trkpt lat="44.80339" lon="4.35487">
        <ele>1144.3</ele>
        <time>2022-06-09T09:51:00Z</time>
      </trkpt>
      <trkpt lat="44.80341" lon="4.35478">
        <ele>1144.2</ele>
        <time>2022-06-09T09:51:01Z</time>
      </trkpt>
      <trkpt lat="44.80342" lon="4.35469">
        <ele>1144.1</ele>
        <time>2022-06-09T09:51:02Z</time>
      </trkpt>
      <trkpt lat="44.80343" lon="4.3546">
        <ele>1143.9</ele>
        <time>2022-06-09T09:51:03Z</time>
      </trkpt>
      <trkpt lat="44.80344" lon="4.3545">
        <ele>1143.8</ele>
        <time>2022-06-09T09:51:04Z</time>
      </trkpt>
      <trkpt lat="44.80345" lon="4.35441">
        <ele>1143.7</ele>
        <time>2022-06-09T09:51:05Z</time>
      </trkpt>
      <trkpt lat="44.80346" lon="4.35431">
        <ele>1143.6</ele>
        <time>2022-06-09T09:51:06Z</time>
      </trkpt>
      <trkpt lat="44.80347" lon="4.35421">
        <ele>1143.5</ele>
        <time>2022-06-09T09:51:07Z</time>
      </trkpt>
      <trkpt lat="44.80348" lon="4.35411">
        <ele>1143.4</ele>
        <time>2022-06-09T09:51:08Z</time>
      </trkpt>
      <trkpt lat="44.80349" lon="4.35402">
        <ele>1143.3</ele>
        <time>2022-06-09T09:51:09Z</time>
      </trkpt>
      <trkpt lat="44.8035" lon="4.35392">
        <ele>1143.1</ele>
        <time>2022-06-09T09:51:10Z</time>
      </trkpt>
      <trkpt lat="44.80351" lon="4.35383">
        <ele>1143</ele>
        <time>2022-06-09T09:51:11Z</time>
      </trkpt>
      <trkpt lat="44.80353" lon="4.35373">
        <ele>1142.9</ele>
        <time>2022-06-09T09:51:12Z</time>
      </trkpt>
      <trkpt lat="44.80355" lon="4.35364">
        <ele>1142.7</ele>
        <time>2022-06-09T09:51:13Z</time>
      </trkpt>
      <trkpt lat="44.80358" lon="4.35355">
        <ele>1142.6</ele>
        <time>2022-06-09T09:51:14Z</time>
      </trkpt>
      <trkpt lat="44.80361" lon="4.35347">
        <ele>1142.4</ele>
        <time>2022-06-09T09:51:15Z</time>
      </trkpt>
      <trkpt lat="44.80365" lon="4.35339">
        <ele>1142.3</ele>
        <time>2022-06-09T09:51:16Z</time>
      </trkpt>
      <trkpt lat="44.80369" lon="4.35331">
        <ele>1142.1</ele>
        <time>2022-06-09T09:51:17Z</time>
      </trkpt>
      <trkpt lat="44.80374" lon="4.35325">
        <ele>1142</ele>
        <time>2022-06-09T09:51:18Z</time>
      </trkpt>
      <trkpt lat="44.80379" lon="4.35319">
        <ele>1141.8</ele>
        <time>2022-06-09T09:51:19Z</time>
      </trkpt>
      <trkpt lat="44.80384" lon="4.35313">
        <ele>1141.7</ele>
        <time>2022-06-09T09:51:20Z</time>
      </trkpt>
      <trkpt lat="44.8039" lon="4.35308">
        <ele>1141.5</ele>
        <time>2022-06-09T09:51:21Z</time>
      </trkpt>
      <trkpt lat="44.80395" lon="4.35303">
        <ele>1141.4</ele>
        <time>2022-06-09T09:51:22Z</time>
      </trkpt>
      <trkpt lat="44.80399" lon="4.35298">
        <ele>1141.3</ele>
        <time>2022-06-09T09:51:23Z</time>
      </trkpt>
      <trkpt lat="44.80405" lon="4.35293">
        <ele>1141.2</ele>
        <time>2022-06-09T09:51:24Z</time>
      </trkpt>
      <trkpt lat="44.80409" lon="4.35289">
        <ele>1141.1</ele>
        <time>2022-06-09T09:51:25Z</time>
      </trkpt>
      <trkpt lat="44.80414" lon="4.35284">
        <ele>1140.9</ele>
        <time>2022-06-09T09:51:26Z</time>
      </trkpt>
      <trkpt lat="44.80419" lon="4.35279">
        <ele>1140.8</ele>
        <time>2022-06-09T09:51:27Z</time>
      </trkpt>
      <trkpt lat="44.80424" lon="4.35274">
        <ele>1140.7</ele>
        <time>2022-06-09T09:51:28Z</time>
      </trkpt>
      <trkpt lat="44.80429" lon="4.35269">
        <ele>1140.6</ele>
        <time>2022-06-09T09:51:29Z</time>
      </trkpt>
      <trkpt lat="44.80434" lon="4.35264">
        <ele>1140.5</ele>
        <time>2022-06-09T09:51:30Z</time>
      </trkpt>
      <trkpt lat="44.80438" lon="4.3526">
        <ele>1140.4</ele>
        <time>2022-06-09T09:51:31Z</time>
      </trkpt>
      <trkpt lat="44.80443" lon="4.35255">
        <ele>1140.3</ele>
        <time>2022-06-09T09:51:32Z</time>
      </trkpt>
      <trkpt lat="44.80448" lon="4.35251">
        <ele>1140.3</ele>
        <time>2022-06-09T09:51:33Z</time>
      </trkpt>
      <trkpt lat="44.80452" lon="4.35247">
        <ele>1140.2</ele>
        <time>2022-06-09T09:51:34Z</time>
      </trkpt>
      <trkpt lat="44.80457" lon="4.35244">
        <ele>1140.1</ele>
        <time>2022-06-09T09:51:35Z</time>
      </trkpt>
      <trkpt lat="44.80462" lon="4.35239">
        <ele>1140.1</ele>
        <time>2022-06-09T09:51:36Z</time>
      </trkpt>
      <trkpt lat="44.80466" lon="4.35235">
        <ele>1140</ele>
        <time>2022-06-09T09:51:37Z</time>
      </trkpt>
      <trkpt lat="44.8047" lon="4.35231">
        <ele>1140</ele>
        <time>2022-06-09T09:51:38Z</time>
      </trkpt>
      <trkpt lat="44.80475" lon="4.35227">
        <ele>1140</ele>
        <time>2022-06-09T09:51:39Z</time>
      </trkpt>
      <trkpt lat="44.80479" lon="4.35223">
        <ele>1139.9</ele>
        <time>2022-06-09T09:51:40Z</time>
      </trkpt>
      <trkpt lat="44.80483" lon="4.35219">
        <ele>1139.8</ele>
        <time>2022-06-09T09:51:41Z</time>
      </trkpt>
      <trkpt lat="44.80487" lon="4.35216">
        <ele>1139.7</ele>
        <time>2022-06-09T09:51:42Z</time>
      </trkpt>
      <trkpt lat="44.80492" lon="4.35213">
        <ele>1139.6</ele>
        <time>2022-06-09T09:51:43Z</time>
      </trkpt>
      <trkpt lat="44.80497" lon="4.3521">
        <ele>1139.4</ele>
        <time>2022-06-09T09:51:44Z</time>
      </trkpt>
      <trkpt lat="44.80502" lon="4.35209">
        <ele>1139.3</ele>
        <time>2022-06-09T09:51:45Z</time>
      </trkpt>
      <trkpt lat="44.80507" lon="4.35207">
        <ele>1139.1</ele>
        <time>2022-06-09T09:51:46Z</time>
      </trkpt>
      <trkpt lat="44.80512" lon="4.35206">
        <ele>1138.9</ele>
        <time>2022-06-09T09:51:47Z</time>
      </trkpt>
      <trkpt lat="44.80518" lon="4.35206">
        <ele>1138.7</ele>
        <time>2022-06-09T09:51:48Z</time>
      </trkpt>
      <trkpt lat="44.80523" lon="4.35206">
        <ele>1138.6</ele>
        <time>2022-06-09T09:51:49Z</time>
      </trkpt>
      <trkpt lat="44.80528" lon="4.35207">
        <ele>1138.4</ele>
        <time>2022-06-09T09:51:50Z</time>
      </trkpt>
      <trkpt lat="44.80534" lon="4.35207">
        <ele>1138.2</ele>
        <time>2022-06-09T09:51:51Z</time>
      </trkpt>
      <trkpt lat="44.80539" lon="4.35208">
        <ele>1138</ele>
        <time>2022-06-09T09:51:52Z</time>
      </trkpt>
      <trkpt lat="44.80545" lon="4.35208">
        <ele>1137.8</ele>
        <time>2022-06-09T09:51:53Z</time>
      </trkpt>
      <trkpt lat="44.8055" lon="4.35208">
        <ele>1137.6</ele>
        <time>2022-06-09T09:51:54Z</time>
      </trkpt>
      <trkpt lat="44.80556" lon="4.35209">
        <ele>1137.4</ele>
        <time>2022-06-09T09:51:55Z</time>
      </trkpt>
      <trkpt lat="44.80561" lon="4.35209">
        <ele>1137.2</ele>
        <time>2022-06-09T09:51:56Z</time>
      </trkpt>
      <trkpt lat="44.80567" lon="4.3521">
        <ele>1137</ele>
        <time>2022-06-09T09:51:57Z</time>
      </trkpt>
      <trkpt lat="44.80573" lon="4.35211">
        <ele>1136.8</ele>
        <time>2022-06-09T09:51:58Z</time>
      </trkpt>
      <trkpt lat="44.80579" lon="4.35212">
        <ele>1136.6</ele>
        <time>2022-06-09T09:51:59Z</time>
      </trkpt>
      <trkpt lat="44.80585" lon="4.35213">
        <ele>1136.4</ele>
        <time>2022-06-09T09:52:00Z</time>
      </trkpt>
      <trkpt lat="44.80592" lon="4.35214">
        <ele>1136.1</ele>
        <time>2022-06-09T09:52:01Z</time>
      </trkpt>
      <trkpt lat="44.80598" lon="4.35215">
        <ele>1135.9</ele>
        <time>2022-06-09T09:52:02Z</time>
      </trkpt>
      <trkpt lat="44.80605" lon="4.35216">
        <ele>1135.7</ele>
        <time>2022-06-09T09:52:03Z</time>
      </trkpt>
      <trkpt lat="44.80611" lon="4.35216">
        <ele>1135.5</ele>
        <time>2022-06-09T09:52:04Z</time>
      </trkpt>
      <trkpt lat="44.80617" lon="4.35217">
        <ele>1135.3</ele>
        <time>2022-06-09T09:52:05Z</time>
      </trkpt>
      <trkpt lat="44.80623" lon="4.35218">
        <ele>1135.1</ele>
        <time>2022-06-09T09:52:06Z</time>
      </trkpt>
      <trkpt lat="44.8063" lon="4.35218">
        <ele>1134.9</ele>
        <time>2022-06-09T09:52:07Z</time>
      </trkpt>
      <trkpt lat="44.80636" lon="4.35219">
        <ele>1134.7</ele>
        <time>2022-06-09T09:52:08Z</time>
      </trkpt>
      <trkpt lat="44.80642" lon="4.3522">
        <ele>1134.6</ele>
        <time>2022-06-09T09:52:09Z</time>
      </trkpt>
      <trkpt lat="44.80648" lon="4.3522">
        <ele>1134.4</ele>
        <time>2022-06-09T09:52:10Z</time>
      </trkpt>
      <trkpt lat="44.80654" lon="4.35221">
        <ele>1134.2</ele>
        <time>2022-06-09T09:52:11Z</time>
      </trkpt>
      <trkpt lat="44.80661" lon="4.35221">
        <ele>1134.1</ele>
        <time>2022-06-09T09:52:12Z</time>
      </trkpt>
      <trkpt lat="44.80667" lon="4.35222">
        <ele>1133.9</ele>
        <time>2022-06-09T09:52:13Z</time>
      </trkpt>
      <trkpt lat="44.80673" lon="4.35223">
        <ele>1133.7</ele>
        <time>2022-06-09T09:52:14Z</time>
      </trkpt>
      <trkpt lat="44.80679" lon="4.35224">
        <ele>1133.5</ele>
        <time>2022-06-09T09:52:15Z</time>
      </trkpt>
      <trkpt lat="44.80685" lon="4.35224">
        <ele>1133.2</ele>
        <time>2022-06-09T09:52:16Z</time>
      </trkpt>
      <trkpt lat="44.80692" lon="4.35225">
        <ele>1133</ele>
        <time>2022-06-09T09:52:17Z</time>
      </trkpt>
      <trkpt lat="44.80698" lon="4.35225">
        <ele>1132.8</ele>
        <time>2022-06-09T09:52:18Z</time>
      </trkpt>
      <trkpt lat="44.80705" lon="4.35224">
        <ele>1132.7</ele>
        <time>2022-06-09T09:52:19Z</time>
      </trkpt>
      <trkpt lat="44.80712" lon="4.35222">
        <ele>1132.5</ele>
        <time>2022-06-09T09:52:20Z</time>
      </trkpt>
      <trkpt lat="44.80718" lon="4.3522">
        <ele>1132.4</ele>
        <time>2022-06-09T09:52:21Z</time>
      </trkpt>
      <trkpt lat="44.80725" lon="4.35217">
        <ele>1132.2</ele>
        <time>2022-06-09T09:52:22Z</time>
      </trkpt>
      <trkpt lat="44.8073" lon="4.35212">
        <ele>1132</ele>
        <time>2022-06-09T09:52:23Z</time>
      </trkpt>
      <trkpt lat="44.80736" lon="4.35206">
        <ele>1131.8</ele>
        <time>2022-06-09T09:52:24Z</time>
      </trkpt>
      <trkpt lat="44.8074" lon="4.35199">
        <ele>1131.6</ele>
        <time>2022-06-09T09:52:25Z</time>
      </trkpt>
      <trkpt lat="44.80744" lon="4.35191">
        <ele>1131.5</ele>
        <time>2022-06-09T09:52:26Z</time>
      </trkpt>
      <trkpt lat="44.80747" lon="4.35182">
        <ele>1131.3</ele>
        <time>2022-06-09T09:52:27Z</time>
      </trkpt>
      <trkpt lat="44.8075" lon="4.35174">
        <ele>1131.1</ele>
        <time>2022-06-09T09:52:28Z</time>
      </trkpt>
      <trkpt lat="44.80754" lon="4.35164">
        <ele>1131</ele>
        <time>2022-06-09T09:52:29Z</time>
      </trkpt>
      <trkpt lat="44.80756" lon="4.35155">
        <ele>1130.8</ele>
        <time>2022-06-09T09:52:30Z</time>
      </trkpt>
      <trkpt lat="44.80759" lon="4.35146">
        <ele>1130.6</ele>
        <time>2022-06-09T09:52:31Z</time>
      </trkpt>
      <trkpt lat="44.80762" lon="4.35137">
        <ele>1130.4</ele>
        <time>2022-06-09T09:52:32Z</time>
      </trkpt>
      <trkpt lat="44.80765" lon="4.35129">
        <ele>1130.3</ele>
        <time>2022-06-09T09:52:33Z</time>
      </trkpt>
      <trkpt lat="44.80768" lon="4.3512">
        <ele>1130.1</ele>
        <time>2022-06-09T09:52:34Z</time>
      </trkpt>
      <trkpt lat="44.80771" lon="4.35111">
        <ele>1129.8</ele>
        <time>2022-06-09T09:52:35Z</time>
      </trkpt>
      <trkpt lat="44.80774" lon="4.35102">
        <ele>1129.6</ele>
        <time>2022-06-09T09:52:36Z</time>
      </trkpt>
      <trkpt lat="44.80777" lon="4.35093">
        <ele>1129.4</ele>
        <time>2022-06-09T09:52:37Z</time>
      </trkpt>
      <trkpt lat="44.8078" lon="4.35084">
        <ele>1129.2</ele>
        <time>2022-06-09T09:52:38Z</time>
      </trkpt>
      <trkpt lat="44.80783" lon="4.35075">
        <ele>1129</ele>
        <time>2022-06-09T09:52:39Z</time>
      </trkpt>
      <trkpt lat="44.80787" lon="4.35066">
        <ele>1128.7</ele>
        <time>2022-06-09T09:52:40Z</time>
      </trkpt>
      <trkpt lat="44.8079" lon="4.35057">
        <ele>1128.5</ele>
        <time>2022-06-09T09:52:41Z</time>
      </trkpt>
      <trkpt lat="44.80794" lon="4.35048">
        <ele>1128.3</ele>
        <time>2022-06-09T09:52:42Z</time>
      </trkpt>
      <trkpt lat="44.80797" lon="4.35039">
        <ele>1128</ele>
        <time>2022-06-09T09:52:43Z</time>
      </trkpt>
      <trkpt lat="44.808" lon="4.3503">
        <ele>1127.8</ele>
        <time>2022-06-09T09:52:44Z</time>
      </trkpt>
      <trkpt lat="44.80803" lon="4.35021">
        <ele>1127.6</ele>
        <time>2022-06-09T09:52:45Z</time>
      </trkpt>
      <trkpt lat="44.80807" lon="4.35012">
        <ele>1127.4</ele>
        <time>2022-06-09T09:52:46Z</time>
      </trkpt>
      <trkpt lat="44.8081" lon="4.35002">
        <ele>1127.1</ele>
        <time>2022-06-09T09:52:47Z</time>
      </trkpt>
      <trkpt lat="44.80813" lon="4.34993">
        <ele>1126.9</ele>
        <time>2022-06-09T09:52:48Z</time>
      </trkpt>
      <trkpt lat="44.80816" lon="4.34983">
        <ele>1126.7</ele>
        <time>2022-06-09T09:52:49Z</time>
      </trkpt>
      <trkpt lat="44.80818" lon="4.34973">
        <ele>1126.5</ele>
        <time>2022-06-09T09:52:50Z</time>
      </trkpt>
      <trkpt lat="44.80818" lon="4.34964">
        <ele>1126.2</ele>
        <time>2022-06-09T09:52:51Z</time>
      </trkpt>
      <trkpt lat="44.80818" lon="4.34954">
        <ele>1126</ele>
        <time>2022-06-09T09:52:52Z</time>
      </trkpt>
      <trkpt lat="44.80818" lon="4.34944">
        <ele>1125.8</ele>
        <time>2022-06-09T09:52:53Z</time>
      </trkpt>
      <trkpt lat="44.80817" lon="4.34935">
        <ele>1125.5</ele>
        <time>2022-06-09T09:52:54Z</time>
      </trkpt>
      <trkpt lat="44.80815" lon="4.34926">
        <ele>1125.3</ele>
        <time>2022-06-09T09:52:55Z</time>
      </trkpt>
      <trkpt lat="44.80814" lon="4.34918">
        <ele>1125.1</ele>
        <time>2022-06-09T09:52:56Z</time>
      </trkpt>
      <trkpt lat="44.80812" lon="4.34909">
        <ele>1124.9</ele>
        <time>2022-06-09T09:52:57Z</time>
      </trkpt>
      <trkpt lat="44.8081" lon="4.34901">
        <ele>1124.7</ele>
        <time>2022-06-09T09:52:58Z</time>
      </trkpt>
      <trkpt lat="44.80809" lon="4.34893">
        <ele>1124.5</ele>
        <time>2022-06-09T09:52:59Z</time>
      </trkpt>
      <trkpt lat="44.80808" lon="4.34886">
        <ele>1124.3</ele>
        <time>2022-06-09T09:53:00Z</time>
      </trkpt>
      <trkpt lat="44.80807" lon="4.3488">
        <ele>1122.7</ele>
        <time>2022-06-09T09:53:01Z</time>
      </trkpt>
      <trkpt lat="44.80806" lon="4.34875">
        <ele>1122.7</ele>
        <time>2022-06-09T09:53:02Z</time>
      </trkpt>
      <trkpt lat="44.80805" lon="4.3487">
        <ele>1122.7</ele>
        <time>2022-06-09T09:53:03Z</time>
      </trkpt>
      <trkpt lat="44.80804" lon="4.34866">
        <ele>1122.7</ele>
        <time>2022-06-09T09:53:04Z</time>
      </trkpt>
      <trkpt lat="44.80803" lon="4.34862">
        <ele>1123.4</ele>
        <time>2022-06-09T09:53:05Z</time>
      </trkpt>
      <trkpt lat="44.80803" lon="4.3486">
        <ele>1123.5</ele>
        <time>2022-06-09T09:53:06Z</time>
      </trkpt>
      <trkpt lat="44.80803" lon="4.34856">
        <ele>1123.5</ele>
        <time>2022-06-09T09:53:07Z</time>
      </trkpt>
      <trkpt lat="44.80804" lon="4.34855">
        <ele>1123.6</ele>
        <time>2022-06-09T09:53:08Z</time>
      </trkpt>
      <trkpt lat="44.80807" lon="4.34855">
        <ele>1123.6</ele>
        <time>2022-06-09T09:53:09Z</time>
      </trkpt>
      <trkpt lat="44.80808" lon="4.34856">
        <ele>1123.7</ele>
        <time>2022-06-09T09:53:10Z</time>
      </trkpt>
      <trkpt lat="44.80809" lon="4.34857">
        <ele>1123.7</ele>
        <time>2022-06-09T09:53:11Z</time>
      </trkpt>
      <trkpt lat="44.8081" lon="4.34858">
        <ele>1123.7</ele>
        <time>2022-06-09T09:53:12Z</time>
      </trkpt>
      <trkpt lat="44.8081" lon="4.34858">
        <ele>1123.7</ele>
        <time>2022-06-09T09:53:13Z</time>
      </trkpt>
      <trkpt lat="44.80811" lon="4.34859">
        <ele>1123.7</ele>
        <time>2022-06-09T09:53:14Z</time>
      </trkpt>
      <trkpt lat="44.80811" lon="4.34861">
        <ele>1123.8</ele>
        <time>2022-06-09T09:53:15Z</time>
      </trkpt>
      <trkpt lat="44.80812" lon="4.34864">
        <ele>1123.8</ele>
        <time>2022-06-09T09:53:16Z</time>
      </trkpt>
      <trkpt lat="44.80812" lon="4.34866">
        <ele>1123.9</ele>
        <time>2022-06-09T09:53:17Z</time>
      </trkpt>
      <trkpt lat="44.80812" lon="4.34868">
        <ele>1123.9</ele>
        <time>2022-06-09T09:53:18Z</time>
      </trkpt>
      <trkpt lat="44.80813" lon="4.34869">
        <ele>1123.9</ele>
        <time>2022-06-09T09:53:19Z</time>
      </trkpt>
      <trkpt lat="44.80813" lon="4.34871">
        <ele>1124</ele>
        <time>2022-06-09T09:53:20Z</time>
      </trkpt>
      <trkpt lat="44.80813" lon="4.34873">
        <ele>1124</ele>
        <time>2022-06-09T09:53:21Z</time>
      </trkpt>
      <trkpt lat="44.80813" lon="4.34876">
        <ele>1124</ele>
        <time>2022-06-09T09:53:22Z</time>
      </trkpt>
      <trkpt lat="44.80813" lon="4.34878">
        <ele>1124.1</ele>
        <time>2022-06-09T09:53:23Z</time>
      </trkpt>
      <trkpt lat="44.80814" lon="4.34881">
        <ele>1124.2</ele>
        <time>2022-06-09T09:53:24Z</time>
      </trkpt>
      <trkpt lat="44.80814" lon="4.34885">
        <ele>1124.2</ele>
        <time>2022-06-09T09:53:26Z</time>
      </trkpt>
      <trkpt lat="44.80815" lon="4.3489">
        <ele>1124.4</ele>
        <time>2022-06-09T09:53:27Z</time>
      </trkpt>
      <trkpt lat="44.80816" lon="4.34893">
        <ele>1124.5</ele>
        <time>2022-06-09T09:53:28Z</time>
      </trkpt>
      <trkpt lat="44.80817" lon="4.34896">
        <ele>1124.6</ele>
        <time>2022-06-09T09:53:30Z</time>
      </trkpt>
      <trkpt lat="44.80819" lon="4.34902">
        <ele>1124.8</ele>
        <time>2022-06-09T09:53:31Z</time>
      </trkpt>
      <trkpt lat="44.80821" lon="4.34908">
        <ele>1125.1</ele>
        <time>2022-06-09T09:53:33Z</time>
      </trkpt>
      <trkpt lat="44.80822" lon="4.34911">
        <ele>1125.2</ele>
        <time>2022-06-09T09:53:34Z</time>
      </trkpt>
      <trkpt lat="44.80823" lon="4.34916">
        <ele>1125.3</ele>
        <time>2022-06-09T09:53:35Z</time>
      </trkpt>
      <trkpt lat="44.80825" lon="4.3492">
        <ele>1125.5</ele>
        <time>2022-06-09T09:53:37Z</time>
      </trkpt>
      <trkpt lat="44.80826" lon="4.34924">
        <ele>1125.6</ele>
        <time>2022-06-09T09:53:38Z</time>
      </trkpt>
      <trkpt lat="44.80827" lon="4.34928">
        <ele>1125.8</ele>
        <time>2022-06-09T09:53:39Z</time>
      </trkpt>
      <trkpt lat="44.80828" lon="4.34932">
        <ele>1125.9</ele>
        <time>2022-06-09T09:53:40Z</time>
      </trkpt>
      <trkpt lat="44.80829" lon="4.34936">
        <ele>1126</ele>
        <time>2022-06-09T09:53:41Z</time>
      </trkpt>
      <trkpt lat="44.8083" lon="4.3494">
        <ele>1126.2</ele>
        <time>2022-06-09T09:53:42Z</time>
      </trkpt>
      <trkpt lat="44.80831" lon="4.34947">
        <ele>1126.4</ele>
        <time>2022-06-09T09:53:43Z</time>
      </trkpt>
      <trkpt lat="44.80832" lon="4.34951">
        <ele>1126.6</ele>
        <time>2022-06-09T09:53:45Z</time>
      </trkpt>
      <trkpt lat="44.80833" lon="4.34955">
        <ele>1126.7</ele>
        <time>2022-06-09T09:53:46Z</time>
      </trkpt>
      <trkpt lat="44.80835" lon="4.3496">
        <ele>1126.9</ele>
        <time>2022-06-09T09:53:47Z</time>
      </trkpt>
      <trkpt lat="44.80835" lon="4.34961">
        <ele>1126.9</ele>
        <time>2022-06-09T09:53:48Z</time>
      </trkpt>
      <trkpt lat="44.80836" lon="4.34967">
        <ele>1127.1</ele>
        <time>2022-06-09T09:53:49Z</time>
      </trkpt>
      <trkpt lat="44.80837" lon="4.34968">
        <ele>1127.2</ele>
        <time>2022-06-09T09:53:50Z</time>
      </trkpt>
      <trkpt lat="44.80837" lon="4.34974">
        <ele>1127.4</ele>
        <time>2022-06-09T09:53:51Z</time>
      </trkpt>
      <trkpt lat="44.80838" lon="4.34975">
        <ele>1127.5</ele>
        <time>2022-06-09T09:53:52Z</time>
      </trkpt>
      <trkpt lat="44.80839" lon="4.3498">
        <ele>1127.7</ele>
        <time>2022-06-09T09:53:53Z</time>
      </trkpt>
      <trkpt lat="44.80839" lon="4.34982">
        <ele>1127.7</ele>
        <time>2022-06-09T09:53:54Z</time>
      </trkpt>
      <trkpt lat="44.8084" lon="4.34987">
        <ele>1127.9</ele>
        <time>2022-06-09T09:53:55Z</time>
      </trkpt>
      <trkpt lat="44.80839" lon="4.34989">
        <ele>1128</ele>
        <time>2022-06-09T09:53:56Z</time>
      </trkpt>
      <trkpt lat="44.80839" lon="4.34993">
        <ele>1128.2</ele>
        <time>2022-06-09T09:53:57Z</time>
      </trkpt>
      <trkpt lat="44.80839" lon="4.34995">
        <ele>1128.2</ele>
        <time>2022-06-09T09:53:58Z</time>
      </trkpt>
      <trkpt lat="44.80839" lon="4.34998">
        <ele>1128.4</ele>
        <time>2022-06-09T09:53:59Z</time>
      </trkpt>
      <trkpt lat="44.80839" lon="4.35">
        <ele>1128.4</ele>
        <time>2022-06-09T09:54:00Z</time>
      </trkpt>
      <trkpt lat="44.80839" lon="4.35002">
        <ele>1128.5</ele>
        <time>2022-06-09T09:54:01Z</time>
      </trkpt>
      <trkpt lat="44.80839" lon="4.35005">
        <ele>1128.6</ele>
        <time>2022-06-09T09:54:02Z</time>
      </trkpt>
      <trkpt lat="44.80839" lon="4.35007">
        <ele>1128.7</ele>
        <time>2022-06-09T09:54:03Z</time>
      </trkpt>
      <trkpt lat="44.80838" lon="4.3501">
        <ele>1128.8</ele>
        <time>2022-06-09T09:54:04Z</time>
      </trkpt>
      <trkpt lat="44.80837" lon="4.35014">
        <ele>1129</ele>
        <time>2022-06-09T09:54:05Z</time>
      </trkpt>
      <trkpt lat="44.80836" lon="4.35015">
        <ele>1129.1</ele>
        <time>2022-06-09T09:54:06Z</time>
      </trkpt>
      <trkpt lat="44.80835" lon="4.35018">
        <ele>1129.2</ele>
        <time>2022-06-09T09:54:07Z</time>
      </trkpt>
      <trkpt lat="44.80835" lon="4.35021">
        <ele>1129.3</ele>
        <time>2022-06-09T09:54:09Z</time>
      </trkpt>
      <trkpt lat="44.80834" lon="4.35024">
        <ele>1129.4</ele>
        <time>2022-06-09T09:54:10Z</time>
      </trkpt>
      <trkpt lat="44.80834" lon="4.35025">
        <ele>1129.5</ele>
        <time>2022-06-09T09:54:11Z</time>
      </trkpt>
      <trkpt lat="44.80833" lon="4.35027">
        <ele>1129.6</ele>
        <time>2022-06-09T09:54:12Z</time>
      </trkpt>
      <trkpt lat="44.80832" lon="4.35029">
        <ele>1129.7</ele>
        <time>2022-06-09T09:54:13Z</time>
      </trkpt>
      <trkpt lat="44.8083" lon="4.35034">
        <ele>1129.9</ele>
        <time>2022-06-09T09:54:15Z</time>
      </trkpt>
      <trkpt lat="44.80829" lon="4.35036">
        <ele>1130</ele>
        <time>2022-06-09T09:54:16Z</time>
      </trkpt>
      <trkpt lat="44.80829" lon="4.35038">
        <ele>1130.1</ele>
        <time>2022-06-09T09:54:17Z</time>
      </trkpt>
      <trkpt lat="44.80827" lon="4.35041">
        <ele>1130.2</ele>
        <time>2022-06-09T09:54:18Z</time>
      </trkpt>
      <trkpt lat="44.80827" lon="4.35042">
        <ele>1130.3</ele>
        <time>2022-06-09T09:54:19Z</time>
      </trkpt>
      <trkpt lat="44.80825" lon="4.35046">
        <ele>1130.5</ele>
        <time>2022-06-09T09:54:20Z</time>
      </trkpt>
      <trkpt lat="44.80824" lon="4.35047">
        <ele>1130.5</ele>
        <time>2022-06-09T09:54:21Z</time>
      </trkpt>
      <trkpt lat="44.80823" lon="4.35051">
        <ele>1130.7</ele>
        <time>2022-06-09T09:54:22Z</time>
      </trkpt>
      <trkpt lat="44.80822" lon="4.35052">
        <ele>1130.7</ele>
        <time>2022-06-09T09:54:23Z</time>
      </trkpt>
      <trkpt lat="44.8082" lon="4.35056">
        <ele>1130.9</ele>
        <time>2022-06-09T09:54:25Z</time>
      </trkpt>
      <trkpt lat="44.8082" lon="4.35057">
        <ele>1131</ele>
        <time>2022-06-09T09:54:26Z</time>
      </trkpt>
      <trkpt lat="44.80819" lon="4.35059">
        <ele>1131.1</ele>
        <time>2022-06-09T09:54:27Z</time>
      </trkpt>
      <trkpt lat="44.80818" lon="4.35061">
        <ele>1131.2</ele>
        <time>2022-06-09T09:54:28Z</time>
      </trkpt>
      <trkpt lat="44.80817" lon="4.35063">
        <ele>1131.3</ele>
        <time>2022-06-09T09:54:29Z</time>
      </trkpt>
      <trkpt lat="44.80817" lon="4.35065">
        <ele>1131.4</ele>
        <time>2022-06-09T09:54:30Z</time>
      </trkpt>
      <trkpt lat="44.80816" lon="4.35066">
        <ele>1131.4</ele>
        <time>2022-06-09T09:54:31Z</time>
      </trkpt>
      <trkpt lat="44.80816" lon="4.35069">
        <ele>1131.5</ele>
        <time>2022-06-09T09:54:32Z</time>
      </trkpt>
      <trkpt lat="44.80815" lon="4.35072">
        <ele>1131.7</ele>
        <time>2022-06-09T09:54:34Z</time>
      </trkpt>
      <trkpt lat="44.80814" lon="4.35074">
        <ele>1131.8</ele>
        <time>2022-06-09T09:54:35Z</time>
      </trkpt>
      <trkpt lat="44.80814" lon="4.35076">
        <ele>1131.9</ele>
        <time>2022-06-09T09:54:36Z</time>
      </trkpt>
      <trkpt lat="44.80813" lon="4.35079">
        <ele>1132</ele>
        <time>2022-06-09T09:54:37Z</time>
      </trkpt>
      <trkpt lat="44.80812" lon="4.3508">
        <ele>1132.1</ele>
        <time>2022-06-09T09:54:38Z</time>
      </trkpt>
      <trkpt lat="44.80811" lon="4.35082">
        <ele>1132.2</ele>
        <time>2022-06-09T09:54:39Z</time>
      </trkpt>
      <trkpt lat="44.80809" lon="4.35086">
        <ele>1132.4</ele>
        <time>2022-06-09T09:54:40Z</time>
      </trkpt>
      <trkpt lat="44.80807" lon="4.3509">
        <ele>1132.6</ele>
        <time>2022-06-09T09:54:42Z</time>
      </trkpt>
      <trkpt lat="44.80807" lon="4.35092">
        <ele>1132.7</ele>
        <time>2022-06-09T09:54:44Z</time>
      </trkpt>
      <trkpt lat="44.80805" lon="4.35097">
        <ele>1133</ele>
        <time>2022-06-09T09:54:45Z</time>
      </trkpt>
      <trkpt lat="44.80804" lon="4.35101">
        <ele>1133.1</ele>
        <time>2022-06-09T09:54:47Z</time>
      </trkpt>
      <trkpt lat="44.80804" lon="4.35102">
        <ele>1133.2</ele>
        <time>2022-06-09T09:54:48Z</time>
      </trkpt>
      <trkpt lat="44.80803" lon="4.35106">
        <ele>1133.4</ele>
        <time>2022-06-09T09:54:49Z</time>
      </trkpt>
      <trkpt lat="44.80802" lon="4.35111">
        <ele>1133.6</ele>
        <time>2022-06-09T09:54:51Z</time>
      </trkpt>
      <trkpt lat="44.80801" lon="4.35114">
        <ele>1133.7</ele>
        <time>2022-06-09T09:54:52Z</time>
      </trkpt>
      <trkpt lat="44.808" lon="4.35116">
        <ele>1133.8</ele>
        <time>2022-06-09T09:54:54Z</time>
      </trkpt>
      <trkpt lat="44.808" lon="4.35118">
        <ele>1133.9</ele>
        <time>2022-06-09T09:54:55Z</time>
      </trkpt>
      <trkpt lat="44.80799" lon="4.3512">
        <ele>1134</ele>
        <time>2022-06-09T09:54:56Z</time>
      </trkpt>
      <trkpt lat="44.80799" lon="4.35123">
        <ele>1134.1</ele>
        <time>2022-06-09T09:54:57Z</time>
      </trkpt>
      <trkpt lat="44.80799" lon="4.35124">
        <ele>1134.1</ele>
        <time>2022-06-09T09:54:58Z</time>
      </trkpt>
      <trkpt lat="44.80798" lon="4.35125">
        <ele>1134.2</ele>
        <time>2022-06-09T09:54:59Z</time>
      </trkpt>
      <trkpt lat="44.80798" lon="4.35128">
        <ele>1134.3</ele>
        <time>2022-06-09T09:55:00Z</time>
      </trkpt>
      <trkpt lat="44.80798" lon="4.3513">
        <ele>1134.3</ele>
        <time>2022-06-09T09:55:01Z</time>
      </trkpt>
      <trkpt lat="44.80797" lon="4.35132">
        <ele>1134.4</ele>
        <time>2022-06-09T09:55:02Z</time>
      </trkpt>
      <trkpt lat="44.80796" lon="4.35134">
        <ele>1134.5</ele>
        <time>2022-06-09T09:55:03Z</time>
      </trkpt>
      <trkpt lat="44.80795" lon="4.35138">
        <ele>1134.7</ele>
        <time>2022-06-09T09:55:04Z</time>
      </trkpt>
      <trkpt lat="44.80795" lon="4.35139">
        <ele>1134.7</ele>
        <time>2022-06-09T09:55:05Z</time>
      </trkpt>
      <trkpt lat="44.80794" lon="4.35143">
        <ele>1134.9</ele>
        <time>2022-06-09T09:55:06Z</time>
      </trkpt>
      <trkpt lat="44.80794" lon="4.35144">
        <ele>1134.9</ele>
        <time>2022-06-09T09:55:07Z</time>
      </trkpt>
      <trkpt lat="44.80793" lon="4.35146">
        <ele>1135</ele>
        <time>2022-06-09T09:55:08Z</time>
      </trkpt>
      <trkpt lat="44.80793" lon="4.35149">
        <ele>1135.1</ele>
        <time>2022-06-09T09:55:09Z</time>
      </trkpt>
      <trkpt lat="44.80792" lon="4.35153">
        <ele>1135.2</ele>
        <time>2022-06-09T09:55:10Z</time>
      </trkpt>
      <trkpt lat="44.80792" lon="4.35154">
        <ele>1135.3</ele>
        <time>2022-06-09T09:55:11Z</time>
      </trkpt>
      <trkpt lat="44.80791" lon="4.35158">
        <ele>1135.4</ele>
        <time>2022-06-09T09:55:12Z</time>
      </trkpt>
      <trkpt lat="44.80791" lon="4.35159">
        <ele>1135.5</ele>
        <time>2022-06-09T09:55:13Z</time>
      </trkpt>
      <trkpt lat="44.8079" lon="4.35161">
        <ele>1135.6</ele>
        <time>2022-06-09T09:55:15Z</time>
      </trkpt>
      <trkpt lat="44.8079" lon="4.35167">
        <ele>1135.7</ele>
        <time>2022-06-09T09:55:17Z</time>
      </trkpt>
      <trkpt lat="44.8079" lon="4.35171">
        <ele>1135.9</ele>
        <time>2022-06-09T09:55:18Z</time>
      </trkpt>
      <trkpt lat="44.80789" lon="4.35179">
        <ele>1136.2</ele>
        <time>2022-06-09T09:55:20Z</time>
      </trkpt>
      <trkpt lat="44.80788" lon="4.35182">
        <ele>1136.3</ele>
        <time>2022-06-09T09:55:22Z</time>
      </trkpt>
      <trkpt lat="44.80788" lon="4.35187">
        <ele>1136.4</ele>
        <time>2022-06-09T09:55:23Z</time>
      </trkpt>
      <trkpt lat="44.80787" lon="4.35188">
        <ele>1136.5</ele>
        <time>2022-06-09T09:55:24Z</time>
      </trkpt>
      <trkpt lat="44.80787" lon="4.35193">
        <ele>1136.7</ele>
        <time>2022-06-09T09:55:25Z</time>
      </trkpt>
      <trkpt lat="44.80786" lon="4.35198">
        <ele>1136.8</ele>
        <time>2022-06-09T09:55:26Z</time>
      </trkpt>
      <trkpt lat="44.80785" lon="4.35199">
        <ele>1136.8</ele>
        <time>2022-06-09T09:55:27Z</time>
      </trkpt>
      <trkpt lat="44.80786" lon="4.35204">
        <ele>1137</ele>
        <time>2022-06-09T09:55:29Z</time>
      </trkpt>
      <trkpt lat="44.80786" lon="4.35208">
        <ele>1137.1</ele>
        <time>2022-06-09T09:55:30Z</time>
      </trkpt>
      <trkpt lat="44.80787" lon="4.35213">
        <ele>1137.2</ele>
        <time>2022-06-09T09:55:31Z</time>
      </trkpt>
      <trkpt lat="44.80787" lon="4.35218">
        <ele>1137.4</ele>
        <time>2022-06-09T09:55:33Z</time>
      </trkpt>
      <trkpt lat="44.80788" lon="4.3522">
        <ele>1137.4</ele>
        <time>2022-06-09T09:55:34Z</time>
      </trkpt>
      <trkpt lat="44.80786" lon="4.35223">
        <ele>1137.5</ele>
        <time>2022-06-09T09:55:36Z</time>
      </trkpt>
      <trkpt lat="44.80783" lon="4.35223">
        <ele>1137.6</ele>
        <time>2022-06-09T09:55:37Z</time>
      </trkpt>
      <trkpt lat="44.8078" lon="4.35225">
        <ele>1137.8</ele>
        <time>2022-06-09T09:55:38Z</time>
      </trkpt>
      <trkpt lat="44.80778" lon="4.35227">
        <ele>1137.9</ele>
        <time>2022-06-09T09:55:39Z</time>
      </trkpt>
      <trkpt lat="44.80777" lon="4.35228">
        <ele>1137.9</ele>
        <time>2022-06-09T09:55:40Z</time>
      </trkpt>
      <trkpt lat="44.80775" lon="4.35232">
        <ele>1138.1</ele>
        <time>2022-06-09T09:55:41Z</time>
      </trkpt>
      <trkpt lat="44.80774" lon="4.35233">
        <ele>1138.1</ele>
        <time>2022-06-09T09:55:42Z</time>
      </trkpt>
      <trkpt lat="44.80772" lon="4.35237">
        <ele>1138.3</ele>
        <time>2022-06-09T09:55:43Z</time>
      </trkpt>
      <trkpt lat="44.80772" lon="4.35238">
        <ele>1138.3</ele>
        <time>2022-06-09T09:55:44Z</time>
      </trkpt>
      <trkpt lat="44.80771" lon="4.35241">
        <ele>1138.5</ele>
        <time>2022-06-09T09:55:45Z</time>
      </trkpt>
      <trkpt lat="44.8077" lon="4.35242">
        <ele>1138.5</ele>
        <time>2022-06-09T09:55:46Z</time>
      </trkpt>
      <trkpt lat="44.80769" lon="4.35246">
        <ele>1138.7</ele>
        <time>2022-06-09T09:55:47Z</time>
      </trkpt>
      <trkpt lat="44.80768" lon="4.35247">
        <ele>1138.7</ele>
        <time>2022-06-09T09:55:48Z</time>
      </trkpt>
      <trkpt lat="44.80766" lon="4.35252">
        <ele>1139</ele>
        <time>2022-06-09T09:55:50Z</time>
      </trkpt>
      <trkpt lat="44.80765" lon="4.35254">
        <ele>1139</ele>
        <time>2022-06-09T09:55:51Z</time>
      </trkpt>
      <trkpt lat="44.80765" lon="4.35255">
        <ele>1139.1</ele>
        <time>2022-06-09T09:55:52Z</time>
      </trkpt>
      <trkpt lat="44.80762" lon="4.35259">
        <ele>1139.3</ele>
        <time>2022-06-09T09:55:54Z</time>
      </trkpt>
      <trkpt lat="44.80762" lon="4.3526">
        <ele>1139.4</ele>
        <time>2022-06-09T09:55:55Z</time>
      </trkpt>
      <trkpt lat="44.80761" lon="4.35264">
        <ele>1139.6</ele>
        <time>2022-06-09T09:55:56Z</time>
      </trkpt>
      <trkpt lat="44.80761" lon="4.35266">
        <ele>1139.7</ele>
        <time>2022-06-09T09:55:58Z</time>
      </trkpt>
      <trkpt lat="44.80761" lon="4.35271">
        <ele>1139.9</ele>
        <time>2022-06-09T09:56:00Z</time>
      </trkpt>
      <trkpt lat="44.80759" lon="4.35274">
        <ele>1140.2</ele>
        <time>2022-06-09T09:56:01Z</time>
      </trkpt>
      <trkpt lat="44.80758" lon="4.35274">
        <ele>1140.2</ele>
        <time>2022-06-09T09:56:03Z</time>
      </trkpt>
      <trkpt lat="44.80757" lon="4.35274">
        <ele>1140.3</ele>
        <time>2022-06-09T09:56:04Z</time>
      </trkpt>
      <trkpt lat="44.80756" lon="4.35275">
        <ele>1140.4</ele>
        <time>2022-06-09T09:56:05Z</time>
      </trkpt>
      <trkpt lat="44.80755" lon="4.35275">
        <ele>1140.5</ele>
        <time>2022-06-09T09:56:06Z</time>
      </trkpt>
      <trkpt lat="44.80755" lon="4.35277">
        <ele>1140.6</ele>
        <time>2022-06-09T09:56:07Z</time>
      </trkpt>
      <trkpt lat="44.80757" lon="4.35279">
        <ele>1140.6</ele>
        <time>2022-06-09T09:56:08Z</time>
      </trkpt>
      <trkpt lat="44.80759" lon="4.3528">
        <ele>1140.8</ele>
        <time>2022-06-09T09:56:10Z</time>
      </trkpt>
      <trkpt lat="44.8076" lon="4.35281">
        <ele>1140.8</ele>
        <time>2022-06-09T09:56:11Z</time>
      </trkpt>
      <trkpt lat="44.80762" lon="4.35282">
        <ele>1140.9</ele>
        <time>2022-06-09T09:56:12Z</time>
      </trkpt>
      <trkpt lat="44.80766" lon="4.35285">
        <ele>1141.1</ele>
        <time>2022-06-09T09:56:14Z</time>
      </trkpt>
      <trkpt lat="44.80769" lon="4.35289">
        <ele>1141.2</ele>
        <time>2022-06-09T09:56:15Z</time>
      </trkpt>
      <trkpt lat="44.80771" lon="4.3529">
        <ele>1141.3</ele>
        <time>2022-06-09T09:56:16Z</time>
      </trkpt>
      <trkpt lat="44.80773" lon="4.35291">
        <ele>1141.4</ele>
        <time>2022-06-09T09:56:18Z</time>
      </trkpt>
      <trkpt lat="44.80776" lon="4.35293">
        <ele>1141.5</ele>
        <time>2022-06-09T09:56:19Z</time>
      </trkpt>
      <trkpt lat="44.80777" lon="4.35294">
        <ele>1141.5</ele>
        <time>2022-06-09T09:56:20Z</time>
      </trkpt>
      <trkpt lat="44.80779" lon="4.35297">
        <ele>1141.6</ele>
        <time>2022-06-09T09:56:21Z</time>
      </trkpt>
      <trkpt lat="44.80779" lon="4.35297">
        <ele>1141.7</ele>
        <time>2022-06-09T09:56:22Z</time>
      </trkpt>
      <trkpt lat="44.80781" lon="4.353">
        <ele>1141.7</ele>
        <time>2022-06-09T09:56:23Z</time>
      </trkpt>
      <trkpt lat="44.80782" lon="4.35301">
        <ele>1141.8</ele>
        <time>2022-06-09T09:56:24Z</time>
      </trkpt>
      <trkpt lat="44.80785" lon="4.35303">
        <ele>1141.9</ele>
        <time>2022-06-09T09:56:25Z</time>
      </trkpt>
      <trkpt lat="44.80785" lon="4.35303">
        <ele>1141.9</ele>
        <time>2022-06-09T09:56:26Z</time>
      </trkpt>
      <trkpt lat="44.80788" lon="4.35305">
        <ele>1141.9</ele>
        <time>2022-06-09T09:56:27Z</time>
      </trkpt>
      <trkpt lat="44.80789" lon="4.35305">
        <ele>1141.9</ele>
        <time>2022-06-09T09:56:28Z</time>
      </trkpt>
      <trkpt lat="44.80792" lon="4.35307">
        <ele>1141.9</ele>
        <time>2022-06-09T09:56:29Z</time>
      </trkpt>
      <trkpt lat="44.80793" lon="4.35307">
        <ele>1141.9</ele>
        <time>2022-06-09T09:56:30Z</time>
      </trkpt>
      <trkpt lat="44.80795" lon="4.35309">
        <ele>1142</ele>
        <time>2022-06-09T09:56:31Z</time>
      </trkpt>
      <trkpt lat="44.80796" lon="4.35309">
        <ele>1142</ele>
        <time>2022-06-09T09:56:32Z</time>
      </trkpt>
      <trkpt lat="44.80799" lon="4.35311">
        <ele>1142</ele>
        <time>2022-06-09T09:56:33Z</time>
      </trkpt>
      <trkpt lat="44.80799" lon="4.35311">
        <ele>1142</ele>
        <time>2022-06-09T09:56:34Z</time>
      </trkpt>
      <trkpt lat="44.80801" lon="4.35309">
        <ele>1142</ele>
        <time>2022-06-09T09:56:35Z</time>
      </trkpt>
      <trkpt lat="44.80801" lon="4.35307">
        <ele>1142</ele>
        <time>2022-06-09T09:56:36Z</time>
      </trkpt>
      <trkpt lat="44.80801" lon="4.35306">
        <ele>1142</ele>
        <time>2022-06-09T09:56:37Z</time>
      </trkpt>
      <trkpt lat="44.80799" lon="4.35304">
        <ele>1142</ele>
        <time>2022-06-09T09:56:38Z</time>
      </trkpt>
      <trkpt lat="44.80797" lon="4.35303">
        <ele>1142</ele>
        <time>2022-06-09T09:56:40Z</time>
      </trkpt>
      <trkpt lat="44.80796" lon="4.35303">
        <ele>1142</ele>
        <time>2022-06-09T09:56:41Z</time>
      </trkpt>
      <trkpt lat="44.80795" lon="4.35302">
        <ele>1142</ele>
        <time>2022-06-09T09:56:42Z</time>
      </trkpt>
      <trkpt lat="44.80795" lon="4.35301">
        <ele>1142</ele>
        <time>2022-06-09T09:56:43Z</time>
      </trkpt>
      <trkpt lat="44.80795" lon="4.35301">
        <ele>1142</ele>
        <time>2022-06-09T09:56:44Z</time>
      </trkpt>
      <trkpt lat="44.80795" lon="4.35301">
        <ele>1142</ele>
        <time>2022-06-09T09:56:45Z</time>
      </trkpt>
      <trkpt lat="44.80795" lon="4.353">
        <ele>1142</ele>
        <time>2022-06-09T09:56:46Z</time>
      </trkpt>
      <trkpt lat="44.80795" lon="4.353">
        <ele>1142</ele>
        <time>2022-06-09T09:56:47Z</time>
      </trkpt>
      <trkpt lat="44.80795" lon="4.353">
        <ele>1142.1</ele>
        <time>2022-06-09T09:56:48Z</time>
      </trkpt>
      <trkpt lat="44.80795" lon="4.353">
        <ele>1142.1</ele>
        <time>2022-06-09T09:56:49Z</time>
      </trkpt>
      <trkpt lat="44.80795" lon="4.353">
        <ele>1142.1</ele>
        <time>2022-06-09T09:56:50Z</time>
      </trkpt>
      <trkpt lat="44.80795" lon="4.35299">
        <ele>1142.1</ele>
        <time>2022-06-09T09:56:51Z</time>
      </trkpt>
      <trkpt lat="44.80795" lon="4.35299">
        <ele>1142.1</ele>
        <time>2022-06-09T09:56:52Z</time>
      </trkpt>
      <trkpt lat="44.80795" lon="4.35299">
        <ele>1142.1</ele>
        <time>2022-06-09T09:56:53Z</time>
      </trkpt>
      <trkpt lat="44.80795" lon="4.35299">
        <ele>1142.1</ele>
        <time>2022-06-09T09:56:54Z</time>
      </trkpt>
      <trkpt lat="44.80795" lon="4.35299">
        <ele>1142.1</ele>
        <time>2022-06-09T09:56:55Z</time>
      </trkpt>
      <trkpt lat="44.80795" lon="4.35299">
        <ele>1142.1</ele>
        <time>2022-06-09T09:56:56Z</time>
      </trkpt>
      <trkpt lat="44.80792" lon="4.35298">
        <ele>1142.1</ele>
        <time>2022-06-09T09:58:33Z</time>
      </trkpt>
      <trkpt lat="44.80791" lon="4.35297">
        <ele>1140.6</ele>
        <time>2022-06-09T09:58:34Z</time>
      </trkpt>
      <trkpt lat="44.80789" lon="4.35296">
        <ele>1140.5</ele>
        <time>2022-06-09T09:58:36Z</time>
      </trkpt>
      <trkpt lat="44.80788" lon="4.35296">
        <ele>1140.5</ele>
        <time>2022-06-09T09:58:37Z</time>
      </trkpt>
      <trkpt lat="44.80788" lon="4.35296">
        <ele>1140.5</ele>
        <time>2022-06-09T09:58:38Z</time>
      </trkpt>
      <trkpt lat="44.80788" lon="4.35296">
        <ele>1140.5</ele>
        <time>2022-06-09T09:58:39Z</time>
      </trkpt>
      <trkpt lat="44.80788" lon="4.35296">
        <ele>1140.4</ele>
        <time>2022-06-09T09:58:41Z</time>
      </trkpt>
      <trkpt lat="44.80789" lon="4.35296">
        <ele>1140.4</ele>
        <time>2022-06-09T09:58:42Z</time>
      </trkpt>
      <trkpt lat="44.80789" lon="4.35295">
        <ele>1140.4</ele>
        <time>2022-06-09T09:58:44Z</time>
      </trkpt>
      <trkpt lat="44.8079" lon="4.35295">
        <ele>1140.3</ele>
        <time>2022-06-09T09:58:46Z</time>
      </trkpt>
      <trkpt lat="44.8079" lon="4.35295">
        <ele>1140.3</ele>
        <time>2022-06-09T09:58:47Z</time>
      </trkpt>
      <trkpt lat="44.8079" lon="4.35295">
        <ele>1140.3</ele>
        <time>2022-06-09T09:58:48Z</time>
      </trkpt>
      <trkpt lat="44.8079" lon="4.35295">
        <ele>1140.3</ele>
        <time>2022-06-09T09:58:49Z</time>
      </trkpt>
      <trkpt lat="44.80791" lon="4.35295">
        <ele>1140.3</ele>
        <time>2022-06-09T09:58:50Z</time>
      </trkpt>
      <trkpt lat="44.80791" lon="4.35294">
        <ele>1140.3</ele>
        <time>2022-06-09T09:58:51Z</time>
      </trkpt>
      <trkpt lat="44.80791" lon="4.35294">
        <ele>1140.3</ele>
        <time>2022-06-09T09:58:52Z</time>
      </trkpt>
      <trkpt lat="44.80791" lon="4.35294">
        <ele>1140.2</ele>
        <time>2022-06-09T09:58:53Z</time>
      </trkpt>
      <trkpt lat="44.80792" lon="4.35294">
        <ele>1140.2</ele>
        <time>2022-06-09T09:58:54Z</time>
      </trkpt>
      <trkpt lat="44.80792" lon="4.35294">
        <ele>1140.2</ele>
        <time>2022-06-09T10:02:34Z</time>
      </trkpt>
      <trkpt lat="44.80792" lon="4.35294">
        <ele>1140.2</ele>
        <time>2022-06-09T10:02:35Z</time>
      </trkpt>
      <trkpt lat="44.80793" lon="4.35294">
        <ele>1140.1</ele>
        <time>2022-06-09T10:02:36Z</time>
      </trkpt>
      <trkpt lat="44.80793" lon="4.35294">
        <ele>1140.1</ele>
        <time>2022-06-09T10:02:37Z</time>
      </trkpt>
      <trkpt lat="44.80794" lon="4.35294">
        <ele>1140.1</ele>
        <time>2022-06-09T10:02:38Z</time>
      </trkpt>
      <trkpt lat="44.80794" lon="4.35294">
        <ele>1140.1</ele>
        <time>2022-06-09T10:02:39Z</time>
      </trkpt>
      <trkpt lat="44.80794" lon="4.35294">
        <ele>1140</ele>
        <time>2022-06-09T10:02:40Z</time>
      </trkpt>
      <trkpt lat="44.80795" lon="4.35294">
        <ele>1140</ele>
        <time>2022-06-09T10:02:41Z</time>
      </trkpt>
      <trkpt lat="44.80795" lon="4.35294">
        <ele>1140</ele>
        <time>2022-06-09T10:02:42Z</time>
      </trkpt>
      <trkpt lat="44.80796" lon="4.35294">
        <ele>1139.9</ele>
        <time>2022-06-09T10:02:43Z</time>
      </trkpt>
      <trkpt lat="44.80796" lon="4.35294">
        <ele>1139.9</ele>
        <time>2022-06-09T10:02:44Z</time>
      </trkpt>
      <trkpt lat="44.80796" lon="4.35294">
        <ele>1139.9</ele>
        <time>2022-06-09T10:02:45Z</time>
      </trkpt>
      <trkpt lat="44.80797" lon="4.35294">
        <ele>1139.9</ele>
        <time>2022-06-09T10:02:46Z</time>
      </trkpt>
      <trkpt lat="44.80797" lon="4.35294">
        <ele>1139.8</ele>
        <time>2022-06-09T10:02:47Z</time>
      </trkpt>
      <trkpt lat="44.80798" lon="4.35293">
        <ele>1139.8</ele>
        <time>2022-06-09T10:02:48Z</time>
      </trkpt>
      <trkpt lat="44.80798" lon="4.35293">
        <ele>1139.8</ele>
        <time>2022-06-09T10:02:49Z</time>
      </trkpt>
      <trkpt lat="44.80799" lon="4.35293">
        <ele>1139.8</ele>
        <time>2022-06-09T10:02:50Z</time>
      </trkpt>
      <trkpt lat="44.80799" lon="4.35293">
        <ele>1139.8</ele>
        <time>2022-06-09T10:02:51Z</time>
      </trkpt>
      <trkpt lat="44.80799" lon="4.35293">
        <ele>1139.7</ele>
        <time>2022-06-09T10:08:57Z</time>
      </trkpt>
      <trkpt lat="44.808" lon="4.35293">
        <ele>1139.7</ele>
        <time>2022-06-09T10:08:58Z</time>
      </trkpt>
      <trkpt lat="44.808" lon="4.35295">
        <ele>1139.6</ele>
        <time>2022-06-09T10:08:59Z</time>
      </trkpt>
      <trkpt lat="44.80799" lon="4.35295">
        <ele>1139.6</ele>
        <time>2022-06-09T10:09:01Z</time>
      </trkpt>
      <trkpt lat="44.80798" lon="4.35296">
        <ele>1139.5</ele>
        <time>2022-06-09T10:09:02Z</time>
      </trkpt>
      <trkpt lat="44.80798" lon="4.35296">
        <ele>1139.5</ele>
        <time>2022-06-09T10:09:03Z</time>
      </trkpt>
      <trkpt lat="44.80797" lon="4.35297">
        <ele>1139.5</ele>
        <time>2022-06-09T10:09:04Z</time>
      </trkpt>
      <trkpt lat="44.80797" lon="4.35297">
        <ele>1139.5</ele>
        <time>2022-06-09T10:09:06Z</time>
      </trkpt>
      <trkpt lat="44.80797" lon="4.35297">
        <ele>1139.5</ele>
        <time>2022-06-09T10:09:07Z</time>
      </trkpt>
      <trkpt lat="44.80797" lon="4.35297">
        <ele>1139.5</ele>
        <time>2022-06-09T10:09:08Z</time>
      </trkpt>
      <trkpt lat="44.80797" lon="4.35297">
        <ele>1139.4</ele>
        <time>2022-06-09T10:09:09Z</time>
      </trkpt>
      <trkpt lat="44.80797" lon="4.35298">
        <ele>1139.4</ele>
        <time>2022-06-09T10:09:10Z</time>
      </trkpt>
      <trkpt lat="44.80797" lon="4.35297">
        <ele>1139.4</ele>
        <time>2022-06-09T10:09:12Z</time>
      </trkpt>
      <trkpt lat="44.808" lon="4.35298">
        <ele>1139.2</ele>
        <time>2022-06-09T10:09:44Z</time>
      </trkpt>
      <trkpt lat="44.80801" lon="4.35298">
        <ele>1139.2</ele>
        <time>2022-06-09T10:09:45Z</time>
      </trkpt>
      <trkpt lat="44.80801" lon="4.35298">
        <ele>1139.2</ele>
        <time>2022-06-09T10:09:46Z</time>
      </trkpt>
      <trkpt lat="44.80801" lon="4.35298">
        <ele>1139.2</ele>
        <time>2022-06-09T10:09:47Z</time>
      </trkpt>
      <trkpt lat="44.80801" lon="4.35298">
        <ele>1139.2</ele>
        <time>2022-06-09T10:09:48Z</time>
      </trkpt>
      <trkpt lat="44.80801" lon="4.35298">
        <ele>1139.2</ele>
        <time>2022-06-09T10:09:49Z</time>
      </trkpt>
      <trkpt lat="44.80801" lon="4.35298">
        <ele>1139.2</ele>
        <time>2022-06-09T10:09:50Z</time>
      </trkpt>
      <trkpt lat="44.80801" lon="4.35298">
        <ele>1139.2</ele>
        <time>2022-06-09T10:09:51Z</time>
      </trkpt>
      <trkpt lat="44.80801" lon="4.35298">
        <ele>1139.2</ele>
        <time>2022-06-09T10:09:52Z</time>
      </trkpt>
      <trkpt lat="44.80801" lon="4.35298">
        <ele>1139.2</ele>
        <time>2022-06-09T10:09:53Z</time>
      </trkpt>
      <trkpt lat="44.80801" lon="4.35298">
        <ele>1139.2</ele>
        <time>2022-06-09T10:09:54Z</time>
      </trkpt>
      <trkpt lat="44.80801" lon="4.35298">
        <ele>1139.2</ele>
        <time>2022-06-09T10:09:55Z</time>
      </trkpt>
      <trkpt lat="44.80799" lon="4.35303">
        <ele>1139</ele>
        <time>2022-06-09T10:11:24Z</time>
      </trkpt>
      <trkpt lat="44.80798" lon="4.35305">
        <ele>1138.9</ele>
        <time>2022-06-09T10:11:26Z</time>
      </trkpt>
      <trkpt lat="44.80798" lon="4.35306">
        <ele>1138.9</ele>
        <time>2022-06-09T10:11:27Z</time>
      </trkpt>
      <trkpt lat="44.80798" lon="4.35307">
        <ele>1138.8</ele>
        <time>2022-06-09T10:11:28Z</time>
      </trkpt>
      <trkpt lat="44.80798" lon="4.35307">
        <ele>1138.8</ele>
        <time>2022-06-09T10:11:29Z</time>
      </trkpt>
      <trkpt lat="44.80798" lon="4.35307">
        <ele>1138.8</ele>
        <time>2022-06-09T10:11:30Z</time>
      </trkpt>
      <trkpt lat="44.80798" lon="4.35307">
        <ele>1138.8</ele>
        <time>2022-06-09T10:11:31Z</time>
      </trkpt>
      <trkpt lat="44.80798" lon="4.35307">
        <ele>1138.8</ele>
        <time>2022-06-09T10:11:32Z</time>
      </trkpt>
      <trkpt lat="44.80798" lon="4.35307">
        <ele>1138.8</ele>
        <time>2022-06-09T10:11:33Z</time>
      </trkpt>
      <trkpt lat="44.80798" lon="4.35307">
        <ele>1138.8</ele>
        <time>2022-06-09T10:11:34Z</time>
      </trkpt>
      <trkpt lat="44.80798" lon="4.35307">
        <ele>1138.8</ele>
        <time>2022-06-09T10:11:35Z</time>
      </trkpt>
      <trkpt lat="44.80798" lon="4.35307">
        <ele>1138.8</ele>
        <time>2022-06-09T10:11:36Z</time>
      </trkpt>
      <trkpt lat="44.80798" lon="4.35308">
        <ele>1138.8</ele>
        <time>2022-06-09T10:11:37Z</time>
      </trkpt>
      <trkpt lat="44.80798" lon="4.35308">
        <ele>1138.8</ele>
        <time>2022-06-09T10:11:38Z</time>
      </trkpt>
      <trkpt lat="44.80798" lon="4.35308">
        <ele>1138.8</ele>
        <time>2022-06-09T10:11:39Z</time>
      </trkpt>
      <trkpt lat="44.80798" lon="4.35308">
        <ele>1138.8</ele>
        <time>2022-06-09T10:11:40Z</time>
      </trkpt>
      <trkpt lat="44.80798" lon="4.35308">
        <ele>1138.8</ele>
        <time>2022-06-09T10:11:41Z</time>
      </trkpt>
      <trkpt lat="44.80797" lon="4.35302">
        <ele>1138.6</ele>
        <time>2022-06-09T10:12:27Z</time>
      </trkpt>
      <trkpt lat="44.80796" lon="4.35301">
        <ele>1138.6</ele>
        <time>2022-06-09T10:12:28Z</time>
      </trkpt>
      <trkpt lat="44.80796" lon="4.353">
        <ele>1138.5</ele>
        <time>2022-06-09T10:12:29Z</time>
      </trkpt>
      <trkpt lat="44.80796" lon="4.353">
        <ele>1138.5</ele>
        <time>2022-06-09T10:12:30Z</time>
      </trkpt>
      <trkpt lat="44.80796" lon="4.353">
        <ele>1138.5</ele>
        <time>2022-06-09T10:12:32Z</time>
      </trkpt>
      <trkpt lat="44.80796" lon="4.353">
        <ele>1138.5</ele>
        <time>2022-06-09T10:12:33Z</time>
      </trkpt>
      <trkpt lat="44.80796" lon="4.353">
        <ele>1138.5</ele>
        <time>2022-06-09T10:12:34Z</time>
      </trkpt>
      <trkpt lat="44.80796" lon="4.353">
        <ele>1138.5</ele>
        <time>2022-06-09T10:12:35Z</time>
      </trkpt>
      <trkpt lat="44.80795" lon="4.353">
        <ele>1138.5</ele>
        <time>2022-06-09T10:12:36Z</time>
      </trkpt>
      <trkpt lat="44.80795" lon="4.353">
        <ele>1138.5</ele>
        <time>2022-06-09T10:12:37Z</time>
      </trkpt>
      <trkpt lat="44.80795" lon="4.353">
        <ele>1138.5</ele>
        <time>2022-06-09T10:12:38Z</time>
      </trkpt>
      <trkpt lat="44.80795" lon="4.353">
        <ele>1138.4</ele>
        <time>2022-06-09T10:12:39Z</time>
      </trkpt>
      <trkpt lat="44.80795" lon="4.353">
        <ele>1138.4</ele>
        <time>2022-06-09T10:12:40Z</time>
      </trkpt>
      <trkpt lat="44.80794" lon="4.35299">
        <ele>1138.4</ele>
        <time>2022-06-09T10:12:42Z</time>
      </trkpt>
      <trkpt lat="44.80794" lon="4.35299">
        <ele>1138.4</ele>
        <time>2022-06-09T10:12:43Z</time>
      </trkpt>
      <trkpt lat="44.80794" lon="4.35299">
        <ele>1138.4</ele>
        <time>2022-06-09T10:12:44Z</time>
      </trkpt>
      <trkpt lat="44.80794" lon="4.35299">
        <ele>1138.4</ele>
        <time>2022-06-09T10:12:45Z</time>
      </trkpt>
      <trkpt lat="44.80794" lon="4.35299">
        <ele>1138.4</ele>
        <time>2022-06-09T10:12:46Z</time>
      </trkpt>
      <trkpt lat="44.80797" lon="4.35302">
        <ele>1138.2</ele>
        <time>2022-06-09T10:15:11Z</time>
      </trkpt>
      <trkpt lat="44.80797" lon="4.35302">
        <ele>1138.2</ele>
        <time>2022-06-09T10:15:12Z</time>
      </trkpt>
      <trkpt lat="44.80798" lon="4.35301">
        <ele>1138.2</ele>
        <time>2022-06-09T10:15:13Z</time>
      </trkpt>
      <trkpt lat="44.80798" lon="4.35301">
        <ele>1138.2</ele>
        <time>2022-06-09T10:15:14Z</time>
      </trkpt>
      <trkpt lat="44.80798" lon="4.35301">
        <ele>1138.2</ele>
        <time>2022-06-09T10:15:15Z</time>
      </trkpt>
      <trkpt lat="44.80798" lon="4.35301">
        <ele>1138.2</ele>
        <time>2022-06-09T10:15:16Z</time>
      </trkpt>
      <trkpt lat="44.80798" lon="4.35301">
        <ele>1138.2</ele>
        <time>2022-06-09T10:15:17Z</time>
      </trkpt>
      <trkpt lat="44.80798" lon="4.353">
        <ele>1138.1</ele>
        <time>2022-06-09T10:15:18Z</time>
      </trkpt>
      <trkpt lat="44.80799" lon="4.353">
        <ele>1138.1</ele>
        <time>2022-06-09T10:15:19Z</time>
      </trkpt>
      <trkpt lat="44.80799" lon="4.353">
        <ele>1138.1</ele>
        <time>2022-06-09T10:15:20Z</time>
      </trkpt>
      <trkpt lat="44.808" lon="4.35299">
        <ele>1138</ele>
        <time>2022-06-09T10:15:21Z</time>
      </trkpt>
      <trkpt lat="44.80802" lon="4.35297">
        <ele>1138</ele>
        <time>2022-06-09T10:15:22Z</time>
      </trkpt>
      <trkpt lat="44.80804" lon="4.35294">
        <ele>1137.9</ele>
        <time>2022-06-09T10:15:23Z</time>
      </trkpt>
      <trkpt lat="44.80806" lon="4.3529">
        <ele>1137.7</ele>
        <time>2022-06-09T10:15:24Z</time>
      </trkpt>
      <trkpt lat="44.80808" lon="4.35284">
        <ele>1137.6</ele>
        <time>2022-06-09T10:15:25Z</time>
      </trkpt>
      <trkpt lat="44.80811" lon="4.35273">
        <ele>1137.3</ele>
        <time>2022-06-09T10:15:26Z</time>
      </trkpt>
      <trkpt lat="44.80812" lon="4.35264">
        <ele>1137.1</ele>
        <time>2022-06-09T10:15:27Z</time>
      </trkpt>
      <trkpt lat="44.80812" lon="4.35253">
        <ele>1136.9</ele>
        <time>2022-06-09T10:15:28Z</time>
      </trkpt>
      <trkpt lat="44.80813" lon="4.35246">
        <ele>1136.7</ele>
        <time>2022-06-09T10:15:29Z</time>
      </trkpt>
      <trkpt lat="44.80813" lon="4.35241">
        <ele>1136.5</ele>
        <time>2022-06-09T10:15:30Z</time>
      </trkpt>
      <trkpt lat="44.80815" lon="4.35236">
        <ele>1136.4</ele>
        <time>2022-06-09T10:15:31Z</time>
      </trkpt>
      <trkpt lat="44.80814" lon="4.35232">
        <ele>1136.3</ele>
        <time>2022-06-09T10:15:32Z</time>
      </trkpt>
      <trkpt lat="44.80811" lon="4.3523">
        <ele>1136.2</ele>
        <time>2022-06-09T10:15:33Z</time>
      </trkpt>
      <trkpt lat="44.80804" lon="4.35225">
        <ele>1135.9</ele>
        <time>2022-06-09T10:15:34Z</time>
      </trkpt>
      <trkpt lat="44.80798" lon="4.35223">
        <ele>1135.6</ele>
        <time>2022-06-09T10:15:36Z</time>
      </trkpt>
      <trkpt lat="44.80793" lon="4.35219">
        <ele>1135.4</ele>
        <time>2022-06-09T10:15:37Z</time>
      </trkpt>
      <trkpt lat="44.80791" lon="4.35215">
        <ele>1135.2</ele>
        <time>2022-06-09T10:15:38Z</time>
      </trkpt>
      <trkpt lat="44.8079" lon="4.3521">
        <ele>1135</ele>
        <time>2022-06-09T10:15:40Z</time>
      </trkpt>
      <trkpt lat="44.8079" lon="4.35202">
        <ele>1134.8</ele>
        <time>2022-06-09T10:15:41Z</time>
      </trkpt>
      <trkpt lat="44.80791" lon="4.35197">
        <ele>1134.7</ele>
        <time>2022-06-09T10:15:43Z</time>
      </trkpt>
      <trkpt lat="44.80792" lon="4.35187">
        <ele>1134.4</ele>
        <time>2022-06-09T10:15:45Z</time>
      </trkpt>
      <trkpt lat="44.80793" lon="4.35178">
        <ele>1134.1</ele>
        <time>2022-06-09T10:15:46Z</time>
      </trkpt>
      <trkpt lat="44.80794" lon="4.3517">
        <ele>1133.8</ele>
        <time>2022-06-09T10:15:48Z</time>
      </trkpt>
      <trkpt lat="44.80796" lon="4.35162">
        <ele>1133.5</ele>
        <time>2022-06-09T10:15:49Z</time>
      </trkpt>
      <trkpt lat="44.80797" lon="4.35156">
        <ele>1133.3</ele>
        <time>2022-06-09T10:15:50Z</time>
      </trkpt>
      <trkpt lat="44.80797" lon="4.3515">
        <ele>1133.1</ele>
        <time>2022-06-09T10:15:51Z</time>
      </trkpt>
      <trkpt lat="44.80798" lon="4.35142">
        <ele>1132.8</ele>
        <time>2022-06-09T10:15:52Z</time>
      </trkpt>
      <trkpt lat="44.80799" lon="4.35134">
        <ele>1132.5</ele>
        <time>2022-06-09T10:15:53Z</time>
      </trkpt>
      <trkpt lat="44.808" lon="4.35127">
        <ele>1132.3</ele>
        <time>2022-06-09T10:15:54Z</time>
      </trkpt>
      <trkpt lat="44.80802" lon="4.35118">
        <ele>1131.9</ele>
        <time>2022-06-09T10:15:55Z</time>
      </trkpt>
      <trkpt lat="44.80804" lon="4.35111">
        <ele>1131.6</ele>
        <time>2022-06-09T10:15:56Z</time>
      </trkpt>
      <trkpt lat="44.80807" lon="4.35102">
        <ele>1131.3</ele>
        <time>2022-06-09T10:15:57Z</time>
      </trkpt>
      <trkpt lat="44.8081" lon="4.35094">
        <ele>1131</ele>
        <time>2022-06-09T10:15:58Z</time>
      </trkpt>
      <trkpt lat="44.80812" lon="4.35085">
        <ele>1130.7</ele>
        <time>2022-06-09T10:15:59Z</time>
      </trkpt>
      <trkpt lat="44.80815" lon="4.35076">
        <ele>1130.4</ele>
        <time>2022-06-09T10:16:00Z</time>
      </trkpt>
      <trkpt lat="44.80819" lon="4.35067">
        <ele>1130.1</ele>
        <time>2022-06-09T10:16:01Z</time>
      </trkpt>
      <trkpt lat="44.80822" lon="4.35058">
        <ele>1129.7</ele>
        <time>2022-06-09T10:16:02Z</time>
      </trkpt>
      <trkpt lat="44.80826" lon="4.35048">
        <ele>1129.4</ele>
        <time>2022-06-09T10:16:03Z</time>
      </trkpt>
      <trkpt lat="44.80829" lon="4.35038">
        <ele>1129</ele>
        <time>2022-06-09T10:16:04Z</time>
      </trkpt>
      <trkpt lat="44.80832" lon="4.35027">
        <ele>1128.6</ele>
        <time>2022-06-09T10:16:05Z</time>
      </trkpt>
      <trkpt lat="44.80835" lon="4.35017">
        <ele>1128.3</ele>
        <time>2022-06-09T10:16:06Z</time>
      </trkpt>
      <trkpt lat="44.80837" lon="4.35008">
        <ele>1127.9</ele>
        <time>2022-06-09T10:16:07Z</time>
      </trkpt>
      <trkpt lat="44.80839" lon="4.34999">
        <ele>1127.6</ele>
        <time>2022-06-09T10:16:08Z</time>
      </trkpt>
      <trkpt lat="44.80839" lon="4.34989">
        <ele>1127.3</ele>
        <time>2022-06-09T10:16:09Z</time>
      </trkpt>
      <trkpt lat="44.80838" lon="4.34979">
        <ele>1127</ele>
        <time>2022-06-09T10:16:10Z</time>
      </trkpt>
      <trkpt lat="44.80836" lon="4.34969">
        <ele>1126.7</ele>
        <time>2022-06-09T10:16:11Z</time>
      </trkpt>
      <trkpt lat="44.80833" lon="4.34959">
        <ele>1126.4</ele>
        <time>2022-06-09T10:16:12Z</time>
      </trkpt>
      <trkpt lat="44.8083" lon="4.3495">
        <ele>1126.1</ele>
        <time>2022-06-09T10:16:13Z</time>
      </trkpt>
      <trkpt lat="44.80827" lon="4.34942">
        <ele>1125.9</ele>
        <time>2022-06-09T10:16:14Z</time>
      </trkpt>
      <trkpt lat="44.80824" lon="4.34934">
        <ele>1125.7</ele>
        <time>2022-06-09T10:16:15Z</time>
      </trkpt>
      <trkpt lat="44.80822" lon="4.34926">
        <ele>1125.4</ele>
        <time>2022-06-09T10:16:16Z</time>
      </trkpt>
      <trkpt lat="44.80819" lon="4.34917">
        <ele>1125.2</ele>
        <time>2022-06-09T10:16:17Z</time>
      </trkpt>
      <trkpt lat="44.80817" lon="4.34908">
        <ele>1125</ele>
        <time>2022-06-09T10:16:18Z</time>
      </trkpt>
      <trkpt lat="44.80815" lon="4.349">
        <ele>1124.7</ele>
        <time>2022-06-09T10:16:19Z</time>
      </trkpt>
      <trkpt lat="44.80814" lon="4.34893">
        <ele>1124.5</ele>
        <time>2022-06-09T10:16:20Z</time>
      </trkpt>
      <trkpt lat="44.80812" lon="4.34884">
        <ele>1124.2</ele>
        <time>2022-06-09T10:16:21Z</time>
      </trkpt>
      <trkpt lat="44.80811" lon="4.34874">
        <ele>1123.9</ele>
        <time>2022-06-09T10:16:22Z</time>
      </trkpt>
      <trkpt lat="44.80809" lon="4.34866">
        <ele>1123.6</ele>
        <time>2022-06-09T10:16:23Z</time>
      </trkpt>
      <trkpt lat="44.80807" lon="4.34857">
        <ele>1123.4</ele>
        <time>2022-06-09T10:16:24Z</time>
      </trkpt>
      <trkpt lat="44.80806" lon="4.34849">
        <ele>1123.2</ele>
        <time>2022-06-09T10:16:25Z</time>
      </trkpt>
      <trkpt lat="44.80804" lon="4.34842">
        <ele>1123</ele>
        <time>2022-06-09T10:16:26Z</time>
      </trkpt>
      <trkpt lat="44.80801" lon="4.34835">
        <ele>1122.8</ele>
        <time>2022-06-09T10:16:27Z</time>
      </trkpt>
      <trkpt lat="44.80799" lon="4.34828">
        <ele>1122.4</ele>
        <time>2022-06-09T10:16:28Z</time>
      </trkpt>
      <trkpt lat="44.80797" lon="4.3482">
        <ele>1122.2</ele>
        <time>2022-06-09T10:16:29Z</time>
      </trkpt>
      <trkpt lat="44.80796" lon="4.34813">
        <ele>1122</ele>
        <time>2022-06-09T10:16:30Z</time>
      </trkpt>
      <trkpt lat="44.80794" lon="4.34805">
        <ele>1121.8</ele>
        <time>2022-06-09T10:16:31Z</time>
      </trkpt>
      <trkpt lat="44.80793" lon="4.34798">
        <ele>1121.5</ele>
        <time>2022-06-09T10:16:32Z</time>
      </trkpt>
      <trkpt lat="44.80791" lon="4.3479">
        <ele>1121.3</ele>
        <time>2022-06-09T10:16:33Z</time>
      </trkpt>
      <trkpt lat="44.80789" lon="4.34782">
        <ele>1121.1</ele>
        <time>2022-06-09T10:16:34Z</time>
      </trkpt>
      <trkpt lat="44.80788" lon="4.34774">
        <ele>1120.8</ele>
        <time>2022-06-09T10:16:35Z</time>
      </trkpt>
      <trkpt lat="44.80786" lon="4.34765">
        <ele>1120.6</ele>
        <time>2022-06-09T10:16:36Z</time>
      </trkpt>
      <trkpt lat="44.80784" lon="4.34757">
        <ele>1120.4</ele>
        <time>2022-06-09T10:16:37Z</time>
      </trkpt>
      <trkpt lat="44.80783" lon="4.34748">
        <ele>1120.2</ele>
        <time>2022-06-09T10:16:38Z</time>
      </trkpt>
      <trkpt lat="44.80781" lon="4.3474">
        <ele>1120.1</ele>
        <time>2022-06-09T10:16:39Z</time>
      </trkpt>
      <trkpt lat="44.8078" lon="4.34731">
        <ele>1119.9</ele>
        <time>2022-06-09T10:16:40Z</time>
      </trkpt>
      <trkpt lat="44.80779" lon="4.34722">
        <ele>1119.8</ele>
        <time>2022-06-09T10:16:41Z</time>
      </trkpt>
      <trkpt lat="44.80778" lon="4.34713">
        <ele>1119.7</ele>
        <time>2022-06-09T10:16:42Z</time>
      </trkpt>
      <trkpt lat="44.80778" lon="4.34705">
        <ele>1119.6</ele>
        <time>2022-06-09T10:16:43Z</time>
      </trkpt>
      <trkpt lat="44.80779" lon="4.34697">
        <ele>1119.5</ele>
        <time>2022-06-09T10:16:44Z</time>
      </trkpt>
      <trkpt lat="44.80779" lon="4.34689">
        <ele>1119.4</ele>
        <time>2022-06-09T10:16:45Z</time>
      </trkpt>
      <trkpt lat="44.80781" lon="4.34681">
        <ele>1119.3</ele>
        <time>2022-06-09T10:16:46Z</time>
      </trkpt>
      <trkpt lat="44.80782" lon="4.34674">
        <ele>1119.2</ele>
        <time>2022-06-09T10:16:47Z</time>
      </trkpt>
      <trkpt lat="44.80784" lon="4.34666">
        <ele>1119.2</ele>
        <time>2022-06-09T10:16:48Z</time>
      </trkpt>
      <trkpt lat="44.80786" lon="4.34659">
        <ele>1119.2</ele>
        <time>2022-06-09T10:16:49Z</time>
      </trkpt>
      <trkpt lat="44.80788" lon="4.34653">
        <ele>1119.2</ele>
        <time>2022-06-09T10:16:50Z</time>
      </trkpt>
      <trkpt lat="44.80792" lon="4.34646">
        <ele>1119.2</ele>
        <time>2022-06-09T10:16:51Z</time>
      </trkpt>
      <trkpt lat="44.80795" lon="4.34641">
        <ele>1119.2</ele>
        <time>2022-06-09T10:16:52Z</time>
      </trkpt>
      <trkpt lat="44.80797" lon="4.34635">
        <ele>1119.2</ele>
        <time>2022-06-09T10:16:53Z</time>
      </trkpt>
      <trkpt lat="44.80798" lon="4.34631">
        <ele>1119.3</ele>
        <time>2022-06-09T10:16:54Z</time>
      </trkpt>
      <trkpt lat="44.80799" lon="4.34627">
        <ele>1119.3</ele>
        <time>2022-06-09T10:16:55Z</time>
      </trkpt>
      <trkpt lat="44.80799" lon="4.34626">
        <ele>1119.3</ele>
        <time>2022-06-09T10:16:56Z</time>
      </trkpt>
      <trkpt lat="44.808" lon="4.34622">
        <ele>1119.3</ele>
        <time>2022-06-09T10:16:57Z</time>
      </trkpt>
      <trkpt lat="44.808" lon="4.3462">
        <ele>1119.3</ele>
        <time>2022-06-09T10:16:58Z</time>
      </trkpt>
      <trkpt lat="44.808" lon="4.34615">
        <ele>1119.3</ele>
        <time>2022-06-09T10:16:59Z</time>
      </trkpt>
      <trkpt lat="44.808" lon="4.34614">
        <ele>1119.3</ele>
        <time>2022-06-09T10:17:00Z</time>
      </trkpt>
      <trkpt lat="44.80799" lon="4.34609">
        <ele>1119.3</ele>
        <time>2022-06-09T10:17:01Z</time>
      </trkpt>
      <trkpt lat="44.80798" lon="4.34607">
        <ele>1119.3</ele>
        <time>2022-06-09T10:17:02Z</time>
      </trkpt>
      <trkpt lat="44.80795" lon="4.34601">
        <ele>1119.3</ele>
        <time>2022-06-09T10:17:03Z</time>
      </trkpt>
      <trkpt lat="44.80792" lon="4.34595">
        <ele>1119.3</ele>
        <time>2022-06-09T10:17:04Z</time>
      </trkpt>
      <trkpt lat="44.80788" lon="4.34586">
        <ele>1119.4</ele>
        <time>2022-06-09T10:17:06Z</time>
      </trkpt>
      <trkpt lat="44.80785" lon="4.34581">
        <ele>1119.4</ele>
        <time>2022-06-09T10:17:07Z</time>
      </trkpt>
      <trkpt lat="44.80779" lon="4.34572">
        <ele>1119.6</ele>
        <time>2022-06-09T10:17:08Z</time>
      </trkpt>
      <trkpt lat="44.80776" lon="4.34568">
        <ele>1119.7</ele>
        <time>2022-06-09T10:17:09Z</time>
      </trkpt>
      <trkpt lat="44.80773" lon="4.34562">
        <ele>1119.8</ele>
        <time>2022-06-09T10:17:11Z</time>
      </trkpt>
      <trkpt lat="44.80768" lon="4.34555">
        <ele>1120.1</ele>
        <time>2022-06-09T10:17:12Z</time>
      </trkpt>
      <trkpt lat="44.80763" lon="4.34548">
        <ele>1120.3</ele>
        <time>2022-06-09T10:17:14Z</time>
      </trkpt>
      <trkpt lat="44.80761" lon="4.34544">
        <ele>1120.4</ele>
        <time>2022-06-09T10:17:16Z</time>
      </trkpt>
      <trkpt lat="44.80758" lon="4.34539">
        <ele>1120.6</ele>
        <time>2022-06-09T10:17:17Z</time>
      </trkpt>
      <trkpt lat="44.80755" lon="4.34534">
        <ele>1120.8</ele>
        <time>2022-06-09T10:17:19Z</time>
      </trkpt>
      <trkpt lat="44.80753" lon="4.34532">
        <ele>1120.9</ele>
        <time>2022-06-09T10:17:20Z</time>
      </trkpt>
      <trkpt lat="44.80749" lon="4.34527">
        <ele>1121.2</ele>
        <time>2022-06-09T10:17:22Z</time>
      </trkpt>
      <trkpt lat="44.80747" lon="4.34523">
        <ele>1121.4</ele>
        <time>2022-06-09T10:17:23Z</time>
      </trkpt>
      <trkpt lat="44.80746" lon="4.34522">
        <ele>1121.5</ele>
        <time>2022-06-09T10:17:24Z</time>
      </trkpt>
      <trkpt lat="44.80744" lon="4.34518">
        <ele>1121.7</ele>
        <time>2022-06-09T10:17:25Z</time>
      </trkpt>
      <trkpt lat="44.80743" lon="4.34517">
        <ele>1121.7</ele>
        <time>2022-06-09T10:17:26Z</time>
      </trkpt>
      <trkpt lat="44.80741" lon="4.34514">
        <ele>1121.9</ele>
        <time>2022-06-09T10:17:27Z</time>
      </trkpt>
      <trkpt lat="44.80739" lon="4.34511">
        <ele>1122.1</ele>
        <time>2022-06-09T10:17:28Z</time>
      </trkpt>
      <trkpt lat="44.80738" lon="4.3451">
        <ele>1122.2</ele>
        <time>2022-06-09T10:17:29Z</time>
      </trkpt>
      <trkpt lat="44.80736" lon="4.34506">
        <ele>1122.4</ele>
        <time>2022-06-09T10:17:30Z</time>
      </trkpt>
      <trkpt lat="44.80735" lon="4.34505">
        <ele>1122.4</ele>
        <time>2022-06-09T10:17:31Z</time>
      </trkpt>
      <trkpt lat="44.80732" lon="4.34502">
        <ele>1122.6</ele>
        <time>2022-06-09T10:17:32Z</time>
      </trkpt>
      <trkpt lat="44.80732" lon="4.34501">
        <ele>1122.7</ele>
        <time>2022-06-09T10:17:33Z</time>
      </trkpt>
      <trkpt lat="44.8073" lon="4.34498">
        <ele>1122.9</ele>
        <time>2022-06-09T10:17:34Z</time>
      </trkpt>
      <trkpt lat="44.80729" lon="4.34497">
        <ele>1122.9</ele>
        <time>2022-06-09T10:17:35Z</time>
      </trkpt>
      <trkpt lat="44.80727" lon="4.34494">
        <ele>1123.1</ele>
        <time>2022-06-09T10:17:36Z</time>
      </trkpt>
      <trkpt lat="44.80726" lon="4.34493">
        <ele>1123.2</ele>
        <time>2022-06-09T10:17:37Z</time>
      </trkpt>
      <trkpt lat="44.80723" lon="4.34489">
        <ele>1123.4</ele>
        <time>2022-06-09T10:17:39Z</time>
      </trkpt>
      <trkpt lat="44.80721" lon="4.34487">
        <ele>1123.6</ele>
        <time>2022-06-09T10:17:40Z</time>
      </trkpt>
      <trkpt lat="44.8072" lon="4.34485">
        <ele>1123.7</ele>
        <time>2022-06-09T10:17:41Z</time>
      </trkpt>
      <trkpt lat="44.80718" lon="4.34482">
        <ele>1123.9</ele>
        <time>2022-06-09T10:17:42Z</time>
      </trkpt>
      <trkpt lat="44.80717" lon="4.34481">
        <ele>1123.9</ele>
        <time>2022-06-09T10:17:43Z</time>
      </trkpt>
      <trkpt lat="44.80714" lon="4.34477">
        <ele>1124.2</ele>
        <time>2022-06-09T10:17:45Z</time>
      </trkpt>
      <trkpt lat="44.80712" lon="4.34474">
        <ele>1124.5</ele>
        <time>2022-06-09T10:17:46Z</time>
      </trkpt>
      <trkpt lat="44.80711" lon="4.34473">
        <ele>1124.5</ele>
        <time>2022-06-09T10:17:47Z</time>
      </trkpt>
      <trkpt lat="44.80709" lon="4.3447">
        <ele>1124.7</ele>
        <time>2022-06-09T10:17:48Z</time>
      </trkpt>
      <trkpt lat="44.80708" lon="4.34469">
        <ele>1124.8</ele>
        <time>2022-06-09T10:17:49Z</time>
      </trkpt>
      <trkpt lat="44.80706" lon="4.34465">
        <ele>1125</ele>
        <time>2022-06-09T10:17:50Z</time>
      </trkpt>
      <trkpt lat="44.80706" lon="4.34464">
        <ele>1125.1</ele>
        <time>2022-06-09T10:17:51Z</time>
      </trkpt>
      <trkpt lat="44.80705" lon="4.34462">
        <ele>1125.2</ele>
        <time>2022-06-09T10:17:52Z</time>
      </trkpt>
      <trkpt lat="44.80703" lon="4.3446">
        <ele>1125.3</ele>
        <time>2022-06-09T10:17:53Z</time>
      </trkpt>
      <trkpt lat="44.80702" lon="4.34459">
        <ele>1125.5</ele>
        <time>2022-06-09T10:17:54Z</time>
      </trkpt>
      <trkpt lat="44.80701" lon="4.34457">
        <ele>1125.6</ele>
        <time>2022-06-09T10:17:55Z</time>
      </trkpt>
      <trkpt lat="44.807" lon="4.34455">
        <ele>1125.7</ele>
        <time>2022-06-09T10:17:56Z</time>
      </trkpt>
      <trkpt lat="44.80699" lon="4.34454">
        <ele>1125.8</ele>
        <time>2022-06-09T10:17:57Z</time>
      </trkpt>
      <trkpt lat="44.80697" lon="4.34451">
        <ele>1125.9</ele>
        <time>2022-06-09T10:17:58Z</time>
      </trkpt>
      <trkpt lat="44.80695" lon="4.34447">
        <ele>1126.2</ele>
        <time>2022-06-09T10:18:01Z</time>
      </trkpt>
      <trkpt lat="44.80693" lon="4.34443">
        <ele>1126.4</ele>
        <time>2022-06-09T10:18:02Z</time>
      </trkpt>
      <trkpt lat="44.80692" lon="4.34442">
        <ele>1126.4</ele>
        <time>2022-06-09T10:18:04Z</time>
      </trkpt>
      <trkpt lat="44.80691" lon="4.3444">
        <ele>1126.5</ele>
        <time>2022-06-09T10:18:05Z</time>
      </trkpt>
      <trkpt lat="44.80689" lon="4.34437">
        <ele>1126.7</ele>
        <time>2022-06-09T10:18:06Z</time>
      </trkpt>
      <trkpt lat="44.80689" lon="4.34436">
        <ele>1126.8</ele>
        <time>2022-06-09T10:18:07Z</time>
      </trkpt>
      <trkpt lat="44.80688" lon="4.34434">
        <ele>1126.9</ele>
        <time>2022-06-09T10:18:08Z</time>
      </trkpt>
      <trkpt lat="44.80687" lon="4.34432">
        <ele>1127</ele>
        <time>2022-06-09T10:18:09Z</time>
      </trkpt>
      <trkpt lat="44.80685" lon="4.34427">
        <ele>1127.2</ele>
        <time>2022-06-09T10:18:10Z</time>
      </trkpt>
      <trkpt lat="44.80683" lon="4.34424">
        <ele>1127.4</ele>
        <time>2022-06-09T10:18:12Z</time>
      </trkpt>
      <trkpt lat="44.80683" lon="4.34423">
        <ele>1127.4</ele>
        <time>2022-06-09T10:18:13Z</time>
      </trkpt>
      <trkpt lat="44.80682" lon="4.34421">
        <ele>1127.5</ele>
        <time>2022-06-09T10:18:14Z</time>
      </trkpt>
      <trkpt lat="44.8068" lon="4.3442">
        <ele>1127.6</ele>
        <time>2022-06-09T10:18:15Z</time>
      </trkpt>
      <trkpt lat="44.80679" lon="4.34416">
        <ele>1127.8</ele>
        <time>2022-06-09T10:18:16Z</time>
      </trkpt>
      <trkpt lat="44.80678" lon="4.34415">
        <ele>1127.9</ele>
        <time>2022-06-09T10:18:17Z</time>
      </trkpt>
      <trkpt lat="44.80677" lon="4.34411">
        <ele>1128.1</ele>
        <time>2022-06-09T10:18:18Z</time>
      </trkpt>
      <trkpt lat="44.80677" lon="4.3441">
        <ele>1128.1</ele>
        <time>2022-06-09T10:18:19Z</time>
      </trkpt>
      <trkpt lat="44.80675" lon="4.34406">
        <ele>1128.3</ele>
        <time>2022-06-09T10:18:20Z</time>
      </trkpt>
      <trkpt lat="44.80675" lon="4.34405">
        <ele>1128.4</ele>
        <time>2022-06-09T10:18:21Z</time>
      </trkpt>
      <trkpt lat="44.80674" lon="4.34401">
        <ele>1128.6</ele>
        <time>2022-06-09T10:18:22Z</time>
      </trkpt>
      <trkpt lat="44.80673" lon="4.344">
        <ele>1128.6</ele>
        <time>2022-06-09T10:18:23Z</time>
      </trkpt>
      <trkpt lat="44.80673" lon="4.34398">
        <ele>1128.7</ele>
        <time>2022-06-09T10:18:24Z</time>
      </trkpt>
      <trkpt lat="44.80672" lon="4.34396">
        <ele>1128.8</ele>
        <time>2022-06-09T10:18:25Z</time>
      </trkpt>
      <trkpt lat="44.80671" lon="4.34393">
        <ele>1128.9</ele>
        <time>2022-06-09T10:18:26Z</time>
      </trkpt>
      <trkpt lat="44.80671" lon="4.34391">
        <ele>1129.1</ele>
        <time>2022-06-09T10:18:27Z</time>
      </trkpt>
      <trkpt lat="44.8067" lon="4.34389">
        <ele>1129.2</ele>
        <time>2022-06-09T10:18:28Z</time>
      </trkpt>
      <trkpt lat="44.80669" lon="4.34387">
        <ele>1129.3</ele>
        <time>2022-06-09T10:18:29Z</time>
      </trkpt>
      <trkpt lat="44.80667" lon="4.34383">
        <ele>1129.5</ele>
        <time>2022-06-09T10:18:30Z</time>
      </trkpt>
      <trkpt lat="44.80667" lon="4.34382">
        <ele>1129.6</ele>
        <time>2022-06-09T10:18:31Z</time>
      </trkpt>
      <trkpt lat="44.80666" lon="4.34378">
        <ele>1129.8</ele>
        <time>2022-06-09T10:18:32Z</time>
      </trkpt>
      <trkpt lat="44.80666" lon="4.34377">
        <ele>1129.8</ele>
        <time>2022-06-09T10:18:33Z</time>
      </trkpt>
      <trkpt lat="44.80665" lon="4.34375">
        <ele>1130</ele>
        <time>2022-06-09T10:18:34Z</time>
      </trkpt>
      <trkpt lat="44.80664" lon="4.34373">
        <ele>1130.1</ele>
        <time>2022-06-09T10:18:35Z</time>
      </trkpt>
      <trkpt lat="44.80663" lon="4.34369">
        <ele>1130.3</ele>
        <time>2022-06-09T10:18:36Z</time>
      </trkpt>
      <trkpt lat="44.80662" lon="4.34368">
        <ele>1130.3</ele>
        <time>2022-06-09T10:18:37Z</time>
      </trkpt>
      <trkpt lat="44.80661" lon="4.34366">
        <ele>1130.5</ele>
        <time>2022-06-09T10:18:38Z</time>
      </trkpt>
      <trkpt lat="44.8066" lon="4.34364">
        <ele>1130.6</ele>
        <time>2022-06-09T10:18:39Z</time>
      </trkpt>
      <trkpt lat="44.80659" lon="4.34362">
        <ele>1130.7</ele>
        <time>2022-06-09T10:18:40Z</time>
      </trkpt>
      <trkpt lat="44.80659" lon="4.3436">
        <ele>1130.8</ele>
        <time>2022-06-09T10:18:41Z</time>
      </trkpt>
      <trkpt lat="44.80658" lon="4.34358">
        <ele>1130.9</ele>
        <time>2022-06-09T10:18:42Z</time>
      </trkpt>
      <trkpt lat="44.80657" lon="4.34356">
        <ele>1131.1</ele>
        <time>2022-06-09T10:18:43Z</time>
      </trkpt>
      <trkpt lat="44.80655" lon="4.34352">
        <ele>1131.3</ele>
        <time>2022-06-09T10:18:44Z</time>
      </trkpt>
      <trkpt lat="44.80655" lon="4.34351">
        <ele>1131.3</ele>
        <time>2022-06-09T10:18:45Z</time>
      </trkpt>
      <trkpt lat="44.80653" lon="4.34347">
        <ele>1131.5</ele>
        <time>2022-06-09T10:18:46Z</time>
      </trkpt>
      <trkpt lat="44.80653" lon="4.34346">
        <ele>1131.6</ele>
        <time>2022-06-09T10:18:47Z</time>
      </trkpt>
      <trkpt lat="44.80651" lon="4.34343">
        <ele>1131.8</ele>
        <time>2022-06-09T10:18:48Z</time>
      </trkpt>
      <trkpt lat="44.80651" lon="4.34341">
        <ele>1131.8</ele>
        <time>2022-06-09T10:18:49Z</time>
      </trkpt>
      <trkpt lat="44.80649" lon="4.34338">
        <ele>1132</ele>
        <time>2022-06-09T10:18:50Z</time>
      </trkpt>
      <trkpt lat="44.80649" lon="4.34337">
        <ele>1132</ele>
        <time>2022-06-09T10:18:51Z</time>
      </trkpt>
      <trkpt lat="44.80647" lon="4.34334">
        <ele>1132.2</ele>
        <time>2022-06-09T10:18:52Z</time>
      </trkpt>
      <trkpt lat="44.80646" lon="4.34333">
        <ele>1132.3</ele>
        <time>2022-06-09T10:18:53Z</time>
      </trkpt>
      <trkpt lat="44.80643" lon="4.34329">
        <ele>1132.5</ele>
        <time>2022-06-09T10:18:55Z</time>
      </trkpt>
      <trkpt lat="44.80641" lon="4.34325">
        <ele>1132.7</ele>
        <time>2022-06-09T10:18:56Z</time>
      </trkpt>
      <trkpt lat="44.80639" lon="4.34322">
        <ele>1132.9</ele>
        <time>2022-06-09T10:18:57Z</time>
      </trkpt>
      <trkpt lat="44.80638" lon="4.34321">
        <ele>1132.9</ele>
        <time>2022-06-09T10:18:58Z</time>
      </trkpt>
      <trkpt lat="44.80636" lon="4.34317">
        <ele>1133.1</ele>
        <time>2022-06-09T10:19:00Z</time>
      </trkpt>
      <trkpt lat="44.80633" lon="4.34312">
        <ele>1133.4</ele>
        <time>2022-06-09T10:19:02Z</time>
      </trkpt>
      <trkpt lat="44.80631" lon="4.34308">
        <ele>1133.6</ele>
        <time>2022-06-09T10:19:03Z</time>
      </trkpt>
      <trkpt lat="44.80629" lon="4.34304">
        <ele>1133.8</ele>
        <time>2022-06-09T10:19:05Z</time>
      </trkpt>
      <trkpt lat="44.80628" lon="4.34303">
        <ele>1133.9</ele>
        <time>2022-06-09T10:19:06Z</time>
      </trkpt>
      <trkpt lat="44.80625" lon="4.34299">
        <ele>1134.2</ele>
        <time>2022-06-09T10:19:08Z</time>
      </trkpt>
      <trkpt lat="44.80623" lon="4.34295">
        <ele>1134.3</ele>
        <time>2022-06-09T10:19:09Z</time>
      </trkpt>
      <trkpt lat="44.80622" lon="4.34294">
        <ele>1134.4</ele>
        <time>2022-06-09T10:19:10Z</time>
      </trkpt>
      <trkpt lat="44.8062" lon="4.34289">
        <ele>1134.6</ele>
        <time>2022-06-09T10:19:12Z</time>
      </trkpt>
      <trkpt lat="44.80618" lon="4.34285">
        <ele>1134.8</ele>
        <time>2022-06-09T10:19:13Z</time>
      </trkpt>
      <trkpt lat="44.80617" lon="4.34283">
        <ele>1134.9</ele>
        <time>2022-06-09T10:19:14Z</time>
      </trkpt>
      <trkpt lat="44.80615" lon="4.34278">
        <ele>1135.2</ele>
        <time>2022-06-09T10:19:16Z</time>
      </trkpt>
      <trkpt lat="44.80614" lon="4.34276">
        <ele>1135.3</ele>
        <time>2022-06-09T10:19:17Z</time>
      </trkpt>
      <trkpt lat="44.80613" lon="4.34274">
        <ele>1135.4</ele>
        <time>2022-06-09T10:19:19Z</time>
      </trkpt>
      <trkpt lat="44.80611" lon="4.3427">
        <ele>1135.6</ele>
        <time>2022-06-09T10:19:20Z</time>
      </trkpt>
      <trkpt lat="44.80611" lon="4.34269">
        <ele>1135.6</ele>
        <time>2022-06-09T10:19:21Z</time>
      </trkpt>
      <trkpt lat="44.80609" lon="4.34265">
        <ele>1135.8</ele>
        <time>2022-06-09T10:19:22Z</time>
      </trkpt>
      <trkpt lat="44.80609" lon="4.34264">
        <ele>1135.8</ele>
        <time>2022-06-09T10:19:23Z</time>
      </trkpt>
      <trkpt lat="44.80607" lon="4.34261">
        <ele>1136</ele>
        <time>2022-06-09T10:19:24Z</time>
      </trkpt>
      <trkpt lat="44.80607" lon="4.34259">
        <ele>1136.1</ele>
        <time>2022-06-09T10:19:25Z</time>
      </trkpt>
      <trkpt lat="44.80605" lon="4.34254">
        <ele>1136.3</ele>
        <time>2022-06-09T10:19:27Z</time>
      </trkpt>
      <trkpt lat="44.80603" lon="4.3425">
        <ele>1136.5</ele>
        <time>2022-06-09T10:19:28Z</time>
      </trkpt>
      <trkpt lat="44.80603" lon="4.34249">
        <ele>1136.6</ele>
        <time>2022-06-09T10:19:29Z</time>
      </trkpt>
      <trkpt lat="44.80601" lon="4.34244">
        <ele>1136.8</ele>
        <time>2022-06-09T10:19:30Z</time>
      </trkpt>
      <trkpt lat="44.806" lon="4.34241">
        <ele>1136.9</ele>
        <time>2022-06-09T10:19:31Z</time>
      </trkpt>
      <trkpt lat="44.80599" lon="4.34238">
        <ele>1137.1</ele>
        <time>2022-06-09T10:19:33Z</time>
      </trkpt>
      <trkpt lat="44.80598" lon="4.34234">
        <ele>1137.3</ele>
        <time>2022-06-09T10:19:34Z</time>
      </trkpt>
      <trkpt lat="44.80597" lon="4.34232">
        <ele>1137.4</ele>
        <time>2022-06-09T10:19:35Z</time>
      </trkpt>
      <trkpt lat="44.80595" lon="4.34228">
        <ele>1137.6</ele>
        <time>2022-06-09T10:19:36Z</time>
      </trkpt>
      <trkpt lat="44.80595" lon="4.34227">
        <ele>1137.6</ele>
        <time>2022-06-09T10:19:37Z</time>
      </trkpt>
      <trkpt lat="44.80593" lon="4.34221">
        <ele>1137.9</ele>
        <time>2022-06-09T10:19:38Z</time>
      </trkpt>
      <trkpt lat="44.80592" lon="4.34219">
        <ele>1138</ele>
        <time>2022-06-09T10:19:39Z</time>
      </trkpt>
      <trkpt lat="44.8059" lon="4.34216">
        <ele>1138.1</ele>
        <time>2022-06-09T10:19:41Z</time>
      </trkpt>
      <trkpt lat="44.80589" lon="4.34211">
        <ele>1138.3</ele>
        <time>2022-06-09T10:19:42Z</time>
      </trkpt>
      <trkpt lat="44.80588" lon="4.3421">
        <ele>1138.4</ele>
        <time>2022-06-09T10:19:43Z</time>
      </trkpt>
      <trkpt lat="44.80587" lon="4.34205">
        <ele>1138.5</ele>
        <time>2022-06-09T10:19:44Z</time>
      </trkpt>
      <trkpt lat="44.80586" lon="4.34204">
        <ele>1138.6</ele>
        <time>2022-06-09T10:19:45Z</time>
      </trkpt>
      <trkpt lat="44.80584" lon="4.342">
        <ele>1138.8</ele>
        <time>2022-06-09T10:19:46Z</time>
      </trkpt>
      <trkpt lat="44.80583" lon="4.34199">
        <ele>1138.9</ele>
        <time>2022-06-09T10:19:47Z</time>
      </trkpt>
      <trkpt lat="44.80581" lon="4.34195">
        <ele>1139</ele>
        <time>2022-06-09T10:19:48Z</time>
      </trkpt>
      <trkpt lat="44.80579" lon="4.3419">
        <ele>1139.3</ele>
        <time>2022-06-09T10:19:49Z</time>
      </trkpt>
      <trkpt lat="44.80578" lon="4.34187">
        <ele>1139.4</ele>
        <time>2022-06-09T10:19:50Z</time>
      </trkpt>
      <trkpt lat="44.80577" lon="4.34184">
        <ele>1139.5</ele>
        <time>2022-06-09T10:19:52Z</time>
      </trkpt>
      <trkpt lat="44.80576" lon="4.3418">
        <ele>1139.7</ele>
        <time>2022-06-09T10:19:53Z</time>
      </trkpt>
      <trkpt lat="44.80575" lon="4.34179">
        <ele>1139.8</ele>
        <time>2022-06-09T10:19:54Z</time>
      </trkpt>
      <trkpt lat="44.80573" lon="4.34175">
        <ele>1140</ele>
        <time>2022-06-09T10:19:55Z</time>
      </trkpt>
      <trkpt lat="44.80572" lon="4.34174">
        <ele>1140</ele>
        <time>2022-06-09T10:19:56Z</time>
      </trkpt>
      <trkpt lat="44.80571" lon="4.34172">
        <ele>1140.1</ele>
        <time>2022-06-09T10:19:57Z</time>
      </trkpt>
      <trkpt lat="44.8057" lon="4.34167">
        <ele>1140.3</ele>
        <time>2022-06-09T10:19:59Z</time>
      </trkpt>
      <trkpt lat="44.80568" lon="4.34163">
        <ele>1140.5</ele>
        <time>2022-06-09T10:20:00Z</time>
      </trkpt>
      <trkpt lat="44.80568" lon="4.34162">
        <ele>1140.6</ele>
        <time>2022-06-09T10:20:01Z</time>
      </trkpt>
      <trkpt lat="44.80566" lon="4.34158">
        <ele>1140.8</ele>
        <time>2022-06-09T10:20:02Z</time>
      </trkpt>
      <trkpt lat="44.80566" lon="4.34157">
        <ele>1140.8</ele>
        <time>2022-06-09T10:20:03Z</time>
      </trkpt>
      <trkpt lat="44.80564" lon="4.34153">
        <ele>1141</ele>
        <time>2022-06-09T10:20:04Z</time>
      </trkpt>
      <trkpt lat="44.80564" lon="4.34152">
        <ele>1141.1</ele>
        <time>2022-06-09T10:20:05Z</time>
      </trkpt>
      <trkpt lat="44.80562" lon="4.34148">
        <ele>1141.2</ele>
        <time>2022-06-09T10:20:06Z</time>
      </trkpt>
      <trkpt lat="44.80562" lon="4.34147">
        <ele>1141.3</ele>
        <time>2022-06-09T10:20:07Z</time>
      </trkpt>
      <trkpt lat="44.8056" lon="4.34142">
        <ele>1141.5</ele>
        <time>2022-06-09T10:20:08Z</time>
      </trkpt>
      <trkpt lat="44.8056" lon="4.34141">
        <ele>1141.6</ele>
        <time>2022-06-09T10:20:09Z</time>
      </trkpt>
      <trkpt lat="44.80558" lon="4.34137">
        <ele>1141.8</ele>
        <time>2022-06-09T10:20:10Z</time>
      </trkpt>
      <trkpt lat="44.80558" lon="4.34135">
        <ele>1141.8</ele>
        <time>2022-06-09T10:20:11Z</time>
      </trkpt>
      <trkpt lat="44.80557" lon="4.34133">
        <ele>1141.9</ele>
        <time>2022-06-09T10:20:12Z</time>
      </trkpt>
      <trkpt lat="44.80554" lon="4.34127">
        <ele>1142.2</ele>
        <time>2022-06-09T10:20:14Z</time>
      </trkpt>
      <trkpt lat="44.80552" lon="4.34123">
        <ele>1142.4</ele>
        <time>2022-06-09T10:20:15Z</time>
      </trkpt>
      <trkpt lat="44.80552" lon="4.34121">
        <ele>1142.5</ele>
        <time>2022-06-09T10:20:16Z</time>
      </trkpt>
      <trkpt lat="44.8055" lon="4.34117">
        <ele>1142.6</ele>
        <time>2022-06-09T10:20:17Z</time>
      </trkpt>
      <trkpt lat="44.80549" lon="4.34116">
        <ele>1142.7</ele>
        <time>2022-06-09T10:20:18Z</time>
      </trkpt>
      <trkpt lat="44.80547" lon="4.34112">
        <ele>1142.9</ele>
        <time>2022-06-09T10:20:19Z</time>
      </trkpt>
      <trkpt lat="44.80547" lon="4.34111">
        <ele>1142.9</ele>
        <time>2022-06-09T10:20:20Z</time>
      </trkpt>
      <trkpt lat="44.80545" lon="4.34108">
        <ele>1143.1</ele>
        <time>2022-06-09T10:20:21Z</time>
      </trkpt>
      <trkpt lat="44.80545" lon="4.34107">
        <ele>1143.1</ele>
        <time>2022-06-09T10:20:22Z</time>
      </trkpt>
      <trkpt lat="44.80543" lon="4.34103">
        <ele>1143.3</ele>
        <time>2022-06-09T10:20:23Z</time>
      </trkpt>
      <trkpt lat="44.80542" lon="4.34102">
        <ele>1143.4</ele>
        <time>2022-06-09T10:20:24Z</time>
      </trkpt>
      <trkpt lat="44.80541" lon="4.341">
        <ele>1143.5</ele>
        <time>2022-06-09T10:20:25Z</time>
      </trkpt>
      <trkpt lat="44.80539" lon="4.34092">
        <ele>1143.8</ele>
        <time>2022-06-09T10:20:27Z</time>
      </trkpt>
      <trkpt lat="44.80537" lon="4.34089">
        <ele>1144</ele>
        <time>2022-06-09T10:20:29Z</time>
      </trkpt>
      <trkpt lat="44.80536" lon="4.34085">
        <ele>1144.1</ele>
        <time>2022-06-09T10:20:30Z</time>
      </trkpt>
      <trkpt lat="44.80536" lon="4.34084">
        <ele>1144.2</ele>
        <time>2022-06-09T10:20:31Z</time>
      </trkpt>
      <trkpt lat="44.80535" lon="4.34079">
        <ele>1144.4</ele>
        <time>2022-06-09T10:20:32Z</time>
      </trkpt>
      <trkpt lat="44.80534" lon="4.34078">
        <ele>1144.5</ele>
        <time>2022-06-09T10:20:33Z</time>
      </trkpt>
      <trkpt lat="44.80533" lon="4.34074">
        <ele>1144.7</ele>
        <time>2022-06-09T10:20:34Z</time>
      </trkpt>
      <trkpt lat="44.80532" lon="4.34072">
        <ele>1144.7</ele>
        <time>2022-06-09T10:20:35Z</time>
      </trkpt>
      <trkpt lat="44.80531" lon="4.34067">
        <ele>1145</ele>
        <time>2022-06-09T10:20:36Z</time>
      </trkpt>
      <trkpt lat="44.8053" lon="4.34063">
        <ele>1145.1</ele>
        <time>2022-06-09T10:20:38Z</time>
      </trkpt>
      <trkpt lat="44.8053" lon="4.34061">
        <ele>1145.2</ele>
        <time>2022-06-09T10:20:39Z</time>
      </trkpt>
      <trkpt lat="44.8053" lon="4.34059">
        <ele>1145.3</ele>
        <time>2022-06-09T10:20:40Z</time>
      </trkpt>
      <trkpt lat="44.8053" lon="4.34057">
        <ele>1145.4</ele>
        <time>2022-06-09T10:20:41Z</time>
      </trkpt>
      <trkpt lat="44.80529" lon="4.34053">
        <ele>1145.5</ele>
        <time>2022-06-09T10:20:42Z</time>
      </trkpt>
      <trkpt lat="44.80529" lon="4.34052">
        <ele>1145.6</ele>
        <time>2022-06-09T10:20:43Z</time>
      </trkpt>
      <trkpt lat="44.80528" lon="4.34047">
        <ele>1145.8</ele>
        <time>2022-06-09T10:20:44Z</time>
      </trkpt>
      <trkpt lat="44.80528" lon="4.34046">
        <ele>1145.9</ele>
        <time>2022-06-09T10:20:45Z</time>
      </trkpt>
      <trkpt lat="44.80528" lon="4.34041">
        <ele>1146</ele>
        <time>2022-06-09T10:20:46Z</time>
      </trkpt>
      <trkpt lat="44.80527" lon="4.3404">
        <ele>1146.1</ele>
        <time>2022-06-09T10:20:47Z</time>
      </trkpt>
      <trkpt lat="44.80527" lon="4.34036">
        <ele>1146.3</ele>
        <time>2022-06-09T10:20:48Z</time>
      </trkpt>
      <trkpt lat="44.80527" lon="4.34035">
        <ele>1146.3</ele>
        <time>2022-06-09T10:20:49Z</time>
      </trkpt>
      <trkpt lat="44.80526" lon="4.34029">
        <ele>1146.6</ele>
        <time>2022-06-09T10:20:50Z</time>
      </trkpt>
      <trkpt lat="44.80525" lon="4.34025">
        <ele>1146.8</ele>
        <time>2022-06-09T10:20:52Z</time>
      </trkpt>
      <trkpt lat="44.80525" lon="4.34023">
        <ele>1146.8</ele>
        <time>2022-06-09T10:20:53Z</time>
      </trkpt>
      <trkpt lat="44.80525" lon="4.34018">
        <ele>1147</ele>
        <time>2022-06-09T10:20:54Z</time>
      </trkpt>
      <trkpt lat="44.80525" lon="4.34015">
        <ele>1147.2</ele>
        <time>2022-06-09T10:20:55Z</time>
      </trkpt>
      <trkpt lat="44.80524" lon="4.34012">
        <ele>1147.3</ele>
        <time>2022-06-09T10:20:57Z</time>
      </trkpt>
      <trkpt lat="44.80523" lon="4.34008">
        <ele>1147.5</ele>
        <time>2022-06-09T10:20:58Z</time>
      </trkpt>
      <trkpt lat="44.80523" lon="4.34007">
        <ele>1147.5</ele>
        <time>2022-06-09T10:20:59Z</time>
      </trkpt>
      <trkpt lat="44.80522" lon="4.34003">
        <ele>1147.7</ele>
        <time>2022-06-09T10:21:00Z</time>
      </trkpt>
      <trkpt lat="44.80522" lon="4.34001">
        <ele>1147.8</ele>
        <time>2022-06-09T10:21:01Z</time>
      </trkpt>
      <trkpt lat="44.80521" lon="4.33997">
        <ele>1147.9</ele>
        <time>2022-06-09T10:21:02Z</time>
      </trkpt>
      <trkpt lat="44.80521" lon="4.33996">
        <ele>1148</ele>
        <time>2022-06-09T10:21:03Z</time>
      </trkpt>
      <trkpt lat="44.8052" lon="4.33991">
        <ele>1148.2</ele>
        <time>2022-06-09T10:21:04Z</time>
      </trkpt>
      <trkpt lat="44.8052" lon="4.3399">
        <ele>1148.2</ele>
        <time>2022-06-09T10:21:05Z</time>
      </trkpt>
      <trkpt lat="44.8052" lon="4.33984">
        <ele>1148.5</ele>
        <time>2022-06-09T10:21:06Z</time>
      </trkpt>
      <trkpt lat="44.8052" lon="4.33981">
        <ele>1148.6</ele>
        <time>2022-06-09T10:21:07Z</time>
      </trkpt>
      <trkpt lat="44.80519" lon="4.33978">
        <ele>1148.8</ele>
        <time>2022-06-09T10:21:09Z</time>
      </trkpt>
      <trkpt lat="44.80519" lon="4.33974">
        <ele>1148.9</ele>
        <time>2022-06-09T10:21:10Z</time>
      </trkpt>
      <trkpt lat="44.80519" lon="4.33972">
        <ele>1149</ele>
        <time>2022-06-09T10:21:11Z</time>
      </trkpt>
      <trkpt lat="44.80518" lon="4.33966">
        <ele>1149.3</ele>
        <time>2022-06-09T10:21:12Z</time>
      </trkpt>
      <trkpt lat="44.80518" lon="4.33961">
        <ele>1149.4</ele>
        <time>2022-06-09T10:21:14Z</time>
      </trkpt>
      <trkpt lat="44.80517" lon="4.3396">
        <ele>1149.5</ele>
        <time>2022-06-09T10:21:15Z</time>
      </trkpt>
      <trkpt lat="44.80517" lon="4.33955">
        <ele>1149.7</ele>
        <time>2022-06-09T10:21:16Z</time>
      </trkpt>
      <trkpt lat="44.80516" lon="4.33953">
        <ele>1149.7</ele>
        <time>2022-06-09T10:21:17Z</time>
      </trkpt>
      <trkpt lat="44.80516" lon="4.33948">
        <ele>1149.9</ele>
        <time>2022-06-09T10:21:18Z</time>
      </trkpt>
      <trkpt lat="44.80515" lon="4.33944">
        <ele>1150.1</ele>
        <time>2022-06-09T10:21:19Z</time>
      </trkpt>
      <trkpt lat="44.80515" lon="4.33938">
        <ele>1150.3</ele>
        <time>2022-06-09T10:21:21Z</time>
      </trkpt>
      <trkpt lat="44.80514" lon="4.33933">
        <ele>1150.5</ele>
        <time>2022-06-09T10:21:23Z</time>
      </trkpt>
      <trkpt lat="44.80513" lon="4.33929">
        <ele>1150.6</ele>
        <time>2022-06-09T10:21:25Z</time>
      </trkpt>
      <trkpt lat="44.80512" lon="4.33925">
        <ele>1150.8</ele>
        <time>2022-06-09T10:21:26Z</time>
      </trkpt>
      <trkpt lat="44.80512" lon="4.33921">
        <ele>1150.9</ele>
        <time>2022-06-09T10:21:27Z</time>
      </trkpt>
      <trkpt lat="44.80512" lon="4.33917">
        <ele>1151</ele>
        <time>2022-06-09T10:21:28Z</time>
      </trkpt>
      <trkpt lat="44.80511" lon="4.33913">
        <ele>1151.2</ele>
        <time>2022-06-09T10:21:30Z</time>
      </trkpt>
      <trkpt lat="44.80511" lon="4.33909">
        <ele>1151.3</ele>
        <time>2022-06-09T10:21:31Z</time>
      </trkpt>
      <trkpt lat="44.80511" lon="4.33907">
        <ele>1151.4</ele>
        <time>2022-06-09T10:21:32Z</time>
      </trkpt>
      <trkpt lat="44.80511" lon="4.33902">
        <ele>1151.6</ele>
        <time>2022-06-09T10:21:33Z</time>
      </trkpt>
      <trkpt lat="44.8051" lon="4.33901">
        <ele>1151.6</ele>
        <time>2022-06-09T10:21:34Z</time>
      </trkpt>
      <trkpt lat="44.80509" lon="4.33898">
        <ele>1151.7</ele>
        <time>2022-06-09T10:21:35Z</time>
      </trkpt>
      <trkpt lat="44.80508" lon="4.33893">
        <ele>1152</ele>
        <time>2022-06-09T10:21:37Z</time>
      </trkpt>
      <trkpt lat="44.80506" lon="4.33889">
        <ele>1152.2</ele>
        <time>2022-06-09T10:21:38Z</time>
      </trkpt>
      <trkpt lat="44.80505" lon="4.33888">
        <ele>1152.2</ele>
        <time>2022-06-09T10:21:39Z</time>
      </trkpt>
      <trkpt lat="44.80504" lon="4.33884">
        <ele>1152.4</ele>
        <time>2022-06-09T10:21:40Z</time>
      </trkpt>
      <trkpt lat="44.80503" lon="4.33882">
        <ele>1152.5</ele>
        <time>2022-06-09T10:21:41Z</time>
      </trkpt>
      <trkpt lat="44.80501" lon="4.33878">
        <ele>1152.7</ele>
        <time>2022-06-09T10:21:42Z</time>
      </trkpt>
      <trkpt lat="44.805" lon="4.33877">
        <ele>1152.8</ele>
        <time>2022-06-09T10:21:43Z</time>
      </trkpt>
      <trkpt lat="44.80499" lon="4.33874">
        <ele>1152.9</ele>
        <time>2022-06-09T10:21:44Z</time>
      </trkpt>
      <trkpt lat="44.80498" lon="4.33873">
        <ele>1153</ele>
        <time>2022-06-09T10:21:45Z</time>
      </trkpt>
      <trkpt lat="44.80496" lon="4.3387">
        <ele>1153.2</ele>
        <time>2022-06-09T10:21:46Z</time>
      </trkpt>
      <trkpt lat="44.80495" lon="4.33869">
        <ele>1153.2</ele>
        <time>2022-06-09T10:21:47Z</time>
      </trkpt>
      <trkpt lat="44.80494" lon="4.33865">
        <ele>1153.4</ele>
        <time>2022-06-09T10:21:48Z</time>
      </trkpt>
      <trkpt lat="44.80493" lon="4.33864">
        <ele>1153.4</ele>
        <time>2022-06-09T10:21:49Z</time>
      </trkpt>
      <trkpt lat="44.80491" lon="4.33861">
        <ele>1153.6</ele>
        <time>2022-06-09T10:21:50Z</time>
      </trkpt>
      <trkpt lat="44.80491" lon="4.3386">
        <ele>1153.7</ele>
        <time>2022-06-09T10:21:51Z</time>
      </trkpt>
      <trkpt lat="44.80489" lon="4.33856">
        <ele>1153.9</ele>
        <time>2022-06-09T10:21:52Z</time>
      </trkpt>
      <trkpt lat="44.80488" lon="4.33854">
        <ele>1154</ele>
        <time>2022-06-09T10:21:53Z</time>
      </trkpt>
      <trkpt lat="44.80486" lon="4.33851">
        <ele>1154.1</ele>
        <time>2022-06-09T10:21:54Z</time>
      </trkpt>
      <trkpt lat="44.80485" lon="4.33851">
        <ele>1154.2</ele>
        <time>2022-06-09T10:21:55Z</time>
      </trkpt>
      <trkpt lat="44.80482" lon="4.33847">
        <ele>1154.4</ele>
        <time>2022-06-09T10:21:56Z</time>
      </trkpt>
      <trkpt lat="44.80481" lon="4.33846">
        <ele>1154.5</ele>
        <time>2022-06-09T10:21:57Z</time>
      </trkpt>
      <trkpt lat="44.80478" lon="4.33844">
        <ele>1154.7</ele>
        <time>2022-06-09T10:21:59Z</time>
      </trkpt>
      <trkpt lat="44.80475" lon="4.33841">
        <ele>1154.9</ele>
        <time>2022-06-09T10:22:00Z</time>
      </trkpt>
      <trkpt lat="44.80473" lon="4.33839">
        <ele>1155</ele>
        <time>2022-06-09T10:22:01Z</time>
      </trkpt>
      <trkpt lat="44.80471" lon="4.33837">
        <ele>1155.2</ele>
        <time>2022-06-09T10:22:02Z</time>
      </trkpt>
      <trkpt lat="44.80467" lon="4.33834">
        <ele>1155.4</ele>
        <time>2022-06-09T10:22:04Z</time>
      </trkpt>
      <trkpt lat="44.80465" lon="4.33834">
        <ele>1155.5</ele>
        <time>2022-06-09T10:22:05Z</time>
      </trkpt>
      <trkpt lat="44.80463" lon="4.33833">
        <ele>1155.6</ele>
        <time>2022-06-09T10:22:06Z</time>
      </trkpt>
      <trkpt lat="44.80459" lon="4.33832">
        <ele>1155.8</ele>
        <time>2022-06-09T10:22:08Z</time>
      </trkpt>
      <trkpt lat="44.80457" lon="4.3383">
        <ele>1155.9</ele>
        <time>2022-06-09T10:22:09Z</time>
      </trkpt>
      <trkpt lat="44.80453" lon="4.33829">
        <ele>1156.2</ele>
        <time>2022-06-09T10:22:10Z</time>
      </trkpt>
      <trkpt lat="44.80451" lon="4.33829">
        <ele>1156.2</ele>
        <time>2022-06-09T10:22:11Z</time>
      </trkpt>
      <trkpt lat="44.80446" lon="4.33828">
        <ele>1156.4</ele>
        <time>2022-06-09T10:22:13Z</time>
      </trkpt>
      <trkpt lat="44.80441" lon="4.33827">
        <ele>1156.7</ele>
        <time>2022-06-09T10:22:14Z</time>
      </trkpt>
      <trkpt lat="44.80439" lon="4.33826">
        <ele>1156.8</ele>
        <time>2022-06-09T10:22:16Z</time>
      </trkpt>
      <trkpt lat="44.80435" lon="4.33826">
        <ele>1157</ele>
        <time>2022-06-09T10:22:17Z</time>
      </trkpt>
      <trkpt lat="44.80433" lon="4.33826">
        <ele>1157</ele>
        <time>2022-06-09T10:22:18Z</time>
      </trkpt>
      <trkpt lat="44.8043" lon="4.33825">
        <ele>1157.2</ele>
        <time>2022-06-09T10:22:19Z</time>
      </trkpt>
      <trkpt lat="44.80429" lon="4.33824">
        <ele>1157.3</ele>
        <time>2022-06-09T10:22:20Z</time>
      </trkpt>
      <trkpt lat="44.80425" lon="4.33824">
        <ele>1157.4</ele>
        <time>2022-06-09T10:22:21Z</time>
      </trkpt>
      <trkpt lat="44.80424" lon="4.33825">
        <ele>1157.5</ele>
        <time>2022-06-09T10:22:22Z</time>
      </trkpt>
      <trkpt lat="44.80421" lon="4.33824">
        <ele>1157.7</ele>
        <time>2022-06-09T10:22:23Z</time>
      </trkpt>
      <trkpt lat="44.8042" lon="4.33824">
        <ele>1157.7</ele>
        <time>2022-06-09T10:22:24Z</time>
      </trkpt>
      <trkpt lat="44.80416" lon="4.33824">
        <ele>1157.9</ele>
        <time>2022-06-09T10:22:25Z</time>
      </trkpt>
      <trkpt lat="44.80415" lon="4.33824">
        <ele>1157.9</ele>
        <time>2022-06-09T10:22:26Z</time>
      </trkpt>
      <trkpt lat="44.80411" lon="4.33825">
        <ele>1158.1</ele>
        <time>2022-06-09T10:22:27Z</time>
      </trkpt>
      <trkpt lat="44.8041" lon="4.33825">
        <ele>1158.2</ele>
        <time>2022-06-09T10:22:28Z</time>
      </trkpt>
      <trkpt lat="44.80407" lon="4.33825">
        <ele>1158.3</ele>
        <time>2022-06-09T10:22:29Z</time>
      </trkpt>
      <trkpt lat="44.80406" lon="4.33825">
        <ele>1158.4</ele>
        <time>2022-06-09T10:22:30Z</time>
      </trkpt>
      <trkpt lat="44.80402" lon="4.33824">
        <ele>1158.6</ele>
        <time>2022-06-09T10:22:31Z</time>
      </trkpt>
      <trkpt lat="44.80401" lon="4.33823">
        <ele>1158.6</ele>
        <time>2022-06-09T10:22:32Z</time>
      </trkpt>
      <trkpt lat="44.80397" lon="4.33823">
        <ele>1158.8</ele>
        <time>2022-06-09T10:22:33Z</time>
      </trkpt>
      <trkpt lat="44.80394" lon="4.33823">
        <ele>1159</ele>
        <time>2022-06-09T10:22:35Z</time>
      </trkpt>
      <trkpt lat="44.80391" lon="4.33822">
        <ele>1159.2</ele>
        <time>2022-06-09T10:22:37Z</time>
      </trkpt>
      <trkpt lat="44.80388" lon="4.33822">
        <ele>1159.4</ele>
        <time>2022-06-09T10:22:38Z</time>
      </trkpt>
      <trkpt lat="44.80385" lon="4.33821">
        <ele>1159.5</ele>
        <time>2022-06-09T10:22:39Z</time>
      </trkpt>
      <trkpt lat="44.80383" lon="4.33821">
        <ele>1159.6</ele>
        <time>2022-06-09T10:22:40Z</time>
      </trkpt>
      <trkpt lat="44.80381" lon="4.33821">
        <ele>1159.7</ele>
        <time>2022-06-09T10:22:41Z</time>
      </trkpt>
      <trkpt lat="44.80376" lon="4.3382">
        <ele>1160</ele>
        <time>2022-06-09T10:22:43Z</time>
      </trkpt>
      <trkpt lat="44.80373" lon="4.3382">
        <ele>1160.2</ele>
        <time>2022-06-09T10:22:45Z</time>
      </trkpt>
      <trkpt lat="44.80369" lon="4.3382">
        <ele>1160.4</ele>
        <time>2022-06-09T10:22:46Z</time>
      </trkpt>
      <trkpt lat="44.80368" lon="4.3382">
        <ele>1160.5</ele>
        <time>2022-06-09T10:22:47Z</time>
      </trkpt>
      <trkpt lat="44.80364" lon="4.3382">
        <ele>1160.7</ele>
        <time>2022-06-09T10:22:48Z</time>
      </trkpt>
      <trkpt lat="44.80363" lon="4.3382">
        <ele>1160.8</ele>
        <time>2022-06-09T10:22:49Z</time>
      </trkpt>
      <trkpt lat="44.8036" lon="4.3382">
        <ele>1160.9</ele>
        <time>2022-06-09T10:22:50Z</time>
      </trkpt>
      <trkpt lat="44.80358" lon="4.3382">
        <ele>1161</ele>
        <time>2022-06-09T10:22:52Z</time>
      </trkpt>
      <trkpt lat="44.80354" lon="4.33819">
        <ele>1161.3</ele>
        <time>2022-06-09T10:22:53Z</time>
      </trkpt>
      <trkpt lat="44.80353" lon="4.33819">
        <ele>1161.4</ele>
        <time>2022-06-09T10:22:54Z</time>
      </trkpt>
      <trkpt lat="44.8035" lon="4.33819">
        <ele>1161.5</ele>
        <time>2022-06-09T10:22:55Z</time>
      </trkpt>
      <trkpt lat="44.80348" lon="4.33819">
        <ele>1161.7</ele>
        <time>2022-06-09T10:22:57Z</time>
      </trkpt>
      <trkpt lat="44.80345" lon="4.33819">
        <ele>1161.9</ele>
        <time>2022-06-09T10:22:58Z</time>
      </trkpt>
      <trkpt lat="44.80341" lon="4.3382">
        <ele>1162.1</ele>
        <time>2022-06-09T10:22:59Z</time>
      </trkpt>
      <trkpt lat="44.80338" lon="4.3382">
        <ele>1162.3</ele>
        <time>2022-06-09T10:23:01Z</time>
      </trkpt>
      <trkpt lat="44.80337" lon="4.3382">
        <ele>1162.3</ele>
        <time>2022-06-09T10:23:02Z</time>
      </trkpt>
      <trkpt lat="44.80333" lon="4.3382">
        <ele>1162.5</ele>
        <time>2022-06-09T10:23:03Z</time>
      </trkpt>
      <trkpt lat="44.80331" lon="4.3382">
        <ele>1162.6</ele>
        <time>2022-06-09T10:23:04Z</time>
      </trkpt>
      <trkpt lat="44.80328" lon="4.3382">
        <ele>1162.8</ele>
        <time>2022-06-09T10:23:05Z</time>
      </trkpt>
      <trkpt lat="44.80325" lon="4.3382">
        <ele>1163</ele>
        <time>2022-06-09T10:23:07Z</time>
      </trkpt>
      <trkpt lat="44.80324" lon="4.3382">
        <ele>1163.1</ele>
        <time>2022-06-09T10:23:08Z</time>
      </trkpt>
      <trkpt lat="44.8032" lon="4.3382">
        <ele>1163.3</ele>
        <time>2022-06-09T10:23:09Z</time>
      </trkpt>
      <trkpt lat="44.80317" lon="4.3382">
        <ele>1163.5</ele>
        <time>2022-06-09T10:23:10Z</time>
      </trkpt>
      <trkpt lat="44.80313" lon="4.33821">
        <ele>1163.8</ele>
        <time>2022-06-09T10:23:12Z</time>
      </trkpt>
      <trkpt lat="44.80311" lon="4.3382">
        <ele>1163.9</ele>
        <time>2022-06-09T10:23:13Z</time>
      </trkpt>
      <trkpt lat="44.80307" lon="4.3382">
        <ele>1164.1</ele>
        <time>2022-06-09T10:23:15Z</time>
      </trkpt>
      <trkpt lat="44.80302" lon="4.33819">
        <ele>1164.4</ele>
        <time>2022-06-09T10:23:17Z</time>
      </trkpt>
      <trkpt lat="44.80301" lon="4.33819">
        <ele>1164.5</ele>
        <time>2022-06-09T10:23:18Z</time>
      </trkpt>
      <trkpt lat="44.80299" lon="4.33819">
        <ele>1164.6</ele>
        <time>2022-06-09T10:23:19Z</time>
      </trkpt>
      <trkpt lat="44.80296" lon="4.33819">
        <ele>1164.8</ele>
        <time>2022-06-09T10:23:20Z</time>
      </trkpt>
      <trkpt lat="44.80295" lon="4.33818">
        <ele>1164.8</ele>
        <time>2022-06-09T10:23:21Z</time>
      </trkpt>
      <trkpt lat="44.8029" lon="4.33817">
        <ele>1165.1</ele>
        <time>2022-06-09T10:23:22Z</time>
      </trkpt>
      <trkpt lat="44.80286" lon="4.33816">
        <ele>1165.3</ele>
        <time>2022-06-09T10:23:24Z</time>
      </trkpt>
      <trkpt lat="44.80285" lon="4.33816">
        <ele>1165.4</ele>
        <time>2022-06-09T10:23:25Z</time>
      </trkpt>
      <trkpt lat="44.80283" lon="4.33814">
        <ele>1165.5</ele>
        <time>2022-06-09T10:23:26Z</time>
      </trkpt>
      <trkpt lat="44.80282" lon="4.33814">
        <ele>1165.6</ele>
        <time>2022-06-09T10:23:27Z</time>
      </trkpt>
      <trkpt lat="44.80278" lon="4.33812">
        <ele>1165.8</ele>
        <time>2022-06-09T10:23:28Z</time>
      </trkpt>
      <trkpt lat="44.80277" lon="4.33812">
        <ele>1165.9</ele>
        <time>2022-06-09T10:23:29Z</time>
      </trkpt>
      <trkpt lat="44.80274" lon="4.3381">
        <ele>1166.1</ele>
        <time>2022-06-09T10:23:30Z</time>
      </trkpt>
      <trkpt lat="44.80272" lon="4.33809">
        <ele>1166.2</ele>
        <time>2022-06-09T10:23:31Z</time>
      </trkpt>
      <trkpt lat="44.80268" lon="4.33807">
        <ele>1166.4</ele>
        <time>2022-06-09T10:23:33Z</time>
      </trkpt>
      <trkpt lat="44.80267" lon="4.33806">
        <ele>1166.5</ele>
        <time>2022-06-09T10:23:34Z</time>
      </trkpt>
      <trkpt lat="44.80263" lon="4.33804">
        <ele>1166.7</ele>
        <time>2022-06-09T10:23:35Z</time>
      </trkpt>
      <trkpt lat="44.80262" lon="4.33803">
        <ele>1166.8</ele>
        <time>2022-06-09T10:23:36Z</time>
      </trkpt>
      <trkpt lat="44.80258" lon="4.33799">
        <ele>1167</ele>
        <time>2022-06-09T10:23:38Z</time>
      </trkpt>
      <trkpt lat="44.80254" lon="4.33797">
        <ele>1167.3</ele>
        <time>2022-06-09T10:23:40Z</time>
      </trkpt>
      <trkpt lat="44.80251" lon="4.33794">
        <ele>1167.5</ele>
        <time>2022-06-09T10:23:42Z</time>
      </trkpt>
      <trkpt lat="44.80248" lon="4.3379">
        <ele>1167.7</ele>
        <time>2022-06-09T10:23:43Z</time>
      </trkpt>
      <trkpt lat="44.80247" lon="4.33789">
        <ele>1167.7</ele>
        <time>2022-06-09T10:23:44Z</time>
      </trkpt>
      <trkpt lat="44.80244" lon="4.33787">
        <ele>1167.9</ele>
        <time>2022-06-09T10:23:45Z</time>
      </trkpt>
      <trkpt lat="44.80242" lon="4.33785">
        <ele>1168</ele>
        <time>2022-06-09T10:23:46Z</time>
      </trkpt>
      <trkpt lat="44.8024" lon="4.33783">
        <ele>1168.2</ele>
        <time>2022-06-09T10:23:48Z</time>
      </trkpt>
      <trkpt lat="44.80237" lon="4.3378">
        <ele>1168.4</ele>
        <time>2022-06-09T10:23:49Z</time>
      </trkpt>
      <trkpt lat="44.80235" lon="4.33779">
        <ele>1168.4</ele>
        <time>2022-06-09T10:23:50Z</time>
      </trkpt>
      <trkpt lat="44.80232" lon="4.33776">
        <ele>1168.6</ele>
        <time>2022-06-09T10:23:51Z</time>
      </trkpt>
      <trkpt lat="44.80231" lon="4.33775">
        <ele>1168.7</ele>
        <time>2022-06-09T10:23:52Z</time>
      </trkpt>
      <trkpt lat="44.80228" lon="4.33771">
        <ele>1168.9</ele>
        <time>2022-06-09T10:23:53Z</time>
      </trkpt>
      <trkpt lat="44.80226" lon="4.33769">
        <ele>1169</ele>
        <time>2022-06-09T10:23:54Z</time>
      </trkpt>
      <trkpt lat="44.80224" lon="4.33766">
        <ele>1169.2</ele>
        <time>2022-06-09T10:23:55Z</time>
      </trkpt>
      <trkpt lat="44.8022" lon="4.33761">
        <ele>1169.5</ele>
        <time>2022-06-09T10:23:57Z</time>
      </trkpt>
      <trkpt lat="44.80219" lon="4.33759">
        <ele>1169.6</ele>
        <time>2022-06-09T10:23:58Z</time>
      </trkpt>
      <trkpt lat="44.80217" lon="4.33757">
        <ele>1169.7</ele>
        <time>2022-06-09T10:23:59Z</time>
      </trkpt>
      <trkpt lat="44.80215" lon="4.33752">
        <ele>1169.9</ele>
        <time>2022-06-09T10:24:01Z</time>
      </trkpt>
      <trkpt lat="44.80214" lon="4.33751">
        <ele>1170</ele>
        <time>2022-06-09T10:24:02Z</time>
      </trkpt>
      <trkpt lat="44.80213" lon="4.3375">
        <ele>1170.1</ele>
        <time>2022-06-09T10:24:03Z</time>
      </trkpt>
      <trkpt lat="44.80211" lon="4.33746">
        <ele>1170.3</ele>
        <time>2022-06-09T10:24:04Z</time>
      </trkpt>
      <trkpt lat="44.8021" lon="4.33745">
        <ele>1170.4</ele>
        <time>2022-06-09T10:24:05Z</time>
      </trkpt>
      <trkpt lat="44.80207" lon="4.33741">
        <ele>1170.6</ele>
        <time>2022-06-09T10:24:06Z</time>
      </trkpt>
      <trkpt lat="44.80207" lon="4.3374">
        <ele>1170.7</ele>
        <time>2022-06-09T10:24:07Z</time>
      </trkpt>
      <trkpt lat="44.80205" lon="4.33736">
        <ele>1170.9</ele>
        <time>2022-06-09T10:24:08Z</time>
      </trkpt>
      <trkpt lat="44.80204" lon="4.33734">
        <ele>1170.9</ele>
        <time>2022-06-09T10:24:09Z</time>
      </trkpt>
      <trkpt lat="44.80202" lon="4.33731">
        <ele>1171.1</ele>
        <time>2022-06-09T10:24:10Z</time>
      </trkpt>
      <trkpt lat="44.80202" lon="4.3373">
        <ele>1171.2</ele>
        <time>2022-06-09T10:24:11Z</time>
      </trkpt>
      <trkpt lat="44.802" lon="4.33727">
        <ele>1171.3</ele>
        <time>2022-06-09T10:24:12Z</time>
      </trkpt>
      <trkpt lat="44.80199" lon="4.33726">
        <ele>1171.4</ele>
        <time>2022-06-09T10:24:13Z</time>
      </trkpt>
      <trkpt lat="44.80197" lon="4.33723">
        <ele>1171.6</ele>
        <time>2022-06-09T10:24:14Z</time>
      </trkpt>
      <trkpt lat="44.80196" lon="4.33722">
        <ele>1171.7</ele>
        <time>2022-06-09T10:24:15Z</time>
      </trkpt>
      <trkpt lat="44.80194" lon="4.33719">
        <ele>1171.9</ele>
        <time>2022-06-09T10:24:16Z</time>
      </trkpt>
      <trkpt lat="44.80194" lon="4.33718">
        <ele>1171.9</ele>
        <time>2022-06-09T10:24:17Z</time>
      </trkpt>
      <trkpt lat="44.80192" lon="4.33713">
        <ele>1172.2</ele>
        <time>2022-06-09T10:24:18Z</time>
      </trkpt>
      <trkpt lat="44.8019" lon="4.33709">
        <ele>1172.4</ele>
        <time>2022-06-09T10:24:20Z</time>
      </trkpt>
      <trkpt lat="44.8019" lon="4.33709">
        <ele>1172.4</ele>
        <time>2022-06-09T10:24:21Z</time>
      </trkpt>
      <trkpt lat="44.80188" lon="4.33705">
        <ele>1172.6</ele>
        <time>2022-06-09T10:24:22Z</time>
      </trkpt>
      <trkpt lat="44.80188" lon="4.33704">
        <ele>1172.7</ele>
        <time>2022-06-09T10:24:23Z</time>
      </trkpt>
      <trkpt lat="44.80186" lon="4.337">
        <ele>1172.8</ele>
        <time>2022-06-09T10:24:24Z</time>
      </trkpt>
      <trkpt lat="44.80186" lon="4.33699">
        <ele>1172.9</ele>
        <time>2022-06-09T10:24:25Z</time>
      </trkpt>
      <trkpt lat="44.80184" lon="4.33695">
        <ele>1173.1</ele>
        <time>2022-06-09T10:24:26Z</time>
      </trkpt>
      <trkpt lat="44.80184" lon="4.33694">
        <ele>1173.2</ele>
        <time>2022-06-09T10:24:27Z</time>
      </trkpt>
      <trkpt lat="44.80184" lon="4.33692">
        <ele>1173.3</ele>
        <time>2022-06-09T10:24:28Z</time>
      </trkpt>
      <trkpt lat="44.80184" lon="4.33689">
        <ele>1173.4</ele>
        <time>2022-06-09T10:24:29Z</time>
      </trkpt>
      <trkpt lat="44.80183" lon="4.33687">
        <ele>1173.5</ele>
        <time>2022-06-09T10:24:30Z</time>
      </trkpt>
      <trkpt lat="44.80183" lon="4.33686">
        <ele>1173.6</ele>
        <time>2022-06-09T10:24:31Z</time>
      </trkpt>
      <trkpt lat="44.80182" lon="4.33682">
        <ele>1173.7</ele>
        <time>2022-06-09T10:24:32Z</time>
      </trkpt>
      <trkpt lat="44.80181" lon="4.33679">
        <ele>1173.9</ele>
        <time>2022-06-09T10:24:34Z</time>
      </trkpt>
      <trkpt lat="44.8018" lon="4.33672">
        <ele>1174.2</ele>
        <time>2022-06-09T10:24:36Z</time>
      </trkpt>
      <trkpt lat="44.80179" lon="4.33667">
        <ele>1174.5</ele>
        <time>2022-06-09T10:24:38Z</time>
      </trkpt>
      <trkpt lat="44.80179" lon="4.33665">
        <ele>1174.6</ele>
        <time>2022-06-09T10:24:40Z</time>
      </trkpt>
      <trkpt lat="44.80178" lon="4.33661">
        <ele>1174.8</ele>
        <time>2022-06-09T10:24:41Z</time>
      </trkpt>
      <trkpt lat="44.80177" lon="4.3366">
        <ele>1174.9</ele>
        <time>2022-06-09T10:24:42Z</time>
      </trkpt>
      <trkpt lat="44.80177" lon="4.33656">
        <ele>1175</ele>
        <time>2022-06-09T10:24:43Z</time>
      </trkpt>
      <trkpt lat="44.80176" lon="4.3365">
        <ele>1175.3</ele>
        <time>2022-06-09T10:24:45Z</time>
      </trkpt>
      <trkpt lat="44.80176" lon="4.33649">
        <ele>1175.3</ele>
        <time>2022-06-09T10:24:46Z</time>
      </trkpt>
      <trkpt lat="44.80175" lon="4.33644">
        <ele>1175.6</ele>
        <time>2022-06-09T10:24:47Z</time>
      </trkpt>
      <trkpt lat="44.80175" lon="4.33642">
        <ele>1175.6</ele>
        <time>2022-06-09T10:24:48Z</time>
      </trkpt>
      <trkpt lat="44.80175" lon="4.33638">
        <ele>1175.8</ele>
        <time>2022-06-09T10:24:49Z</time>
      </trkpt>
      <trkpt lat="44.80176" lon="4.33637">
        <ele>1175.8</ele>
        <time>2022-06-09T10:24:50Z</time>
      </trkpt>
      <trkpt lat="44.80175" lon="4.33633">
        <ele>1176</ele>
        <time>2022-06-09T10:24:51Z</time>
      </trkpt>
      <trkpt lat="44.80175" lon="4.33632">
        <ele>1176.1</ele>
        <time>2022-06-09T10:24:52Z</time>
      </trkpt>
      <trkpt lat="44.80175" lon="4.33627">
        <ele>1176.3</ele>
        <time>2022-06-09T10:24:53Z</time>
      </trkpt>
      <trkpt lat="44.80175" lon="4.33626">
        <ele>1176.3</ele>
        <time>2022-06-09T10:24:54Z</time>
      </trkpt>
      <trkpt lat="44.80175" lon="4.33624">
        <ele>1176.4</ele>
        <time>2022-06-09T10:24:55Z</time>
      </trkpt>
      <trkpt lat="44.80174" lon="4.33619">
        <ele>1176.6</ele>
        <time>2022-06-09T10:24:57Z</time>
      </trkpt>
      <trkpt lat="44.80174" lon="4.33614">
        <ele>1176.8</ele>
        <time>2022-06-09T10:24:58Z</time>
      </trkpt>
      <trkpt lat="44.80174" lon="4.33611">
        <ele>1176.9</ele>
        <time>2022-06-09T10:24:59Z</time>
      </trkpt>
      <trkpt lat="44.80174" lon="4.33608">
        <ele>1177.1</ele>
        <time>2022-06-09T10:25:01Z</time>
      </trkpt>
      <trkpt lat="44.80174" lon="4.33604">
        <ele>1177.2</ele>
        <time>2022-06-09T10:25:02Z</time>
      </trkpt>
      <trkpt lat="44.80175" lon="4.33603">
        <ele>1177.3</ele>
        <time>2022-06-09T10:25:03Z</time>
      </trkpt>
      <trkpt lat="44.80174" lon="4.33598">
        <ele>1177.5</ele>
        <time>2022-06-09T10:25:04Z</time>
      </trkpt>
      <trkpt lat="44.80175" lon="4.33594">
        <ele>1177.6</ele>
        <time>2022-06-09T10:25:06Z</time>
      </trkpt>
      <trkpt lat="44.80175" lon="4.33592">
        <ele>1177.7</ele>
        <time>2022-06-09T10:25:07Z</time>
      </trkpt>
      <trkpt lat="44.80175" lon="4.33587">
        <ele>1177.9</ele>
        <time>2022-06-09T10:25:08Z</time>
      </trkpt>
      <trkpt lat="44.80175" lon="4.33584">
        <ele>1178</ele>
        <time>2022-06-09T10:25:09Z</time>
      </trkpt>
      <trkpt lat="44.80176" lon="4.33581">
        <ele>1178.2</ele>
        <time>2022-06-09T10:25:11Z</time>
      </trkpt>
      <trkpt lat="44.80176" lon="4.33576">
        <ele>1178.3</ele>
        <time>2022-06-09T10:25:12Z</time>
      </trkpt>
      <trkpt lat="44.80177" lon="4.33572">
        <ele>1178.5</ele>
        <time>2022-06-09T10:25:13Z</time>
      </trkpt>
      <trkpt lat="44.80177" lon="4.33571">
        <ele>1178.6</ele>
        <time>2022-06-09T10:25:14Z</time>
      </trkpt>
      <trkpt lat="44.80177" lon="4.33568">
        <ele>1178.7</ele>
        <time>2022-06-09T10:25:15Z</time>
      </trkpt>
      <trkpt lat="44.80177" lon="4.33565">
        <ele>1178.8</ele>
        <time>2022-06-09T10:25:17Z</time>
      </trkpt>
      <trkpt lat="44.80178" lon="4.3356">
        <ele>1179</ele>
        <time>2022-06-09T10:25:18Z</time>
      </trkpt>
      <trkpt lat="44.80179" lon="4.33558">
        <ele>1179.1</ele>
        <time>2022-06-09T10:25:19Z</time>
      </trkpt>
      <trkpt lat="44.8018" lon="4.33553">
        <ele>1179.3</ele>
        <time>2022-06-09T10:25:21Z</time>
      </trkpt>
      <trkpt lat="44.8018" lon="4.33551">
        <ele>1179.4</ele>
        <time>2022-06-09T10:25:22Z</time>
      </trkpt>
      <trkpt lat="44.80182" lon="4.33547">
        <ele>1179.6</ele>
        <time>2022-06-09T10:25:24Z</time>
      </trkpt>
      <trkpt lat="44.80182" lon="4.33544">
        <ele>1179.7</ele>
        <time>2022-06-09T10:25:25Z</time>
      </trkpt>
      <trkpt lat="44.80182" lon="4.3354">
        <ele>1179.9</ele>
        <time>2022-06-09T10:25:27Z</time>
      </trkpt>
      <trkpt lat="44.80183" lon="4.33538">
        <ele>1180</ele>
        <time>2022-06-09T10:25:28Z</time>
      </trkpt>
      <trkpt lat="44.80184" lon="4.33533">
        <ele>1180.2</ele>
        <time>2022-06-09T10:25:30Z</time>
      </trkpt>
      <trkpt lat="44.80186" lon="4.33528">
        <ele>1180.5</ele>
        <time>2022-06-09T10:25:31Z</time>
      </trkpt>
      <trkpt lat="44.80187" lon="4.33526">
        <ele>1180.6</ele>
        <time>2022-06-09T10:25:32Z</time>
      </trkpt>
      <trkpt lat="44.80188" lon="4.33521">
        <ele>1180.8</ele>
        <time>2022-06-09T10:25:33Z</time>
      </trkpt>
      <trkpt lat="44.80189" lon="4.33519">
        <ele>1180.9</ele>
        <time>2022-06-09T10:25:34Z</time>
      </trkpt>
      <trkpt lat="44.80191" lon="4.33514">
        <ele>1181.2</ele>
        <time>2022-06-09T10:25:36Z</time>
      </trkpt>
      <trkpt lat="44.80192" lon="4.33512">
        <ele>1181.3</ele>
        <time>2022-06-09T10:25:37Z</time>
      </trkpt>
      <trkpt lat="44.80192" lon="4.3351">
        <ele>1181.4</ele>
        <time>2022-06-09T10:25:38Z</time>
      </trkpt>
      <trkpt lat="44.80193" lon="4.33506">
        <ele>1181.5</ele>
        <time>2022-06-09T10:25:39Z</time>
      </trkpt>
      <trkpt lat="44.80194" lon="4.33504">
        <ele>1181.6</ele>
        <time>2022-06-09T10:25:41Z</time>
      </trkpt>
      <trkpt lat="44.80194" lon="4.33501">
        <ele>1181.7</ele>
        <time>2022-06-09T10:25:42Z</time>
      </trkpt>
      <trkpt lat="44.80194" lon="4.33499">
        <ele>1181.8</ele>
        <time>2022-06-09T10:25:43Z</time>
      </trkpt>
      <trkpt lat="44.80194" lon="4.33494">
        <ele>1182.1</ele>
        <time>2022-06-09T10:25:44Z</time>
      </trkpt>
      <trkpt lat="44.80194" lon="4.33489">
        <ele>1182.2</ele>
        <time>2022-06-09T10:25:46Z</time>
      </trkpt>
      <trkpt lat="44.80194" lon="4.33487">
        <ele>1182.3</ele>
        <time>2022-06-09T10:25:47Z</time>
      </trkpt>
      <trkpt lat="44.80194" lon="4.33485">
        <ele>1182.4</ele>
        <time>2022-06-09T10:25:48Z</time>
      </trkpt>
      <trkpt lat="44.80194" lon="4.33481">
        <ele>1182.6</ele>
        <time>2022-06-09T10:25:49Z</time>
      </trkpt>
      <trkpt lat="44.80194" lon="4.33476">
        <ele>1182.8</ele>
        <time>2022-06-09T10:25:51Z</time>
      </trkpt>
      <trkpt lat="44.80193" lon="4.33475">
        <ele>1182.8</ele>
        <time>2022-06-09T10:25:52Z</time>
      </trkpt>
      <trkpt lat="44.80193" lon="4.33469">
        <ele>1183.1</ele>
        <time>2022-06-09T10:25:53Z</time>
      </trkpt>
      <trkpt lat="44.80193" lon="4.33467">
        <ele>1183.1</ele>
        <time>2022-06-09T10:25:54Z</time>
      </trkpt>
      <trkpt lat="44.80191" lon="4.33461">
        <ele>1183.4</ele>
        <time>2022-06-09T10:25:56Z</time>
      </trkpt>
      <trkpt lat="44.8019" lon="4.33458">
        <ele>1183.5</ele>
        <time>2022-06-09T10:25:57Z</time>
      </trkpt>
      <trkpt lat="44.8019" lon="4.33452">
        <ele>1183.8</ele>
        <time>2022-06-09T10:25:59Z</time>
      </trkpt>
      <trkpt lat="44.80189" lon="4.3345">
        <ele>1183.8</ele>
        <time>2022-06-09T10:26:00Z</time>
      </trkpt>
      <trkpt lat="44.80189" lon="4.33448">
        <ele>1183.9</ele>
        <time>2022-06-09T10:26:01Z</time>
      </trkpt>
      <trkpt lat="44.80187" lon="4.33443">
        <ele>1184.2</ele>
        <time>2022-06-09T10:26:02Z</time>
      </trkpt>
      <trkpt lat="44.80186" lon="4.33438">
        <ele>1184.3</ele>
        <time>2022-06-09T10:26:04Z</time>
      </trkpt>
      <trkpt lat="44.80186" lon="4.33437">
        <ele>1184.4</ele>
        <time>2022-06-09T10:26:05Z</time>
      </trkpt>
      <trkpt lat="44.80184" lon="4.33433">
        <ele>1184.6</ele>
        <time>2022-06-09T10:26:06Z</time>
      </trkpt>
      <trkpt lat="44.80183" lon="4.33432">
        <ele>1184.6</ele>
        <time>2022-06-09T10:26:07Z</time>
      </trkpt>
      <trkpt lat="44.80182" lon="4.33427">
        <ele>1184.8</ele>
        <time>2022-06-09T10:26:08Z</time>
      </trkpt>
      <trkpt lat="44.80181" lon="4.33426">
        <ele>1184.9</ele>
        <time>2022-06-09T10:26:09Z</time>
      </trkpt>
      <trkpt lat="44.8018" lon="4.33422">
        <ele>1185.1</ele>
        <time>2022-06-09T10:26:11Z</time>
      </trkpt>
      <trkpt lat="44.80179" lon="4.3342">
        <ele>1185.2</ele>
        <time>2022-06-09T10:26:12Z</time>
      </trkpt>
      <trkpt lat="44.80177" lon="4.33417">
        <ele>1185.3</ele>
        <time>2022-06-09T10:26:13Z</time>
      </trkpt>
      <trkpt lat="44.80175" lon="4.33414">
        <ele>1185.5</ele>
        <time>2022-06-09T10:26:15Z</time>
      </trkpt>
      <trkpt lat="44.80175" lon="4.33413">
        <ele>1185.5</ele>
        <time>2022-06-09T10:26:16Z</time>
      </trkpt>
      <trkpt lat="44.80172" lon="4.33409">
        <ele>1185.7</ele>
        <time>2022-06-09T10:26:17Z</time>
      </trkpt>
      <trkpt lat="44.80169" lon="4.33405">
        <ele>1185.9</ele>
        <time>2022-06-09T10:26:19Z</time>
      </trkpt>
      <trkpt lat="44.80169" lon="4.33404">
        <ele>1186</ele>
        <time>2022-06-09T10:26:20Z</time>
      </trkpt>
      <trkpt lat="44.80166" lon="4.33399">
        <ele>1186.2</ele>
        <time>2022-06-09T10:26:22Z</time>
      </trkpt>
      <trkpt lat="44.80165" lon="4.33395">
        <ele>1186.4</ele>
        <time>2022-06-09T10:26:23Z</time>
      </trkpt>
      <trkpt lat="44.80163" lon="4.3339">
        <ele>1186.6</ele>
        <time>2022-06-09T10:26:25Z</time>
      </trkpt>
      <trkpt lat="44.80162" lon="4.33388">
        <ele>1186.7</ele>
        <time>2022-06-09T10:26:26Z</time>
      </trkpt>
      <trkpt lat="44.80161" lon="4.33386">
        <ele>1186.8</ele>
        <time>2022-06-09T10:26:27Z</time>
      </trkpt>
      <trkpt lat="44.8016" lon="4.3338">
        <ele>1187</ele>
        <time>2022-06-09T10:26:28Z</time>
      </trkpt>
      <trkpt lat="44.80159" lon="4.33374">
        <ele>1187.3</ele>
        <time>2022-06-09T10:26:30Z</time>
      </trkpt>
      <trkpt lat="44.80159" lon="4.33371">
        <ele>1187.4</ele>
        <time>2022-06-09T10:26:31Z</time>
      </trkpt>
      <trkpt lat="44.80159" lon="4.33368">
        <ele>1187.5</ele>
        <time>2022-06-09T10:26:33Z</time>
      </trkpt>
      <trkpt lat="44.80158" lon="4.33366">
        <ele>1187.6</ele>
        <time>2022-06-09T10:26:34Z</time>
      </trkpt>
      <trkpt lat="44.80158" lon="4.33364">
        <ele>1187.7</ele>
        <time>2022-06-09T10:26:35Z</time>
      </trkpt>
      <trkpt lat="44.80158" lon="4.3336">
        <ele>1187.9</ele>
        <time>2022-06-09T10:26:36Z</time>
      </trkpt>
      <trkpt lat="44.80158" lon="4.33358">
        <ele>1187.9</ele>
        <time>2022-06-09T10:26:37Z</time>
      </trkpt>
      <trkpt lat="44.80158" lon="4.33354">
        <ele>1188.1</ele>
        <time>2022-06-09T10:26:38Z</time>
      </trkpt>
      <trkpt lat="44.80158" lon="4.33353">
        <ele>1188.2</ele>
        <time>2022-06-09T10:26:39Z</time>
      </trkpt>
      <trkpt lat="44.80158" lon="4.33349">
        <ele>1188.4</ele>
        <time>2022-06-09T10:26:40Z</time>
      </trkpt>
      <trkpt lat="44.80158" lon="4.33347">
        <ele>1188.4</ele>
        <time>2022-06-09T10:26:41Z</time>
      </trkpt>
      <trkpt lat="44.80158" lon="4.33345">
        <ele>1188.5</ele>
        <time>2022-06-09T10:26:42Z</time>
      </trkpt>
      <trkpt lat="44.80157" lon="4.3334">
        <ele>1188.7</ele>
        <time>2022-06-09T10:26:43Z</time>
      </trkpt>
      <trkpt lat="44.80158" lon="4.33338">
        <ele>1188.8</ele>
        <time>2022-06-09T10:26:45Z</time>
      </trkpt>
      <trkpt lat="44.80158" lon="4.33335">
        <ele>1189</ele>
        <time>2022-06-09T10:26:46Z</time>
      </trkpt>
      <trkpt lat="44.80158" lon="4.33333">
        <ele>1189.1</ele>
        <time>2022-06-09T10:26:47Z</time>
      </trkpt>
      <trkpt lat="44.80158" lon="4.33329">
        <ele>1189.2</ele>
        <time>2022-06-09T10:26:48Z</time>
      </trkpt>
      <trkpt lat="44.80158" lon="4.33328">
        <ele>1189.3</ele>
        <time>2022-06-09T10:26:49Z</time>
      </trkpt>
      <trkpt lat="44.80158" lon="4.33324">
        <ele>1189.5</ele>
        <time>2022-06-09T10:26:50Z</time>
      </trkpt>
      <trkpt lat="44.80158" lon="4.33322">
        <ele>1189.5</ele>
        <time>2022-06-09T10:26:51Z</time>
      </trkpt>
      <trkpt lat="44.80159" lon="4.3332">
        <ele>1189.6</ele>
        <time>2022-06-09T10:26:52Z</time>
      </trkpt>
      <trkpt lat="44.80158" lon="4.33317">
        <ele>1189.8</ele>
        <time>2022-06-09T10:26:53Z</time>
      </trkpt>
      <trkpt lat="44.80158" lon="4.33313">
        <ele>1189.9</ele>
        <time>2022-06-09T10:26:54Z</time>
      </trkpt>
      <trkpt lat="44.80158" lon="4.33312">
        <ele>1190</ele>
        <time>2022-06-09T10:26:55Z</time>
      </trkpt>
      <trkpt lat="44.80158" lon="4.33308">
        <ele>1190.2</ele>
        <time>2022-06-09T10:26:56Z</time>
      </trkpt>
      <trkpt lat="44.80158" lon="4.33306">
        <ele>1190.2</ele>
        <time>2022-06-09T10:26:57Z</time>
      </trkpt>
      <trkpt lat="44.80158" lon="4.33304">
        <ele>1190.3</ele>
        <time>2022-06-09T10:26:58Z</time>
      </trkpt>
      <trkpt lat="44.80159" lon="4.33302">
        <ele>1190.4</ele>
        <time>2022-06-09T10:26:59Z</time>
      </trkpt>
      <trkpt lat="44.80159" lon="4.333">
        <ele>1190.5</ele>
        <time>2022-06-09T10:27:00Z</time>
      </trkpt>
      <trkpt lat="44.80159" lon="4.33295">
        <ele>1190.7</ele>
        <time>2022-06-09T10:27:01Z</time>
      </trkpt>
      <trkpt lat="44.80159" lon="4.33289">
        <ele>1191</ele>
        <time>2022-06-09T10:27:03Z</time>
      </trkpt>
      <trkpt lat="44.80159" lon="4.33287">
        <ele>1191.1</ele>
        <time>2022-06-09T10:27:05Z</time>
      </trkpt>
      <trkpt lat="44.80158" lon="4.33282">
        <ele>1191.3</ele>
        <time>2022-06-09T10:27:06Z</time>
      </trkpt>
      <trkpt lat="44.80158" lon="4.33278">
        <ele>1191.5</ele>
        <time>2022-06-09T10:27:08Z</time>
      </trkpt>
      <trkpt lat="44.80157" lon="4.33277">
        <ele>1191.5</ele>
        <time>2022-06-09T10:27:09Z</time>
      </trkpt>
      <trkpt lat="44.80157" lon="4.33273">
        <ele>1191.7</ele>
        <time>2022-06-09T10:27:10Z</time>
      </trkpt>
      <trkpt lat="44.80156" lon="4.33271">
        <ele>1191.8</ele>
        <time>2022-06-09T10:27:11Z</time>
      </trkpt>
      <trkpt lat="44.80156" lon="4.33266">
        <ele>1192</ele>
        <time>2022-06-09T10:27:12Z</time>
      </trkpt>
      <trkpt lat="44.80155" lon="4.33262">
        <ele>1192.2</ele>
        <time>2022-06-09T10:27:14Z</time>
      </trkpt>
      <trkpt lat="44.80155" lon="4.3326">
        <ele>1192.3</ele>
        <time>2022-06-09T10:27:15Z</time>
      </trkpt>
      <trkpt lat="44.80154" lon="4.33257">
        <ele>1192.4</ele>
        <time>2022-06-09T10:27:16Z</time>
      </trkpt>
      <trkpt lat="44.80154" lon="4.33255">
        <ele>1192.5</ele>
        <time>2022-06-09T10:27:18Z</time>
      </trkpt>
      <trkpt lat="44.80152" lon="4.3325">
        <ele>1192.7</ele>
        <time>2022-06-09T10:27:19Z</time>
      </trkpt>
      <trkpt lat="44.80151" lon="4.33245">
        <ele>1192.9</ele>
        <time>2022-06-09T10:27:21Z</time>
      </trkpt>
      <trkpt lat="44.80149" lon="4.33241">
        <ele>1193.1</ele>
        <time>2022-06-09T10:27:23Z</time>
      </trkpt>
      <trkpt lat="44.80148" lon="4.33239">
        <ele>1193.2</ele>
        <time>2022-06-09T10:27:24Z</time>
      </trkpt>
      <trkpt lat="44.80147" lon="4.33236">
        <ele>1193.3</ele>
        <time>2022-06-09T10:27:26Z</time>
      </trkpt>
      <trkpt lat="44.80147" lon="4.33234">
        <ele>1193.4</ele>
        <time>2022-06-09T10:27:27Z</time>
      </trkpt>
      <trkpt lat="44.80145" lon="4.33232">
        <ele>1193.5</ele>
        <time>2022-06-09T10:27:28Z</time>
      </trkpt>
      <trkpt lat="44.80143" lon="4.33229">
        <ele>1193.7</ele>
        <time>2022-06-09T10:27:29Z</time>
      </trkpt>
      <trkpt lat="44.80141" lon="4.33226">
        <ele>1193.8</ele>
        <time>2022-06-09T10:27:30Z</time>
      </trkpt>
      <trkpt lat="44.8014" lon="4.33224">
        <ele>1193.9</ele>
        <time>2022-06-09T10:27:32Z</time>
      </trkpt>
      <trkpt lat="44.80139" lon="4.33222">
        <ele>1194</ele>
        <time>2022-06-09T10:27:33Z</time>
      </trkpt>
      <trkpt lat="44.80137" lon="4.33218">
        <ele>1194.2</ele>
        <time>2022-06-09T10:27:34Z</time>
      </trkpt>
      <trkpt lat="44.80137" lon="4.33216">
        <ele>1194.3</ele>
        <time>2022-06-09T10:27:35Z</time>
      </trkpt>
      <trkpt lat="44.80135" lon="4.33213">
        <ele>1194.4</ele>
        <time>2022-06-09T10:27:36Z</time>
      </trkpt>
      <trkpt lat="44.80135" lon="4.33211">
        <ele>1194.5</ele>
        <time>2022-06-09T10:27:37Z</time>
      </trkpt>
      <trkpt lat="44.80133" lon="4.33207">
        <ele>1194.7</ele>
        <time>2022-06-09T10:27:38Z</time>
      </trkpt>
      <trkpt lat="44.80132" lon="4.33206">
        <ele>1194.7</ele>
        <time>2022-06-09T10:27:39Z</time>
      </trkpt>
      <trkpt lat="44.80132" lon="4.33204">
        <ele>1194.8</ele>
        <time>2022-06-09T10:27:40Z</time>
      </trkpt>
      <trkpt lat="44.8013" lon="4.33199">
        <ele>1195</ele>
        <time>2022-06-09T10:27:41Z</time>
      </trkpt>
      <trkpt lat="44.80129" lon="4.33196">
        <ele>1195.1</ele>
        <time>2022-06-09T10:27:43Z</time>
      </trkpt>
      <trkpt lat="44.80129" lon="4.33193">
        <ele>1195.3</ele>
        <time>2022-06-09T10:27:44Z</time>
      </trkpt>
      <trkpt lat="44.80128" lon="4.33191">
        <ele>1195.3</ele>
        <time>2022-06-09T10:27:45Z</time>
      </trkpt>
      <trkpt lat="44.80127" lon="4.33187">
        <ele>1195.5</ele>
        <time>2022-06-09T10:27:46Z</time>
      </trkpt>
      <trkpt lat="44.80126" lon="4.33185">
        <ele>1195.6</ele>
        <time>2022-06-09T10:27:47Z</time>
      </trkpt>
      <trkpt lat="44.80125" lon="4.33181">
        <ele>1195.8</ele>
        <time>2022-06-09T10:27:49Z</time>
      </trkpt>
      <trkpt lat="44.80124" lon="4.3318">
        <ele>1195.8</ele>
        <time>2022-06-09T10:27:50Z</time>
      </trkpt>
      <trkpt lat="44.80123" lon="4.33175">
        <ele>1196</ele>
        <time>2022-06-09T10:27:51Z</time>
      </trkpt>
      <trkpt lat="44.80123" lon="4.33174">
        <ele>1196.1</ele>
        <time>2022-06-09T10:27:52Z</time>
      </trkpt>
      <trkpt lat="44.80122" lon="4.3317">
        <ele>1196.3</ele>
        <time>2022-06-09T10:27:53Z</time>
      </trkpt>
      <trkpt lat="44.80121" lon="4.33167">
        <ele>1196.4</ele>
        <time>2022-06-09T10:27:54Z</time>
      </trkpt>
      <trkpt lat="44.8012" lon="4.33161">
        <ele>1196.6</ele>
        <time>2022-06-09T10:27:56Z</time>
      </trkpt>
      <trkpt lat="44.8012" lon="4.33158">
        <ele>1196.7</ele>
        <time>2022-06-09T10:27:58Z</time>
      </trkpt>
      <trkpt lat="44.80119" lon="4.33154">
        <ele>1196.9</ele>
        <time>2022-06-09T10:27:59Z</time>
      </trkpt>
      <trkpt lat="44.80119" lon="4.33152">
        <ele>1197</ele>
        <time>2022-06-09T10:28:00Z</time>
      </trkpt>
      <trkpt lat="44.80118" lon="4.33147">
        <ele>1197.2</ele>
        <time>2022-06-09T10:28:01Z</time>
      </trkpt>
      <trkpt lat="44.80118" lon="4.33146">
        <ele>1197.3</ele>
        <time>2022-06-09T10:28:02Z</time>
      </trkpt>
      <trkpt lat="44.80117" lon="4.33141">
        <ele>1197.5</ele>
        <time>2022-06-09T10:28:04Z</time>
      </trkpt>
      <trkpt lat="44.80116" lon="4.33139">
        <ele>1197.6</ele>
        <time>2022-06-09T10:28:05Z</time>
      </trkpt>
      <trkpt lat="44.80116" lon="4.33135">
        <ele>1197.7</ele>
        <time>2022-06-09T10:28:06Z</time>
      </trkpt>
      <trkpt lat="44.80116" lon="4.33132">
        <ele>1197.9</ele>
        <time>2022-06-09T10:28:07Z</time>
      </trkpt>
      <trkpt lat="44.80116" lon="4.3313">
        <ele>1198</ele>
        <time>2022-06-09T10:28:09Z</time>
      </trkpt>
      <trkpt lat="44.80116" lon="4.33127">
        <ele>1198.1</ele>
        <time>2022-06-09T10:28:10Z</time>
      </trkpt>
      <trkpt lat="44.80115" lon="4.33125">
        <ele>1198.2</ele>
        <time>2022-06-09T10:28:11Z</time>
      </trkpt>
      <trkpt lat="44.80115" lon="4.3312">
        <ele>1198.4</ele>
        <time>2022-06-09T10:28:12Z</time>
      </trkpt>
      <trkpt lat="44.80115" lon="4.33117">
        <ele>1198.5</ele>
        <time>2022-06-09T10:28:13Z</time>
      </trkpt>
      <trkpt lat="44.80115" lon="4.33114">
        <ele>1198.7</ele>
        <time>2022-06-09T10:28:15Z</time>
      </trkpt>
      <trkpt lat="44.80115" lon="4.33108">
        <ele>1198.9</ele>
        <time>2022-06-09T10:28:16Z</time>
      </trkpt>
      <trkpt lat="44.80115" lon="4.33102">
        <ele>1199.2</ele>
        <time>2022-06-09T10:28:18Z</time>
      </trkpt>
      <trkpt lat="44.80115" lon="4.33098">
        <ele>1199.3</ele>
        <time>2022-06-09T10:28:19Z</time>
      </trkpt>
      <trkpt lat="44.80115" lon="4.33095">
        <ele>1199.4</ele>
        <time>2022-06-09T10:28:20Z</time>
      </trkpt>
      <trkpt lat="44.80115" lon="4.33091">
        <ele>1199.6</ele>
        <time>2022-06-09T10:28:22Z</time>
      </trkpt>
      <trkpt lat="44.80115" lon="4.3309">
        <ele>1199.7</ele>
        <time>2022-06-09T10:28:23Z</time>
      </trkpt>
      <trkpt lat="44.80115" lon="4.33086">
        <ele>1199.8</ele>
        <time>2022-06-09T10:28:24Z</time>
      </trkpt>
      <trkpt lat="44.80115" lon="4.33085">
        <ele>1199.9</ele>
        <time>2022-06-09T10:28:25Z</time>
      </trkpt>
      <trkpt lat="44.80115" lon="4.33083">
        <ele>1199.9</ele>
        <time>2022-06-09T10:28:26Z</time>
      </trkpt>
      <trkpt lat="44.80115" lon="4.33083">
        <ele>1200</ele>
        <time>2022-06-09T10:28:27Z</time>
      </trkpt>
      <trkpt lat="44.80115" lon="4.33084">
        <ele>1200</ele>
        <time>2022-06-09T10:28:28Z</time>
      </trkpt>
      <trkpt lat="44.80115" lon="4.33085">
        <ele>1200</ele>
        <time>2022-06-09T10:28:29Z</time>
      </trkpt>
      <trkpt lat="44.80115" lon="4.33085">
        <ele>1200.1</ele>
        <time>2022-06-09T10:28:30Z</time>
      </trkpt>
      <trkpt lat="44.80115" lon="4.33085">
        <ele>1200.1</ele>
        <time>2022-06-09T10:28:31Z</time>
      </trkpt>
      <trkpt lat="44.80115" lon="4.33085">
        <ele>1200.1</ele>
        <time>2022-06-09T10:28:32Z</time>
      </trkpt>
      <trkpt lat="44.80115" lon="4.33085">
        <ele>1200.1</ele>
        <time>2022-06-09T10:28:33Z</time>
      </trkpt>
      <trkpt lat="44.80115" lon="4.33085">
        <ele>1200.1</ele>
        <time>2022-06-09T10:28:34Z</time>
      </trkpt>
      <trkpt lat="44.80115" lon="4.33085">
        <ele>1200.1</ele>
        <time>2022-06-09T10:28:35Z</time>
      </trkpt>
      <trkpt lat="44.80116" lon="4.33085">
        <ele>1200.1</ele>
        <time>2022-06-09T10:28:36Z</time>
      </trkpt>
      <trkpt lat="44.80116" lon="4.3308">
        <ele>1200.3</ele>
        <time>2022-06-09T10:30:15Z</time>
      </trkpt>
      <trkpt lat="44.80116" lon="4.33078">
        <ele>1200.3</ele>
        <time>2022-06-09T10:30:16Z</time>
      </trkpt>
      <trkpt lat="44.80115" lon="4.33076">
        <ele>1200.4</ele>
        <time>2022-06-09T10:30:17Z</time>
      </trkpt>
      <trkpt lat="44.80115" lon="4.33072">
        <ele>1200.6</ele>
        <time>2022-06-09T10:30:18Z</time>
      </trkpt>
      <trkpt lat="44.80115" lon="4.33071">
        <ele>1200.7</ele>
        <time>2022-06-09T10:30:19Z</time>
      </trkpt>
      <trkpt lat="44.80116" lon="4.33067">
        <ele>1200.8</ele>
        <time>2022-06-09T10:30:20Z</time>
      </trkpt>
      <trkpt lat="44.80116" lon="4.33065">
        <ele>1200.9</ele>
        <time>2022-06-09T10:30:22Z</time>
      </trkpt>
      <trkpt lat="44.80115" lon="4.3306">
        <ele>1201.1</ele>
        <time>2022-06-09T10:30:23Z</time>
      </trkpt>
      <trkpt lat="44.80115" lon="4.33058">
        <ele>1201.2</ele>
        <time>2022-06-09T10:30:24Z</time>
      </trkpt>
      <trkpt lat="44.80115" lon="4.33053">
        <ele>1201.4</ele>
        <time>2022-06-09T10:30:25Z</time>
      </trkpt>
      <trkpt lat="44.80115" lon="4.33051">
        <ele>1201.5</ele>
        <time>2022-06-09T10:30:26Z</time>
      </trkpt>
      <trkpt lat="44.80115" lon="4.33045">
        <ele>1201.7</ele>
        <time>2022-06-09T10:30:27Z</time>
      </trkpt>
      <trkpt lat="44.80116" lon="4.33042">
        <ele>1201.9</ele>
        <time>2022-06-09T10:30:28Z</time>
      </trkpt>
      <trkpt lat="44.80116" lon="4.33039">
        <ele>1202</ele>
        <time>2022-06-09T10:30:29Z</time>
      </trkpt>
      <trkpt lat="44.80116" lon="4.33035">
        <ele>1202.1</ele>
        <time>2022-06-09T10:30:31Z</time>
      </trkpt>
      <trkpt lat="44.80116" lon="4.33029">
        <ele>1202.4</ele>
        <time>2022-06-09T10:30:32Z</time>
      </trkpt>
      <trkpt lat="44.80117" lon="4.33023">
        <ele>1202.7</ele>
        <time>2022-06-09T10:30:34Z</time>
      </trkpt>
      <trkpt lat="44.80117" lon="4.3302">
        <ele>1202.8</ele>
        <time>2022-06-09T10:30:36Z</time>
      </trkpt>
      <trkpt lat="44.80117" lon="4.33018">
        <ele>1202.9</ele>
        <time>2022-06-09T10:30:37Z</time>
      </trkpt>
      <trkpt lat="44.80117" lon="4.33015">
        <ele>1203</ele>
        <time>2022-06-09T10:30:38Z</time>
      </trkpt>
      <trkpt lat="44.80117" lon="4.33011">
        <ele>1203.1</ele>
        <time>2022-06-09T10:30:39Z</time>
      </trkpt>
      <trkpt lat="44.80117" lon="4.3301">
        <ele>1203.2</ele>
        <time>2022-06-09T10:30:40Z</time>
      </trkpt>
      <trkpt lat="44.80117" lon="4.33005">
        <ele>1203.4</ele>
        <time>2022-06-09T10:30:41Z</time>
      </trkpt>
      <trkpt lat="44.80117" lon="4.33001">
        <ele>1203.5</ele>
        <time>2022-06-09T10:30:42Z</time>
      </trkpt>
      <trkpt lat="44.80117" lon="4.32997">
        <ele>1203.7</ele>
        <time>2022-06-09T10:30:44Z</time>
      </trkpt>
      <trkpt lat="44.80117" lon="4.32996">
        <ele>1203.8</ele>
        <time>2022-06-09T10:30:45Z</time>
      </trkpt>
      <trkpt lat="44.80118" lon="4.32992">
        <ele>1204</ele>
        <time>2022-06-09T10:30:46Z</time>
      </trkpt>
      <trkpt lat="44.80118" lon="4.32985">
        <ele>1204.2</ele>
        <time>2022-06-09T10:30:48Z</time>
      </trkpt>
      <trkpt lat="44.80118" lon="4.32984">
        <ele>1204.3</ele>
        <time>2022-06-09T10:30:49Z</time>
      </trkpt>
      <trkpt lat="44.80118" lon="4.32982">
        <ele>1204.4</ele>
        <time>2022-06-09T10:30:50Z</time>
      </trkpt>
      <trkpt lat="44.80118" lon="4.32978">
        <ele>1204.5</ele>
        <time>2022-06-09T10:30:51Z</time>
      </trkpt>
      <trkpt lat="44.80118" lon="4.32976">
        <ele>1204.6</ele>
        <time>2022-06-09T10:30:52Z</time>
      </trkpt>
      <trkpt lat="44.80119" lon="4.32972">
        <ele>1204.8</ele>
        <time>2022-06-09T10:30:53Z</time>
      </trkpt>
      <trkpt lat="44.80119" lon="4.32971">
        <ele>1204.8</ele>
        <time>2022-06-09T10:30:54Z</time>
      </trkpt>
      <trkpt lat="44.80119" lon="4.32967">
        <ele>1205</ele>
        <time>2022-06-09T10:30:55Z</time>
      </trkpt>
      <trkpt lat="44.80119" lon="4.32965">
        <ele>1205</ele>
        <time>2022-06-09T10:30:56Z</time>
      </trkpt>
      <trkpt lat="44.80119" lon="4.3296">
        <ele>1205.2</ele>
        <time>2022-06-09T10:30:57Z</time>
      </trkpt>
      <trkpt lat="44.80119" lon="4.32956">
        <ele>1205.4</ele>
        <time>2022-06-09T10:30:59Z</time>
      </trkpt>
      <trkpt lat="44.80119" lon="4.32955">
        <ele>1205.4</ele>
        <time>2022-06-09T10:31:00Z</time>
      </trkpt>
      <trkpt lat="44.80119" lon="4.3295">
        <ele>1205.6</ele>
        <time>2022-06-09T10:31:01Z</time>
      </trkpt>
      <trkpt lat="44.80119" lon="4.32949">
        <ele>1205.7</ele>
        <time>2022-06-09T10:31:02Z</time>
      </trkpt>
      <trkpt lat="44.80119" lon="4.32944">
        <ele>1205.9</ele>
        <time>2022-06-09T10:31:03Z</time>
      </trkpt>
      <trkpt lat="44.80119" lon="4.32943">
        <ele>1205.9</ele>
        <time>2022-06-09T10:31:04Z</time>
      </trkpt>
      <trkpt lat="44.8012" lon="4.32937">
        <ele>1206.1</ele>
        <time>2022-06-09T10:31:05Z</time>
      </trkpt>
      <trkpt lat="44.8012" lon="4.32934">
        <ele>1206.2</ele>
        <time>2022-06-09T10:31:06Z</time>
      </trkpt>
      <trkpt lat="44.8012" lon="4.32931">
        <ele>1206.4</ele>
        <time>2022-06-09T10:31:08Z</time>
      </trkpt>
      <trkpt lat="44.8012" lon="4.32927">
        <ele>1206.5</ele>
        <time>2022-06-09T10:31:09Z</time>
      </trkpt>
      <trkpt lat="44.8012" lon="4.32925">
        <ele>1206.6</ele>
        <time>2022-06-09T10:31:10Z</time>
      </trkpt>
      <trkpt lat="44.8012" lon="4.32921">
        <ele>1206.8</ele>
        <time>2022-06-09T10:31:11Z</time>
      </trkpt>
      <trkpt lat="44.8012" lon="4.32919">
        <ele>1206.8</ele>
        <time>2022-06-09T10:31:12Z</time>
      </trkpt>
      <trkpt lat="44.80119" lon="4.32915">
        <ele>1207</ele>
        <time>2022-06-09T10:31:13Z</time>
      </trkpt>
      <trkpt lat="44.80119" lon="4.32913">
        <ele>1207.1</ele>
        <time>2022-06-09T10:31:14Z</time>
      </trkpt>
      <trkpt lat="44.8012" lon="4.32909">
        <ele>1207.2</ele>
        <time>2022-06-09T10:31:15Z</time>
      </trkpt>
      <trkpt lat="44.8012" lon="4.32908">
        <ele>1207.3</ele>
        <time>2022-06-09T10:31:16Z</time>
      </trkpt>
      <trkpt lat="44.8012" lon="4.32904">
        <ele>1207.4</ele>
        <time>2022-06-09T10:31:17Z</time>
      </trkpt>
      <trkpt lat="44.8012" lon="4.32902">
        <ele>1207.5</ele>
        <time>2022-06-09T10:31:18Z</time>
      </trkpt>
      <trkpt lat="44.80121" lon="4.32897">
        <ele>1207.7</ele>
        <time>2022-06-09T10:31:19Z</time>
      </trkpt>
      <trkpt lat="44.80122" lon="4.32892">
        <ele>1207.9</ele>
        <time>2022-06-09T10:31:21Z</time>
      </trkpt>
      <trkpt lat="44.80122" lon="4.32891">
        <ele>1208</ele>
        <time>2022-06-09T10:31:22Z</time>
      </trkpt>
      <trkpt lat="44.80122" lon="4.32885">
        <ele>1208.2</ele>
        <time>2022-06-09T10:31:24Z</time>
      </trkpt>
      <trkpt lat="44.80123" lon="4.32881">
        <ele>1208.4</ele>
        <time>2022-06-09T10:31:25Z</time>
      </trkpt>
      <trkpt lat="44.80124" lon="4.32877">
        <ele>1208.6</ele>
        <time>2022-06-09T10:31:26Z</time>
      </trkpt>
      <trkpt lat="44.80125" lon="4.32872">
        <ele>1208.8</ele>
        <time>2022-06-09T10:31:28Z</time>
      </trkpt>
      <trkpt lat="44.80126" lon="4.32866">
        <ele>1209</ele>
        <time>2022-06-09T10:31:30Z</time>
      </trkpt>
      <trkpt lat="44.80127" lon="4.32864">
        <ele>1209.1</ele>
        <time>2022-06-09T10:31:31Z</time>
      </trkpt>
      <trkpt lat="44.80127" lon="4.32862">
        <ele>1209.2</ele>
        <time>2022-06-09T10:31:32Z</time>
      </trkpt>
      <trkpt lat="44.80129" lon="4.32857">
        <ele>1209.4</ele>
        <time>2022-06-09T10:31:34Z</time>
      </trkpt>
      <trkpt lat="44.80129" lon="4.32855">
        <ele>1209.5</ele>
        <time>2022-06-09T10:31:35Z</time>
      </trkpt>
      <trkpt lat="44.8013" lon="4.32852">
        <ele>1209.7</ele>
        <time>2022-06-09T10:31:36Z</time>
      </trkpt>
      <trkpt lat="44.80131" lon="4.32847">
        <ele>1209.9</ele>
        <time>2022-06-09T10:31:38Z</time>
      </trkpt>
      <trkpt lat="44.80131" lon="4.32842">
        <ele>1210.1</ele>
        <time>2022-06-09T10:31:39Z</time>
      </trkpt>
      <trkpt lat="44.80132" lon="4.32838">
        <ele>1210.3</ele>
        <time>2022-06-09T10:31:41Z</time>
      </trkpt>
      <trkpt lat="44.80133" lon="4.32837">
        <ele>1210.4</ele>
        <time>2022-06-09T10:31:42Z</time>
      </trkpt>
      <trkpt lat="44.80134" lon="4.32832">
        <ele>1210.6</ele>
        <time>2022-06-09T10:31:43Z</time>
      </trkpt>
      <trkpt lat="44.80135" lon="4.32828">
        <ele>1210.8</ele>
        <time>2022-06-09T10:31:45Z</time>
      </trkpt>
      <trkpt lat="44.80135" lon="4.32826">
        <ele>1210.8</ele>
        <time>2022-06-09T10:31:46Z</time>
      </trkpt>
      <trkpt lat="44.80137" lon="4.32821">
        <ele>1211.1</ele>
        <time>2022-06-09T10:31:47Z</time>
      </trkpt>
      <trkpt lat="44.80138" lon="4.32816">
        <ele>1211.3</ele>
        <time>2022-06-09T10:31:49Z</time>
      </trkpt>
      <trkpt lat="44.80138" lon="4.32815">
        <ele>1211.3</ele>
        <time>2022-06-09T10:31:50Z</time>
      </trkpt>
      <trkpt lat="44.80139" lon="4.32811">
        <ele>1211.5</ele>
        <time>2022-06-09T10:31:51Z</time>
      </trkpt>
      <trkpt lat="44.80139" lon="4.3281">
        <ele>1211.6</ele>
        <time>2022-06-09T10:31:52Z</time>
      </trkpt>
      <trkpt lat="44.8014" lon="4.32806">
        <ele>1211.7</ele>
        <time>2022-06-09T10:31:53Z</time>
      </trkpt>
      <trkpt lat="44.8014" lon="4.32805">
        <ele>1211.8</ele>
        <time>2022-06-09T10:31:54Z</time>
      </trkpt>
      <trkpt lat="44.80141" lon="4.32801">
        <ele>1211.9</ele>
        <time>2022-06-09T10:31:55Z</time>
      </trkpt>
      <trkpt lat="44.80141" lon="4.32799">
        <ele>1212</ele>
        <time>2022-06-09T10:31:56Z</time>
      </trkpt>
      <trkpt lat="44.80142" lon="4.32795">
        <ele>1212.2</ele>
        <time>2022-06-09T10:31:57Z</time>
      </trkpt>
      <trkpt lat="44.80142" lon="4.32793">
        <ele>1212.2</ele>
        <time>2022-06-09T10:31:58Z</time>
      </trkpt>
      <trkpt lat="44.80143" lon="4.32788">
        <ele>1212.5</ele>
        <time>2022-06-09T10:31:59Z</time>
      </trkpt>
      <trkpt lat="44.80144" lon="4.32783">
        <ele>1212.7</ele>
        <time>2022-06-09T10:32:01Z</time>
      </trkpt>
      <trkpt lat="44.80144" lon="4.32781">
        <ele>1212.7</ele>
        <time>2022-06-09T10:32:02Z</time>
      </trkpt>
      <trkpt lat="44.80144" lon="4.32777">
        <ele>1212.9</ele>
        <time>2022-06-09T10:32:03Z</time>
      </trkpt>
      <trkpt lat="44.80144" lon="4.32776">
        <ele>1212.9</ele>
        <time>2022-06-09T10:32:04Z</time>
      </trkpt>
      <trkpt lat="44.80144" lon="4.32772">
        <ele>1213.1</ele>
        <time>2022-06-09T10:32:05Z</time>
      </trkpt>
      <trkpt lat="44.80144" lon="4.3277">
        <ele>1213.1</ele>
        <time>2022-06-09T10:32:06Z</time>
      </trkpt>
      <trkpt lat="44.80144" lon="4.32766">
        <ele>1213.3</ele>
        <time>2022-06-09T10:32:07Z</time>
      </trkpt>
      <trkpt lat="44.80144" lon="4.32764">
        <ele>1213.4</ele>
        <time>2022-06-09T10:32:08Z</time>
      </trkpt>
      <trkpt lat="44.80144" lon="4.3276">
        <ele>1213.6</ele>
        <time>2022-06-09T10:32:09Z</time>
      </trkpt>
      <trkpt lat="44.80145" lon="4.32758">
        <ele>1213.6</ele>
        <time>2022-06-09T10:32:10Z</time>
      </trkpt>
      <trkpt lat="44.80145" lon="4.32754">
        <ele>1213.8</ele>
        <time>2022-06-09T10:32:11Z</time>
      </trkpt>
      <trkpt lat="44.80145" lon="4.32753">
        <ele>1213.9</ele>
        <time>2022-06-09T10:32:12Z</time>
      </trkpt>
      <trkpt lat="44.80146" lon="4.32748">
        <ele>1214.1</ele>
        <time>2022-06-09T10:32:13Z</time>
      </trkpt>
      <trkpt lat="44.80146" lon="4.32747">
        <ele>1214.1</ele>
        <time>2022-06-09T10:32:14Z</time>
      </trkpt>
      <trkpt lat="44.80146" lon="4.32745">
        <ele>1214.2</ele>
        <time>2022-06-09T10:32:15Z</time>
      </trkpt>
      <trkpt lat="44.80146" lon="4.3274">
        <ele>1214.4</ele>
        <time>2022-06-09T10:32:16Z</time>
      </trkpt>
      <trkpt lat="44.80147" lon="4.32737">
        <ele>1214.6</ele>
        <time>2022-06-09T10:32:18Z</time>
      </trkpt>
      <trkpt lat="44.80147" lon="4.32733">
        <ele>1214.7</ele>
        <time>2022-06-09T10:32:19Z</time>
      </trkpt>
      <trkpt lat="44.80147" lon="4.32731">
        <ele>1214.8</ele>
        <time>2022-06-09T10:32:20Z</time>
      </trkpt>
      <trkpt lat="44.80148" lon="4.32727">
        <ele>1215</ele>
        <time>2022-06-09T10:32:21Z</time>
      </trkpt>
      <trkpt lat="44.80148" lon="4.32723">
        <ele>1215.2</ele>
        <time>2022-06-09T10:32:23Z</time>
      </trkpt>
      <trkpt lat="44.80148" lon="4.32721">
        <ele>1215.2</ele>
        <time>2022-06-09T10:32:24Z</time>
      </trkpt>
      <trkpt lat="44.80149" lon="4.32718">
        <ele>1215.4</ele>
        <time>2022-06-09T10:32:25Z</time>
      </trkpt>
      <trkpt lat="44.80149" lon="4.32713">
        <ele>1215.6</ele>
        <time>2022-06-09T10:32:26Z</time>
      </trkpt>
      <trkpt lat="44.8015" lon="4.32712">
        <ele>1215.6</ele>
        <time>2022-06-09T10:32:27Z</time>
      </trkpt>
      <trkpt lat="44.8015" lon="4.32708">
        <ele>1215.8</ele>
        <time>2022-06-09T10:32:28Z</time>
      </trkpt>
      <trkpt lat="44.8015" lon="4.32703">
        <ele>1216</ele>
        <time>2022-06-09T10:32:31Z</time>
      </trkpt>
      <trkpt lat="44.8015" lon="4.32698">
        <ele>1216.2</ele>
        <time>2022-06-09T10:32:32Z</time>
      </trkpt>
      <trkpt lat="44.8015" lon="4.32696">
        <ele>1216.3</ele>
        <time>2022-06-09T10:32:33Z</time>
      </trkpt>
      <trkpt lat="44.80149" lon="4.32692">
        <ele>1216.4</ele>
        <time>2022-06-09T10:32:34Z</time>
      </trkpt>
      <trkpt lat="44.80149" lon="4.32687">
        <ele>1216.7</ele>
        <time>2022-06-09T10:32:36Z</time>
      </trkpt>
      <trkpt lat="44.80149" lon="4.32685">
        <ele>1216.7</ele>
        <time>2022-06-09T10:32:37Z</time>
      </trkpt>
      <trkpt lat="44.80148" lon="4.32681">
        <ele>1216.9</ele>
        <time>2022-06-09T10:32:38Z</time>
      </trkpt>
      <trkpt lat="44.80148" lon="4.32675">
        <ele>1217.2</ele>
        <time>2022-06-09T10:32:40Z</time>
      </trkpt>
      <trkpt lat="44.80147" lon="4.32672">
        <ele>1217.3</ele>
        <time>2022-06-09T10:32:42Z</time>
      </trkpt>
      <trkpt lat="44.80147" lon="4.32667">
        <ele>1217.5</ele>
        <time>2022-06-09T10:32:43Z</time>
      </trkpt>
      <trkpt lat="44.80147" lon="4.32665">
        <ele>1217.5</ele>
        <time>2022-06-09T10:32:44Z</time>
      </trkpt>
      <trkpt lat="44.80147" lon="4.32661">
        <ele>1217.7</ele>
        <time>2022-06-09T10:32:45Z</time>
      </trkpt>
      <trkpt lat="44.80147" lon="4.32659">
        <ele>1217.8</ele>
        <time>2022-06-09T10:32:46Z</time>
      </trkpt>
      <trkpt lat="44.80146" lon="4.32656">
        <ele>1217.9</ele>
        <time>2022-06-09T10:32:47Z</time>
      </trkpt>
      <trkpt lat="44.80146" lon="4.32654">
        <ele>1217.9</ele>
        <time>2022-06-09T10:32:48Z</time>
      </trkpt>
      <trkpt lat="44.80146" lon="4.32649">
        <ele>1218.1</ele>
        <time>2022-06-09T10:32:49Z</time>
      </trkpt>
      <trkpt lat="44.80145" lon="4.32648">
        <ele>1218.2</ele>
        <time>2022-06-09T10:32:50Z</time>
      </trkpt>
      <trkpt lat="44.80145" lon="4.32646">
        <ele>1218.3</ele>
        <time>2022-06-09T10:32:51Z</time>
      </trkpt>
      <trkpt lat="44.80145" lon="4.32643">
        <ele>1218.4</ele>
        <time>2022-06-09T10:32:52Z</time>
      </trkpt>
      <trkpt lat="44.80145" lon="4.32639">
        <ele>1218.5</ele>
        <time>2022-06-09T10:32:53Z</time>
      </trkpt>
      <trkpt lat="44.80145" lon="4.32637">
        <ele>1218.6</ele>
        <time>2022-06-09T10:32:54Z</time>
      </trkpt>
      <trkpt lat="44.80145" lon="4.32633">
        <ele>1218.7</ele>
        <time>2022-06-09T10:32:55Z</time>
      </trkpt>
      <trkpt lat="44.80144" lon="4.32631">
        <ele>1218.8</ele>
        <time>2022-06-09T10:32:56Z</time>
      </trkpt>
      <trkpt lat="44.80144" lon="4.32627">
        <ele>1218.9</ele>
        <time>2022-06-09T10:32:57Z</time>
      </trkpt>
      <trkpt lat="44.80144" lon="4.32625">
        <ele>1219</ele>
        <time>2022-06-09T10:32:58Z</time>
      </trkpt>
      <trkpt lat="44.80145" lon="4.32621">
        <ele>1219.2</ele>
        <time>2022-06-09T10:32:59Z</time>
      </trkpt>
      <trkpt lat="44.80145" lon="4.3262">
        <ele>1219.2</ele>
        <time>2022-06-09T10:33:00Z</time>
      </trkpt>
      <trkpt lat="44.80145" lon="4.32615">
        <ele>1219.4</ele>
        <time>2022-06-09T10:33:01Z</time>
      </trkpt>
      <trkpt lat="44.80145" lon="4.32614">
        <ele>1219.4</ele>
        <time>2022-06-09T10:33:02Z</time>
      </trkpt>
      <trkpt lat="44.80146" lon="4.3261">
        <ele>1219.6</ele>
        <time>2022-06-09T10:33:03Z</time>
      </trkpt>
      <trkpt lat="44.80146" lon="4.32609">
        <ele>1219.6</ele>
        <time>2022-06-09T10:33:04Z</time>
      </trkpt>
      <trkpt lat="44.80146" lon="4.32602">
        <ele>1219.8</ele>
        <time>2022-06-09T10:33:06Z</time>
      </trkpt>
      <trkpt lat="44.80146" lon="4.326">
        <ele>1219.9</ele>
        <time>2022-06-09T10:33:07Z</time>
      </trkpt>
      <trkpt lat="44.80146" lon="4.32598">
        <ele>1220</ele>
        <time>2022-06-09T10:33:08Z</time>
      </trkpt>
      <trkpt lat="44.80146" lon="4.32594">
        <ele>1220.1</ele>
        <time>2022-06-09T10:33:09Z</time>
      </trkpt>
      <trkpt lat="44.80146" lon="4.32588">
        <ele>1220.4</ele>
        <time>2022-06-09T10:33:11Z</time>
      </trkpt>
      <trkpt lat="44.80146" lon="4.32586">
        <ele>1220.4</ele>
        <time>2022-06-09T10:33:12Z</time>
      </trkpt>
      <trkpt lat="44.80146" lon="4.32583">
        <ele>1220.5</ele>
        <time>2022-06-09T10:33:13Z</time>
      </trkpt>
      <trkpt lat="44.80147" lon="4.32577">
        <ele>1220.8</ele>
        <time>2022-06-09T10:33:15Z</time>
      </trkpt>
      <trkpt lat="44.80147" lon="4.32575">
        <ele>1220.8</ele>
        <time>2022-06-09T10:33:16Z</time>
      </trkpt>
      <trkpt lat="44.80147" lon="4.32573">
        <ele>1220.9</ele>
        <time>2022-06-09T10:33:17Z</time>
      </trkpt>
      <trkpt lat="44.80147" lon="4.32568">
        <ele>1221.1</ele>
        <time>2022-06-09T10:33:18Z</time>
      </trkpt>
      <trkpt lat="44.80148" lon="4.32566">
        <ele>1221.2</ele>
        <time>2022-06-09T10:33:19Z</time>
      </trkpt>
      <trkpt lat="44.80148" lon="4.32561">
        <ele>1221.4</ele>
        <time>2022-06-09T10:33:21Z</time>
      </trkpt>
      <trkpt lat="44.80149" lon="4.3256">
        <ele>1221.5</ele>
        <time>2022-06-09T10:33:22Z</time>
      </trkpt>
      <trkpt lat="44.80149" lon="4.32555">
        <ele>1221.7</ele>
        <time>2022-06-09T10:33:23Z</time>
      </trkpt>
      <trkpt lat="44.8015" lon="4.32554">
        <ele>1221.7</ele>
        <time>2022-06-09T10:33:24Z</time>
      </trkpt>
      <trkpt lat="44.8015" lon="4.3255">
        <ele>1221.9</ele>
        <time>2022-06-09T10:33:25Z</time>
      </trkpt>
      <trkpt lat="44.8015" lon="4.32549">
        <ele>1222</ele>
        <time>2022-06-09T10:33:26Z</time>
      </trkpt>
      <trkpt lat="44.8015" lon="4.32545">
        <ele>1222.1</ele>
        <time>2022-06-09T10:33:27Z</time>
      </trkpt>
      <trkpt lat="44.80151" lon="4.32543">
        <ele>1222.2</ele>
        <time>2022-06-09T10:33:28Z</time>
      </trkpt>
      <trkpt lat="44.80151" lon="4.32541">
        <ele>1222.3</ele>
        <time>2022-06-09T10:33:29Z</time>
      </trkpt>
      <trkpt lat="44.80152" lon="4.32538">
        <ele>1222.4</ele>
        <time>2022-06-09T10:33:30Z</time>
      </trkpt>
      <trkpt lat="44.80152" lon="4.32535">
        <ele>1222.6</ele>
        <time>2022-06-09T10:33:31Z</time>
      </trkpt>
      <trkpt lat="44.80152" lon="4.32533">
        <ele>1222.6</ele>
        <time>2022-06-09T10:33:32Z</time>
      </trkpt>
      <trkpt lat="44.80153" lon="4.32529">
        <ele>1222.8</ele>
        <time>2022-06-09T10:33:33Z</time>
      </trkpt>
      <trkpt lat="44.80154" lon="4.32528">
        <ele>1222.9</ele>
        <time>2022-06-09T10:33:34Z</time>
      </trkpt>
      <trkpt lat="44.80155" lon="4.32524">
        <ele>1223.1</ele>
        <time>2022-06-09T10:33:35Z</time>
      </trkpt>
      <trkpt lat="44.80155" lon="4.32522">
        <ele>1223.2</ele>
        <time>2022-06-09T10:33:36Z</time>
      </trkpt>
      <trkpt lat="44.80156" lon="4.32516">
        <ele>1223.4</ele>
        <time>2022-06-09T10:33:37Z</time>
      </trkpt>
      <trkpt lat="44.80157" lon="4.32512">
        <ele>1223.6</ele>
        <time>2022-06-09T10:33:39Z</time>
      </trkpt>
      <trkpt lat="44.80157" lon="4.32511">
        <ele>1223.7</ele>
        <time>2022-06-09T10:33:40Z</time>
      </trkpt>
      <trkpt lat="44.80158" lon="4.32507">
        <ele>1223.9</ele>
        <time>2022-06-09T10:33:41Z</time>
      </trkpt>
      <trkpt lat="44.80159" lon="4.32506">
        <ele>1223.9</ele>
        <time>2022-06-09T10:33:42Z</time>
      </trkpt>
      <trkpt lat="44.8016" lon="4.32502">
        <ele>1224.1</ele>
        <time>2022-06-09T10:33:43Z</time>
      </trkpt>
      <trkpt lat="44.8016" lon="4.32501">
        <ele>1224.1</ele>
        <time>2022-06-09T10:33:44Z</time>
      </trkpt>
      <trkpt lat="44.80162" lon="4.32496">
        <ele>1224.4</ele>
        <time>2022-06-09T10:33:45Z</time>
      </trkpt>
      <trkpt lat="44.80162" lon="4.32494">
        <ele>1224.4</ele>
        <time>2022-06-09T10:33:46Z</time>
      </trkpt>
      <trkpt lat="44.80163" lon="4.3249">
        <ele>1224.6</ele>
        <time>2022-06-09T10:33:47Z</time>
      </trkpt>
      <trkpt lat="44.80165" lon="4.32487">
        <ele>1224.8</ele>
        <time>2022-06-09T10:33:49Z</time>
      </trkpt>
      <trkpt lat="44.80165" lon="4.32485">
        <ele>1224.9</ele>
        <time>2022-06-09T10:33:50Z</time>
      </trkpt>
      <trkpt lat="44.80166" lon="4.32483">
        <ele>1225</ele>
        <time>2022-06-09T10:33:51Z</time>
      </trkpt>
      <trkpt lat="44.80167" lon="4.32481">
        <ele>1225.1</ele>
        <time>2022-06-09T10:33:52Z</time>
      </trkpt>
      <trkpt lat="44.80167" lon="4.32476">
        <ele>1225.3</ele>
        <time>2022-06-09T10:33:53Z</time>
      </trkpt>
      <trkpt lat="44.80168" lon="4.32475">
        <ele>1225.3</ele>
        <time>2022-06-09T10:33:54Z</time>
      </trkpt>
      <trkpt lat="44.80169" lon="4.32471">
        <ele>1225.5</ele>
        <time>2022-06-09T10:33:55Z</time>
      </trkpt>
      <trkpt lat="44.8017" lon="4.3247">
        <ele>1225.6</ele>
        <time>2022-06-09T10:33:56Z</time>
      </trkpt>
      <trkpt lat="44.80171" lon="4.32466">
        <ele>1225.8</ele>
        <time>2022-06-09T10:33:57Z</time>
      </trkpt>
      <trkpt lat="44.80171" lon="4.32465">
        <ele>1225.8</ele>
        <time>2022-06-09T10:33:58Z</time>
      </trkpt>
      <trkpt lat="44.80173" lon="4.3246">
        <ele>1226.1</ele>
        <time>2022-06-09T10:33:59Z</time>
      </trkpt>
      <trkpt lat="44.80173" lon="4.32458">
        <ele>1226.1</ele>
        <time>2022-06-09T10:34:00Z</time>
      </trkpt>
      <trkpt lat="44.80174" lon="4.32455">
        <ele>1226.3</ele>
        <time>2022-06-09T10:34:02Z</time>
      </trkpt>
      <trkpt lat="44.80174" lon="4.32452">
        <ele>1226.4</ele>
        <time>2022-06-09T10:34:03Z</time>
      </trkpt>
      <trkpt lat="44.80175" lon="4.3245">
        <ele>1226.5</ele>
        <time>2022-06-09T10:34:04Z</time>
      </trkpt>
      <trkpt lat="44.80176" lon="4.32445">
        <ele>1226.8</ele>
        <time>2022-06-09T10:34:06Z</time>
      </trkpt>
      <trkpt lat="44.80177" lon="4.3244">
        <ele>1227</ele>
        <time>2022-06-09T10:34:07Z</time>
      </trkpt>
      <trkpt lat="44.80177" lon="4.32438">
        <ele>1227</ele>
        <time>2022-06-09T10:34:08Z</time>
      </trkpt>
      <trkpt lat="44.80178" lon="4.32435">
        <ele>1227.2</ele>
        <time>2022-06-09T10:34:09Z</time>
      </trkpt>
      <trkpt lat="44.80179" lon="4.3243">
        <ele>1227.4</ele>
        <time>2022-06-09T10:34:11Z</time>
      </trkpt>
      <trkpt lat="44.80179" lon="4.32429">
        <ele>1227.4</ele>
        <time>2022-06-09T10:34:12Z</time>
      </trkpt>
      <trkpt lat="44.8018" lon="4.32425">
        <ele>1227.6</ele>
        <time>2022-06-09T10:34:13Z</time>
      </trkpt>
      <trkpt lat="44.8018" lon="4.32424">
        <ele>1227.6</ele>
        <time>2022-06-09T10:34:14Z</time>
      </trkpt>
      <trkpt lat="44.8018" lon="4.32419">
        <ele>1227.8</ele>
        <time>2022-06-09T10:34:15Z</time>
      </trkpt>
      <trkpt lat="44.80181" lon="4.32417">
        <ele>1227.9</ele>
        <time>2022-06-09T10:34:16Z</time>
      </trkpt>
      <trkpt lat="44.80181" lon="4.3241">
        <ele>1228.2</ele>
        <time>2022-06-09T10:34:18Z</time>
      </trkpt>
      <trkpt lat="44.80181" lon="4.32408">
        <ele>1228.3</ele>
        <time>2022-06-09T10:34:19Z</time>
      </trkpt>
      <trkpt lat="44.80181" lon="4.32406">
        <ele>1228.4</ele>
        <time>2022-06-09T10:34:20Z</time>
      </trkpt>
      <trkpt lat="44.80181" lon="4.32401">
        <ele>1228.6</ele>
        <time>2022-06-09T10:34:22Z</time>
      </trkpt>
      <trkpt lat="44.80181" lon="4.324">
        <ele>1228.6</ele>
        <time>2022-06-09T10:34:23Z</time>
      </trkpt>
      <trkpt lat="44.80182" lon="4.32395">
        <ele>1228.8</ele>
        <time>2022-06-09T10:34:24Z</time>
      </trkpt>
      <trkpt lat="44.80181" lon="4.32392">
        <ele>1229</ele>
        <time>2022-06-09T10:34:25Z</time>
      </trkpt>
      <trkpt lat="44.80181" lon="4.32389">
        <ele>1229.1</ele>
        <time>2022-06-09T10:34:27Z</time>
      </trkpt>
      <trkpt lat="44.80181" lon="4.32385">
        <ele>1229.3</ele>
        <time>2022-06-09T10:34:28Z</time>
      </trkpt>
      <trkpt lat="44.80181" lon="4.32383">
        <ele>1229.4</ele>
        <time>2022-06-09T10:34:29Z</time>
      </trkpt>
      <trkpt lat="44.80181" lon="4.3238">
        <ele>1229.5</ele>
        <time>2022-06-09T10:34:30Z</time>
      </trkpt>
      <trkpt lat="44.80181" lon="4.32378">
        <ele>1229.6</ele>
        <time>2022-06-09T10:34:31Z</time>
      </trkpt>
      <trkpt lat="44.8018" lon="4.32372">
        <ele>1229.9</ele>
        <time>2022-06-09T10:34:33Z</time>
      </trkpt>
      <trkpt lat="44.8018" lon="4.3237">
        <ele>1230</ele>
        <time>2022-06-09T10:34:34Z</time>
      </trkpt>
      <trkpt lat="44.8018" lon="4.32369">
        <ele>1230</ele>
        <time>2022-06-09T10:34:35Z</time>
      </trkpt>
      <trkpt lat="44.8018" lon="4.32365">
        <ele>1230.2</ele>
        <time>2022-06-09T10:34:36Z</time>
      </trkpt>
      <trkpt lat="44.8018" lon="4.32364">
        <ele>1230.3</ele>
        <time>2022-06-09T10:34:37Z</time>
      </trkpt>
      <trkpt lat="44.80179" lon="4.32359">
        <ele>1230.4</ele>
        <time>2022-06-09T10:34:38Z</time>
      </trkpt>
      <trkpt lat="44.80178" lon="4.32354">
        <ele>1230.7</ele>
        <time>2022-06-09T10:34:39Z</time>
      </trkpt>
      <trkpt lat="44.80178" lon="4.32353">
        <ele>1230.7</ele>
        <time>2022-06-09T10:34:40Z</time>
      </trkpt>
      <trkpt lat="44.80176" lon="4.32349">
        <ele>1230.9</ele>
        <time>2022-06-09T10:34:41Z</time>
      </trkpt>
      <trkpt lat="44.80176" lon="4.32348">
        <ele>1231</ele>
        <time>2022-06-09T10:34:42Z</time>
      </trkpt>
      <trkpt lat="44.80176" lon="4.32343">
        <ele>1231.2</ele>
        <time>2022-06-09T10:34:44Z</time>
      </trkpt>
      <trkpt lat="44.80176" lon="4.32342">
        <ele>1231.2</ele>
        <time>2022-06-09T10:34:45Z</time>
      </trkpt>
      <trkpt lat="44.80175" lon="4.32339">
        <ele>1231.4</ele>
        <time>2022-06-09T10:34:46Z</time>
      </trkpt>
      <trkpt lat="44.80175" lon="4.32337">
        <ele>1231.5</ele>
        <time>2022-06-09T10:34:47Z</time>
      </trkpt>
      <trkpt lat="44.80173" lon="4.32333">
        <ele>1231.7</ele>
        <time>2022-06-09T10:34:48Z</time>
      </trkpt>
      <trkpt lat="44.80173" lon="4.32332">
        <ele>1231.7</ele>
        <time>2022-06-09T10:34:49Z</time>
      </trkpt>
      <trkpt lat="44.80172" lon="4.32327">
        <ele>1231.9</ele>
        <time>2022-06-09T10:34:50Z</time>
      </trkpt>
      <trkpt lat="44.80172" lon="4.32326">
        <ele>1232</ele>
        <time>2022-06-09T10:34:51Z</time>
      </trkpt>
      <trkpt lat="44.80171" lon="4.32324">
        <ele>1232.1</ele>
        <time>2022-06-09T10:34:52Z</time>
      </trkpt>
      <trkpt lat="44.80171" lon="4.32321">
        <ele>1232.2</ele>
        <time>2022-06-09T10:34:53Z</time>
      </trkpt>
      <trkpt lat="44.8017" lon="4.32318">
        <ele>1232.4</ele>
        <time>2022-06-09T10:34:54Z</time>
      </trkpt>
      <trkpt lat="44.80169" lon="4.32313">
        <ele>1232.6</ele>
        <time>2022-06-09T10:34:55Z</time>
      </trkpt>
      <trkpt lat="44.80169" lon="4.32311">
        <ele>1232.6</ele>
        <time>2022-06-09T10:34:56Z</time>
      </trkpt>
      <trkpt lat="44.80168" lon="4.32306">
        <ele>1232.9</ele>
        <time>2022-06-09T10:34:58Z</time>
      </trkpt>
      <trkpt lat="44.80167" lon="4.32304">
        <ele>1233</ele>
        <time>2022-06-09T10:34:59Z</time>
      </trkpt>
      <trkpt lat="44.80166" lon="4.323">
        <ele>1233.2</ele>
        <time>2022-06-09T10:35:00Z</time>
      </trkpt>
      <trkpt lat="44.80166" lon="4.32298">
        <ele>1233.2</ele>
        <time>2022-06-09T10:35:01Z</time>
      </trkpt>
      <trkpt lat="44.80166" lon="4.32293">
        <ele>1233.5</ele>
        <time>2022-06-09T10:35:03Z</time>
      </trkpt>
      <trkpt lat="44.80166" lon="4.32291">
        <ele>1233.5</ele>
        <time>2022-06-09T10:35:04Z</time>
      </trkpt>
      <trkpt lat="44.80164" lon="4.32285">
        <ele>1233.8</ele>
        <time>2022-06-09T10:35:06Z</time>
      </trkpt>
      <trkpt lat="44.80164" lon="4.32283">
        <ele>1233.9</ele>
        <time>2022-06-09T10:35:07Z</time>
      </trkpt>
      <trkpt lat="44.80164" lon="4.32281">
        <ele>1234</ele>
        <time>2022-06-09T10:35:08Z</time>
      </trkpt>
      <trkpt lat="44.80164" lon="4.32277">
        <ele>1234.2</ele>
        <time>2022-06-09T10:35:09Z</time>
      </trkpt>
      <trkpt lat="44.80164" lon="4.32275">
        <ele>1234.2</ele>
        <time>2022-06-09T10:35:10Z</time>
      </trkpt>
      <trkpt lat="44.80164" lon="4.3227">
        <ele>1234.4</ele>
        <time>2022-06-09T10:35:11Z</time>
      </trkpt>
      <trkpt lat="44.80163" lon="4.32269">
        <ele>1234.5</ele>
        <time>2022-06-09T10:35:12Z</time>
      </trkpt>
      <trkpt lat="44.80163" lon="4.32264">
        <ele>1234.7</ele>
        <time>2022-06-09T10:35:13Z</time>
      </trkpt>
      <trkpt lat="44.80163" lon="4.32263">
        <ele>1234.8</ele>
        <time>2022-06-09T10:35:14Z</time>
      </trkpt>
      <trkpt lat="44.80163" lon="4.32258">
        <ele>1235</ele>
        <time>2022-06-09T10:35:15Z</time>
      </trkpt>
      <trkpt lat="44.80163" lon="4.32256">
        <ele>1235.1</ele>
        <time>2022-06-09T10:35:16Z</time>
      </trkpt>
      <trkpt lat="44.80163" lon="4.32251">
        <ele>1235.3</ele>
        <time>2022-06-09T10:35:18Z</time>
      </trkpt>
      <trkpt lat="44.80163" lon="4.3225">
        <ele>1235.3</ele>
        <time>2022-06-09T10:35:19Z</time>
      </trkpt>
      <trkpt lat="44.80163" lon="4.32246">
        <ele>1235.5</ele>
        <time>2022-06-09T10:35:20Z</time>
      </trkpt>
      <trkpt lat="44.80164" lon="4.32245">
        <ele>1235.6</ele>
        <time>2022-06-09T10:35:21Z</time>
      </trkpt>
      <trkpt lat="44.80164" lon="4.32242">
        <ele>1235.7</ele>
        <time>2022-06-09T10:35:22Z</time>
      </trkpt>
      <trkpt lat="44.80164" lon="4.3224">
        <ele>1235.8</ele>
        <time>2022-06-09T10:35:23Z</time>
      </trkpt>
      <trkpt lat="44.80164" lon="4.32238">
        <ele>1235.9</ele>
        <time>2022-06-09T10:35:24Z</time>
      </trkpt>
      <trkpt lat="44.80164" lon="4.32235">
        <ele>1236</ele>
        <time>2022-06-09T10:35:25Z</time>
      </trkpt>
      <trkpt lat="44.80165" lon="4.32231">
        <ele>1236.1</ele>
        <time>2022-06-09T10:35:26Z</time>
      </trkpt>
      <trkpt lat="44.80165" lon="4.3223">
        <ele>1236.2</ele>
        <time>2022-06-09T10:35:27Z</time>
      </trkpt>
      <trkpt lat="44.80166" lon="4.32226">
        <ele>1236.4</ele>
        <time>2022-06-09T10:35:28Z</time>
      </trkpt>
      <trkpt lat="44.80166" lon="4.32225">
        <ele>1236.4</ele>
        <time>2022-06-09T10:35:29Z</time>
      </trkpt>
      <trkpt lat="44.80167" lon="4.32221">
        <ele>1236.6</ele>
        <time>2022-06-09T10:35:30Z</time>
      </trkpt>
      <trkpt lat="44.80167" lon="4.32219">
        <ele>1236.7</ele>
        <time>2022-06-09T10:35:31Z</time>
      </trkpt>
      <trkpt lat="44.80168" lon="4.32214">
        <ele>1236.9</ele>
        <time>2022-06-09T10:35:32Z</time>
      </trkpt>
      <trkpt lat="44.80169" lon="4.3221">
        <ele>1237.1</ele>
        <time>2022-06-09T10:35:34Z</time>
      </trkpt>
      <trkpt lat="44.80169" lon="4.32209">
        <ele>1237.1</ele>
        <time>2022-06-09T10:35:35Z</time>
      </trkpt>
      <trkpt lat="44.8017" lon="4.32205">
        <ele>1237.3</ele>
        <time>2022-06-09T10:35:36Z</time>
      </trkpt>
      <trkpt lat="44.80171" lon="4.32204">
        <ele>1237.3</ele>
        <time>2022-06-09T10:35:37Z</time>
      </trkpt>
      <trkpt lat="44.80172" lon="4.322">
        <ele>1237.5</ele>
        <time>2022-06-09T10:35:38Z</time>
      </trkpt>
      <trkpt lat="44.80172" lon="4.32198">
        <ele>1237.6</ele>
        <time>2022-06-09T10:35:39Z</time>
      </trkpt>
      <trkpt lat="44.80174" lon="4.32195">
        <ele>1237.8</ele>
        <time>2022-06-09T10:35:41Z</time>
      </trkpt>
      <trkpt lat="44.80176" lon="4.32191">
        <ele>1238</ele>
        <time>2022-06-09T10:35:42Z</time>
      </trkpt>
      <trkpt lat="44.80176" lon="4.32189">
        <ele>1238</ele>
        <time>2022-06-09T10:35:43Z</time>
      </trkpt>
      <trkpt lat="44.80178" lon="4.32187">
        <ele>1238.2</ele>
        <time>2022-06-09T10:35:44Z</time>
      </trkpt>
      <trkpt lat="44.8018" lon="4.32184">
        <ele>1238.3</ele>
        <time>2022-06-09T10:35:46Z</time>
      </trkpt>
      <trkpt lat="44.80182" lon="4.3218">
        <ele>1238.6</ele>
        <time>2022-06-09T10:35:47Z</time>
      </trkpt>
      <trkpt lat="44.80183" lon="4.32178">
        <ele>1238.6</ele>
        <time>2022-06-09T10:35:48Z</time>
      </trkpt>
      <trkpt lat="44.80185" lon="4.32175">
        <ele>1238.8</ele>
        <time>2022-06-09T10:35:50Z</time>
      </trkpt>
      <trkpt lat="44.80186" lon="4.32173">
        <ele>1238.9</ele>
        <time>2022-06-09T10:35:51Z</time>
      </trkpt>
      <trkpt lat="44.80188" lon="4.3217">
        <ele>1239.1</ele>
        <time>2022-06-09T10:35:52Z</time>
      </trkpt>
      <trkpt lat="44.80189" lon="4.32168">
        <ele>1239.2</ele>
        <time>2022-06-09T10:35:54Z</time>
      </trkpt>
      <trkpt lat="44.8019" lon="4.32166">
        <ele>1239.3</ele>
        <time>2022-06-09T10:35:55Z</time>
      </trkpt>
      <trkpt lat="44.80191" lon="4.32164">
        <ele>1239.4</ele>
        <time>2022-06-09T10:35:56Z</time>
      </trkpt>
      <trkpt lat="44.80193" lon="4.3216">
        <ele>1239.6</ele>
        <time>2022-06-09T10:35:58Z</time>
      </trkpt>
      <trkpt lat="44.80195" lon="4.32156">
        <ele>1239.8</ele>
        <time>2022-06-09T10:35:59Z</time>
      </trkpt>
      <trkpt lat="44.80197" lon="4.32153">
        <ele>1240</ele>
        <time>2022-06-09T10:36:01Z</time>
      </trkpt>
      <trkpt lat="44.80198" lon="4.32152">
        <ele>1240</ele>
        <time>2022-06-09T10:36:02Z</time>
      </trkpt>
      <trkpt lat="44.80201" lon="4.32149">
        <ele>1240.2</ele>
        <time>2022-06-09T10:36:03Z</time>
      </trkpt>
      <trkpt lat="44.80202" lon="4.32148">
        <ele>1240.2</ele>
        <time>2022-06-09T10:36:04Z</time>
      </trkpt>
      <trkpt lat="44.80204" lon="4.32145">
        <ele>1240.4</ele>
        <time>2022-06-09T10:36:05Z</time>
      </trkpt>
      <trkpt lat="44.80205" lon="4.32143">
        <ele>1240.4</ele>
        <time>2022-06-09T10:36:06Z</time>
      </trkpt>
      <trkpt lat="44.80208" lon="4.32138">
        <ele>1240.7</ele>
        <time>2022-06-09T10:36:07Z</time>
      </trkpt>
      <trkpt lat="44.80209" lon="4.32136">
        <ele>1240.8</ele>
        <time>2022-06-09T10:36:08Z</time>
      </trkpt>
      <trkpt lat="44.80211" lon="4.32133">
        <ele>1240.9</ele>
        <time>2022-06-09T10:36:10Z</time>
      </trkpt>
      <trkpt lat="44.80214" lon="4.32129">
        <ele>1241.1</ele>
        <time>2022-06-09T10:36:11Z</time>
      </trkpt>
      <trkpt lat="44.80215" lon="4.32128">
        <ele>1241.1</ele>
        <time>2022-06-09T10:36:12Z</time>
      </trkpt>
      <trkpt lat="44.80217" lon="4.32125">
        <ele>1241.3</ele>
        <time>2022-06-09T10:36:13Z</time>
      </trkpt>
      <trkpt lat="44.80218" lon="4.32124">
        <ele>1241.3</ele>
        <time>2022-06-09T10:36:14Z</time>
      </trkpt>
      <trkpt lat="44.8022" lon="4.3212">
        <ele>1241.5</ele>
        <time>2022-06-09T10:36:15Z</time>
      </trkpt>
      <trkpt lat="44.80221" lon="4.32118">
        <ele>1241.5</ele>
        <time>2022-06-09T10:36:16Z</time>
      </trkpt>
      <trkpt lat="44.80223" lon="4.32115">
        <ele>1241.7</ele>
        <time>2022-06-09T10:36:17Z</time>
      </trkpt>
      <trkpt lat="44.80224" lon="4.32114">
        <ele>1241.7</ele>
        <time>2022-06-09T10:36:18Z</time>
      </trkpt>
      <trkpt lat="44.80227" lon="4.32109">
        <ele>1241.9</ele>
        <time>2022-06-09T10:36:19Z</time>
      </trkpt>
      <trkpt lat="44.80228" lon="4.32106">
        <ele>1242</ele>
        <time>2022-06-09T10:36:20Z</time>
      </trkpt>
      <trkpt lat="44.80231" lon="4.32104">
        <ele>1242.2</ele>
        <time>2022-06-09T10:36:22Z</time>
      </trkpt>
      <trkpt lat="44.80232" lon="4.32103">
        <ele>1242.2</ele>
        <time>2022-06-09T10:36:23Z</time>
      </trkpt>
      <trkpt lat="44.80235" lon="4.32099">
        <ele>1242.4</ele>
        <time>2022-06-09T10:36:24Z</time>
      </trkpt>
      <trkpt lat="44.80237" lon="4.32095">
        <ele>1242.5</ele>
        <time>2022-06-09T10:36:26Z</time>
      </trkpt>
      <trkpt lat="44.80238" lon="4.32094">
        <ele>1242.6</ele>
        <time>2022-06-09T10:36:27Z</time>
      </trkpt>
      <trkpt lat="44.8024" lon="4.32091">
        <ele>1242.8</ele>
        <time>2022-06-09T10:36:28Z</time>
      </trkpt>
      <trkpt lat="44.80242" lon="4.32087">
        <ele>1242.9</ele>
        <time>2022-06-09T10:36:29Z</time>
      </trkpt>
      <trkpt lat="44.80244" lon="4.32083">
        <ele>1243.1</ele>
        <time>2022-06-09T10:36:31Z</time>
      </trkpt>
      <trkpt lat="44.80245" lon="4.32081">
        <ele>1243.2</ele>
        <time>2022-06-09T10:36:32Z</time>
      </trkpt>
      <trkpt lat="44.80246" lon="4.3208">
        <ele>1243.3</ele>
        <time>2022-06-09T10:36:33Z</time>
      </trkpt>
      <trkpt lat="44.80248" lon="4.32077">
        <ele>1243.4</ele>
        <time>2022-06-09T10:36:34Z</time>
      </trkpt>
      <trkpt lat="44.80248" lon="4.32075">
        <ele>1243.5</ele>
        <time>2022-06-09T10:36:35Z</time>
      </trkpt>
      <trkpt lat="44.8025" lon="4.32072">
        <ele>1243.6</ele>
        <time>2022-06-09T10:36:36Z</time>
      </trkpt>
      <trkpt lat="44.8025" lon="4.3207">
        <ele>1243.7</ele>
        <time>2022-06-09T10:36:37Z</time>
      </trkpt>
      <trkpt lat="44.80253" lon="4.32067">
        <ele>1243.9</ele>
        <time>2022-06-09T10:36:38Z</time>
      </trkpt>
      <trkpt lat="44.80254" lon="4.32065">
        <ele>1244</ele>
        <time>2022-06-09T10:36:39Z</time>
      </trkpt>
      <trkpt lat="44.80256" lon="4.32061">
        <ele>1244.2</ele>
        <time>2022-06-09T10:36:41Z</time>
      </trkpt>
      <trkpt lat="44.80258" lon="4.32057">
        <ele>1244.3</ele>
        <time>2022-06-09T10:36:43Z</time>
      </trkpt>
      <trkpt lat="44.80259" lon="4.32056">
        <ele>1244.3</ele>
        <time>2022-06-09T10:36:44Z</time>
      </trkpt>
      <trkpt lat="44.8026" lon="4.32054">
        <ele>1244.3</ele>
        <time>2022-06-09T10:36:45Z</time>
      </trkpt>
      <trkpt lat="44.80261" lon="4.3205">
        <ele>1244.3</ele>
        <time>2022-06-09T10:36:46Z</time>
      </trkpt>
      <trkpt lat="44.80261" lon="4.32049">
        <ele>1244.4</ele>
        <time>2022-06-09T10:36:47Z</time>
      </trkpt>
      <trkpt lat="44.80263" lon="4.32045">
        <ele>1244.4</ele>
        <time>2022-06-09T10:36:48Z</time>
      </trkpt>
      <trkpt lat="44.80266" lon="4.32041">
        <ele>1244.5</ele>
        <time>2022-06-09T10:36:50Z</time>
      </trkpt>
      <trkpt lat="44.80266" lon="4.3204">
        <ele>1244.5</ele>
        <time>2022-06-09T10:36:51Z</time>
      </trkpt>
      <trkpt lat="44.80269" lon="4.32035">
        <ele>1244.6</ele>
        <time>2022-06-09T10:36:52Z</time>
      </trkpt>
      <trkpt lat="44.80269" lon="4.32034">
        <ele>1244.7</ele>
        <time>2022-06-09T10:36:53Z</time>
      </trkpt>
      <trkpt lat="44.80271" lon="4.3203">
        <ele>1244.7</ele>
        <time>2022-06-09T10:36:54Z</time>
      </trkpt>
      <trkpt lat="44.80273" lon="4.32025">
        <ele>1244.8</ele>
        <time>2022-06-09T10:36:55Z</time>
      </trkpt>
      <trkpt lat="44.80274" lon="4.32023">
        <ele>1244.9</ele>
        <time>2022-06-09T10:36:56Z</time>
      </trkpt>
      <trkpt lat="44.80276" lon="4.32017">
        <ele>1245</ele>
        <time>2022-06-09T10:36:58Z</time>
      </trkpt>
      <trkpt lat="44.80277" lon="4.32014">
        <ele>1245.1</ele>
        <time>2022-06-09T10:36:59Z</time>
      </trkpt>
      <trkpt lat="44.80278" lon="4.32011">
        <ele>1245.1</ele>
        <time>2022-06-09T10:37:00Z</time>
      </trkpt>
      <trkpt lat="44.8028" lon="4.32007">
        <ele>1245.2</ele>
        <time>2022-06-09T10:37:02Z</time>
      </trkpt>
      <trkpt lat="44.80282" lon="4.32003">
        <ele>1245.3</ele>
        <time>2022-06-09T10:37:03Z</time>
      </trkpt>
      <trkpt lat="44.80284" lon="4.31998">
        <ele>1245.4</ele>
        <time>2022-06-09T10:37:04Z</time>
      </trkpt>
      <trkpt lat="44.80284" lon="4.31997">
        <ele>1245.4</ele>
        <time>2022-06-09T10:37:05Z</time>
      </trkpt>
      <trkpt lat="44.80286" lon="4.3199">
        <ele>1245.6</ele>
        <time>2022-06-09T10:37:07Z</time>
      </trkpt>
      <trkpt lat="44.80287" lon="4.31987">
        <ele>1245.6</ele>
        <time>2022-06-09T10:37:08Z</time>
      </trkpt>
      <trkpt lat="44.80288" lon="4.31985">
        <ele>1245.7</ele>
        <time>2022-06-09T10:37:09Z</time>
      </trkpt>
      <trkpt lat="44.80291" lon="4.31981">
        <ele>1245.9</ele>
        <time>2022-06-09T10:37:10Z</time>
      </trkpt>
      <trkpt lat="44.80292" lon="4.31979">
        <ele>1246</ele>
        <time>2022-06-09T10:37:11Z</time>
      </trkpt>
      <trkpt lat="44.80293" lon="4.31975">
        <ele>1246.1</ele>
        <time>2022-06-09T10:37:12Z</time>
      </trkpt>
      <trkpt lat="44.80294" lon="4.31973">
        <ele>1246.2</ele>
        <time>2022-06-09T10:37:13Z</time>
      </trkpt>
      <trkpt lat="44.80295" lon="4.3197">
        <ele>1246.3</ele>
        <time>2022-06-09T10:37:15Z</time>
      </trkpt>
      <trkpt lat="44.80296" lon="4.31966">
        <ele>1246.4</ele>
        <time>2022-06-09T10:37:16Z</time>
      </trkpt>
      <trkpt lat="44.80298" lon="4.31961">
        <ele>1246.6</ele>
        <time>2022-06-09T10:37:17Z</time>
      </trkpt>
      <trkpt lat="44.80299" lon="4.3196">
        <ele>1246.7</ele>
        <time>2022-06-09T10:37:18Z</time>
      </trkpt>
      <trkpt lat="44.80301" lon="4.31956">
        <ele>1246.9</ele>
        <time>2022-06-09T10:37:19Z</time>
      </trkpt>
      <trkpt lat="44.80304" lon="4.3195">
        <ele>1247.2</ele>
        <time>2022-06-09T10:37:21Z</time>
      </trkpt>
      <trkpt lat="44.80305" lon="4.31948">
        <ele>1247.3</ele>
        <time>2022-06-09T10:37:22Z</time>
      </trkpt>
      <trkpt lat="44.80306" lon="4.31946">
        <ele>1247.4</ele>
        <time>2022-06-09T10:37:23Z</time>
      </trkpt>
      <trkpt lat="44.80308" lon="4.31943">
        <ele>1247.5</ele>
        <time>2022-06-09T10:37:24Z</time>
      </trkpt>
      <trkpt lat="44.80309" lon="4.31939">
        <ele>1247.7</ele>
        <time>2022-06-09T10:37:25Z</time>
      </trkpt>
      <trkpt lat="44.80312" lon="4.31934">
        <ele>1248</ele>
        <time>2022-06-09T10:37:26Z</time>
      </trkpt>
      <trkpt lat="44.80313" lon="4.31932">
        <ele>1248.1</ele>
        <time>2022-06-09T10:37:27Z</time>
      </trkpt>
      <trkpt lat="44.80314" lon="4.31929">
        <ele>1248.2</ele>
        <time>2022-06-09T10:37:29Z</time>
      </trkpt>
      <trkpt lat="44.80316" lon="4.31925">
        <ele>1248.4</ele>
        <time>2022-06-09T10:37:30Z</time>
      </trkpt>
      <trkpt lat="44.80316" lon="4.31924">
        <ele>1248.5</ele>
        <time>2022-06-09T10:37:31Z</time>
      </trkpt>
      <trkpt lat="44.80317" lon="4.3192">
        <ele>1248.7</ele>
        <time>2022-06-09T10:37:32Z</time>
      </trkpt>
      <trkpt lat="44.80318" lon="4.31919">
        <ele>1248.7</ele>
        <time>2022-06-09T10:37:33Z</time>
      </trkpt>
      <trkpt lat="44.80319" lon="4.31915">
        <ele>1248.9</ele>
        <time>2022-06-09T10:37:34Z</time>
      </trkpt>
      <trkpt lat="44.80319" lon="4.31914">
        <ele>1249</ele>
        <time>2022-06-09T10:37:35Z</time>
      </trkpt>
      <trkpt lat="44.80321" lon="4.31911">
        <ele>1249.2</ele>
        <time>2022-06-09T10:37:36Z</time>
      </trkpt>
      <trkpt lat="44.80321" lon="4.31909">
        <ele>1249.2</ele>
        <time>2022-06-09T10:37:37Z</time>
      </trkpt>
      <trkpt lat="44.80322" lon="4.31907">
        <ele>1249.4</ele>
        <time>2022-06-09T10:37:38Z</time>
      </trkpt>
      <trkpt lat="44.80323" lon="4.31906">
        <ele>1249.4</ele>
        <time>2022-06-09T10:37:39Z</time>
      </trkpt>
      <trkpt lat="44.80324" lon="4.31904">
        <ele>1249.5</ele>
        <time>2022-06-09T10:37:40Z</time>
      </trkpt>
      <trkpt lat="44.80325" lon="4.31902">
        <ele>1249.7</ele>
        <time>2022-06-09T10:37:41Z</time>
      </trkpt>
      <trkpt lat="44.80326" lon="4.319">
        <ele>1249.7</ele>
        <time>2022-06-09T10:37:42Z</time>
      </trkpt>
      <trkpt lat="44.80326" lon="4.31898">
        <ele>1249.8</ele>
        <time>2022-06-09T10:37:43Z</time>
      </trkpt>
      <trkpt lat="44.80328" lon="4.31894">
        <ele>1250.1</ele>
        <time>2022-06-09T10:37:44Z</time>
      </trkpt>
      <trkpt lat="44.80328" lon="4.31892">
        <ele>1250.1</ele>
        <time>2022-06-09T10:37:45Z</time>
      </trkpt>
      <trkpt lat="44.80329" lon="4.31888">
        <ele>1250.3</ele>
        <time>2022-06-09T10:37:47Z</time>
      </trkpt>
      <trkpt lat="44.8033" lon="4.31886">
        <ele>1250.4</ele>
        <time>2022-06-09T10:37:48Z</time>
      </trkpt>
      <trkpt lat="44.80331" lon="4.31882">
        <ele>1250.6</ele>
        <time>2022-06-09T10:37:49Z</time>
      </trkpt>
      <trkpt lat="44.80331" lon="4.31878">
        <ele>1250.8</ele>
        <time>2022-06-09T10:37:51Z</time>
      </trkpt>
      <trkpt lat="44.80332" lon="4.31876">
        <ele>1250.9</ele>
        <time>2022-06-09T10:37:52Z</time>
      </trkpt>
      <trkpt lat="44.80332" lon="4.31872">
        <ele>1251</ele>
        <time>2022-06-09T10:37:53Z</time>
      </trkpt>
      <trkpt lat="44.80333" lon="4.31871">
        <ele>1251.1</ele>
        <time>2022-06-09T10:37:54Z</time>
      </trkpt>
      <trkpt lat="44.80334" lon="4.31867">
        <ele>1251.3</ele>
        <time>2022-06-09T10:37:55Z</time>
      </trkpt>
      <trkpt lat="44.80334" lon="4.31865">
        <ele>1251.3</ele>
        <time>2022-06-09T10:37:56Z</time>
      </trkpt>
      <trkpt lat="44.80334" lon="4.31863">
        <ele>1251.4</ele>
        <time>2022-06-09T10:37:57Z</time>
      </trkpt>
      <trkpt lat="44.80335" lon="4.31859">
        <ele>1251.6</ele>
        <time>2022-06-09T10:37:59Z</time>
      </trkpt>
      <trkpt lat="44.80335" lon="4.31855">
        <ele>1251.8</ele>
        <time>2022-06-09T10:38:00Z</time>
      </trkpt>
      <trkpt lat="44.80336" lon="4.31849">
        <ele>1252</ele>
        <time>2022-06-09T10:38:02Z</time>
      </trkpt>
      <trkpt lat="44.80336" lon="4.31846">
        <ele>1252.1</ele>
        <time>2022-06-09T10:38:03Z</time>
      </trkpt>
      <trkpt lat="44.80337" lon="4.31843">
        <ele>1252.2</ele>
        <time>2022-06-09T10:38:05Z</time>
      </trkpt>
      <trkpt lat="44.80337" lon="4.31839">
        <ele>1252.4</ele>
        <time>2022-06-09T10:38:06Z</time>
      </trkpt>
      <trkpt lat="44.80337" lon="4.31838">
        <ele>1252.4</ele>
        <time>2022-06-09T10:38:07Z</time>
      </trkpt>
      <trkpt lat="44.80337" lon="4.31833">
        <ele>1252.6</ele>
        <time>2022-06-09T10:38:08Z</time>
      </trkpt>
      <trkpt lat="44.80337" lon="4.31832">
        <ele>1252.6</ele>
        <time>2022-06-09T10:38:09Z</time>
      </trkpt>
      <trkpt lat="44.80337" lon="4.31828">
        <ele>1252.8</ele>
        <time>2022-06-09T10:38:10Z</time>
      </trkpt>
      <trkpt lat="44.80337" lon="4.31827">
        <ele>1252.8</ele>
        <time>2022-06-09T10:38:11Z</time>
      </trkpt>
      <trkpt lat="44.80337" lon="4.31823">
        <ele>1252.9</ele>
        <time>2022-06-09T10:38:12Z</time>
      </trkpt>
      <trkpt lat="44.80337" lon="4.31821">
        <ele>1253</ele>
        <time>2022-06-09T10:38:13Z</time>
      </trkpt>
      <trkpt lat="44.80337" lon="4.31818">
        <ele>1253.1</ele>
        <time>2022-06-09T10:38:14Z</time>
      </trkpt>
      <trkpt lat="44.80338" lon="4.31816">
        <ele>1253.1</ele>
        <time>2022-06-09T10:38:15Z</time>
      </trkpt>
      <trkpt lat="44.80338" lon="4.31812">
        <ele>1253.3</ele>
        <time>2022-06-09T10:38:16Z</time>
      </trkpt>
      <trkpt lat="44.80338" lon="4.3181">
        <ele>1253.3</ele>
        <time>2022-06-09T10:38:17Z</time>
      </trkpt>
      <trkpt lat="44.80338" lon="4.31805">
        <ele>1253.5</ele>
        <time>2022-06-09T10:38:18Z</time>
      </trkpt>
      <trkpt lat="44.80338" lon="4.31804">
        <ele>1253.5</ele>
        <time>2022-06-09T10:38:19Z</time>
      </trkpt>
      <trkpt lat="44.80339" lon="4.31799">
        <ele>1253.7</ele>
        <time>2022-06-09T10:38:20Z</time>
      </trkpt>
      <trkpt lat="44.80339" lon="4.31798">
        <ele>1253.7</ele>
        <time>2022-06-09T10:38:21Z</time>
      </trkpt>
      <trkpt lat="44.80339" lon="4.31793">
        <ele>1253.9</ele>
        <time>2022-06-09T10:38:22Z</time>
      </trkpt>
      <trkpt lat="44.80339" lon="4.31792">
        <ele>1253.9</ele>
        <time>2022-06-09T10:38:23Z</time>
      </trkpt>
      <trkpt lat="44.8034" lon="4.31788">
        <ele>1254.1</ele>
        <time>2022-06-09T10:38:24Z</time>
      </trkpt>
      <trkpt lat="44.8034" lon="4.31786">
        <ele>1254.1</ele>
        <time>2022-06-09T10:38:25Z</time>
      </trkpt>
      <trkpt lat="44.8034" lon="4.31782">
        <ele>1254.2</ele>
        <time>2022-06-09T10:38:26Z</time>
      </trkpt>
      <trkpt lat="44.80341" lon="4.31781">
        <ele>1254.3</ele>
        <time>2022-06-09T10:38:27Z</time>
      </trkpt>
      <trkpt lat="44.80341" lon="4.31775">
        <ele>1254.5</ele>
        <time>2022-06-09T10:38:28Z</time>
      </trkpt>
      <trkpt lat="44.80342" lon="4.3177">
        <ele>1254.6</ele>
        <time>2022-06-09T10:38:30Z</time>
      </trkpt>
      <trkpt lat="44.80342" lon="4.31768">
        <ele>1254.7</ele>
        <time>2022-06-09T10:38:31Z</time>
      </trkpt>
      <trkpt lat="44.80342" lon="4.31763">
        <ele>1254.9</ele>
        <time>2022-06-09T10:38:33Z</time>
      </trkpt>
      <trkpt lat="44.80343" lon="4.31761">
        <ele>1254.9</ele>
        <time>2022-06-09T10:38:34Z</time>
      </trkpt>
      <trkpt lat="44.80343" lon="4.31759">
        <ele>1255</ele>
        <time>2022-06-09T10:38:35Z</time>
      </trkpt>
      <trkpt lat="44.80343" lon="4.31755">
        <ele>1255.1</ele>
        <time>2022-06-09T10:38:36Z</time>
      </trkpt>
      <trkpt lat="44.80343" lon="4.31754">
        <ele>1255.2</ele>
        <time>2022-06-09T10:38:37Z</time>
      </trkpt>
      <trkpt lat="44.80344" lon="4.31748">
        <ele>1255.3</ele>
        <time>2022-06-09T10:38:38Z</time>
      </trkpt>
      <trkpt lat="44.80344" lon="4.31744">
        <ele>1255.5</ele>
        <time>2022-06-09T10:38:40Z</time>
      </trkpt>
      <trkpt lat="44.80344" lon="4.31742">
        <ele>1255.5</ele>
        <time>2022-06-09T10:38:41Z</time>
      </trkpt>
      <trkpt lat="44.80344" lon="4.3174">
        <ele>1255.6</ele>
        <time>2022-06-09T10:38:42Z</time>
      </trkpt>
      <trkpt lat="44.80344" lon="4.31738">
        <ele>1255.7</ele>
        <time>2022-06-09T10:38:43Z</time>
      </trkpt>
      <trkpt lat="44.80345" lon="4.31734">
        <ele>1255.8</ele>
        <time>2022-06-09T10:38:44Z</time>
      </trkpt>
      <trkpt lat="44.80345" lon="4.31732">
        <ele>1255.9</ele>
        <time>2022-06-09T10:38:45Z</time>
      </trkpt>
      <trkpt lat="44.80345" lon="4.31728">
        <ele>1256.1</ele>
        <time>2022-06-09T10:38:46Z</time>
      </trkpt>
      <trkpt lat="44.80346" lon="4.31724">
        <ele>1256.2</ele>
        <time>2022-06-09T10:38:48Z</time>
      </trkpt>
      <trkpt lat="44.80346" lon="4.31719">
        <ele>1256.4</ele>
        <time>2022-06-09T10:38:49Z</time>
      </trkpt>
      <trkpt lat="44.80346" lon="4.31716">
        <ele>1256.5</ele>
        <time>2022-06-09T10:38:50Z</time>
      </trkpt>
      <trkpt lat="44.80346" lon="4.31713">
        <ele>1256.6</ele>
        <time>2022-06-09T10:38:52Z</time>
      </trkpt>
      <trkpt lat="44.80347" lon="4.31708">
        <ele>1256.8</ele>
        <time>2022-06-09T10:38:53Z</time>
      </trkpt>
      <trkpt lat="44.80348" lon="4.31703">
        <ele>1257</ele>
        <time>2022-06-09T10:38:54Z</time>
      </trkpt>
      <trkpt lat="44.80348" lon="4.31702">
        <ele>1257.1</ele>
        <time>2022-06-09T10:38:55Z</time>
      </trkpt>
      <trkpt lat="44.80348" lon="4.31697">
        <ele>1257.3</ele>
        <time>2022-06-09T10:38:57Z</time>
      </trkpt>
      <trkpt lat="44.80348" lon="4.31695">
        <ele>1257.3</ele>
        <time>2022-06-09T10:38:58Z</time>
      </trkpt>
      <trkpt lat="44.80349" lon="4.3169">
        <ele>1257.6</ele>
        <time>2022-06-09T10:38:59Z</time>
      </trkpt>
      <trkpt lat="44.80349" lon="4.31688">
        <ele>1257.7</ele>
        <time>2022-06-09T10:39:00Z</time>
      </trkpt>
      <trkpt lat="44.80349" lon="4.31685">
        <ele>1257.8</ele>
        <time>2022-06-09T10:39:02Z</time>
      </trkpt>
      <trkpt lat="44.8035" lon="4.31683">
        <ele>1257.9</ele>
        <time>2022-06-09T10:39:03Z</time>
      </trkpt>
      <trkpt lat="44.8035" lon="4.31681">
        <ele>1258</ele>
        <time>2022-06-09T10:39:04Z</time>
      </trkpt>
      <trkpt lat="44.80349" lon="4.31678">
        <ele>1258.1</ele>
        <time>2022-06-09T10:39:06Z</time>
      </trkpt>
      <trkpt lat="44.8035" lon="4.31675">
        <ele>1258.3</ele>
        <time>2022-06-09T10:39:07Z</time>
      </trkpt>
      <trkpt lat="44.8035" lon="4.31673">
        <ele>1258.4</ele>
        <time>2022-06-09T10:39:08Z</time>
      </trkpt>
      <trkpt lat="44.8035" lon="4.31671">
        <ele>1258.5</ele>
        <time>2022-06-09T10:39:09Z</time>
      </trkpt>
      <trkpt lat="44.8035" lon="4.31668">
        <ele>1258.6</ele>
        <time>2022-06-09T10:39:10Z</time>
      </trkpt>
      <trkpt lat="44.8035" lon="4.31666">
        <ele>1258.7</ele>
        <time>2022-06-09T10:39:11Z</time>
      </trkpt>
      <trkpt lat="44.8035" lon="4.31663">
        <ele>1258.8</ele>
        <time>2022-06-09T10:39:12Z</time>
      </trkpt>
      <trkpt lat="44.8035" lon="4.31661">
        <ele>1258.9</ele>
        <time>2022-06-09T10:39:13Z</time>
      </trkpt>
      <trkpt lat="44.8035" lon="4.31659">
        <ele>1259</ele>
        <time>2022-06-09T10:39:14Z</time>
      </trkpt>
      <trkpt lat="44.8035" lon="4.31654">
        <ele>1259.3</ele>
        <time>2022-06-09T10:39:15Z</time>
      </trkpt>
      <trkpt lat="44.8035" lon="4.3165">
        <ele>1259.5</ele>
        <time>2022-06-09T10:39:17Z</time>
      </trkpt>
      <trkpt lat="44.8035" lon="4.31648">
        <ele>1259.5</ele>
        <time>2022-06-09T10:39:18Z</time>
      </trkpt>
      <trkpt lat="44.8035" lon="4.31646">
        <ele>1259.6</ele>
        <time>2022-06-09T10:39:19Z</time>
      </trkpt>
      <trkpt lat="44.8035" lon="4.31644">
        <ele>1259.7</ele>
        <time>2022-06-09T10:39:20Z</time>
      </trkpt>
      <trkpt lat="44.8035" lon="4.31641">
        <ele>1259.8</ele>
        <time>2022-06-09T10:39:21Z</time>
      </trkpt>
      <trkpt lat="44.80349" lon="4.31639">
        <ele>1259.9</ele>
        <time>2022-06-09T10:39:22Z</time>
      </trkpt>
      <trkpt lat="44.80349" lon="4.31635">
        <ele>1260.1</ele>
        <time>2022-06-09T10:39:23Z</time>
      </trkpt>
      <trkpt lat="44.80349" lon="4.31633">
        <ele>1260.1</ele>
        <time>2022-06-09T10:39:24Z</time>
      </trkpt>
      <trkpt lat="44.80349" lon="4.3163">
        <ele>1260.3</ele>
        <time>2022-06-09T10:39:25Z</time>
      </trkpt>
      <trkpt lat="44.80348" lon="4.31628">
        <ele>1260.3</ele>
        <time>2022-06-09T10:39:26Z</time>
      </trkpt>
      <trkpt lat="44.80348" lon="4.31624">
        <ele>1260.5</ele>
        <time>2022-06-09T10:39:27Z</time>
      </trkpt>
      <trkpt lat="44.80348" lon="4.31623">
        <ele>1260.6</ele>
        <time>2022-06-09T10:39:28Z</time>
      </trkpt>
      <trkpt lat="44.80348" lon="4.31621">
        <ele>1260.6</ele>
        <time>2022-06-09T10:39:29Z</time>
      </trkpt>
      <trkpt lat="44.80347" lon="4.31618">
        <ele>1260.7</ele>
        <time>2022-06-09T10:39:30Z</time>
      </trkpt>
      <trkpt lat="44.80347" lon="4.31614">
        <ele>1260.9</ele>
        <time>2022-06-09T10:39:31Z</time>
      </trkpt>
      <trkpt lat="44.80347" lon="4.31613">
        <ele>1260.9</ele>
        <time>2022-06-09T10:39:32Z</time>
      </trkpt>
      <trkpt lat="44.80346" lon="4.31609">
        <ele>1261</ele>
        <time>2022-06-09T10:39:33Z</time>
      </trkpt>
      <trkpt lat="44.80346" lon="4.31608">
        <ele>1261</ele>
        <time>2022-06-09T10:39:34Z</time>
      </trkpt>
      <trkpt lat="44.80345" lon="4.31603">
        <ele>1261.2</ele>
        <time>2022-06-09T10:39:35Z</time>
      </trkpt>
      <trkpt lat="44.80344" lon="4.31602">
        <ele>1261.2</ele>
        <time>2022-06-09T10:39:36Z</time>
      </trkpt>
      <trkpt lat="44.80343" lon="4.31597">
        <ele>1261.3</ele>
        <time>2022-06-09T10:39:37Z</time>
      </trkpt>
      <trkpt lat="44.80343" lon="4.31595">
        <ele>1261.4</ele>
        <time>2022-06-09T10:39:38Z</time>
      </trkpt>
      <trkpt lat="44.80342" lon="4.31591">
        <ele>1261.5</ele>
        <time>2022-06-09T10:39:39Z</time>
      </trkpt>
      <trkpt lat="44.80341" lon="4.31586">
        <ele>1261.5</ele>
        <time>2022-06-09T10:39:41Z</time>
      </trkpt>
      <trkpt lat="44.8034" lon="4.31582">
        <ele>1261.6</ele>
        <time>2022-06-09T10:39:42Z</time>
      </trkpt>
      <trkpt lat="44.80339" lon="4.31577">
        <ele>1261.6</ele>
        <time>2022-06-09T10:39:43Z</time>
      </trkpt>
      <trkpt lat="44.80337" lon="4.31573">
        <ele>1261.7</ele>
        <time>2022-06-09T10:39:44Z</time>
      </trkpt>
      <trkpt lat="44.80336" lon="4.31569">
        <ele>1261.7</ele>
        <time>2022-06-09T10:39:46Z</time>
      </trkpt>
      <trkpt lat="44.80335" lon="4.31563">
        <ele>1261.8</ele>
        <time>2022-06-09T10:39:47Z</time>
      </trkpt>
      <trkpt lat="44.80333" lon="4.31557">
        <ele>1261.9</ele>
        <time>2022-06-09T10:39:48Z</time>
      </trkpt>
      <trkpt lat="44.80332" lon="4.31554">
        <ele>1261.9</ele>
        <time>2022-06-09T10:39:49Z</time>
      </trkpt>
      <trkpt lat="44.8033" lon="4.31549">
        <ele>1262</ele>
        <time>2022-06-09T10:39:51Z</time>
      </trkpt>
      <trkpt lat="44.80329" lon="4.31546">
        <ele>1262</ele>
        <time>2022-06-09T10:39:52Z</time>
      </trkpt>
      <trkpt lat="44.80327" lon="4.31541">
        <ele>1262</ele>
        <time>2022-06-09T10:39:53Z</time>
      </trkpt>
      <trkpt lat="44.80326" lon="4.31537">
        <ele>1262.1</ele>
        <time>2022-06-09T10:39:54Z</time>
      </trkpt>
      <trkpt lat="44.80324" lon="4.31533">
        <ele>1262.2</ele>
        <time>2022-06-09T10:39:55Z</time>
      </trkpt>
      <trkpt lat="44.80323" lon="4.31529">
        <ele>1262.2</ele>
        <time>2022-06-09T10:39:56Z</time>
      </trkpt>
      <trkpt lat="44.80321" lon="4.31526">
        <ele>1262.3</ele>
        <time>2022-06-09T10:39:58Z</time>
      </trkpt>
      <trkpt lat="44.8032" lon="4.31522">
        <ele>1262.3</ele>
        <time>2022-06-09T10:39:59Z</time>
      </trkpt>
      <trkpt lat="44.8032" lon="4.31521">
        <ele>1262.4</ele>
        <time>2022-06-09T10:40:00Z</time>
      </trkpt>
      <trkpt lat="44.80318" lon="4.31516">
        <ele>1262.5</ele>
        <time>2022-06-09T10:40:01Z</time>
      </trkpt>
      <trkpt lat="44.80317" lon="4.31512">
        <ele>1262.5</ele>
        <time>2022-06-09T10:40:02Z</time>
      </trkpt>
      <trkpt lat="44.80316" lon="4.3151">
        <ele>1262.6</ele>
        <time>2022-06-09T10:40:03Z</time>
      </trkpt>
      <trkpt lat="44.80316" lon="4.31507">
        <ele>1262.6</ele>
        <time>2022-06-09T10:40:04Z</time>
      </trkpt>
      <trkpt lat="44.80314" lon="4.31499">
        <ele>1262.8</ele>
        <time>2022-06-09T10:40:06Z</time>
      </trkpt>
      <trkpt lat="44.80313" lon="4.31495">
        <ele>1262.9</ele>
        <time>2022-06-09T10:40:08Z</time>
      </trkpt>
      <trkpt lat="44.80312" lon="4.3149">
        <ele>1263</ele>
        <time>2022-06-09T10:40:09Z</time>
      </trkpt>
      <trkpt lat="44.80311" lon="4.31488">
        <ele>1263</ele>
        <time>2022-06-09T10:40:10Z</time>
      </trkpt>
      <trkpt lat="44.8031" lon="4.31484">
        <ele>1263.1</ele>
        <time>2022-06-09T10:40:11Z</time>
      </trkpt>
      <trkpt lat="44.80309" lon="4.31482">
        <ele>1263.1</ele>
        <time>2022-06-09T10:40:12Z</time>
      </trkpt>
      <trkpt lat="44.80308" lon="4.31478">
        <ele>1263.2</ele>
        <time>2022-06-09T10:40:13Z</time>
      </trkpt>
      <trkpt lat="44.80308" lon="4.31477">
        <ele>1263.3</ele>
        <time>2022-06-09T10:40:14Z</time>
      </trkpt>
      <trkpt lat="44.80307" lon="4.31472">
        <ele>1263.4</ele>
        <time>2022-06-09T10:40:15Z</time>
      </trkpt>
      <trkpt lat="44.80306" lon="4.31471">
        <ele>1263.4</ele>
        <time>2022-06-09T10:40:16Z</time>
      </trkpt>
      <trkpt lat="44.80305" lon="4.31466">
        <ele>1263.6</ele>
        <time>2022-06-09T10:40:17Z</time>
      </trkpt>
      <trkpt lat="44.80303" lon="4.3146">
        <ele>1263.7</ele>
        <time>2022-06-09T10:40:19Z</time>
      </trkpt>
      <trkpt lat="44.80302" lon="4.31457">
        <ele>1263.8</ele>
        <time>2022-06-09T10:40:20Z</time>
      </trkpt>
      <trkpt lat="44.80301" lon="4.31454">
        <ele>1263.9</ele>
        <time>2022-06-09T10:40:21Z</time>
      </trkpt>
      <trkpt lat="44.803" lon="4.31451">
        <ele>1263.9</ele>
        <time>2022-06-09T10:40:23Z</time>
      </trkpt>
      <trkpt lat="44.80299" lon="4.31445">
        <ele>1264.1</ele>
        <time>2022-06-09T10:40:24Z</time>
      </trkpt>
      <trkpt lat="44.80298" lon="4.31443">
        <ele>1264.1</ele>
        <time>2022-06-09T10:40:25Z</time>
      </trkpt>
      <trkpt lat="44.80297" lon="4.31439">
        <ele>1264.2</ele>
        <time>2022-06-09T10:40:26Z</time>
      </trkpt>
      <trkpt lat="44.80296" lon="4.31433">
        <ele>1264.4</ele>
        <time>2022-06-09T10:40:28Z</time>
      </trkpt>
      <trkpt lat="44.80295" lon="4.31428">
        <ele>1264.5</ele>
        <time>2022-06-09T10:40:29Z</time>
      </trkpt>
      <trkpt lat="44.80294" lon="4.31426">
        <ele>1264.5</ele>
        <time>2022-06-09T10:40:30Z</time>
      </trkpt>
      <trkpt lat="44.80293" lon="4.3142">
        <ele>1264.6</ele>
        <time>2022-06-09T10:40:31Z</time>
      </trkpt>
      <trkpt lat="44.80292" lon="4.31417">
        <ele>1264.7</ele>
        <time>2022-06-09T10:40:32Z</time>
      </trkpt>
      <trkpt lat="44.80291" lon="4.31412">
        <ele>1264.8</ele>
        <time>2022-06-09T10:40:34Z</time>
      </trkpt>
      <trkpt lat="44.8029" lon="4.31407">
        <ele>1264.9</ele>
        <time>2022-06-09T10:40:35Z</time>
      </trkpt>
      <trkpt lat="44.8029" lon="4.31405">
        <ele>1264.9</ele>
        <time>2022-06-09T10:40:36Z</time>
      </trkpt>
      <trkpt lat="44.80289" lon="4.31399">
        <ele>1265</ele>
        <time>2022-06-09T10:40:37Z</time>
      </trkpt>
      <trkpt lat="44.80288" lon="4.31395">
        <ele>1265</ele>
        <time>2022-06-09T10:40:38Z</time>
      </trkpt>
      <trkpt lat="44.80286" lon="4.3139">
        <ele>1265.1</ele>
        <time>2022-06-09T10:40:39Z</time>
      </trkpt>
      <trkpt lat="44.80285" lon="4.31385">
        <ele>1265.2</ele>
        <time>2022-06-09T10:40:41Z</time>
      </trkpt>
      <trkpt lat="44.80284" lon="4.31382">
        <ele>1265.2</ele>
        <time>2022-06-09T10:40:42Z</time>
      </trkpt>
      <trkpt lat="44.80283" lon="4.31376">
        <ele>1265.3</ele>
        <time>2022-06-09T10:40:43Z</time>
      </trkpt>
      <trkpt lat="44.80282" lon="4.31371">
        <ele>1265.4</ele>
        <time>2022-06-09T10:40:44Z</time>
      </trkpt>
      <trkpt lat="44.80281" lon="4.31367">
        <ele>1265.5</ele>
        <time>2022-06-09T10:40:46Z</time>
      </trkpt>
      <trkpt lat="44.80279" lon="4.3136">
        <ele>1265.6</ele>
        <time>2022-06-09T10:40:47Z</time>
      </trkpt>
      <trkpt lat="44.80278" lon="4.31355">
        <ele>1265.7</ele>
        <time>2022-06-09T10:40:48Z</time>
      </trkpt>
      <trkpt lat="44.80276" lon="4.31351">
        <ele>1265.8</ele>
        <time>2022-06-09T10:40:49Z</time>
      </trkpt>
      <trkpt lat="44.80274" lon="4.31344">
        <ele>1265.9</ele>
        <time>2022-06-09T10:40:51Z</time>
      </trkpt>
      <trkpt lat="44.80274" lon="4.31341">
        <ele>1266</ele>
        <time>2022-06-09T10:40:52Z</time>
      </trkpt>
      <trkpt lat="44.80273" lon="4.31338">
        <ele>1266</ele>
        <time>2022-06-09T10:40:53Z</time>
      </trkpt>
      <trkpt lat="44.80272" lon="4.31333">
        <ele>1266.1</ele>
        <time>2022-06-09T10:40:55Z</time>
      </trkpt>
      <trkpt lat="44.80272" lon="4.3133">
        <ele>1266.2</ele>
        <time>2022-06-09T10:40:56Z</time>
      </trkpt>
      <trkpt lat="44.8027" lon="4.31326">
        <ele>1266.3</ele>
        <time>2022-06-09T10:40:57Z</time>
      </trkpt>
      <trkpt lat="44.80269" lon="4.31319">
        <ele>1266.5</ele>
        <time>2022-06-09T10:40:58Z</time>
      </trkpt>
      <trkpt lat="44.80268" lon="4.31315">
        <ele>1266.5</ele>
        <time>2022-06-09T10:41:00Z</time>
      </trkpt>
      <trkpt lat="44.80267" lon="4.31309">
        <ele>1266.7</ele>
        <time>2022-06-09T10:41:01Z</time>
      </trkpt>
      <trkpt lat="44.80266" lon="4.31308">
        <ele>1266.7</ele>
        <time>2022-06-09T10:41:02Z</time>
      </trkpt>
      <trkpt lat="44.80265" lon="4.31303">
        <ele>1266.8</ele>
        <time>2022-06-09T10:41:03Z</time>
      </trkpt>
      <trkpt lat="44.80264" lon="4.31301">
        <ele>1266.8</ele>
        <time>2022-06-09T10:41:04Z</time>
      </trkpt>
      <trkpt lat="44.80263" lon="4.31296">
        <ele>1266.9</ele>
        <time>2022-06-09T10:41:05Z</time>
      </trkpt>
      <trkpt lat="44.80263" lon="4.31294">
        <ele>1267</ele>
        <time>2022-06-09T10:41:06Z</time>
      </trkpt>
      <trkpt lat="44.80262" lon="4.31289">
        <ele>1267.1</ele>
        <time>2022-06-09T10:41:07Z</time>
      </trkpt>
      <trkpt lat="44.80262" lon="4.31287">
        <ele>1267.1</ele>
        <time>2022-06-09T10:41:08Z</time>
      </trkpt>
      <trkpt lat="44.80261" lon="4.31283">
        <ele>1267.2</ele>
        <time>2022-06-09T10:41:09Z</time>
      </trkpt>
      <trkpt lat="44.80261" lon="4.31279">
        <ele>1267.3</ele>
        <time>2022-06-09T10:41:10Z</time>
      </trkpt>
      <trkpt lat="44.8026" lon="4.31275">
        <ele>1267.3</ele>
        <time>2022-06-09T10:41:11Z</time>
      </trkpt>
      <trkpt lat="44.8026" lon="4.31271">
        <ele>1267.4</ele>
        <time>2022-06-09T10:41:12Z</time>
      </trkpt>
      <trkpt lat="44.8026" lon="4.31267">
        <ele>1267.5</ele>
        <time>2022-06-09T10:41:13Z</time>
      </trkpt>
      <trkpt lat="44.8026" lon="4.31262">
        <ele>1267.7</ele>
        <time>2022-06-09T10:41:14Z</time>
      </trkpt>
      <trkpt lat="44.8026" lon="4.31259">
        <ele>1267.8</ele>
        <time>2022-06-09T10:41:15Z</time>
      </trkpt>
      <trkpt lat="44.80261" lon="4.31254">
        <ele>1267.9</ele>
        <time>2022-06-09T10:41:16Z</time>
      </trkpt>
      <trkpt lat="44.80262" lon="4.31249">
        <ele>1268</ele>
        <time>2022-06-09T10:41:17Z</time>
      </trkpt>
      <trkpt lat="44.80262" lon="4.31248">
        <ele>1268.1</ele>
        <time>2022-06-09T10:41:18Z</time>
      </trkpt>
      <trkpt lat="44.80262" lon="4.31243">
        <ele>1268.2</ele>
        <time>2022-06-09T10:41:19Z</time>
      </trkpt>
      <trkpt lat="44.80262" lon="4.31242">
        <ele>1268.2</ele>
        <time>2022-06-09T10:41:20Z</time>
      </trkpt>
      <trkpt lat="44.80262" lon="4.31237">
        <ele>1268.4</ele>
        <time>2022-06-09T10:41:21Z</time>
      </trkpt>
      <trkpt lat="44.80262" lon="4.31235">
        <ele>1268.4</ele>
        <time>2022-06-09T10:41:22Z</time>
      </trkpt>
      <trkpt lat="44.80263" lon="4.3123">
        <ele>1268.6</ele>
        <time>2022-06-09T10:41:23Z</time>
      </trkpt>
      <trkpt lat="44.80264" lon="4.31228">
        <ele>1268.7</ele>
        <time>2022-06-09T10:41:24Z</time>
      </trkpt>
      <trkpt lat="44.80265" lon="4.31225">
        <ele>1268.8</ele>
        <time>2022-06-09T10:41:25Z</time>
      </trkpt>
      <trkpt lat="44.80265" lon="4.3122">
        <ele>1268.9</ele>
        <time>2022-06-09T10:41:27Z</time>
      </trkpt>
      <trkpt lat="44.80266" lon="4.31219">
        <ele>1269</ele>
        <time>2022-06-09T10:41:28Z</time>
      </trkpt>
      <trkpt lat="44.80267" lon="4.31214">
        <ele>1269.1</ele>
        <time>2022-06-09T10:41:29Z</time>
      </trkpt>
      <trkpt lat="44.80269" lon="4.31209">
        <ele>1269.3</ele>
        <time>2022-06-09T10:41:31Z</time>
      </trkpt>
      <trkpt lat="44.80271" lon="4.31203">
        <ele>1269.5</ele>
        <time>2022-06-09T10:41:32Z</time>
      </trkpt>
      <trkpt lat="44.80273" lon="4.312">
        <ele>1269.6</ele>
        <time>2022-06-09T10:41:33Z</time>
      </trkpt>
      <trkpt lat="44.80274" lon="4.31197">
        <ele>1269.7</ele>
        <time>2022-06-09T10:41:35Z</time>
      </trkpt>
      <trkpt lat="44.80275" lon="4.31192">
        <ele>1269.9</ele>
        <time>2022-06-09T10:41:36Z</time>
      </trkpt>
      <trkpt lat="44.80276" lon="4.3119">
        <ele>1269.9</ele>
        <time>2022-06-09T10:41:37Z</time>
      </trkpt>
      <trkpt lat="44.80277" lon="4.31186">
        <ele>1270.1</ele>
        <time>2022-06-09T10:41:38Z</time>
      </trkpt>
      <trkpt lat="44.80278" lon="4.31185">
        <ele>1270.1</ele>
        <time>2022-06-09T10:41:39Z</time>
      </trkpt>
      <trkpt lat="44.80281" lon="4.3118">
        <ele>1270.3</ele>
        <time>2022-06-09T10:41:40Z</time>
      </trkpt>
      <trkpt lat="44.80282" lon="4.31179">
        <ele>1270.3</ele>
        <time>2022-06-09T10:41:41Z</time>
      </trkpt>
      <trkpt lat="44.80283" lon="4.31175">
        <ele>1270.4</ele>
        <time>2022-06-09T10:41:42Z</time>
      </trkpt>
      <trkpt lat="44.80285" lon="4.3117">
        <ele>1270.6</ele>
        <time>2022-06-09T10:41:43Z</time>
      </trkpt>
      <trkpt lat="44.80286" lon="4.31167">
        <ele>1270.7</ele>
        <time>2022-06-09T10:41:44Z</time>
      </trkpt>
      <trkpt lat="44.80288" lon="4.31162">
        <ele>1270.9</ele>
        <time>2022-06-09T10:41:46Z</time>
      </trkpt>
      <trkpt lat="44.80289" lon="4.3116">
        <ele>1270.9</ele>
        <time>2022-06-09T10:41:47Z</time>
      </trkpt>
      <trkpt lat="44.80289" lon="4.31158">
        <ele>1271</ele>
        <time>2022-06-09T10:41:48Z</time>
      </trkpt>
      <trkpt lat="44.80292" lon="4.31153">
        <ele>1271.2</ele>
        <time>2022-06-09T10:41:49Z</time>
      </trkpt>
      <trkpt lat="44.80293" lon="4.3115">
        <ele>1271.3</ele>
        <time>2022-06-09T10:41:50Z</time>
      </trkpt>
      <trkpt lat="44.80295" lon="4.31147">
        <ele>1271.4</ele>
        <time>2022-06-09T10:41:52Z</time>
      </trkpt>
      <trkpt lat="44.80297" lon="4.31144">
        <ele>1271.5</ele>
        <time>2022-06-09T10:41:53Z</time>
      </trkpt>
      <trkpt lat="44.80298" lon="4.31139">
        <ele>1271.6</ele>
        <time>2022-06-09T10:41:54Z</time>
      </trkpt>
      <trkpt lat="44.803" lon="4.31134">
        <ele>1271.8</ele>
        <time>2022-06-09T10:41:56Z</time>
      </trkpt>
      <trkpt lat="44.80301" lon="4.3113">
        <ele>1271.9</ele>
        <time>2022-06-09T10:41:57Z</time>
      </trkpt>
      <trkpt lat="44.80302" lon="4.31128">
        <ele>1272</ele>
        <time>2022-06-09T10:41:58Z</time>
      </trkpt>
      <trkpt lat="44.80303" lon="4.31124">
        <ele>1272.1</ele>
        <time>2022-06-09T10:41:59Z</time>
      </trkpt>
      <trkpt lat="44.80304" lon="4.3112">
        <ele>1272.2</ele>
        <time>2022-06-09T10:42:00Z</time>
      </trkpt>
      <trkpt lat="44.80304" lon="4.31114">
        <ele>1272.4</ele>
        <time>2022-06-09T10:42:02Z</time>
      </trkpt>
      <trkpt lat="44.80305" lon="4.31112">
        <ele>1272.5</ele>
        <time>2022-06-09T10:42:03Z</time>
      </trkpt>
      <trkpt lat="44.80305" lon="4.31106">
        <ele>1272.6</ele>
        <time>2022-06-09T10:42:04Z</time>
      </trkpt>
      <trkpt lat="44.80305" lon="4.31103">
        <ele>1272.7</ele>
        <time>2022-06-09T10:42:05Z</time>
      </trkpt>
      <trkpt lat="44.80306" lon="4.31099">
        <ele>1272.8</ele>
        <time>2022-06-09T10:42:07Z</time>
      </trkpt>
      <trkpt lat="44.80306" lon="4.31094">
        <ele>1273</ele>
        <time>2022-06-09T10:42:08Z</time>
      </trkpt>
      <trkpt lat="44.80306" lon="4.31088">
        <ele>1273.1</ele>
        <time>2022-06-09T10:42:09Z</time>
      </trkpt>
      <trkpt lat="44.80306" lon="4.31086">
        <ele>1273.2</ele>
        <time>2022-06-09T10:42:10Z</time>
      </trkpt>
      <trkpt lat="44.80306" lon="4.31081">
        <ele>1273.3</ele>
        <time>2022-06-09T10:42:11Z</time>
      </trkpt>
      <trkpt lat="44.80305" lon="4.31076">
        <ele>1273.5</ele>
        <time>2022-06-09T10:42:13Z</time>
      </trkpt>
      <trkpt lat="44.80305" lon="4.31072">
        <ele>1273.6</ele>
        <time>2022-06-09T10:42:14Z</time>
      </trkpt>
      <trkpt lat="44.80305" lon="4.31068">
        <ele>1273.7</ele>
        <time>2022-06-09T10:42:15Z</time>
      </trkpt>
      <trkpt lat="44.80305" lon="4.31062">
        <ele>1273.9</ele>
        <time>2022-06-09T10:42:17Z</time>
      </trkpt>
      <trkpt lat="44.80306" lon="4.31058">
        <ele>1274</ele>
        <time>2022-06-09T10:42:18Z</time>
      </trkpt>
      <trkpt lat="44.80306" lon="4.31052">
        <ele>1274.2</ele>
        <time>2022-06-09T10:42:19Z</time>
      </trkpt>
      <trkpt lat="44.80306" lon="4.31045">
        <ele>1274.4</ele>
        <time>2022-06-09T10:42:21Z</time>
      </trkpt>
      <trkpt lat="44.80305" lon="4.31042">
        <ele>1274.5</ele>
        <time>2022-06-09T10:42:22Z</time>
      </trkpt>
      <trkpt lat="44.80305" lon="4.31038">
        <ele>1274.6</ele>
        <time>2022-06-09T10:42:23Z</time>
      </trkpt>
      <trkpt lat="44.80305" lon="4.31032">
        <ele>1274.8</ele>
        <time>2022-06-09T10:42:25Z</time>
      </trkpt>
      <trkpt lat="44.80304" lon="4.31028">
        <ele>1275</ele>
        <time>2022-06-09T10:42:26Z</time>
      </trkpt>
      <trkpt lat="44.80304" lon="4.31023">
        <ele>1275.2</ele>
        <time>2022-06-09T10:42:28Z</time>
      </trkpt>
      <trkpt lat="44.80304" lon="4.31019">
        <ele>1275.3</ele>
        <time>2022-06-09T10:42:29Z</time>
      </trkpt>
      <trkpt lat="44.80305" lon="4.31011">
        <ele>1275.5</ele>
        <time>2022-06-09T10:42:30Z</time>
      </trkpt>
      <trkpt lat="44.80305" lon="4.31006">
        <ele>1275.7</ele>
        <time>2022-06-09T10:42:32Z</time>
      </trkpt>
      <trkpt lat="44.80305" lon="4.31004">
        <ele>1275.8</ele>
        <time>2022-06-09T10:42:33Z</time>
      </trkpt>
      <trkpt lat="44.80305" lon="4.31">
        <ele>1275.9</ele>
        <time>2022-06-09T10:42:34Z</time>
      </trkpt>
      <trkpt lat="44.80306" lon="4.30998">
        <ele>1276</ele>
        <time>2022-06-09T10:42:35Z</time>
      </trkpt>
      <trkpt lat="44.80306" lon="4.30993">
        <ele>1276.1</ele>
        <time>2022-06-09T10:42:36Z</time>
      </trkpt>
      <trkpt lat="44.80307" lon="4.30991">
        <ele>1276.2</ele>
        <time>2022-06-09T10:42:37Z</time>
      </trkpt>
      <trkpt lat="44.80307" lon="4.30987">
        <ele>1276.3</ele>
        <time>2022-06-09T10:42:38Z</time>
      </trkpt>
      <trkpt lat="44.80308" lon="4.30985">
        <ele>1276.4</ele>
        <time>2022-06-09T10:42:39Z</time>
      </trkpt>
      <trkpt lat="44.80309" lon="4.30981">
        <ele>1276.5</ele>
        <time>2022-06-09T10:42:40Z</time>
      </trkpt>
      <trkpt lat="44.80309" lon="4.3098">
        <ele>1276.6</ele>
        <time>2022-06-09T10:42:41Z</time>
      </trkpt>
      <trkpt lat="44.8031" lon="4.30975">
        <ele>1276.7</ele>
        <time>2022-06-09T10:42:42Z</time>
      </trkpt>
      <trkpt lat="44.8031" lon="4.30974">
        <ele>1276.7</ele>
        <time>2022-06-09T10:42:43Z</time>
      </trkpt>
      <trkpt lat="44.80312" lon="4.30969">
        <ele>1276.9</ele>
        <time>2022-06-09T10:42:44Z</time>
      </trkpt>
      <trkpt lat="44.80312" lon="4.30966">
        <ele>1277</ele>
        <time>2022-06-09T10:42:45Z</time>
      </trkpt>
      <trkpt lat="44.80313" lon="4.30962">
        <ele>1277.1</ele>
        <time>2022-06-09T10:42:47Z</time>
      </trkpt>
      <trkpt lat="44.80315" lon="4.30958">
        <ele>1277.3</ele>
        <time>2022-06-09T10:42:48Z</time>
      </trkpt>
      <trkpt lat="44.80315" lon="4.30957">
        <ele>1277.3</ele>
        <time>2022-06-09T10:42:49Z</time>
      </trkpt>
      <trkpt lat="44.80317" lon="4.30952">
        <ele>1277.5</ele>
        <time>2022-06-09T10:42:50Z</time>
      </trkpt>
      <trkpt lat="44.80318" lon="4.30951">
        <ele>1277.5</ele>
        <time>2022-06-09T10:42:51Z</time>
      </trkpt>
      <trkpt lat="44.8032" lon="4.30946">
        <ele>1277.7</ele>
        <time>2022-06-09T10:42:52Z</time>
      </trkpt>
      <trkpt lat="44.80321" lon="4.30945">
        <ele>1277.7</ele>
        <time>2022-06-09T10:42:53Z</time>
      </trkpt>
      <trkpt lat="44.80323" lon="4.3094">
        <ele>1277.9</ele>
        <time>2022-06-09T10:42:54Z</time>
      </trkpt>
      <trkpt lat="44.80324" lon="4.30938">
        <ele>1278</ele>
        <time>2022-06-09T10:42:55Z</time>
      </trkpt>
      <trkpt lat="44.80327" lon="4.30934">
        <ele>1278.1</ele>
        <time>2022-06-09T10:42:56Z</time>
      </trkpt>
      <trkpt lat="44.80328" lon="4.30932">
        <ele>1278.2</ele>
        <time>2022-06-09T10:42:57Z</time>
      </trkpt>
      <trkpt lat="44.8033" lon="4.30929">
        <ele>1278.3</ele>
        <time>2022-06-09T10:42:58Z</time>
      </trkpt>
      <trkpt lat="44.80333" lon="4.30924">
        <ele>1278.5</ele>
        <time>2022-06-09T10:43:00Z</time>
      </trkpt>
      <trkpt lat="44.80334" lon="4.30923">
        <ele>1278.6</ele>
        <time>2022-06-09T10:43:01Z</time>
      </trkpt>
      <trkpt lat="44.80336" lon="4.3092">
        <ele>1278.7</ele>
        <time>2022-06-09T10:43:02Z</time>
      </trkpt>
      <trkpt lat="44.80338" lon="4.30916">
        <ele>1278.9</ele>
        <time>2022-06-09T10:43:03Z</time>
      </trkpt>
      <trkpt lat="44.80339" lon="4.30914">
        <ele>1278.9</ele>
        <time>2022-06-09T10:43:04Z</time>
      </trkpt>
      <trkpt lat="44.80342" lon="4.3091">
        <ele>1279.1</ele>
        <time>2022-06-09T10:43:06Z</time>
      </trkpt>
      <trkpt lat="44.80343" lon="4.30908">
        <ele>1279.2</ele>
        <time>2022-06-09T10:43:07Z</time>
      </trkpt>
      <trkpt lat="44.80345" lon="4.30906">
        <ele>1279.2</ele>
        <time>2022-06-09T10:43:08Z</time>
      </trkpt>
      <trkpt lat="44.80346" lon="4.30904">
        <ele>1279.3</ele>
        <time>2022-06-09T10:43:10Z</time>
      </trkpt>
      <trkpt lat="44.80349" lon="4.309">
        <ele>1279.5</ele>
        <time>2022-06-09T10:43:11Z</time>
      </trkpt>
      <trkpt lat="44.80353" lon="4.30895">
        <ele>1279.6</ele>
        <time>2022-06-09T10:43:13Z</time>
      </trkpt>
      <trkpt lat="44.80354" lon="4.30893">
        <ele>1279.7</ele>
        <time>2022-06-09T10:43:14Z</time>
      </trkpt>
      <trkpt lat="44.80355" lon="4.30892">
        <ele>1279.8</ele>
        <time>2022-06-09T10:43:15Z</time>
      </trkpt>
      <trkpt lat="44.80357" lon="4.30889">
        <ele>1279.9</ele>
        <time>2022-06-09T10:43:16Z</time>
      </trkpt>
      <trkpt lat="44.8036" lon="4.30884">
        <ele>1280.1</ele>
        <time>2022-06-09T10:43:18Z</time>
      </trkpt>
      <trkpt lat="44.80362" lon="4.30882">
        <ele>1280.1</ele>
        <time>2022-06-09T10:43:19Z</time>
      </trkpt>
      <trkpt lat="44.80365" lon="4.30876">
        <ele>1280.3</ele>
        <time>2022-06-09T10:43:21Z</time>
      </trkpt>
      <trkpt lat="44.80366" lon="4.30875">
        <ele>1280.4</ele>
        <time>2022-06-09T10:43:22Z</time>
      </trkpt>
      <trkpt lat="44.80367" lon="4.30873">
        <ele>1280.4</ele>
        <time>2022-06-09T10:43:23Z</time>
      </trkpt>
      <trkpt lat="44.8037" lon="4.30869">
        <ele>1280.6</ele>
        <time>2022-06-09T10:43:24Z</time>
      </trkpt>
      <trkpt lat="44.80372" lon="4.30865">
        <ele>1280.7</ele>
        <time>2022-06-09T10:43:25Z</time>
      </trkpt>
      <trkpt lat="44.80376" lon="4.30859">
        <ele>1280.9</ele>
        <time>2022-06-09T10:43:27Z</time>
      </trkpt>
      <trkpt lat="44.80377" lon="4.30856">
        <ele>1281</ele>
        <time>2022-06-09T10:43:28Z</time>
      </trkpt>
      <trkpt lat="44.8038" lon="4.3085">
        <ele>1281.2</ele>
        <time>2022-06-09T10:43:30Z</time>
      </trkpt>
      <trkpt lat="44.80382" lon="4.30848">
        <ele>1281.3</ele>
        <time>2022-06-09T10:43:31Z</time>
      </trkpt>
      <trkpt lat="44.80384" lon="4.30845">
        <ele>1281.4</ele>
        <time>2022-06-09T10:43:33Z</time>
      </trkpt>
      <trkpt lat="44.80387" lon="4.3084">
        <ele>1281.6</ele>
        <time>2022-06-09T10:43:34Z</time>
      </trkpt>
      <trkpt lat="44.80388" lon="4.30838">
        <ele>1281.7</ele>
        <time>2022-06-09T10:43:35Z</time>
      </trkpt>
      <trkpt lat="44.80392" lon="4.30832">
        <ele>1282</ele>
        <time>2022-06-09T10:43:37Z</time>
      </trkpt>
      <trkpt lat="44.80394" lon="4.30829">
        <ele>1282.1</ele>
        <time>2022-06-09T10:43:38Z</time>
      </trkpt>
      <trkpt lat="44.80395" lon="4.30827">
        <ele>1282.1</ele>
        <time>2022-06-09T10:43:39Z</time>
      </trkpt>
      <trkpt lat="44.80397" lon="4.30824">
        <ele>1282.2</ele>
        <time>2022-06-09T10:43:41Z</time>
      </trkpt>
      <trkpt lat="44.804" lon="4.3082">
        <ele>1282.4</ele>
        <time>2022-06-09T10:43:42Z</time>
      </trkpt>
      <trkpt lat="44.804" lon="4.30819">
        <ele>1282.4</ele>
        <time>2022-06-09T10:43:43Z</time>
      </trkpt>
      <trkpt lat="44.80402" lon="4.30816">
        <ele>1282.5</ele>
        <time>2022-06-09T10:43:44Z</time>
      </trkpt>
      <trkpt lat="44.80404" lon="4.30813">
        <ele>1282.6</ele>
        <time>2022-06-09T10:43:45Z</time>
      </trkpt>
      <trkpt lat="44.80407" lon="4.3081">
        <ele>1282.8</ele>
        <time>2022-06-09T10:43:47Z</time>
      </trkpt>
      <trkpt lat="44.80409" lon="4.30807">
        <ele>1282.9</ele>
        <time>2022-06-09T10:43:48Z</time>
      </trkpt>
      <trkpt lat="44.80412" lon="4.30803">
        <ele>1283</ele>
        <time>2022-06-09T10:43:50Z</time>
      </trkpt>
      <trkpt lat="44.80415" lon="4.30799">
        <ele>1283.2</ele>
        <time>2022-06-09T10:43:51Z</time>
      </trkpt>
      <trkpt lat="44.80418" lon="4.30797">
        <ele>1283.4</ele>
        <time>2022-06-09T10:43:53Z</time>
      </trkpt>
      <trkpt lat="44.8042" lon="4.30796">
        <ele>1283.4</ele>
        <time>2022-06-09T10:43:54Z</time>
      </trkpt>
      <trkpt lat="44.80422" lon="4.30794">
        <ele>1283.5</ele>
        <time>2022-06-09T10:43:55Z</time>
      </trkpt>
      <trkpt lat="44.80425" lon="4.30792">
        <ele>1283.7</ele>
        <time>2022-06-09T10:43:56Z</time>
      </trkpt>
      <trkpt lat="44.80428" lon="4.30791">
        <ele>1283.8</ele>
        <time>2022-06-09T10:43:57Z</time>
      </trkpt>
      <trkpt lat="44.80431" lon="4.30789">
        <ele>1284</ele>
        <time>2022-06-09T10:43:59Z</time>
      </trkpt>
      <trkpt lat="44.80432" lon="4.30788">
        <ele>1284</ele>
        <time>2022-06-09T10:44:00Z</time>
      </trkpt>
      <trkpt lat="44.80435" lon="4.30787">
        <ele>1284.1</ele>
        <time>2022-06-09T10:44:01Z</time>
      </trkpt>
      <trkpt lat="44.80436" lon="4.30787">
        <ele>1284.2</ele>
        <time>2022-06-09T10:44:02Z</time>
      </trkpt>
      <trkpt lat="44.80439" lon="4.30785">
        <ele>1284.3</ele>
        <time>2022-06-09T10:44:03Z</time>
      </trkpt>
      <trkpt lat="44.8044" lon="4.30785">
        <ele>1284.4</ele>
        <time>2022-06-09T10:44:04Z</time>
      </trkpt>
      <trkpt lat="44.80444" lon="4.30784">
        <ele>1284.5</ele>
        <time>2022-06-09T10:44:05Z</time>
      </trkpt>
      <trkpt lat="44.80449" lon="4.30782">
        <ele>1284.8</ele>
        <time>2022-06-09T10:44:07Z</time>
      </trkpt>
      <trkpt lat="44.80452" lon="4.30781">
        <ele>1284.9</ele>
        <time>2022-06-09T10:44:08Z</time>
      </trkpt>
      <trkpt lat="44.80455" lon="4.30781">
        <ele>1285</ele>
        <time>2022-06-09T10:44:09Z</time>
      </trkpt>
      <trkpt lat="44.80459" lon="4.3078">
        <ele>1285.2</ele>
        <time>2022-06-09T10:44:11Z</time>
      </trkpt>
      <trkpt lat="44.8046" lon="4.30779">
        <ele>1285.2</ele>
        <time>2022-06-09T10:44:12Z</time>
      </trkpt>
      <trkpt lat="44.80463" lon="4.30779">
        <ele>1285.4</ele>
        <time>2022-06-09T10:44:13Z</time>
      </trkpt>
      <trkpt lat="44.80466" lon="4.30777">
        <ele>1285.5</ele>
        <time>2022-06-09T10:44:14Z</time>
      </trkpt>
      <trkpt lat="44.8047" lon="4.30775">
        <ele>1285.6</ele>
        <time>2022-06-09T10:44:15Z</time>
      </trkpt>
      <trkpt lat="44.80472" lon="4.30774">
        <ele>1285.7</ele>
        <time>2022-06-09T10:44:16Z</time>
      </trkpt>
      <trkpt lat="44.80476" lon="4.30772">
        <ele>1285.9</ele>
        <time>2022-06-09T10:44:17Z</time>
      </trkpt>
      <trkpt lat="44.8048" lon="4.30769">
        <ele>1286.1</ele>
        <time>2022-06-09T10:44:19Z</time>
      </trkpt>
      <trkpt lat="44.80483" lon="4.30767">
        <ele>1286.1</ele>
        <time>2022-06-09T10:44:20Z</time>
      </trkpt>
      <trkpt lat="44.80485" lon="4.30765">
        <ele>1286.2</ele>
        <time>2022-06-09T10:44:22Z</time>
      </trkpt>
      <trkpt lat="44.80488" lon="4.30762">
        <ele>1286.4</ele>
        <time>2022-06-09T10:44:23Z</time>
      </trkpt>
      <trkpt lat="44.80489" lon="4.30762">
        <ele>1286.4</ele>
        <time>2022-06-09T10:44:24Z</time>
      </trkpt>
      <trkpt lat="44.80493" lon="4.30759">
        <ele>1286.6</ele>
        <time>2022-06-09T10:44:25Z</time>
      </trkpt>
      <trkpt lat="44.80494" lon="4.30758">
        <ele>1286.6</ele>
        <time>2022-06-09T10:44:26Z</time>
      </trkpt>
      <trkpt lat="44.80496" lon="4.30756">
        <ele>1286.7</ele>
        <time>2022-06-09T10:44:27Z</time>
      </trkpt>
      <trkpt lat="44.80499" lon="4.30754">
        <ele>1286.9</ele>
        <time>2022-06-09T10:44:28Z</time>
      </trkpt>
      <trkpt lat="44.80502" lon="4.30752">
        <ele>1287</ele>
        <time>2022-06-09T10:44:29Z</time>
      </trkpt>
      <trkpt lat="44.80505" lon="4.30751">
        <ele>1287.1</ele>
        <time>2022-06-09T10:44:30Z</time>
      </trkpt>
      <trkpt lat="44.80509" lon="4.30748">
        <ele>1287.3</ele>
        <time>2022-06-09T10:44:32Z</time>
      </trkpt>
      <trkpt lat="44.80512" lon="4.30747">
        <ele>1287.4</ele>
        <time>2022-06-09T10:44:34Z</time>
      </trkpt>
      <trkpt lat="44.80513" lon="4.30747">
        <ele>1287.5</ele>
        <time>2022-06-09T10:44:35Z</time>
      </trkpt>
      <trkpt lat="44.80516" lon="4.30746">
        <ele>1287.6</ele>
        <time>2022-06-09T10:44:36Z</time>
      </trkpt>
      <trkpt lat="44.8052" lon="4.30744">
        <ele>1287.7</ele>
        <time>2022-06-09T10:44:38Z</time>
      </trkpt>
      <trkpt lat="44.80521" lon="4.30743">
        <ele>1287.8</ele>
        <time>2022-06-09T10:44:39Z</time>
      </trkpt>
      <trkpt lat="44.80525" lon="4.30742">
        <ele>1288</ele>
        <time>2022-06-09T10:44:41Z</time>
      </trkpt>
      <trkpt lat="44.80526" lon="4.30741">
        <ele>1288</ele>
        <time>2022-06-09T10:44:42Z</time>
      </trkpt>
      <trkpt lat="44.80528" lon="4.30741">
        <ele>1288.1</ele>
        <time>2022-06-09T10:44:43Z</time>
      </trkpt>
      <trkpt lat="44.80531" lon="4.3074">
        <ele>1288.2</ele>
        <time>2022-06-09T10:44:44Z</time>
      </trkpt>
      <trkpt lat="44.80534" lon="4.3074">
        <ele>1288.4</ele>
        <time>2022-06-09T10:44:46Z</time>
      </trkpt>
      <trkpt lat="44.80537" lon="4.3074">
        <ele>1288.5</ele>
        <time>2022-06-09T10:44:47Z</time>
      </trkpt>
      <trkpt lat="44.80541" lon="4.3074">
        <ele>1288.6</ele>
        <time>2022-06-09T10:44:48Z</time>
      </trkpt>
      <trkpt lat="44.80542" lon="4.3074">
        <ele>1288.7</ele>
        <time>2022-06-09T10:44:49Z</time>
      </trkpt>
      <trkpt lat="44.80544" lon="4.30739">
        <ele>1288.8</ele>
        <time>2022-06-09T10:44:50Z</time>
      </trkpt>
      <trkpt lat="44.80547" lon="4.30738">
        <ele>1288.9</ele>
        <time>2022-06-09T10:44:52Z</time>
      </trkpt>
      <trkpt lat="44.8055" lon="4.30737">
        <ele>1289</ele>
        <time>2022-06-09T10:44:53Z</time>
      </trkpt>
      <trkpt lat="44.80551" lon="4.30737">
        <ele>1289.1</ele>
        <time>2022-06-09T10:44:54Z</time>
      </trkpt>
      <trkpt lat="44.80554" lon="4.30737">
        <ele>1289.2</ele>
        <time>2022-06-09T10:44:55Z</time>
      </trkpt>
      <trkpt lat="44.80557" lon="4.30736">
        <ele>1289.4</ele>
        <time>2022-06-09T10:44:56Z</time>
      </trkpt>
      <trkpt lat="44.80559" lon="4.30736">
        <ele>1289.4</ele>
        <time>2022-06-09T10:44:57Z</time>
      </trkpt>
      <trkpt lat="44.80562" lon="4.30736">
        <ele>1289.6</ele>
        <time>2022-06-09T10:44:58Z</time>
      </trkpt>
      <trkpt lat="44.80564" lon="4.30736">
        <ele>1289.6</ele>
        <time>2022-06-09T10:44:59Z</time>
      </trkpt>
      <trkpt lat="44.80567" lon="4.30735">
        <ele>1289.8</ele>
        <time>2022-06-09T10:45:01Z</time>
      </trkpt>
      <trkpt lat="44.80571" lon="4.30734">
        <ele>1289.9</ele>
        <time>2022-06-09T10:45:02Z</time>
      </trkpt>
      <trkpt lat="44.80572" lon="4.30734">
        <ele>1290</ele>
        <time>2022-06-09T10:45:03Z</time>
      </trkpt>
      <trkpt lat="44.80576" lon="4.30733">
        <ele>1290.1</ele>
        <time>2022-06-09T10:45:04Z</time>
      </trkpt>
      <trkpt lat="44.80577" lon="4.30733">
        <ele>1290.2</ele>
        <time>2022-06-09T10:45:05Z</time>
      </trkpt>
      <trkpt lat="44.80581" lon="4.30732">
        <ele>1290.4</ele>
        <time>2022-06-09T10:45:06Z</time>
      </trkpt>
      <trkpt lat="44.80582" lon="4.30731">
        <ele>1290.4</ele>
        <time>2022-06-09T10:45:07Z</time>
      </trkpt>
      <trkpt lat="44.80585" lon="4.3073">
        <ele>1290.5</ele>
        <time>2022-06-09T10:45:09Z</time>
      </trkpt>
      <trkpt lat="44.80588" lon="4.30729">
        <ele>1290.6</ele>
        <time>2022-06-09T10:45:10Z</time>
      </trkpt>
      <trkpt lat="44.80591" lon="4.30727">
        <ele>1290.8</ele>
        <time>2022-06-09T10:45:11Z</time>
      </trkpt>
      <trkpt lat="44.80593" lon="4.30726">
        <ele>1290.8</ele>
        <time>2022-06-09T10:45:12Z</time>
      </trkpt>
      <trkpt lat="44.80597" lon="4.30723">
        <ele>1291</ele>
        <time>2022-06-09T10:45:13Z</time>
      </trkpt>
      <trkpt lat="44.806" lon="4.30721">
        <ele>1291.2</ele>
        <time>2022-06-09T10:45:15Z</time>
      </trkpt>
      <trkpt lat="44.80603" lon="4.30718">
        <ele>1291.3</ele>
        <time>2022-06-09T10:45:16Z</time>
      </trkpt>
      <trkpt lat="44.80604" lon="4.30716">
        <ele>1291.4</ele>
        <time>2022-06-09T10:45:17Z</time>
      </trkpt>
      <trkpt lat="44.80607" lon="4.30713">
        <ele>1291.5</ele>
        <time>2022-06-09T10:45:18Z</time>
      </trkpt>
      <trkpt lat="44.80608" lon="4.30712">
        <ele>1291.5</ele>
        <time>2022-06-09T10:45:19Z</time>
      </trkpt>
      <trkpt lat="44.8061" lon="4.30708">
        <ele>1291.7</ele>
        <time>2022-06-09T10:45:20Z</time>
      </trkpt>
      <trkpt lat="44.80611" lon="4.30706">
        <ele>1291.7</ele>
        <time>2022-06-09T10:45:21Z</time>
      </trkpt>
      <trkpt lat="44.80613" lon="4.30702">
        <ele>1291.9</ele>
        <time>2022-06-09T10:45:22Z</time>
      </trkpt>
      <trkpt lat="44.80614" lon="4.307">
        <ele>1292</ele>
        <time>2022-06-09T10:45:23Z</time>
      </trkpt>
      <trkpt lat="44.80617" lon="4.30697">
        <ele>1292.1</ele>
        <time>2022-06-09T10:45:24Z</time>
      </trkpt>
      <trkpt lat="44.80619" lon="4.30694">
        <ele>1292.2</ele>
        <time>2022-06-09T10:45:25Z</time>
      </trkpt>
      <trkpt lat="44.8062" lon="4.30692">
        <ele>1292.3</ele>
        <time>2022-06-09T10:45:26Z</time>
      </trkpt>
      <trkpt lat="44.80623" lon="4.30688">
        <ele>1292.4</ele>
        <time>2022-06-09T10:45:27Z</time>
      </trkpt>
      <trkpt lat="44.80626" lon="4.30684">
        <ele>1292.6</ele>
        <time>2022-06-09T10:45:28Z</time>
      </trkpt>
      <trkpt lat="44.80628" lon="4.30681">
        <ele>1292.7</ele>
        <time>2022-06-09T10:45:30Z</time>
      </trkpt>
      <trkpt lat="44.80631" lon="4.30676">
        <ele>1292.9</ele>
        <time>2022-06-09T10:45:31Z</time>
      </trkpt>
      <trkpt lat="44.80634" lon="4.30672">
        <ele>1293</ele>
        <time>2022-06-09T10:45:33Z</time>
      </trkpt>
      <trkpt lat="44.80637" lon="4.30669">
        <ele>1293.2</ele>
        <time>2022-06-09T10:45:34Z</time>
      </trkpt>
      <trkpt lat="44.8064" lon="4.30665">
        <ele>1293.3</ele>
        <time>2022-06-09T10:45:36Z</time>
      </trkpt>
      <trkpt lat="44.80644" lon="4.30662">
        <ele>1293.5</ele>
        <time>2022-06-09T10:45:37Z</time>
      </trkpt>
      <trkpt lat="44.80645" lon="4.3066">
        <ele>1293.6</ele>
        <time>2022-06-09T10:45:38Z</time>
      </trkpt>
      <trkpt lat="44.80648" lon="4.30657">
        <ele>1293.7</ele>
        <time>2022-06-09T10:45:39Z</time>
      </trkpt>
      <trkpt lat="44.80649" lon="4.30656">
        <ele>1293.8</ele>
        <time>2022-06-09T10:45:40Z</time>
      </trkpt>
      <trkpt lat="44.80651" lon="4.30654">
        <ele>1293.9</ele>
        <time>2022-06-09T10:45:41Z</time>
      </trkpt>
      <trkpt lat="44.80654" lon="4.30652">
        <ele>1294</ele>
        <time>2022-06-09T10:45:43Z</time>
      </trkpt>
      <trkpt lat="44.80658" lon="4.30649">
        <ele>1294.2</ele>
        <time>2022-06-09T10:45:44Z</time>
      </trkpt>
      <trkpt lat="44.80662" lon="4.30646">
        <ele>1294.4</ele>
        <time>2022-06-09T10:45:45Z</time>
      </trkpt>
      <trkpt lat="44.80663" lon="4.30645">
        <ele>1294.4</ele>
        <time>2022-06-09T10:45:46Z</time>
      </trkpt>
      <trkpt lat="44.80665" lon="4.30643">
        <ele>1294.6</ele>
        <time>2022-06-09T10:45:48Z</time>
      </trkpt>
      <trkpt lat="44.80671" lon="4.30639">
        <ele>1294.8</ele>
        <time>2022-06-09T10:45:50Z</time>
      </trkpt>
      <trkpt lat="44.80676" lon="4.30636">
        <ele>1295</ele>
        <time>2022-06-09T10:45:51Z</time>
      </trkpt>
      <trkpt lat="44.80678" lon="4.30635">
        <ele>1295.2</ele>
        <time>2022-06-09T10:45:52Z</time>
      </trkpt>
      <trkpt lat="44.80681" lon="4.30633">
        <ele>1295.3</ele>
        <time>2022-06-09T10:45:54Z</time>
      </trkpt>
      <trkpt lat="44.80684" lon="4.30631">
        <ele>1295.4</ele>
        <time>2022-06-09T10:45:55Z</time>
      </trkpt>
      <trkpt lat="44.80688" lon="4.30627">
        <ele>1295.6</ele>
        <time>2022-06-09T10:45:56Z</time>
      </trkpt>
      <trkpt lat="44.80693" lon="4.30624">
        <ele>1295.9</ele>
        <time>2022-06-09T10:45:58Z</time>
      </trkpt>
      <trkpt lat="44.80694" lon="4.30622">
        <ele>1296</ele>
        <time>2022-06-09T10:45:59Z</time>
      </trkpt>
      <trkpt lat="44.80696" lon="4.30621">
        <ele>1296.1</ele>
        <time>2022-06-09T10:46:00Z</time>
      </trkpt>
      <trkpt lat="44.80699" lon="4.30618">
        <ele>1296.2</ele>
        <time>2022-06-09T10:46:01Z</time>
      </trkpt>
      <trkpt lat="44.80701" lon="4.30617">
        <ele>1296.3</ele>
        <time>2022-06-09T10:46:02Z</time>
      </trkpt>
      <trkpt lat="44.80704" lon="4.30614">
        <ele>1296.4</ele>
        <time>2022-06-09T10:46:03Z</time>
      </trkpt>
      <trkpt lat="44.80705" lon="4.30613">
        <ele>1296.5</ele>
        <time>2022-06-09T10:46:04Z</time>
      </trkpt>
      <trkpt lat="44.80708" lon="4.3061">
        <ele>1296.6</ele>
        <time>2022-06-09T10:46:06Z</time>
      </trkpt>
      <trkpt lat="44.80709" lon="4.30609">
        <ele>1296.7</ele>
        <time>2022-06-09T10:46:07Z</time>
      </trkpt>
      <trkpt lat="44.80711" lon="4.30607">
        <ele>1296.8</ele>
        <time>2022-06-09T10:46:08Z</time>
      </trkpt>
      <trkpt lat="44.80715" lon="4.30603">
        <ele>1297</ele>
        <time>2022-06-09T10:46:09Z</time>
      </trkpt>
      <trkpt lat="44.80716" lon="4.30602">
        <ele>1297</ele>
        <time>2022-06-09T10:46:10Z</time>
      </trkpt>
      <trkpt lat="44.8072" lon="4.30598">
        <ele>1297.3</ele>
        <time>2022-06-09T10:46:11Z</time>
      </trkpt>
      <trkpt lat="44.80723" lon="4.30595">
        <ele>1297.4</ele>
        <time>2022-06-09T10:46:13Z</time>
      </trkpt>
      <trkpt lat="44.80726" lon="4.30592">
        <ele>1297.5</ele>
        <time>2022-06-09T10:46:14Z</time>
      </trkpt>
      <trkpt lat="44.80727" lon="4.30591">
        <ele>1297.6</ele>
        <time>2022-06-09T10:46:15Z</time>
      </trkpt>
      <trkpt lat="44.8073" lon="4.30588">
        <ele>1297.7</ele>
        <time>2022-06-09T10:46:16Z</time>
      </trkpt>
      <trkpt lat="44.80732" lon="4.30585">
        <ele>1297.8</ele>
        <time>2022-06-09T10:46:17Z</time>
      </trkpt>
      <trkpt lat="44.80735" lon="4.30581">
        <ele>1298</ele>
        <time>2022-06-09T10:46:18Z</time>
      </trkpt>
      <trkpt lat="44.80737" lon="4.30578">
        <ele>1298.1</ele>
        <time>2022-06-09T10:46:19Z</time>
      </trkpt>
      <trkpt lat="44.80739" lon="4.30574">
        <ele>1298.3</ele>
        <time>2022-06-09T10:46:21Z</time>
      </trkpt>
      <trkpt lat="44.80741" lon="4.3057">
        <ele>1298.4</ele>
        <time>2022-06-09T10:46:22Z</time>
      </trkpt>
      <trkpt lat="44.80744" lon="4.30564">
        <ele>1298.7</ele>
        <time>2022-06-09T10:46:24Z</time>
      </trkpt>
      <trkpt lat="44.80745" lon="4.30561">
        <ele>1298.8</ele>
        <time>2022-06-09T10:46:26Z</time>
      </trkpt>
      <trkpt lat="44.80747" lon="4.30557">
        <ele>1298.9</ele>
        <time>2022-06-09T10:46:27Z</time>
      </trkpt>
      <trkpt lat="44.8075" lon="4.30553">
        <ele>1299.1</ele>
        <time>2022-06-09T10:46:28Z</time>
      </trkpt>
      <trkpt lat="44.80751" lon="4.30551">
        <ele>1299.1</ele>
        <time>2022-06-09T10:46:29Z</time>
      </trkpt>
      <trkpt lat="44.80754" lon="4.30545">
        <ele>1299.3</ele>
        <time>2022-06-09T10:46:31Z</time>
      </trkpt>
      <trkpt lat="44.80755" lon="4.30544">
        <ele>1299.4</ele>
        <time>2022-06-09T10:46:32Z</time>
      </trkpt>
      <trkpt lat="44.80756" lon="4.30542">
        <ele>1299.4</ele>
        <time>2022-06-09T10:46:33Z</time>
      </trkpt>
      <trkpt lat="44.80759" lon="4.3054">
        <ele>1299.6</ele>
        <time>2022-06-09T10:46:35Z</time>
      </trkpt>
      <trkpt lat="44.80761" lon="4.30536">
        <ele>1299.7</ele>
        <time>2022-06-09T10:46:36Z</time>
      </trkpt>
      <trkpt lat="44.80762" lon="4.30536">
        <ele>1299.8</ele>
        <time>2022-06-09T10:46:37Z</time>
      </trkpt>
      <trkpt lat="44.80764" lon="4.30532">
        <ele>1299.9</ele>
        <time>2022-06-09T10:46:38Z</time>
      </trkpt>
      <trkpt lat="44.80767" lon="4.3053">
        <ele>1300</ele>
        <time>2022-06-09T10:46:39Z</time>
      </trkpt>
      <trkpt lat="44.80771" lon="4.30526">
        <ele>1300.2</ele>
        <time>2022-06-09T10:46:41Z</time>
      </trkpt>
      <trkpt lat="44.80772" lon="4.30525">
        <ele>1300.3</ele>
        <time>2022-06-09T10:46:42Z</time>
      </trkpt>
      <trkpt lat="44.80773" lon="4.30524">
        <ele>1300.3</ele>
        <time>2022-06-09T10:46:43Z</time>
      </trkpt>
      <trkpt lat="44.80777" lon="4.30521">
        <ele>1300.5</ele>
        <time>2022-06-09T10:46:44Z</time>
      </trkpt>
      <trkpt lat="44.80779" lon="4.3052">
        <ele>1300.6</ele>
        <time>2022-06-09T10:46:45Z</time>
      </trkpt>
      <trkpt lat="44.80781" lon="4.30518">
        <ele>1300.7</ele>
        <time>2022-06-09T10:46:47Z</time>
      </trkpt>
      <trkpt lat="44.80784" lon="4.30515">
        <ele>1300.8</ele>
        <time>2022-06-09T10:46:48Z</time>
      </trkpt>
      <trkpt lat="44.80785" lon="4.30514">
        <ele>1300.9</ele>
        <time>2022-06-09T10:46:49Z</time>
      </trkpt>
      <trkpt lat="44.80789" lon="4.30511">
        <ele>1301</ele>
        <time>2022-06-09T10:46:50Z</time>
      </trkpt>
      <trkpt lat="44.8079" lon="4.3051">
        <ele>1301.1</ele>
        <time>2022-06-09T10:46:51Z</time>
      </trkpt>
      <trkpt lat="44.80793" lon="4.30507">
        <ele>1301.2</ele>
        <time>2022-06-09T10:46:52Z</time>
      </trkpt>
      <trkpt lat="44.80794" lon="4.30506">
        <ele>1301.2</ele>
        <time>2022-06-09T10:46:53Z</time>
      </trkpt>
      <trkpt lat="44.80796" lon="4.30504">
        <ele>1301.3</ele>
        <time>2022-06-09T10:46:54Z</time>
      </trkpt>
      <trkpt lat="44.80799" lon="4.30503">
        <ele>1301.4</ele>
        <time>2022-06-09T10:46:56Z</time>
      </trkpt>
      <trkpt lat="44.80802" lon="4.30501">
        <ele>1301.5</ele>
        <time>2022-06-09T10:46:57Z</time>
      </trkpt>
      <trkpt lat="44.80804" lon="4.30501">
        <ele>1301.6</ele>
        <time>2022-06-09T10:46:58Z</time>
      </trkpt>
      <trkpt lat="44.80806" lon="4.30498">
        <ele>1301.7</ele>
        <time>2022-06-09T10:46:59Z</time>
      </trkpt>
      <trkpt lat="44.8081" lon="4.30496">
        <ele>1301.8</ele>
        <time>2022-06-09T10:47:00Z</time>
      </trkpt>
      <trkpt lat="44.80811" lon="4.30495">
        <ele>1301.8</ele>
        <time>2022-06-09T10:47:01Z</time>
      </trkpt>
      <trkpt lat="44.80814" lon="4.30494">
        <ele>1301.9</ele>
        <time>2022-06-09T10:47:02Z</time>
      </trkpt>
      <trkpt lat="44.80815" lon="4.30493">
        <ele>1302</ele>
        <time>2022-06-09T10:47:03Z</time>
      </trkpt>
      <trkpt lat="44.80818" lon="4.30491">
        <ele>1302.1</ele>
        <time>2022-06-09T10:47:04Z</time>
      </trkpt>
      <trkpt lat="44.80819" lon="4.3049">
        <ele>1302.1</ele>
        <time>2022-06-09T10:47:05Z</time>
      </trkpt>
      <trkpt lat="44.80822" lon="4.30489">
        <ele>1302.3</ele>
        <time>2022-06-09T10:47:06Z</time>
      </trkpt>
      <trkpt lat="44.80824" lon="4.30489">
        <ele>1302.3</ele>
        <time>2022-06-09T10:47:07Z</time>
      </trkpt>
      <trkpt lat="44.80828" lon="4.30486">
        <ele>1302.5</ele>
        <time>2022-06-09T10:47:08Z</time>
      </trkpt>
      <trkpt lat="44.8083" lon="4.30485">
        <ele>1302.6</ele>
        <time>2022-06-09T10:47:09Z</time>
      </trkpt>
      <trkpt lat="44.80832" lon="4.30484">
        <ele>1302.6</ele>
        <time>2022-06-09T10:47:10Z</time>
      </trkpt>
      <trkpt lat="44.80835" lon="4.30483">
        <ele>1302.7</ele>
        <time>2022-06-09T10:47:12Z</time>
      </trkpt>
      <trkpt lat="44.80839" lon="4.30481">
        <ele>1302.9</ele>
        <time>2022-06-09T10:47:13Z</time>
      </trkpt>
      <trkpt lat="44.8084" lon="4.3048">
        <ele>1302.9</ele>
        <time>2022-06-09T10:47:14Z</time>
      </trkpt>
      <trkpt lat="44.80843" lon="4.30478">
        <ele>1303.1</ele>
        <time>2022-06-09T10:47:15Z</time>
      </trkpt>
      <trkpt lat="44.80844" lon="4.30478">
        <ele>1303.1</ele>
        <time>2022-06-09T10:47:16Z</time>
      </trkpt>
      <trkpt lat="44.80847" lon="4.30477">
        <ele>1303.3</ele>
        <time>2022-06-09T10:47:17Z</time>
      </trkpt>
      <trkpt lat="44.80849" lon="4.30476">
        <ele>1303.3</ele>
        <time>2022-06-09T10:47:18Z</time>
      </trkpt>
      <trkpt lat="44.80853" lon="4.30475">
        <ele>1303.5</ele>
        <time>2022-06-09T10:47:19Z</time>
      </trkpt>
      <trkpt lat="44.80857" lon="4.30472">
        <ele>1303.7</ele>
        <time>2022-06-09T10:47:21Z</time>
      </trkpt>
      <trkpt lat="44.80859" lon="4.30471">
        <ele>1303.8</ele>
        <time>2022-06-09T10:47:22Z</time>
      </trkpt>
      <trkpt lat="44.80861" lon="4.3047">
        <ele>1303.8</ele>
        <time>2022-06-09T10:47:23Z</time>
      </trkpt>
      <trkpt lat="44.80863" lon="4.3047">
        <ele>1303.9</ele>
        <time>2022-06-09T10:47:24Z</time>
      </trkpt>
      <trkpt lat="44.80866" lon="4.30468">
        <ele>1304.1</ele>
        <time>2022-06-09T10:47:26Z</time>
      </trkpt>
      <trkpt lat="44.80869" lon="4.30467">
        <ele>1304.2</ele>
        <time>2022-06-09T10:47:27Z</time>
      </trkpt>
      <trkpt lat="44.80872" lon="4.30466">
        <ele>1304.3</ele>
        <time>2022-06-09T10:47:28Z</time>
      </trkpt>
      <trkpt lat="44.80875" lon="4.30464">
        <ele>1304.5</ele>
        <time>2022-06-09T10:47:29Z</time>
      </trkpt>
      <trkpt lat="44.80878" lon="4.30462">
        <ele>1304.6</ele>
        <time>2022-06-09T10:47:31Z</time>
      </trkpt>
      <trkpt lat="44.80879" lon="4.30461">
        <ele>1304.7</ele>
        <time>2022-06-09T10:47:32Z</time>
      </trkpt>
      <trkpt lat="44.80884" lon="4.30457">
        <ele>1304.9</ele>
        <time>2022-06-09T10:47:33Z</time>
      </trkpt>
      <trkpt lat="44.80886" lon="4.30456">
        <ele>1304.9</ele>
        <time>2022-06-09T10:47:35Z</time>
      </trkpt>
      <trkpt lat="44.80889" lon="4.30454">
        <ele>1305.1</ele>
        <time>2022-06-09T10:47:36Z</time>
      </trkpt>
      <trkpt lat="44.80891" lon="4.30453">
        <ele>1305.2</ele>
        <time>2022-06-09T10:47:37Z</time>
      </trkpt>
      <trkpt lat="44.80894" lon="4.30451">
        <ele>1305.3</ele>
        <time>2022-06-09T10:47:38Z</time>
      </trkpt>
      <trkpt lat="44.80895" lon="4.3045">
        <ele>1305.4</ele>
        <time>2022-06-09T10:47:39Z</time>
      </trkpt>
      <trkpt lat="44.80898" lon="4.30447">
        <ele>1305.5</ele>
        <time>2022-06-09T10:47:40Z</time>
      </trkpt>
      <trkpt lat="44.809" lon="4.30445">
        <ele>1305.6</ele>
        <time>2022-06-09T10:47:41Z</time>
      </trkpt>
      <trkpt lat="44.80902" lon="4.30443">
        <ele>1305.7</ele>
        <time>2022-06-09T10:47:43Z</time>
      </trkpt>
      <trkpt lat="44.80905" lon="4.30439">
        <ele>1305.9</ele>
        <time>2022-06-09T10:47:44Z</time>
      </trkpt>
      <trkpt lat="44.80906" lon="4.30438">
        <ele>1305.9</ele>
        <time>2022-06-09T10:47:45Z</time>
      </trkpt>
      <trkpt lat="44.80909" lon="4.30435">
        <ele>1306.1</ele>
        <time>2022-06-09T10:47:46Z</time>
      </trkpt>
      <trkpt lat="44.80911" lon="4.30432">
        <ele>1306.2</ele>
        <time>2022-06-09T10:47:47Z</time>
      </trkpt>
      <trkpt lat="44.80913" lon="4.30429">
        <ele>1306.4</ele>
        <time>2022-06-09T10:47:48Z</time>
      </trkpt>
      <trkpt lat="44.80914" lon="4.30427">
        <ele>1306.4</ele>
        <time>2022-06-09T10:47:49Z</time>
      </trkpt>
      <trkpt lat="44.80917" lon="4.30422">
        <ele>1306.6</ele>
        <time>2022-06-09T10:47:51Z</time>
      </trkpt>
      <trkpt lat="44.80919" lon="4.3042">
        <ele>1306.7</ele>
        <time>2022-06-09T10:47:52Z</time>
      </trkpt>
      <trkpt lat="44.80921" lon="4.30413">
        <ele>1307</ele>
        <time>2022-06-09T10:47:55Z</time>
      </trkpt>
      <trkpt lat="44.80924" lon="4.30407">
        <ele>1307.2</ele>
        <time>2022-06-09T10:47:56Z</time>
      </trkpt>
      <trkpt lat="44.80925" lon="4.30404">
        <ele>1307.3</ele>
        <time>2022-06-09T10:47:57Z</time>
      </trkpt>
      <trkpt lat="44.80926" lon="4.30399">
        <ele>1307.4</ele>
        <time>2022-06-09T10:47:59Z</time>
      </trkpt>
      <trkpt lat="44.80927" lon="4.30395">
        <ele>1307.5</ele>
        <time>2022-06-09T10:48:00Z</time>
      </trkpt>
      <trkpt lat="44.80928" lon="4.30391">
        <ele>1307.7</ele>
        <time>2022-06-09T10:48:01Z</time>
      </trkpt>
      <trkpt lat="44.80929" lon="4.30384">
        <ele>1307.9</ele>
        <time>2022-06-09T10:48:02Z</time>
      </trkpt>
      <trkpt lat="44.80929" lon="4.3038">
        <ele>1308</ele>
        <time>2022-06-09T10:48:04Z</time>
      </trkpt>
      <trkpt lat="44.80929" lon="4.30375">
        <ele>1308.1</ele>
        <time>2022-06-09T10:48:05Z</time>
      </trkpt>
      <trkpt lat="44.8093" lon="4.30371">
        <ele>1308.2</ele>
        <time>2022-06-09T10:48:06Z</time>
      </trkpt>
      <trkpt lat="44.80929" lon="4.30365">
        <ele>1308.4</ele>
        <time>2022-06-09T10:48:07Z</time>
      </trkpt>
      <trkpt lat="44.80929" lon="4.30362">
        <ele>1308.5</ele>
        <time>2022-06-09T10:48:08Z</time>
      </trkpt>
      <trkpt lat="44.80928" lon="4.30357">
        <ele>1308.6</ele>
        <time>2022-06-09T10:48:10Z</time>
      </trkpt>
      <trkpt lat="44.80927" lon="4.30353">
        <ele>1308.8</ele>
        <time>2022-06-09T10:48:11Z</time>
      </trkpt>
      <trkpt lat="44.80926" lon="4.30349">
        <ele>1308.9</ele>
        <time>2022-06-09T10:48:12Z</time>
      </trkpt>
      <trkpt lat="44.80924" lon="4.30345">
        <ele>1309</ele>
        <time>2022-06-09T10:48:13Z</time>
      </trkpt>
      <trkpt lat="44.80922" lon="4.30341">
        <ele>1309.1</ele>
        <time>2022-06-09T10:48:14Z</time>
      </trkpt>
      <trkpt lat="44.80922" lon="4.3034">
        <ele>1309.2</ele>
        <time>2022-06-09T10:48:15Z</time>
      </trkpt>
      <trkpt lat="44.8092" lon="4.30335">
        <ele>1309.3</ele>
        <time>2022-06-09T10:48:16Z</time>
      </trkpt>
      <trkpt lat="44.80918" lon="4.30331">
        <ele>1309.5</ele>
        <time>2022-06-09T10:48:17Z</time>
      </trkpt>
      <trkpt lat="44.80917" lon="4.30329">
        <ele>1309.5</ele>
        <time>2022-06-09T10:48:18Z</time>
      </trkpt>
      <trkpt lat="44.80915" lon="4.30325">
        <ele>1309.7</ele>
        <time>2022-06-09T10:48:19Z</time>
      </trkpt>
      <trkpt lat="44.80913" lon="4.3032">
        <ele>1309.8</ele>
        <time>2022-06-09T10:48:21Z</time>
      </trkpt>
      <trkpt lat="44.80912" lon="4.30318">
        <ele>1309.9</ele>
        <time>2022-06-09T10:48:22Z</time>
      </trkpt>
      <trkpt lat="44.80911" lon="4.30316">
        <ele>1310</ele>
        <time>2022-06-09T10:48:23Z</time>
      </trkpt>
      <trkpt lat="44.80908" lon="4.30312">
        <ele>1310.1</ele>
        <time>2022-06-09T10:48:24Z</time>
      </trkpt>
      <trkpt lat="44.80908" lon="4.3031">
        <ele>1310.1</ele>
        <time>2022-06-09T10:48:25Z</time>
      </trkpt>
      <trkpt lat="44.80906" lon="4.30306">
        <ele>1310.3</ele>
        <time>2022-06-09T10:48:26Z</time>
      </trkpt>
      <trkpt lat="44.80904" lon="4.30301">
        <ele>1310.5</ele>
        <time>2022-06-09T10:48:27Z</time>
      </trkpt>
      <trkpt lat="44.80903" lon="4.303">
        <ele>1310.5</ele>
        <time>2022-06-09T10:48:28Z</time>
      </trkpt>
      <trkpt lat="44.80901" lon="4.30296">
        <ele>1310.6</ele>
        <time>2022-06-09T10:48:29Z</time>
      </trkpt>
      <trkpt lat="44.80898" lon="4.30292">
        <ele>1310.8</ele>
        <time>2022-06-09T10:48:30Z</time>
      </trkpt>
      <trkpt lat="44.80895" lon="4.30287">
        <ele>1311</ele>
        <time>2022-06-09T10:48:32Z</time>
      </trkpt>
      <trkpt lat="44.80894" lon="4.30285">
        <ele>1311.1</ele>
        <time>2022-06-09T10:48:33Z</time>
      </trkpt>
      <trkpt lat="44.80893" lon="4.30283">
        <ele>1311.2</ele>
        <time>2022-06-09T10:48:34Z</time>
      </trkpt>
      <trkpt lat="44.80891" lon="4.30278">
        <ele>1311.3</ele>
        <time>2022-06-09T10:48:35Z</time>
      </trkpt>
      <trkpt lat="44.8089" lon="4.30277">
        <ele>1311.4</ele>
        <time>2022-06-09T10:48:36Z</time>
      </trkpt>
      <trkpt lat="44.80888" lon="4.30273">
        <ele>1311.5</ele>
        <time>2022-06-09T10:48:37Z</time>
      </trkpt>
      <trkpt lat="44.80886" lon="4.3027">
        <ele>1311.6</ele>
        <time>2022-06-09T10:48:38Z</time>
      </trkpt>
      <trkpt lat="44.80885" lon="4.30267">
        <ele>1311.8</ele>
        <time>2022-06-09T10:48:39Z</time>
      </trkpt>
      <trkpt lat="44.80883" lon="4.30263">
        <ele>1311.9</ele>
        <time>2022-06-09T10:48:40Z</time>
      </trkpt>
      <trkpt lat="44.80881" lon="4.30258">
        <ele>1312.1</ele>
        <time>2022-06-09T10:48:41Z</time>
      </trkpt>
      <trkpt lat="44.8088" lon="4.30256">
        <ele>1312.1</ele>
        <time>2022-06-09T10:48:42Z</time>
      </trkpt>
      <trkpt lat="44.80877" lon="4.30251">
        <ele>1312.4</ele>
        <time>2022-06-09T10:48:43Z</time>
      </trkpt>
      <trkpt lat="44.80875" lon="4.30247">
        <ele>1312.5</ele>
        <time>2022-06-09T10:48:44Z</time>
      </trkpt>
      <trkpt lat="44.80873" lon="4.30243">
        <ele>1312.6</ele>
        <time>2022-06-09T10:48:46Z</time>
      </trkpt>
      <trkpt lat="44.80871" lon="4.30239">
        <ele>1312.8</ele>
        <time>2022-06-09T10:48:47Z</time>
      </trkpt>
      <trkpt lat="44.80869" lon="4.30235">
        <ele>1312.9</ele>
        <time>2022-06-09T10:48:48Z</time>
      </trkpt>
      <trkpt lat="44.80867" lon="4.30231">
        <ele>1313.1</ele>
        <time>2022-06-09T10:48:49Z</time>
      </trkpt>
      <trkpt lat="44.80865" lon="4.30226">
        <ele>1313.3</ele>
        <time>2022-06-09T10:48:51Z</time>
      </trkpt>
      <trkpt lat="44.80863" lon="4.30223">
        <ele>1313.4</ele>
        <time>2022-06-09T10:48:52Z</time>
      </trkpt>
      <trkpt lat="44.80861" lon="4.30219">
        <ele>1313.6</ele>
        <time>2022-06-09T10:48:53Z</time>
      </trkpt>
      <trkpt lat="44.8086" lon="4.30217">
        <ele>1313.6</ele>
        <time>2022-06-09T10:48:54Z</time>
      </trkpt>
      <trkpt lat="44.80857" lon="4.30211">
        <ele>1313.9</ele>
        <time>2022-06-09T10:48:55Z</time>
      </trkpt>
      <trkpt lat="44.80855" lon="4.30206">
        <ele>1314.1</ele>
        <time>2022-06-09T10:48:57Z</time>
      </trkpt>
      <trkpt lat="44.80852" lon="4.302">
        <ele>1314.3</ele>
        <time>2022-06-09T10:48:58Z</time>
      </trkpt>
      <trkpt lat="44.8085" lon="4.30196">
        <ele>1314.5</ele>
        <time>2022-06-09T10:49:00Z</time>
      </trkpt>
      <trkpt lat="44.80846" lon="4.30188">
        <ele>1314.7</ele>
        <time>2022-06-09T10:49:02Z</time>
      </trkpt>
      <trkpt lat="44.80844" lon="4.30183">
        <ele>1314.9</ele>
        <time>2022-06-09T10:49:03Z</time>
      </trkpt>
      <trkpt lat="44.80842" lon="4.30179">
        <ele>1315.1</ele>
        <time>2022-06-09T10:49:04Z</time>
      </trkpt>
      <trkpt lat="44.8084" lon="4.30176">
        <ele>1315.2</ele>
        <time>2022-06-09T10:49:05Z</time>
      </trkpt>
      <trkpt lat="44.80838" lon="4.30171">
        <ele>1315.4</ele>
        <time>2022-06-09T10:49:07Z</time>
      </trkpt>
      <trkpt lat="44.80837" lon="4.30168">
        <ele>1315.5</ele>
        <time>2022-06-09T10:49:08Z</time>
      </trkpt>
      <trkpt lat="44.80835" lon="4.30165">
        <ele>1315.6</ele>
        <time>2022-06-09T10:49:09Z</time>
      </trkpt>
      <trkpt lat="44.80833" lon="4.30161">
        <ele>1315.7</ele>
        <time>2022-06-09T10:49:10Z</time>
      </trkpt>
      <trkpt lat="44.80831" lon="4.30158">
        <ele>1315.9</ele>
        <time>2022-06-09T10:49:11Z</time>
      </trkpt>
      <trkpt lat="44.80828" lon="4.30151">
        <ele>1316.1</ele>
        <time>2022-06-09T10:49:12Z</time>
      </trkpt>
      <trkpt lat="44.80827" lon="4.30147">
        <ele>1316.3</ele>
        <time>2022-06-09T10:49:14Z</time>
      </trkpt>
      <trkpt lat="44.80825" lon="4.30142">
        <ele>1316.5</ele>
        <time>2022-06-09T10:49:15Z</time>
      </trkpt>
      <trkpt lat="44.80823" lon="4.30138">
        <ele>1316.6</ele>
        <time>2022-06-09T10:49:16Z</time>
      </trkpt>
      <trkpt lat="44.80821" lon="4.30135">
        <ele>1316.7</ele>
        <time>2022-06-09T10:49:17Z</time>
      </trkpt>
      <trkpt lat="44.80821" lon="4.30134">
        <ele>1316.8</ele>
        <time>2022-06-09T10:49:19Z</time>
      </trkpt>
      <trkpt lat="44.80821" lon="4.30133">
        <ele>1316.8</ele>
        <time>2022-06-09T10:49:20Z</time>
      </trkpt>
      <trkpt lat="44.80821" lon="4.30133">
        <ele>1316.8</ele>
        <time>2022-06-09T10:49:21Z</time>
      </trkpt>
      <trkpt lat="44.80821" lon="4.30132">
        <ele>1316.8</ele>
        <time>2022-06-09T10:49:22Z</time>
      </trkpt>
      <trkpt lat="44.80821" lon="4.30131">
        <ele>1316.9</ele>
        <time>2022-06-09T10:49:23Z</time>
      </trkpt>
      <trkpt lat="44.8082" lon="4.3013">
        <ele>1316.9</ele>
        <time>2022-06-09T10:49:24Z</time>
      </trkpt>
      <trkpt lat="44.8082" lon="4.3013">
        <ele>1316.9</ele>
        <time>2022-06-09T10:49:25Z</time>
      </trkpt>
      <trkpt lat="44.8082" lon="4.30129">
        <ele>1316.9</ele>
        <time>2022-06-09T10:49:26Z</time>
      </trkpt>
      <trkpt lat="44.8082" lon="4.30128">
        <ele>1316.9</ele>
        <time>2022-06-09T10:49:27Z</time>
      </trkpt>
      <trkpt lat="44.8082" lon="4.30128">
        <ele>1317</ele>
        <time>2022-06-09T10:49:28Z</time>
      </trkpt>
      <trkpt lat="44.8082" lon="4.30127">
        <ele>1317</ele>
        <time>2022-06-09T10:49:30Z</time>
      </trkpt>
      <trkpt lat="44.8082" lon="4.30126">
        <ele>1317</ele>
        <time>2022-06-09T10:49:31Z</time>
      </trkpt>
      <trkpt lat="44.80819" lon="4.30126">
        <ele>1317</ele>
        <time>2022-06-09T10:49:59Z</time>
      </trkpt>
      <trkpt lat="44.80819" lon="4.30125">
        <ele>1317</ele>
        <time>2022-06-09T10:50:00Z</time>
      </trkpt>
      <trkpt lat="44.80816" lon="4.30118">
        <ele>1317.2</ele>
        <time>2022-06-09T10:50:02Z</time>
      </trkpt>
      <trkpt lat="44.80815" lon="4.30114">
        <ele>1317.3</ele>
        <time>2022-06-09T10:50:04Z</time>
      </trkpt>
      <trkpt lat="44.80814" lon="4.30109">
        <ele>1317.4</ele>
        <time>2022-06-09T10:50:05Z</time>
      </trkpt>
      <trkpt lat="44.80814" lon="4.30104">
        <ele>1317.5</ele>
        <time>2022-06-09T10:50:06Z</time>
      </trkpt>
      <trkpt lat="44.80813" lon="4.30099">
        <ele>1317.6</ele>
        <time>2022-06-09T10:50:07Z</time>
      </trkpt>
      <trkpt lat="44.80813" lon="4.30093">
        <ele>1317.6</ele>
        <time>2022-06-09T10:50:08Z</time>
      </trkpt>
      <trkpt lat="44.80812" lon="4.30087">
        <ele>1317.6</ele>
        <time>2022-06-09T10:50:09Z</time>
      </trkpt>
      <trkpt lat="44.80813" lon="4.30081">
        <ele>1317.7</ele>
        <time>2022-06-09T10:50:10Z</time>
      </trkpt>
      <trkpt lat="44.80813" lon="4.30076">
        <ele>1317.7</ele>
        <time>2022-06-09T10:50:11Z</time>
      </trkpt>
      <trkpt lat="44.80814" lon="4.30071">
        <ele>1317.7</ele>
        <time>2022-06-09T10:50:12Z</time>
      </trkpt>
      <trkpt lat="44.80816" lon="4.30066">
        <ele>1317.7</ele>
        <time>2022-06-09T10:50:13Z</time>
      </trkpt>
      <trkpt lat="44.80818" lon="4.3006">
        <ele>1317.7</ele>
        <time>2022-06-09T10:50:14Z</time>
      </trkpt>
      <trkpt lat="44.8082" lon="4.30056">
        <ele>1317.7</ele>
        <time>2022-06-09T10:50:15Z</time>
      </trkpt>
      <trkpt lat="44.80822" lon="4.30051">
        <ele>1317.7</ele>
        <time>2022-06-09T10:50:16Z</time>
      </trkpt>
      <trkpt lat="44.80825" lon="4.3004">
        <ele>1317.6</ele>
        <time>2022-06-09T10:50:17Z</time>
      </trkpt>
      <trkpt lat="44.80827" lon="4.30035">
        <ele>1317.6</ele>
        <time>2022-06-09T10:50:18Z</time>
      </trkpt>
      <trkpt lat="44.80829" lon="4.3003">
        <ele>1317.5</ele>
        <time>2022-06-09T10:50:20Z</time>
      </trkpt>
      <trkpt lat="44.80831" lon="4.30022">
        <ele>1317.5</ele>
        <time>2022-06-09T10:50:21Z</time>
      </trkpt>
      <trkpt lat="44.80836" lon="4.3001">
        <ele>1317.3</ele>
        <time>2022-06-09T10:50:23Z</time>
      </trkpt>
      <trkpt lat="44.80838" lon="4.30004">
        <ele>1317.3</ele>
        <time>2022-06-09T10:50:24Z</time>
      </trkpt>
      <trkpt lat="44.8084" lon="4.29998">
        <ele>1317.2</ele>
        <time>2022-06-09T10:50:25Z</time>
      </trkpt>
      <trkpt lat="44.80842" lon="4.29991">
        <ele>1317.1</ele>
        <time>2022-06-09T10:50:26Z</time>
      </trkpt>
      <trkpt lat="44.80844" lon="4.29985">
        <ele>1317</ele>
        <time>2022-06-09T10:50:27Z</time>
      </trkpt>
      <trkpt lat="44.80846" lon="4.29978">
        <ele>1317</ele>
        <time>2022-06-09T10:50:28Z</time>
      </trkpt>
      <trkpt lat="44.80847" lon="4.29971">
        <ele>1316.9</ele>
        <time>2022-06-09T10:50:29Z</time>
      </trkpt>
      <trkpt lat="44.80849" lon="4.29964">
        <ele>1316.8</ele>
        <time>2022-06-09T10:50:30Z</time>
      </trkpt>
      <trkpt lat="44.80851" lon="4.29957">
        <ele>1316.8</ele>
        <time>2022-06-09T10:50:31Z</time>
      </trkpt>
      <trkpt lat="44.80852" lon="4.2995">
        <ele>1316.7</ele>
        <time>2022-06-09T10:50:32Z</time>
      </trkpt>
      <trkpt lat="44.80853" lon="4.29943">
        <ele>1316.7</ele>
        <time>2022-06-09T10:50:33Z</time>
      </trkpt>
      <trkpt lat="44.80853" lon="4.29935">
        <ele>1316.6</ele>
        <time>2022-06-09T10:50:34Z</time>
      </trkpt>
      <trkpt lat="44.80853" lon="4.29928">
        <ele>1316.5</ele>
        <time>2022-06-09T10:50:35Z</time>
      </trkpt>
      <trkpt lat="44.80853" lon="4.2992">
        <ele>1316.5</ele>
        <time>2022-06-09T10:50:36Z</time>
      </trkpt>
      <trkpt lat="44.80854" lon="4.29912">
        <ele>1316.5</ele>
        <time>2022-06-09T10:50:37Z</time>
      </trkpt>
      <trkpt lat="44.80853" lon="4.29904">
        <ele>1316.4</ele>
        <time>2022-06-09T10:50:38Z</time>
      </trkpt>
      <trkpt lat="44.80853" lon="4.29896">
        <ele>1316.4</ele>
        <time>2022-06-09T10:50:39Z</time>
      </trkpt>
      <trkpt lat="44.80853" lon="4.29889">
        <ele>1316.4</ele>
        <time>2022-06-09T10:50:40Z</time>
      </trkpt>
      <trkpt lat="44.80853" lon="4.29881">
        <ele>1316.4</ele>
        <time>2022-06-09T10:50:41Z</time>
      </trkpt>
      <trkpt lat="44.80853" lon="4.29874">
        <ele>1316.4</ele>
        <time>2022-06-09T10:50:42Z</time>
      </trkpt>
      <trkpt lat="44.80854" lon="4.29867">
        <ele>1316.4</ele>
        <time>2022-06-09T10:50:43Z</time>
      </trkpt>
      <trkpt lat="44.80854" lon="4.2986">
        <ele>1316.3</ele>
        <time>2022-06-09T10:50:44Z</time>
      </trkpt>
      <trkpt lat="44.80854" lon="4.29853">
        <ele>1316.3</ele>
        <time>2022-06-09T10:50:45Z</time>
      </trkpt>
      <trkpt lat="44.80854" lon="4.29846">
        <ele>1316.3</ele>
        <time>2022-06-09T10:50:46Z</time>
      </trkpt>
      <trkpt lat="44.80853" lon="4.29841">
        <ele>1316.3</ele>
        <time>2022-06-09T10:50:47Z</time>
      </trkpt>
      <trkpt lat="44.80854" lon="4.29838">
        <ele>1316.3</ele>
        <time>2022-06-09T10:50:48Z</time>
      </trkpt>
      <trkpt lat="44.80854" lon="4.29836">
        <ele>1316.3</ele>
        <time>2022-06-09T10:50:49Z</time>
      </trkpt>
      <trkpt lat="44.80854" lon="4.29835">
        <ele>1316.3</ele>
        <time>2022-06-09T10:50:50Z</time>
      </trkpt>
      <trkpt lat="44.80854" lon="4.29834">
        <ele>1316.3</ele>
        <time>2022-06-09T10:50:51Z</time>
      </trkpt>
      <trkpt lat="44.80854" lon="4.29833">
        <ele>1316.3</ele>
        <time>2022-06-09T10:50:52Z</time>
      </trkpt>
      <trkpt lat="44.80854" lon="4.29832">
        <ele>1316.3</ele>
        <time>2022-06-09T10:50:53Z</time>
      </trkpt>
      <trkpt lat="44.80854" lon="4.29831">
        <ele>1316.3</ele>
        <time>2022-06-09T10:50:54Z</time>
      </trkpt>
      <trkpt lat="44.80854" lon="4.29831">
        <ele>1316.2</ele>
        <time>2022-06-09T10:50:55Z</time>
      </trkpt>
      <trkpt lat="44.80854" lon="4.2983">
        <ele>1316.2</ele>
        <time>2022-06-09T10:50:56Z</time>
      </trkpt>
      <trkpt lat="44.80853" lon="4.29829">
        <ele>1316.2</ele>
        <time>2022-06-09T10:50:57Z</time>
      </trkpt>
      <trkpt lat="44.80853" lon="4.29828">
        <ele>1316.2</ele>
        <time>2022-06-09T10:50:59Z</time>
      </trkpt>
      <trkpt lat="44.80853" lon="4.29827">
        <ele>1316.2</ele>
        <time>2022-06-09T10:51:00Z</time>
      </trkpt>
      <trkpt lat="44.80853" lon="4.29826">
        <ele>1316.2</ele>
        <time>2022-06-09T10:51:01Z</time>
      </trkpt>
      <trkpt lat="44.80853" lon="4.29826">
        <ele>1316.2</ele>
        <time>2022-06-09T10:51:37Z</time>
      </trkpt>
      <trkpt lat="44.80853" lon="4.29825">
        <ele>1316.2</ele>
        <time>2022-06-09T10:51:38Z</time>
      </trkpt>
      <trkpt lat="44.80853" lon="4.29824">
        <ele>1316.2</ele>
        <time>2022-06-09T10:51:39Z</time>
      </trkpt>
      <trkpt lat="44.80853" lon="4.29819">
        <ele>1316.2</ele>
        <time>2022-06-09T10:51:40Z</time>
      </trkpt>
      <trkpt lat="44.80853" lon="4.29813">
        <ele>1316.2</ele>
        <time>2022-06-09T10:51:41Z</time>
      </trkpt>
      <trkpt lat="44.80852" lon="4.29807">
        <ele>1316.1</ele>
        <time>2022-06-09T10:51:42Z</time>
      </trkpt>
      <trkpt lat="44.80852" lon="4.29801">
        <ele>1316.1</ele>
        <time>2022-06-09T10:51:43Z</time>
      </trkpt>
      <trkpt lat="44.80852" lon="4.29795">
        <ele>1316.1</ele>
        <time>2022-06-09T10:51:44Z</time>
      </trkpt>
      <trkpt lat="44.80852" lon="4.29788">
        <ele>1316.1</ele>
        <time>2022-06-09T10:51:45Z</time>
      </trkpt>
      <trkpt lat="44.80852" lon="4.29781">
        <ele>1316</ele>
        <time>2022-06-09T10:51:46Z</time>
      </trkpt>
      <trkpt lat="44.80852" lon="4.29774">
        <ele>1316</ele>
        <time>2022-06-09T10:51:47Z</time>
      </trkpt>
      <trkpt lat="44.80852" lon="4.29768">
        <ele>1316</ele>
        <time>2022-06-09T10:51:48Z</time>
      </trkpt>
      <trkpt lat="44.80852" lon="4.29761">
        <ele>1315.9</ele>
        <time>2022-06-09T10:51:49Z</time>
      </trkpt>
      <trkpt lat="44.80852" lon="4.29754">
        <ele>1315.9</ele>
        <time>2022-06-09T10:51:50Z</time>
      </trkpt>
      <trkpt lat="44.80851" lon="4.29746">
        <ele>1315.8</ele>
        <time>2022-06-09T10:51:51Z</time>
      </trkpt>
      <trkpt lat="44.80851" lon="4.29739">
        <ele>1315.7</ele>
        <time>2022-06-09T10:51:52Z</time>
      </trkpt>
      <trkpt lat="44.80851" lon="4.2973">
        <ele>1315.6</ele>
        <time>2022-06-09T10:51:53Z</time>
      </trkpt>
      <trkpt lat="44.80851" lon="4.29723">
        <ele>1315.5</ele>
        <time>2022-06-09T10:51:54Z</time>
      </trkpt>
      <trkpt lat="44.80852" lon="4.29715">
        <ele>1315.5</ele>
        <time>2022-06-09T10:51:55Z</time>
      </trkpt>
      <trkpt lat="44.80853" lon="4.29707">
        <ele>1315.4</ele>
        <time>2022-06-09T10:51:56Z</time>
      </trkpt>
      <trkpt lat="44.80854" lon="4.29699">
        <ele>1315.3</ele>
        <time>2022-06-09T10:51:57Z</time>
      </trkpt>
      <trkpt lat="44.80855" lon="4.29691">
        <ele>1315.3</ele>
        <time>2022-06-09T10:51:58Z</time>
      </trkpt>
      <trkpt lat="44.80856" lon="4.29683">
        <ele>1315.3</ele>
        <time>2022-06-09T10:51:59Z</time>
      </trkpt>
      <trkpt lat="44.80857" lon="4.29675">
        <ele>1315.3</ele>
        <time>2022-06-09T10:52:00Z</time>
      </trkpt>
      <trkpt lat="44.80858" lon="4.29667">
        <ele>1315.3</ele>
        <time>2022-06-09T10:52:01Z</time>
      </trkpt>
      <trkpt lat="44.80859" lon="4.29659">
        <ele>1315.2</ele>
        <time>2022-06-09T10:52:02Z</time>
      </trkpt>
      <trkpt lat="44.8086" lon="4.29651">
        <ele>1315.2</ele>
        <time>2022-06-09T10:52:03Z</time>
      </trkpt>
      <trkpt lat="44.80861" lon="4.29643">
        <ele>1315.2</ele>
        <time>2022-06-09T10:52:04Z</time>
      </trkpt>
      <trkpt lat="44.80862" lon="4.29635">
        <ele>1315.1</ele>
        <time>2022-06-09T10:52:05Z</time>
      </trkpt>
      <trkpt lat="44.80862" lon="4.29627">
        <ele>1315.1</ele>
        <time>2022-06-09T10:52:06Z</time>
      </trkpt>
      <trkpt lat="44.80862" lon="4.29618">
        <ele>1315.1</ele>
        <time>2022-06-09T10:52:07Z</time>
      </trkpt>
      <trkpt lat="44.80862" lon="4.2961">
        <ele>1315</ele>
        <time>2022-06-09T10:52:08Z</time>
      </trkpt>
      <trkpt lat="44.80862" lon="4.29601">
        <ele>1315</ele>
        <time>2022-06-09T10:52:09Z</time>
      </trkpt>
      <trkpt lat="44.80861" lon="4.29593">
        <ele>1315</ele>
        <time>2022-06-09T10:52:10Z</time>
      </trkpt>
      <trkpt lat="44.80861" lon="4.29584">
        <ele>1314.9</ele>
        <time>2022-06-09T10:52:11Z</time>
      </trkpt>
      <trkpt lat="44.8086" lon="4.29576">
        <ele>1314.9</ele>
        <time>2022-06-09T10:52:12Z</time>
      </trkpt>
      <trkpt lat="44.80859" lon="4.29567">
        <ele>1314.9</ele>
        <time>2022-06-09T10:52:13Z</time>
      </trkpt>
      <trkpt lat="44.80858" lon="4.29559">
        <ele>1314.9</ele>
        <time>2022-06-09T10:52:14Z</time>
      </trkpt>
      <trkpt lat="44.80857" lon="4.29551">
        <ele>1314.9</ele>
        <time>2022-06-09T10:52:15Z</time>
      </trkpt>
      <trkpt lat="44.80856" lon="4.29543">
        <ele>1314.9</ele>
        <time>2022-06-09T10:52:16Z</time>
      </trkpt>
      <trkpt lat="44.80854" lon="4.29535">
        <ele>1314.9</ele>
        <time>2022-06-09T10:52:17Z</time>
      </trkpt>
      <trkpt lat="44.80852" lon="4.29528">
        <ele>1314.9</ele>
        <time>2022-06-09T10:52:18Z</time>
      </trkpt>
      <trkpt lat="44.8085" lon="4.2952">
        <ele>1314.9</ele>
        <time>2022-06-09T10:52:19Z</time>
      </trkpt>
      <trkpt lat="44.80847" lon="4.29511">
        <ele>1314.9</ele>
        <time>2022-06-09T10:52:20Z</time>
      </trkpt>
      <trkpt lat="44.80844" lon="4.29503">
        <ele>1314.9</ele>
        <time>2022-06-09T10:52:21Z</time>
      </trkpt>
      <trkpt lat="44.80842" lon="4.29496">
        <ele>1314.9</ele>
        <time>2022-06-09T10:52:22Z</time>
      </trkpt>
      <trkpt lat="44.80839" lon="4.29488">
        <ele>1315</ele>
        <time>2022-06-09T10:52:23Z</time>
      </trkpt>
      <trkpt lat="44.80836" lon="4.2948">
        <ele>1315</ele>
        <time>2022-06-09T10:52:24Z</time>
      </trkpt>
      <trkpt lat="44.80833" lon="4.29473">
        <ele>1315</ele>
        <time>2022-06-09T10:52:25Z</time>
      </trkpt>
      <trkpt lat="44.8083" lon="4.29465">
        <ele>1315</ele>
        <time>2022-06-09T10:52:26Z</time>
      </trkpt>
      <trkpt lat="44.80827" lon="4.29457">
        <ele>1315</ele>
        <time>2022-06-09T10:52:27Z</time>
      </trkpt>
      <trkpt lat="44.80825" lon="4.29449">
        <ele>1315.1</ele>
        <time>2022-06-09T10:52:28Z</time>
      </trkpt>
      <trkpt lat="44.80823" lon="4.29441">
        <ele>1315.1</ele>
        <time>2022-06-09T10:52:29Z</time>
      </trkpt>
      <trkpt lat="44.80821" lon="4.29434">
        <ele>1315.2</ele>
        <time>2022-06-09T10:52:30Z</time>
      </trkpt>
      <trkpt lat="44.8082" lon="4.29426">
        <ele>1315.2</ele>
        <time>2022-06-09T10:52:31Z</time>
      </trkpt>
      <trkpt lat="44.80819" lon="4.29418">
        <ele>1315.2</ele>
        <time>2022-06-09T10:52:32Z</time>
      </trkpt>
      <trkpt lat="44.80819" lon="4.29411">
        <ele>1315.2</ele>
        <time>2022-06-09T10:52:33Z</time>
      </trkpt>
      <trkpt lat="44.80819" lon="4.29403">
        <ele>1315.2</ele>
        <time>2022-06-09T10:52:34Z</time>
      </trkpt>
      <trkpt lat="44.80821" lon="4.29396">
        <ele>1315.1</ele>
        <time>2022-06-09T10:52:35Z</time>
      </trkpt>
      <trkpt lat="44.80822" lon="4.29389">
        <ele>1315.1</ele>
        <time>2022-06-09T10:52:36Z</time>
      </trkpt>
      <trkpt lat="44.80824" lon="4.29383">
        <ele>1315.1</ele>
        <time>2022-06-09T10:52:37Z</time>
      </trkpt>
      <trkpt lat="44.80826" lon="4.29376">
        <ele>1315</ele>
        <time>2022-06-09T10:52:38Z</time>
      </trkpt>
      <trkpt lat="44.80829" lon="4.2937">
        <ele>1315</ele>
        <time>2022-06-09T10:52:39Z</time>
      </trkpt>
      <trkpt lat="44.80832" lon="4.29364">
        <ele>1315</ele>
        <time>2022-06-09T10:52:40Z</time>
      </trkpt>
      <trkpt lat="44.80835" lon="4.29357">
        <ele>1314.9</ele>
        <time>2022-06-09T10:52:41Z</time>
      </trkpt>
      <trkpt lat="44.80838" lon="4.29352">
        <ele>1315</ele>
        <time>2022-06-09T10:52:42Z</time>
      </trkpt>
      <trkpt lat="44.80841" lon="4.29345">
        <ele>1315</ele>
        <time>2022-06-09T10:52:43Z</time>
      </trkpt>
      <trkpt lat="44.80844" lon="4.2934">
        <ele>1315</ele>
        <time>2022-06-09T10:52:44Z</time>
      </trkpt>
      <trkpt lat="44.80847" lon="4.29334">
        <ele>1315.1</ele>
        <time>2022-06-09T10:52:45Z</time>
      </trkpt>
      <trkpt lat="44.8085" lon="4.29329">
        <ele>1315.1</ele>
        <time>2022-06-09T10:52:46Z</time>
      </trkpt>
      <trkpt lat="44.80853" lon="4.29323">
        <ele>1315.1</ele>
        <time>2022-06-09T10:52:47Z</time>
      </trkpt>
      <trkpt lat="44.80856" lon="4.29318">
        <ele>1315.2</ele>
        <time>2022-06-09T10:52:48Z</time>
      </trkpt>
      <trkpt lat="44.80859" lon="4.29313">
        <ele>1315.2</ele>
        <time>2022-06-09T10:52:49Z</time>
      </trkpt>
      <trkpt lat="44.80861" lon="4.29308">
        <ele>1315.3</ele>
        <time>2022-06-09T10:52:50Z</time>
      </trkpt>
      <trkpt lat="44.80864" lon="4.29303">
        <ele>1315.3</ele>
        <time>2022-06-09T10:52:51Z</time>
      </trkpt>
      <trkpt lat="44.80867" lon="4.29298">
        <ele>1315.3</ele>
        <time>2022-06-09T10:52:52Z</time>
      </trkpt>
      <trkpt lat="44.80869" lon="4.29294">
        <ele>1315.4</ele>
        <time>2022-06-09T10:52:53Z</time>
      </trkpt>
      <trkpt lat="44.80871" lon="4.2929">
        <ele>1315.4</ele>
        <time>2022-06-09T10:52:54Z</time>
      </trkpt>
      <trkpt lat="44.80874" lon="4.29285">
        <ele>1315.5</ele>
        <time>2022-06-09T10:52:55Z</time>
      </trkpt>
      <trkpt lat="44.80876" lon="4.2928">
        <ele>1315.6</ele>
        <time>2022-06-09T10:52:56Z</time>
      </trkpt>
      <trkpt lat="44.80878" lon="4.29276">
        <ele>1315.6</ele>
        <time>2022-06-09T10:52:57Z</time>
      </trkpt>
      <trkpt lat="44.8088" lon="4.29272">
        <ele>1315.7</ele>
        <time>2022-06-09T10:52:58Z</time>
      </trkpt>
      <trkpt lat="44.80882" lon="4.29263">
        <ele>1315.8</ele>
        <time>2022-06-09T10:52:59Z</time>
      </trkpt>
      <trkpt lat="44.80883" lon="4.29257">
        <ele>1316</ele>
        <time>2022-06-09T10:53:01Z</time>
      </trkpt>
      <trkpt lat="44.80887" lon="4.29252">
        <ele>1316.1</ele>
        <time>2022-06-09T10:53:02Z</time>
      </trkpt>
      <trkpt lat="44.80893" lon="4.29244">
        <ele>1316.2</ele>
        <time>2022-06-09T10:53:03Z</time>
      </trkpt>
      <trkpt lat="44.80896" lon="4.2924">
        <ele>1316.3</ele>
        <time>2022-06-09T10:53:05Z</time>
      </trkpt>
      <trkpt lat="44.80898" lon="4.29236">
        <ele>1316.4</ele>
        <time>2022-06-09T10:53:06Z</time>
      </trkpt>
      <trkpt lat="44.80903" lon="4.29229">
        <ele>1316.5</ele>
        <time>2022-06-09T10:53:07Z</time>
      </trkpt>
      <trkpt lat="44.80905" lon="4.29225">
        <ele>1316.6</ele>
        <time>2022-06-09T10:53:09Z</time>
      </trkpt>
      <trkpt lat="44.80909" lon="4.29218">
        <ele>1316.7</ele>
        <time>2022-06-09T10:53:10Z</time>
      </trkpt>
      <trkpt lat="44.80912" lon="4.29213">
        <ele>1316.8</ele>
        <time>2022-06-09T10:53:12Z</time>
      </trkpt>
      <trkpt lat="44.80913" lon="4.29208">
        <ele>1316.8</ele>
        <time>2022-06-09T10:53:13Z</time>
      </trkpt>
      <trkpt lat="44.80915" lon="4.29205">
        <ele>1316.9</ele>
        <time>2022-06-09T10:53:14Z</time>
      </trkpt>
      <trkpt lat="44.80918" lon="4.29201">
        <ele>1316.9</ele>
        <time>2022-06-09T10:53:15Z</time>
      </trkpt>
      <trkpt lat="44.80919" lon="4.29197">
        <ele>1317</ele>
        <time>2022-06-09T10:53:16Z</time>
      </trkpt>
      <trkpt lat="44.80923" lon="4.2919">
        <ele>1317.1</ele>
        <time>2022-06-09T10:53:17Z</time>
      </trkpt>
      <trkpt lat="44.80925" lon="4.29187">
        <ele>1317.2</ele>
        <time>2022-06-09T10:53:19Z</time>
      </trkpt>
      <trkpt lat="44.80927" lon="4.29182">
        <ele>1317.2</ele>
        <time>2022-06-09T10:53:20Z</time>
      </trkpt>
      <trkpt lat="44.80929" lon="4.29177">
        <ele>1317.3</ele>
        <time>2022-06-09T10:53:21Z</time>
      </trkpt>
      <trkpt lat="44.80931" lon="4.29171">
        <ele>1317.4</ele>
        <time>2022-06-09T10:53:22Z</time>
      </trkpt>
      <trkpt lat="44.80933" lon="4.29167">
        <ele>1317.5</ele>
        <time>2022-06-09T10:53:23Z</time>
      </trkpt>
      <trkpt lat="44.80935" lon="4.29164">
        <ele>1317.6</ele>
        <time>2022-06-09T10:53:25Z</time>
      </trkpt>
      <trkpt lat="44.80937" lon="4.29161">
        <ele>1317.7</ele>
        <time>2022-06-09T10:53:26Z</time>
      </trkpt>
      <trkpt lat="44.80938" lon="4.29157">
        <ele>1317.8</ele>
        <time>2022-06-09T10:53:27Z</time>
      </trkpt>
      <trkpt lat="44.80941" lon="4.29151">
        <ele>1318</ele>
        <time>2022-06-09T10:53:28Z</time>
      </trkpt>
      <trkpt lat="44.80943" lon="4.29147">
        <ele>1318.1</ele>
        <time>2022-06-09T10:53:30Z</time>
      </trkpt>
      <trkpt lat="44.80945" lon="4.29144">
        <ele>1318.2</ele>
        <time>2022-06-09T10:53:31Z</time>
      </trkpt>
      <trkpt lat="44.80948" lon="4.29139">
        <ele>1318.6</ele>
        <time>2022-06-09T10:53:32Z</time>
      </trkpt>
      <trkpt lat="44.8095" lon="4.29136">
        <ele>1318.6</ele>
        <time>2022-06-09T10:53:34Z</time>
      </trkpt>
      <trkpt lat="44.80952" lon="4.29133">
        <ele>1318.6</ele>
        <time>2022-06-09T10:53:35Z</time>
      </trkpt>
      <trkpt lat="44.80953" lon="4.2913">
        <ele>1318.7</ele>
        <time>2022-06-09T10:53:36Z</time>
      </trkpt>
      <trkpt lat="44.80955" lon="4.29127">
        <ele>1318.7</ele>
        <time>2022-06-09T10:53:37Z</time>
      </trkpt>
      <trkpt lat="44.80957" lon="4.29123">
        <ele>1318.7</ele>
        <time>2022-06-09T10:53:38Z</time>
      </trkpt>
      <trkpt lat="44.80957" lon="4.29122">
        <ele>1318.8</ele>
        <time>2022-06-09T10:53:39Z</time>
      </trkpt>
      <trkpt lat="44.80958" lon="4.29121">
        <ele>1318.8</ele>
        <time>2022-06-09T10:53:40Z</time>
      </trkpt>
      <trkpt lat="44.80959" lon="4.2912">
        <ele>1318.8</ele>
        <time>2022-06-09T10:53:41Z</time>
      </trkpt>
      <trkpt lat="44.80957" lon="4.29122">
        <ele>1318.8</ele>
        <time>2022-06-09T10:53:42Z</time>
      </trkpt>
      <trkpt lat="44.80957" lon="4.29122">
        <ele>1318.8</ele>
        <time>2022-06-09T10:53:43Z</time>
      </trkpt>
      <trkpt lat="44.80956" lon="4.29123">
        <ele>1318.8</ele>
        <time>2022-06-09T10:53:44Z</time>
      </trkpt>
      <trkpt lat="44.80956" lon="4.29124">
        <ele>1318.8</ele>
        <time>2022-06-09T10:53:45Z</time>
      </trkpt>
      <trkpt lat="44.80956" lon="4.29124">
        <ele>1318.8</ele>
        <time>2022-06-09T10:53:46Z</time>
      </trkpt>
      <trkpt lat="44.80956" lon="4.29124">
        <ele>1318.8</ele>
        <time>2022-06-09T10:53:47Z</time>
      </trkpt>
      <trkpt lat="44.80956" lon="4.29124">
        <ele>1318.8</ele>
        <time>2022-06-09T10:53:48Z</time>
      </trkpt>
      <trkpt lat="44.80956" lon="4.29124">
        <ele>1318.8</ele>
        <time>2022-06-09T10:53:49Z</time>
      </trkpt>
      <trkpt lat="44.80956" lon="4.29124">
        <ele>1318.8</ele>
        <time>2022-06-09T10:53:50Z</time>
      </trkpt>
      <trkpt lat="44.80956" lon="4.29124">
        <ele>1318.8</ele>
        <time>2022-06-09T10:53:51Z</time>
      </trkpt>
      <trkpt lat="44.80955" lon="4.29126">
        <ele>1318.9</ele>
        <time>2022-06-09T10:55:01Z</time>
      </trkpt>
      <trkpt lat="44.80956" lon="4.29128">
        <ele>1318.9</ele>
        <time>2022-06-09T10:55:03Z</time>
      </trkpt>
      <trkpt lat="44.80957" lon="4.29128">
        <ele>1318.9</ele>
        <time>2022-06-09T10:55:04Z</time>
      </trkpt>
      <trkpt lat="44.80958" lon="4.29129">
        <ele>1318.9</ele>
        <time>2022-06-09T10:55:06Z</time>
      </trkpt>
      <trkpt lat="44.80958" lon="4.29129">
        <ele>1318.9</ele>
        <time>2022-06-09T10:55:07Z</time>
      </trkpt>
      <trkpt lat="44.80958" lon="4.29129">
        <ele>1318.9</ele>
        <time>2022-06-09T10:55:08Z</time>
      </trkpt>
      <trkpt lat="44.80957" lon="4.2913">
        <ele>1318.9</ele>
        <time>2022-06-09T10:55:09Z</time>
      </trkpt>
      <trkpt lat="44.80957" lon="4.2913">
        <ele>1318.9</ele>
        <time>2022-06-09T10:55:11Z</time>
      </trkpt>
      <trkpt lat="44.80957" lon="4.2913">
        <ele>1318.9</ele>
        <time>2022-06-09T10:55:12Z</time>
      </trkpt>
      <trkpt lat="44.80957" lon="4.2913">
        <ele>1318.9</ele>
        <time>2022-06-09T10:55:13Z</time>
      </trkpt>
      <trkpt lat="44.80958" lon="4.29134">
        <ele>1319</ele>
        <time>2022-06-09T10:55:27Z</time>
      </trkpt>
      <trkpt lat="44.80959" lon="4.29136">
        <ele>1319</ele>
        <time>2022-06-09T10:55:28Z</time>
      </trkpt>
      <trkpt lat="44.8096" lon="4.29137">
        <ele>1319</ele>
        <time>2022-06-09T10:55:29Z</time>
      </trkpt>
      <trkpt lat="44.8096" lon="4.2914">
        <ele>1319</ele>
        <time>2022-06-09T10:55:31Z</time>
      </trkpt>
      <trkpt lat="44.8096" lon="4.29142">
        <ele>1319</ele>
        <time>2022-06-09T10:55:32Z</time>
      </trkpt>
      <trkpt lat="44.80961" lon="4.29143">
        <ele>1319.1</ele>
        <time>2022-06-09T10:55:33Z</time>
      </trkpt>
      <trkpt lat="44.80962" lon="4.29145">
        <ele>1319.1</ele>
        <time>2022-06-09T10:55:35Z</time>
      </trkpt>
      <trkpt lat="44.80939" lon="4.29095">
        <ele>1319.7</ele>
        <time>2022-06-09T10:56:21Z</time>
      </trkpt>
      <trkpt lat="44.80941" lon="4.29098">
        <ele>1319.8</ele>
        <time>2022-06-09T10:56:22Z</time>
      </trkpt>
      <trkpt lat="44.80944" lon="4.291">
        <ele>1319.8</ele>
        <time>2022-06-09T10:56:23Z</time>
      </trkpt>
      <trkpt lat="44.80945" lon="4.29101">
        <ele>1319.8</ele>
        <time>2022-06-09T10:56:24Z</time>
      </trkpt>
      <trkpt lat="44.80946" lon="4.29102">
        <ele>1319.8</ele>
        <time>2022-06-09T10:56:25Z</time>
      </trkpt>
      <trkpt lat="44.80947" lon="4.29103">
        <ele>1319.9</ele>
        <time>2022-06-09T10:56:26Z</time>
      </trkpt>
      <trkpt lat="44.80948" lon="4.29104">
        <ele>1319.9</ele>
        <time>2022-06-09T10:56:27Z</time>
      </trkpt>
      <trkpt lat="44.80948" lon="4.29103">
        <ele>1319.9</ele>
        <time>2022-06-09T10:56:28Z</time>
      </trkpt>
      <trkpt lat="44.80947" lon="4.29101">
        <ele>1319.9</ele>
        <time>2022-06-09T10:56:29Z</time>
      </trkpt>
      <trkpt lat="44.80947" lon="4.291">
        <ele>1319.9</ele>
        <time>2022-06-09T10:56:30Z</time>
      </trkpt>
      <trkpt lat="44.80947" lon="4.29098">
        <ele>1319.9</ele>
        <time>2022-06-09T10:56:31Z</time>
      </trkpt>
      <trkpt lat="44.80948" lon="4.29095">
        <ele>1320</ele>
        <time>2022-06-09T10:56:32Z</time>
      </trkpt>
      <trkpt lat="44.80948" lon="4.29094">
        <ele>1320</ele>
        <time>2022-06-09T10:56:33Z</time>
      </trkpt>
      <trkpt lat="44.80948" lon="4.29092">
        <ele>1320</ele>
        <time>2022-06-09T10:56:34Z</time>
      </trkpt>
      <trkpt lat="44.80947" lon="4.29087">
        <ele>1320.1</ele>
        <time>2022-06-09T10:56:35Z</time>
      </trkpt>
      <trkpt lat="44.80947" lon="4.29085">
        <ele>1320.1</ele>
        <time>2022-06-09T10:56:36Z</time>
      </trkpt>
      <trkpt lat="44.80947" lon="4.29083">
        <ele>1320.1</ele>
        <time>2022-06-09T10:56:37Z</time>
      </trkpt>
      <trkpt lat="44.80947" lon="4.29081">
        <ele>1320.1</ele>
        <time>2022-06-09T10:56:38Z</time>
      </trkpt>
      <trkpt lat="44.80948" lon="4.29079">
        <ele>1320.1</ele>
        <time>2022-06-09T10:56:39Z</time>
      </trkpt>
      <trkpt lat="44.80948" lon="4.29079">
        <ele>1320.2</ele>
        <time>2022-06-09T10:56:40Z</time>
      </trkpt>
      <trkpt lat="44.80948" lon="4.29078">
        <ele>1320.2</ele>
        <time>2022-06-09T10:56:41Z</time>
      </trkpt>
      <trkpt lat="44.80948" lon="4.2908">
        <ele>1320.2</ele>
        <time>2022-06-09T10:56:42Z</time>
      </trkpt>
      <trkpt lat="44.80948" lon="4.29082">
        <ele>1320.2</ele>
        <time>2022-06-09T10:56:43Z</time>
      </trkpt>
      <trkpt lat="44.80949" lon="4.29085">
        <ele>1320.2</ele>
        <time>2022-06-09T10:56:44Z</time>
      </trkpt>
      <trkpt lat="44.8095" lon="4.29089">
        <ele>1320.3</ele>
        <time>2022-06-09T10:56:45Z</time>
      </trkpt>
      <trkpt lat="44.8095" lon="4.29091">
        <ele>1320.3</ele>
        <time>2022-06-09T10:56:46Z</time>
      </trkpt>
      <trkpt lat="44.80952" lon="4.29095">
        <ele>1320.4</ele>
        <time>2022-06-09T10:56:47Z</time>
      </trkpt>
      <trkpt lat="44.80952" lon="4.29097">
        <ele>1320.4</ele>
        <time>2022-06-09T10:56:48Z</time>
      </trkpt>
      <trkpt lat="44.80953" lon="4.29098">
        <ele>1320.4</ele>
        <time>2022-06-09T10:56:49Z</time>
      </trkpt>
      <trkpt lat="44.80953" lon="4.29099">
        <ele>1320.4</ele>
        <time>2022-06-09T10:56:50Z</time>
      </trkpt>
      <trkpt lat="44.80954" lon="4.291">
        <ele>1320.4</ele>
        <time>2022-06-09T10:56:51Z</time>
      </trkpt>
      <trkpt lat="44.80955" lon="4.291">
        <ele>1320.4</ele>
        <time>2022-06-09T10:56:52Z</time>
      </trkpt>
      <trkpt lat="44.80955" lon="4.29099">
        <ele>1320.4</ele>
        <time>2022-06-09T10:56:53Z</time>
      </trkpt>
      <trkpt lat="44.80954" lon="4.29098">
        <ele>1320.4</ele>
        <time>2022-06-09T10:56:54Z</time>
      </trkpt>
      <trkpt lat="44.80954" lon="4.29097">
        <ele>1320.5</ele>
        <time>2022-06-09T10:56:55Z</time>
      </trkpt>
      <trkpt lat="44.80954" lon="4.29097">
        <ele>1320.5</ele>
        <time>2022-06-09T10:56:56Z</time>
      </trkpt>
      <trkpt lat="44.80954" lon="4.29097">
        <ele>1320.5</ele>
        <time>2022-06-09T10:56:57Z</time>
      </trkpt>
      <trkpt lat="44.80954" lon="4.29097">
        <ele>1320.5</ele>
        <time>2022-06-09T10:56:58Z</time>
      </trkpt>
      <trkpt lat="44.80953" lon="4.29097">
        <ele>1320.5</ele>
        <time>2022-06-09T10:56:59Z</time>
      </trkpt>
      <trkpt lat="44.80953" lon="4.29097">
        <ele>1320.5</ele>
        <time>2022-06-09T10:57:00Z</time>
      </trkpt>
      <trkpt lat="44.80952" lon="4.29098">
        <ele>1320.5</ele>
        <time>2022-06-09T10:57:01Z</time>
      </trkpt>
      <trkpt lat="44.80952" lon="4.29098">
        <ele>1320.5</ele>
        <time>2022-06-09T10:57:02Z</time>
      </trkpt>
      <trkpt lat="44.80952" lon="4.29099">
        <ele>1320.5</ele>
        <time>2022-06-09T10:57:03Z</time>
      </trkpt>
      <trkpt lat="44.80951" lon="4.29099">
        <ele>1320.5</ele>
        <time>2022-06-09T10:57:04Z</time>
      </trkpt>
      <trkpt lat="44.80951" lon="4.29098">
        <ele>1320.5</ele>
        <time>2022-06-09T10:57:05Z</time>
      </trkpt>
      <trkpt lat="44.80951" lon="4.29097">
        <ele>1320.5</ele>
        <time>2022-06-09T10:57:06Z</time>
      </trkpt>
      <trkpt lat="44.80949" lon="4.29095">
        <ele>1320.6</ele>
        <time>2022-06-09T10:57:07Z</time>
      </trkpt>
      <trkpt lat="44.80946" lon="4.29092">
        <ele>1320.6</ele>
        <time>2022-06-09T10:57:08Z</time>
      </trkpt>
      <trkpt lat="44.80944" lon="4.2909">
        <ele>1320.7</ele>
        <time>2022-06-09T10:57:09Z</time>
      </trkpt>
      <trkpt lat="44.80943" lon="4.29089">
        <ele>1320.7</ele>
        <time>2022-06-09T10:57:10Z</time>
      </trkpt>
      <trkpt lat="44.80943" lon="4.2909">
        <ele>1320.7</ele>
        <time>2022-06-09T10:57:11Z</time>
      </trkpt>
      <trkpt lat="44.80943" lon="4.29092">
        <ele>1320.7</ele>
        <time>2022-06-09T10:57:12Z</time>
      </trkpt>
      <trkpt lat="44.80943" lon="4.29093">
        <ele>1320.7</ele>
        <time>2022-06-09T10:57:13Z</time>
      </trkpt>
      <trkpt lat="44.80943" lon="4.29095">
        <ele>1320.8</ele>
        <time>2022-06-09T10:57:14Z</time>
      </trkpt>
      <trkpt lat="44.80945" lon="4.29099">
        <ele>1320.8</ele>
        <time>2022-06-09T10:57:15Z</time>
      </trkpt>
      <trkpt lat="44.80945" lon="4.291">
        <ele>1320.8</ele>
        <time>2022-06-09T10:57:16Z</time>
      </trkpt>
      <trkpt lat="44.80945" lon="4.29102">
        <ele>1320.8</ele>
        <time>2022-06-09T10:57:17Z</time>
      </trkpt>
      <trkpt lat="44.80946" lon="4.29103">
        <ele>1320.8</ele>
        <time>2022-06-09T10:57:18Z</time>
      </trkpt>
      <trkpt lat="44.80946" lon="4.29104">
        <ele>1320.9</ele>
        <time>2022-06-09T10:57:19Z</time>
      </trkpt>
      <trkpt lat="44.80947" lon="4.29105">
        <ele>1320.9</ele>
        <time>2022-06-09T10:57:20Z</time>
      </trkpt>
      <trkpt lat="44.80947" lon="4.29106">
        <ele>1320.9</ele>
        <time>2022-06-09T10:57:21Z</time>
      </trkpt>
      <trkpt lat="44.80947" lon="4.29108">
        <ele>1320.9</ele>
        <time>2022-06-09T10:57:22Z</time>
      </trkpt>
      <trkpt lat="44.80947" lon="4.29109">
        <ele>1320.9</ele>
        <time>2022-06-09T10:57:23Z</time>
      </trkpt>
      <trkpt lat="44.80948" lon="4.29109">
        <ele>1320.9</ele>
        <time>2022-06-09T10:57:24Z</time>
      </trkpt>
      <trkpt lat="44.80948" lon="4.2911">
        <ele>1320.9</ele>
        <time>2022-06-09T10:57:25Z</time>
      </trkpt>
      <trkpt lat="44.80948" lon="4.2911">
        <ele>1320.9</ele>
        <time>2022-06-09T10:57:26Z</time>
      </trkpt>
      <trkpt lat="44.80948" lon="4.2911">
        <ele>1320.9</ele>
        <time>2022-06-09T10:57:27Z</time>
      </trkpt>
      <trkpt lat="44.80948" lon="4.29109">
        <ele>1320.9</ele>
        <time>2022-06-09T10:57:28Z</time>
      </trkpt>
      <trkpt lat="44.80948" lon="4.29108">
        <ele>1321</ele>
        <time>2022-06-09T10:57:29Z</time>
      </trkpt>
      <trkpt lat="44.80948" lon="4.29108">
        <ele>1321</ele>
        <time>2022-06-09T10:57:30Z</time>
      </trkpt>
      <trkpt lat="44.80947" lon="4.29107">
        <ele>1321</ele>
        <time>2022-06-09T10:57:31Z</time>
      </trkpt>
      <trkpt lat="44.80947" lon="4.29107">
        <ele>1321</ele>
        <time>2022-06-09T10:57:32Z</time>
      </trkpt>
      <trkpt lat="44.80946" lon="4.29107">
        <ele>1321</ele>
        <time>2022-06-09T10:57:33Z</time>
      </trkpt>
      <trkpt lat="44.80944" lon="4.29107">
        <ele>1321</ele>
        <time>2022-06-09T10:57:34Z</time>
      </trkpt>
      <trkpt lat="44.80943" lon="4.29107">
        <ele>1321.1</ele>
        <time>2022-06-09T10:57:35Z</time>
      </trkpt>
      <trkpt lat="44.80941" lon="4.29107">
        <ele>1321.1</ele>
        <time>2022-06-09T10:57:36Z</time>
      </trkpt>
      <trkpt lat="44.8094" lon="4.29107">
        <ele>1321.1</ele>
        <time>2022-06-09T10:57:37Z</time>
      </trkpt>
      <trkpt lat="44.80938" lon="4.29107">
        <ele>1321.1</ele>
        <time>2022-06-09T10:57:38Z</time>
      </trkpt>
      <trkpt lat="44.80937" lon="4.29107">
        <ele>1321.2</ele>
        <time>2022-06-09T10:57:39Z</time>
      </trkpt>
      <trkpt lat="44.80936" lon="4.29106">
        <ele>1321.2</ele>
        <time>2022-06-09T10:57:40Z</time>
      </trkpt>
      <trkpt lat="44.80935" lon="4.29106">
        <ele>1321.2</ele>
        <time>2022-06-09T10:57:41Z</time>
      </trkpt>
      <trkpt lat="44.80934" lon="4.29106">
        <ele>1321.2</ele>
        <time>2022-06-09T10:57:42Z</time>
      </trkpt>
      <trkpt lat="44.80934" lon="4.29106">
        <ele>1321.2</ele>
        <time>2022-06-09T10:57:43Z</time>
      </trkpt>
      <trkpt lat="44.80933" lon="4.29107">
        <ele>1321.2</ele>
        <time>2022-06-09T10:57:44Z</time>
      </trkpt>
      <trkpt lat="44.80933" lon="4.29106">
        <ele>1321.2</ele>
        <time>2022-06-09T10:57:45Z</time>
      </trkpt>
      <trkpt lat="44.80934" lon="4.29106">
        <ele>1321.2</ele>
        <time>2022-06-09T10:57:46Z</time>
      </trkpt>
      <trkpt lat="44.80934" lon="4.29106">
        <ele>1321.2</ele>
        <time>2022-06-09T10:57:47Z</time>
      </trkpt>
      <trkpt lat="44.80935" lon="4.29105">
        <ele>1321.2</ele>
        <time>2022-06-09T10:57:48Z</time>
      </trkpt>
      <trkpt lat="44.80935" lon="4.29104">
        <ele>1321.2</ele>
        <time>2022-06-09T10:57:49Z</time>
      </trkpt>
      <trkpt lat="44.80936" lon="4.29104">
        <ele>1321.3</ele>
        <time>2022-06-09T10:57:50Z</time>
      </trkpt>
      <trkpt lat="44.80937" lon="4.29104">
        <ele>1321.3</ele>
        <time>2022-06-09T10:57:51Z</time>
      </trkpt>
      <trkpt lat="44.80939" lon="4.29104">
        <ele>1321.3</ele>
        <time>2022-06-09T10:57:52Z</time>
      </trkpt>
      <trkpt lat="44.8094" lon="4.29103">
        <ele>1321.3</ele>
        <time>2022-06-09T10:57:53Z</time>
      </trkpt>
      <trkpt lat="44.80941" lon="4.29103">
        <ele>1321.3</ele>
        <time>2022-06-09T10:57:54Z</time>
      </trkpt>
      <trkpt lat="44.80942" lon="4.29102">
        <ele>1321.4</ele>
        <time>2022-06-09T10:57:55Z</time>
      </trkpt>
      <trkpt lat="44.80943" lon="4.29102">
        <ele>1321.4</ele>
        <time>2022-06-09T10:57:56Z</time>
      </trkpt>
      <trkpt lat="44.80944" lon="4.29102">
        <ele>1321.4</ele>
        <time>2022-06-09T10:57:57Z</time>
      </trkpt>
      <trkpt lat="44.80945" lon="4.29102">
        <ele>1321.4</ele>
        <time>2022-06-09T10:57:58Z</time>
      </trkpt>
      <trkpt lat="44.80946" lon="4.29102">
        <ele>1321.4</ele>
        <time>2022-06-09T10:57:59Z</time>
      </trkpt>
      <trkpt lat="44.80946" lon="4.29102">
        <ele>1321.4</ele>
        <time>2022-06-09T10:58:00Z</time>
      </trkpt>
      <trkpt lat="44.80947" lon="4.29102">
        <ele>1321.4</ele>
        <time>2022-06-09T10:58:01Z</time>
      </trkpt>
      <trkpt lat="44.80947" lon="4.29102">
        <ele>1321.4</ele>
        <time>2022-06-09T10:58:02Z</time>
      </trkpt>
      <trkpt lat="44.80947" lon="4.29102">
        <ele>1321.4</ele>
        <time>2022-06-09T10:58:03Z</time>
      </trkpt>
      <trkpt lat="44.80948" lon="4.29102">
        <ele>1321.4</ele>
        <time>2022-06-09T10:58:04Z</time>
      </trkpt>
      <trkpt lat="44.80948" lon="4.29103">
        <ele>1321.4</ele>
        <time>2022-06-09T10:58:05Z</time>
      </trkpt>
      <trkpt lat="44.80948" lon="4.29104">
        <ele>1321.5</ele>
        <time>2022-06-09T10:58:06Z</time>
      </trkpt>
      <trkpt lat="44.80948" lon="4.29104">
        <ele>1321.5</ele>
        <time>2022-06-09T10:58:07Z</time>
      </trkpt>
      <trkpt lat="44.80948" lon="4.29104">
        <ele>1321.5</ele>
        <time>2022-06-09T10:58:08Z</time>
      </trkpt>
      <trkpt lat="44.80948" lon="4.29105">
        <ele>1321.5</ele>
        <time>2022-06-09T10:58:09Z</time>
      </trkpt>
      <trkpt lat="44.80956" lon="4.29128">
        <ele>1321.7</ele>
        <time>2022-06-09T10:58:51Z</time>
      </trkpt>
      <trkpt lat="44.80956" lon="4.29127">
        <ele>1321.8</ele>
        <time>2022-06-09T10:58:52Z</time>
      </trkpt>
      <trkpt lat="44.80956" lon="4.29126">
        <ele>1321.8</ele>
        <time>2022-06-09T10:58:53Z</time>
      </trkpt>
      <trkpt lat="44.80956" lon="4.29125">
        <ele>1321.8</ele>
        <time>2022-06-09T10:58:54Z</time>
      </trkpt>
      <trkpt lat="44.80956" lon="4.29124">
        <ele>1321.8</ele>
        <time>2022-06-09T10:58:55Z</time>
      </trkpt>
      <trkpt lat="44.80956" lon="4.29124">
        <ele>1321.8</ele>
        <time>2022-06-09T10:58:56Z</time>
      </trkpt>
      <trkpt lat="44.80956" lon="4.29124">
        <ele>1321.8</ele>
        <time>2022-06-09T10:58:57Z</time>
      </trkpt>
      <trkpt lat="44.80956" lon="4.29123">
        <ele>1321.8</ele>
        <time>2022-06-09T10:58:58Z</time>
      </trkpt>
      <trkpt lat="44.80956" lon="4.29122">
        <ele>1321.8</ele>
        <time>2022-06-09T10:58:59Z</time>
      </trkpt>
      <trkpt lat="44.80956" lon="4.29121">
        <ele>1321.8</ele>
        <time>2022-06-09T10:59:00Z</time>
      </trkpt>
      <trkpt lat="44.80956" lon="4.29119">
        <ele>1321.8</ele>
        <time>2022-06-09T10:59:01Z</time>
      </trkpt>
      <trkpt lat="44.80956" lon="4.29118">
        <ele>1321.8</ele>
        <time>2022-06-09T10:59:02Z</time>
      </trkpt>
      <trkpt lat="44.80956" lon="4.29117">
        <ele>1321.9</ele>
        <time>2022-06-09T10:59:03Z</time>
      </trkpt>
      <trkpt lat="44.80956" lon="4.29116">
        <ele>1321.9</ele>
        <time>2022-06-09T10:59:04Z</time>
      </trkpt>
      <trkpt lat="44.80955" lon="4.29115">
        <ele>1321.9</ele>
        <time>2022-06-09T10:59:05Z</time>
      </trkpt>
      <trkpt lat="44.80955" lon="4.29114">
        <ele>1321.9</ele>
        <time>2022-06-09T10:59:06Z</time>
      </trkpt>
      <trkpt lat="44.80955" lon="4.29113">
        <ele>1321.9</ele>
        <time>2022-06-09T10:59:07Z</time>
      </trkpt>
      <trkpt lat="44.80955" lon="4.29112">
        <ele>1321.9</ele>
        <time>2022-06-09T10:59:08Z</time>
      </trkpt>
      <trkpt lat="44.80955" lon="4.29111">
        <ele>1321.9</ele>
        <time>2022-06-09T10:59:09Z</time>
      </trkpt>
      <trkpt lat="44.80955" lon="4.2911">
        <ele>1321.9</ele>
        <time>2022-06-09T10:59:10Z</time>
      </trkpt>
      <trkpt lat="44.80955" lon="4.2911">
        <ele>1321.9</ele>
        <time>2022-06-09T10:59:11Z</time>
      </trkpt>
      <trkpt lat="44.80955" lon="4.29109">
        <ele>1321.9</ele>
        <time>2022-06-09T10:59:12Z</time>
      </trkpt>
      <trkpt lat="44.80955" lon="4.29108">
        <ele>1322</ele>
        <time>2022-06-09T10:59:13Z</time>
      </trkpt>
      <trkpt lat="44.80955" lon="4.29107">
        <ele>1322</ele>
        <time>2022-06-09T10:59:14Z</time>
      </trkpt>
      <trkpt lat="44.80955" lon="4.29107">
        <ele>1322</ele>
        <time>2022-06-09T10:59:15Z</time>
      </trkpt>
      <trkpt lat="44.80955" lon="4.29108">
        <ele>1322</ele>
        <time>2022-06-09T10:59:16Z</time>
      </trkpt>
      <trkpt lat="44.80955" lon="4.29109">
        <ele>1322</ele>
        <time>2022-06-09T10:59:17Z</time>
      </trkpt>
      <trkpt lat="44.80956" lon="4.29109">
        <ele>1322</ele>
        <time>2022-06-09T10:59:18Z</time>
      </trkpt>
      <trkpt lat="44.80956" lon="4.2911">
        <ele>1322</ele>
        <time>2022-06-09T10:59:19Z</time>
      </trkpt>
      <trkpt lat="44.80956" lon="4.29111">
        <ele>1322</ele>
        <time>2022-06-09T10:59:20Z</time>
      </trkpt>
      <trkpt lat="44.80956" lon="4.29111">
        <ele>1322</ele>
        <time>2022-06-09T10:59:21Z</time>
      </trkpt>
      <trkpt lat="44.80956" lon="4.29112">
        <ele>1322</ele>
        <time>2022-06-09T10:59:22Z</time>
      </trkpt>
      <trkpt lat="44.80956" lon="4.29113">
        <ele>1322</ele>
        <time>2022-06-09T10:59:23Z</time>
      </trkpt>
      <trkpt lat="44.80956" lon="4.29113">
        <ele>1322</ele>
        <time>2022-06-09T10:59:24Z</time>
      </trkpt>
      <trkpt lat="44.80957" lon="4.29115">
        <ele>1322</ele>
        <time>2022-06-09T10:59:25Z</time>
      </trkpt>
      <trkpt lat="44.80957" lon="4.29117">
        <ele>1322.1</ele>
        <time>2022-06-09T10:59:26Z</time>
      </trkpt>
      <trkpt lat="44.8095" lon="4.29115">
        <ele>1322.2</ele>
        <time>2022-06-09T10:59:39Z</time>
      </trkpt>
      <trkpt lat="44.80945" lon="4.29111">
        <ele>1322.3</ele>
        <time>2022-06-09T10:59:41Z</time>
      </trkpt>
      <trkpt lat="44.80942" lon="4.2911">
        <ele>1322.3</ele>
        <time>2022-06-09T10:59:42Z</time>
      </trkpt>
      <trkpt lat="44.80941" lon="4.29111">
        <ele>1322.3</ele>
        <time>2022-06-09T10:59:43Z</time>
      </trkpt>
      <trkpt lat="44.80942" lon="4.29112">
        <ele>1322.3</ele>
        <time>2022-06-09T10:59:44Z</time>
      </trkpt>
      <trkpt lat="44.80943" lon="4.29113">
        <ele>1322.3</ele>
        <time>2022-06-09T10:59:45Z</time>
      </trkpt>
      <trkpt lat="44.80943" lon="4.29114">
        <ele>1322.4</ele>
        <time>2022-06-09T10:59:46Z</time>
      </trkpt>
      <trkpt lat="44.80944" lon="4.29115">
        <ele>1322.4</ele>
        <time>2022-06-09T10:59:47Z</time>
      </trkpt>
      <trkpt lat="44.80945" lon="4.29116">
        <ele>1322.4</ele>
        <time>2022-06-09T10:59:48Z</time>
      </trkpt>
      <trkpt lat="44.80946" lon="4.29117">
        <ele>1322.4</ele>
        <time>2022-06-09T10:59:49Z</time>
      </trkpt>
      <trkpt lat="44.80953" lon="4.29119">
        <ele>1322.5</ele>
        <time>2022-06-09T11:00:04Z</time>
      </trkpt>
      <trkpt lat="44.80954" lon="4.29119">
        <ele>1322.5</ele>
        <time>2022-06-09T11:00:05Z</time>
      </trkpt>
      <trkpt lat="44.80955" lon="4.29118">
        <ele>1322.5</ele>
        <time>2022-06-09T11:00:07Z</time>
      </trkpt>
      <trkpt lat="44.80956" lon="4.29118">
        <ele>1322.6</ele>
        <time>2022-06-09T11:00:08Z</time>
      </trkpt>
      <trkpt lat="44.80957" lon="4.29117">
        <ele>1322.6</ele>
        <time>2022-06-09T11:00:09Z</time>
      </trkpt>
      <trkpt lat="44.80957" lon="4.29117">
        <ele>1322.6</ele>
        <time>2022-06-09T11:00:10Z</time>
      </trkpt>
      <trkpt lat="44.80957" lon="4.29116">
        <ele>1322.6</ele>
        <time>2022-06-09T11:00:11Z</time>
      </trkpt>
      <trkpt lat="44.80957" lon="4.29116">
        <ele>1322.6</ele>
        <time>2022-06-09T11:00:12Z</time>
      </trkpt>
      <trkpt lat="44.80957" lon="4.29116">
        <ele>1322.6</ele>
        <time>2022-06-09T11:00:14Z</time>
      </trkpt>
      <trkpt lat="44.80957" lon="4.29116">
        <ele>1322.6</ele>
        <time>2022-06-09T11:00:15Z</time>
      </trkpt>
      <trkpt lat="44.80957" lon="4.29116">
        <ele>1322.6</ele>
        <time>2022-06-09T11:00:16Z</time>
      </trkpt>
      <trkpt lat="44.80957" lon="4.29117">
        <ele>1322.6</ele>
        <time>2022-06-09T11:00:17Z</time>
      </trkpt>
      <trkpt lat="44.80957" lon="4.29117">
        <ele>1322.6</ele>
        <time>2022-06-09T11:00:18Z</time>
      </trkpt>
      <trkpt lat="44.80957" lon="4.29117">
        <ele>1322.6</ele>
        <time>2022-06-09T11:00:19Z</time>
      </trkpt>
      <trkpt lat="44.80957" lon="4.29117">
        <ele>1322.6</ele>
        <time>2022-06-09T11:00:20Z</time>
      </trkpt>
      <trkpt lat="44.80957" lon="4.29117">
        <ele>1322.6</ele>
        <time>2022-06-09T11:00:21Z</time>
      </trkpt>
      <trkpt lat="44.80958" lon="4.29116">
        <ele>1322.6</ele>
        <time>2022-06-09T11:02:05Z</time>
      </trkpt>
      <trkpt lat="44.80959" lon="4.29114">
        <ele>1322.6</ele>
        <time>2022-06-09T11:02:06Z</time>
      </trkpt>
      <trkpt lat="44.80959" lon="4.29113">
        <ele>1322.7</ele>
        <time>2022-06-09T11:02:07Z</time>
      </trkpt>
      <trkpt lat="44.8096" lon="4.29112">
        <ele>1322.7</ele>
        <time>2022-06-09T11:02:08Z</time>
      </trkpt>
      <trkpt lat="44.80962" lon="4.2911">
        <ele>1322.7</ele>
        <time>2022-06-09T11:02:09Z</time>
      </trkpt>
      <trkpt lat="44.80962" lon="4.29108">
        <ele>1322.7</ele>
        <time>2022-06-09T11:02:10Z</time>
      </trkpt>
      <trkpt lat="44.80963" lon="4.29107">
        <ele>1322.7</ele>
        <time>2022-06-09T11:02:11Z</time>
      </trkpt>
      <trkpt lat="44.80964" lon="4.29105">
        <ele>1322.8</ele>
        <time>2022-06-09T11:02:13Z</time>
      </trkpt>
      <trkpt lat="44.80965" lon="4.29103">
        <ele>1322.8</ele>
        <time>2022-06-09T11:02:15Z</time>
      </trkpt>
      <trkpt lat="44.80966" lon="4.29101">
        <ele>1322.8</ele>
        <time>2022-06-09T11:02:16Z</time>
      </trkpt>
      <trkpt lat="44.80967" lon="4.29099">
        <ele>1322.8</ele>
        <time>2022-06-09T11:02:18Z</time>
      </trkpt>
      <trkpt lat="44.80968" lon="4.29097">
        <ele>1322.9</ele>
        <time>2022-06-09T11:02:19Z</time>
      </trkpt>
      <trkpt lat="44.80969" lon="4.29095">
        <ele>1322.9</ele>
        <time>2022-06-09T11:02:20Z</time>
      </trkpt>
      <trkpt lat="44.80969" lon="4.29092">
        <ele>1322.9</ele>
        <time>2022-06-09T11:02:21Z</time>
      </trkpt>
      <trkpt lat="44.8097" lon="4.29091">
        <ele>1322.9</ele>
        <time>2022-06-09T11:02:22Z</time>
      </trkpt>
      <trkpt lat="44.8097" lon="4.2909">
        <ele>1322.9</ele>
        <time>2022-06-09T11:02:23Z</time>
      </trkpt>
      <trkpt lat="44.80971" lon="4.29088">
        <ele>1323</ele>
        <time>2022-06-09T11:02:24Z</time>
      </trkpt>
      <trkpt lat="44.80971" lon="4.29086">
        <ele>1323</ele>
        <time>2022-06-09T11:02:25Z</time>
      </trkpt>
      <trkpt lat="44.80972" lon="4.29084">
        <ele>1323</ele>
        <time>2022-06-09T11:02:26Z</time>
      </trkpt>
      <trkpt lat="44.80973" lon="4.29082">
        <ele>1323</ele>
        <time>2022-06-09T11:02:27Z</time>
      </trkpt>
      <trkpt lat="44.80974" lon="4.29079">
        <ele>1323.1</ele>
        <time>2022-06-09T11:02:29Z</time>
      </trkpt>
      <trkpt lat="44.80974" lon="4.29078">
        <ele>1323.1</ele>
        <time>2022-06-09T11:02:30Z</time>
      </trkpt>
      <trkpt lat="44.80975" lon="4.29077">
        <ele>1323.1</ele>
        <time>2022-06-09T11:02:31Z</time>
      </trkpt>
      <trkpt lat="44.80976" lon="4.29075">
        <ele>1323.1</ele>
        <time>2022-06-09T11:02:32Z</time>
      </trkpt>
      <trkpt lat="44.80976" lon="4.29074">
        <ele>1323.1</ele>
        <time>2022-06-09T11:02:33Z</time>
      </trkpt>
      <trkpt lat="44.80977" lon="4.29073">
        <ele>1323.2</ele>
        <time>2022-06-09T11:02:34Z</time>
      </trkpt>
      <trkpt lat="44.80977" lon="4.29071">
        <ele>1323.2</ele>
        <time>2022-06-09T11:02:35Z</time>
      </trkpt>
      <trkpt lat="44.80978" lon="4.2907">
        <ele>1323.2</ele>
        <time>2022-06-09T11:02:36Z</time>
      </trkpt>
      <trkpt lat="44.80978" lon="4.29068">
        <ele>1323.2</ele>
        <time>2022-06-09T11:02:37Z</time>
      </trkpt>
      <trkpt lat="44.80979" lon="4.29067">
        <ele>1323.2</ele>
        <time>2022-06-09T11:02:38Z</time>
      </trkpt>
      <trkpt lat="44.80979" lon="4.29065">
        <ele>1323.2</ele>
        <time>2022-06-09T11:02:39Z</time>
      </trkpt>
      <trkpt lat="44.80979" lon="4.29064">
        <ele>1323.3</ele>
        <time>2022-06-09T11:02:40Z</time>
      </trkpt>
      <trkpt lat="44.80979" lon="4.29062">
        <ele>1323.3</ele>
        <time>2022-06-09T11:02:41Z</time>
      </trkpt>
      <trkpt lat="44.80979" lon="4.29061">
        <ele>1323.3</ele>
        <time>2022-06-09T11:02:42Z</time>
      </trkpt>
      <trkpt lat="44.80979" lon="4.2906">
        <ele>1323.3</ele>
        <time>2022-06-09T11:02:43Z</time>
      </trkpt>
      <trkpt lat="44.80979" lon="4.29059">
        <ele>1323.3</ele>
        <time>2022-06-09T11:02:44Z</time>
      </trkpt>
      <trkpt lat="44.80979" lon="4.29058">
        <ele>1323.3</ele>
        <time>2022-06-09T11:02:45Z</time>
      </trkpt>
      <trkpt lat="44.80978" lon="4.29057">
        <ele>1323.3</ele>
        <time>2022-06-09T11:02:46Z</time>
      </trkpt>
      <trkpt lat="44.80978" lon="4.29055">
        <ele>1323.3</ele>
        <time>2022-06-09T11:02:47Z</time>
      </trkpt>
      <trkpt lat="44.80977" lon="4.29054">
        <ele>1323.4</ele>
        <time>2022-06-09T11:02:48Z</time>
      </trkpt>
      <trkpt lat="44.80977" lon="4.29053">
        <ele>1323.4</ele>
        <time>2022-06-09T11:02:49Z</time>
      </trkpt>
      <trkpt lat="44.80977" lon="4.29051">
        <ele>1323.4</ele>
        <time>2022-06-09T11:02:50Z</time>
      </trkpt>
      <trkpt lat="44.80976" lon="4.2905">
        <ele>1323.4</ele>
        <time>2022-06-09T11:02:51Z</time>
      </trkpt>
      <trkpt lat="44.80976" lon="4.29049">
        <ele>1323.5</ele>
        <time>2022-06-09T11:02:52Z</time>
      </trkpt>
      <trkpt lat="44.80974" lon="4.29047">
        <ele>1323.5</ele>
        <time>2022-06-09T11:02:53Z</time>
      </trkpt>
      <trkpt lat="44.80974" lon="4.29047">
        <ele>1323.5</ele>
        <time>2022-06-09T11:02:55Z</time>
      </trkpt>
      <trkpt lat="44.80974" lon="4.29046">
        <ele>1323.5</ele>
        <time>2022-06-09T11:02:56Z</time>
      </trkpt>
      <trkpt lat="44.80974" lon="4.29046">
        <ele>1323.5</ele>
        <time>2022-06-09T11:02:57Z</time>
      </trkpt>
      <trkpt lat="44.80974" lon="4.29047">
        <ele>1323.5</ele>
        <time>2022-06-09T11:02:58Z</time>
      </trkpt>
      <trkpt lat="44.80974" lon="4.29047">
        <ele>1323.5</ele>
        <time>2022-06-09T11:02:59Z</time>
      </trkpt>
      <trkpt lat="44.80974" lon="4.29047">
        <ele>1323.5</ele>
        <time>2022-06-09T11:03:00Z</time>
      </trkpt>
      <trkpt lat="44.80974" lon="4.29047">
        <ele>1323.5</ele>
        <time>2022-06-09T11:03:01Z</time>
      </trkpt>
      <trkpt lat="44.80973" lon="4.29047">
        <ele>1323.5</ele>
        <time>2022-06-09T11:03:02Z</time>
      </trkpt>
      <trkpt lat="44.80973" lon="4.29047">
        <ele>1323.5</ele>
        <time>2022-06-09T11:03:03Z</time>
      </trkpt>
      <trkpt lat="44.80973" lon="4.29047">
        <ele>1323.5</ele>
        <time>2022-06-09T11:03:04Z</time>
      </trkpt>
      <trkpt lat="44.80973" lon="4.29047">
        <ele>1323.5</ele>
        <time>2022-06-09T11:03:05Z</time>
      </trkpt>
      <trkpt lat="44.80973" lon="4.29047">
        <ele>1323.5</ele>
        <time>2022-06-09T11:03:06Z</time>
      </trkpt>
      <trkpt lat="44.80972" lon="4.29051">
        <ele>1323.5</ele>
        <time>2022-06-09T11:44:55Z</time>
      </trkpt>
      <trkpt lat="44.80972" lon="4.29051">
        <ele>1323.5</ele>
        <time>2022-06-09T11:44:56Z</time>
      </trkpt>
      <trkpt lat="44.80972" lon="4.29051">
        <ele>1323.5</ele>
        <time>2022-06-09T11:44:57Z</time>
      </trkpt>
      <trkpt lat="44.80972" lon="4.29051">
        <ele>1323.5</ele>
        <time>2022-06-09T11:44:58Z</time>
      </trkpt>
      <trkpt lat="44.80972" lon="4.29051">
        <ele>1323.5</ele>
        <time>2022-06-09T11:44:59Z</time>
      </trkpt>
      <trkpt lat="44.80972" lon="4.29051">
        <ele>1323.5</ele>
        <time>2022-06-09T11:45:00Z</time>
      </trkpt>
      <trkpt lat="44.80972" lon="4.29051">
        <ele>1323.5</ele>
        <time>2022-06-09T11:45:01Z</time>
      </trkpt>
      <trkpt lat="44.80972" lon="4.29051">
        <ele>1323.5</ele>
        <time>2022-06-09T11:45:02Z</time>
      </trkpt>
      <trkpt lat="44.80972" lon="4.29051">
        <ele>1323.5</ele>
        <time>2022-06-09T11:45:03Z</time>
      </trkpt>
      <trkpt lat="44.80972" lon="4.29051">
        <ele>1323.5</ele>
        <time>2022-06-09T11:45:04Z</time>
      </trkpt>
      <trkpt lat="44.80972" lon="4.29051">
        <ele>1323.5</ele>
        <time>2022-06-09T11:45:05Z</time>
      </trkpt>
      <trkpt lat="44.80972" lon="4.29051">
        <ele>1323.5</ele>
        <time>2022-06-09T11:45:06Z</time>
      </trkpt>
      <trkpt lat="44.80972" lon="4.29052">
        <ele>1323.5</ele>
        <time>2022-06-09T11:45:07Z</time>
      </trkpt>
      <trkpt lat="44.80973" lon="4.29053">
        <ele>1323.5</ele>
        <time>2022-06-09T11:45:08Z</time>
      </trkpt>
      <trkpt lat="44.80975" lon="4.29055">
        <ele>1323.5</ele>
        <time>2022-06-09T11:45:10Z</time>
      </trkpt>
      <trkpt lat="44.80978" lon="4.29058">
        <ele>1323.5</ele>
        <time>2022-06-09T11:45:11Z</time>
      </trkpt>
      <trkpt lat="44.8098" lon="4.2906">
        <ele>1323.5</ele>
        <time>2022-06-09T11:45:12Z</time>
      </trkpt>
      <trkpt lat="44.80983" lon="4.29061">
        <ele>1323.5</ele>
        <time>2022-06-09T11:45:13Z</time>
      </trkpt>
      <trkpt lat="44.80985" lon="4.29062">
        <ele>1323.5</ele>
        <time>2022-06-09T11:45:14Z</time>
      </trkpt>
      <trkpt lat="44.8099" lon="4.2906">
        <ele>1323.5</ele>
        <time>2022-06-09T11:45:15Z</time>
      </trkpt>
      <trkpt lat="44.80992" lon="4.29059">
        <ele>1323.5</ele>
        <time>2022-06-09T11:45:16Z</time>
      </trkpt>
      <trkpt lat="44.80996" lon="4.29053">
        <ele>1323.8</ele>
        <time>2022-06-09T11:45:18Z</time>
      </trkpt>
      <trkpt lat="44.80998" lon="4.29049">
        <ele>1323.9</ele>
        <time>2022-06-09T11:45:20Z</time>
      </trkpt>
      <trkpt lat="44.80999" lon="4.29045">
        <ele>1324</ele>
        <time>2022-06-09T11:45:21Z</time>
      </trkpt>
      <trkpt lat="44.81002" lon="4.29038">
        <ele>1324.2</ele>
        <time>2022-06-09T11:45:22Z</time>
      </trkpt>
      <trkpt lat="44.81003" lon="4.29036">
        <ele>1324.4</ele>
        <time>2022-06-09T11:45:24Z</time>
      </trkpt>
      <trkpt lat="44.81006" lon="4.29031">
        <ele>1324.5</ele>
        <time>2022-06-09T11:45:25Z</time>
      </trkpt>
      <trkpt lat="44.81007" lon="4.2903">
        <ele>1324.6</ele>
        <time>2022-06-09T11:45:26Z</time>
      </trkpt>
      <trkpt lat="44.81009" lon="4.29027">
        <ele>1324.7</ele>
        <time>2022-06-09T11:45:27Z</time>
      </trkpt>
      <trkpt lat="44.81011" lon="4.29024">
        <ele>1324.8</ele>
        <time>2022-06-09T11:45:28Z</time>
      </trkpt>
      <trkpt lat="44.81015" lon="4.2902">
        <ele>1325</ele>
        <time>2022-06-09T11:45:29Z</time>
      </trkpt>
      <trkpt lat="44.81017" lon="4.29018">
        <ele>1325.1</ele>
        <time>2022-06-09T11:45:30Z</time>
      </trkpt>
      <trkpt lat="44.81018" lon="4.29016">
        <ele>1325.2</ele>
        <time>2022-06-09T11:45:31Z</time>
      </trkpt>
      <trkpt lat="44.81021" lon="4.29012">
        <ele>1325.3</ele>
        <time>2022-06-09T11:45:33Z</time>
      </trkpt>
      <trkpt lat="44.81024" lon="4.29008">
        <ele>1325.4</ele>
        <time>2022-06-09T11:45:35Z</time>
      </trkpt>
      <trkpt lat="44.81026" lon="4.29006">
        <ele>1325.6</ele>
        <time>2022-06-09T11:45:36Z</time>
      </trkpt>
      <trkpt lat="44.81028" lon="4.29003">
        <ele>1325.7</ele>
        <time>2022-06-09T11:45:37Z</time>
      </trkpt>
      <trkpt lat="44.81029" lon="4.29">
        <ele>1325.7</ele>
        <time>2022-06-09T11:45:38Z</time>
      </trkpt>
      <trkpt lat="44.81029" lon="4.28998">
        <ele>1325.8</ele>
        <time>2022-06-09T11:45:40Z</time>
      </trkpt>
      <trkpt lat="44.81026" lon="4.28998">
        <ele>1325.7</ele>
        <time>2022-06-09T11:45:41Z</time>
      </trkpt>
      <trkpt lat="44.81023" lon="4.29001">
        <ele>1325.6</ele>
        <time>2022-06-09T11:45:42Z</time>
      </trkpt>
      <trkpt lat="44.81021" lon="4.29005">
        <ele>1325.5</ele>
        <time>2022-06-09T11:45:43Z</time>
      </trkpt>
      <trkpt lat="44.81018" lon="4.2901">
        <ele>1325.3</ele>
        <time>2022-06-09T11:45:45Z</time>
      </trkpt>
      <trkpt lat="44.81015" lon="4.29013">
        <ele>1325.2</ele>
        <time>2022-06-09T11:45:46Z</time>
      </trkpt>
      <trkpt lat="44.81011" lon="4.29018">
        <ele>1325</ele>
        <time>2022-06-09T11:45:47Z</time>
      </trkpt>
      <trkpt lat="44.81008" lon="4.29021">
        <ele>1324.8</ele>
        <time>2022-06-09T11:45:48Z</time>
      </trkpt>
      <trkpt lat="44.81003" lon="4.29025">
        <ele>1324.6</ele>
        <time>2022-06-09T11:45:50Z</time>
      </trkpt>
      <trkpt lat="44.80997" lon="4.29033">
        <ele>1324.3</ele>
        <time>2022-06-09T11:45:51Z</time>
      </trkpt>
      <trkpt lat="44.80992" lon="4.29043">
        <ele>1323.9</ele>
        <time>2022-06-09T11:45:53Z</time>
      </trkpt>
      <trkpt lat="44.8099" lon="4.29049">
        <ele>1323.7</ele>
        <time>2022-06-09T11:45:54Z</time>
      </trkpt>
      <trkpt lat="44.80986" lon="4.29056">
        <ele>1323.5</ele>
        <time>2022-06-09T11:45:56Z</time>
      </trkpt>
      <trkpt lat="44.80983" lon="4.29062">
        <ele>1323.4</ele>
        <time>2022-06-09T11:45:57Z</time>
      </trkpt>
      <trkpt lat="44.8098" lon="4.29069">
        <ele>1323</ele>
        <time>2022-06-09T11:45:58Z</time>
      </trkpt>
      <trkpt lat="44.80977" lon="4.29075">
        <ele>1322.7</ele>
        <time>2022-06-09T11:45:59Z</time>
      </trkpt>
      <trkpt lat="44.80975" lon="4.29081">
        <ele>1322.3</ele>
        <time>2022-06-09T11:46:00Z</time>
      </trkpt>
      <trkpt lat="44.80972" lon="4.29086">
        <ele>1322</ele>
        <time>2022-06-09T11:46:01Z</time>
      </trkpt>
      <trkpt lat="44.80968" lon="4.29091">
        <ele>1321.6</ele>
        <time>2022-06-09T11:46:02Z</time>
      </trkpt>
      <trkpt lat="44.80966" lon="4.29096">
        <ele>1321.3</ele>
        <time>2022-06-09T11:46:03Z</time>
      </trkpt>
      <trkpt lat="44.80963" lon="4.29102">
        <ele>1321</ele>
        <time>2022-06-09T11:46:04Z</time>
      </trkpt>
      <trkpt lat="44.80963" lon="4.29103">
        <ele>1320.9</ele>
        <time>2022-06-09T11:46:05Z</time>
      </trkpt>
      <trkpt lat="44.80964" lon="4.2911">
        <ele>1320.5</ele>
        <time>2022-06-09T11:46:07Z</time>
      </trkpt>
      <trkpt lat="44.80962" lon="4.29115">
        <ele>1320.2</ele>
        <time>2022-06-09T11:46:08Z</time>
      </trkpt>
      <trkpt lat="44.80962" lon="4.29116">
        <ele>1320.3</ele>
        <time>2022-06-09T11:46:09Z</time>
      </trkpt>
      <trkpt lat="44.8096" lon="4.2912">
        <ele>1320.4</ele>
        <time>2022-06-09T11:46:10Z</time>
      </trkpt>
      <trkpt lat="44.8096" lon="4.29121">
        <ele>1320.5</ele>
        <time>2022-06-09T11:46:11Z</time>
      </trkpt>
      <trkpt lat="44.80959" lon="4.29123">
        <ele>1320.5</ele>
        <time>2022-06-09T11:46:12Z</time>
      </trkpt>
      <trkpt lat="44.80959" lon="4.29124">
        <ele>1320.6</ele>
        <time>2022-06-09T11:46:14Z</time>
      </trkpt>
      <trkpt lat="44.80959" lon="4.29124">
        <ele>1320.6</ele>
        <time>2022-06-09T11:46:15Z</time>
      </trkpt>
      <trkpt lat="44.80959" lon="4.29124">
        <ele>1320.6</ele>
        <time>2022-06-09T11:46:17Z</time>
      </trkpt>
      <trkpt lat="44.80959" lon="4.29124">
        <ele>1320.6</ele>
        <time>2022-06-09T11:46:18Z</time>
      </trkpt>
      <trkpt lat="44.80959" lon="4.29124">
        <ele>1320.6</ele>
        <time>2022-06-09T11:46:19Z</time>
      </trkpt>
      <trkpt lat="44.80958" lon="4.29124">
        <ele>1320.6</ele>
        <time>2022-06-09T11:46:20Z</time>
      </trkpt>
      <trkpt lat="44.80959" lon="4.29125">
        <ele>1320.6</ele>
        <time>2022-06-09T11:46:21Z</time>
      </trkpt>
      <trkpt lat="44.80959" lon="4.29124">
        <ele>1320.7</ele>
        <time>2022-06-09T11:46:23Z</time>
      </trkpt>
      <trkpt lat="44.80959" lon="4.29124">
        <ele>1320.7</ele>
        <time>2022-06-09T11:46:24Z</time>
      </trkpt>
      <trkpt lat="44.80959" lon="4.29123">
        <ele>1320.7</ele>
        <time>2022-06-09T11:46:25Z</time>
      </trkpt>
      <trkpt lat="44.80959" lon="4.29122">
        <ele>1320.7</ele>
        <time>2022-06-09T11:46:26Z</time>
      </trkpt>
      <trkpt lat="44.80959" lon="4.29122">
        <ele>1320.8</ele>
        <time>2022-06-09T11:46:27Z</time>
      </trkpt>
      <trkpt lat="44.80959" lon="4.29121">
        <ele>1320.8</ele>
        <time>2022-06-09T11:46:28Z</time>
      </trkpt>
      <trkpt lat="44.80959" lon="4.29121">
        <ele>1320.8</ele>
        <time>2022-06-09T11:46:29Z</time>
      </trkpt>
      <trkpt lat="44.80959" lon="4.2912">
        <ele>1320.8</ele>
        <time>2022-06-09T11:46:30Z</time>
      </trkpt>
      <trkpt lat="44.80959" lon="4.2912">
        <ele>1320.8</ele>
        <time>2022-06-09T11:46:31Z</time>
      </trkpt>
      <trkpt lat="44.80959" lon="4.29119">
        <ele>1320.9</ele>
        <time>2022-06-09T12:03:56Z</time>
      </trkpt>
      <trkpt lat="44.80959" lon="4.29119">
        <ele>1320.9</ele>
        <time>2022-06-09T12:03:57Z</time>
      </trkpt>
      <trkpt lat="44.80961" lon="4.29114">
        <ele>1321.1</ele>
        <time>2022-06-09T12:03:58Z</time>
      </trkpt>
      <trkpt lat="44.80962" lon="4.29113">
        <ele>1321.2</ele>
        <time>2022-06-09T12:03:59Z</time>
      </trkpt>
      <trkpt lat="44.80964" lon="4.29109">
        <ele>1321.3</ele>
        <time>2022-06-09T12:04:00Z</time>
      </trkpt>
      <trkpt lat="44.80966" lon="4.29105">
        <ele>1321.5</ele>
        <time>2022-06-09T12:04:01Z</time>
      </trkpt>
      <trkpt lat="44.80968" lon="4.29101">
        <ele>1321.7</ele>
        <time>2022-06-09T12:04:02Z</time>
      </trkpt>
      <trkpt lat="44.8097" lon="4.29096">
        <ele>1321.9</ele>
        <time>2022-06-09T12:04:03Z</time>
      </trkpt>
      <trkpt lat="44.80971" lon="4.29094">
        <ele>1322</ele>
        <time>2022-06-09T12:04:04Z</time>
      </trkpt>
      <trkpt lat="44.80974" lon="4.29089">
        <ele>1322.3</ele>
        <time>2022-06-09T12:04:06Z</time>
      </trkpt>
      <trkpt lat="44.80975" lon="4.29087">
        <ele>1322.4</ele>
        <time>2022-06-09T12:04:07Z</time>
      </trkpt>
      <trkpt lat="44.80977" lon="4.29084">
        <ele>1322.5</ele>
        <time>2022-06-09T12:04:08Z</time>
      </trkpt>
      <trkpt lat="44.80978" lon="4.2908">
        <ele>1322.7</ele>
        <time>2022-06-09T12:04:09Z</time>
      </trkpt>
      <trkpt lat="44.8098" lon="4.29076">
        <ele>1322.9</ele>
        <time>2022-06-09T12:04:10Z</time>
      </trkpt>
      <trkpt lat="44.80981" lon="4.29075">
        <ele>1322.9</ele>
        <time>2022-06-09T12:04:11Z</time>
      </trkpt>
      <trkpt lat="44.80983" lon="4.29072">
        <ele>1323.1</ele>
        <time>2022-06-09T12:04:13Z</time>
      </trkpt>
      <trkpt lat="44.80984" lon="4.29071">
        <ele>1323.1</ele>
        <time>2022-06-09T12:04:14Z</time>
      </trkpt>
      <trkpt lat="44.80986" lon="4.29067">
        <ele>1323.3</ele>
        <time>2022-06-09T12:04:15Z</time>
      </trkpt>
      <trkpt lat="44.80988" lon="4.29062">
        <ele>1323.5</ele>
        <time>2022-06-09T12:04:17Z</time>
      </trkpt>
      <trkpt lat="44.80989" lon="4.29061">
        <ele>1323.5</ele>
        <time>2022-06-09T12:04:18Z</time>
      </trkpt>
      <trkpt lat="44.8099" lon="4.29059">
        <ele>1323.5</ele>
        <time>2022-06-09T12:04:19Z</time>
      </trkpt>
      <trkpt lat="44.80992" lon="4.29056">
        <ele>1323.6</ele>
        <time>2022-06-09T12:04:20Z</time>
      </trkpt>
      <trkpt lat="44.80995" lon="4.29053">
        <ele>1323.7</ele>
        <time>2022-06-09T12:04:21Z</time>
      </trkpt>
      <trkpt lat="44.80996" lon="4.29051">
        <ele>1323.8</ele>
        <time>2022-06-09T12:04:22Z</time>
      </trkpt>
      <trkpt lat="44.80999" lon="4.29046">
        <ele>1324</ele>
        <time>2022-06-09T12:04:24Z</time>
      </trkpt>
      <trkpt lat="44.81" lon="4.29043">
        <ele>1324.1</ele>
        <time>2022-06-09T12:04:25Z</time>
      </trkpt>
      <trkpt lat="44.81002" lon="4.2904">
        <ele>1324.2</ele>
        <time>2022-06-09T12:04:27Z</time>
      </trkpt>
      <trkpt lat="44.81004" lon="4.29037">
        <ele>1324.4</ele>
        <time>2022-06-09T12:04:28Z</time>
      </trkpt>
      <trkpt lat="44.81005" lon="4.29036">
        <ele>1324.4</ele>
        <time>2022-06-09T12:04:29Z</time>
      </trkpt>
      <trkpt lat="44.81008" lon="4.29031">
        <ele>1324.6</ele>
        <time>2022-06-09T12:04:30Z</time>
      </trkpt>
      <trkpt lat="44.81011" lon="4.29028">
        <ele>1324.8</ele>
        <time>2022-06-09T12:04:32Z</time>
      </trkpt>
      <trkpt lat="44.81011" lon="4.29026">
        <ele>1324.8</ele>
        <time>2022-06-09T12:04:33Z</time>
      </trkpt>
      <trkpt lat="44.81014" lon="4.29023">
        <ele>1325</ele>
        <time>2022-06-09T12:04:34Z</time>
      </trkpt>
      <trkpt lat="44.81015" lon="4.29021">
        <ele>1325</ele>
        <time>2022-06-09T12:04:35Z</time>
      </trkpt>
      <trkpt lat="44.81017" lon="4.29018">
        <ele>1325.2</ele>
        <time>2022-06-09T12:04:36Z</time>
      </trkpt>
      <trkpt lat="44.81018" lon="4.29017">
        <ele>1325.2</ele>
        <time>2022-06-09T12:04:37Z</time>
      </trkpt>
      <trkpt lat="44.81022" lon="4.29012">
        <ele>1325.4</ele>
        <time>2022-06-09T12:04:38Z</time>
      </trkpt>
      <trkpt lat="44.81025" lon="4.29007">
        <ele>1325.6</ele>
        <time>2022-06-09T12:04:40Z</time>
      </trkpt>
      <trkpt lat="44.81027" lon="4.29005">
        <ele>1325.7</ele>
        <time>2022-06-09T12:04:41Z</time>
      </trkpt>
      <trkpt lat="44.81028" lon="4.29003">
        <ele>1325.7</ele>
        <time>2022-06-09T12:04:42Z</time>
      </trkpt>
      <trkpt lat="44.81031" lon="4.29001">
        <ele>1325.8</ele>
        <time>2022-06-09T12:04:44Z</time>
      </trkpt>
      <trkpt lat="44.81032" lon="4.29">
        <ele>1325.8</ele>
        <time>2022-06-09T12:04:45Z</time>
      </trkpt>
      <trkpt lat="44.81034" lon="4.28999">
        <ele>1325.9</ele>
        <time>2022-06-09T12:04:46Z</time>
      </trkpt>
      <trkpt lat="44.81036" lon="4.28996">
        <ele>1326</ele>
        <time>2022-06-09T12:04:47Z</time>
      </trkpt>
      <trkpt lat="44.81037" lon="4.28995">
        <ele>1326</ele>
        <time>2022-06-09T12:04:48Z</time>
      </trkpt>
      <trkpt lat="44.81039" lon="4.28992">
        <ele>1326.1</ele>
        <time>2022-06-09T12:04:49Z</time>
      </trkpt>
      <trkpt lat="44.81042" lon="4.28989">
        <ele>1326.2</ele>
        <time>2022-06-09T12:04:50Z</time>
      </trkpt>
      <trkpt lat="44.81043" lon="4.28988">
        <ele>1326.2</ele>
        <time>2022-06-09T12:04:51Z</time>
      </trkpt>
      <trkpt lat="44.81045" lon="4.28985">
        <ele>1326.3</ele>
        <time>2022-06-09T12:04:52Z</time>
      </trkpt>
      <trkpt lat="44.81048" lon="4.28981">
        <ele>1326.4</ele>
        <time>2022-06-09T12:04:53Z</time>
      </trkpt>
      <trkpt lat="44.8105" lon="4.28979">
        <ele>1326.5</ele>
        <time>2022-06-09T12:04:54Z</time>
      </trkpt>
      <trkpt lat="44.81052" lon="4.28978">
        <ele>1326.6</ele>
        <time>2022-06-09T12:04:55Z</time>
      </trkpt>
      <trkpt lat="44.81054" lon="4.28975">
        <ele>1326.6</ele>
        <time>2022-06-09T12:04:57Z</time>
      </trkpt>
      <trkpt lat="44.81058" lon="4.28971">
        <ele>1326.8</ele>
        <time>2022-06-09T12:04:58Z</time>
      </trkpt>
      <trkpt lat="44.81059" lon="4.2897">
        <ele>1326.8</ele>
        <time>2022-06-09T12:04:59Z</time>
      </trkpt>
      <trkpt lat="44.81061" lon="4.28967">
        <ele>1326.9</ele>
        <time>2022-06-09T12:05:00Z</time>
      </trkpt>
      <trkpt lat="44.81064" lon="4.28963">
        <ele>1327</ele>
        <time>2022-06-09T12:05:02Z</time>
      </trkpt>
      <trkpt lat="44.81065" lon="4.28962">
        <ele>1327.1</ele>
        <time>2022-06-09T12:05:03Z</time>
      </trkpt>
      <trkpt lat="44.81068" lon="4.28959">
        <ele>1327.2</ele>
        <time>2022-06-09T12:05:04Z</time>
      </trkpt>
      <trkpt lat="44.8107" lon="4.28958">
        <ele>1327.2</ele>
        <time>2022-06-09T12:05:05Z</time>
      </trkpt>
      <trkpt lat="44.81073" lon="4.28955">
        <ele>1327.3</ele>
        <time>2022-06-09T12:05:07Z</time>
      </trkpt>
      <trkpt lat="44.81076" lon="4.28951">
        <ele>1327.3</ele>
        <time>2022-06-09T12:05:09Z</time>
      </trkpt>
      <trkpt lat="44.81077" lon="4.2895">
        <ele>1327.4</ele>
        <time>2022-06-09T12:05:10Z</time>
      </trkpt>
      <trkpt lat="44.8108" lon="4.28947">
        <ele>1327.4</ele>
        <time>2022-06-09T12:05:11Z</time>
      </trkpt>
      <trkpt lat="44.81082" lon="4.28945">
        <ele>1327.5</ele>
        <time>2022-06-09T12:05:12Z</time>
      </trkpt>
      <trkpt lat="44.81084" lon="4.28943">
        <ele>1327.5</ele>
        <time>2022-06-09T12:05:13Z</time>
      </trkpt>
      <trkpt lat="44.81089" lon="4.28938">
        <ele>1327.6</ele>
        <time>2022-06-09T12:05:15Z</time>
      </trkpt>
      <trkpt lat="44.81092" lon="4.28936">
        <ele>1327.7</ele>
        <time>2022-06-09T12:05:17Z</time>
      </trkpt>
      <trkpt lat="44.81094" lon="4.28933">
        <ele>1327.7</ele>
        <time>2022-06-09T12:05:18Z</time>
      </trkpt>
      <trkpt lat="44.81096" lon="4.2893">
        <ele>1327.7</ele>
        <time>2022-06-09T12:05:19Z</time>
      </trkpt>
      <trkpt lat="44.81099" lon="4.28927">
        <ele>1327.7</ele>
        <time>2022-06-09T12:05:20Z</time>
      </trkpt>
      <trkpt lat="44.81101" lon="4.28925">
        <ele>1327.7</ele>
        <time>2022-06-09T12:05:22Z</time>
      </trkpt>
      <trkpt lat="44.81103" lon="4.28921">
        <ele>1327.7</ele>
        <time>2022-06-09T12:05:23Z</time>
      </trkpt>
      <trkpt lat="44.81105" lon="4.28918">
        <ele>1327.6</ele>
        <time>2022-06-09T12:05:24Z</time>
      </trkpt>
      <trkpt lat="44.81107" lon="4.28915">
        <ele>1327.6</ele>
        <time>2022-06-09T12:05:25Z</time>
      </trkpt>
      <trkpt lat="44.8111" lon="4.28912">
        <ele>1327.5</ele>
        <time>2022-06-09T12:05:26Z</time>
      </trkpt>
      <trkpt lat="44.81113" lon="4.28909">
        <ele>1327.4</ele>
        <time>2022-06-09T12:05:27Z</time>
      </trkpt>
      <trkpt lat="44.81115" lon="4.28905">
        <ele>1327.4</ele>
        <time>2022-06-09T12:05:28Z</time>
      </trkpt>
      <trkpt lat="44.81118" lon="4.28901">
        <ele>1327.2</ele>
        <time>2022-06-09T12:05:29Z</time>
      </trkpt>
      <trkpt lat="44.81121" lon="4.28898">
        <ele>1327.1</ele>
        <time>2022-06-09T12:05:30Z</time>
      </trkpt>
      <trkpt lat="44.81125" lon="4.28894">
        <ele>1327</ele>
        <time>2022-06-09T12:05:31Z</time>
      </trkpt>
      <trkpt lat="44.81128" lon="4.2889">
        <ele>1326.9</ele>
        <time>2022-06-09T12:05:32Z</time>
      </trkpt>
      <trkpt lat="44.81131" lon="4.28886">
        <ele>1326.8</ele>
        <time>2022-06-09T12:05:33Z</time>
      </trkpt>
      <trkpt lat="44.81135" lon="4.28881">
        <ele>1326.6</ele>
        <time>2022-06-09T12:05:34Z</time>
      </trkpt>
      <trkpt lat="44.8114" lon="4.28876">
        <ele>1326.5</ele>
        <time>2022-06-09T12:05:35Z</time>
      </trkpt>
      <trkpt lat="44.81145" lon="4.28873">
        <ele>1326.4</ele>
        <time>2022-06-09T12:05:36Z</time>
      </trkpt>
      <trkpt lat="44.81149" lon="4.2887">
        <ele>1326.3</ele>
        <time>2022-06-09T12:05:37Z</time>
      </trkpt>
      <trkpt lat="44.81154" lon="4.28867">
        <ele>1326.2</ele>
        <time>2022-06-09T12:05:38Z</time>
      </trkpt>
      <trkpt lat="44.81159" lon="4.28865">
        <ele>1326.1</ele>
        <time>2022-06-09T12:05:39Z</time>
      </trkpt>
      <trkpt lat="44.81164" lon="4.28863">
        <ele>1326</ele>
        <time>2022-06-09T12:05:40Z</time>
      </trkpt>
      <trkpt lat="44.81169" lon="4.28861">
        <ele>1325.9</ele>
        <time>2022-06-09T12:05:41Z</time>
      </trkpt>
      <trkpt lat="44.81174" lon="4.28858">
        <ele>1325.7</ele>
        <time>2022-06-09T12:05:42Z</time>
      </trkpt>
      <trkpt lat="44.8118" lon="4.28856">
        <ele>1325.6</ele>
        <time>2022-06-09T12:05:43Z</time>
      </trkpt>
      <trkpt lat="44.81185" lon="4.28854">
        <ele>1325.5</ele>
        <time>2022-06-09T12:05:44Z</time>
      </trkpt>
      <trkpt lat="44.8119" lon="4.28852">
        <ele>1325.4</ele>
        <time>2022-06-09T12:05:45Z</time>
      </trkpt>
      <trkpt lat="44.81195" lon="4.28849">
        <ele>1325.3</ele>
        <time>2022-06-09T12:05:46Z</time>
      </trkpt>
      <trkpt lat="44.81199" lon="4.28847">
        <ele>1325.3</ele>
        <time>2022-06-09T12:05:47Z</time>
      </trkpt>
      <trkpt lat="44.81204" lon="4.28845">
        <ele>1325.2</ele>
        <time>2022-06-09T12:05:48Z</time>
      </trkpt>
      <trkpt lat="44.81209" lon="4.28843">
        <ele>1325.1</ele>
        <time>2022-06-09T12:05:49Z</time>
      </trkpt>
      <trkpt lat="44.81214" lon="4.28841">
        <ele>1325.1</ele>
        <time>2022-06-09T12:05:50Z</time>
      </trkpt>
      <trkpt lat="44.81218" lon="4.28838">
        <ele>1325</ele>
        <time>2022-06-09T12:05:51Z</time>
      </trkpt>
      <trkpt lat="44.81222" lon="4.28836">
        <ele>1325</ele>
        <time>2022-06-09T12:05:52Z</time>
      </trkpt>
      <trkpt lat="44.81225" lon="4.28834">
        <ele>1325</ele>
        <time>2022-06-09T12:05:53Z</time>
      </trkpt>
      <trkpt lat="44.81229" lon="4.2883">
        <ele>1324.9</ele>
        <time>2022-06-09T12:05:54Z</time>
      </trkpt>
      <trkpt lat="44.81232" lon="4.28828">
        <ele>1324.9</ele>
        <time>2022-06-09T12:05:55Z</time>
      </trkpt>
      <trkpt lat="44.81235" lon="4.28825">
        <ele>1324.9</ele>
        <time>2022-06-09T12:05:56Z</time>
      </trkpt>
      <trkpt lat="44.81239" lon="4.28822">
        <ele>1324.9</ele>
        <time>2022-06-09T12:05:57Z</time>
      </trkpt>
      <trkpt lat="44.81241" lon="4.2882">
        <ele>1324.9</ele>
        <time>2022-06-09T12:05:58Z</time>
      </trkpt>
      <trkpt lat="44.81245" lon="4.28818">
        <ele>1324.9</ele>
        <time>2022-06-09T12:05:59Z</time>
      </trkpt>
      <trkpt lat="44.81248" lon="4.28814">
        <ele>1324.9</ele>
        <time>2022-06-09T12:06:00Z</time>
      </trkpt>
      <trkpt lat="44.81253" lon="4.2881">
        <ele>1324.9</ele>
        <time>2022-06-09T12:06:01Z</time>
      </trkpt>
      <trkpt lat="44.81256" lon="4.28807">
        <ele>1324.9</ele>
        <time>2022-06-09T12:06:02Z</time>
      </trkpt>
      <trkpt lat="44.8126" lon="4.28803">
        <ele>1324.9</ele>
        <time>2022-06-09T12:06:03Z</time>
      </trkpt>
      <trkpt lat="44.81264" lon="4.28798">
        <ele>1324.9</ele>
        <time>2022-06-09T12:06:04Z</time>
      </trkpt>
      <trkpt lat="44.81267" lon="4.28794">
        <ele>1324.9</ele>
        <time>2022-06-09T12:06:05Z</time>
      </trkpt>
      <trkpt lat="44.81272" lon="4.28789">
        <ele>1324.9</ele>
        <time>2022-06-09T12:06:07Z</time>
      </trkpt>
      <trkpt lat="44.81275" lon="4.28786">
        <ele>1324.9</ele>
        <time>2022-06-09T12:06:08Z</time>
      </trkpt>
      <trkpt lat="44.8128" lon="4.28781">
        <ele>1324.9</ele>
        <time>2022-06-09T12:06:09Z</time>
      </trkpt>
      <trkpt lat="44.81284" lon="4.28776">
        <ele>1324.9</ele>
        <time>2022-06-09T12:06:10Z</time>
      </trkpt>
      <trkpt lat="44.81288" lon="4.28771">
        <ele>1324.9</ele>
        <time>2022-06-09T12:06:11Z</time>
      </trkpt>
      <trkpt lat="44.81292" lon="4.28767">
        <ele>1325</ele>
        <time>2022-06-09T12:06:12Z</time>
      </trkpt>
      <trkpt lat="44.81298" lon="4.2876">
        <ele>1325</ele>
        <time>2022-06-09T12:06:14Z</time>
      </trkpt>
      <trkpt lat="44.81301" lon="4.28756">
        <ele>1325</ele>
        <time>2022-06-09T12:06:16Z</time>
      </trkpt>
      <trkpt lat="44.81306" lon="4.28751">
        <ele>1325.1</ele>
        <time>2022-06-09T12:06:17Z</time>
      </trkpt>
      <trkpt lat="44.81311" lon="4.28745">
        <ele>1325.1</ele>
        <time>2022-06-09T12:06:19Z</time>
      </trkpt>
      <trkpt lat="44.81313" lon="4.28741">
        <ele>1325.2</ele>
        <time>2022-06-09T12:06:20Z</time>
      </trkpt>
      <trkpt lat="44.81314" lon="4.28735">
        <ele>1325.2</ele>
        <time>2022-06-09T12:06:21Z</time>
      </trkpt>
      <trkpt lat="44.81312" lon="4.28731">
        <ele>1325.2</ele>
        <time>2022-06-09T12:06:22Z</time>
      </trkpt>
      <trkpt lat="44.81313" lon="4.28726">
        <ele>1325.2</ele>
        <time>2022-06-09T12:06:23Z</time>
      </trkpt>
      <trkpt lat="44.81314" lon="4.28725">
        <ele>1325.3</ele>
        <time>2022-06-09T12:06:24Z</time>
      </trkpt>
      <trkpt lat="44.81315" lon="4.28724">
        <ele>1325.3</ele>
        <time>2022-06-09T12:06:26Z</time>
      </trkpt>
      <trkpt lat="44.81315" lon="4.28724">
        <ele>1325.3</ele>
        <time>2022-06-09T12:06:27Z</time>
      </trkpt>
      <trkpt lat="44.81314" lon="4.28726">
        <ele>1325.3</ele>
        <time>2022-06-09T12:06:28Z</time>
      </trkpt>
      <trkpt lat="44.81314" lon="4.28727">
        <ele>1325.3</ele>
        <time>2022-06-09T12:06:29Z</time>
      </trkpt>
      <trkpt lat="44.81314" lon="4.28727">
        <ele>1325.3</ele>
        <time>2022-06-09T12:06:30Z</time>
      </trkpt>
      <trkpt lat="44.81314" lon="4.28727">
        <ele>1325.3</ele>
        <time>2022-06-09T12:06:31Z</time>
      </trkpt>
      <trkpt lat="44.81314" lon="4.28728">
        <ele>1325.3</ele>
        <time>2022-06-09T12:06:32Z</time>
      </trkpt>
      <trkpt lat="44.81314" lon="4.28728">
        <ele>1325.3</ele>
        <time>2022-06-09T12:06:33Z</time>
      </trkpt>
      <trkpt lat="44.81314" lon="4.28728">
        <ele>1325.3</ele>
        <time>2022-06-09T12:06:34Z</time>
      </trkpt>
      <trkpt lat="44.81314" lon="4.28728">
        <ele>1325.3</ele>
        <time>2022-06-09T12:06:35Z</time>
      </trkpt>
      <trkpt lat="44.81314" lon="4.28728">
        <ele>1325.3</ele>
        <time>2022-06-09T12:06:36Z</time>
      </trkpt>
      <trkpt lat="44.81318" lon="4.28727">
        <ele>1325.3</ele>
        <time>2022-06-09T12:07:05Z</time>
      </trkpt>
      <trkpt lat="44.81321" lon="4.28726">
        <ele>1325.4</ele>
        <time>2022-06-09T12:07:07Z</time>
      </trkpt>
      <trkpt lat="44.81324" lon="4.28721">
        <ele>1325.4</ele>
        <time>2022-06-09T12:07:08Z</time>
      </trkpt>
      <trkpt lat="44.81326" lon="4.28718">
        <ele>1325.4</ele>
        <time>2022-06-09T12:07:09Z</time>
      </trkpt>
      <trkpt lat="44.81329" lon="4.28712">
        <ele>1325.5</ele>
        <time>2022-06-09T12:07:11Z</time>
      </trkpt>
      <trkpt lat="44.81333" lon="4.28702">
        <ele>1325.7</ele>
        <time>2022-06-09T12:07:12Z</time>
      </trkpt>
      <trkpt lat="44.81335" lon="4.28697">
        <ele>1325.7</ele>
        <time>2022-06-09T12:07:14Z</time>
      </trkpt>
      <trkpt lat="44.81337" lon="4.28691">
        <ele>1325.8</ele>
        <time>2022-06-09T12:07:15Z</time>
      </trkpt>
      <trkpt lat="44.81339" lon="4.28685">
        <ele>1325.9</ele>
        <time>2022-06-09T12:07:16Z</time>
      </trkpt>
      <trkpt lat="44.81341" lon="4.28674">
        <ele>1326.1</ele>
        <time>2022-06-09T12:07:17Z</time>
      </trkpt>
      <trkpt lat="44.81343" lon="4.28668">
        <ele>1326.2</ele>
        <time>2022-06-09T12:07:18Z</time>
      </trkpt>
      <trkpt lat="44.81345" lon="4.28661">
        <ele>1326.4</ele>
        <time>2022-06-09T12:07:20Z</time>
      </trkpt>
      <trkpt lat="44.81347" lon="4.28655">
        <ele>1326.5</ele>
        <time>2022-06-09T12:07:21Z</time>
      </trkpt>
      <trkpt lat="44.81348" lon="4.2865">
        <ele>1326.6</ele>
        <time>2022-06-09T12:07:22Z</time>
      </trkpt>
      <trkpt lat="44.8135" lon="4.28643">
        <ele>1326.8</ele>
        <time>2022-06-09T12:07:23Z</time>
      </trkpt>
      <trkpt lat="44.81351" lon="4.28636">
        <ele>1326.9</ele>
        <time>2022-06-09T12:07:25Z</time>
      </trkpt>
      <trkpt lat="44.81352" lon="4.28629">
        <ele>1327</ele>
        <time>2022-06-09T12:07:26Z</time>
      </trkpt>
      <trkpt lat="44.81354" lon="4.2862">
        <ele>1327.2</ele>
        <time>2022-06-09T12:07:27Z</time>
      </trkpt>
      <trkpt lat="44.81354" lon="4.28615">
        <ele>1327.3</ele>
        <time>2022-06-09T12:07:29Z</time>
      </trkpt>
      <trkpt lat="44.81355" lon="4.28607">
        <ele>1327.5</ele>
        <time>2022-06-09T12:07:30Z</time>
      </trkpt>
      <trkpt lat="44.81355" lon="4.28602">
        <ele>1327.6</ele>
        <time>2022-06-09T12:07:31Z</time>
      </trkpt>
      <trkpt lat="44.81356" lon="4.28597">
        <ele>1327.7</ele>
        <time>2022-06-09T12:07:32Z</time>
      </trkpt>
      <trkpt lat="44.81357" lon="4.2859">
        <ele>1327.9</ele>
        <time>2022-06-09T12:07:34Z</time>
      </trkpt>
      <trkpt lat="44.81357" lon="4.28585">
        <ele>1328</ele>
        <time>2022-06-09T12:07:35Z</time>
      </trkpt>
      <trkpt lat="44.81357" lon="4.2858">
        <ele>1328.1</ele>
        <time>2022-06-09T12:07:36Z</time>
      </trkpt>
      <trkpt lat="44.81359" lon="4.28572">
        <ele>1328.2</ele>
        <time>2022-06-09T12:07:37Z</time>
      </trkpt>
      <trkpt lat="44.81359" lon="4.28566">
        <ele>1328.3</ele>
        <time>2022-06-09T12:07:39Z</time>
      </trkpt>
      <trkpt lat="44.8136" lon="4.28557">
        <ele>1328.5</ele>
        <time>2022-06-09T12:07:40Z</time>
      </trkpt>
      <trkpt lat="44.8136" lon="4.28553">
        <ele>1328.6</ele>
        <time>2022-06-09T12:07:42Z</time>
      </trkpt>
      <trkpt lat="44.81361" lon="4.28548">
        <ele>1328.7</ele>
        <time>2022-06-09T12:07:43Z</time>
      </trkpt>
      <trkpt lat="44.81361" lon="4.28544">
        <ele>1328.7</ele>
        <time>2022-06-09T12:07:44Z</time>
      </trkpt>
      <trkpt lat="44.81361" lon="4.28535">
        <ele>1328.9</ele>
        <time>2022-06-09T12:07:45Z</time>
      </trkpt>
      <trkpt lat="44.81362" lon="4.28531">
        <ele>1329</ele>
        <time>2022-06-09T12:07:47Z</time>
      </trkpt>
      <trkpt lat="44.81362" lon="4.28527">
        <ele>1329.1</ele>
        <time>2022-06-09T12:07:48Z</time>
      </trkpt>
      <trkpt lat="44.81362" lon="4.28522">
        <ele>1329.1</ele>
        <time>2022-06-09T12:07:49Z</time>
      </trkpt>
      <trkpt lat="44.81363" lon="4.28513">
        <ele>1329.3</ele>
        <time>2022-06-09T12:07:51Z</time>
      </trkpt>
      <trkpt lat="44.81364" lon="4.28504">
        <ele>1329.4</ele>
        <time>2022-06-09T12:07:52Z</time>
      </trkpt>
      <trkpt lat="44.81364" lon="4.28498">
        <ele>1329.5</ele>
        <time>2022-06-09T12:07:54Z</time>
      </trkpt>
      <trkpt lat="44.81365" lon="4.28494">
        <ele>1329.6</ele>
        <time>2022-06-09T12:07:55Z</time>
      </trkpt>
      <trkpt lat="44.81366" lon="4.28489">
        <ele>1329.7</ele>
        <time>2022-06-09T12:07:56Z</time>
      </trkpt>
      <trkpt lat="44.81366" lon="4.28485">
        <ele>1329.7</ele>
        <time>2022-06-09T12:07:57Z</time>
      </trkpt>
      <trkpt lat="44.81366" lon="4.28481">
        <ele>1329.8</ele>
        <time>2022-06-09T12:07:58Z</time>
      </trkpt>
      <trkpt lat="44.81367" lon="4.28476">
        <ele>1329.9</ele>
        <time>2022-06-09T12:07:59Z</time>
      </trkpt>
      <trkpt lat="44.81367" lon="4.28467">
        <ele>1330</ele>
        <time>2022-06-09T12:08:00Z</time>
      </trkpt>
      <trkpt lat="44.81368" lon="4.28461">
        <ele>1330.1</ele>
        <time>2022-06-09T12:08:02Z</time>
      </trkpt>
      <trkpt lat="44.81368" lon="4.28457">
        <ele>1330.2</ele>
        <time>2022-06-09T12:08:03Z</time>
      </trkpt>
      <trkpt lat="44.81368" lon="4.28452">
        <ele>1330.3</ele>
        <time>2022-06-09T12:08:04Z</time>
      </trkpt>
      <trkpt lat="44.81369" lon="4.28444">
        <ele>1330.4</ele>
        <time>2022-06-09T12:08:05Z</time>
      </trkpt>
      <trkpt lat="44.8137" lon="4.2844">
        <ele>1330.5</ele>
        <time>2022-06-09T12:08:06Z</time>
      </trkpt>
      <trkpt lat="44.81371" lon="4.28435">
        <ele>1330.6</ele>
        <time>2022-06-09T12:08:08Z</time>
      </trkpt>
      <trkpt lat="44.81371" lon="4.28431">
        <ele>1330.7</ele>
        <time>2022-06-09T12:08:09Z</time>
      </trkpt>
      <trkpt lat="44.81371" lon="4.28426">
        <ele>1330.8</ele>
        <time>2022-06-09T12:08:10Z</time>
      </trkpt>
      <trkpt lat="44.81371" lon="4.28422">
        <ele>1330.9</ele>
        <time>2022-06-09T12:08:11Z</time>
      </trkpt>
      <trkpt lat="44.81371" lon="4.28418">
        <ele>1331</ele>
        <time>2022-06-09T12:08:12Z</time>
      </trkpt>
      <trkpt lat="44.81372" lon="4.28413">
        <ele>1331.1</ele>
        <time>2022-06-09T12:08:13Z</time>
      </trkpt>
      <trkpt lat="44.81371" lon="4.28411">
        <ele>1331.1</ele>
        <time>2022-06-09T12:08:14Z</time>
      </trkpt>
      <trkpt lat="44.81371" lon="4.28407">
        <ele>1331.2</ele>
        <time>2022-06-09T12:08:15Z</time>
      </trkpt>
      <trkpt lat="44.81372" lon="4.28401">
        <ele>1331.3</ele>
        <time>2022-06-09T12:08:16Z</time>
      </trkpt>
      <trkpt lat="44.81371" lon="4.28397">
        <ele>1331.4</ele>
        <time>2022-06-09T12:08:17Z</time>
      </trkpt>
      <trkpt lat="44.81371" lon="4.28393">
        <ele>1331.5</ele>
        <time>2022-06-09T12:08:19Z</time>
      </trkpt>
      <trkpt lat="44.8137" lon="4.28388">
        <ele>1331.6</ele>
        <time>2022-06-09T12:08:20Z</time>
      </trkpt>
      <trkpt lat="44.8137" lon="4.28382">
        <ele>1331.7</ele>
        <time>2022-06-09T12:08:22Z</time>
      </trkpt>
      <trkpt lat="44.8137" lon="4.28376">
        <ele>1331.8</ele>
        <time>2022-06-09T12:08:23Z</time>
      </trkpt>
      <trkpt lat="44.8137" lon="4.28372">
        <ele>1332</ele>
        <time>2022-06-09T12:08:24Z</time>
      </trkpt>
      <trkpt lat="44.81369" lon="4.28366">
        <ele>1332.1</ele>
        <time>2022-06-09T12:08:25Z</time>
      </trkpt>
      <trkpt lat="44.81369" lon="4.28363">
        <ele>1332.2</ele>
        <time>2022-06-09T12:08:26Z</time>
      </trkpt>
      <trkpt lat="44.81368" lon="4.28358">
        <ele>1332.3</ele>
        <time>2022-06-09T12:08:27Z</time>
      </trkpt>
      <trkpt lat="44.81367" lon="4.28352">
        <ele>1332.5</ele>
        <time>2022-06-09T12:08:28Z</time>
      </trkpt>
      <trkpt lat="44.81367" lon="4.2835">
        <ele>1332.5</ele>
        <time>2022-06-09T12:08:29Z</time>
      </trkpt>
      <trkpt lat="44.81367" lon="4.28346">
        <ele>1332.7</ele>
        <time>2022-06-09T12:08:31Z</time>
      </trkpt>
      <trkpt lat="44.81367" lon="4.28342">
        <ele>1332.8</ele>
        <time>2022-06-09T12:08:32Z</time>
      </trkpt>
      <trkpt lat="44.81366" lon="4.28335">
        <ele>1333</ele>
        <time>2022-06-09T12:08:33Z</time>
      </trkpt>
      <trkpt lat="44.81366" lon="4.2833">
        <ele>1333.1</ele>
        <time>2022-06-09T12:08:34Z</time>
      </trkpt>
      <trkpt lat="44.81365" lon="4.28322">
        <ele>1333.3</ele>
        <time>2022-06-09T12:08:36Z</time>
      </trkpt>
      <trkpt lat="44.81365" lon="4.28318">
        <ele>1333.5</ele>
        <time>2022-06-09T12:08:37Z</time>
      </trkpt>
      <trkpt lat="44.81364" lon="4.28314">
        <ele>1333.6</ele>
        <time>2022-06-09T12:08:38Z</time>
      </trkpt>
      <trkpt lat="44.81364" lon="4.2831">
        <ele>1333.7</ele>
        <time>2022-06-09T12:08:40Z</time>
      </trkpt>
      <trkpt lat="44.81363" lon="4.28304">
        <ele>1333.8</ele>
        <time>2022-06-09T12:08:41Z</time>
      </trkpt>
      <trkpt lat="44.81363" lon="4.28302">
        <ele>1333.9</ele>
        <time>2022-06-09T12:08:42Z</time>
      </trkpt>
      <trkpt lat="44.81363" lon="4.28296">
        <ele>1334</ele>
        <time>2022-06-09T12:08:43Z</time>
      </trkpt>
      <trkpt lat="44.81362" lon="4.28291">
        <ele>1334.2</ele>
        <time>2022-06-09T12:08:45Z</time>
      </trkpt>
      <trkpt lat="44.81362" lon="4.28285">
        <ele>1334.3</ele>
        <time>2022-06-09T12:08:46Z</time>
      </trkpt>
      <trkpt lat="44.81361" lon="4.28277">
        <ele>1334.5</ele>
        <time>2022-06-09T12:08:48Z</time>
      </trkpt>
      <trkpt lat="44.81361" lon="4.28273">
        <ele>1334.6</ele>
        <time>2022-06-09T12:08:50Z</time>
      </trkpt>
      <trkpt lat="44.8136" lon="4.28268">
        <ele>1334.8</ele>
        <time>2022-06-09T12:08:51Z</time>
      </trkpt>
      <trkpt lat="44.81359" lon="4.28266">
        <ele>1334.8</ele>
        <time>2022-06-09T12:08:52Z</time>
      </trkpt>
      <trkpt lat="44.81359" lon="4.28262">
        <ele>1334.9</ele>
        <time>2022-06-09T12:08:53Z</time>
      </trkpt>
      <trkpt lat="44.81358" lon="4.28256">
        <ele>1335.1</ele>
        <time>2022-06-09T12:08:54Z</time>
      </trkpt>
      <trkpt lat="44.81358" lon="4.28254">
        <ele>1335.1</ele>
        <time>2022-06-09T12:08:55Z</time>
      </trkpt>
      <trkpt lat="44.81357" lon="4.28249">
        <ele>1335.3</ele>
        <time>2022-06-09T12:08:56Z</time>
      </trkpt>
      <trkpt lat="44.81356" lon="4.28247">
        <ele>1335.3</ele>
        <time>2022-06-09T12:08:57Z</time>
      </trkpt>
      <trkpt lat="44.81355" lon="4.28242">
        <ele>1335.4</ele>
        <time>2022-06-09T12:08:58Z</time>
      </trkpt>
      <trkpt lat="44.81354" lon="4.2824">
        <ele>1335.5</ele>
        <time>2022-06-09T12:08:59Z</time>
      </trkpt>
      <trkpt lat="44.81354" lon="4.28234">
        <ele>1335.6</ele>
        <time>2022-06-09T12:09:00Z</time>
      </trkpt>
      <trkpt lat="44.81352" lon="4.28229">
        <ele>1335.7</ele>
        <time>2022-06-09T12:09:01Z</time>
      </trkpt>
      <trkpt lat="44.81351" lon="4.28227">
        <ele>1335.8</ele>
        <time>2022-06-09T12:09:02Z</time>
      </trkpt>
      <trkpt lat="44.81349" lon="4.28221">
        <ele>1335.9</ele>
        <time>2022-06-09T12:09:04Z</time>
      </trkpt>
      <trkpt lat="44.81347" lon="4.28218">
        <ele>1336</ele>
        <time>2022-06-09T12:09:05Z</time>
      </trkpt>
      <trkpt lat="44.81345" lon="4.28213">
        <ele>1336.1</ele>
        <time>2022-06-09T12:09:07Z</time>
      </trkpt>
      <trkpt lat="44.81343" lon="4.28207">
        <ele>1336.2</ele>
        <time>2022-06-09T12:09:08Z</time>
      </trkpt>
      <trkpt lat="44.81343" lon="4.28205">
        <ele>1336.3</ele>
        <time>2022-06-09T12:09:09Z</time>
      </trkpt>
      <trkpt lat="44.81341" lon="4.282">
        <ele>1336.4</ele>
        <time>2022-06-09T12:09:10Z</time>
      </trkpt>
      <trkpt lat="44.81339" lon="4.28196">
        <ele>1336.5</ele>
        <time>2022-06-09T12:09:11Z</time>
      </trkpt>
      <trkpt lat="44.81336" lon="4.28191">
        <ele>1336.7</ele>
        <time>2022-06-09T12:09:13Z</time>
      </trkpt>
      <trkpt lat="44.81335" lon="4.28188">
        <ele>1336.7</ele>
        <time>2022-06-09T12:09:14Z</time>
      </trkpt>
      <trkpt lat="44.81333" lon="4.28184">
        <ele>1336.8</ele>
        <time>2022-06-09T12:09:15Z</time>
      </trkpt>
      <trkpt lat="44.81331" lon="4.28177">
        <ele>1337</ele>
        <time>2022-06-09T12:09:17Z</time>
      </trkpt>
      <trkpt lat="44.81329" lon="4.28173">
        <ele>1337.1</ele>
        <time>2022-06-09T12:09:19Z</time>
      </trkpt>
      <trkpt lat="44.81328" lon="4.28171">
        <ele>1337.2</ele>
        <time>2022-06-09T12:09:20Z</time>
      </trkpt>
      <trkpt lat="44.81327" lon="4.28168">
        <ele>1337.3</ele>
        <time>2022-06-09T12:09:21Z</time>
      </trkpt>
      <trkpt lat="44.81325" lon="4.28163">
        <ele>1337.4</ele>
        <time>2022-06-09T12:09:22Z</time>
      </trkpt>
      <trkpt lat="44.81324" lon="4.28161">
        <ele>1337.5</ele>
        <time>2022-06-09T12:09:23Z</time>
      </trkpt>
      <trkpt lat="44.81323" lon="4.28158">
        <ele>1337.6</ele>
        <time>2022-06-09T12:09:24Z</time>
      </trkpt>
      <trkpt lat="44.81322" lon="4.28152">
        <ele>1337.7</ele>
        <time>2022-06-09T12:09:25Z</time>
      </trkpt>
      <trkpt lat="44.81321" lon="4.28151">
        <ele>1337.7</ele>
        <time>2022-06-09T12:09:26Z</time>
      </trkpt>
      <trkpt lat="44.81319" lon="4.28146">
        <ele>1337.9</ele>
        <time>2022-06-09T12:09:27Z</time>
      </trkpt>
      <trkpt lat="44.81317" lon="4.28141">
        <ele>1338</ele>
        <time>2022-06-09T12:09:28Z</time>
      </trkpt>
      <trkpt lat="44.81316" lon="4.28139">
        <ele>1338.1</ele>
        <time>2022-06-09T12:09:29Z</time>
      </trkpt>
      <trkpt lat="44.81314" lon="4.28136">
        <ele>1338.2</ele>
        <time>2022-06-09T12:09:30Z</time>
      </trkpt>
      <trkpt lat="44.81312" lon="4.28132">
        <ele>1338.3</ele>
        <time>2022-06-09T12:09:32Z</time>
      </trkpt>
      <trkpt lat="44.81311" lon="4.28128">
        <ele>1338.4</ele>
        <time>2022-06-09T12:09:33Z</time>
      </trkpt>
      <trkpt lat="44.81309" lon="4.28123">
        <ele>1338.5</ele>
        <time>2022-06-09T12:09:34Z</time>
      </trkpt>
      <trkpt lat="44.81307" lon="4.28119">
        <ele>1338.6</ele>
        <time>2022-06-09T12:09:35Z</time>
      </trkpt>
      <trkpt lat="44.81305" lon="4.28114">
        <ele>1338.8</ele>
        <time>2022-06-09T12:09:37Z</time>
      </trkpt>
      <trkpt lat="44.81305" lon="4.28113">
        <ele>1338.8</ele>
        <time>2022-06-09T12:09:38Z</time>
      </trkpt>
      <trkpt lat="44.81303" lon="4.2811">
        <ele>1338.9</ele>
        <time>2022-06-09T12:09:39Z</time>
      </trkpt>
      <trkpt lat="44.81301" lon="4.28106">
        <ele>1339</ele>
        <time>2022-06-09T12:09:40Z</time>
      </trkpt>
      <trkpt lat="44.813" lon="4.28105">
        <ele>1339.1</ele>
        <time>2022-06-09T12:09:41Z</time>
      </trkpt>
      <trkpt lat="44.81298" lon="4.28102">
        <ele>1339.2</ele>
        <time>2022-06-09T12:09:42Z</time>
      </trkpt>
      <trkpt lat="44.81297" lon="4.28101">
        <ele>1339.2</ele>
        <time>2022-06-09T12:09:43Z</time>
      </trkpt>
      <trkpt lat="44.81295" lon="4.28097">
        <ele>1339.3</ele>
        <time>2022-06-09T12:09:44Z</time>
      </trkpt>
      <trkpt lat="44.81292" lon="4.28094">
        <ele>1339.5</ele>
        <time>2022-06-09T12:09:45Z</time>
      </trkpt>
      <trkpt lat="44.81291" lon="4.28092">
        <ele>1339.5</ele>
        <time>2022-06-09T12:09:46Z</time>
      </trkpt>
      <trkpt lat="44.81289" lon="4.28089">
        <ele>1339.6</ele>
        <time>2022-06-09T12:09:47Z</time>
      </trkpt>
      <trkpt lat="44.81286" lon="4.28086">
        <ele>1339.8</ele>
        <time>2022-06-09T12:09:48Z</time>
      </trkpt>
      <trkpt lat="44.81285" lon="4.28085">
        <ele>1339.8</ele>
        <time>2022-06-09T12:09:49Z</time>
      </trkpt>
      <trkpt lat="44.81283" lon="4.28083">
        <ele>1339.9</ele>
        <time>2022-06-09T12:09:50Z</time>
      </trkpt>
      <trkpt lat="44.8128" lon="4.28082">
        <ele>1340</ele>
        <time>2022-06-09T12:09:51Z</time>
      </trkpt>
      <trkpt lat="44.81275" lon="4.28079">
        <ele>1340.2</ele>
        <time>2022-06-09T12:09:53Z</time>
      </trkpt>
      <trkpt lat="44.81274" lon="4.28078">
        <ele>1340.3</ele>
        <time>2022-06-09T12:09:54Z</time>
      </trkpt>
      <trkpt lat="44.81272" lon="4.28076">
        <ele>1340.3</ele>
        <time>2022-06-09T12:09:55Z</time>
      </trkpt>
      <trkpt lat="44.81268" lon="4.28075">
        <ele>1340.4</ele>
        <time>2022-06-09T12:09:56Z</time>
      </trkpt>
      <trkpt lat="44.81265" lon="4.28073">
        <ele>1340.6</ele>
        <time>2022-06-09T12:09:57Z</time>
      </trkpt>
      <trkpt lat="44.81262" lon="4.28072">
        <ele>1340.7</ele>
        <time>2022-06-09T12:09:59Z</time>
      </trkpt>
      <trkpt lat="44.81259" lon="4.28071">
        <ele>1340.7</ele>
        <time>2022-06-09T12:10:00Z</time>
      </trkpt>
      <trkpt lat="44.81257" lon="4.28069">
        <ele>1340.8</ele>
        <time>2022-06-09T12:10:01Z</time>
      </trkpt>
      <trkpt lat="44.81254" lon="4.28067">
        <ele>1340.9</ele>
        <time>2022-06-09T12:10:02Z</time>
      </trkpt>
      <trkpt lat="44.81251" lon="4.28066">
        <ele>1341</ele>
        <time>2022-06-09T12:10:03Z</time>
      </trkpt>
      <trkpt lat="44.81249" lon="4.28064">
        <ele>1341.1</ele>
        <time>2022-06-09T12:10:04Z</time>
      </trkpt>
      <trkpt lat="44.81244" lon="4.28061">
        <ele>1341.3</ele>
        <time>2022-06-09T12:10:05Z</time>
      </trkpt>
      <trkpt lat="44.81242" lon="4.2806">
        <ele>1341.3</ele>
        <time>2022-06-09T12:10:06Z</time>
      </trkpt>
      <trkpt lat="44.81239" lon="4.28059">
        <ele>1341.4</ele>
        <time>2022-06-09T12:10:07Z</time>
      </trkpt>
      <trkpt lat="44.81235" lon="4.28058">
        <ele>1341.6</ele>
        <time>2022-06-09T12:10:09Z</time>
      </trkpt>
      <trkpt lat="44.81231" lon="4.28055">
        <ele>1341.7</ele>
        <time>2022-06-09T12:10:10Z</time>
      </trkpt>
      <trkpt lat="44.81227" lon="4.28053">
        <ele>1341.8</ele>
        <time>2022-06-09T12:10:11Z</time>
      </trkpt>
      <trkpt lat="44.81224" lon="4.28052">
        <ele>1341.9</ele>
        <time>2022-06-09T12:10:12Z</time>
      </trkpt>
      <trkpt lat="44.81221" lon="4.28049">
        <ele>1342</ele>
        <time>2022-06-09T12:10:13Z</time>
      </trkpt>
      <trkpt lat="44.81217" lon="4.28047">
        <ele>1342.1</ele>
        <time>2022-06-09T12:10:14Z</time>
      </trkpt>
      <trkpt lat="44.81214" lon="4.28046">
        <ele>1342.2</ele>
        <time>2022-06-09T12:10:16Z</time>
      </trkpt>
      <trkpt lat="44.81211" lon="4.28044">
        <ele>1342.3</ele>
        <time>2022-06-09T12:10:17Z</time>
      </trkpt>
      <trkpt lat="44.81208" lon="4.28043">
        <ele>1342.4</ele>
        <time>2022-06-09T12:10:18Z</time>
      </trkpt>
      <trkpt lat="44.81204" lon="4.2804">
        <ele>1342.6</ele>
        <time>2022-06-09T12:10:19Z</time>
      </trkpt>
      <trkpt lat="44.812" lon="4.28038">
        <ele>1342.7</ele>
        <time>2022-06-09T12:10:20Z</time>
      </trkpt>
      <trkpt lat="44.81197" lon="4.28036">
        <ele>1342.8</ele>
        <time>2022-06-09T12:10:22Z</time>
      </trkpt>
      <trkpt lat="44.81194" lon="4.28035">
        <ele>1342.9</ele>
        <time>2022-06-09T12:10:23Z</time>
      </trkpt>
      <trkpt lat="44.81189" lon="4.28032">
        <ele>1343.1</ele>
        <time>2022-06-09T12:10:24Z</time>
      </trkpt>
      <trkpt lat="44.81186" lon="4.2803">
        <ele>1343.2</ele>
        <time>2022-06-09T12:10:26Z</time>
      </trkpt>
      <trkpt lat="44.81182" lon="4.28028">
        <ele>1343.4</ele>
        <time>2022-06-09T12:10:27Z</time>
      </trkpt>
      <trkpt lat="44.81179" lon="4.28027">
        <ele>1343.5</ele>
        <time>2022-06-09T12:10:28Z</time>
      </trkpt>
      <trkpt lat="44.81175" lon="4.28024">
        <ele>1343.7</ele>
        <time>2022-06-09T12:10:29Z</time>
      </trkpt>
      <trkpt lat="44.81171" lon="4.28022">
        <ele>1343.8</ele>
        <time>2022-06-09T12:10:31Z</time>
      </trkpt>
      <trkpt lat="44.81167" lon="4.28019">
        <ele>1344</ele>
        <time>2022-06-09T12:10:32Z</time>
      </trkpt>
      <trkpt lat="44.81164" lon="4.28017">
        <ele>1344.2</ele>
        <time>2022-06-09T12:10:33Z</time>
      </trkpt>
      <trkpt lat="44.8116" lon="4.28015">
        <ele>1344.3</ele>
        <time>2022-06-09T12:10:35Z</time>
      </trkpt>
      <trkpt lat="44.81158" lon="4.28013">
        <ele>1344.4</ele>
        <time>2022-06-09T12:10:36Z</time>
      </trkpt>
      <trkpt lat="44.81154" lon="4.28012">
        <ele>1344.5</ele>
        <time>2022-06-09T12:10:37Z</time>
      </trkpt>
      <trkpt lat="44.81152" lon="4.2801">
        <ele>1344.6</ele>
        <time>2022-06-09T12:10:38Z</time>
      </trkpt>
      <trkpt lat="44.81148" lon="4.28009">
        <ele>1344.7</ele>
        <time>2022-06-09T12:10:39Z</time>
      </trkpt>
      <trkpt lat="44.81146" lon="4.28007">
        <ele>1344.8</ele>
        <time>2022-06-09T12:10:40Z</time>
      </trkpt>
      <trkpt lat="44.81142" lon="4.28006">
        <ele>1345</ele>
        <time>2022-06-09T12:10:41Z</time>
      </trkpt>
      <trkpt lat="44.81139" lon="4.28004">
        <ele>1345.1</ele>
        <time>2022-06-09T12:10:42Z</time>
      </trkpt>
      <trkpt lat="44.81135" lon="4.28002">
        <ele>1345.3</ele>
        <time>2022-06-09T12:10:43Z</time>
      </trkpt>
      <trkpt lat="44.81134" lon="4.28001">
        <ele>1345.3</ele>
        <time>2022-06-09T12:10:44Z</time>
      </trkpt>
      <trkpt lat="44.81129" lon="4.27999">
        <ele>1345.5</ele>
        <time>2022-06-09T12:10:45Z</time>
      </trkpt>
      <trkpt lat="44.81125" lon="4.27997">
        <ele>1345.7</ele>
        <time>2022-06-09T12:10:47Z</time>
      </trkpt>
      <trkpt lat="44.81123" lon="4.27995">
        <ele>1345.8</ele>
        <time>2022-06-09T12:10:48Z</time>
      </trkpt>
      <trkpt lat="44.81119" lon="4.27995">
        <ele>1345.9</ele>
        <time>2022-06-09T12:10:49Z</time>
      </trkpt>
      <trkpt lat="44.81117" lon="4.27993">
        <ele>1346</ele>
        <time>2022-06-09T12:10:50Z</time>
      </trkpt>
      <trkpt lat="44.81114" lon="4.27992">
        <ele>1346.1</ele>
        <time>2022-06-09T12:10:51Z</time>
      </trkpt>
      <trkpt lat="44.81111" lon="4.2799">
        <ele>1346.3</ele>
        <time>2022-06-09T12:10:52Z</time>
      </trkpt>
      <trkpt lat="44.81107" lon="4.27989">
        <ele>1346.4</ele>
        <time>2022-06-09T12:10:53Z</time>
      </trkpt>
      <trkpt lat="44.81103" lon="4.27987">
        <ele>1346.5</ele>
        <time>2022-06-09T12:10:54Z</time>
      </trkpt>
      <trkpt lat="44.811" lon="4.27986">
        <ele>1346.6</ele>
        <time>2022-06-09T12:10:55Z</time>
      </trkpt>
      <trkpt lat="44.81096" lon="4.27984">
        <ele>1346.8</ele>
        <time>2022-06-09T12:10:57Z</time>
      </trkpt>
      <trkpt lat="44.81092" lon="4.27982">
        <ele>1346.9</ele>
        <time>2022-06-09T12:10:58Z</time>
      </trkpt>
      <trkpt lat="44.81088" lon="4.27981">
        <ele>1347.1</ele>
        <time>2022-06-09T12:10:59Z</time>
      </trkpt>
      <trkpt lat="44.81085" lon="4.27978">
        <ele>1347.2</ele>
        <time>2022-06-09T12:11:00Z</time>
      </trkpt>
      <trkpt lat="44.81081" lon="4.27977">
        <ele>1347.4</ele>
        <time>2022-06-09T12:11:02Z</time>
      </trkpt>
      <trkpt lat="44.81078" lon="4.27976">
        <ele>1347.5</ele>
        <time>2022-06-09T12:11:03Z</time>
      </trkpt>
      <trkpt lat="44.81074" lon="4.27975">
        <ele>1347.7</ele>
        <time>2022-06-09T12:11:04Z</time>
      </trkpt>
      <trkpt lat="44.81071" lon="4.27973">
        <ele>1347.8</ele>
        <time>2022-06-09T12:11:05Z</time>
      </trkpt>
      <trkpt lat="44.81067" lon="4.27972">
        <ele>1348</ele>
        <time>2022-06-09T12:11:06Z</time>
      </trkpt>
      <trkpt lat="44.81061" lon="4.27969">
        <ele>1348.3</ele>
        <time>2022-06-09T12:11:08Z</time>
      </trkpt>
      <trkpt lat="44.81058" lon="4.27968">
        <ele>1348.4</ele>
        <time>2022-06-09T12:11:10Z</time>
      </trkpt>
      <trkpt lat="44.81055" lon="4.27967">
        <ele>1348.5</ele>
        <time>2022-06-09T12:11:11Z</time>
      </trkpt>
      <trkpt lat="44.81053" lon="4.27965">
        <ele>1348.6</ele>
        <time>2022-06-09T12:11:12Z</time>
      </trkpt>
      <trkpt lat="44.8105" lon="4.27964">
        <ele>1348.7</ele>
        <time>2022-06-09T12:11:13Z</time>
      </trkpt>
      <trkpt lat="44.81047" lon="4.27963">
        <ele>1348.8</ele>
        <time>2022-06-09T12:11:14Z</time>
      </trkpt>
      <trkpt lat="44.81044" lon="4.27962">
        <ele>1348.9</ele>
        <time>2022-06-09T12:11:15Z</time>
      </trkpt>
      <trkpt lat="44.8104" lon="4.27961">
        <ele>1349.1</ele>
        <time>2022-06-09T12:11:16Z</time>
      </trkpt>
      <trkpt lat="44.81039" lon="4.27961">
        <ele>1349.1</ele>
        <time>2022-06-09T12:11:17Z</time>
      </trkpt>
      <trkpt lat="44.81036" lon="4.2796">
        <ele>1349.2</ele>
        <time>2022-06-09T12:11:18Z</time>
      </trkpt>
      <trkpt lat="44.81033" lon="4.27958">
        <ele>1349.3</ele>
        <time>2022-06-09T12:11:19Z</time>
      </trkpt>
      <trkpt lat="44.81028" lon="4.27955">
        <ele>1349.5</ele>
        <time>2022-06-09T12:11:20Z</time>
      </trkpt>
      <trkpt lat="44.81025" lon="4.27953">
        <ele>1349.6</ele>
        <time>2022-06-09T12:11:22Z</time>
      </trkpt>
      <trkpt lat="44.81022" lon="4.27951">
        <ele>1349.7</ele>
        <time>2022-06-09T12:11:23Z</time>
      </trkpt>
      <trkpt lat="44.81019" lon="4.27949">
        <ele>1349.8</ele>
        <time>2022-06-09T12:11:24Z</time>
      </trkpt>
      <trkpt lat="44.81015" lon="4.27947">
        <ele>1349.9</ele>
        <time>2022-06-09T12:11:25Z</time>
      </trkpt>
      <trkpt lat="44.81012" lon="4.27945">
        <ele>1350</ele>
        <time>2022-06-09T12:11:26Z</time>
      </trkpt>
      <trkpt lat="44.81009" lon="4.27942">
        <ele>1350.1</ele>
        <time>2022-06-09T12:11:27Z</time>
      </trkpt>
      <trkpt lat="44.81006" lon="4.2794">
        <ele>1350.2</ele>
        <time>2022-06-09T12:11:28Z</time>
      </trkpt>
      <trkpt lat="44.81001" lon="4.27933">
        <ele>1350.4</ele>
        <time>2022-06-09T12:11:29Z</time>
      </trkpt>
      <trkpt lat="44.81" lon="4.27929">
        <ele>1350.5</ele>
        <time>2022-06-09T12:11:30Z</time>
      </trkpt>
      <trkpt lat="44.80997" lon="4.27924">
        <ele>1350.7</ele>
        <time>2022-06-09T12:11:32Z</time>
      </trkpt>
      <trkpt lat="44.80995" lon="4.2792">
        <ele>1350.8</ele>
        <time>2022-06-09T12:11:33Z</time>
      </trkpt>
      <trkpt lat="44.80994" lon="4.27916">
        <ele>1350.9</ele>
        <time>2022-06-09T12:11:34Z</time>
      </trkpt>
      <trkpt lat="44.80993" lon="4.27911">
        <ele>1351</ele>
        <time>2022-06-09T12:11:35Z</time>
      </trkpt>
      <trkpt lat="44.80992" lon="4.27908">
        <ele>1351.1</ele>
        <time>2022-06-09T12:11:36Z</time>
      </trkpt>
      <trkpt lat="44.80992" lon="4.27904">
        <ele>1351.2</ele>
        <time>2022-06-09T12:11:37Z</time>
      </trkpt>
      <trkpt lat="44.80992" lon="4.27899">
        <ele>1351.3</ele>
        <time>2022-06-09T12:11:38Z</time>
      </trkpt>
      <trkpt lat="44.80992" lon="4.27895">
        <ele>1351.5</ele>
        <time>2022-06-09T12:11:39Z</time>
      </trkpt>
      <trkpt lat="44.80992" lon="4.27889">
        <ele>1351.6</ele>
        <time>2022-06-09T12:11:40Z</time>
      </trkpt>
      <trkpt lat="44.80992" lon="4.27888">
        <ele>1351.7</ele>
        <time>2022-06-09T12:11:41Z</time>
      </trkpt>
      <trkpt lat="44.80992" lon="4.27882">
        <ele>1351.8</ele>
        <time>2022-06-09T12:11:42Z</time>
      </trkpt>
      <trkpt lat="44.80992" lon="4.27877">
        <ele>1351.9</ele>
        <time>2022-06-09T12:11:43Z</time>
      </trkpt>
      <trkpt lat="44.80993" lon="4.27874">
        <ele>1352</ele>
        <time>2022-06-09T12:11:45Z</time>
      </trkpt>
      <trkpt lat="44.80994" lon="4.27869">
        <ele>1352.1</ele>
        <time>2022-06-09T12:11:46Z</time>
      </trkpt>
      <trkpt lat="44.80995" lon="4.27863">
        <ele>1352.2</ele>
        <time>2022-06-09T12:11:47Z</time>
      </trkpt>
      <trkpt lat="44.80996" lon="4.27859">
        <ele>1352.3</ele>
        <time>2022-06-09T12:11:48Z</time>
      </trkpt>
      <trkpt lat="44.80997" lon="4.27855">
        <ele>1352.4</ele>
        <time>2022-06-09T12:11:49Z</time>
      </trkpt>
      <trkpt lat="44.80999" lon="4.27851">
        <ele>1352.4</ele>
        <time>2022-06-09T12:11:51Z</time>
      </trkpt>
      <trkpt lat="44.81" lon="4.27845">
        <ele>1352.5</ele>
        <time>2022-06-09T12:11:52Z</time>
      </trkpt>
      <trkpt lat="44.81001" lon="4.2784">
        <ele>1352.6</ele>
        <time>2022-06-09T12:11:53Z</time>
      </trkpt>
      <trkpt lat="44.81003" lon="4.27835">
        <ele>1352.6</ele>
        <time>2022-06-09T12:11:54Z</time>
      </trkpt>
      <trkpt lat="44.81005" lon="4.27828">
        <ele>1352.7</ele>
        <time>2022-06-09T12:11:55Z</time>
      </trkpt>
      <trkpt lat="44.81007" lon="4.27819">
        <ele>1352.7</ele>
        <time>2022-06-09T12:11:57Z</time>
      </trkpt>
      <trkpt lat="44.81008" lon="4.27812">
        <ele>1352.8</ele>
        <time>2022-06-09T12:11:59Z</time>
      </trkpt>
      <trkpt lat="44.8101" lon="4.27804">
        <ele>1352.8</ele>
        <time>2022-06-09T12:12:00Z</time>
      </trkpt>
      <trkpt lat="44.81012" lon="4.27799">
        <ele>1352.9</ele>
        <time>2022-06-09T12:12:02Z</time>
      </trkpt>
      <trkpt lat="44.81014" lon="4.27791">
        <ele>1353</ele>
        <time>2022-06-09T12:12:03Z</time>
      </trkpt>
      <trkpt lat="44.81015" lon="4.27786">
        <ele>1353.1</ele>
        <time>2022-06-09T12:12:04Z</time>
      </trkpt>
      <trkpt lat="44.81016" lon="4.27782">
        <ele>1353.1</ele>
        <time>2022-06-09T12:12:05Z</time>
      </trkpt>
      <trkpt lat="44.81018" lon="4.27776">
        <ele>1353.2</ele>
        <time>2022-06-09T12:12:06Z</time>
      </trkpt>
      <trkpt lat="44.81019" lon="4.27771">
        <ele>1353.3</ele>
        <time>2022-06-09T12:12:07Z</time>
      </trkpt>
      <trkpt lat="44.81021" lon="4.27766">
        <ele>1353.4</ele>
        <time>2022-06-09T12:12:09Z</time>
      </trkpt>
      <trkpt lat="44.81022" lon="4.27762">
        <ele>1353.4</ele>
        <time>2022-06-09T12:12:10Z</time>
      </trkpt>
      <trkpt lat="44.81022" lon="4.27757">
        <ele>1353.5</ele>
        <time>2022-06-09T12:12:11Z</time>
      </trkpt>
      <trkpt lat="44.81023" lon="4.27753">
        <ele>1353.5</ele>
        <time>2022-06-09T12:12:12Z</time>
      </trkpt>
      <trkpt lat="44.81024" lon="4.27749">
        <ele>1353.5</ele>
        <time>2022-06-09T12:12:13Z</time>
      </trkpt>
      <trkpt lat="44.81025" lon="4.27745">
        <ele>1353.6</ele>
        <time>2022-06-09T12:12:14Z</time>
      </trkpt>
      <trkpt lat="44.81026" lon="4.2774">
        <ele>1353.6</ele>
        <time>2022-06-09T12:12:15Z</time>
      </trkpt>
      <trkpt lat="44.81027" lon="4.27736">
        <ele>1353.6</ele>
        <time>2022-06-09T12:12:16Z</time>
      </trkpt>
      <trkpt lat="44.81028" lon="4.27731">
        <ele>1353.6</ele>
        <time>2022-06-09T12:12:17Z</time>
      </trkpt>
      <trkpt lat="44.8103" lon="4.27727">
        <ele>1353.6</ele>
        <time>2022-06-09T12:12:18Z</time>
      </trkpt>
      <trkpt lat="44.81031" lon="4.27722">
        <ele>1353.6</ele>
        <time>2022-06-09T12:12:19Z</time>
      </trkpt>
      <trkpt lat="44.81035" lon="4.27714">
        <ele>1353.6</ele>
        <time>2022-06-09T12:12:20Z</time>
      </trkpt>
      <trkpt lat="44.81037" lon="4.27708">
        <ele>1353.6</ele>
        <time>2022-06-09T12:12:22Z</time>
      </trkpt>
      <trkpt lat="44.81039" lon="4.27703">
        <ele>1353.6</ele>
        <time>2022-06-09T12:12:23Z</time>
      </trkpt>
      <trkpt lat="44.81041" lon="4.27698">
        <ele>1353.6</ele>
        <time>2022-06-09T12:12:24Z</time>
      </trkpt>
      <trkpt lat="44.81043" lon="4.27694">
        <ele>1353.6</ele>
        <time>2022-06-09T12:12:25Z</time>
      </trkpt>
      <trkpt lat="44.81045" lon="4.27689">
        <ele>1353.6</ele>
        <time>2022-06-09T12:12:26Z</time>
      </trkpt>
      <trkpt lat="44.81048" lon="4.27684">
        <ele>1353.6</ele>
        <time>2022-06-09T12:12:27Z</time>
      </trkpt>
      <trkpt lat="44.8105" lon="4.27679">
        <ele>1353.7</ele>
        <time>2022-06-09T12:12:28Z</time>
      </trkpt>
      <trkpt lat="44.81052" lon="4.27674">
        <ele>1353.7</ele>
        <time>2022-06-09T12:12:29Z</time>
      </trkpt>
      <trkpt lat="44.81054" lon="4.27669">
        <ele>1353.7</ele>
        <time>2022-06-09T12:12:30Z</time>
      </trkpt>
      <trkpt lat="44.81057" lon="4.27665">
        <ele>1353.7</ele>
        <time>2022-06-09T12:12:31Z</time>
      </trkpt>
      <trkpt lat="44.81059" lon="4.2766">
        <ele>1353.7</ele>
        <time>2022-06-09T12:12:32Z</time>
      </trkpt>
      <trkpt lat="44.81063" lon="4.27653">
        <ele>1353.8</ele>
        <time>2022-06-09T12:12:33Z</time>
      </trkpt>
      <trkpt lat="44.81065" lon="4.27648">
        <ele>1353.8</ele>
        <time>2022-06-09T12:12:34Z</time>
      </trkpt>
      <trkpt lat="44.81068" lon="4.27644">
        <ele>1353.8</ele>
        <time>2022-06-09T12:12:35Z</time>
      </trkpt>
      <trkpt lat="44.81072" lon="4.27638">
        <ele>1353.8</ele>
        <time>2022-06-09T12:12:36Z</time>
      </trkpt>
      <trkpt lat="44.81074" lon="4.27634">
        <ele>1353.9</ele>
        <time>2022-06-09T12:12:38Z</time>
      </trkpt>
      <trkpt lat="44.81079" lon="4.27627">
        <ele>1353.9</ele>
        <time>2022-06-09T12:12:39Z</time>
      </trkpt>
      <trkpt lat="44.81083" lon="4.27622">
        <ele>1353.9</ele>
        <time>2022-06-09T12:12:40Z</time>
      </trkpt>
      <trkpt lat="44.81086" lon="4.27618">
        <ele>1354</ele>
        <time>2022-06-09T12:12:41Z</time>
      </trkpt>
      <trkpt lat="44.81089" lon="4.27615">
        <ele>1354</ele>
        <time>2022-06-09T12:12:42Z</time>
      </trkpt>
      <trkpt lat="44.81093" lon="4.27612">
        <ele>1354</ele>
        <time>2022-06-09T12:12:43Z</time>
      </trkpt>
      <trkpt lat="44.81096" lon="4.27609">
        <ele>1354.1</ele>
        <time>2022-06-09T12:12:45Z</time>
      </trkpt>
      <trkpt lat="44.811" lon="4.27607">
        <ele>1354.1</ele>
        <time>2022-06-09T12:12:46Z</time>
      </trkpt>
      <trkpt lat="44.81104" lon="4.27604">
        <ele>1354.1</ele>
        <time>2022-06-09T12:12:47Z</time>
      </trkpt>
      <trkpt lat="44.81108" lon="4.27602">
        <ele>1354.1</ele>
        <time>2022-06-09T12:12:48Z</time>
      </trkpt>
      <trkpt lat="44.81113" lon="4.27599">
        <ele>1354.2</ele>
        <time>2022-06-09T12:12:49Z</time>
      </trkpt>
      <trkpt lat="44.81116" lon="4.27596">
        <ele>1354.2</ele>
        <time>2022-06-09T12:12:50Z</time>
      </trkpt>
      <trkpt lat="44.8112" lon="4.27593">
        <ele>1354.2</ele>
        <time>2022-06-09T12:12:52Z</time>
      </trkpt>
      <trkpt lat="44.81127" lon="4.27589">
        <ele>1354.3</ele>
        <time>2022-06-09T12:12:53Z</time>
      </trkpt>
      <trkpt lat="44.81133" lon="4.27584">
        <ele>1354.3</ele>
        <time>2022-06-09T12:12:55Z</time>
      </trkpt>
      <trkpt lat="44.81136" lon="4.2758">
        <ele>1354.4</ele>
        <time>2022-06-09T12:12:57Z</time>
      </trkpt>
      <trkpt lat="44.81139" lon="4.27577">
        <ele>1354.4</ele>
        <time>2022-06-09T12:12:58Z</time>
      </trkpt>
      <trkpt lat="44.81142" lon="4.27573">
        <ele>1354.4</ele>
        <time>2022-06-09T12:12:59Z</time>
      </trkpt>
      <trkpt lat="44.81146" lon="4.27565">
        <ele>1354.4</ele>
        <time>2022-06-09T12:13:00Z</time>
      </trkpt>
      <trkpt lat="44.81148" lon="4.2756">
        <ele>1354.5</ele>
        <time>2022-06-09T12:13:02Z</time>
      </trkpt>
      <trkpt lat="44.8115" lon="4.27556">
        <ele>1354.5</ele>
        <time>2022-06-09T12:13:03Z</time>
      </trkpt>
      <trkpt lat="44.81152" lon="4.27552">
        <ele>1354.5</ele>
        <time>2022-06-09T12:13:04Z</time>
      </trkpt>
      <trkpt lat="44.81156" lon="4.27543">
        <ele>1354.5</ele>
        <time>2022-06-09T12:13:05Z</time>
      </trkpt>
      <trkpt lat="44.81158" lon="4.27538">
        <ele>1354.6</ele>
        <time>2022-06-09T12:13:07Z</time>
      </trkpt>
      <trkpt lat="44.81161" lon="4.27531">
        <ele>1354.6</ele>
        <time>2022-06-09T12:13:08Z</time>
      </trkpt>
      <trkpt lat="44.81164" lon="4.27524">
        <ele>1354.6</ele>
        <time>2022-06-09T12:13:09Z</time>
      </trkpt>
      <trkpt lat="44.81166" lon="4.27519">
        <ele>1354.6</ele>
        <time>2022-06-09T12:13:11Z</time>
      </trkpt>
      <trkpt lat="44.81168" lon="4.27514">
        <ele>1354.6</ele>
        <time>2022-06-09T12:13:12Z</time>
      </trkpt>
      <trkpt lat="44.81172" lon="4.27504">
        <ele>1354.6</ele>
        <time>2022-06-09T12:13:13Z</time>
      </trkpt>
      <trkpt lat="44.81174" lon="4.27498">
        <ele>1354.6</ele>
        <time>2022-06-09T12:13:15Z</time>
      </trkpt>
      <trkpt lat="44.81176" lon="4.27492">
        <ele>1354.6</ele>
        <time>2022-06-09T12:13:16Z</time>
      </trkpt>
      <trkpt lat="44.81179" lon="4.27481">
        <ele>1354.6</ele>
        <time>2022-06-09T12:13:17Z</time>
      </trkpt>
      <trkpt lat="44.81181" lon="4.27473">
        <ele>1354.6</ele>
        <time>2022-06-09T12:13:19Z</time>
      </trkpt>
      <trkpt lat="44.81185" lon="4.27462">
        <ele>1354.7</ele>
        <time>2022-06-09T12:13:21Z</time>
      </trkpt>
      <trkpt lat="44.81186" lon="4.27456">
        <ele>1354.8</ele>
        <time>2022-06-09T12:13:22Z</time>
      </trkpt>
      <trkpt lat="44.81186" lon="4.27454">
        <ele>1354.8</ele>
        <time>2022-06-09T12:13:23Z</time>
      </trkpt>
      <trkpt lat="44.81189" lon="4.27438">
        <ele>1354.9</ele>
        <time>2022-06-09T12:13:25Z</time>
      </trkpt>
      <trkpt lat="44.8119" lon="4.27431">
        <ele>1354.9</ele>
        <time>2022-06-09T12:13:26Z</time>
      </trkpt>
      <trkpt lat="44.8119" lon="4.27424">
        <ele>1355</ele>
        <time>2022-06-09T12:13:27Z</time>
      </trkpt>
      <trkpt lat="44.81192" lon="4.27418">
        <ele>1355.1</ele>
        <time>2022-06-09T12:13:28Z</time>
      </trkpt>
      <trkpt lat="44.81193" lon="4.27412">
        <ele>1355.1</ele>
        <time>2022-06-09T12:13:29Z</time>
      </trkpt>
      <trkpt lat="44.81193" lon="4.27405">
        <ele>1355.2</ele>
        <time>2022-06-09T12:13:30Z</time>
      </trkpt>
      <trkpt lat="44.81194" lon="4.27399">
        <ele>1355.3</ele>
        <time>2022-06-09T12:13:31Z</time>
      </trkpt>
      <trkpt lat="44.81195" lon="4.27392">
        <ele>1355.3</ele>
        <time>2022-06-09T12:13:32Z</time>
      </trkpt>
      <trkpt lat="44.81196" lon="4.27386">
        <ele>1355.4</ele>
        <time>2022-06-09T12:13:33Z</time>
      </trkpt>
      <trkpt lat="44.81197" lon="4.2738">
        <ele>1355.5</ele>
        <time>2022-06-09T12:13:34Z</time>
      </trkpt>
      <trkpt lat="44.81197" lon="4.27373">
        <ele>1355.6</ele>
        <time>2022-06-09T12:13:35Z</time>
      </trkpt>
      <trkpt lat="44.81198" lon="4.27367">
        <ele>1355.6</ele>
        <time>2022-06-09T12:13:36Z</time>
      </trkpt>
      <trkpt lat="44.81199" lon="4.27361">
        <ele>1355.7</ele>
        <time>2022-06-09T12:13:37Z</time>
      </trkpt>
      <trkpt lat="44.812" lon="4.27354">
        <ele>1355.7</ele>
        <time>2022-06-09T12:13:38Z</time>
      </trkpt>
      <trkpt lat="44.81201" lon="4.27347">
        <ele>1355.8</ele>
        <time>2022-06-09T12:13:39Z</time>
      </trkpt>
      <trkpt lat="44.81201" lon="4.2734">
        <ele>1355.8</ele>
        <time>2022-06-09T12:13:40Z</time>
      </trkpt>
      <trkpt lat="44.81201" lon="4.27333">
        <ele>1355.8</ele>
        <time>2022-06-09T12:13:41Z</time>
      </trkpt>
      <trkpt lat="44.81202" lon="4.27326">
        <ele>1355.9</ele>
        <time>2022-06-09T12:13:42Z</time>
      </trkpt>
      <trkpt lat="44.81202" lon="4.2732">
        <ele>1355.9</ele>
        <time>2022-06-09T12:13:43Z</time>
      </trkpt>
      <trkpt lat="44.81202" lon="4.27313">
        <ele>1355.8</ele>
        <time>2022-06-09T12:13:44Z</time>
      </trkpt>
      <trkpt lat="44.81203" lon="4.27306">
        <ele>1355.8</ele>
        <time>2022-06-09T12:13:45Z</time>
      </trkpt>
      <trkpt lat="44.81202" lon="4.27299">
        <ele>1355.8</ele>
        <time>2022-06-09T12:13:46Z</time>
      </trkpt>
      <trkpt lat="44.81202" lon="4.27292">
        <ele>1355.8</ele>
        <time>2022-06-09T12:13:47Z</time>
      </trkpt>
      <trkpt lat="44.81202" lon="4.27286">
        <ele>1355.7</ele>
        <time>2022-06-09T12:13:48Z</time>
      </trkpt>
      <trkpt lat="44.81201" lon="4.27279">
        <ele>1355.7</ele>
        <time>2022-06-09T12:13:49Z</time>
      </trkpt>
      <trkpt lat="44.81201" lon="4.27272">
        <ele>1355.7</ele>
        <time>2022-06-09T12:13:50Z</time>
      </trkpt>
      <trkpt lat="44.812" lon="4.27264">
        <ele>1355.7</ele>
        <time>2022-06-09T12:13:51Z</time>
      </trkpt>
      <trkpt lat="44.812" lon="4.27257">
        <ele>1355.7</ele>
        <time>2022-06-09T12:13:52Z</time>
      </trkpt>
      <trkpt lat="44.81199" lon="4.2725">
        <ele>1355.7</ele>
        <time>2022-06-09T12:13:53Z</time>
      </trkpt>
      <trkpt lat="44.81199" lon="4.27243">
        <ele>1355.7</ele>
        <time>2022-06-09T12:13:54Z</time>
      </trkpt>
      <trkpt lat="44.81199" lon="4.27236">
        <ele>1355.8</ele>
        <time>2022-06-09T12:13:55Z</time>
      </trkpt>
      <trkpt lat="44.81198" lon="4.27229">
        <ele>1355.8</ele>
        <time>2022-06-09T12:13:56Z</time>
      </trkpt>
      <trkpt lat="44.81198" lon="4.27223">
        <ele>1355.8</ele>
        <time>2022-06-09T12:13:57Z</time>
      </trkpt>
      <trkpt lat="44.81198" lon="4.27216">
        <ele>1355.8</ele>
        <time>2022-06-09T12:13:58Z</time>
      </trkpt>
      <trkpt lat="44.81197" lon="4.2721">
        <ele>1355.8</ele>
        <time>2022-06-09T12:13:59Z</time>
      </trkpt>
      <trkpt lat="44.81197" lon="4.27204">
        <ele>1355.9</ele>
        <time>2022-06-09T12:14:00Z</time>
      </trkpt>
      <trkpt lat="44.81197" lon="4.27196">
        <ele>1355.9</ele>
        <time>2022-06-09T12:14:01Z</time>
      </trkpt>
      <trkpt lat="44.81197" lon="4.27192">
        <ele>1355.9</ele>
        <time>2022-06-09T12:14:02Z</time>
      </trkpt>
      <trkpt lat="44.81197" lon="4.27185">
        <ele>1356</ele>
        <time>2022-06-09T12:14:03Z</time>
      </trkpt>
      <trkpt lat="44.81197" lon="4.27178">
        <ele>1356</ele>
        <time>2022-06-09T12:14:04Z</time>
      </trkpt>
      <trkpt lat="44.81197" lon="4.27171">
        <ele>1356</ele>
        <time>2022-06-09T12:14:05Z</time>
      </trkpt>
      <trkpt lat="44.81198" lon="4.27165">
        <ele>1356.1</ele>
        <time>2022-06-09T12:14:06Z</time>
      </trkpt>
      <trkpt lat="44.81199" lon="4.27158">
        <ele>1356.1</ele>
        <time>2022-06-09T12:14:07Z</time>
      </trkpt>
      <trkpt lat="44.81201" lon="4.27152">
        <ele>1356.2</ele>
        <time>2022-06-09T12:14:08Z</time>
      </trkpt>
      <trkpt lat="44.81202" lon="4.27147">
        <ele>1356.2</ele>
        <time>2022-06-09T12:14:09Z</time>
      </trkpt>
      <trkpt lat="44.81204" lon="4.27141">
        <ele>1356.3</ele>
        <time>2022-06-09T12:14:10Z</time>
      </trkpt>
      <trkpt lat="44.81206" lon="4.27135">
        <ele>1356.3</ele>
        <time>2022-06-09T12:14:11Z</time>
      </trkpt>
      <trkpt lat="44.81207" lon="4.27131">
        <ele>1356.3</ele>
        <time>2022-06-09T12:14:12Z</time>
      </trkpt>
      <trkpt lat="44.8121" lon="4.27127">
        <ele>1356.4</ele>
        <time>2022-06-09T12:14:13Z</time>
      </trkpt>
      <trkpt lat="44.81213" lon="4.2712">
        <ele>1356.4</ele>
        <time>2022-06-09T12:14:14Z</time>
      </trkpt>
      <trkpt lat="44.81215" lon="4.27114">
        <ele>1356.5</ele>
        <time>2022-06-09T12:14:15Z</time>
      </trkpt>
      <trkpt lat="44.81218" lon="4.27108">
        <ele>1356.5</ele>
        <time>2022-06-09T12:14:16Z</time>
      </trkpt>
      <trkpt lat="44.81221" lon="4.27103">
        <ele>1356.6</ele>
        <time>2022-06-09T12:14:17Z</time>
      </trkpt>
      <trkpt lat="44.81224" lon="4.27098">
        <ele>1356.6</ele>
        <time>2022-06-09T12:14:18Z</time>
      </trkpt>
      <trkpt lat="44.81227" lon="4.27093">
        <ele>1356.6</ele>
        <time>2022-06-09T12:14:19Z</time>
      </trkpt>
      <trkpt lat="44.8123" lon="4.27088">
        <ele>1356.7</ele>
        <time>2022-06-09T12:14:20Z</time>
      </trkpt>
      <trkpt lat="44.81233" lon="4.27083">
        <ele>1356.7</ele>
        <time>2022-06-09T12:14:21Z</time>
      </trkpt>
      <trkpt lat="44.81236" lon="4.27078">
        <ele>1356.8</ele>
        <time>2022-06-09T12:14:22Z</time>
      </trkpt>
      <trkpt lat="44.81239" lon="4.27072">
        <ele>1356.8</ele>
        <time>2022-06-09T12:14:23Z</time>
      </trkpt>
      <trkpt lat="44.81241" lon="4.27068">
        <ele>1356.8</ele>
        <time>2022-06-09T12:14:24Z</time>
      </trkpt>
      <trkpt lat="44.81245" lon="4.27063">
        <ele>1356.9</ele>
        <time>2022-06-09T12:14:25Z</time>
      </trkpt>
      <trkpt lat="44.81247" lon="4.27059">
        <ele>1356.9</ele>
        <time>2022-06-09T12:14:26Z</time>
      </trkpt>
      <trkpt lat="44.8125" lon="4.27054">
        <ele>1357</ele>
        <time>2022-06-09T12:14:27Z</time>
      </trkpt>
      <trkpt lat="44.81252" lon="4.27051">
        <ele>1357</ele>
        <time>2022-06-09T12:14:28Z</time>
      </trkpt>
      <trkpt lat="44.81255" lon="4.27046">
        <ele>1357.1</ele>
        <time>2022-06-09T12:14:29Z</time>
      </trkpt>
      <trkpt lat="44.81258" lon="4.27042">
        <ele>1357.1</ele>
        <time>2022-06-09T12:14:30Z</time>
      </trkpt>
      <trkpt lat="44.8126" lon="4.27039">
        <ele>1357.2</ele>
        <time>2022-06-09T12:14:31Z</time>
      </trkpt>
      <trkpt lat="44.81263" lon="4.27034">
        <ele>1357.2</ele>
        <time>2022-06-09T12:14:32Z</time>
      </trkpt>
      <trkpt lat="44.81265" lon="4.27029">
        <ele>1357.2</ele>
        <time>2022-06-09T12:14:33Z</time>
      </trkpt>
      <trkpt lat="44.81269" lon="4.27025">
        <ele>1357.2</ele>
        <time>2022-06-09T12:14:34Z</time>
      </trkpt>
      <trkpt lat="44.81272" lon="4.27018">
        <ele>1357.2</ele>
        <time>2022-06-09T12:14:35Z</time>
      </trkpt>
      <trkpt lat="44.81274" lon="4.27013">
        <ele>1357.2</ele>
        <time>2022-06-09T12:14:37Z</time>
      </trkpt>
      <trkpt lat="44.81276" lon="4.27009">
        <ele>1357.2</ele>
        <time>2022-06-09T12:14:38Z</time>
      </trkpt>
      <trkpt lat="44.81279" lon="4.27006">
        <ele>1357.2</ele>
        <time>2022-06-09T12:14:39Z</time>
      </trkpt>
      <trkpt lat="44.81282" lon="4.27">
        <ele>1357.2</ele>
        <time>2022-06-09T12:14:40Z</time>
      </trkpt>
      <trkpt lat="44.81285" lon="4.26994">
        <ele>1357.2</ele>
        <time>2022-06-09T12:14:41Z</time>
      </trkpt>
      <trkpt lat="44.81287" lon="4.26988">
        <ele>1357.2</ele>
        <time>2022-06-09T12:14:43Z</time>
      </trkpt>
      <trkpt lat="44.81291" lon="4.26982">
        <ele>1357.2</ele>
        <time>2022-06-09T12:14:44Z</time>
      </trkpt>
      <trkpt lat="44.81294" lon="4.26976">
        <ele>1357.2</ele>
        <time>2022-06-09T12:14:45Z</time>
      </trkpt>
      <trkpt lat="44.81296" lon="4.26972">
        <ele>1357.2</ele>
        <time>2022-06-09T12:14:46Z</time>
      </trkpt>
      <trkpt lat="44.813" lon="4.26965">
        <ele>1357.2</ele>
        <time>2022-06-09T12:14:48Z</time>
      </trkpt>
      <trkpt lat="44.81303" lon="4.26961">
        <ele>1357.2</ele>
        <time>2022-06-09T12:14:49Z</time>
      </trkpt>
      <trkpt lat="44.81306" lon="4.26957">
        <ele>1357.2</ele>
        <time>2022-06-09T12:14:50Z</time>
      </trkpt>
      <trkpt lat="44.81308" lon="4.26953">
        <ele>1357.2</ele>
        <time>2022-06-09T12:14:51Z</time>
      </trkpt>
      <trkpt lat="44.81311" lon="4.26948">
        <ele>1357.2</ele>
        <time>2022-06-09T12:14:52Z</time>
      </trkpt>
      <trkpt lat="44.81313" lon="4.26944">
        <ele>1357.3</ele>
        <time>2022-06-09T12:14:53Z</time>
      </trkpt>
      <trkpt lat="44.81317" lon="4.26936">
        <ele>1357.3</ele>
        <time>2022-06-09T12:14:54Z</time>
      </trkpt>
      <trkpt lat="44.81319" lon="4.26932">
        <ele>1357.4</ele>
        <time>2022-06-09T12:14:56Z</time>
      </trkpt>
      <trkpt lat="44.81322" lon="4.26926">
        <ele>1357.4</ele>
        <time>2022-06-09T12:14:57Z</time>
      </trkpt>
      <trkpt lat="44.81324" lon="4.26922">
        <ele>1357.4</ele>
        <time>2022-06-09T12:14:58Z</time>
      </trkpt>
      <trkpt lat="44.81328" lon="4.26917">
        <ele>1357.5</ele>
        <time>2022-06-09T12:14:59Z</time>
      </trkpt>
      <trkpt lat="44.8133" lon="4.26912">
        <ele>1357.5</ele>
        <time>2022-06-09T12:15:01Z</time>
      </trkpt>
      <trkpt lat="44.81333" lon="4.26909">
        <ele>1357.5</ele>
        <time>2022-06-09T12:15:02Z</time>
      </trkpt>
      <trkpt lat="44.81335" lon="4.26906">
        <ele>1357.5</ele>
        <time>2022-06-09T12:15:03Z</time>
      </trkpt>
      <trkpt lat="44.81337" lon="4.26902">
        <ele>1357.5</ele>
        <time>2022-06-09T12:15:04Z</time>
      </trkpt>
      <trkpt lat="44.8134" lon="4.26898">
        <ele>1357.5</ele>
        <time>2022-06-09T12:15:05Z</time>
      </trkpt>
      <trkpt lat="44.81345" lon="4.26892">
        <ele>1357.5</ele>
        <time>2022-06-09T12:15:06Z</time>
      </trkpt>
      <trkpt lat="44.81348" lon="4.26889">
        <ele>1357.5</ele>
        <time>2022-06-09T12:15:08Z</time>
      </trkpt>
      <trkpt lat="44.81351" lon="4.26886">
        <ele>1357.5</ele>
        <time>2022-06-09T12:15:09Z</time>
      </trkpt>
      <trkpt lat="44.81353" lon="4.26883">
        <ele>1357.5</ele>
        <time>2022-06-09T12:15:10Z</time>
      </trkpt>
      <trkpt lat="44.81356" lon="4.2688">
        <ele>1357.5</ele>
        <time>2022-06-09T12:15:11Z</time>
      </trkpt>
      <trkpt lat="44.81362" lon="4.26876">
        <ele>1357.5</ele>
        <time>2022-06-09T12:15:12Z</time>
      </trkpt>
      <trkpt lat="44.81365" lon="4.26874">
        <ele>1357.5</ele>
        <time>2022-06-09T12:15:13Z</time>
      </trkpt>
      <trkpt lat="44.81369" lon="4.26872">
        <ele>1357.5</ele>
        <time>2022-06-09T12:15:15Z</time>
      </trkpt>
      <trkpt lat="44.81372" lon="4.2687">
        <ele>1357.5</ele>
        <time>2022-06-09T12:15:16Z</time>
      </trkpt>
      <trkpt lat="44.81375" lon="4.26869">
        <ele>1357.5</ele>
        <time>2022-06-09T12:15:17Z</time>
      </trkpt>
      <trkpt lat="44.81378" lon="4.26867">
        <ele>1357.5</ele>
        <time>2022-06-09T12:15:18Z</time>
      </trkpt>
      <trkpt lat="44.81381" lon="4.26865">
        <ele>1357.6</ele>
        <time>2022-06-09T12:15:19Z</time>
      </trkpt>
      <trkpt lat="44.81387" lon="4.26864">
        <ele>1357.6</ele>
        <time>2022-06-09T12:15:20Z</time>
      </trkpt>
      <trkpt lat="44.81391" lon="4.26863">
        <ele>1357.6</ele>
        <time>2022-06-09T12:15:22Z</time>
      </trkpt>
      <trkpt lat="44.81394" lon="4.26862">
        <ele>1357.7</ele>
        <time>2022-06-09T12:15:23Z</time>
      </trkpt>
      <trkpt lat="44.81397" lon="4.2686">
        <ele>1357.7</ele>
        <time>2022-06-09T12:15:24Z</time>
      </trkpt>
      <trkpt lat="44.814" lon="4.26859">
        <ele>1357.7</ele>
        <time>2022-06-09T12:15:25Z</time>
      </trkpt>
      <trkpt lat="44.81403" lon="4.26859">
        <ele>1357.8</ele>
        <time>2022-06-09T12:15:26Z</time>
      </trkpt>
      <trkpt lat="44.81407" lon="4.26857">
        <ele>1357.8</ele>
        <time>2022-06-09T12:15:27Z</time>
      </trkpt>
      <trkpt lat="44.81411" lon="4.26856">
        <ele>1357.8</ele>
        <time>2022-06-09T12:15:29Z</time>
      </trkpt>
      <trkpt lat="44.81414" lon="4.26854">
        <ele>1357.9</ele>
        <time>2022-06-09T12:15:30Z</time>
      </trkpt>
      <trkpt lat="44.81417" lon="4.26853">
        <ele>1357.9</ele>
        <time>2022-06-09T12:15:31Z</time>
      </trkpt>
      <trkpt lat="44.81421" lon="4.26853">
        <ele>1358</ele>
        <time>2022-06-09T12:15:32Z</time>
      </trkpt>
      <trkpt lat="44.81424" lon="4.26852">
        <ele>1358.1</ele>
        <time>2022-06-09T12:15:33Z</time>
      </trkpt>
      <trkpt lat="44.81427" lon="4.26851">
        <ele>1358.1</ele>
        <time>2022-06-09T12:15:34Z</time>
      </trkpt>
      <trkpt lat="44.81431" lon="4.26849">
        <ele>1358.2</ele>
        <time>2022-06-09T12:15:35Z</time>
      </trkpt>
      <trkpt lat="44.81435" lon="4.26848">
        <ele>1358.3</ele>
        <time>2022-06-09T12:15:36Z</time>
      </trkpt>
      <trkpt lat="44.81438" lon="4.26846">
        <ele>1358.4</ele>
        <time>2022-06-09T12:15:38Z</time>
      </trkpt>
      <trkpt lat="44.81441" lon="4.26845">
        <ele>1358.4</ele>
        <time>2022-06-09T12:15:39Z</time>
      </trkpt>
      <trkpt lat="44.81444" lon="4.26844">
        <ele>1358.5</ele>
        <time>2022-06-09T12:15:40Z</time>
      </trkpt>
      <trkpt lat="44.81447" lon="4.26843">
        <ele>1358.5</ele>
        <time>2022-06-09T12:15:41Z</time>
      </trkpt>
      <trkpt lat="44.81452" lon="4.26842">
        <ele>1358.6</ele>
        <time>2022-06-09T12:15:42Z</time>
      </trkpt>
      <trkpt lat="44.81455" lon="4.2684">
        <ele>1358.7</ele>
        <time>2022-06-09T12:15:43Z</time>
      </trkpt>
      <trkpt lat="44.81458" lon="4.26837">
        <ele>1358.8</ele>
        <time>2022-06-09T12:15:45Z</time>
      </trkpt>
      <trkpt lat="44.81463" lon="4.26836">
        <ele>1358.9</ele>
        <time>2022-06-09T12:15:46Z</time>
      </trkpt>
      <trkpt lat="44.81466" lon="4.26835">
        <ele>1359</ele>
        <time>2022-06-09T12:15:47Z</time>
      </trkpt>
      <trkpt lat="44.81469" lon="4.26833">
        <ele>1359</ele>
        <time>2022-06-09T12:15:48Z</time>
      </trkpt>
      <trkpt lat="44.81473" lon="4.26831">
        <ele>1359.1</ele>
        <time>2022-06-09T12:15:49Z</time>
      </trkpt>
      <trkpt lat="44.81475" lon="4.26828">
        <ele>1359.2</ele>
        <time>2022-06-09T12:15:51Z</time>
      </trkpt>
      <trkpt lat="44.81478" lon="4.26827">
        <ele>1359.2</ele>
        <time>2022-06-09T12:15:52Z</time>
      </trkpt>
      <trkpt lat="44.81483" lon="4.26824">
        <ele>1359.3</ele>
        <time>2022-06-09T12:15:53Z</time>
      </trkpt>
      <trkpt lat="44.81489" lon="4.2682">
        <ele>1359.5</ele>
        <time>2022-06-09T12:15:55Z</time>
      </trkpt>
      <trkpt lat="44.81491" lon="4.26818">
        <ele>1359.5</ele>
        <time>2022-06-09T12:15:56Z</time>
      </trkpt>
      <trkpt lat="44.81497" lon="4.26813">
        <ele>1359.7</ele>
        <time>2022-06-09T12:15:58Z</time>
      </trkpt>
      <trkpt lat="44.815" lon="4.2681">
        <ele>1359.7</ele>
        <time>2022-06-09T12:16:00Z</time>
      </trkpt>
      <trkpt lat="44.81503" lon="4.26807">
        <ele>1359.8</ele>
        <time>2022-06-09T12:16:01Z</time>
      </trkpt>
      <trkpt lat="44.81506" lon="4.26805">
        <ele>1359.9</ele>
        <time>2022-06-09T12:16:02Z</time>
      </trkpt>
      <trkpt lat="44.81509" lon="4.26801">
        <ele>1359.9</ele>
        <time>2022-06-09T12:16:03Z</time>
      </trkpt>
      <trkpt lat="44.81512" lon="4.26798">
        <ele>1360</ele>
        <time>2022-06-09T12:16:04Z</time>
      </trkpt>
      <trkpt lat="44.81515" lon="4.26795">
        <ele>1360.1</ele>
        <time>2022-06-09T12:16:05Z</time>
      </trkpt>
      <trkpt lat="44.81518" lon="4.26791">
        <ele>1360.1</ele>
        <time>2022-06-09T12:16:06Z</time>
      </trkpt>
      <trkpt lat="44.81523" lon="4.26784">
        <ele>1360.2</ele>
        <time>2022-06-09T12:16:07Z</time>
      </trkpt>
      <trkpt lat="44.81526" lon="4.26779">
        <ele>1360.3</ele>
        <time>2022-06-09T12:16:09Z</time>
      </trkpt>
      <trkpt lat="44.81528" lon="4.26776">
        <ele>1360.3</ele>
        <time>2022-06-09T12:16:10Z</time>
      </trkpt>
      <trkpt lat="44.81532" lon="4.26771">
        <ele>1360.4</ele>
        <time>2022-06-09T12:16:11Z</time>
      </trkpt>
      <trkpt lat="44.81534" lon="4.26767">
        <ele>1360.4</ele>
        <time>2022-06-09T12:16:12Z</time>
      </trkpt>
      <trkpt lat="44.81536" lon="4.26763">
        <ele>1360.5</ele>
        <time>2022-06-09T12:16:13Z</time>
      </trkpt>
      <trkpt lat="44.81538" lon="4.26759">
        <ele>1360.5</ele>
        <time>2022-06-09T12:16:14Z</time>
      </trkpt>
      <trkpt lat="44.81541" lon="4.26752">
        <ele>1360.6</ele>
        <time>2022-06-09T12:16:15Z</time>
      </trkpt>
      <trkpt lat="44.81542" lon="4.26747">
        <ele>1360.7</ele>
        <time>2022-06-09T12:16:16Z</time>
      </trkpt>
      <trkpt lat="44.81543" lon="4.26742">
        <ele>1360.7</ele>
        <time>2022-06-09T12:16:17Z</time>
      </trkpt>
      <trkpt lat="44.81546" lon="4.26737">
        <ele>1360.8</ele>
        <time>2022-06-09T12:16:18Z</time>
      </trkpt>
      <trkpt lat="44.81547" lon="4.26731">
        <ele>1360.8</ele>
        <time>2022-06-09T12:16:20Z</time>
      </trkpt>
      <trkpt lat="44.81548" lon="4.26725">
        <ele>1360.9</ele>
        <time>2022-06-09T12:16:21Z</time>
      </trkpt>
      <trkpt lat="44.81549" lon="4.26718">
        <ele>1360.9</ele>
        <time>2022-06-09T12:16:22Z</time>
      </trkpt>
      <trkpt lat="44.8155" lon="4.26711">
        <ele>1361</ele>
        <time>2022-06-09T12:16:23Z</time>
      </trkpt>
      <trkpt lat="44.81552" lon="4.26702">
        <ele>1361.1</ele>
        <time>2022-06-09T12:16:24Z</time>
      </trkpt>
      <trkpt lat="44.81553" lon="4.26696">
        <ele>1361.1</ele>
        <time>2022-06-09T12:16:25Z</time>
      </trkpt>
      <trkpt lat="44.81554" lon="4.2669">
        <ele>1361.2</ele>
        <time>2022-06-09T12:16:27Z</time>
      </trkpt>
      <trkpt lat="44.81555" lon="4.26678">
        <ele>1361.3</ele>
        <time>2022-06-09T12:16:28Z</time>
      </trkpt>
      <trkpt lat="44.81555" lon="4.26671">
        <ele>1361.3</ele>
        <time>2022-06-09T12:16:30Z</time>
      </trkpt>
      <trkpt lat="44.81556" lon="4.26665">
        <ele>1361.4</ele>
        <time>2022-06-09T12:16:31Z</time>
      </trkpt>
      <trkpt lat="44.81556" lon="4.26659">
        <ele>1361.4</ele>
        <time>2022-06-09T12:16:32Z</time>
      </trkpt>
      <trkpt lat="44.81557" lon="4.26653">
        <ele>1361.5</ele>
        <time>2022-06-09T12:16:33Z</time>
      </trkpt>
      <trkpt lat="44.81558" lon="4.26642">
        <ele>1361.6</ele>
        <time>2022-06-09T12:16:34Z</time>
      </trkpt>
      <trkpt lat="44.81559" lon="4.26635">
        <ele>1361.7</ele>
        <time>2022-06-09T12:16:36Z</time>
      </trkpt>
      <trkpt lat="44.8156" lon="4.2663">
        <ele>1361.7</ele>
        <time>2022-06-09T12:16:37Z</time>
      </trkpt>
      <trkpt lat="44.8156" lon="4.26624">
        <ele>1361.8</ele>
        <time>2022-06-09T12:16:38Z</time>
      </trkpt>
      <trkpt lat="44.8156" lon="4.2662">
        <ele>1361.8</ele>
        <time>2022-06-09T12:16:39Z</time>
      </trkpt>
      <trkpt lat="44.8156" lon="4.26612">
        <ele>1361.9</ele>
        <time>2022-06-09T12:16:40Z</time>
      </trkpt>
      <trkpt lat="44.81561" lon="4.26605">
        <ele>1362</ele>
        <time>2022-06-09T12:16:42Z</time>
      </trkpt>
      <trkpt lat="44.81561" lon="4.266">
        <ele>1362</ele>
        <time>2022-06-09T12:16:43Z</time>
      </trkpt>
      <trkpt lat="44.81561" lon="4.26595">
        <ele>1362.1</ele>
        <time>2022-06-09T12:16:44Z</time>
      </trkpt>
      <trkpt lat="44.81561" lon="4.2659">
        <ele>1362.1</ele>
        <time>2022-06-09T12:16:45Z</time>
      </trkpt>
      <trkpt lat="44.81562" lon="4.26584">
        <ele>1362.2</ele>
        <time>2022-06-09T12:16:46Z</time>
      </trkpt>
      <trkpt lat="44.81562" lon="4.26579">
        <ele>1362.2</ele>
        <time>2022-06-09T12:16:47Z</time>
      </trkpt>
      <trkpt lat="44.81562" lon="4.26574">
        <ele>1362.3</ele>
        <time>2022-06-09T12:16:48Z</time>
      </trkpt>
      <trkpt lat="44.81562" lon="4.26569">
        <ele>1362.3</ele>
        <time>2022-06-09T12:16:49Z</time>
      </trkpt>
      <trkpt lat="44.81562" lon="4.26563">
        <ele>1362.3</ele>
        <time>2022-06-09T12:16:50Z</time>
      </trkpt>
      <trkpt lat="44.81562" lon="4.26558">
        <ele>1362.4</ele>
        <time>2022-06-09T12:16:51Z</time>
      </trkpt>
      <trkpt lat="44.81561" lon="4.26553">
        <ele>1362.4</ele>
        <time>2022-06-09T12:16:52Z</time>
      </trkpt>
      <trkpt lat="44.8156" lon="4.26544">
        <ele>1362.5</ele>
        <time>2022-06-09T12:16:53Z</time>
      </trkpt>
      <trkpt lat="44.81559" lon="4.26538">
        <ele>1362.5</ele>
        <time>2022-06-09T12:16:55Z</time>
      </trkpt>
      <trkpt lat="44.81558" lon="4.26533">
        <ele>1362.5</ele>
        <time>2022-06-09T12:16:56Z</time>
      </trkpt>
      <trkpt lat="44.81556" lon="4.26529">
        <ele>1362.6</ele>
        <time>2022-06-09T12:16:57Z</time>
      </trkpt>
      <trkpt lat="44.81554" lon="4.26525">
        <ele>1362.6</ele>
        <time>2022-06-09T12:16:58Z</time>
      </trkpt>
      <trkpt lat="44.81552" lon="4.2652">
        <ele>1362.7</ele>
        <time>2022-06-09T12:16:59Z</time>
      </trkpt>
      <trkpt lat="44.8155" lon="4.26516">
        <ele>1362.7</ele>
        <time>2022-06-09T12:17:00Z</time>
      </trkpt>
      <trkpt lat="44.81545" lon="4.26509">
        <ele>1362.8</ele>
        <time>2022-06-09T12:17:01Z</time>
      </trkpt>
      <trkpt lat="44.81543" lon="4.26505">
        <ele>1362.9</ele>
        <time>2022-06-09T12:17:03Z</time>
      </trkpt>
      <trkpt lat="44.81541" lon="4.26501">
        <ele>1362.9</ele>
        <time>2022-06-09T12:17:04Z</time>
      </trkpt>
      <trkpt lat="44.81538" lon="4.26497">
        <ele>1363</ele>
        <time>2022-06-09T12:17:05Z</time>
      </trkpt>
      <trkpt lat="44.81536" lon="4.26492">
        <ele>1363</ele>
        <time>2022-06-09T12:17:06Z</time>
      </trkpt>
      <trkpt lat="44.81532" lon="4.26487">
        <ele>1363.1</ele>
        <time>2022-06-09T12:17:07Z</time>
      </trkpt>
      <trkpt lat="44.81529" lon="4.26483">
        <ele>1363.2</ele>
        <time>2022-06-09T12:17:08Z</time>
      </trkpt>
      <trkpt lat="44.81526" lon="4.26478">
        <ele>1363.2</ele>
        <time>2022-06-09T12:17:09Z</time>
      </trkpt>
      <trkpt lat="44.81524" lon="4.26473">
        <ele>1363.3</ele>
        <time>2022-06-09T12:17:10Z</time>
      </trkpt>
      <trkpt lat="44.81521" lon="4.26469">
        <ele>1363.3</ele>
        <time>2022-06-09T12:17:11Z</time>
      </trkpt>
      <trkpt lat="44.81519" lon="4.26465">
        <ele>1363.4</ele>
        <time>2022-06-09T12:17:12Z</time>
      </trkpt>
      <trkpt lat="44.81516" lon="4.26462">
        <ele>1363.4</ele>
        <time>2022-06-09T12:17:13Z</time>
      </trkpt>
      <trkpt lat="44.81512" lon="4.26457">
        <ele>1363.5</ele>
        <time>2022-06-09T12:17:15Z</time>
      </trkpt>
      <trkpt lat="44.8151" lon="4.26456">
        <ele>1363.5</ele>
        <time>2022-06-09T12:17:16Z</time>
      </trkpt>
      <trkpt lat="44.81509" lon="4.26454">
        <ele>1363.5</ele>
        <time>2022-06-09T12:17:17Z</time>
      </trkpt>
      <trkpt lat="44.81505" lon="4.26449">
        <ele>1363.6</ele>
        <time>2022-06-09T12:17:18Z</time>
      </trkpt>
      <trkpt lat="44.81503" lon="4.26445">
        <ele>1363.7</ele>
        <time>2022-06-09T12:17:19Z</time>
      </trkpt>
      <trkpt lat="44.81501" lon="4.26441">
        <ele>1363.7</ele>
        <time>2022-06-09T12:17:21Z</time>
      </trkpt>
      <trkpt lat="44.81497" lon="4.26437">
        <ele>1363.7</ele>
        <time>2022-06-09T12:17:22Z</time>
      </trkpt>
      <trkpt lat="44.81495" lon="4.26433">
        <ele>1363.8</ele>
        <time>2022-06-09T12:17:23Z</time>
      </trkpt>
      <trkpt lat="44.81491" lon="4.26428">
        <ele>1363.8</ele>
        <time>2022-06-09T12:17:25Z</time>
      </trkpt>
      <trkpt lat="44.81489" lon="4.26425">
        <ele>1363.9</ele>
        <time>2022-06-09T12:17:26Z</time>
      </trkpt>
      <trkpt lat="44.81486" lon="4.26421">
        <ele>1363.9</ele>
        <time>2022-06-09T12:17:27Z</time>
      </trkpt>
      <trkpt lat="44.81482" lon="4.26416">
        <ele>1364</ele>
        <time>2022-06-09T12:17:28Z</time>
      </trkpt>
      <trkpt lat="44.81477" lon="4.2641">
        <ele>1364</ele>
        <time>2022-06-09T12:17:29Z</time>
      </trkpt>
      <trkpt lat="44.81474" lon="4.26407">
        <ele>1364.1</ele>
        <time>2022-06-09T12:17:31Z</time>
      </trkpt>
      <trkpt lat="44.81472" lon="4.26403">
        <ele>1364.1</ele>
        <time>2022-06-09T12:17:32Z</time>
      </trkpt>
      <trkpt lat="44.81469" lon="4.26399">
        <ele>1364.1</ele>
        <time>2022-06-09T12:17:33Z</time>
      </trkpt>
      <trkpt lat="44.81467" lon="4.26396">
        <ele>1364.2</ele>
        <time>2022-06-09T12:17:34Z</time>
      </trkpt>
      <trkpt lat="44.81464" lon="4.26393">
        <ele>1364.2</ele>
        <time>2022-06-09T12:17:35Z</time>
      </trkpt>
      <trkpt lat="44.81462" lon="4.26389">
        <ele>1364.2</ele>
        <time>2022-06-09T12:17:36Z</time>
      </trkpt>
      <trkpt lat="44.81459" lon="4.26386">
        <ele>1364.3</ele>
        <time>2022-06-09T12:17:37Z</time>
      </trkpt>
      <trkpt lat="44.81457" lon="4.26383">
        <ele>1364.3</ele>
        <time>2022-06-09T12:17:38Z</time>
      </trkpt>
      <trkpt lat="44.81455" lon="4.26379">
        <ele>1364.4</ele>
        <time>2022-06-09T12:17:39Z</time>
      </trkpt>
      <trkpt lat="44.81453" lon="4.26375">
        <ele>1364.5</ele>
        <time>2022-06-09T12:17:40Z</time>
      </trkpt>
      <trkpt lat="44.81452" lon="4.26372">
        <ele>1364.5</ele>
        <time>2022-06-09T12:17:41Z</time>
      </trkpt>
      <trkpt lat="44.8145" lon="4.26369">
        <ele>1364.5</ele>
        <time>2022-06-09T12:17:42Z</time>
      </trkpt>
      <trkpt lat="44.81448" lon="4.26364">
        <ele>1364.6</ele>
        <time>2022-06-09T12:17:43Z</time>
      </trkpt>
      <trkpt lat="44.81445" lon="4.26361">
        <ele>1364.7</ele>
        <time>2022-06-09T12:17:44Z</time>
      </trkpt>
      <trkpt lat="44.81443" lon="4.26357">
        <ele>1364.7</ele>
        <time>2022-06-09T12:17:45Z</time>
      </trkpt>
      <trkpt lat="44.81439" lon="4.26349">
        <ele>1364.9</ele>
        <time>2022-06-09T12:17:46Z</time>
      </trkpt>
      <trkpt lat="44.81436" lon="4.26343">
        <ele>1364.9</ele>
        <time>2022-06-09T12:17:48Z</time>
      </trkpt>
      <trkpt lat="44.81436" lon="4.2634">
        <ele>1365</ele>
        <time>2022-06-09T12:17:49Z</time>
      </trkpt>
      <trkpt lat="44.81435" lon="4.26338">
        <ele>1365</ele>
        <time>2022-06-09T12:17:50Z</time>
      </trkpt>
      <trkpt lat="44.81434" lon="4.26331">
        <ele>1365.1</ele>
        <time>2022-06-09T12:17:51Z</time>
      </trkpt>
      <trkpt lat="44.81433" lon="4.26328">
        <ele>1365.2</ele>
        <time>2022-06-09T12:17:52Z</time>
      </trkpt>
      <trkpt lat="44.81431" lon="4.26321">
        <ele>1365.3</ele>
        <time>2022-06-09T12:17:54Z</time>
      </trkpt>
      <trkpt lat="44.8143" lon="4.26316">
        <ele>1365.4</ele>
        <time>2022-06-09T12:17:56Z</time>
      </trkpt>
      <trkpt lat="44.81429" lon="4.26309">
        <ele>1365.5</ele>
        <time>2022-06-09T12:17:57Z</time>
      </trkpt>
      <trkpt lat="44.81429" lon="4.26306">
        <ele>1365.5</ele>
        <time>2022-06-09T12:17:59Z</time>
      </trkpt>
      <trkpt lat="44.81429" lon="4.26302">
        <ele>1365.6</ele>
        <time>2022-06-09T12:18:00Z</time>
      </trkpt>
      <trkpt lat="44.81429" lon="4.26296">
        <ele>1365.8</ele>
        <time>2022-06-09T12:18:01Z</time>
      </trkpt>
      <trkpt lat="44.81429" lon="4.26293">
        <ele>1365.8</ele>
        <time>2022-06-09T12:18:02Z</time>
      </trkpt>
      <trkpt lat="44.8143" lon="4.26288">
        <ele>1366</ele>
        <time>2022-06-09T12:18:04Z</time>
      </trkpt>
      <trkpt lat="44.81431" lon="4.26283">
        <ele>1366.1</ele>
        <time>2022-06-09T12:18:05Z</time>
      </trkpt>
      <trkpt lat="44.81432" lon="4.26278">
        <ele>1366.3</ele>
        <time>2022-06-09T12:18:06Z</time>
      </trkpt>
      <trkpt lat="44.81433" lon="4.26274">
        <ele>1366.4</ele>
        <time>2022-06-09T12:18:07Z</time>
      </trkpt>
      <trkpt lat="44.81435" lon="4.26269">
        <ele>1366.6</ele>
        <time>2022-06-09T12:18:09Z</time>
      </trkpt>
      <trkpt lat="44.81436" lon="4.26267">
        <ele>1366.6</ele>
        <time>2022-06-09T12:18:10Z</time>
      </trkpt>
      <trkpt lat="44.81437" lon="4.26265">
        <ele>1366.7</ele>
        <time>2022-06-09T12:18:11Z</time>
      </trkpt>
      <trkpt lat="44.8144" lon="4.2626">
        <ele>1366.9</ele>
        <time>2022-06-09T12:18:12Z</time>
      </trkpt>
      <trkpt lat="44.81441" lon="4.26258">
        <ele>1367</ele>
        <time>2022-06-09T12:18:13Z</time>
      </trkpt>
      <trkpt lat="44.81444" lon="4.26253">
        <ele>1367.2</ele>
        <time>2022-06-09T12:18:15Z</time>
      </trkpt>
      <trkpt lat="44.81445" lon="4.26251">
        <ele>1367.3</ele>
        <time>2022-06-09T12:18:16Z</time>
      </trkpt>
      <trkpt lat="44.81446" lon="4.2625">
        <ele>1367.4</ele>
        <time>2022-06-09T12:18:17Z</time>
      </trkpt>
      <trkpt lat="44.81447" lon="4.26247">
        <ele>1367.4</ele>
        <time>2022-06-09T12:18:18Z</time>
      </trkpt>
      <trkpt lat="44.81449" lon="4.26244">
        <ele>1367.6</ele>
        <time>2022-06-09T12:18:20Z</time>
      </trkpt>
      <trkpt lat="44.81451" lon="4.26241">
        <ele>1367.7</ele>
        <time>2022-06-09T12:18:21Z</time>
      </trkpt>
      <trkpt lat="44.81452" lon="4.2624">
        <ele>1367.7</ele>
        <time>2022-06-09T12:18:22Z</time>
      </trkpt>
      <trkpt lat="44.81455" lon="4.26236">
        <ele>1367.9</ele>
        <time>2022-06-09T12:18:23Z</time>
      </trkpt>
      <trkpt lat="44.81456" lon="4.26235">
        <ele>1367.9</ele>
        <time>2022-06-09T12:18:24Z</time>
      </trkpt>
      <trkpt lat="44.81458" lon="4.26232">
        <ele>1368.1</ele>
        <time>2022-06-09T12:18:25Z</time>
      </trkpt>
      <trkpt lat="44.81461" lon="4.26228">
        <ele>1368.2</ele>
        <time>2022-06-09T12:18:26Z</time>
      </trkpt>
      <trkpt lat="44.81462" lon="4.26227">
        <ele>1368.3</ele>
        <time>2022-06-09T12:18:27Z</time>
      </trkpt>
      <trkpt lat="44.81464" lon="4.26225">
        <ele>1368.4</ele>
        <time>2022-06-09T12:18:28Z</time>
      </trkpt>
      <trkpt lat="44.81467" lon="4.26221">
        <ele>1368.5</ele>
        <time>2022-06-09T12:18:30Z</time>
      </trkpt>
      <trkpt lat="44.8147" lon="4.26216">
        <ele>1368.7</ele>
        <time>2022-06-09T12:18:31Z</time>
      </trkpt>
      <trkpt lat="44.81474" lon="4.26211">
        <ele>1369</ele>
        <time>2022-06-09T12:18:33Z</time>
      </trkpt>
      <trkpt lat="44.81477" lon="4.26205">
        <ele>1369.2</ele>
        <time>2022-06-09T12:18:35Z</time>
      </trkpt>
      <trkpt lat="44.81479" lon="4.26203">
        <ele>1369.3</ele>
        <time>2022-06-09T12:18:36Z</time>
      </trkpt>
      <trkpt lat="44.8148" lon="4.26201">
        <ele>1369.4</ele>
        <time>2022-06-09T12:18:37Z</time>
      </trkpt>
      <trkpt lat="44.81483" lon="4.26197">
        <ele>1369.5</ele>
        <time>2022-06-09T12:18:38Z</time>
      </trkpt>
      <trkpt lat="44.81485" lon="4.26194">
        <ele>1369.6</ele>
        <time>2022-06-09T12:18:40Z</time>
      </trkpt>
      <trkpt lat="44.81487" lon="4.26191">
        <ele>1369.7</ele>
        <time>2022-06-09T12:18:41Z</time>
      </trkpt>
      <trkpt lat="44.81491" lon="4.26186">
        <ele>1369.9</ele>
        <time>2022-06-09T12:18:43Z</time>
      </trkpt>
      <trkpt lat="44.81494" lon="4.26183">
        <ele>1370.1</ele>
        <time>2022-06-09T12:18:44Z</time>
      </trkpt>
      <trkpt lat="44.81495" lon="4.26182">
        <ele>1370.1</ele>
        <time>2022-06-09T12:18:45Z</time>
      </trkpt>
      <trkpt lat="44.81497" lon="4.26177">
        <ele>1370.3</ele>
        <time>2022-06-09T12:18:46Z</time>
      </trkpt>
      <trkpt lat="44.81498" lon="4.26176">
        <ele>1370.3</ele>
        <time>2022-06-09T12:18:47Z</time>
      </trkpt>
      <trkpt lat="44.815" lon="4.26171">
        <ele>1370.4</ele>
        <time>2022-06-09T12:18:48Z</time>
      </trkpt>
      <trkpt lat="44.81501" lon="4.26169">
        <ele>1370.5</ele>
        <time>2022-06-09T12:18:49Z</time>
      </trkpt>
      <trkpt lat="44.81503" lon="4.26166">
        <ele>1370.6</ele>
        <time>2022-06-09T12:18:50Z</time>
      </trkpt>
      <trkpt lat="44.81506" lon="4.26162">
        <ele>1370.7</ele>
        <time>2022-06-09T12:18:51Z</time>
      </trkpt>
      <trkpt lat="44.81507" lon="4.2616">
        <ele>1370.8</ele>
        <time>2022-06-09T12:18:52Z</time>
      </trkpt>
      <trkpt lat="44.81509" lon="4.26155">
        <ele>1370.9</ele>
        <time>2022-06-09T12:18:53Z</time>
      </trkpt>
      <trkpt lat="44.81511" lon="4.26151">
        <ele>1371.1</ele>
        <time>2022-06-09T12:18:54Z</time>
      </trkpt>
      <trkpt lat="44.81512" lon="4.26148">
        <ele>1371.2</ele>
        <time>2022-06-09T12:18:55Z</time>
      </trkpt>
      <trkpt lat="44.81515" lon="4.26142">
        <ele>1371.4</ele>
        <time>2022-06-09T12:18:57Z</time>
      </trkpt>
      <trkpt lat="44.81518" lon="4.26136">
        <ele>1371.6</ele>
        <time>2022-06-09T12:18:59Z</time>
      </trkpt>
      <trkpt lat="44.81519" lon="4.26134">
        <ele>1371.6</ele>
        <time>2022-06-09T12:19:00Z</time>
      </trkpt>
      <trkpt lat="44.8152" lon="4.26132">
        <ele>1371.7</ele>
        <time>2022-06-09T12:19:01Z</time>
      </trkpt>
      <trkpt lat="44.81522" lon="4.26127">
        <ele>1371.9</ele>
        <time>2022-06-09T12:19:02Z</time>
      </trkpt>
      <trkpt lat="44.81523" lon="4.26125">
        <ele>1372</ele>
        <time>2022-06-09T12:19:03Z</time>
      </trkpt>
      <trkpt lat="44.81524" lon="4.26121">
        <ele>1372.1</ele>
        <time>2022-06-09T12:19:04Z</time>
      </trkpt>
      <trkpt lat="44.81526" lon="4.26116">
        <ele>1372.2</ele>
        <time>2022-06-09T12:19:06Z</time>
      </trkpt>
      <trkpt lat="44.81527" lon="4.26112">
        <ele>1372.3</ele>
        <time>2022-06-09T12:19:07Z</time>
      </trkpt>
      <trkpt lat="44.8153" lon="4.26106">
        <ele>1372.5</ele>
        <time>2022-06-09T12:19:08Z</time>
      </trkpt>
      <trkpt lat="44.81531" lon="4.26102">
        <ele>1372.6</ele>
        <time>2022-06-09T12:19:09Z</time>
      </trkpt>
      <trkpt lat="44.81533" lon="4.26095">
        <ele>1372.8</ele>
        <time>2022-06-09T12:19:11Z</time>
      </trkpt>
      <trkpt lat="44.81534" lon="4.26092">
        <ele>1372.9</ele>
        <time>2022-06-09T12:19:12Z</time>
      </trkpt>
      <trkpt lat="44.81535" lon="4.26086">
        <ele>1373.1</ele>
        <time>2022-06-09T12:19:14Z</time>
      </trkpt>
      <trkpt lat="44.81536" lon="4.26083">
        <ele>1373.2</ele>
        <time>2022-06-09T12:19:15Z</time>
      </trkpt>
      <trkpt lat="44.81537" lon="4.26081">
        <ele>1373.2</ele>
        <time>2022-06-09T12:19:16Z</time>
      </trkpt>
      <trkpt lat="44.81538" lon="4.26076">
        <ele>1373.4</ele>
        <time>2022-06-09T12:19:17Z</time>
      </trkpt>
      <trkpt lat="44.81539" lon="4.26074">
        <ele>1373.4</ele>
        <time>2022-06-09T12:19:18Z</time>
      </trkpt>
      <trkpt lat="44.8154" lon="4.26071">
        <ele>1373.5</ele>
        <time>2022-06-09T12:19:19Z</time>
      </trkpt>
      <trkpt lat="44.81542" lon="4.26066">
        <ele>1373.7</ele>
        <time>2022-06-09T12:19:20Z</time>
      </trkpt>
      <trkpt lat="44.81542" lon="4.26064">
        <ele>1373.7</ele>
        <time>2022-06-09T12:19:21Z</time>
      </trkpt>
      <trkpt lat="44.81543" lon="4.26059">
        <ele>1373.9</ele>
        <time>2022-06-09T12:19:22Z</time>
      </trkpt>
      <trkpt lat="44.81544" lon="4.26057">
        <ele>1373.9</ele>
        <time>2022-06-09T12:19:23Z</time>
      </trkpt>
      <trkpt lat="44.81545" lon="4.26053">
        <ele>1374</ele>
        <time>2022-06-09T12:19:24Z</time>
      </trkpt>
      <trkpt lat="44.81546" lon="4.26049">
        <ele>1374.1</ele>
        <time>2022-06-09T12:19:25Z</time>
      </trkpt>
      <trkpt lat="44.81547" lon="4.26047">
        <ele>1374.2</ele>
        <time>2022-06-09T12:19:26Z</time>
      </trkpt>
      <trkpt lat="44.81548" lon="4.26042">
        <ele>1374.3</ele>
        <time>2022-06-09T12:19:27Z</time>
      </trkpt>
      <trkpt lat="44.81549" lon="4.26038">
        <ele>1374.5</ele>
        <time>2022-06-09T12:19:28Z</time>
      </trkpt>
      <trkpt lat="44.8155" lon="4.26032">
        <ele>1374.6</ele>
        <time>2022-06-09T12:19:30Z</time>
      </trkpt>
      <trkpt lat="44.81552" lon="4.26028">
        <ele>1374.7</ele>
        <time>2022-06-09T12:19:31Z</time>
      </trkpt>
      <trkpt lat="44.81553" lon="4.26023">
        <ele>1374.9</ele>
        <time>2022-06-09T12:19:32Z</time>
      </trkpt>
      <trkpt lat="44.81554" lon="4.26022">
        <ele>1374.9</ele>
        <time>2022-06-09T12:19:33Z</time>
      </trkpt>
      <trkpt lat="44.81555" lon="4.26018">
        <ele>1375.1</ele>
        <time>2022-06-09T12:19:34Z</time>
      </trkpt>
      <trkpt lat="44.81556" lon="4.26014">
        <ele>1375.2</ele>
        <time>2022-06-09T12:19:35Z</time>
      </trkpt>
      <trkpt lat="44.81557" lon="4.26009">
        <ele>1375.3</ele>
        <time>2022-06-09T12:19:37Z</time>
      </trkpt>
      <trkpt lat="44.81558" lon="4.26007">
        <ele>1375.4</ele>
        <time>2022-06-09T12:19:38Z</time>
      </trkpt>
      <trkpt lat="44.81559" lon="4.26002">
        <ele>1375.6</ele>
        <time>2022-06-09T12:19:39Z</time>
      </trkpt>
      <trkpt lat="44.81559" lon="4.26">
        <ele>1375.6</ele>
        <time>2022-06-09T12:19:40Z</time>
      </trkpt>
      <trkpt lat="44.8156" lon="4.25995">
        <ele>1375.8</ele>
        <time>2022-06-09T12:19:41Z</time>
      </trkpt>
      <trkpt lat="44.8156" lon="4.25993">
        <ele>1375.9</ele>
        <time>2022-06-09T12:19:42Z</time>
      </trkpt>
      <trkpt lat="44.81562" lon="4.25988">
        <ele>1376</ele>
        <time>2022-06-09T12:19:43Z</time>
      </trkpt>
      <trkpt lat="44.81563" lon="4.25986">
        <ele>1376.1</ele>
        <time>2022-06-09T12:19:44Z</time>
      </trkpt>
      <trkpt lat="44.81564" lon="4.25983">
        <ele>1376.2</ele>
        <time>2022-06-09T12:19:46Z</time>
      </trkpt>
      <trkpt lat="44.81565" lon="4.25978">
        <ele>1376.4</ele>
        <time>2022-06-09T12:19:47Z</time>
      </trkpt>
      <trkpt lat="44.81565" lon="4.25976">
        <ele>1376.4</ele>
        <time>2022-06-09T12:19:48Z</time>
      </trkpt>
      <trkpt lat="44.81566" lon="4.2597">
        <ele>1376.6</ele>
        <time>2022-06-09T12:19:49Z</time>
      </trkpt>
      <trkpt lat="44.81568" lon="4.25967">
        <ele>1376.8</ele>
        <time>2022-06-09T12:19:51Z</time>
      </trkpt>
      <trkpt lat="44.81568" lon="4.25965">
        <ele>1376.8</ele>
        <time>2022-06-09T12:19:52Z</time>
      </trkpt>
      <trkpt lat="44.81569" lon="4.25961">
        <ele>1377</ele>
        <time>2022-06-09T12:19:53Z</time>
      </trkpt>
      <trkpt lat="44.81569" lon="4.25959">
        <ele>1377.1</ele>
        <time>2022-06-09T12:19:54Z</time>
      </trkpt>
      <trkpt lat="44.8157" lon="4.25953">
        <ele>1377.3</ele>
        <time>2022-06-09T12:19:55Z</time>
      </trkpt>
      <trkpt lat="44.81572" lon="4.25948">
        <ele>1377.4</ele>
        <time>2022-06-09T12:19:57Z</time>
      </trkpt>
      <trkpt lat="44.81573" lon="4.25945">
        <ele>1377.5</ele>
        <time>2022-06-09T12:19:58Z</time>
      </trkpt>
      <trkpt lat="44.81574" lon="4.25943">
        <ele>1377.6</ele>
        <time>2022-06-09T12:19:59Z</time>
      </trkpt>
      <trkpt lat="44.81575" lon="4.25937">
        <ele>1377.8</ele>
        <time>2022-06-09T12:20:01Z</time>
      </trkpt>
      <trkpt lat="44.81576" lon="4.25934">
        <ele>1377.9</ele>
        <time>2022-06-09T12:20:02Z</time>
      </trkpt>
      <trkpt lat="44.81578" lon="4.25929">
        <ele>1378.1</ele>
        <time>2022-06-09T12:20:04Z</time>
      </trkpt>
      <trkpt lat="44.8158" lon="4.25924">
        <ele>1378.2</ele>
        <time>2022-06-09T12:20:05Z</time>
      </trkpt>
      <trkpt lat="44.8158" lon="4.25922">
        <ele>1378.3</ele>
        <time>2022-06-09T12:20:06Z</time>
      </trkpt>
      <trkpt lat="44.81582" lon="4.25917">
        <ele>1378.4</ele>
        <time>2022-06-09T12:20:07Z</time>
      </trkpt>
      <trkpt lat="44.81582" lon="4.25915">
        <ele>1378.5</ele>
        <time>2022-06-09T12:20:08Z</time>
      </trkpt>
      <trkpt lat="44.81584" lon="4.25911">
        <ele>1378.6</ele>
        <time>2022-06-09T12:20:09Z</time>
      </trkpt>
      <trkpt lat="44.81586" lon="4.25907">
        <ele>1378.8</ele>
        <time>2022-06-09T12:20:11Z</time>
      </trkpt>
      <trkpt lat="44.81588" lon="4.25901">
        <ele>1379</ele>
        <time>2022-06-09T12:20:12Z</time>
      </trkpt>
      <trkpt lat="44.8159" lon="4.25896">
        <ele>1379.1</ele>
        <time>2022-06-09T12:20:14Z</time>
      </trkpt>
      <trkpt lat="44.8159" lon="4.25895">
        <ele>1379.1</ele>
        <time>2022-06-09T12:20:15Z</time>
      </trkpt>
      <trkpt lat="44.81592" lon="4.25891">
        <ele>1379.3</ele>
        <time>2022-06-09T12:20:16Z</time>
      </trkpt>
      <trkpt lat="44.81593" lon="4.25887">
        <ele>1379.4</ele>
        <time>2022-06-09T12:20:17Z</time>
      </trkpt>
      <trkpt lat="44.81596" lon="4.25882">
        <ele>1379.5</ele>
        <time>2022-06-09T12:20:18Z</time>
      </trkpt>
      <trkpt lat="44.81597" lon="4.2588">
        <ele>1379.6</ele>
        <time>2022-06-09T12:20:19Z</time>
      </trkpt>
      <trkpt lat="44.816" lon="4.25874">
        <ele>1379.8</ele>
        <time>2022-06-09T12:20:21Z</time>
      </trkpt>
      <trkpt lat="44.81602" lon="4.25871">
        <ele>1379.9</ele>
        <time>2022-06-09T12:20:22Z</time>
      </trkpt>
      <trkpt lat="44.81604" lon="4.25867">
        <ele>1380</ele>
        <time>2022-06-09T12:20:24Z</time>
      </trkpt>
      <trkpt lat="44.81605" lon="4.25865">
        <ele>1380.1</ele>
        <time>2022-06-09T12:20:25Z</time>
      </trkpt>
      <trkpt lat="44.81608" lon="4.25861">
        <ele>1380.2</ele>
        <time>2022-06-09T12:20:26Z</time>
      </trkpt>
      <trkpt lat="44.8161" lon="4.25857">
        <ele>1380.3</ele>
        <time>2022-06-09T12:20:27Z</time>
      </trkpt>
      <trkpt lat="44.81613" lon="4.25852">
        <ele>1380.4</ele>
        <time>2022-06-09T12:20:29Z</time>
      </trkpt>
      <trkpt lat="44.81615" lon="4.2585">
        <ele>1380.5</ele>
        <time>2022-06-09T12:20:30Z</time>
      </trkpt>
      <trkpt lat="44.81617" lon="4.25847">
        <ele>1380.6</ele>
        <time>2022-06-09T12:20:31Z</time>
      </trkpt>
      <trkpt lat="44.81619" lon="4.25843">
        <ele>1380.7</ele>
        <time>2022-06-09T12:20:33Z</time>
      </trkpt>
      <trkpt lat="44.81622" lon="4.2584">
        <ele>1380.8</ele>
        <time>2022-06-09T12:20:34Z</time>
      </trkpt>
      <trkpt lat="44.81624" lon="4.25837">
        <ele>1380.9</ele>
        <time>2022-06-09T12:20:35Z</time>
      </trkpt>
      <trkpt lat="44.81627" lon="4.25833">
        <ele>1381</ele>
        <time>2022-06-09T12:20:37Z</time>
      </trkpt>
      <trkpt lat="44.81629" lon="4.2583">
        <ele>1381.1</ele>
        <time>2022-06-09T12:20:38Z</time>
      </trkpt>
      <trkpt lat="44.81632" lon="4.25826">
        <ele>1381.2</ele>
        <time>2022-06-09T12:20:39Z</time>
      </trkpt>
      <trkpt lat="44.81634" lon="4.25822">
        <ele>1381.3</ele>
        <time>2022-06-09T12:20:40Z</time>
      </trkpt>
      <trkpt lat="44.81636" lon="4.25818">
        <ele>1381.4</ele>
        <time>2022-06-09T12:20:42Z</time>
      </trkpt>
      <trkpt lat="44.81638" lon="4.25815">
        <ele>1381.5</ele>
        <time>2022-06-09T12:20:43Z</time>
      </trkpt>
      <trkpt lat="44.81641" lon="4.25811">
        <ele>1381.6</ele>
        <time>2022-06-09T12:20:44Z</time>
      </trkpt>
      <trkpt lat="44.81641" lon="4.2581">
        <ele>1381.6</ele>
        <time>2022-06-09T12:20:45Z</time>
      </trkpt>
      <trkpt lat="44.81645" lon="4.25805">
        <ele>1381.7</ele>
        <time>2022-06-09T12:20:46Z</time>
      </trkpt>
      <trkpt lat="44.81648" lon="4.25801">
        <ele>1381.8</ele>
        <time>2022-06-09T12:20:47Z</time>
      </trkpt>
      <trkpt lat="44.8165" lon="4.25798">
        <ele>1381.9</ele>
        <time>2022-06-09T12:20:49Z</time>
      </trkpt>
      <trkpt lat="44.81651" lon="4.25795">
        <ele>1382</ele>
        <time>2022-06-09T12:20:50Z</time>
      </trkpt>
      <trkpt lat="44.81653" lon="4.25791">
        <ele>1382.1</ele>
        <time>2022-06-09T12:20:51Z</time>
      </trkpt>
      <trkpt lat="44.81655" lon="4.25788">
        <ele>1382.2</ele>
        <time>2022-06-09T12:20:52Z</time>
      </trkpt>
      <trkpt lat="44.81657" lon="4.25786">
        <ele>1382.3</ele>
        <time>2022-06-09T12:20:53Z</time>
      </trkpt>
      <trkpt lat="44.8166" lon="4.25781">
        <ele>1382.4</ele>
        <time>2022-06-09T12:20:54Z</time>
      </trkpt>
      <trkpt lat="44.81663" lon="4.25777">
        <ele>1382.5</ele>
        <time>2022-06-09T12:20:55Z</time>
      </trkpt>
      <trkpt lat="44.81666" lon="4.25774">
        <ele>1382.6</ele>
        <time>2022-06-09T12:20:56Z</time>
      </trkpt>
      <trkpt lat="44.81668" lon="4.2577">
        <ele>1382.7</ele>
        <time>2022-06-09T12:20:57Z</time>
      </trkpt>
      <trkpt lat="44.81672" lon="4.25766">
        <ele>1382.9</ele>
        <time>2022-06-09T12:20:59Z</time>
      </trkpt>
      <trkpt lat="44.81673" lon="4.25764">
        <ele>1382.9</ele>
        <time>2022-06-09T12:21:00Z</time>
      </trkpt>
      <trkpt lat="44.81675" lon="4.25762">
        <ele>1383</ele>
        <time>2022-06-09T12:21:01Z</time>
      </trkpt>
      <trkpt lat="44.81678" lon="4.25759">
        <ele>1383.1</ele>
        <time>2022-06-09T12:21:02Z</time>
      </trkpt>
      <trkpt lat="44.81679" lon="4.25757">
        <ele>1383.1</ele>
        <time>2022-06-09T12:21:03Z</time>
      </trkpt>
      <trkpt lat="44.81681" lon="4.25755">
        <ele>1383.2</ele>
        <time>2022-06-09T12:21:04Z</time>
      </trkpt>
      <trkpt lat="44.81682" lon="4.25752">
        <ele>1383.3</ele>
        <time>2022-06-09T12:21:05Z</time>
      </trkpt>
      <trkpt lat="44.81684" lon="4.25749">
        <ele>1383.4</ele>
        <time>2022-06-09T12:21:06Z</time>
      </trkpt>
      <trkpt lat="44.81686" lon="4.25746">
        <ele>1383.5</ele>
        <time>2022-06-09T12:21:07Z</time>
      </trkpt>
      <trkpt lat="44.81688" lon="4.25743">
        <ele>1383.6</ele>
        <time>2022-06-09T12:21:08Z</time>
      </trkpt>
      <trkpt lat="44.81691" lon="4.2574">
        <ele>1383.7</ele>
        <time>2022-06-09T12:21:09Z</time>
      </trkpt>
      <trkpt lat="44.81693" lon="4.25736">
        <ele>1383.8</ele>
        <time>2022-06-09T12:21:10Z</time>
      </trkpt>
      <trkpt lat="44.81694" lon="4.25735">
        <ele>1383.9</ele>
        <time>2022-06-09T12:21:11Z</time>
      </trkpt>
      <trkpt lat="44.81697" lon="4.2573">
        <ele>1384</ele>
        <time>2022-06-09T12:21:12Z</time>
      </trkpt>
      <trkpt lat="44.81698" lon="4.25729">
        <ele>1384.1</ele>
        <time>2022-06-09T12:21:13Z</time>
      </trkpt>
      <trkpt lat="44.81701" lon="4.25723">
        <ele>1384.2</ele>
        <time>2022-06-09T12:21:14Z</time>
      </trkpt>
      <trkpt lat="44.81703" lon="4.2572">
        <ele>1384.3</ele>
        <time>2022-06-09T12:21:16Z</time>
      </trkpt>
      <trkpt lat="44.81705" lon="4.25717">
        <ele>1384.5</ele>
        <time>2022-06-09T12:21:17Z</time>
      </trkpt>
      <trkpt lat="44.81708" lon="4.25713">
        <ele>1384.6</ele>
        <time>2022-06-09T12:21:18Z</time>
      </trkpt>
      <trkpt lat="44.81709" lon="4.25711">
        <ele>1384.7</ele>
        <time>2022-06-09T12:21:19Z</time>
      </trkpt>
      <trkpt lat="44.81713" lon="4.25707">
        <ele>1384.8</ele>
        <time>2022-06-09T12:21:21Z</time>
      </trkpt>
      <trkpt lat="44.81714" lon="4.25703">
        <ele>1384.9</ele>
        <time>2022-06-09T12:21:22Z</time>
      </trkpt>
      <trkpt lat="44.81716" lon="4.25699">
        <ele>1385</ele>
        <time>2022-06-09T12:21:23Z</time>
      </trkpt>
      <trkpt lat="44.81719" lon="4.25696">
        <ele>1385.1</ele>
        <time>2022-06-09T12:21:24Z</time>
      </trkpt>
      <trkpt lat="44.81721" lon="4.25692">
        <ele>1385.3</ele>
        <time>2022-06-09T12:21:26Z</time>
      </trkpt>
      <trkpt lat="44.81723" lon="4.25689">
        <ele>1385.4</ele>
        <time>2022-06-09T12:21:27Z</time>
      </trkpt>
      <trkpt lat="44.81725" lon="4.25685">
        <ele>1385.5</ele>
        <time>2022-06-09T12:21:28Z</time>
      </trkpt>
      <trkpt lat="44.81729" lon="4.25679">
        <ele>1385.6</ele>
        <time>2022-06-09T12:21:30Z</time>
      </trkpt>
      <trkpt lat="44.81732" lon="4.25672">
        <ele>1385.8</ele>
        <time>2022-06-09T12:21:32Z</time>
      </trkpt>
      <trkpt lat="44.81734" lon="4.25667">
        <ele>1385.9</ele>
        <time>2022-06-09T12:21:34Z</time>
      </trkpt>
      <trkpt lat="44.81735" lon="4.25665">
        <ele>1385.9</ele>
        <time>2022-06-09T12:21:35Z</time>
      </trkpt>
      <trkpt lat="44.81736" lon="4.25661">
        <ele>1386</ele>
        <time>2022-06-09T12:21:36Z</time>
      </trkpt>
      <trkpt lat="44.81738" lon="4.25658">
        <ele>1386.1</ele>
        <time>2022-06-09T12:21:37Z</time>
      </trkpt>
      <trkpt lat="44.81739" lon="4.25654">
        <ele>1386.1</ele>
        <time>2022-06-09T12:21:38Z</time>
      </trkpt>
      <trkpt lat="44.81741" lon="4.25648">
        <ele>1386.2</ele>
        <time>2022-06-09T12:21:39Z</time>
      </trkpt>
      <trkpt lat="44.81742" lon="4.25641">
        <ele>1386.3</ele>
        <time>2022-06-09T12:21:41Z</time>
      </trkpt>
      <trkpt lat="44.81743" lon="4.25637">
        <ele>1386.3</ele>
        <time>2022-06-09T12:21:42Z</time>
      </trkpt>
      <trkpt lat="44.81744" lon="4.25632">
        <ele>1386.4</ele>
        <time>2022-06-09T12:21:43Z</time>
      </trkpt>
      <trkpt lat="44.81744" lon="4.25628">
        <ele>1386.4</ele>
        <time>2022-06-09T12:21:44Z</time>
      </trkpt>
      <trkpt lat="44.81745" lon="4.25623">
        <ele>1386.5</ele>
        <time>2022-06-09T12:21:45Z</time>
      </trkpt>
      <trkpt lat="44.81745" lon="4.25618">
        <ele>1386.5</ele>
        <time>2022-06-09T12:21:46Z</time>
      </trkpt>
      <trkpt lat="44.81745" lon="4.25613">
        <ele>1386.6</ele>
        <time>2022-06-09T12:21:47Z</time>
      </trkpt>
      <trkpt lat="44.81745" lon="4.25608">
        <ele>1386.6</ele>
        <time>2022-06-09T12:21:48Z</time>
      </trkpt>
      <trkpt lat="44.81745" lon="4.25603">
        <ele>1386.7</ele>
        <time>2022-06-09T12:21:49Z</time>
      </trkpt>
      <trkpt lat="44.81746" lon="4.25598">
        <ele>1386.7</ele>
        <time>2022-06-09T12:21:50Z</time>
      </trkpt>
      <trkpt lat="44.81746" lon="4.25594">
        <ele>1386.8</ele>
        <time>2022-06-09T12:21:51Z</time>
      </trkpt>
      <trkpt lat="44.81746" lon="4.25589">
        <ele>1386.8</ele>
        <time>2022-06-09T12:21:52Z</time>
      </trkpt>
      <trkpt lat="44.81746" lon="4.25584">
        <ele>1386.9</ele>
        <time>2022-06-09T12:21:53Z</time>
      </trkpt>
      <trkpt lat="44.81745" lon="4.25574">
        <ele>1387</ele>
        <time>2022-06-09T12:21:55Z</time>
      </trkpt>
      <trkpt lat="44.81745" lon="4.2557">
        <ele>1387.1</ele>
        <time>2022-06-09T12:21:56Z</time>
      </trkpt>
      <trkpt lat="44.81745" lon="4.25566">
        <ele>1387.2</ele>
        <time>2022-06-09T12:21:57Z</time>
      </trkpt>
      <trkpt lat="44.81746" lon="4.25562">
        <ele>1387.3</ele>
        <time>2022-06-09T12:21:58Z</time>
      </trkpt>
      <trkpt lat="44.81745" lon="4.25557">
        <ele>1387.3</ele>
        <time>2022-06-09T12:21:59Z</time>
      </trkpt>
      <trkpt lat="44.81745" lon="4.25549">
        <ele>1387.5</ele>
        <time>2022-06-09T12:22:00Z</time>
      </trkpt>
      <trkpt lat="44.81745" lon="4.25545">
        <ele>1387.6</ele>
        <time>2022-06-09T12:22:02Z</time>
      </trkpt>
      <trkpt lat="44.81744" lon="4.2554">
        <ele>1387.7</ele>
        <time>2022-06-09T12:22:03Z</time>
      </trkpt>
      <trkpt lat="44.81744" lon="4.25534">
        <ele>1387.8</ele>
        <time>2022-06-09T12:22:04Z</time>
      </trkpt>
      <trkpt lat="44.81744" lon="4.25531">
        <ele>1387.8</ele>
        <time>2022-06-09T12:22:05Z</time>
      </trkpt>
      <trkpt lat="44.81744" lon="4.25525">
        <ele>1387.9</ele>
        <time>2022-06-09T12:22:07Z</time>
      </trkpt>
      <trkpt lat="44.81744" lon="4.2552">
        <ele>1388</ele>
        <time>2022-06-09T12:22:08Z</time>
      </trkpt>
      <trkpt lat="44.81744" lon="4.25516">
        <ele>1388.1</ele>
        <time>2022-06-09T12:22:09Z</time>
      </trkpt>
      <trkpt lat="44.81744" lon="4.25512">
        <ele>1388.2</ele>
        <time>2022-06-09T12:22:10Z</time>
      </trkpt>
      <trkpt lat="44.81744" lon="4.25507">
        <ele>1388.3</ele>
        <time>2022-06-09T12:22:12Z</time>
      </trkpt>
      <trkpt lat="44.81743" lon="4.255">
        <ele>1388.4</ele>
        <time>2022-06-09T12:22:13Z</time>
      </trkpt>
      <trkpt lat="44.81742" lon="4.25495">
        <ele>1388.5</ele>
        <time>2022-06-09T12:22:15Z</time>
      </trkpt>
      <trkpt lat="44.81742" lon="4.2549">
        <ele>1388.6</ele>
        <time>2022-06-09T12:22:16Z</time>
      </trkpt>
      <trkpt lat="44.81742" lon="4.25485">
        <ele>1388.7</ele>
        <time>2022-06-09T12:22:17Z</time>
      </trkpt>
      <trkpt lat="44.81742" lon="4.2548">
        <ele>1388.8</ele>
        <time>2022-06-09T12:22:19Z</time>
      </trkpt>
      <trkpt lat="44.81743" lon="4.25476">
        <ele>1388.9</ele>
        <time>2022-06-09T12:22:20Z</time>
      </trkpt>
      <trkpt lat="44.81743" lon="4.25471">
        <ele>1389</ele>
        <time>2022-06-09T12:22:21Z</time>
      </trkpt>
      <trkpt lat="44.81743" lon="4.25469">
        <ele>1389</ele>
        <time>2022-06-09T12:22:22Z</time>
      </trkpt>
      <trkpt lat="44.81743" lon="4.25464">
        <ele>1389.1</ele>
        <time>2022-06-09T12:22:23Z</time>
      </trkpt>
      <trkpt lat="44.81743" lon="4.25462">
        <ele>1389.1</ele>
        <time>2022-06-09T12:22:24Z</time>
      </trkpt>
      <trkpt lat="44.81743" lon="4.25457">
        <ele>1389.2</ele>
        <time>2022-06-09T12:22:25Z</time>
      </trkpt>
      <trkpt lat="44.81742" lon="4.25451">
        <ele>1389.4</ele>
        <time>2022-06-09T12:22:27Z</time>
      </trkpt>
      <trkpt lat="44.81742" lon="4.25448">
        <ele>1389.5</ele>
        <time>2022-06-09T12:22:28Z</time>
      </trkpt>
      <trkpt lat="44.81742" lon="4.25446">
        <ele>1389.5</ele>
        <time>2022-06-09T12:22:29Z</time>
      </trkpt>
      <trkpt lat="44.81743" lon="4.2544">
        <ele>1389.7</ele>
        <time>2022-06-09T12:22:30Z</time>
      </trkpt>
      <trkpt lat="44.81743" lon="4.25437">
        <ele>1389.8</ele>
        <time>2022-06-09T12:22:31Z</time>
      </trkpt>
      <trkpt lat="44.81743" lon="4.25432">
        <ele>1389.9</ele>
        <time>2022-06-09T12:22:32Z</time>
      </trkpt>
      <trkpt lat="44.81742" lon="4.25426">
        <ele>1390</ele>
        <time>2022-06-09T12:22:34Z</time>
      </trkpt>
      <trkpt lat="44.81742" lon="4.25424">
        <ele>1390.1</ele>
        <time>2022-06-09T12:22:35Z</time>
      </trkpt>
      <trkpt lat="44.81742" lon="4.25422">
        <ele>1390.2</ele>
        <time>2022-06-09T12:22:36Z</time>
      </trkpt>
      <trkpt lat="44.81742" lon="4.25417">
        <ele>1390.3</ele>
        <time>2022-06-09T12:22:37Z</time>
      </trkpt>
      <trkpt lat="44.81742" lon="4.25416">
        <ele>1390.3</ele>
        <time>2022-06-09T12:22:38Z</time>
      </trkpt>
      <trkpt lat="44.81742" lon="4.25412">
        <ele>1390.4</ele>
        <time>2022-06-09T12:22:39Z</time>
      </trkpt>
      <trkpt lat="44.81742" lon="4.2541">
        <ele>1390.5</ele>
        <time>2022-06-09T12:22:40Z</time>
      </trkpt>
      <trkpt lat="44.81742" lon="4.25406">
        <ele>1390.6</ele>
        <time>2022-06-09T12:22:41Z</time>
      </trkpt>
      <trkpt lat="44.81742" lon="4.25404">
        <ele>1390.6</ele>
        <time>2022-06-09T12:22:42Z</time>
      </trkpt>
      <trkpt lat="44.81742" lon="4.25399">
        <ele>1390.8</ele>
        <time>2022-06-09T12:22:43Z</time>
      </trkpt>
      <trkpt lat="44.81742" lon="4.25397">
        <ele>1390.8</ele>
        <time>2022-06-09T12:22:44Z</time>
      </trkpt>
      <trkpt lat="44.81742" lon="4.25392">
        <ele>1390.9</ele>
        <time>2022-06-09T12:22:45Z</time>
      </trkpt>
      <trkpt lat="44.81741" lon="4.25389">
        <ele>1391</ele>
        <time>2022-06-09T12:22:46Z</time>
      </trkpt>
      <trkpt lat="44.81741" lon="4.25385">
        <ele>1391.1</ele>
        <time>2022-06-09T12:22:48Z</time>
      </trkpt>
      <trkpt lat="44.81741" lon="4.25381">
        <ele>1391.2</ele>
        <time>2022-06-09T12:22:49Z</time>
      </trkpt>
      <trkpt lat="44.81741" lon="4.25379">
        <ele>1391.2</ele>
        <time>2022-06-09T12:22:50Z</time>
      </trkpt>
      <trkpt lat="44.81742" lon="4.25374">
        <ele>1391.3</ele>
        <time>2022-06-09T12:22:51Z</time>
      </trkpt>
      <trkpt lat="44.81742" lon="4.25373">
        <ele>1391.3</ele>
        <time>2022-06-09T12:22:52Z</time>
      </trkpt>
      <trkpt lat="44.81742" lon="4.25368">
        <ele>1391.4</ele>
        <time>2022-06-09T12:22:53Z</time>
      </trkpt>
      <trkpt lat="44.81742" lon="4.25366">
        <ele>1391.5</ele>
        <time>2022-06-09T12:22:54Z</time>
      </trkpt>
      <trkpt lat="44.81742" lon="4.25362">
        <ele>1391.6</ele>
        <time>2022-06-09T12:22:55Z</time>
      </trkpt>
      <trkpt lat="44.81742" lon="4.25357">
        <ele>1391.7</ele>
        <time>2022-06-09T12:22:56Z</time>
      </trkpt>
      <trkpt lat="44.81741" lon="4.25355">
        <ele>1391.7</ele>
        <time>2022-06-09T12:22:57Z</time>
      </trkpt>
      <trkpt lat="44.81741" lon="4.25351">
        <ele>1391.8</ele>
        <time>2022-06-09T12:22:58Z</time>
      </trkpt>
      <trkpt lat="44.81741" lon="4.25349">
        <ele>1391.9</ele>
        <time>2022-06-09T12:22:59Z</time>
      </trkpt>
      <trkpt lat="44.81741" lon="4.25344">
        <ele>1392</ele>
        <time>2022-06-09T12:23:00Z</time>
      </trkpt>
      <trkpt lat="44.81741" lon="4.25342">
        <ele>1392</ele>
        <time>2022-06-09T12:23:01Z</time>
      </trkpt>
      <trkpt lat="44.81741" lon="4.25338">
        <ele>1392.2</ele>
        <time>2022-06-09T12:23:02Z</time>
      </trkpt>
      <trkpt lat="44.81741" lon="4.25336">
        <ele>1392.2</ele>
        <time>2022-06-09T12:23:03Z</time>
      </trkpt>
      <trkpt lat="44.81741" lon="4.25331">
        <ele>1392.3</ele>
        <time>2022-06-09T12:23:04Z</time>
      </trkpt>
      <trkpt lat="44.8174" lon="4.25329">
        <ele>1392.4</ele>
        <time>2022-06-09T12:23:05Z</time>
      </trkpt>
      <trkpt lat="44.8174" lon="4.25325">
        <ele>1392.5</ele>
        <time>2022-06-09T12:23:06Z</time>
      </trkpt>
      <trkpt lat="44.8174" lon="4.25321">
        <ele>1392.6</ele>
        <time>2022-06-09T12:23:08Z</time>
      </trkpt>
      <trkpt lat="44.81741" lon="4.25316">
        <ele>1392.7</ele>
        <time>2022-06-09T12:23:09Z</time>
      </trkpt>
      <trkpt lat="44.81741" lon="4.25312">
        <ele>1392.8</ele>
        <time>2022-06-09T12:23:10Z</time>
      </trkpt>
      <trkpt lat="44.81741" lon="4.25308">
        <ele>1392.9</ele>
        <time>2022-06-09T12:23:11Z</time>
      </trkpt>
      <trkpt lat="44.81741" lon="4.25302">
        <ele>1393.1</ele>
        <time>2022-06-09T12:23:13Z</time>
      </trkpt>
      <trkpt lat="44.81741" lon="4.25301">
        <ele>1393.1</ele>
        <time>2022-06-09T12:23:14Z</time>
      </trkpt>
      <trkpt lat="44.81741" lon="4.25294">
        <ele>1393.3</ele>
        <time>2022-06-09T12:23:15Z</time>
      </trkpt>
      <trkpt lat="44.81741" lon="4.25291">
        <ele>1393.4</ele>
        <time>2022-06-09T12:23:16Z</time>
      </trkpt>
      <trkpt lat="44.8174" lon="4.25286">
        <ele>1393.5</ele>
        <time>2022-06-09T12:23:17Z</time>
      </trkpt>
      <trkpt lat="44.8174" lon="4.25279">
        <ele>1393.7</ele>
        <time>2022-06-09T12:23:19Z</time>
      </trkpt>
      <trkpt lat="44.8174" lon="4.25276">
        <ele>1393.8</ele>
        <time>2022-06-09T12:23:20Z</time>
      </trkpt>
      <trkpt lat="44.81739" lon="4.25272">
        <ele>1393.9</ele>
        <time>2022-06-09T12:23:22Z</time>
      </trkpt>
      <trkpt lat="44.81739" lon="4.25268">
        <ele>1394.1</ele>
        <time>2022-06-09T12:23:23Z</time>
      </trkpt>
      <trkpt lat="44.81739" lon="4.25266">
        <ele>1394.1</ele>
        <time>2022-06-09T12:23:24Z</time>
      </trkpt>
      <trkpt lat="44.81739" lon="4.25262">
        <ele>1394.2</ele>
        <time>2022-06-09T12:23:25Z</time>
      </trkpt>
      <trkpt lat="44.81738" lon="4.2526">
        <ele>1394.3</ele>
        <time>2022-06-09T12:23:26Z</time>
      </trkpt>
      <trkpt lat="44.81737" lon="4.25254">
        <ele>1394.5</ele>
        <time>2022-06-09T12:23:27Z</time>
      </trkpt>
      <trkpt lat="44.81736" lon="4.25248">
        <ele>1394.6</ele>
        <time>2022-06-09T12:23:29Z</time>
      </trkpt>
      <trkpt lat="44.81736" lon="4.25246">
        <ele>1394.7</ele>
        <time>2022-06-09T12:23:30Z</time>
      </trkpt>
      <trkpt lat="44.81735" lon="4.25241">
        <ele>1394.8</ele>
        <time>2022-06-09T12:23:31Z</time>
      </trkpt>
      <trkpt lat="44.81734" lon="4.25239">
        <ele>1394.8</ele>
        <time>2022-06-09T12:23:32Z</time>
      </trkpt>
      <trkpt lat="44.81733" lon="4.25234">
        <ele>1395</ele>
        <time>2022-06-09T12:23:34Z</time>
      </trkpt>
      <trkpt lat="44.81732" lon="4.25229">
        <ele>1395.1</ele>
        <time>2022-06-09T12:23:35Z</time>
      </trkpt>
      <trkpt lat="44.81732" lon="4.25227">
        <ele>1395.1</ele>
        <time>2022-06-09T12:23:36Z</time>
      </trkpt>
      <trkpt lat="44.81731" lon="4.25223">
        <ele>1395.2</ele>
        <time>2022-06-09T12:23:37Z</time>
      </trkpt>
      <trkpt lat="44.8173" lon="4.25218">
        <ele>1395.2</ele>
        <time>2022-06-09T12:23:38Z</time>
      </trkpt>
      <trkpt lat="44.81729" lon="4.25217">
        <ele>1395.3</ele>
        <time>2022-06-09T12:23:39Z</time>
      </trkpt>
      <trkpt lat="44.81727" lon="4.2521">
        <ele>1395.4</ele>
        <time>2022-06-09T12:23:40Z</time>
      </trkpt>
      <trkpt lat="44.81726" lon="4.25206">
        <ele>1395.4</ele>
        <time>2022-06-09T12:23:41Z</time>
      </trkpt>
      <trkpt lat="44.81725" lon="4.25203">
        <ele>1395.5</ele>
        <time>2022-06-09T12:23:42Z</time>
      </trkpt>
      <trkpt lat="44.81723" lon="4.25198">
        <ele>1395.6</ele>
        <time>2022-06-09T12:23:44Z</time>
      </trkpt>
      <trkpt lat="44.81722" lon="4.25194">
        <ele>1395.7</ele>
        <time>2022-06-09T12:23:45Z</time>
      </trkpt>
      <trkpt lat="44.81719" lon="4.25186">
        <ele>1395.8</ele>
        <time>2022-06-09T12:23:46Z</time>
      </trkpt>
      <trkpt lat="44.81716" lon="4.25178">
        <ele>1396</ele>
        <time>2022-06-09T12:23:48Z</time>
      </trkpt>
      <trkpt lat="44.81715" lon="4.2517">
        <ele>1396.2</ele>
        <time>2022-06-09T12:23:50Z</time>
      </trkpt>
      <trkpt lat="44.81713" lon="4.25165">
        <ele>1396.3</ele>
        <time>2022-06-09T12:23:52Z</time>
      </trkpt>
      <trkpt lat="44.81711" lon="4.25161">
        <ele>1396.4</ele>
        <time>2022-06-09T12:23:53Z</time>
      </trkpt>
      <trkpt lat="44.81709" lon="4.25157">
        <ele>1396.5</ele>
        <time>2022-06-09T12:23:54Z</time>
      </trkpt>
      <trkpt lat="44.81708" lon="4.25154">
        <ele>1396.6</ele>
        <time>2022-06-09T12:23:55Z</time>
      </trkpt>
      <trkpt lat="44.81707" lon="4.25149">
        <ele>1396.7</ele>
        <time>2022-06-09T12:23:57Z</time>
      </trkpt>
      <trkpt lat="44.81705" lon="4.25144">
        <ele>1396.9</ele>
        <time>2022-06-09T12:23:58Z</time>
      </trkpt>
      <trkpt lat="44.81705" lon="4.25142">
        <ele>1396.9</ele>
        <time>2022-06-09T12:23:59Z</time>
      </trkpt>
      <trkpt lat="44.81703" lon="4.25138">
        <ele>1397</ele>
        <time>2022-06-09T12:24:00Z</time>
      </trkpt>
      <trkpt lat="44.81702" lon="4.25134">
        <ele>1397.1</ele>
        <time>2022-06-09T12:24:01Z</time>
      </trkpt>
      <trkpt lat="44.81701" lon="4.25129">
        <ele>1397.2</ele>
        <time>2022-06-09T12:24:03Z</time>
      </trkpt>
      <trkpt lat="44.817" lon="4.25125">
        <ele>1397.3</ele>
        <time>2022-06-09T12:24:04Z</time>
      </trkpt>
      <trkpt lat="44.81699" lon="4.25121">
        <ele>1397.4</ele>
        <time>2022-06-09T12:24:05Z</time>
      </trkpt>
      <trkpt lat="44.81697" lon="4.25115">
        <ele>1397.6</ele>
        <time>2022-06-09T12:24:06Z</time>
      </trkpt>
      <trkpt lat="44.81697" lon="4.25109">
        <ele>1397.7</ele>
        <time>2022-06-09T12:24:08Z</time>
      </trkpt>
      <trkpt lat="44.81696" lon="4.25107">
        <ele>1397.8</ele>
        <time>2022-06-09T12:24:09Z</time>
      </trkpt>
      <trkpt lat="44.81696" lon="4.25104">
        <ele>1397.8</ele>
        <time>2022-06-09T12:24:10Z</time>
      </trkpt>
      <trkpt lat="44.81696" lon="4.25101">
        <ele>1397.9</ele>
        <time>2022-06-09T12:24:11Z</time>
      </trkpt>
      <trkpt lat="44.81696" lon="4.25095">
        <ele>1398.1</ele>
        <time>2022-06-09T12:24:12Z</time>
      </trkpt>
      <trkpt lat="44.81696" lon="4.25093">
        <ele>1398.1</ele>
        <time>2022-06-09T12:24:13Z</time>
      </trkpt>
      <trkpt lat="44.81696" lon="4.25088">
        <ele>1398.2</ele>
        <time>2022-06-09T12:24:14Z</time>
      </trkpt>
      <trkpt lat="44.81696" lon="4.25083">
        <ele>1398.4</ele>
        <time>2022-06-09T12:24:15Z</time>
      </trkpt>
      <trkpt lat="44.81696" lon="4.25079">
        <ele>1398.5</ele>
        <time>2022-06-09T12:24:16Z</time>
      </trkpt>
      <trkpt lat="44.81696" lon="4.25072">
        <ele>1398.7</ele>
        <time>2022-06-09T12:24:18Z</time>
      </trkpt>
      <trkpt lat="44.81696" lon="4.25065">
        <ele>1398.8</ele>
        <time>2022-06-09T12:24:20Z</time>
      </trkpt>
      <trkpt lat="44.81696" lon="4.25062">
        <ele>1398.9</ele>
        <time>2022-06-09T12:24:21Z</time>
      </trkpt>
      <trkpt lat="44.81696" lon="4.2506">
        <ele>1399</ele>
        <time>2022-06-09T12:24:22Z</time>
      </trkpt>
      <trkpt lat="44.81696" lon="4.25056">
        <ele>1399.1</ele>
        <time>2022-06-09T12:24:23Z</time>
      </trkpt>
      <trkpt lat="44.81696" lon="4.25051">
        <ele>1399.2</ele>
        <time>2022-06-09T12:24:24Z</time>
      </trkpt>
      <trkpt lat="44.81696" lon="4.25049">
        <ele>1399.3</ele>
        <time>2022-06-09T12:24:25Z</time>
      </trkpt>
      <trkpt lat="44.81696" lon="4.25043">
        <ele>1399.5</ele>
        <time>2022-06-09T12:24:26Z</time>
      </trkpt>
      <trkpt lat="44.81696" lon="4.25042">
        <ele>1399.5</ele>
        <time>2022-06-09T12:24:27Z</time>
      </trkpt>
      <trkpt lat="44.81696" lon="4.25036">
        <ele>1399.7</ele>
        <time>2022-06-09T12:24:28Z</time>
      </trkpt>
      <trkpt lat="44.81696" lon="4.25034">
        <ele>1399.7</ele>
        <time>2022-06-09T12:24:29Z</time>
      </trkpt>
      <trkpt lat="44.81695" lon="4.25026">
        <ele>1399.9</ele>
        <time>2022-06-09T12:24:30Z</time>
      </trkpt>
      <trkpt lat="44.81695" lon="4.25023">
        <ele>1400</ele>
        <time>2022-06-09T12:24:31Z</time>
      </trkpt>
      <trkpt lat="44.81695" lon="4.25017">
        <ele>1400.1</ele>
        <time>2022-06-09T12:24:33Z</time>
      </trkpt>
      <trkpt lat="44.81694" lon="4.25014">
        <ele>1400.2</ele>
        <time>2022-06-09T12:24:34Z</time>
      </trkpt>
      <trkpt lat="44.81694" lon="4.25012">
        <ele>1400.2</ele>
        <time>2022-06-09T12:24:35Z</time>
      </trkpt>
      <trkpt lat="44.81693" lon="4.25007">
        <ele>1400.4</ele>
        <time>2022-06-09T12:24:36Z</time>
      </trkpt>
      <trkpt lat="44.81693" lon="4.25005">
        <ele>1400.4</ele>
        <time>2022-06-09T12:24:37Z</time>
      </trkpt>
      <trkpt lat="44.81691" lon="4.25">
        <ele>1400.5</ele>
        <time>2022-06-09T12:24:38Z</time>
      </trkpt>
      <trkpt lat="44.81689" lon="4.24995">
        <ele>1400.7</ele>
        <time>2022-06-09T12:24:39Z</time>
      </trkpt>
      <trkpt lat="44.81687" lon="4.24991">
        <ele>1400.8</ele>
        <time>2022-06-09T12:24:40Z</time>
      </trkpt>
      <trkpt lat="44.81684" lon="4.24985">
        <ele>1400.9</ele>
        <time>2022-06-09T12:24:42Z</time>
      </trkpt>
      <trkpt lat="44.81682" lon="4.24981">
        <ele>1401</ele>
        <time>2022-06-09T12:24:43Z</time>
      </trkpt>
      <trkpt lat="44.81679" lon="4.24977">
        <ele>1401.1</ele>
        <time>2022-06-09T12:24:45Z</time>
      </trkpt>
      <trkpt lat="44.81677" lon="4.24974">
        <ele>1401.2</ele>
        <time>2022-06-09T12:24:46Z</time>
      </trkpt>
      <trkpt lat="44.81674" lon="4.24971">
        <ele>1401.3</ele>
        <time>2022-06-09T12:24:47Z</time>
      </trkpt>
      <trkpt lat="44.8167" lon="4.24967">
        <ele>1401.4</ele>
        <time>2022-06-09T12:24:49Z</time>
      </trkpt>
      <trkpt lat="44.81666" lon="4.24963">
        <ele>1401.5</ele>
        <time>2022-06-09T12:24:50Z</time>
      </trkpt>
      <trkpt lat="44.81663" lon="4.2496">
        <ele>1401.6</ele>
        <time>2022-06-09T12:24:51Z</time>
      </trkpt>
      <trkpt lat="44.8166" lon="4.24958">
        <ele>1401.6</ele>
        <time>2022-06-09T12:24:53Z</time>
      </trkpt>
      <trkpt lat="44.81658" lon="4.24955">
        <ele>1401.7</ele>
        <time>2022-06-09T12:24:54Z</time>
      </trkpt>
      <trkpt lat="44.81654" lon="4.24952">
        <ele>1401.8</ele>
        <time>2022-06-09T12:24:55Z</time>
      </trkpt>
      <trkpt lat="44.8165" lon="4.24949">
        <ele>1401.9</ele>
        <time>2022-06-09T12:24:56Z</time>
      </trkpt>
      <trkpt lat="44.81647" lon="4.24946">
        <ele>1402</ele>
        <time>2022-06-09T12:24:58Z</time>
      </trkpt>
      <trkpt lat="44.81644" lon="4.24943">
        <ele>1402.1</ele>
        <time>2022-06-09T12:24:59Z</time>
      </trkpt>
      <trkpt lat="44.81641" lon="4.2494">
        <ele>1402.2</ele>
        <time>2022-06-09T12:25:00Z</time>
      </trkpt>
      <trkpt lat="44.81639" lon="4.24938">
        <ele>1402.3</ele>
        <time>2022-06-09T12:25:01Z</time>
      </trkpt>
      <trkpt lat="44.81636" lon="4.24934">
        <ele>1402.5</ele>
        <time>2022-06-09T12:25:02Z</time>
      </trkpt>
      <trkpt lat="44.81634" lon="4.24931">
        <ele>1402.6</ele>
        <time>2022-06-09T12:25:03Z</time>
      </trkpt>
      <trkpt lat="44.81633" lon="4.24928">
        <ele>1402.6</ele>
        <time>2022-06-09T12:25:05Z</time>
      </trkpt>
      <trkpt lat="44.81631" lon="4.24924">
        <ele>1402.8</ele>
        <time>2022-06-09T12:25:06Z</time>
      </trkpt>
      <trkpt lat="44.8163" lon="4.24923">
        <ele>1402.8</ele>
        <time>2022-06-09T12:25:07Z</time>
      </trkpt>
      <trkpt lat="44.81627" lon="4.2492">
        <ele>1402.9</ele>
        <time>2022-06-09T12:25:08Z</time>
      </trkpt>
      <trkpt lat="44.81626" lon="4.24919">
        <ele>1403</ele>
        <time>2022-06-09T12:25:09Z</time>
      </trkpt>
      <trkpt lat="44.81624" lon="4.24915">
        <ele>1403.1</ele>
        <time>2022-06-09T12:25:10Z</time>
      </trkpt>
      <trkpt lat="44.81622" lon="4.24911">
        <ele>1403.3</ele>
        <time>2022-06-09T12:25:11Z</time>
      </trkpt>
      <trkpt lat="44.81619" lon="4.24905">
        <ele>1403.5</ele>
        <time>2022-06-09T12:25:13Z</time>
      </trkpt>
      <trkpt lat="44.81618" lon="4.24903">
        <ele>1403.6</ele>
        <time>2022-06-09T12:25:14Z</time>
      </trkpt>
      <trkpt lat="44.81618" lon="4.24901">
        <ele>1403.6</ele>
        <time>2022-06-09T12:25:15Z</time>
      </trkpt>
      <trkpt lat="44.81616" lon="4.24896">
        <ele>1403.8</ele>
        <time>2022-06-09T12:25:16Z</time>
      </trkpt>
      <trkpt lat="44.81615" lon="4.24895">
        <ele>1403.9</ele>
        <time>2022-06-09T12:25:17Z</time>
      </trkpt>
      <trkpt lat="44.81613" lon="4.24888">
        <ele>1404.1</ele>
        <time>2022-06-09T12:25:19Z</time>
      </trkpt>
      <trkpt lat="44.81612" lon="4.24884">
        <ele>1404.3</ele>
        <time>2022-06-09T12:25:20Z</time>
      </trkpt>
      <trkpt lat="44.8161" lon="4.24879">
        <ele>1404.4</ele>
        <time>2022-06-09T12:25:21Z</time>
      </trkpt>
      <trkpt lat="44.8161" lon="4.24877">
        <ele>1404.5</ele>
        <time>2022-06-09T12:25:22Z</time>
      </trkpt>
      <trkpt lat="44.81608" lon="4.24873">
        <ele>1404.7</ele>
        <time>2022-06-09T12:25:23Z</time>
      </trkpt>
      <trkpt lat="44.81608" lon="4.24871">
        <ele>1404.7</ele>
        <time>2022-06-09T12:25:24Z</time>
      </trkpt>
      <trkpt lat="44.81606" lon="4.24866">
        <ele>1404.9</ele>
        <time>2022-06-09T12:25:25Z</time>
      </trkpt>
      <trkpt lat="44.81606" lon="4.24864">
        <ele>1404.9</ele>
        <time>2022-06-09T12:25:26Z</time>
      </trkpt>
      <trkpt lat="44.81604" lon="4.24859">
        <ele>1405.1</ele>
        <time>2022-06-09T12:25:27Z</time>
      </trkpt>
      <trkpt lat="44.81604" lon="4.24857">
        <ele>1405.2</ele>
        <time>2022-06-09T12:25:28Z</time>
      </trkpt>
      <trkpt lat="44.81604" lon="4.24853">
        <ele>1405.3</ele>
        <time>2022-06-09T12:25:29Z</time>
      </trkpt>
      <trkpt lat="44.81603" lon="4.24847">
        <ele>1405.5</ele>
        <time>2022-06-09T12:25:30Z</time>
      </trkpt>
      <trkpt lat="44.81602" lon="4.24844">
        <ele>1405.5</ele>
        <time>2022-06-09T12:25:31Z</time>
      </trkpt>
      <trkpt lat="44.81602" lon="4.2484">
        <ele>1405.6</ele>
        <time>2022-06-09T12:25:33Z</time>
      </trkpt>
      <trkpt lat="44.81602" lon="4.24835">
        <ele>1405.8</ele>
        <time>2022-06-09T12:25:34Z</time>
      </trkpt>
      <trkpt lat="44.81601" lon="4.2483">
        <ele>1405.9</ele>
        <time>2022-06-09T12:25:36Z</time>
      </trkpt>
      <trkpt lat="44.816" lon="4.24824">
        <ele>1406.1</ele>
        <time>2022-06-09T12:25:37Z</time>
      </trkpt>
      <trkpt lat="44.81601" lon="4.24822">
        <ele>1406.1</ele>
        <time>2022-06-09T12:25:38Z</time>
      </trkpt>
      <trkpt lat="44.81601" lon="4.24816">
        <ele>1406.3</ele>
        <time>2022-06-09T12:25:39Z</time>
      </trkpt>
      <trkpt lat="44.81601" lon="4.2481">
        <ele>1406.5</ele>
        <time>2022-06-09T12:25:41Z</time>
      </trkpt>
      <trkpt lat="44.81601" lon="4.24805">
        <ele>1406.6</ele>
        <time>2022-06-09T12:25:42Z</time>
      </trkpt>
      <trkpt lat="44.816" lon="4.24801">
        <ele>1406.7</ele>
        <time>2022-06-09T12:25:43Z</time>
      </trkpt>
      <trkpt lat="44.81601" lon="4.24798">
        <ele>1406.7</ele>
        <time>2022-06-09T12:25:44Z</time>
      </trkpt>
      <trkpt lat="44.81602" lon="4.24793">
        <ele>1406.8</ele>
        <time>2022-06-09T12:25:45Z</time>
      </trkpt>
      <trkpt lat="44.81602" lon="4.24791">
        <ele>1406.9</ele>
        <time>2022-06-09T12:25:46Z</time>
      </trkpt>
      <trkpt lat="44.81602" lon="4.24787">
        <ele>1406.9</ele>
        <time>2022-06-09T12:25:47Z</time>
      </trkpt>
      <trkpt lat="44.81603" lon="4.24783">
        <ele>1407</ele>
        <time>2022-06-09T12:25:48Z</time>
      </trkpt>
      <trkpt lat="44.81603" lon="4.24781">
        <ele>1407</ele>
        <time>2022-06-09T12:25:49Z</time>
      </trkpt>
      <trkpt lat="44.81604" lon="4.24776">
        <ele>1407</ele>
        <time>2022-06-09T12:25:50Z</time>
      </trkpt>
      <trkpt lat="44.81605" lon="4.24775">
        <ele>1407.1</ele>
        <time>2022-06-09T12:25:51Z</time>
      </trkpt>
      <trkpt lat="44.81606" lon="4.24771">
        <ele>1407.1</ele>
        <time>2022-06-09T12:25:53Z</time>
      </trkpt>
      <trkpt lat="44.81606" lon="4.24769">
        <ele>1407.1</ele>
        <time>2022-06-09T12:25:54Z</time>
      </trkpt>
      <trkpt lat="44.81608" lon="4.24764">
        <ele>1407.1</ele>
        <time>2022-06-09T12:25:55Z</time>
      </trkpt>
      <trkpt lat="44.81609" lon="4.24761">
        <ele>1407.2</ele>
        <time>2022-06-09T12:25:56Z</time>
      </trkpt>
      <trkpt lat="44.8161" lon="4.24755">
        <ele>1407.2</ele>
        <time>2022-06-09T12:25:58Z</time>
      </trkpt>
      <trkpt lat="44.8161" lon="4.24751">
        <ele>1407.2</ele>
        <time>2022-06-09T12:25:59Z</time>
      </trkpt>
      <trkpt lat="44.8161" lon="4.24747">
        <ele>1407.2</ele>
        <time>2022-06-09T12:26:00Z</time>
      </trkpt>
      <trkpt lat="44.8161" lon="4.24743">
        <ele>1407.2</ele>
        <time>2022-06-09T12:26:01Z</time>
      </trkpt>
      <trkpt lat="44.81609" lon="4.24738">
        <ele>1407.2</ele>
        <time>2022-06-09T12:26:02Z</time>
      </trkpt>
      <trkpt lat="44.81607" lon="4.24728">
        <ele>1407.2</ele>
        <time>2022-06-09T12:26:03Z</time>
      </trkpt>
      <trkpt lat="44.81606" lon="4.24724">
        <ele>1407.2</ele>
        <time>2022-06-09T12:26:05Z</time>
      </trkpt>
      <trkpt lat="44.81604" lon="4.24719">
        <ele>1407.3</ele>
        <time>2022-06-09T12:26:06Z</time>
      </trkpt>
      <trkpt lat="44.816" lon="4.24712">
        <ele>1407.3</ele>
        <time>2022-06-09T12:26:07Z</time>
      </trkpt>
      <trkpt lat="44.81597" lon="4.24708">
        <ele>1407.3</ele>
        <time>2022-06-09T12:26:09Z</time>
      </trkpt>
      <trkpt lat="44.81595" lon="4.24704">
        <ele>1407.3</ele>
        <time>2022-06-09T12:26:10Z</time>
      </trkpt>
      <trkpt lat="44.81591" lon="4.24701">
        <ele>1407.4</ele>
        <time>2022-06-09T12:26:11Z</time>
      </trkpt>
      <trkpt lat="44.81588" lon="4.24697">
        <ele>1407.4</ele>
        <time>2022-06-09T12:26:12Z</time>
      </trkpt>
      <trkpt lat="44.81585" lon="4.24695">
        <ele>1407.4</ele>
        <time>2022-06-09T12:26:13Z</time>
      </trkpt>
      <trkpt lat="44.81582" lon="4.24692">
        <ele>1407.4</ele>
        <time>2022-06-09T12:26:14Z</time>
      </trkpt>
      <trkpt lat="44.81579" lon="4.24689">
        <ele>1407.4</ele>
        <time>2022-06-09T12:26:15Z</time>
      </trkpt>
      <trkpt lat="44.81576" lon="4.24687">
        <ele>1407.5</ele>
        <time>2022-06-09T12:26:16Z</time>
      </trkpt>
      <trkpt lat="44.81572" lon="4.24683">
        <ele>1407.5</ele>
        <time>2022-06-09T12:26:17Z</time>
      </trkpt>
      <trkpt lat="44.81567" lon="4.24681">
        <ele>1407.5</ele>
        <time>2022-06-09T12:26:18Z</time>
      </trkpt>
      <trkpt lat="44.81563" lon="4.24678">
        <ele>1407.6</ele>
        <time>2022-06-09T12:26:19Z</time>
      </trkpt>
      <trkpt lat="44.8156" lon="4.24675">
        <ele>1407.6</ele>
        <time>2022-06-09T12:26:21Z</time>
      </trkpt>
      <trkpt lat="44.81557" lon="4.24677">
        <ele>1407.6</ele>
        <time>2022-06-09T12:26:22Z</time>
      </trkpt>
      <trkpt lat="44.8156" lon="4.24682">
        <ele>1407.6</ele>
        <time>2022-06-09T12:26:23Z</time>
      </trkpt>
      <trkpt lat="44.81564" lon="4.24683">
        <ele>1407.6</ele>
        <time>2022-06-09T12:26:24Z</time>
      </trkpt>
      <trkpt lat="44.81566" lon="4.24688">
        <ele>1407.5</ele>
        <time>2022-06-09T12:26:25Z</time>
      </trkpt>
      <trkpt lat="44.81569" lon="4.2469">
        <ele>1407.5</ele>
        <time>2022-06-09T12:26:27Z</time>
      </trkpt>
      <trkpt lat="44.81572" lon="4.24685">
        <ele>1407.5</ele>
        <time>2022-06-09T12:26:28Z</time>
      </trkpt>
      <trkpt lat="44.8157" lon="4.24682">
        <ele>1407.5</ele>
        <time>2022-06-09T12:26:29Z</time>
      </trkpt>
      <trkpt lat="44.81569" lon="4.24681">
        <ele>1407.5</ele>
        <time>2022-06-09T12:26:30Z</time>
      </trkpt>
      <trkpt lat="44.81569" lon="4.24679">
        <ele>1407.5</ele>
        <time>2022-06-09T12:26:32Z</time>
      </trkpt>
      <trkpt lat="44.81569" lon="4.24678">
        <ele>1407.5</ele>
        <time>2022-06-09T12:26:33Z</time>
      </trkpt>
      <trkpt lat="44.8157" lon="4.24678">
        <ele>1407.5</ele>
        <time>2022-06-09T12:26:34Z</time>
      </trkpt>
      <trkpt lat="44.8157" lon="4.24678">
        <ele>1407.5</ele>
        <time>2022-06-09T12:26:35Z</time>
      </trkpt>
      <trkpt lat="44.8157" lon="4.24678">
        <ele>1407.5</ele>
        <time>2022-06-09T12:26:36Z</time>
      </trkpt>
      <trkpt lat="44.8157" lon="4.24678">
        <ele>1407.5</ele>
        <time>2022-06-09T12:26:37Z</time>
      </trkpt>
      <trkpt lat="44.8157" lon="4.24678">
        <ele>1407.5</ele>
        <time>2022-06-09T12:26:38Z</time>
      </trkpt>
      <trkpt lat="44.8157" lon="4.24678">
        <ele>1407.5</ele>
        <time>2022-06-09T12:26:39Z</time>
      </trkpt>
      <trkpt lat="44.8157" lon="4.24678">
        <ele>1407.5</ele>
        <time>2022-06-09T12:26:40Z</time>
      </trkpt>
      <trkpt lat="44.81571" lon="4.24678">
        <ele>1407.5</ele>
        <time>2022-06-09T12:26:42Z</time>
      </trkpt>
      <trkpt lat="44.81571" lon="4.24678">
        <ele>1407.5</ele>
        <time>2022-06-09T12:26:43Z</time>
      </trkpt>
      <trkpt lat="44.81571" lon="4.24678">
        <ele>1407.5</ele>
        <time>2022-06-09T12:26:44Z</time>
      </trkpt>
      <trkpt lat="44.81572" lon="4.24678">
        <ele>1407.5</ele>
        <time>2022-06-09T12:26:45Z</time>
      </trkpt>
      <trkpt lat="44.81572" lon="4.24679">
        <ele>1407.5</ele>
        <time>2022-06-09T12:26:46Z</time>
      </trkpt>
      <trkpt lat="44.81572" lon="4.24679">
        <ele>1407.5</ele>
        <time>2022-06-09T12:26:47Z</time>
      </trkpt>
      <trkpt lat="44.81572" lon="4.24679">
        <ele>1407.5</ele>
        <time>2022-06-09T12:26:48Z</time>
      </trkpt>
      <trkpt lat="44.81572" lon="4.24679">
        <ele>1407.5</ele>
        <time>2022-06-09T12:26:49Z</time>
      </trkpt>
      <trkpt lat="44.81572" lon="4.24679">
        <ele>1407.5</ele>
        <time>2022-06-09T12:26:50Z</time>
      </trkpt>
      <trkpt lat="44.81572" lon="4.24679">
        <ele>1407.5</ele>
        <time>2022-06-09T12:26:51Z</time>
      </trkpt>
      <trkpt lat="44.81572" lon="4.24679">
        <ele>1407.5</ele>
        <time>2022-06-09T12:26:52Z</time>
      </trkpt>
      <trkpt lat="44.81572" lon="4.24679">
        <ele>1407.5</ele>
        <time>2022-06-09T12:26:53Z</time>
      </trkpt>
      <trkpt lat="44.81572" lon="4.2468">
        <ele>1407.5</ele>
        <time>2022-06-09T12:26:54Z</time>
      </trkpt>
      <trkpt lat="44.81573" lon="4.2468">
        <ele>1407.4</ele>
        <time>2022-06-09T12:26:55Z</time>
      </trkpt>
      <trkpt lat="44.81573" lon="4.2468">
        <ele>1407.4</ele>
        <time>2022-06-09T12:26:57Z</time>
      </trkpt>
      <trkpt lat="44.81573" lon="4.2468">
        <ele>1407.4</ele>
        <time>2022-06-09T12:26:58Z</time>
      </trkpt>
      <trkpt lat="44.81572" lon="4.2468">
        <ele>1407.4</ele>
        <time>2022-06-09T12:26:59Z</time>
      </trkpt>
      <trkpt lat="44.81571" lon="4.2468">
        <ele>1407.4</ele>
        <time>2022-06-09T12:27:00Z</time>
      </trkpt>
      <trkpt lat="44.8157" lon="4.24679">
        <ele>1407.4</ele>
        <time>2022-06-09T12:27:01Z</time>
      </trkpt>
      <trkpt lat="44.81568" lon="4.24679">
        <ele>1407.4</ele>
        <time>2022-06-09T12:27:03Z</time>
      </trkpt>
      <trkpt lat="44.81567" lon="4.24678">
        <ele>1407.4</ele>
        <time>2022-06-09T12:27:04Z</time>
      </trkpt>
      <trkpt lat="44.81566" lon="4.24678">
        <ele>1407.4</ele>
        <time>2022-06-09T12:27:14Z</time>
      </trkpt>
      <trkpt lat="44.81565" lon="4.24677">
        <ele>1407.4</ele>
        <time>2022-06-09T12:27:15Z</time>
      </trkpt>
      <trkpt lat="44.81564" lon="4.24677">
        <ele>1407.4</ele>
        <time>2022-06-09T12:27:16Z</time>
      </trkpt>
      <trkpt lat="44.81562" lon="4.24675">
        <ele>1407.4</ele>
        <time>2022-06-09T12:27:17Z</time>
      </trkpt>
      <trkpt lat="44.81558" lon="4.24672">
        <ele>1407.4</ele>
        <time>2022-06-09T12:27:18Z</time>
      </trkpt>
      <trkpt lat="44.81556" lon="4.2467">
        <ele>1407.4</ele>
        <time>2022-06-09T12:27:19Z</time>
      </trkpt>
      <trkpt lat="44.81554" lon="4.24669">
        <ele>1407.3</ele>
        <time>2022-06-09T12:27:20Z</time>
      </trkpt>
      <trkpt lat="44.8155" lon="4.24666">
        <ele>1407.3</ele>
        <time>2022-06-09T12:27:21Z</time>
      </trkpt>
      <trkpt lat="44.81547" lon="4.24664">
        <ele>1407.3</ele>
        <time>2022-06-09T12:27:22Z</time>
      </trkpt>
      <trkpt lat="44.81544" lon="4.24661">
        <ele>1407.2</ele>
        <time>2022-06-09T12:27:23Z</time>
      </trkpt>
      <trkpt lat="44.81541" lon="4.24659">
        <ele>1407.2</ele>
        <time>2022-06-09T12:27:24Z</time>
      </trkpt>
      <trkpt lat="44.81538" lon="4.24656">
        <ele>1407.1</ele>
        <time>2022-06-09T12:27:25Z</time>
      </trkpt>
      <trkpt lat="44.81534" lon="4.24653">
        <ele>1407.1</ele>
        <time>2022-06-09T12:27:26Z</time>
      </trkpt>
      <trkpt lat="44.81532" lon="4.2465">
        <ele>1407</ele>
        <time>2022-06-09T12:27:27Z</time>
      </trkpt>
      <trkpt lat="44.81528" lon="4.24647">
        <ele>1407</ele>
        <time>2022-06-09T12:27:28Z</time>
      </trkpt>
      <trkpt lat="44.81525" lon="4.24643">
        <ele>1406.9</ele>
        <time>2022-06-09T12:27:29Z</time>
      </trkpt>
      <trkpt lat="44.81522" lon="4.24641">
        <ele>1406.8</ele>
        <time>2022-06-09T12:27:30Z</time>
      </trkpt>
      <trkpt lat="44.81519" lon="4.24637">
        <ele>1406.8</ele>
        <time>2022-06-09T12:27:31Z</time>
      </trkpt>
      <trkpt lat="44.81516" lon="4.24634">
        <ele>1406.7</ele>
        <time>2022-06-09T12:27:32Z</time>
      </trkpt>
      <trkpt lat="44.81512" lon="4.24628">
        <ele>1406.6</ele>
        <time>2022-06-09T12:27:33Z</time>
      </trkpt>
      <trkpt lat="44.81509" lon="4.24624">
        <ele>1406.5</ele>
        <time>2022-06-09T12:27:34Z</time>
      </trkpt>
      <trkpt lat="44.81506" lon="4.2462">
        <ele>1406.4</ele>
        <time>2022-06-09T12:27:35Z</time>
      </trkpt>
      <trkpt lat="44.81503" lon="4.24615">
        <ele>1406.3</ele>
        <time>2022-06-09T12:27:36Z</time>
      </trkpt>
      <trkpt lat="44.81499" lon="4.2461">
        <ele>1406.2</ele>
        <time>2022-06-09T12:27:37Z</time>
      </trkpt>
      <trkpt lat="44.81494" lon="4.24602">
        <ele>1406</ele>
        <time>2022-06-09T12:27:39Z</time>
      </trkpt>
      <trkpt lat="44.8149" lon="4.24598">
        <ele>1405.8</ele>
        <time>2022-06-09T12:27:40Z</time>
      </trkpt>
      <trkpt lat="44.81486" lon="4.24594">
        <ele>1405.7</ele>
        <time>2022-06-09T12:27:41Z</time>
      </trkpt>
      <trkpt lat="44.81482" lon="4.24589">
        <ele>1405.6</ele>
        <time>2022-06-09T12:27:42Z</time>
      </trkpt>
      <trkpt lat="44.81478" lon="4.24585">
        <ele>1405.4</ele>
        <time>2022-06-09T12:27:43Z</time>
      </trkpt>
      <trkpt lat="44.81474" lon="4.24581">
        <ele>1405.3</ele>
        <time>2022-06-09T12:27:44Z</time>
      </trkpt>
      <trkpt lat="44.81469" lon="4.24577">
        <ele>1405.1</ele>
        <time>2022-06-09T12:27:45Z</time>
      </trkpt>
      <trkpt lat="44.81464" lon="4.24574">
        <ele>1405</ele>
        <time>2022-06-09T12:27:46Z</time>
      </trkpt>
      <trkpt lat="44.81459" lon="4.24571">
        <ele>1404.8</ele>
        <time>2022-06-09T12:27:47Z</time>
      </trkpt>
      <trkpt lat="44.81454" lon="4.24567">
        <ele>1404.6</ele>
        <time>2022-06-09T12:27:48Z</time>
      </trkpt>
      <trkpt lat="44.81448" lon="4.24563">
        <ele>1404.5</ele>
        <time>2022-06-09T12:27:49Z</time>
      </trkpt>
      <trkpt lat="44.81442" lon="4.24558">
        <ele>1404.3</ele>
        <time>2022-06-09T12:27:50Z</time>
      </trkpt>
      <trkpt lat="44.81437" lon="4.24555">
        <ele>1404.1</ele>
        <time>2022-06-09T12:27:51Z</time>
      </trkpt>
      <trkpt lat="44.81431" lon="4.24551">
        <ele>1403.9</ele>
        <time>2022-06-09T12:27:52Z</time>
      </trkpt>
      <trkpt lat="44.81425" lon="4.24547">
        <ele>1403.7</ele>
        <time>2022-06-09T12:27:53Z</time>
      </trkpt>
      <trkpt lat="44.81419" lon="4.24543">
        <ele>1403.5</ele>
        <time>2022-06-09T12:27:54Z</time>
      </trkpt>
      <trkpt lat="44.81414" lon="4.24539">
        <ele>1403.3</ele>
        <time>2022-06-09T12:27:55Z</time>
      </trkpt>
      <trkpt lat="44.81408" lon="4.24534">
        <ele>1403.1</ele>
        <time>2022-06-09T12:27:56Z</time>
      </trkpt>
      <trkpt lat="44.81402" lon="4.2453">
        <ele>1402.8</ele>
        <time>2022-06-09T12:27:57Z</time>
      </trkpt>
      <trkpt lat="44.81396" lon="4.24526">
        <ele>1402.6</ele>
        <time>2022-06-09T12:27:58Z</time>
      </trkpt>
      <trkpt lat="44.8139" lon="4.24522">
        <ele>1402.4</ele>
        <time>2022-06-09T12:27:59Z</time>
      </trkpt>
      <trkpt lat="44.81384" lon="4.24517">
        <ele>1402.2</ele>
        <time>2022-06-09T12:28:00Z</time>
      </trkpt>
      <trkpt lat="44.81378" lon="4.24512">
        <ele>1402</ele>
        <time>2022-06-09T12:28:01Z</time>
      </trkpt>
      <trkpt lat="44.81372" lon="4.24508">
        <ele>1401.8</ele>
        <time>2022-06-09T12:28:02Z</time>
      </trkpt>
      <trkpt lat="44.81365" lon="4.24503">
        <ele>1401.6</ele>
        <time>2022-06-09T12:28:03Z</time>
      </trkpt>
      <trkpt lat="44.81359" lon="4.24498">
        <ele>1401.4</ele>
        <time>2022-06-09T12:28:04Z</time>
      </trkpt>
      <trkpt lat="44.81354" lon="4.24491">
        <ele>1401.1</ele>
        <time>2022-06-09T12:28:05Z</time>
      </trkpt>
      <trkpt lat="44.8135" lon="4.24484">
        <ele>1400.9</ele>
        <time>2022-06-09T12:28:06Z</time>
      </trkpt>
      <trkpt lat="44.81346" lon="4.24476">
        <ele>1400.7</ele>
        <time>2022-06-09T12:28:07Z</time>
      </trkpt>
      <trkpt lat="44.81342" lon="4.24469">
        <ele>1400.5</ele>
        <time>2022-06-09T12:28:08Z</time>
      </trkpt>
      <trkpt lat="44.81339" lon="4.24462">
        <ele>1400.3</ele>
        <time>2022-06-09T12:28:09Z</time>
      </trkpt>
      <trkpt lat="44.81338" lon="4.24456">
        <ele>1400.2</ele>
        <time>2022-06-09T12:28:10Z</time>
      </trkpt>
      <trkpt lat="44.81338" lon="4.24452">
        <ele>1400.1</ele>
        <time>2022-06-09T12:28:11Z</time>
      </trkpt>
      <trkpt lat="44.81337" lon="4.2445">
        <ele>1400</ele>
        <time>2022-06-09T12:28:12Z</time>
      </trkpt>
      <trkpt lat="44.81337" lon="4.24448">
        <ele>1400</ele>
        <time>2022-06-09T12:28:13Z</time>
      </trkpt>
      <trkpt lat="44.81337" lon="4.24448">
        <ele>1400</ele>
        <time>2022-06-09T12:28:14Z</time>
      </trkpt>
      <trkpt lat="44.81337" lon="4.24447">
        <ele>1400</ele>
        <time>2022-06-09T12:28:15Z</time>
      </trkpt>
      <trkpt lat="44.81337" lon="4.24446">
        <ele>1399.9</ele>
        <time>2022-06-09T12:28:16Z</time>
      </trkpt>
      <trkpt lat="44.81337" lon="4.24444">
        <ele>1399.9</ele>
        <time>2022-06-09T12:28:17Z</time>
      </trkpt>
      <trkpt lat="44.81337" lon="4.24443">
        <ele>1399.9</ele>
        <time>2022-06-09T12:28:18Z</time>
      </trkpt>
      <trkpt lat="44.81337" lon="4.24442">
        <ele>1399.8</ele>
        <time>2022-06-09T12:28:19Z</time>
      </trkpt>
      <trkpt lat="44.81337" lon="4.24441">
        <ele>1399.8</ele>
        <time>2022-06-09T12:28:21Z</time>
      </trkpt>
      <trkpt lat="44.81337" lon="4.2444">
        <ele>1399.8</ele>
        <time>2022-06-09T12:28:22Z</time>
      </trkpt>
      <trkpt lat="44.81337" lon="4.24438">
        <ele>1399.7</ele>
        <time>2022-06-09T12:28:23Z</time>
      </trkpt>
      <trkpt lat="44.81337" lon="4.24437">
        <ele>1399.7</ele>
        <time>2022-06-09T12:28:35Z</time>
      </trkpt>
      <trkpt lat="44.81337" lon="4.24436">
        <ele>1399.6</ele>
        <time>2022-06-09T12:28:36Z</time>
      </trkpt>
      <trkpt lat="44.81338" lon="4.24428">
        <ele>1399.3</ele>
        <time>2022-06-09T12:28:38Z</time>
      </trkpt>
      <trkpt lat="44.81342" lon="4.24419">
        <ele>1399</ele>
        <time>2022-06-09T12:28:39Z</time>
      </trkpt>
      <trkpt lat="44.81344" lon="4.24413">
        <ele>1398.7</ele>
        <time>2022-06-09T12:28:40Z</time>
      </trkpt>
      <trkpt lat="44.81348" lon="4.24408">
        <ele>1398.5</ele>
        <time>2022-06-09T12:28:41Z</time>
      </trkpt>
      <trkpt lat="44.81352" lon="4.24404">
        <ele>1398.2</ele>
        <time>2022-06-09T12:28:42Z</time>
      </trkpt>
      <trkpt lat="44.81357" lon="4.24399">
        <ele>1398</ele>
        <time>2022-06-09T12:28:43Z</time>
      </trkpt>
      <trkpt lat="44.81363" lon="4.24395">
        <ele>1397.7</ele>
        <time>2022-06-09T12:28:44Z</time>
      </trkpt>
      <trkpt lat="44.81369" lon="4.24392">
        <ele>1397.4</ele>
        <time>2022-06-09T12:28:45Z</time>
      </trkpt>
      <trkpt lat="44.81375" lon="4.2439">
        <ele>1397.1</ele>
        <time>2022-06-09T12:28:46Z</time>
      </trkpt>
      <trkpt lat="44.81381" lon="4.24389">
        <ele>1396.8</ele>
        <time>2022-06-09T12:28:47Z</time>
      </trkpt>
      <trkpt lat="44.81388" lon="4.24389">
        <ele>1396.6</ele>
        <time>2022-06-09T12:28:48Z</time>
      </trkpt>
      <trkpt lat="44.81394" lon="4.24388">
        <ele>1396.3</ele>
        <time>2022-06-09T12:28:49Z</time>
      </trkpt>
      <trkpt lat="44.814" lon="4.24387">
        <ele>1396</ele>
        <time>2022-06-09T12:28:50Z</time>
      </trkpt>
      <trkpt lat="44.81407" lon="4.24387">
        <ele>1395.7</ele>
        <time>2022-06-09T12:28:51Z</time>
      </trkpt>
      <trkpt lat="44.81413" lon="4.24387">
        <ele>1395.5</ele>
        <time>2022-06-09T12:28:52Z</time>
      </trkpt>
      <trkpt lat="44.81419" lon="4.24388">
        <ele>1395.2</ele>
        <time>2022-06-09T12:28:53Z</time>
      </trkpt>
      <trkpt lat="44.81425" lon="4.24388">
        <ele>1394.9</ele>
        <time>2022-06-09T12:28:54Z</time>
      </trkpt>
      <trkpt lat="44.81431" lon="4.24388">
        <ele>1394.6</ele>
        <time>2022-06-09T12:28:55Z</time>
      </trkpt>
      <trkpt lat="44.81438" lon="4.24388">
        <ele>1394.2</ele>
        <time>2022-06-09T12:28:56Z</time>
      </trkpt>
      <trkpt lat="44.81445" lon="4.24388">
        <ele>1393.9</ele>
        <time>2022-06-09T12:28:57Z</time>
      </trkpt>
      <trkpt lat="44.81451" lon="4.24387">
        <ele>1393.6</ele>
        <time>2022-06-09T12:28:58Z</time>
      </trkpt>
      <trkpt lat="44.81458" lon="4.24387">
        <ele>1393.3</ele>
        <time>2022-06-09T12:28:59Z</time>
      </trkpt>
      <trkpt lat="44.81465" lon="4.24387">
        <ele>1392.9</ele>
        <time>2022-06-09T12:29:00Z</time>
      </trkpt>
      <trkpt lat="44.81472" lon="4.24386">
        <ele>1392.6</ele>
        <time>2022-06-09T12:29:01Z</time>
      </trkpt>
      <trkpt lat="44.81479" lon="4.24386">
        <ele>1392.3</ele>
        <time>2022-06-09T12:29:02Z</time>
      </trkpt>
      <trkpt lat="44.81486" lon="4.24386">
        <ele>1391.9</ele>
        <time>2022-06-09T12:29:03Z</time>
      </trkpt>
      <trkpt lat="44.81493" lon="4.24386">
        <ele>1391.6</ele>
        <time>2022-06-09T12:29:04Z</time>
      </trkpt>
      <trkpt lat="44.81499" lon="4.24385">
        <ele>1391.3</ele>
        <time>2022-06-09T12:29:05Z</time>
      </trkpt>
      <trkpt lat="44.81506" lon="4.24384">
        <ele>1390.9</ele>
        <time>2022-06-09T12:29:06Z</time>
      </trkpt>
      <trkpt lat="44.81513" lon="4.24384">
        <ele>1390.6</ele>
        <time>2022-06-09T12:29:07Z</time>
      </trkpt>
      <trkpt lat="44.81519" lon="4.24384">
        <ele>1390.3</ele>
        <time>2022-06-09T12:29:08Z</time>
      </trkpt>
      <trkpt lat="44.81526" lon="4.24384">
        <ele>1389.9</ele>
        <time>2022-06-09T12:29:09Z</time>
      </trkpt>
      <trkpt lat="44.81533" lon="4.24384">
        <ele>1389.5</ele>
        <time>2022-06-09T12:29:10Z</time>
      </trkpt>
      <trkpt lat="44.8154" lon="4.24384">
        <ele>1389.1</ele>
        <time>2022-06-09T12:29:11Z</time>
      </trkpt>
      <trkpt lat="44.81547" lon="4.24384">
        <ele>1388.7</ele>
        <time>2022-06-09T12:29:12Z</time>
      </trkpt>
      <trkpt lat="44.81554" lon="4.24384">
        <ele>1388.3</ele>
        <time>2022-06-09T12:29:13Z</time>
      </trkpt>
      <trkpt lat="44.8156" lon="4.24383">
        <ele>1387.9</ele>
        <time>2022-06-09T12:29:14Z</time>
      </trkpt>
      <trkpt lat="44.81567" lon="4.24383">
        <ele>1387.6</ele>
        <time>2022-06-09T12:29:15Z</time>
      </trkpt>
      <trkpt lat="44.81573" lon="4.24383">
        <ele>1387.3</ele>
        <time>2022-06-09T12:29:16Z</time>
      </trkpt>
      <trkpt lat="44.81579" lon="4.24382">
        <ele>1386.9</ele>
        <time>2022-06-09T12:29:17Z</time>
      </trkpt>
      <trkpt lat="44.81585" lon="4.24382">
        <ele>1386.6</ele>
        <time>2022-06-09T12:29:18Z</time>
      </trkpt>
      <trkpt lat="44.81592" lon="4.24382">
        <ele>1386.2</ele>
        <time>2022-06-09T12:29:19Z</time>
      </trkpt>
      <trkpt lat="44.81598" lon="4.24382">
        <ele>1385.8</ele>
        <time>2022-06-09T12:29:20Z</time>
      </trkpt>
      <trkpt lat="44.81604" lon="4.24382">
        <ele>1385.5</ele>
        <time>2022-06-09T12:29:21Z</time>
      </trkpt>
      <trkpt lat="44.81611" lon="4.24382">
        <ele>1385.1</ele>
        <time>2022-06-09T12:29:22Z</time>
      </trkpt>
      <trkpt lat="44.81617" lon="4.24382">
        <ele>1384.7</ele>
        <time>2022-06-09T12:29:23Z</time>
      </trkpt>
      <trkpt lat="44.81624" lon="4.24382">
        <ele>1384.3</ele>
        <time>2022-06-09T12:29:24Z</time>
      </trkpt>
      <trkpt lat="44.81631" lon="4.24382">
        <ele>1383.9</ele>
        <time>2022-06-09T12:29:25Z</time>
      </trkpt>
      <trkpt lat="44.81638" lon="4.24382">
        <ele>1383.5</ele>
        <time>2022-06-09T12:29:26Z</time>
      </trkpt>
      <trkpt lat="44.81644" lon="4.24382">
        <ele>1383.1</ele>
        <time>2022-06-09T12:29:27Z</time>
      </trkpt>
      <trkpt lat="44.81651" lon="4.24382">
        <ele>1382.7</ele>
        <time>2022-06-09T12:29:28Z</time>
      </trkpt>
      <trkpt lat="44.81659" lon="4.24381">
        <ele>1382.3</ele>
        <time>2022-06-09T12:29:29Z</time>
      </trkpt>
      <trkpt lat="44.81666" lon="4.24381">
        <ele>1381.9</ele>
        <time>2022-06-09T12:29:30Z</time>
      </trkpt>
      <trkpt lat="44.81673" lon="4.24381">
        <ele>1381.5</ele>
        <time>2022-06-09T12:29:31Z</time>
      </trkpt>
      <trkpt lat="44.81679" lon="4.24381">
        <ele>1381.1</ele>
        <time>2022-06-09T12:29:32Z</time>
      </trkpt>
      <trkpt lat="44.81687" lon="4.24381">
        <ele>1380.7</ele>
        <time>2022-06-09T12:29:33Z</time>
      </trkpt>
      <trkpt lat="44.81694" lon="4.24381">
        <ele>1380.3</ele>
        <time>2022-06-09T12:29:34Z</time>
      </trkpt>
      <trkpt lat="44.817" lon="4.24381">
        <ele>1380</ele>
        <time>2022-06-09T12:29:35Z</time>
      </trkpt>
      <trkpt lat="44.81707" lon="4.2438">
        <ele>1379.6</ele>
        <time>2022-06-09T12:29:36Z</time>
      </trkpt>
      <trkpt lat="44.81713" lon="4.2438">
        <ele>1379.3</ele>
        <time>2022-06-09T12:29:37Z</time>
      </trkpt>
      <trkpt lat="44.8172" lon="4.2438">
        <ele>1379</ele>
        <time>2022-06-09T12:29:38Z</time>
      </trkpt>
      <trkpt lat="44.81726" lon="4.2438">
        <ele>1378.7</ele>
        <time>2022-06-09T12:29:39Z</time>
      </trkpt>
      <trkpt lat="44.81733" lon="4.2438">
        <ele>1378.3</ele>
        <time>2022-06-09T12:29:40Z</time>
      </trkpt>
      <trkpt lat="44.81739" lon="4.2438">
        <ele>1378</ele>
        <time>2022-06-09T12:29:41Z</time>
      </trkpt>
      <trkpt lat="44.81745" lon="4.2438">
        <ele>1377.7</ele>
        <time>2022-06-09T12:29:42Z</time>
      </trkpt>
      <trkpt lat="44.81751" lon="4.2438">
        <ele>1377.4</ele>
        <time>2022-06-09T12:29:43Z</time>
      </trkpt>
      <trkpt lat="44.81758" lon="4.24379">
        <ele>1377</ele>
        <time>2022-06-09T12:29:44Z</time>
      </trkpt>
      <trkpt lat="44.81764" lon="4.24379">
        <ele>1376.7</ele>
        <time>2022-06-09T12:29:45Z</time>
      </trkpt>
      <trkpt lat="44.8177" lon="4.24378">
        <ele>1376.4</ele>
        <time>2022-06-09T12:29:46Z</time>
      </trkpt>
      <trkpt lat="44.81775" lon="4.24376">
        <ele>1376.1</ele>
        <time>2022-06-09T12:29:47Z</time>
      </trkpt>
      <trkpt lat="44.81781" lon="4.24374">
        <ele>1375.8</ele>
        <time>2022-06-09T12:29:48Z</time>
      </trkpt>
      <trkpt lat="44.81788" lon="4.24372">
        <ele>1375.5</ele>
        <time>2022-06-09T12:29:49Z</time>
      </trkpt>
      <trkpt lat="44.81793" lon="4.24369">
        <ele>1375.1</ele>
        <time>2022-06-09T12:29:50Z</time>
      </trkpt>
      <trkpt lat="44.81799" lon="4.24366">
        <ele>1374.8</ele>
        <time>2022-06-09T12:29:51Z</time>
      </trkpt>
      <trkpt lat="44.81804" lon="4.24362">
        <ele>1374.4</ele>
        <time>2022-06-09T12:29:52Z</time>
      </trkpt>
      <trkpt lat="44.8181" lon="4.24358">
        <ele>1374</ele>
        <time>2022-06-09T12:29:53Z</time>
      </trkpt>
      <trkpt lat="44.81814" lon="4.24355">
        <ele>1373.7</ele>
        <time>2022-06-09T12:29:54Z</time>
      </trkpt>
      <trkpt lat="44.8182" lon="4.24351">
        <ele>1373.4</ele>
        <time>2022-06-09T12:29:55Z</time>
      </trkpt>
      <trkpt lat="44.81825" lon="4.24347">
        <ele>1373</ele>
        <time>2022-06-09T12:29:56Z</time>
      </trkpt>
      <trkpt lat="44.8183" lon="4.24342">
        <ele>1372.7</ele>
        <time>2022-06-09T12:29:57Z</time>
      </trkpt>
      <trkpt lat="44.81835" lon="4.24337">
        <ele>1372.3</ele>
        <time>2022-06-09T12:29:58Z</time>
      </trkpt>
      <trkpt lat="44.81841" lon="4.24332">
        <ele>1371.9</ele>
        <time>2022-06-09T12:29:59Z</time>
      </trkpt>
      <trkpt lat="44.81845" lon="4.24326">
        <ele>1371.6</ele>
        <time>2022-06-09T12:30:00Z</time>
      </trkpt>
      <trkpt lat="44.81849" lon="4.24319">
        <ele>1371.2</ele>
        <time>2022-06-09T12:30:01Z</time>
      </trkpt>
      <trkpt lat="44.81854" lon="4.24313">
        <ele>1370.9</ele>
        <time>2022-06-09T12:30:02Z</time>
      </trkpt>
      <trkpt lat="44.81858" lon="4.24307">
        <ele>1370.6</ele>
        <time>2022-06-09T12:30:03Z</time>
      </trkpt>
      <trkpt lat="44.81862" lon="4.243">
        <ele>1370.3</ele>
        <time>2022-06-09T12:30:04Z</time>
      </trkpt>
      <trkpt lat="44.81866" lon="4.24293">
        <ele>1370.2</ele>
        <time>2022-06-09T12:30:05Z</time>
      </trkpt>
      <trkpt lat="44.8187" lon="4.24286">
        <ele>1370.1</ele>
        <time>2022-06-09T12:30:06Z</time>
      </trkpt>
      <trkpt lat="44.81873" lon="4.24278">
        <ele>1370.1</ele>
        <time>2022-06-09T12:30:07Z</time>
      </trkpt>
      <trkpt lat="44.81877" lon="4.2427">
        <ele>1370</ele>
        <time>2022-06-09T12:30:08Z</time>
      </trkpt>
      <trkpt lat="44.81881" lon="4.24262">
        <ele>1370</ele>
        <time>2022-06-09T12:30:09Z</time>
      </trkpt>
      <trkpt lat="44.81884" lon="4.24253">
        <ele>1369.9</ele>
        <time>2022-06-09T12:30:10Z</time>
      </trkpt>
      <trkpt lat="44.81887" lon="4.24245">
        <ele>1369.9</ele>
        <time>2022-06-09T12:30:11Z</time>
      </trkpt>
      <trkpt lat="44.81891" lon="4.24236">
        <ele>1369.9</ele>
        <time>2022-06-09T12:30:12Z</time>
      </trkpt>
      <trkpt lat="44.81894" lon="4.24228">
        <ele>1369.8</ele>
        <time>2022-06-09T12:30:13Z</time>
      </trkpt>
      <trkpt lat="44.81898" lon="4.24219">
        <ele>1369.7</ele>
        <time>2022-06-09T12:30:14Z</time>
      </trkpt>
      <trkpt lat="44.81901" lon="4.24211">
        <ele>1369.6</ele>
        <time>2022-06-09T12:30:15Z</time>
      </trkpt>
      <trkpt lat="44.81904" lon="4.24203">
        <ele>1369.5</ele>
        <time>2022-06-09T12:30:16Z</time>
      </trkpt>
      <trkpt lat="44.81908" lon="4.24194">
        <ele>1369.4</ele>
        <time>2022-06-09T12:30:17Z</time>
      </trkpt>
      <trkpt lat="44.81912" lon="4.24186">
        <ele>1369.3</ele>
        <time>2022-06-09T12:30:18Z</time>
      </trkpt>
      <trkpt lat="44.81916" lon="4.24178">
        <ele>1369.2</ele>
        <time>2022-06-09T12:30:19Z</time>
      </trkpt>
      <trkpt lat="44.81919" lon="4.24171">
        <ele>1369.2</ele>
        <time>2022-06-09T12:30:20Z</time>
      </trkpt>
      <trkpt lat="44.81923" lon="4.24164">
        <ele>1369.2</ele>
        <time>2022-06-09T12:30:21Z</time>
      </trkpt>
      <trkpt lat="44.81927" lon="4.24158">
        <ele>1369.2</ele>
        <time>2022-06-09T12:30:22Z</time>
      </trkpt>
      <trkpt lat="44.81931" lon="4.24152">
        <ele>1369.2</ele>
        <time>2022-06-09T12:30:23Z</time>
      </trkpt>
      <trkpt lat="44.81935" lon="4.24147">
        <ele>1369.2</ele>
        <time>2022-06-09T12:30:24Z</time>
      </trkpt>
      <trkpt lat="44.81939" lon="4.24142">
        <ele>1369.3</ele>
        <time>2022-06-09T12:30:25Z</time>
      </trkpt>
      <trkpt lat="44.81943" lon="4.24137">
        <ele>1369.3</ele>
        <time>2022-06-09T12:30:26Z</time>
      </trkpt>
      <trkpt lat="44.81946" lon="4.24134">
        <ele>1369.3</ele>
        <time>2022-06-09T12:30:27Z</time>
      </trkpt>
      <trkpt lat="44.8195" lon="4.2413">
        <ele>1369.4</ele>
        <time>2022-06-09T12:30:28Z</time>
      </trkpt>
      <trkpt lat="44.81954" lon="4.24126">
        <ele>1369.4</ele>
        <time>2022-06-09T12:30:29Z</time>
      </trkpt>
      <trkpt lat="44.81956" lon="4.24123">
        <ele>1369.4</ele>
        <time>2022-06-09T12:30:30Z</time>
      </trkpt>
      <trkpt lat="44.8196" lon="4.2412">
        <ele>1369.5</ele>
        <time>2022-06-09T12:30:31Z</time>
      </trkpt>
      <trkpt lat="44.81964" lon="4.24117">
        <ele>1369.5</ele>
        <time>2022-06-09T12:30:32Z</time>
      </trkpt>
      <trkpt lat="44.81966" lon="4.24114">
        <ele>1369.5</ele>
        <time>2022-06-09T12:30:33Z</time>
      </trkpt>
      <trkpt lat="44.8197" lon="4.24111">
        <ele>1369.6</ele>
        <time>2022-06-09T12:30:34Z</time>
      </trkpt>
      <trkpt lat="44.81973" lon="4.24107">
        <ele>1369.7</ele>
        <time>2022-06-09T12:30:35Z</time>
      </trkpt>
      <trkpt lat="44.81976" lon="4.24104">
        <ele>1369.7</ele>
        <time>2022-06-09T12:30:36Z</time>
      </trkpt>
      <trkpt lat="44.81977" lon="4.241">
        <ele>1369.8</ele>
        <time>2022-06-09T12:30:37Z</time>
      </trkpt>
      <trkpt lat="44.81981" lon="4.24097">
        <ele>1369.8</ele>
        <time>2022-06-09T12:30:38Z</time>
      </trkpt>
      <trkpt lat="44.81986" lon="4.24093">
        <ele>1370</ele>
        <time>2022-06-09T12:30:39Z</time>
      </trkpt>
      <trkpt lat="44.8199" lon="4.2409">
        <ele>1370</ele>
        <time>2022-06-09T12:30:41Z</time>
      </trkpt>
      <trkpt lat="44.81993" lon="4.24087">
        <ele>1370.1</ele>
        <time>2022-06-09T12:30:42Z</time>
      </trkpt>
      <trkpt lat="44.81998" lon="4.24083">
        <ele>1370.2</ele>
        <time>2022-06-09T12:30:43Z</time>
      </trkpt>
      <trkpt lat="44.82002" lon="4.24079">
        <ele>1370.3</ele>
        <time>2022-06-09T12:30:44Z</time>
      </trkpt>
      <trkpt lat="44.82005" lon="4.24076">
        <ele>1370.4</ele>
        <time>2022-06-09T12:30:46Z</time>
      </trkpt>
      <trkpt lat="44.8201" lon="4.24069">
        <ele>1370.5</ele>
        <time>2022-06-09T12:30:47Z</time>
      </trkpt>
      <trkpt lat="44.82013" lon="4.24066">
        <ele>1370.6</ele>
        <time>2022-06-09T12:30:49Z</time>
      </trkpt>
      <trkpt lat="44.82016" lon="4.24063">
        <ele>1370.6</ele>
        <time>2022-06-09T12:30:50Z</time>
      </trkpt>
      <trkpt lat="44.82019" lon="4.24061">
        <ele>1370.7</ele>
        <time>2022-06-09T12:30:51Z</time>
      </trkpt>
      <trkpt lat="44.82022" lon="4.24056">
        <ele>1370.8</ele>
        <time>2022-06-09T12:30:52Z</time>
      </trkpt>
      <trkpt lat="44.82026" lon="4.24052">
        <ele>1371</ele>
        <time>2022-06-09T12:30:54Z</time>
      </trkpt>
      <trkpt lat="44.82028" lon="4.24049">
        <ele>1371</ele>
        <time>2022-06-09T12:30:55Z</time>
      </trkpt>
      <trkpt lat="44.82031" lon="4.24046">
        <ele>1371.1</ele>
        <time>2022-06-09T12:30:56Z</time>
      </trkpt>
      <trkpt lat="44.82034" lon="4.24041">
        <ele>1371.3</ele>
        <time>2022-06-09T12:30:57Z</time>
      </trkpt>
      <trkpt lat="44.82037" lon="4.24037">
        <ele>1371.4</ele>
        <time>2022-06-09T12:30:58Z</time>
      </trkpt>
      <trkpt lat="44.8204" lon="4.24034">
        <ele>1371.5</ele>
        <time>2022-06-09T12:31:00Z</time>
      </trkpt>
      <trkpt lat="44.82042" lon="4.24032">
        <ele>1371.5</ele>
        <time>2022-06-09T12:31:01Z</time>
      </trkpt>
      <trkpt lat="44.82044" lon="4.24029">
        <ele>1371.7</ele>
        <time>2022-06-09T12:31:02Z</time>
      </trkpt>
      <trkpt lat="44.82046" lon="4.24026">
        <ele>1371.8</ele>
        <time>2022-06-09T12:31:03Z</time>
      </trkpt>
      <trkpt lat="44.82048" lon="4.24023">
        <ele>1371.9</ele>
        <time>2022-06-09T12:31:04Z</time>
      </trkpt>
      <trkpt lat="44.82053" lon="4.24018">
        <ele>1372.1</ele>
        <time>2022-06-09T12:31:05Z</time>
      </trkpt>
      <trkpt lat="44.82055" lon="4.24015">
        <ele>1372.2</ele>
        <time>2022-06-09T12:31:06Z</time>
      </trkpt>
      <trkpt lat="44.82057" lon="4.24012">
        <ele>1372.3</ele>
        <time>2022-06-09T12:31:08Z</time>
      </trkpt>
      <trkpt lat="44.82059" lon="4.24009">
        <ele>1372.4</ele>
        <time>2022-06-09T12:31:09Z</time>
      </trkpt>
      <trkpt lat="44.82061" lon="4.24006">
        <ele>1372.5</ele>
        <time>2022-06-09T12:31:10Z</time>
      </trkpt>
      <trkpt lat="44.82064" lon="4.24003">
        <ele>1372.6</ele>
        <time>2022-06-09T12:31:11Z</time>
      </trkpt>
      <trkpt lat="44.82066" lon="4.24">
        <ele>1372.7</ele>
        <time>2022-06-09T12:31:12Z</time>
      </trkpt>
      <trkpt lat="44.82067" lon="4.23997">
        <ele>1372.8</ele>
        <time>2022-06-09T12:31:13Z</time>
      </trkpt>
      <trkpt lat="44.82072" lon="4.23992">
        <ele>1373</ele>
        <time>2022-06-09T12:31:14Z</time>
      </trkpt>
      <trkpt lat="44.82075" lon="4.23987">
        <ele>1373.2</ele>
        <time>2022-06-09T12:31:16Z</time>
      </trkpt>
      <trkpt lat="44.82078" lon="4.23984">
        <ele>1373.3</ele>
        <time>2022-06-09T12:31:18Z</time>
      </trkpt>
      <trkpt lat="44.8208" lon="4.23981">
        <ele>1373.4</ele>
        <time>2022-06-09T12:31:19Z</time>
      </trkpt>
      <trkpt lat="44.82083" lon="4.23975">
        <ele>1373.6</ele>
        <time>2022-06-09T12:31:20Z</time>
      </trkpt>
      <trkpt lat="44.82086" lon="4.23972">
        <ele>1373.7</ele>
        <time>2022-06-09T12:31:22Z</time>
      </trkpt>
      <trkpt lat="44.82088" lon="4.23968">
        <ele>1373.8</ele>
        <time>2022-06-09T12:31:23Z</time>
      </trkpt>
      <trkpt lat="44.82089" lon="4.23967">
        <ele>1373.9</ele>
        <time>2022-06-09T12:31:24Z</time>
      </trkpt>
      <trkpt lat="44.82091" lon="4.23962">
        <ele>1374</ele>
        <time>2022-06-09T12:31:25Z</time>
      </trkpt>
      <trkpt lat="44.82092" lon="4.23961">
        <ele>1374.1</ele>
        <time>2022-06-09T12:31:26Z</time>
      </trkpt>
      <trkpt lat="44.82094" lon="4.23958">
        <ele>1374.2</ele>
        <time>2022-06-09T12:31:27Z</time>
      </trkpt>
      <trkpt lat="44.82097" lon="4.23954">
        <ele>1374.3</ele>
        <time>2022-06-09T12:31:28Z</time>
      </trkpt>
      <trkpt lat="44.82099" lon="4.23949">
        <ele>1374.4</ele>
        <time>2022-06-09T12:31:29Z</time>
      </trkpt>
      <trkpt lat="44.821" lon="4.23947">
        <ele>1374.5</ele>
        <time>2022-06-09T12:31:30Z</time>
      </trkpt>
      <trkpt lat="44.82102" lon="4.23943">
        <ele>1374.6</ele>
        <time>2022-06-09T12:31:32Z</time>
      </trkpt>
      <trkpt lat="44.82105" lon="4.23939">
        <ele>1374.7</ele>
        <time>2022-06-09T12:31:33Z</time>
      </trkpt>
      <trkpt lat="44.82107" lon="4.23936">
        <ele>1374.8</ele>
        <time>2022-06-09T12:31:35Z</time>
      </trkpt>
      <trkpt lat="44.82109" lon="4.23932">
        <ele>1374.9</ele>
        <time>2022-06-09T12:31:36Z</time>
      </trkpt>
      <trkpt lat="44.82112" lon="4.23926">
        <ele>1375</ele>
        <time>2022-06-09T12:31:37Z</time>
      </trkpt>
      <trkpt lat="44.82115" lon="4.23921">
        <ele>1375.2</ele>
        <time>2022-06-09T12:31:39Z</time>
      </trkpt>
      <trkpt lat="44.82117" lon="4.23918">
        <ele>1375.2</ele>
        <time>2022-06-09T12:31:40Z</time>
      </trkpt>
      <trkpt lat="44.8212" lon="4.23913">
        <ele>1375.4</ele>
        <time>2022-06-09T12:31:42Z</time>
      </trkpt>
      <trkpt lat="44.82121" lon="4.23911">
        <ele>1375.4</ele>
        <time>2022-06-09T12:31:43Z</time>
      </trkpt>
      <trkpt lat="44.82121" lon="4.23909">
        <ele>1375.5</ele>
        <time>2022-06-09T12:31:44Z</time>
      </trkpt>
      <trkpt lat="44.82125" lon="4.23904">
        <ele>1375.6</ele>
        <time>2022-06-09T12:31:45Z</time>
      </trkpt>
      <trkpt lat="44.82128" lon="4.23898">
        <ele>1375.7</ele>
        <time>2022-06-09T12:31:47Z</time>
      </trkpt>
      <trkpt lat="44.82129" lon="4.23895">
        <ele>1375.8</ele>
        <time>2022-06-09T12:31:48Z</time>
      </trkpt>
      <trkpt lat="44.82131" lon="4.23892">
        <ele>1375.9</ele>
        <time>2022-06-09T12:31:50Z</time>
      </trkpt>
      <trkpt lat="44.82133" lon="4.23889">
        <ele>1376</ele>
        <time>2022-06-09T12:31:51Z</time>
      </trkpt>
      <trkpt lat="44.82135" lon="4.23884">
        <ele>1376.1</ele>
        <time>2022-06-09T12:31:52Z</time>
      </trkpt>
      <trkpt lat="44.82137" lon="4.23881">
        <ele>1376.2</ele>
        <time>2022-06-09T12:31:53Z</time>
      </trkpt>
      <trkpt lat="44.8214" lon="4.23876">
        <ele>1376.3</ele>
        <time>2022-06-09T12:31:55Z</time>
      </trkpt>
      <trkpt lat="44.82141" lon="4.23874">
        <ele>1376.4</ele>
        <time>2022-06-09T12:31:56Z</time>
      </trkpt>
      <trkpt lat="44.82141" lon="4.23872">
        <ele>1376.5</ele>
        <time>2022-06-09T12:31:57Z</time>
      </trkpt>
      <trkpt lat="44.82144" lon="4.23867">
        <ele>1376.6</ele>
        <time>2022-06-09T12:31:58Z</time>
      </trkpt>
      <trkpt lat="44.82145" lon="4.23865">
        <ele>1376.7</ele>
        <time>2022-06-09T12:31:59Z</time>
      </trkpt>
      <trkpt lat="44.82146" lon="4.23862">
        <ele>1376.8</ele>
        <time>2022-06-09T12:32:01Z</time>
      </trkpt>
      <trkpt lat="44.82148" lon="4.23859">
        <ele>1376.9</ele>
        <time>2022-06-09T12:32:02Z</time>
      </trkpt>
      <trkpt lat="44.8215" lon="4.23855">
        <ele>1377</ele>
        <time>2022-06-09T12:32:04Z</time>
      </trkpt>
      <trkpt lat="44.82152" lon="4.23851">
        <ele>1377.1</ele>
        <time>2022-06-09T12:32:05Z</time>
      </trkpt>
      <trkpt lat="44.82153" lon="4.23848">
        <ele>1377.2</ele>
        <time>2022-06-09T12:32:06Z</time>
      </trkpt>
      <trkpt lat="44.82154" lon="4.23845">
        <ele>1377.3</ele>
        <time>2022-06-09T12:32:08Z</time>
      </trkpt>
      <trkpt lat="44.82156" lon="4.23842">
        <ele>1377.4</ele>
        <time>2022-06-09T12:32:09Z</time>
      </trkpt>
      <trkpt lat="44.82157" lon="4.23839">
        <ele>1377.5</ele>
        <time>2022-06-09T12:32:10Z</time>
      </trkpt>
      <trkpt lat="44.82159" lon="4.23835">
        <ele>1377.6</ele>
        <time>2022-06-09T12:32:11Z</time>
      </trkpt>
      <trkpt lat="44.8216" lon="4.23833">
        <ele>1377.7</ele>
        <time>2022-06-09T12:32:13Z</time>
      </trkpt>
      <trkpt lat="44.82162" lon="4.2383">
        <ele>1377.8</ele>
        <time>2022-06-09T12:32:14Z</time>
      </trkpt>
      <trkpt lat="44.82164" lon="4.23825">
        <ele>1377.9</ele>
        <time>2022-06-09T12:32:15Z</time>
      </trkpt>
      <trkpt lat="44.82164" lon="4.23824">
        <ele>1378</ele>
        <time>2022-06-09T12:32:16Z</time>
      </trkpt>
      <trkpt lat="44.82167" lon="4.23819">
        <ele>1378.2</ele>
        <time>2022-06-09T12:32:18Z</time>
      </trkpt>
      <trkpt lat="44.82168" lon="4.23817">
        <ele>1378.3</ele>
        <time>2022-06-09T12:32:19Z</time>
      </trkpt>
      <trkpt lat="44.82168" lon="4.23815">
        <ele>1378.3</ele>
        <time>2022-06-09T12:32:20Z</time>
      </trkpt>
      <trkpt lat="44.8217" lon="4.2381">
        <ele>1378.5</ele>
        <time>2022-06-09T12:32:21Z</time>
      </trkpt>
      <trkpt lat="44.8217" lon="4.23809">
        <ele>1378.5</ele>
        <time>2022-06-09T12:32:22Z</time>
      </trkpt>
      <trkpt lat="44.82172" lon="4.23805">
        <ele>1378.7</ele>
        <time>2022-06-09T12:32:23Z</time>
      </trkpt>
      <trkpt lat="44.82172" lon="4.23804">
        <ele>1378.7</ele>
        <time>2022-06-09T12:32:24Z</time>
      </trkpt>
      <trkpt lat="44.82174" lon="4.238">
        <ele>1378.9</ele>
        <time>2022-06-09T12:32:25Z</time>
      </trkpt>
      <trkpt lat="44.82174" lon="4.23798">
        <ele>1378.9</ele>
        <time>2022-06-09T12:32:26Z</time>
      </trkpt>
      <trkpt lat="44.82176" lon="4.23794">
        <ele>1379.1</ele>
        <time>2022-06-09T12:32:27Z</time>
      </trkpt>
      <trkpt lat="44.82176" lon="4.23793">
        <ele>1379.1</ele>
        <time>2022-06-09T12:32:28Z</time>
      </trkpt>
      <trkpt lat="44.82178" lon="4.23788">
        <ele>1379.3</ele>
        <time>2022-06-09T12:32:30Z</time>
      </trkpt>
      <trkpt lat="44.82178" lon="4.23786">
        <ele>1379.4</ele>
        <time>2022-06-09T12:32:31Z</time>
      </trkpt>
      <trkpt lat="44.82179" lon="4.23784">
        <ele>1379.5</ele>
        <time>2022-06-09T12:32:32Z</time>
      </trkpt>
      <trkpt lat="44.82181" lon="4.23781">
        <ele>1379.6</ele>
        <time>2022-06-09T12:32:33Z</time>
      </trkpt>
      <trkpt lat="44.82182" lon="4.2378">
        <ele>1379.7</ele>
        <time>2022-06-09T12:32:34Z</time>
      </trkpt>
      <trkpt lat="44.82184" lon="4.23776">
        <ele>1379.8</ele>
        <time>2022-06-09T12:32:35Z</time>
      </trkpt>
      <trkpt lat="44.82184" lon="4.23775">
        <ele>1379.9</ele>
        <time>2022-06-09T12:32:36Z</time>
      </trkpt>
      <trkpt lat="44.82185" lon="4.23772">
        <ele>1380</ele>
        <time>2022-06-09T12:32:37Z</time>
      </trkpt>
      <trkpt lat="44.82185" lon="4.23771">
        <ele>1380</ele>
        <time>2022-06-09T12:32:38Z</time>
      </trkpt>
      <trkpt lat="44.82187" lon="4.23766">
        <ele>1380.2</ele>
        <time>2022-06-09T12:32:39Z</time>
      </trkpt>
      <trkpt lat="44.82188" lon="4.23762">
        <ele>1380.4</ele>
        <time>2022-06-09T12:32:41Z</time>
      </trkpt>
      <trkpt lat="44.82188" lon="4.23761">
        <ele>1380.4</ele>
        <time>2022-06-09T12:32:42Z</time>
      </trkpt>
      <trkpt lat="44.8219" lon="4.23757">
        <ele>1380.6</ele>
        <time>2022-06-09T12:32:43Z</time>
      </trkpt>
      <trkpt lat="44.8219" lon="4.23756">
        <ele>1380.7</ele>
        <time>2022-06-09T12:32:44Z</time>
      </trkpt>
      <trkpt lat="44.82191" lon="4.23752">
        <ele>1380.9</ele>
        <time>2022-06-09T12:32:45Z</time>
      </trkpt>
      <trkpt lat="44.82192" lon="4.23751">
        <ele>1380.9</ele>
        <time>2022-06-09T12:32:46Z</time>
      </trkpt>
      <trkpt lat="44.82193" lon="4.23747">
        <ele>1381.1</ele>
        <time>2022-06-09T12:32:47Z</time>
      </trkpt>
      <trkpt lat="44.82194" lon="4.23745">
        <ele>1381.2</ele>
        <time>2022-06-09T12:32:49Z</time>
      </trkpt>
      <trkpt lat="44.82195" lon="4.23744">
        <ele>1381.3</ele>
        <time>2022-06-09T12:32:50Z</time>
      </trkpt>
      <trkpt lat="44.82196" lon="4.23742">
        <ele>1381.4</ele>
        <time>2022-06-09T12:32:51Z</time>
      </trkpt>
      <trkpt lat="44.82197" lon="4.23738">
        <ele>1381.6</ele>
        <time>2022-06-09T12:32:52Z</time>
      </trkpt>
      <trkpt lat="44.82198" lon="4.23737">
        <ele>1381.7</ele>
        <time>2022-06-09T12:32:53Z</time>
      </trkpt>
      <trkpt lat="44.82199" lon="4.23734">
        <ele>1381.8</ele>
        <time>2022-06-09T12:32:54Z</time>
      </trkpt>
      <trkpt lat="44.82201" lon="4.23731">
        <ele>1382.1</ele>
        <time>2022-06-09T12:32:56Z</time>
      </trkpt>
      <trkpt lat="44.82202" lon="4.23727">
        <ele>1382.2</ele>
        <time>2022-06-09T12:32:57Z</time>
      </trkpt>
      <trkpt lat="44.82203" lon="4.23725">
        <ele>1382.4</ele>
        <time>2022-06-09T12:32:58Z</time>
      </trkpt>
      <trkpt lat="44.82203" lon="4.23723">
        <ele>1382.5</ele>
        <time>2022-06-09T12:32:59Z</time>
      </trkpt>
      <trkpt lat="44.82205" lon="4.2372">
        <ele>1382.6</ele>
        <time>2022-06-09T12:33:00Z</time>
      </trkpt>
      <trkpt lat="44.82206" lon="4.23717">
        <ele>1382.8</ele>
        <time>2022-06-09T12:33:02Z</time>
      </trkpt>
      <trkpt lat="44.82208" lon="4.23713">
        <ele>1383</ele>
        <time>2022-06-09T12:33:03Z</time>
      </trkpt>
      <trkpt lat="44.82208" lon="4.23712">
        <ele>1383.1</ele>
        <time>2022-06-09T12:33:04Z</time>
      </trkpt>
      <trkpt lat="44.8221" lon="4.23707">
        <ele>1383.4</ele>
        <time>2022-06-09T12:33:06Z</time>
      </trkpt>
      <trkpt lat="44.8221" lon="4.23705">
        <ele>1383.5</ele>
        <time>2022-06-09T12:33:07Z</time>
      </trkpt>
      <trkpt lat="44.82211" lon="4.23704">
        <ele>1383.6</ele>
        <time>2022-06-09T12:33:08Z</time>
      </trkpt>
      <trkpt lat="44.82212" lon="4.237">
        <ele>1383.8</ele>
        <time>2022-06-09T12:33:09Z</time>
      </trkpt>
      <trkpt lat="44.82214" lon="4.23695">
        <ele>1384</ele>
        <time>2022-06-09T12:33:11Z</time>
      </trkpt>
      <trkpt lat="44.82214" lon="4.23694">
        <ele>1384.1</ele>
        <time>2022-06-09T12:33:12Z</time>
      </trkpt>
      <trkpt lat="44.82215" lon="4.23689">
        <ele>1384.3</ele>
        <time>2022-06-09T12:33:13Z</time>
      </trkpt>
      <trkpt lat="44.82215" lon="4.23688">
        <ele>1384.4</ele>
        <time>2022-06-09T12:33:14Z</time>
      </trkpt>
      <trkpt lat="44.82216" lon="4.23684">
        <ele>1384.6</ele>
        <time>2022-06-09T12:33:15Z</time>
      </trkpt>
      <trkpt lat="44.82217" lon="4.2368">
        <ele>1384.8</ele>
        <time>2022-06-09T12:33:17Z</time>
      </trkpt>
      <trkpt lat="44.82218" lon="4.23678">
        <ele>1384.9</ele>
        <time>2022-06-09T12:33:19Z</time>
      </trkpt>
      <trkpt lat="44.82218" lon="4.23675">
        <ele>1385</ele>
        <time>2022-06-09T12:33:20Z</time>
      </trkpt>
      <trkpt lat="44.8222" lon="4.23672">
        <ele>1385.2</ele>
        <time>2022-06-09T12:33:21Z</time>
      </trkpt>
      <trkpt lat="44.8222" lon="4.23671">
        <ele>1385.3</ele>
        <time>2022-06-09T12:33:22Z</time>
      </trkpt>
      <trkpt lat="44.82221" lon="4.23667">
        <ele>1385.5</ele>
        <time>2022-06-09T12:33:23Z</time>
      </trkpt>
      <trkpt lat="44.82221" lon="4.23666">
        <ele>1385.5</ele>
        <time>2022-06-09T12:33:24Z</time>
      </trkpt>
      <trkpt lat="44.82222" lon="4.23661">
        <ele>1385.7</ele>
        <time>2022-06-09T12:33:26Z</time>
      </trkpt>
      <trkpt lat="44.82222" lon="4.2366">
        <ele>1385.8</ele>
        <time>2022-06-09T12:33:27Z</time>
      </trkpt>
      <trkpt lat="44.82222" lon="4.23658">
        <ele>1385.9</ele>
        <time>2022-06-09T12:33:28Z</time>
      </trkpt>
      <trkpt lat="44.82223" lon="4.23656">
        <ele>1386</ele>
        <time>2022-06-09T12:33:29Z</time>
      </trkpt>
      <trkpt lat="44.82223" lon="4.23654">
        <ele>1386.1</ele>
        <time>2022-06-09T12:33:30Z</time>
      </trkpt>
      <trkpt lat="44.82224" lon="4.23652">
        <ele>1386.2</ele>
        <time>2022-06-09T12:33:31Z</time>
      </trkpt>
      <trkpt lat="44.82225" lon="4.2365">
        <ele>1386.3</ele>
        <time>2022-06-09T12:33:32Z</time>
      </trkpt>
      <trkpt lat="44.82225" lon="4.23645">
        <ele>1386.5</ele>
        <time>2022-06-09T12:33:33Z</time>
      </trkpt>
      <trkpt lat="44.82226" lon="4.23643">
        <ele>1386.7</ele>
        <time>2022-06-09T12:33:34Z</time>
      </trkpt>
      <trkpt lat="44.82226" lon="4.23641">
        <ele>1386.8</ele>
        <time>2022-06-09T12:33:36Z</time>
      </trkpt>
      <trkpt lat="44.82227" lon="4.23639">
        <ele>1386.9</ele>
        <time>2022-06-09T12:33:37Z</time>
      </trkpt>
      <trkpt lat="44.82227" lon="4.23637">
        <ele>1387</ele>
        <time>2022-06-09T12:33:38Z</time>
      </trkpt>
      <trkpt lat="44.82227" lon="4.23633">
        <ele>1387.2</ele>
        <time>2022-06-09T12:33:39Z</time>
      </trkpt>
      <trkpt lat="44.82228" lon="4.23629">
        <ele>1387.4</ele>
        <time>2022-06-09T12:33:41Z</time>
      </trkpt>
      <trkpt lat="44.82228" lon="4.23627">
        <ele>1387.5</ele>
        <time>2022-06-09T12:33:42Z</time>
      </trkpt>
      <trkpt lat="44.82229" lon="4.23625">
        <ele>1387.6</ele>
        <time>2022-06-09T12:33:43Z</time>
      </trkpt>
      <trkpt lat="44.82229" lon="4.23623">
        <ele>1387.7</ele>
        <time>2022-06-09T12:33:44Z</time>
      </trkpt>
      <trkpt lat="44.8223" lon="4.23621">
        <ele>1387.9</ele>
        <time>2022-06-09T12:33:45Z</time>
      </trkpt>
      <trkpt lat="44.82231" lon="4.23619">
        <ele>1388</ele>
        <time>2022-06-09T12:33:46Z</time>
      </trkpt>
      <trkpt lat="44.82232" lon="4.23617">
        <ele>1388.1</ele>
        <time>2022-06-09T12:33:48Z</time>
      </trkpt>
      <trkpt lat="44.82232" lon="4.23615">
        <ele>1388.2</ele>
        <time>2022-06-09T12:33:49Z</time>
      </trkpt>
      <trkpt lat="44.82233" lon="4.23613">
        <ele>1388.3</ele>
        <time>2022-06-09T12:33:50Z</time>
      </trkpt>
      <trkpt lat="44.82233" lon="4.23611">
        <ele>1388.5</ele>
        <time>2022-06-09T12:33:51Z</time>
      </trkpt>
      <trkpt lat="44.82233" lon="4.23609">
        <ele>1388.6</ele>
        <time>2022-06-09T12:33:52Z</time>
      </trkpt>
      <trkpt lat="44.82235" lon="4.23605">
        <ele>1388.8</ele>
        <time>2022-06-09T12:33:53Z</time>
      </trkpt>
      <trkpt lat="44.82235" lon="4.23604">
        <ele>1388.9</ele>
        <time>2022-06-09T12:33:54Z</time>
      </trkpt>
      <trkpt lat="44.82237" lon="4.23599">
        <ele>1389.1</ele>
        <time>2022-06-09T12:33:56Z</time>
      </trkpt>
      <trkpt lat="44.82237" lon="4.23598">
        <ele>1389.2</ele>
        <time>2022-06-09T12:33:57Z</time>
      </trkpt>
      <trkpt lat="44.82239" lon="4.23595">
        <ele>1389.4</ele>
        <time>2022-06-09T12:33:58Z</time>
      </trkpt>
      <trkpt lat="44.82239" lon="4.23593">
        <ele>1389.5</ele>
        <time>2022-06-09T12:34:00Z</time>
      </trkpt>
      <trkpt lat="44.8224" lon="4.23591">
        <ele>1389.6</ele>
        <time>2022-06-09T12:34:01Z</time>
      </trkpt>
      <trkpt lat="44.82241" lon="4.23589">
        <ele>1389.7</ele>
        <time>2022-06-09T12:34:02Z</time>
      </trkpt>
      <trkpt lat="44.82241" lon="4.23587">
        <ele>1389.8</ele>
        <time>2022-06-09T12:34:04Z</time>
      </trkpt>
      <trkpt lat="44.82241" lon="4.23585">
        <ele>1389.9</ele>
        <time>2022-06-09T12:34:05Z</time>
      </trkpt>
      <trkpt lat="44.82242" lon="4.23583">
        <ele>1390.1</ele>
        <time>2022-06-09T12:34:06Z</time>
      </trkpt>
      <trkpt lat="44.82242" lon="4.23581">
        <ele>1390.2</ele>
        <time>2022-06-09T12:34:07Z</time>
      </trkpt>
      <trkpt lat="44.82243" lon="4.23577">
        <ele>1390.4</ele>
        <time>2022-06-09T12:34:08Z</time>
      </trkpt>
      <trkpt lat="44.82244" lon="4.23576">
        <ele>1390.5</ele>
        <time>2022-06-09T12:34:09Z</time>
      </trkpt>
      <trkpt lat="44.82245" lon="4.23572">
        <ele>1390.7</ele>
        <time>2022-06-09T12:34:10Z</time>
      </trkpt>
      <trkpt lat="44.82245" lon="4.2357">
        <ele>1390.8</ele>
        <time>2022-06-09T12:34:12Z</time>
      </trkpt>
      <trkpt lat="44.82246" lon="4.23568">
        <ele>1390.9</ele>
        <time>2022-06-09T12:34:13Z</time>
      </trkpt>
      <trkpt lat="44.82246" lon="4.23566">
        <ele>1391</ele>
        <time>2022-06-09T12:34:14Z</time>
      </trkpt>
      <trkpt lat="44.82247" lon="4.23564">
        <ele>1391.2</ele>
        <time>2022-06-09T12:34:15Z</time>
      </trkpt>
      <trkpt lat="44.82248" lon="4.23561">
        <ele>1391.3</ele>
        <time>2022-06-09T12:34:17Z</time>
      </trkpt>
      <trkpt lat="44.82249" lon="4.23557">
        <ele>1391.6</ele>
        <time>2022-06-09T12:34:18Z</time>
      </trkpt>
      <trkpt lat="44.82248" lon="4.23554">
        <ele>1391.7</ele>
        <time>2022-06-09T12:34:19Z</time>
      </trkpt>
      <trkpt lat="44.8225" lon="4.23549">
        <ele>1392</ele>
        <time>2022-06-09T12:34:21Z</time>
      </trkpt>
      <trkpt lat="44.82251" lon="4.23547">
        <ele>1392.2</ele>
        <time>2022-06-09T12:34:23Z</time>
      </trkpt>
      <trkpt lat="44.82251" lon="4.23545">
        <ele>1392.3</ele>
        <time>2022-06-09T12:34:24Z</time>
      </trkpt>
      <trkpt lat="44.82252" lon="4.23543">
        <ele>1392.4</ele>
        <time>2022-06-09T12:34:25Z</time>
      </trkpt>
      <trkpt lat="44.82253" lon="4.2354">
        <ele>1392.6</ele>
        <time>2022-06-09T12:34:26Z</time>
      </trkpt>
      <trkpt lat="44.82254" lon="4.23538">
        <ele>1392.7</ele>
        <time>2022-06-09T12:34:27Z</time>
      </trkpt>
      <trkpt lat="44.82254" lon="4.23536">
        <ele>1392.8</ele>
        <time>2022-06-09T12:34:28Z</time>
      </trkpt>
      <trkpt lat="44.82254" lon="4.23533">
        <ele>1393</ele>
        <time>2022-06-09T12:34:29Z</time>
      </trkpt>
      <trkpt lat="44.82255" lon="4.23531">
        <ele>1393.1</ele>
        <time>2022-06-09T12:34:31Z</time>
      </trkpt>
      <trkpt lat="44.82256" lon="4.23529">
        <ele>1393.3</ele>
        <time>2022-06-09T12:34:32Z</time>
      </trkpt>
      <trkpt lat="44.82258" lon="4.23525">
        <ele>1393.5</ele>
        <time>2022-06-09T12:34:33Z</time>
      </trkpt>
      <trkpt lat="44.82258" lon="4.23523">
        <ele>1393.6</ele>
        <time>2022-06-09T12:34:34Z</time>
      </trkpt>
      <trkpt lat="44.8226" lon="4.23519">
        <ele>1393.9</ele>
        <time>2022-06-09T12:34:36Z</time>
      </trkpt>
      <trkpt lat="44.82261" lon="4.23518">
        <ele>1394</ele>
        <time>2022-06-09T12:34:37Z</time>
      </trkpt>
      <trkpt lat="44.82262" lon="4.23515">
        <ele>1394.2</ele>
        <time>2022-06-09T12:34:38Z</time>
      </trkpt>
      <trkpt lat="44.82262" lon="4.23513">
        <ele>1394.3</ele>
        <time>2022-06-09T12:34:40Z</time>
      </trkpt>
      <trkpt lat="44.82264" lon="4.23509">
        <ele>1394.6</ele>
        <time>2022-06-09T12:34:41Z</time>
      </trkpt>
      <trkpt lat="44.82265" lon="4.23508">
        <ele>1394.7</ele>
        <time>2022-06-09T12:34:42Z</time>
      </trkpt>
      <trkpt lat="44.82266" lon="4.23506">
        <ele>1394.8</ele>
        <time>2022-06-09T12:34:43Z</time>
      </trkpt>
      <trkpt lat="44.82267" lon="4.23504">
        <ele>1394.9</ele>
        <time>2022-06-09T12:34:44Z</time>
      </trkpt>
      <trkpt lat="44.82267" lon="4.23502">
        <ele>1395.1</ele>
        <time>2022-06-09T12:34:45Z</time>
      </trkpt>
      <trkpt lat="44.82268" lon="4.235">
        <ele>1395.2</ele>
        <time>2022-06-09T12:34:47Z</time>
      </trkpt>
      <trkpt lat="44.82269" lon="4.23498">
        <ele>1395.3</ele>
        <time>2022-06-09T12:34:48Z</time>
      </trkpt>
      <trkpt lat="44.82269" lon="4.23496">
        <ele>1395.5</ele>
        <time>2022-06-09T12:34:49Z</time>
      </trkpt>
      <trkpt lat="44.8227" lon="4.23492">
        <ele>1395.7</ele>
        <time>2022-06-09T12:34:50Z</time>
      </trkpt>
      <trkpt lat="44.82271" lon="4.2349">
        <ele>1395.8</ele>
        <time>2022-06-09T12:34:52Z</time>
      </trkpt>
      <trkpt lat="44.82273" lon="4.23486">
        <ele>1396.1</ele>
        <time>2022-06-09T12:34:53Z</time>
      </trkpt>
      <trkpt lat="44.82274" lon="4.23485">
        <ele>1396.2</ele>
        <time>2022-06-09T12:34:54Z</time>
      </trkpt>
      <trkpt lat="44.82275" lon="4.23484">
        <ele>1396.3</ele>
        <time>2022-06-09T12:34:56Z</time>
      </trkpt>
      <trkpt lat="44.82275" lon="4.23482">
        <ele>1396.4</ele>
        <time>2022-06-09T12:34:57Z</time>
      </trkpt>
      <trkpt lat="44.82276" lon="4.2348">
        <ele>1396.6</ele>
        <time>2022-06-09T12:34:58Z</time>
      </trkpt>
      <trkpt lat="44.82277" lon="4.23479">
        <ele>1396.7</ele>
        <time>2022-06-09T12:34:59Z</time>
      </trkpt>
      <trkpt lat="44.8228" lon="4.23473">
        <ele>1397.1</ele>
        <time>2022-06-09T12:35:01Z</time>
      </trkpt>
      <trkpt lat="44.82281" lon="4.23472">
        <ele>1397.2</ele>
        <time>2022-06-09T12:35:03Z</time>
      </trkpt>
      <trkpt lat="44.82282" lon="4.23471">
        <ele>1397.3</ele>
        <time>2022-06-09T12:35:04Z</time>
      </trkpt>
      <trkpt lat="44.82282" lon="4.23468">
        <ele>1397.5</ele>
        <time>2022-06-09T12:35:06Z</time>
      </trkpt>
      <trkpt lat="44.82283" lon="4.23467">
        <ele>1397.6</ele>
        <time>2022-06-09T12:35:07Z</time>
      </trkpt>
      <trkpt lat="44.82284" lon="4.23465">
        <ele>1397.7</ele>
        <time>2022-06-09T12:35:08Z</time>
      </trkpt>
      <trkpt lat="44.82285" lon="4.23463">
        <ele>1397.9</ele>
        <time>2022-06-09T12:35:09Z</time>
      </trkpt>
      <trkpt lat="44.82286" lon="4.23461">
        <ele>1398</ele>
        <time>2022-06-09T12:35:10Z</time>
      </trkpt>
      <trkpt lat="44.82286" lon="4.23459">
        <ele>1398.1</ele>
        <time>2022-06-09T12:35:11Z</time>
      </trkpt>
      <trkpt lat="44.82287" lon="4.23457">
        <ele>1398.3</ele>
        <time>2022-06-09T12:35:12Z</time>
      </trkpt>
      <trkpt lat="44.82287" lon="4.23455">
        <ele>1398.4</ele>
        <time>2022-06-09T12:35:13Z</time>
      </trkpt>
      <trkpt lat="44.82289" lon="4.23452">
        <ele>1398.6</ele>
        <time>2022-06-09T12:35:14Z</time>
      </trkpt>
      <trkpt lat="44.8229" lon="4.23451">
        <ele>1398.7</ele>
        <time>2022-06-09T12:35:16Z</time>
      </trkpt>
      <trkpt lat="44.82291" lon="4.23449">
        <ele>1398.8</ele>
        <time>2022-06-09T12:35:17Z</time>
      </trkpt>
      <trkpt lat="44.82292" lon="4.23447">
        <ele>1399</ele>
        <time>2022-06-09T12:35:18Z</time>
      </trkpt>
      <trkpt lat="44.82293" lon="4.23445">
        <ele>1399.1</ele>
        <time>2022-06-09T12:35:19Z</time>
      </trkpt>
      <trkpt lat="44.82293" lon="4.23443">
        <ele>1399.3</ele>
        <time>2022-06-09T12:35:20Z</time>
      </trkpt>
      <trkpt lat="44.82294" lon="4.23439">
        <ele>1399.5</ele>
        <time>2022-06-09T12:35:21Z</time>
      </trkpt>
      <trkpt lat="44.82295" lon="4.23436">
        <ele>1399.7</ele>
        <time>2022-06-09T12:35:23Z</time>
      </trkpt>
      <trkpt lat="44.82296" lon="4.23434">
        <ele>1399.8</ele>
        <time>2022-06-09T12:35:24Z</time>
      </trkpt>
      <trkpt lat="44.82297" lon="4.23432">
        <ele>1400</ele>
        <time>2022-06-09T12:35:25Z</time>
      </trkpt>
      <trkpt lat="44.82298" lon="4.23431">
        <ele>1400.1</ele>
        <time>2022-06-09T12:35:27Z</time>
      </trkpt>
      <trkpt lat="44.823" lon="4.23427">
        <ele>1400.4</ele>
        <time>2022-06-09T12:35:28Z</time>
      </trkpt>
      <trkpt lat="44.823" lon="4.23424">
        <ele>1400.5</ele>
        <time>2022-06-09T12:35:30Z</time>
      </trkpt>
      <trkpt lat="44.82301" lon="4.23422">
        <ele>1400.6</ele>
        <time>2022-06-09T12:35:31Z</time>
      </trkpt>
      <trkpt lat="44.82302" lon="4.2342">
        <ele>1400.8</ele>
        <time>2022-06-09T12:35:32Z</time>
      </trkpt>
      <trkpt lat="44.82302" lon="4.23417">
        <ele>1400.9</ele>
        <time>2022-06-09T12:35:33Z</time>
      </trkpt>
      <trkpt lat="44.82302" lon="4.23415">
        <ele>1401.1</ele>
        <time>2022-06-09T12:35:35Z</time>
      </trkpt>
      <trkpt lat="44.82302" lon="4.23413">
        <ele>1401.2</ele>
        <time>2022-06-09T12:35:36Z</time>
      </trkpt>
      <trkpt lat="44.82303" lon="4.23411">
        <ele>1401.3</ele>
        <time>2022-06-09T12:35:37Z</time>
      </trkpt>
      <trkpt lat="44.82304" lon="4.23408">
        <ele>1401.5</ele>
        <time>2022-06-09T12:35:39Z</time>
      </trkpt>
      <trkpt lat="44.82304" lon="4.23406">
        <ele>1401.6</ele>
        <time>2022-06-09T12:35:40Z</time>
      </trkpt>
      <trkpt lat="44.82305" lon="4.23402">
        <ele>1401.9</ele>
        <time>2022-06-09T12:35:41Z</time>
      </trkpt>
      <trkpt lat="44.82305" lon="4.23401">
        <ele>1401.9</ele>
        <time>2022-06-09T12:35:42Z</time>
      </trkpt>
      <trkpt lat="44.82305" lon="4.23398">
        <ele>1402.1</ele>
        <time>2022-06-09T12:35:43Z</time>
      </trkpt>
      <trkpt lat="44.82305" lon="4.23396">
        <ele>1402.2</ele>
        <time>2022-06-09T12:35:45Z</time>
      </trkpt>
      <trkpt lat="44.82306" lon="4.23392">
        <ele>1402.4</ele>
        <time>2022-06-09T12:35:46Z</time>
      </trkpt>
      <trkpt lat="44.82307" lon="4.23389">
        <ele>1402.6</ele>
        <time>2022-06-09T12:35:47Z</time>
      </trkpt>
      <trkpt lat="44.82307" lon="4.23387">
        <ele>1402.7</ele>
        <time>2022-06-09T12:35:49Z</time>
      </trkpt>
      <trkpt lat="44.82307" lon="4.23385">
        <ele>1402.8</ele>
        <time>2022-06-09T12:35:50Z</time>
      </trkpt>
      <trkpt lat="44.82308" lon="4.23383">
        <ele>1402.9</ele>
        <time>2022-06-09T12:35:51Z</time>
      </trkpt>
      <trkpt lat="44.82309" lon="4.23376">
        <ele>1403.3</ele>
        <time>2022-06-09T12:35:53Z</time>
      </trkpt>
      <trkpt lat="44.82309" lon="4.23374">
        <ele>1403.5</ele>
        <time>2022-06-09T12:35:55Z</time>
      </trkpt>
      <trkpt lat="44.8231" lon="4.23371">
        <ele>1403.6</ele>
        <time>2022-06-09T12:35:56Z</time>
      </trkpt>
      <trkpt lat="44.8231" lon="4.23368">
        <ele>1403.8</ele>
        <time>2022-06-09T12:35:58Z</time>
      </trkpt>
      <trkpt lat="44.82311" lon="4.23366">
        <ele>1403.9</ele>
        <time>2022-06-09T12:35:59Z</time>
      </trkpt>
      <trkpt lat="44.82311" lon="4.23364">
        <ele>1404</ele>
        <time>2022-06-09T12:36:01Z</time>
      </trkpt>
      <trkpt lat="44.82311" lon="4.23361">
        <ele>1404.1</ele>
        <time>2022-06-09T12:36:02Z</time>
      </trkpt>
      <trkpt lat="44.8231" lon="4.23359">
        <ele>1404.3</ele>
        <time>2022-06-09T12:36:03Z</time>
      </trkpt>
      <trkpt lat="44.82311" lon="4.23357">
        <ele>1404.4</ele>
        <time>2022-06-09T12:36:04Z</time>
      </trkpt>
      <trkpt lat="44.82311" lon="4.23355">
        <ele>1404.5</ele>
        <time>2022-06-09T12:36:05Z</time>
      </trkpt>
      <trkpt lat="44.82311" lon="4.23351">
        <ele>1404.7</ele>
        <time>2022-06-09T12:36:06Z</time>
      </trkpt>
      <trkpt lat="44.82313" lon="4.23345">
        <ele>1405</ele>
        <time>2022-06-09T12:36:08Z</time>
      </trkpt>
      <trkpt lat="44.82313" lon="4.23343">
        <ele>1405.1</ele>
        <time>2022-06-09T12:36:10Z</time>
      </trkpt>
      <trkpt lat="44.82313" lon="4.23341">
        <ele>1405.3</ele>
        <time>2022-06-09T12:36:11Z</time>
      </trkpt>
      <trkpt lat="44.82314" lon="4.23339">
        <ele>1405.4</ele>
        <time>2022-06-09T12:36:12Z</time>
      </trkpt>
      <trkpt lat="44.82314" lon="4.23336">
        <ele>1405.5</ele>
        <time>2022-06-09T12:36:13Z</time>
      </trkpt>
      <trkpt lat="44.82314" lon="4.23333">
        <ele>1405.7</ele>
        <time>2022-06-09T12:36:15Z</time>
      </trkpt>
      <trkpt lat="44.82314" lon="4.2333">
        <ele>1405.8</ele>
        <time>2022-06-09T12:36:16Z</time>
      </trkpt>
      <trkpt lat="44.82315" lon="4.23328">
        <ele>1405.9</ele>
        <time>2022-06-09T12:36:17Z</time>
      </trkpt>
      <trkpt lat="44.82316" lon="4.23326">
        <ele>1406.1</ele>
        <time>2022-06-09T12:36:18Z</time>
      </trkpt>
      <trkpt lat="44.82316" lon="4.23324">
        <ele>1406.2</ele>
        <time>2022-06-09T12:36:19Z</time>
      </trkpt>
      <trkpt lat="44.82317" lon="4.2332">
        <ele>1406.4</ele>
        <time>2022-06-09T12:36:20Z</time>
      </trkpt>
      <trkpt lat="44.82317" lon="4.23318">
        <ele>1406.5</ele>
        <time>2022-06-09T12:36:21Z</time>
      </trkpt>
      <trkpt lat="44.82317" lon="4.23316">
        <ele>1406.6</ele>
        <time>2022-06-09T12:36:22Z</time>
      </trkpt>
      <trkpt lat="44.82317" lon="4.23313">
        <ele>1406.7</ele>
        <time>2022-06-09T12:36:23Z</time>
      </trkpt>
      <trkpt lat="44.82318" lon="4.23311">
        <ele>1406.8</ele>
        <time>2022-06-09T12:36:24Z</time>
      </trkpt>
      <trkpt lat="44.82318" lon="4.23309">
        <ele>1406.9</ele>
        <time>2022-06-09T12:36:26Z</time>
      </trkpt>
      <trkpt lat="44.82318" lon="4.23307">
        <ele>1407</ele>
        <time>2022-06-09T12:36:27Z</time>
      </trkpt>
      <trkpt lat="44.82318" lon="4.23304">
        <ele>1407.1</ele>
        <time>2022-06-09T12:36:28Z</time>
      </trkpt>
      <trkpt lat="44.82319" lon="4.23302">
        <ele>1407.3</ele>
        <time>2022-06-09T12:36:29Z</time>
      </trkpt>
      <trkpt lat="44.82319" lon="4.233">
        <ele>1407.4</ele>
        <time>2022-06-09T12:36:30Z</time>
      </trkpt>
      <trkpt lat="44.8232" lon="4.23297">
        <ele>1407.5</ele>
        <time>2022-06-09T12:36:31Z</time>
      </trkpt>
      <trkpt lat="44.8232" lon="4.23295">
        <ele>1407.6</ele>
        <time>2022-06-09T12:36:32Z</time>
      </trkpt>
      <trkpt lat="44.82321" lon="4.23291">
        <ele>1407.8</ele>
        <time>2022-06-09T12:36:33Z</time>
      </trkpt>
      <trkpt lat="44.82321" lon="4.2329">
        <ele>1407.9</ele>
        <time>2022-06-09T12:36:34Z</time>
      </trkpt>
      <trkpt lat="44.82322" lon="4.23288">
        <ele>1408</ele>
        <time>2022-06-09T12:36:36Z</time>
      </trkpt>
      <trkpt lat="44.82322" lon="4.23285">
        <ele>1408.1</ele>
        <time>2022-06-09T12:36:37Z</time>
      </trkpt>
      <trkpt lat="44.82322" lon="4.2328">
        <ele>1408.3</ele>
        <time>2022-06-09T12:36:38Z</time>
      </trkpt>
      <trkpt lat="44.82323" lon="4.23278">
        <ele>1408.4</ele>
        <time>2022-06-09T12:36:40Z</time>
      </trkpt>
      <trkpt lat="44.82324" lon="4.23276">
        <ele>1408.5</ele>
        <time>2022-06-09T12:36:41Z</time>
      </trkpt>
      <trkpt lat="44.82325" lon="4.23274">
        <ele>1408.6</ele>
        <time>2022-06-09T12:36:42Z</time>
      </trkpt>
      <trkpt lat="44.82326" lon="4.2327">
        <ele>1408.8</ele>
        <time>2022-06-09T12:36:44Z</time>
      </trkpt>
      <trkpt lat="44.82327" lon="4.23268">
        <ele>1408.9</ele>
        <time>2022-06-09T12:36:45Z</time>
      </trkpt>
      <trkpt lat="44.82327" lon="4.23266">
        <ele>1409</ele>
        <time>2022-06-09T12:36:46Z</time>
      </trkpt>
      <trkpt lat="44.82327" lon="4.23263">
        <ele>1409.2</ele>
        <time>2022-06-09T12:36:48Z</time>
      </trkpt>
      <trkpt lat="44.82328" lon="4.23258">
        <ele>1409.4</ele>
        <time>2022-06-09T12:36:50Z</time>
      </trkpt>
      <trkpt lat="44.82328" lon="4.23254">
        <ele>1409.6</ele>
        <time>2022-06-09T12:36:52Z</time>
      </trkpt>
      <trkpt lat="44.82328" lon="4.23252">
        <ele>1409.7</ele>
        <time>2022-06-09T12:36:53Z</time>
      </trkpt>
      <trkpt lat="44.82328" lon="4.23249">
        <ele>1409.8</ele>
        <time>2022-06-09T12:36:54Z</time>
      </trkpt>
      <trkpt lat="44.82328" lon="4.23247">
        <ele>1409.9</ele>
        <time>2022-06-09T12:36:55Z</time>
      </trkpt>
      <trkpt lat="44.82329" lon="4.23243">
        <ele>1410.1</ele>
        <time>2022-06-09T12:36:56Z</time>
      </trkpt>
      <trkpt lat="44.82329" lon="4.23242">
        <ele>1410.1</ele>
        <time>2022-06-09T12:36:57Z</time>
      </trkpt>
      <trkpt lat="44.82329" lon="4.23236">
        <ele>1410.4</ele>
        <time>2022-06-09T12:36:59Z</time>
      </trkpt>
      <trkpt lat="44.82329" lon="4.23235">
        <ele>1410.4</ele>
        <time>2022-06-09T12:37:00Z</time>
      </trkpt>
      <trkpt lat="44.8233" lon="4.2323">
        <ele>1410.6</ele>
        <time>2022-06-09T12:37:02Z</time>
      </trkpt>
      <trkpt lat="44.8233" lon="4.23229">
        <ele>1410.7</ele>
        <time>2022-06-09T12:37:03Z</time>
      </trkpt>
      <trkpt lat="44.82331" lon="4.23225">
        <ele>1410.8</ele>
        <time>2022-06-09T12:37:04Z</time>
      </trkpt>
      <trkpt lat="44.82331" lon="4.23224">
        <ele>1410.9</ele>
        <time>2022-06-09T12:37:05Z</time>
      </trkpt>
      <trkpt lat="44.82332" lon="4.2322">
        <ele>1411.1</ele>
        <time>2022-06-09T12:37:06Z</time>
      </trkpt>
      <trkpt lat="44.82333" lon="4.23218">
        <ele>1411.2</ele>
        <time>2022-06-09T12:37:07Z</time>
      </trkpt>
      <trkpt lat="44.82333" lon="4.23215">
        <ele>1411.3</ele>
        <time>2022-06-09T12:37:08Z</time>
      </trkpt>
      <trkpt lat="44.82334" lon="4.23214">
        <ele>1411.4</ele>
        <time>2022-06-09T12:37:10Z</time>
      </trkpt>
      <trkpt lat="44.82336" lon="4.2321">
        <ele>1411.6</ele>
        <time>2022-06-09T12:37:11Z</time>
      </trkpt>
      <trkpt lat="44.82336" lon="4.23208">
        <ele>1411.6</ele>
        <time>2022-06-09T12:37:12Z</time>
      </trkpt>
      <trkpt lat="44.82337" lon="4.23205">
        <ele>1411.8</ele>
        <time>2022-06-09T12:37:13Z</time>
      </trkpt>
      <trkpt lat="44.82338" lon="4.23202">
        <ele>1411.9</ele>
        <time>2022-06-09T12:37:15Z</time>
      </trkpt>
      <trkpt lat="44.82339" lon="4.23197">
        <ele>1412.1</ele>
        <time>2022-06-09T12:37:16Z</time>
      </trkpt>
      <trkpt lat="44.82339" lon="4.23196">
        <ele>1412.1</ele>
        <time>2022-06-09T12:37:17Z</time>
      </trkpt>
      <trkpt lat="44.8234" lon="4.2319">
        <ele>1412.3</ele>
        <time>2022-06-09T12:37:19Z</time>
      </trkpt>
      <trkpt lat="44.8234" lon="4.23188">
        <ele>1412.4</ele>
        <time>2022-06-09T12:37:20Z</time>
      </trkpt>
      <trkpt lat="44.82341" lon="4.23184">
        <ele>1412.6</ele>
        <time>2022-06-09T12:37:22Z</time>
      </trkpt>
      <trkpt lat="44.82341" lon="4.23182">
        <ele>1412.7</ele>
        <time>2022-06-09T12:37:23Z</time>
      </trkpt>
      <trkpt lat="44.82342" lon="4.2318">
        <ele>1412.8</ele>
        <time>2022-06-09T12:37:24Z</time>
      </trkpt>
      <trkpt lat="44.82342" lon="4.23178">
        <ele>1412.9</ele>
        <time>2022-06-09T12:37:25Z</time>
      </trkpt>
      <trkpt lat="44.82343" lon="4.23174">
        <ele>1413</ele>
        <time>2022-06-09T12:37:27Z</time>
      </trkpt>
      <trkpt lat="44.82343" lon="4.2317">
        <ele>1413.2</ele>
        <time>2022-06-09T12:37:29Z</time>
      </trkpt>
      <trkpt lat="44.82343" lon="4.23168">
        <ele>1413.2</ele>
        <time>2022-06-09T12:37:30Z</time>
      </trkpt>
      <trkpt lat="44.82344" lon="4.23166">
        <ele>1413.3</ele>
        <time>2022-06-09T12:37:31Z</time>
      </trkpt>
      <trkpt lat="44.82345" lon="4.23163">
        <ele>1413.5</ele>
        <time>2022-06-09T12:37:33Z</time>
      </trkpt>
      <trkpt lat="44.82345" lon="4.23158">
        <ele>1413.6</ele>
        <time>2022-06-09T12:37:34Z</time>
      </trkpt>
      <trkpt lat="44.82345" lon="4.23156">
        <ele>1413.7</ele>
        <time>2022-06-09T12:37:36Z</time>
      </trkpt>
      <trkpt lat="44.82346" lon="4.23155">
        <ele>1413.8</ele>
        <time>2022-06-09T12:37:37Z</time>
      </trkpt>
      <trkpt lat="44.82346" lon="4.23153">
        <ele>1413.9</ele>
        <time>2022-06-09T12:37:38Z</time>
      </trkpt>
      <trkpt lat="44.82346" lon="4.23151">
        <ele>1414</ele>
        <time>2022-06-09T12:37:39Z</time>
      </trkpt>
      <trkpt lat="44.82347" lon="4.23147">
        <ele>1414.1</ele>
        <time>2022-06-09T12:37:40Z</time>
      </trkpt>
      <trkpt lat="44.82347" lon="4.23146">
        <ele>1414.2</ele>
        <time>2022-06-09T12:37:41Z</time>
      </trkpt>
      <trkpt lat="44.82347" lon="4.23144">
        <ele>1414.3</ele>
        <time>2022-06-09T12:37:42Z</time>
      </trkpt>
      <trkpt lat="44.82348" lon="4.23141">
        <ele>1414.4</ele>
        <time>2022-06-09T12:37:43Z</time>
      </trkpt>
      <trkpt lat="44.82348" lon="4.23139">
        <ele>1414.5</ele>
        <time>2022-06-09T12:37:44Z</time>
      </trkpt>
      <trkpt lat="44.82349" lon="4.23136">
        <ele>1414.6</ele>
        <time>2022-06-09T12:37:46Z</time>
      </trkpt>
      <trkpt lat="44.82349" lon="4.23134">
        <ele>1414.7</ele>
        <time>2022-06-09T12:37:47Z</time>
      </trkpt>
      <trkpt lat="44.8235" lon="4.23131">
        <ele>1414.8</ele>
        <time>2022-06-09T12:37:48Z</time>
      </trkpt>
      <trkpt lat="44.8235" lon="4.23129">
        <ele>1414.9</ele>
        <time>2022-06-09T12:37:49Z</time>
      </trkpt>
      <trkpt lat="44.8235" lon="4.23127">
        <ele>1415</ele>
        <time>2022-06-09T12:37:50Z</time>
      </trkpt>
      <trkpt lat="44.8235" lon="4.23125">
        <ele>1415.1</ele>
        <time>2022-06-09T12:37:51Z</time>
      </trkpt>
      <trkpt lat="44.82351" lon="4.23123">
        <ele>1415.2</ele>
        <time>2022-06-09T12:37:52Z</time>
      </trkpt>
      <trkpt lat="44.82352" lon="4.2312">
        <ele>1415.4</ele>
        <time>2022-06-09T12:37:53Z</time>
      </trkpt>
      <trkpt lat="44.82353" lon="4.23114">
        <ele>1415.6</ele>
        <time>2022-06-09T12:37:55Z</time>
      </trkpt>
      <trkpt lat="44.82353" lon="4.2311">
        <ele>1415.9</ele>
        <time>2022-06-09T12:37:57Z</time>
      </trkpt>
      <trkpt lat="44.82354" lon="4.23109">
        <ele>1415.9</ele>
        <time>2022-06-09T12:37:58Z</time>
      </trkpt>
      <trkpt lat="44.82355" lon="4.23103">
        <ele>1416.1</ele>
        <time>2022-06-09T12:38:00Z</time>
      </trkpt>
      <trkpt lat="44.82354" lon="4.23102">
        <ele>1416.2</ele>
        <time>2022-06-09T12:38:01Z</time>
      </trkpt>
      <trkpt lat="44.82355" lon="4.23099">
        <ele>1416.4</ele>
        <time>2022-06-09T12:38:02Z</time>
      </trkpt>
      <trkpt lat="44.82356" lon="4.23096">
        <ele>1416.5</ele>
        <time>2022-06-09T12:38:04Z</time>
      </trkpt>
      <trkpt lat="44.82357" lon="4.23093">
        <ele>1416.6</ele>
        <time>2022-06-09T12:38:05Z</time>
      </trkpt>
      <trkpt lat="44.82357" lon="4.23091">
        <ele>1416.7</ele>
        <time>2022-06-09T12:38:06Z</time>
      </trkpt>
      <trkpt lat="44.82357" lon="4.2309">
        <ele>1416.8</ele>
        <time>2022-06-09T12:38:07Z</time>
      </trkpt>
      <trkpt lat="44.82358" lon="4.23086">
        <ele>1417</ele>
        <time>2022-06-09T12:38:08Z</time>
      </trkpt>
      <trkpt lat="44.82358" lon="4.23084">
        <ele>1417</ele>
        <time>2022-06-09T12:38:09Z</time>
      </trkpt>
      <trkpt lat="44.82358" lon="4.23082">
        <ele>1417.1</ele>
        <time>2022-06-09T12:38:10Z</time>
      </trkpt>
      <trkpt lat="44.82359" lon="4.23079">
        <ele>1417.2</ele>
        <time>2022-06-09T12:38:12Z</time>
      </trkpt>
      <trkpt lat="44.82359" lon="4.23077">
        <ele>1417.3</ele>
        <time>2022-06-09T12:38:13Z</time>
      </trkpt>
      <trkpt lat="44.82359" lon="4.23075">
        <ele>1417.5</ele>
        <time>2022-06-09T12:38:14Z</time>
      </trkpt>
      <trkpt lat="44.82359" lon="4.23073">
        <ele>1417.5</ele>
        <time>2022-06-09T12:38:15Z</time>
      </trkpt>
      <trkpt lat="44.8236" lon="4.23071">
        <ele>1417.6</ele>
        <time>2022-06-09T12:38:16Z</time>
      </trkpt>
      <trkpt lat="44.82361" lon="4.23069">
        <ele>1417.7</ele>
        <time>2022-06-09T12:38:17Z</time>
      </trkpt>
      <trkpt lat="44.82361" lon="4.23068">
        <ele>1417.8</ele>
        <time>2022-06-09T12:38:18Z</time>
      </trkpt>
      <trkpt lat="44.82362" lon="4.23065">
        <ele>1417.9</ele>
        <time>2022-06-09T12:38:19Z</time>
      </trkpt>
      <trkpt lat="44.82362" lon="4.23063">
        <ele>1418</ele>
        <time>2022-06-09T12:38:20Z</time>
      </trkpt>
      <trkpt lat="44.82362" lon="4.23061">
        <ele>1418.1</ele>
        <time>2022-06-09T12:38:21Z</time>
      </trkpt>
      <trkpt lat="44.82363" lon="4.23059">
        <ele>1418.2</ele>
        <time>2022-06-09T12:38:22Z</time>
      </trkpt>
      <trkpt lat="44.82364" lon="4.23055">
        <ele>1418.4</ele>
        <time>2022-06-09T12:38:23Z</time>
      </trkpt>
      <trkpt lat="44.82364" lon="4.23054">
        <ele>1418.4</ele>
        <time>2022-06-09T12:38:24Z</time>
      </trkpt>
      <trkpt lat="44.82366" lon="4.2305">
        <ele>1418.6</ele>
        <time>2022-06-09T12:38:26Z</time>
      </trkpt>
      <trkpt lat="44.82366" lon="4.23048">
        <ele>1418.7</ele>
        <time>2022-06-09T12:38:27Z</time>
      </trkpt>
      <trkpt lat="44.82367" lon="4.23046">
        <ele>1418.8</ele>
        <time>2022-06-09T12:38:28Z</time>
      </trkpt>
      <trkpt lat="44.82368" lon="4.23043">
        <ele>1418.9</ele>
        <time>2022-06-09T12:38:30Z</time>
      </trkpt>
      <trkpt lat="44.82369" lon="4.23041">
        <ele>1419</ele>
        <time>2022-06-09T12:38:31Z</time>
      </trkpt>
      <trkpt lat="44.82369" lon="4.23039">
        <ele>1419.1</ele>
        <time>2022-06-09T12:38:32Z</time>
      </trkpt>
      <trkpt lat="44.8237" lon="4.23037">
        <ele>1419.2</ele>
        <time>2022-06-09T12:38:33Z</time>
      </trkpt>
      <trkpt lat="44.82371" lon="4.23035">
        <ele>1419.3</ele>
        <time>2022-06-09T12:38:34Z</time>
      </trkpt>
      <trkpt lat="44.82372" lon="4.23032">
        <ele>1419.5</ele>
        <time>2022-06-09T12:38:35Z</time>
      </trkpt>
      <trkpt lat="44.82373" lon="4.23031">
        <ele>1419.6</ele>
        <time>2022-06-09T12:38:36Z</time>
      </trkpt>
      <trkpt lat="44.82374" lon="4.23028">
        <ele>1419.7</ele>
        <time>2022-06-09T12:38:38Z</time>
      </trkpt>
      <trkpt lat="44.82375" lon="4.23026">
        <ele>1419.8</ele>
        <time>2022-06-09T12:38:39Z</time>
      </trkpt>
      <trkpt lat="44.82375" lon="4.23025">
        <ele>1419.9</ele>
        <time>2022-06-09T12:38:40Z</time>
      </trkpt>
      <trkpt lat="44.82376" lon="4.23024">
        <ele>1420</ele>
        <time>2022-06-09T12:38:41Z</time>
      </trkpt>
      <trkpt lat="44.82377" lon="4.23022">
        <ele>1420.1</ele>
        <time>2022-06-09T12:38:42Z</time>
      </trkpt>
      <trkpt lat="44.82378" lon="4.23019">
        <ele>1420.2</ele>
        <time>2022-06-09T12:38:43Z</time>
      </trkpt>
      <trkpt lat="44.82379" lon="4.23018">
        <ele>1420.3</ele>
        <time>2022-06-09T12:38:45Z</time>
      </trkpt>
      <trkpt lat="44.8238" lon="4.23015">
        <ele>1420.5</ele>
        <time>2022-06-09T12:38:46Z</time>
      </trkpt>
      <trkpt lat="44.82382" lon="4.23013">
        <ele>1420.6</ele>
        <time>2022-06-09T12:38:48Z</time>
      </trkpt>
      <trkpt lat="44.82383" lon="4.23012">
        <ele>1420.7</ele>
        <time>2022-06-09T12:38:49Z</time>
      </trkpt>
      <trkpt lat="44.82384" lon="4.2301">
        <ele>1420.8</ele>
        <time>2022-06-09T12:38:50Z</time>
      </trkpt>
      <trkpt lat="44.82385" lon="4.23006">
        <ele>1421</ele>
        <time>2022-06-09T12:38:52Z</time>
      </trkpt>
      <trkpt lat="44.82386" lon="4.23005">
        <ele>1421.1</ele>
        <time>2022-06-09T12:38:53Z</time>
      </trkpt>
      <trkpt lat="44.82386" lon="4.23003">
        <ele>1421.2</ele>
        <time>2022-06-09T12:38:54Z</time>
      </trkpt>
      <trkpt lat="44.82387" lon="4.23001">
        <ele>1421.3</ele>
        <time>2022-06-09T12:38:55Z</time>
      </trkpt>
      <trkpt lat="44.82388" lon="4.23">
        <ele>1421.4</ele>
        <time>2022-06-09T12:38:56Z</time>
      </trkpt>
      <trkpt lat="44.82389" lon="4.22998">
        <ele>1421.5</ele>
        <time>2022-06-09T12:38:57Z</time>
      </trkpt>
      <trkpt lat="44.82392" lon="4.22995">
        <ele>1421.7</ele>
        <time>2022-06-09T12:38:58Z</time>
      </trkpt>
      <trkpt lat="44.82393" lon="4.22994">
        <ele>1421.8</ele>
        <time>2022-06-09T12:39:00Z</time>
      </trkpt>
      <trkpt lat="44.82394" lon="4.22992">
        <ele>1421.9</ele>
        <time>2022-06-09T12:39:01Z</time>
      </trkpt>
      <trkpt lat="44.82395" lon="4.22991">
        <ele>1422</ele>
        <time>2022-06-09T12:39:02Z</time>
      </trkpt>
      <trkpt lat="44.82396" lon="4.2299">
        <ele>1422.1</ele>
        <time>2022-06-09T12:39:03Z</time>
      </trkpt>
      <trkpt lat="44.82398" lon="4.22988">
        <ele>1422.2</ele>
        <time>2022-06-09T12:39:04Z</time>
      </trkpt>
      <trkpt lat="44.82399" lon="4.22987">
        <ele>1422.3</ele>
        <time>2022-06-09T12:39:05Z</time>
      </trkpt>
      <trkpt lat="44.824" lon="4.22985">
        <ele>1422.4</ele>
        <time>2022-06-09T12:39:06Z</time>
      </trkpt>
      <trkpt lat="44.82402" lon="4.22984">
        <ele>1422.5</ele>
        <time>2022-06-09T12:39:07Z</time>
      </trkpt>
      <trkpt lat="44.82404" lon="4.22981">
        <ele>1422.7</ele>
        <time>2022-06-09T12:39:08Z</time>
      </trkpt>
      <trkpt lat="44.82405" lon="4.2298">
        <ele>1422.8</ele>
        <time>2022-06-09T12:39:09Z</time>
      </trkpt>
      <trkpt lat="44.82406" lon="4.22979">
        <ele>1422.9</ele>
        <time>2022-06-09T12:39:10Z</time>
      </trkpt>
      <trkpt lat="44.82409" lon="4.22975">
        <ele>1423.1</ele>
        <time>2022-06-09T12:39:12Z</time>
      </trkpt>
      <trkpt lat="44.8241" lon="4.22974">
        <ele>1423.2</ele>
        <time>2022-06-09T12:39:13Z</time>
      </trkpt>
      <trkpt lat="44.82411" lon="4.22972">
        <ele>1423.3</ele>
        <time>2022-06-09T12:39:15Z</time>
      </trkpt>
      <trkpt lat="44.82413" lon="4.2297">
        <ele>1423.4</ele>
        <time>2022-06-09T12:39:16Z</time>
      </trkpt>
      <trkpt lat="44.82414" lon="4.22969">
        <ele>1423.5</ele>
        <time>2022-06-09T12:39:17Z</time>
      </trkpt>
      <trkpt lat="44.82415" lon="4.22968">
        <ele>1423.6</ele>
        <time>2022-06-09T12:39:18Z</time>
      </trkpt>
      <trkpt lat="44.82416" lon="4.22967">
        <ele>1423.6</ele>
        <time>2022-06-09T12:39:19Z</time>
      </trkpt>
      <trkpt lat="44.82418" lon="4.22967">
        <ele>1423.7</ele>
        <time>2022-06-09T12:39:20Z</time>
      </trkpt>
      <trkpt lat="44.82421" lon="4.22965">
        <ele>1423.9</ele>
        <time>2022-06-09T12:39:21Z</time>
      </trkpt>
      <trkpt lat="44.82422" lon="4.22964">
        <ele>1424</ele>
        <time>2022-06-09T12:39:23Z</time>
      </trkpt>
      <trkpt lat="44.82424" lon="4.22963">
        <ele>1424.1</ele>
        <time>2022-06-09T12:39:24Z</time>
      </trkpt>
      <trkpt lat="44.82427" lon="4.22962">
        <ele>1424.3</ele>
        <time>2022-06-09T12:39:25Z</time>
      </trkpt>
      <trkpt lat="44.82428" lon="4.22961">
        <ele>1424.4</ele>
        <time>2022-06-09T12:39:26Z</time>
      </trkpt>
      <trkpt lat="44.8243" lon="4.22959">
        <ele>1424.5</ele>
        <time>2022-06-09T12:39:28Z</time>
      </trkpt>
      <trkpt lat="44.82432" lon="4.22958">
        <ele>1424.6</ele>
        <time>2022-06-09T12:39:29Z</time>
      </trkpt>
      <trkpt lat="44.82433" lon="4.22957">
        <ele>1424.7</ele>
        <time>2022-06-09T12:39:30Z</time>
      </trkpt>
      <trkpt lat="44.82435" lon="4.22956">
        <ele>1424.8</ele>
        <time>2022-06-09T12:39:31Z</time>
      </trkpt>
      <trkpt lat="44.82437" lon="4.22955">
        <ele>1424.9</ele>
        <time>2022-06-09T12:39:32Z</time>
      </trkpt>
      <trkpt lat="44.8244" lon="4.22954">
        <ele>1425.1</ele>
        <time>2022-06-09T12:39:33Z</time>
      </trkpt>
      <trkpt lat="44.82442" lon="4.22953">
        <ele>1425.2</ele>
        <time>2022-06-09T12:39:35Z</time>
      </trkpt>
      <trkpt lat="44.82445" lon="4.22951">
        <ele>1425.3</ele>
        <time>2022-06-09T12:39:37Z</time>
      </trkpt>
      <trkpt lat="44.82448" lon="4.22951">
        <ele>1425.5</ele>
        <time>2022-06-09T12:39:38Z</time>
      </trkpt>
      <trkpt lat="44.82451" lon="4.22949">
        <ele>1425.7</ele>
        <time>2022-06-09T12:39:39Z</time>
      </trkpt>
      <trkpt lat="44.82452" lon="4.22948">
        <ele>1425.8</ele>
        <time>2022-06-09T12:39:41Z</time>
      </trkpt>
      <trkpt lat="44.82454" lon="4.22948">
        <ele>1425.8</ele>
        <time>2022-06-09T12:39:42Z</time>
      </trkpt>
      <trkpt lat="44.82455" lon="4.22947">
        <ele>1425.9</ele>
        <time>2022-06-09T12:39:43Z</time>
      </trkpt>
      <trkpt lat="44.82458" lon="4.22946">
        <ele>1426.1</ele>
        <time>2022-06-09T12:39:44Z</time>
      </trkpt>
      <trkpt lat="44.8246" lon="4.22946">
        <ele>1426.1</ele>
        <time>2022-06-09T12:39:45Z</time>
      </trkpt>
      <trkpt lat="44.82461" lon="4.22946">
        <ele>1426.2</ele>
        <time>2022-06-09T12:39:47Z</time>
      </trkpt>
      <trkpt lat="44.82463" lon="4.22945">
        <ele>1426.3</ele>
        <time>2022-06-09T12:39:48Z</time>
      </trkpt>
      <trkpt lat="44.82466" lon="4.22943">
        <ele>1426.5</ele>
        <time>2022-06-09T12:39:49Z</time>
      </trkpt>
      <trkpt lat="44.82467" lon="4.22943">
        <ele>1426.5</ele>
        <time>2022-06-09T12:39:50Z</time>
      </trkpt>
      <trkpt lat="44.82469" lon="4.22942">
        <ele>1426.6</ele>
        <time>2022-06-09T12:39:51Z</time>
      </trkpt>
      <trkpt lat="44.82471" lon="4.22942">
        <ele>1426.7</ele>
        <time>2022-06-09T12:39:53Z</time>
      </trkpt>
      <trkpt lat="44.82474" lon="4.22941">
        <ele>1426.9</ele>
        <time>2022-06-09T12:39:54Z</time>
      </trkpt>
      <trkpt lat="44.82476" lon="4.2294">
        <ele>1427</ele>
        <time>2022-06-09T12:39:55Z</time>
      </trkpt>
      <trkpt lat="44.8248" lon="4.22939">
        <ele>1427.2</ele>
        <time>2022-06-09T12:39:57Z</time>
      </trkpt>
      <trkpt lat="44.82484" lon="4.22939">
        <ele>1427.4</ele>
        <time>2022-06-09T12:39:59Z</time>
      </trkpt>
      <trkpt lat="44.82485" lon="4.22939">
        <ele>1427.4</ele>
        <time>2022-06-09T12:40:00Z</time>
      </trkpt>
      <trkpt lat="44.82487" lon="4.22938">
        <ele>1427.5</ele>
        <time>2022-06-09T12:40:02Z</time>
      </trkpt>
      <trkpt lat="44.8249" lon="4.22938">
        <ele>1427.6</ele>
        <time>2022-06-09T12:40:03Z</time>
      </trkpt>
      <trkpt lat="44.82491" lon="4.22937">
        <ele>1427.7</ele>
        <time>2022-06-09T12:40:04Z</time>
      </trkpt>
      <trkpt lat="44.82495" lon="4.22936">
        <ele>1427.9</ele>
        <time>2022-06-09T12:40:05Z</time>
      </trkpt>
      <trkpt lat="44.82496" lon="4.22935">
        <ele>1427.9</ele>
        <time>2022-06-09T12:40:06Z</time>
      </trkpt>
      <trkpt lat="44.82499" lon="4.22934">
        <ele>1428.1</ele>
        <time>2022-06-09T12:40:08Z</time>
      </trkpt>
      <trkpt lat="44.825" lon="4.22934">
        <ele>1428.1</ele>
        <time>2022-06-09T12:40:09Z</time>
      </trkpt>
      <trkpt lat="44.82502" lon="4.22933">
        <ele>1428.2</ele>
        <time>2022-06-09T12:40:10Z</time>
      </trkpt>
      <trkpt lat="44.82504" lon="4.22933">
        <ele>1428.3</ele>
        <time>2022-06-09T12:40:12Z</time>
      </trkpt>
      <trkpt lat="44.82508" lon="4.22932">
        <ele>1428.5</ele>
        <time>2022-06-09T12:40:13Z</time>
      </trkpt>
      <trkpt lat="44.82509" lon="4.22932">
        <ele>1428.5</ele>
        <time>2022-06-09T12:40:14Z</time>
      </trkpt>
      <trkpt lat="44.82511" lon="4.22931">
        <ele>1428.6</ele>
        <time>2022-06-09T12:40:16Z</time>
      </trkpt>
      <trkpt lat="44.82515" lon="4.2293">
        <ele>1428.8</ele>
        <time>2022-06-09T12:40:17Z</time>
      </trkpt>
      <trkpt lat="44.82517" lon="4.22929">
        <ele>1428.9</ele>
        <time>2022-06-09T12:40:18Z</time>
      </trkpt>
      <trkpt lat="44.82519" lon="4.22928">
        <ele>1429</ele>
        <time>2022-06-09T12:40:20Z</time>
      </trkpt>
      <trkpt lat="44.82522" lon="4.22928">
        <ele>1429.1</ele>
        <time>2022-06-09T12:40:21Z</time>
      </trkpt>
      <trkpt lat="44.82523" lon="4.22928">
        <ele>1429.1</ele>
        <time>2022-06-09T12:40:22Z</time>
      </trkpt>
      <trkpt lat="44.82525" lon="4.22928">
        <ele>1429.2</ele>
        <time>2022-06-09T12:40:23Z</time>
      </trkpt>
      <trkpt lat="44.82528" lon="4.22926">
        <ele>1429.4</ele>
        <time>2022-06-09T12:40:25Z</time>
      </trkpt>
      <trkpt lat="44.82531" lon="4.22925">
        <ele>1429.5</ele>
        <time>2022-06-09T12:40:27Z</time>
      </trkpt>
      <trkpt lat="44.82533" lon="4.22924">
        <ele>1429.6</ele>
        <time>2022-06-09T12:40:28Z</time>
      </trkpt>
      <trkpt lat="44.82536" lon="4.22923">
        <ele>1429.7</ele>
        <time>2022-06-09T12:40:30Z</time>
      </trkpt>
      <trkpt lat="44.82537" lon="4.22923">
        <ele>1429.8</ele>
        <time>2022-06-09T12:40:31Z</time>
      </trkpt>
      <trkpt lat="44.82539" lon="4.22922">
        <ele>1429.9</ele>
        <time>2022-06-09T12:40:32Z</time>
      </trkpt>
      <trkpt lat="44.82542" lon="4.22921">
        <ele>1430.1</ele>
        <time>2022-06-09T12:40:33Z</time>
      </trkpt>
      <trkpt lat="44.82543" lon="4.22921">
        <ele>1430.1</ele>
        <time>2022-06-09T12:40:34Z</time>
      </trkpt>
      <trkpt lat="44.82546" lon="4.22919">
        <ele>1430.3</ele>
        <time>2022-06-09T12:40:36Z</time>
      </trkpt>
      <trkpt lat="44.82548" lon="4.22919">
        <ele>1430.3</ele>
        <time>2022-06-09T12:40:37Z</time>
      </trkpt>
      <trkpt lat="44.82551" lon="4.22919">
        <ele>1430.5</ele>
        <time>2022-06-09T12:40:39Z</time>
      </trkpt>
      <trkpt lat="44.82554" lon="4.22918">
        <ele>1430.6</ele>
        <time>2022-06-09T12:40:41Z</time>
      </trkpt>
      <trkpt lat="44.82557" lon="4.22917">
        <ele>1430.8</ele>
        <time>2022-06-09T12:40:42Z</time>
      </trkpt>
      <trkpt lat="44.82558" lon="4.22916">
        <ele>1430.8</ele>
        <time>2022-06-09T12:40:43Z</time>
      </trkpt>
      <trkpt lat="44.82559" lon="4.22916">
        <ele>1430.9</ele>
        <time>2022-06-09T12:40:44Z</time>
      </trkpt>
      <trkpt lat="44.82562" lon="4.22915">
        <ele>1431.1</ele>
        <time>2022-06-09T12:40:46Z</time>
      </trkpt>
      <trkpt lat="44.82565" lon="4.22914">
        <ele>1431.2</ele>
        <time>2022-06-09T12:40:47Z</time>
      </trkpt>
      <trkpt lat="44.82566" lon="4.22914">
        <ele>1431.2</ele>
        <time>2022-06-09T12:40:48Z</time>
      </trkpt>
      <trkpt lat="44.82567" lon="4.22913">
        <ele>1431.3</ele>
        <time>2022-06-09T12:40:50Z</time>
      </trkpt>
      <trkpt lat="44.82569" lon="4.22913">
        <ele>1431.4</ele>
        <time>2022-06-09T12:40:51Z</time>
      </trkpt>
      <trkpt lat="44.82572" lon="4.22913">
        <ele>1431.6</ele>
        <time>2022-06-09T12:40:52Z</time>
      </trkpt>
      <trkpt lat="44.82573" lon="4.22912">
        <ele>1431.6</ele>
        <time>2022-06-09T12:40:53Z</time>
      </trkpt>
      <trkpt lat="44.82576" lon="4.22912">
        <ele>1431.8</ele>
        <time>2022-06-09T12:40:54Z</time>
      </trkpt>
      <trkpt lat="44.82577" lon="4.22911">
        <ele>1431.8</ele>
        <time>2022-06-09T12:40:55Z</time>
      </trkpt>
      <trkpt lat="44.82581" lon="4.2291">
        <ele>1432</ele>
        <time>2022-06-09T12:40:57Z</time>
      </trkpt>
      <trkpt lat="44.82582" lon="4.2291">
        <ele>1432.1</ele>
        <time>2022-06-09T12:40:58Z</time>
      </trkpt>
      <trkpt lat="44.82584" lon="4.2291">
        <ele>1432.2</ele>
        <time>2022-06-09T12:41:00Z</time>
      </trkpt>
      <trkpt lat="44.82587" lon="4.2291">
        <ele>1432.3</ele>
        <time>2022-06-09T12:41:01Z</time>
      </trkpt>
      <trkpt lat="44.82589" lon="4.22909">
        <ele>1432.4</ele>
        <time>2022-06-09T12:41:03Z</time>
      </trkpt>
      <trkpt lat="44.8259" lon="4.22909">
        <ele>1432.5</ele>
        <time>2022-06-09T12:41:04Z</time>
      </trkpt>
      <trkpt lat="44.82592" lon="4.22908">
        <ele>1432.6</ele>
        <time>2022-06-09T12:41:05Z</time>
      </trkpt>
      <trkpt lat="44.82595" lon="4.22907">
        <ele>1432.8</ele>
        <time>2022-06-09T12:41:06Z</time>
      </trkpt>
      <trkpt lat="44.82596" lon="4.22907">
        <ele>1432.8</ele>
        <time>2022-06-09T12:41:07Z</time>
      </trkpt>
      <trkpt lat="44.82599" lon="4.22907">
        <ele>1433</ele>
        <time>2022-06-09T12:41:08Z</time>
      </trkpt>
      <trkpt lat="44.82603" lon="4.22906">
        <ele>1433.2</ele>
        <time>2022-06-09T12:41:10Z</time>
      </trkpt>
      <trkpt lat="44.82605" lon="4.22905">
        <ele>1433.3</ele>
        <time>2022-06-09T12:41:12Z</time>
      </trkpt>
      <trkpt lat="44.82606" lon="4.22905">
        <ele>1433.4</ele>
        <time>2022-06-09T12:41:13Z</time>
      </trkpt>
      <trkpt lat="44.82607" lon="4.22905">
        <ele>1433.5</ele>
        <time>2022-06-09T12:41:14Z</time>
      </trkpt>
      <trkpt lat="44.82609" lon="4.22905">
        <ele>1433.6</ele>
        <time>2022-06-09T12:41:15Z</time>
      </trkpt>
      <trkpt lat="44.82613" lon="4.22904">
        <ele>1433.7</ele>
        <time>2022-06-09T12:41:16Z</time>
      </trkpt>
      <trkpt lat="44.82614" lon="4.22904">
        <ele>1433.8</ele>
        <time>2022-06-09T12:41:17Z</time>
      </trkpt>
      <trkpt lat="44.82618" lon="4.22903">
        <ele>1434</ele>
        <time>2022-06-09T12:41:19Z</time>
      </trkpt>
      <trkpt lat="44.82619" lon="4.22902">
        <ele>1434.1</ele>
        <time>2022-06-09T12:41:20Z</time>
      </trkpt>
      <trkpt lat="44.82621" lon="4.22902">
        <ele>1434.2</ele>
        <time>2022-06-09T12:41:21Z</time>
      </trkpt>
      <trkpt lat="44.82622" lon="4.22902">
        <ele>1434.3</ele>
        <time>2022-06-09T12:41:22Z</time>
      </trkpt>
      <trkpt lat="44.82625" lon="4.22902">
        <ele>1434.4</ele>
        <time>2022-06-09T12:41:24Z</time>
      </trkpt>
      <trkpt lat="44.82627" lon="4.22901">
        <ele>1434.5</ele>
        <time>2022-06-09T12:41:25Z</time>
      </trkpt>
      <trkpt lat="44.8263" lon="4.22901">
        <ele>1434.6</ele>
        <time>2022-06-09T12:41:27Z</time>
      </trkpt>
      <trkpt lat="44.82632" lon="4.229">
        <ele>1434.8</ele>
        <time>2022-06-09T12:41:28Z</time>
      </trkpt>
      <trkpt lat="44.82634" lon="4.229">
        <ele>1434.9</ele>
        <time>2022-06-09T12:41:29Z</time>
      </trkpt>
      <trkpt lat="44.82635" lon="4.229">
        <ele>1435</ele>
        <time>2022-06-09T12:41:30Z</time>
      </trkpt>
      <trkpt lat="44.82637" lon="4.22899">
        <ele>1435.1</ele>
        <time>2022-06-09T12:41:31Z</time>
      </trkpt>
      <trkpt lat="44.82639" lon="4.22898">
        <ele>1435.2</ele>
        <time>2022-06-09T12:41:33Z</time>
      </trkpt>
      <trkpt lat="44.82641" lon="4.22898">
        <ele>1435.3</ele>
        <time>2022-06-09T12:41:34Z</time>
      </trkpt>
      <trkpt lat="44.82643" lon="4.22897">
        <ele>1435.4</ele>
        <time>2022-06-09T12:41:35Z</time>
      </trkpt>
      <trkpt lat="44.82646" lon="4.22895">
        <ele>1435.5</ele>
        <time>2022-06-09T12:41:36Z</time>
      </trkpt>
      <trkpt lat="44.82647" lon="4.22895">
        <ele>1435.6</ele>
        <time>2022-06-09T12:41:37Z</time>
      </trkpt>
      <trkpt lat="44.82649" lon="4.22894">
        <ele>1435.7</ele>
        <time>2022-06-09T12:41:38Z</time>
      </trkpt>
      <trkpt lat="44.82651" lon="4.22893">
        <ele>1435.8</ele>
        <time>2022-06-09T12:41:40Z</time>
      </trkpt>
      <trkpt lat="44.82655" lon="4.22892">
        <ele>1436.1</ele>
        <time>2022-06-09T12:41:41Z</time>
      </trkpt>
      <trkpt lat="44.82658" lon="4.22891">
        <ele>1436.2</ele>
        <time>2022-06-09T12:41:43Z</time>
      </trkpt>
      <trkpt lat="44.82659" lon="4.22891">
        <ele>1436.3</ele>
        <time>2022-06-09T12:41:44Z</time>
      </trkpt>
      <trkpt lat="44.82662" lon="4.2289">
        <ele>1436.4</ele>
        <time>2022-06-09T12:41:45Z</time>
      </trkpt>
      <trkpt lat="44.82663" lon="4.2289">
        <ele>1436.5</ele>
        <time>2022-06-09T12:41:46Z</time>
      </trkpt>
      <trkpt lat="44.82665" lon="4.22889">
        <ele>1436.6</ele>
        <time>2022-06-09T12:41:47Z</time>
      </trkpt>
      <trkpt lat="44.82666" lon="4.22888">
        <ele>1436.7</ele>
        <time>2022-06-09T12:41:48Z</time>
      </trkpt>
      <trkpt lat="44.82669" lon="4.22888">
        <ele>1436.8</ele>
        <time>2022-06-09T12:41:49Z</time>
      </trkpt>
      <trkpt lat="44.82671" lon="4.22887">
        <ele>1436.9</ele>
        <time>2022-06-09T12:41:50Z</time>
      </trkpt>
      <trkpt lat="44.82673" lon="4.22887">
        <ele>1437</ele>
        <time>2022-06-09T12:41:52Z</time>
      </trkpt>
      <trkpt lat="44.82674" lon="4.22886">
        <ele>1437.1</ele>
        <time>2022-06-09T12:41:53Z</time>
      </trkpt>
      <trkpt lat="44.82676" lon="4.22885">
        <ele>1437.2</ele>
        <time>2022-06-09T12:41:54Z</time>
      </trkpt>
      <trkpt lat="44.82679" lon="4.22884">
        <ele>1437.4</ele>
        <time>2022-06-09T12:41:55Z</time>
      </trkpt>
      <trkpt lat="44.82683" lon="4.22884">
        <ele>1437.5</ele>
        <time>2022-06-09T12:41:57Z</time>
      </trkpt>
      <trkpt lat="44.82683" lon="4.22884">
        <ele>1437.6</ele>
        <time>2022-06-09T12:41:58Z</time>
      </trkpt>
      <trkpt lat="44.82687" lon="4.22882">
        <ele>1437.7</ele>
        <time>2022-06-09T12:41:59Z</time>
      </trkpt>
      <trkpt lat="44.8269" lon="4.22881">
        <ele>1437.9</ele>
        <time>2022-06-09T12:42:00Z</time>
      </trkpt>
      <trkpt lat="44.82691" lon="4.22881">
        <ele>1437.9</ele>
        <time>2022-06-09T12:42:02Z</time>
      </trkpt>
      <trkpt lat="44.82693" lon="4.22881">
        <ele>1438</ele>
        <time>2022-06-09T12:42:03Z</time>
      </trkpt>
      <trkpt lat="44.82694" lon="4.2288">
        <ele>1438.1</ele>
        <time>2022-06-09T12:42:04Z</time>
      </trkpt>
      <trkpt lat="44.82697" lon="4.2288">
        <ele>1438.2</ele>
        <time>2022-06-09T12:42:05Z</time>
      </trkpt>
      <trkpt lat="44.82698" lon="4.22879">
        <ele>1438.2</ele>
        <time>2022-06-09T12:42:06Z</time>
      </trkpt>
      <trkpt lat="44.827" lon="4.22878">
        <ele>1438.3</ele>
        <time>2022-06-09T12:42:07Z</time>
      </trkpt>
      <trkpt lat="44.82702" lon="4.22877">
        <ele>1438.4</ele>
        <time>2022-06-09T12:42:09Z</time>
      </trkpt>
      <trkpt lat="44.82706" lon="4.22877">
        <ele>1438.6</ele>
        <time>2022-06-09T12:42:10Z</time>
      </trkpt>
      <trkpt lat="44.82709" lon="4.22876">
        <ele>1438.8</ele>
        <time>2022-06-09T12:42:12Z</time>
      </trkpt>
      <trkpt lat="44.8271" lon="4.22875">
        <ele>1438.8</ele>
        <time>2022-06-09T12:42:13Z</time>
      </trkpt>
      <trkpt lat="44.82713" lon="4.22874">
        <ele>1438.9</ele>
        <time>2022-06-09T12:42:14Z</time>
      </trkpt>
      <trkpt lat="44.82717" lon="4.22873">
        <ele>1439.1</ele>
        <time>2022-06-09T12:42:16Z</time>
      </trkpt>
      <trkpt lat="44.82719" lon="4.22872">
        <ele>1439.2</ele>
        <time>2022-06-09T12:42:17Z</time>
      </trkpt>
      <trkpt lat="44.82721" lon="4.22871">
        <ele>1439.3</ele>
        <time>2022-06-09T12:42:19Z</time>
      </trkpt>
      <trkpt lat="44.82724" lon="4.22871">
        <ele>1439.5</ele>
        <time>2022-06-09T12:42:20Z</time>
      </trkpt>
      <trkpt lat="44.82725" lon="4.2287">
        <ele>1439.5</ele>
        <time>2022-06-09T12:42:21Z</time>
      </trkpt>
      <trkpt lat="44.82728" lon="4.2287">
        <ele>1439.6</ele>
        <time>2022-06-09T12:42:22Z</time>
      </trkpt>
      <trkpt lat="44.82732" lon="4.2287">
        <ele>1439.8</ele>
        <time>2022-06-09T12:42:23Z</time>
      </trkpt>
      <trkpt lat="44.82733" lon="4.2287">
        <ele>1439.8</ele>
        <time>2022-06-09T12:42:24Z</time>
      </trkpt>
      <trkpt lat="44.82735" lon="4.22869">
        <ele>1439.9</ele>
        <time>2022-06-09T12:42:25Z</time>
      </trkpt>
      <trkpt lat="44.82737" lon="4.22868">
        <ele>1440</ele>
        <time>2022-06-09T12:42:27Z</time>
      </trkpt>
      <trkpt lat="44.82739" lon="4.22866">
        <ele>1440.1</ele>
        <time>2022-06-09T12:42:28Z</time>
      </trkpt>
      <trkpt lat="44.82743" lon="4.22865">
        <ele>1440.3</ele>
        <time>2022-06-09T12:42:29Z</time>
      </trkpt>
      <trkpt lat="44.82744" lon="4.22864">
        <ele>1440.4</ele>
        <time>2022-06-09T12:42:30Z</time>
      </trkpt>
      <trkpt lat="44.82748" lon="4.22863">
        <ele>1440.5</ele>
        <time>2022-06-09T12:42:32Z</time>
      </trkpt>
      <trkpt lat="44.8275" lon="4.22862">
        <ele>1440.6</ele>
        <time>2022-06-09T12:42:33Z</time>
      </trkpt>
      <trkpt lat="44.82752" lon="4.22861">
        <ele>1440.7</ele>
        <time>2022-06-09T12:42:35Z</time>
      </trkpt>
      <trkpt lat="44.82754" lon="4.22861">
        <ele>1440.8</ele>
        <time>2022-06-09T12:42:36Z</time>
      </trkpt>
      <trkpt lat="44.82756" lon="4.2286">
        <ele>1440.9</ele>
        <time>2022-06-09T12:42:37Z</time>
      </trkpt>
      <trkpt lat="44.82758" lon="4.22858">
        <ele>1441</ele>
        <time>2022-06-09T12:42:38Z</time>
      </trkpt>
      <trkpt lat="44.82761" lon="4.22857">
        <ele>1441.1</ele>
        <time>2022-06-09T12:42:39Z</time>
      </trkpt>
      <trkpt lat="44.82763" lon="4.22856">
        <ele>1441.2</ele>
        <time>2022-06-09T12:42:40Z</time>
      </trkpt>
      <trkpt lat="44.82765" lon="4.22855">
        <ele>1441.2</ele>
        <time>2022-06-09T12:42:42Z</time>
      </trkpt>
      <trkpt lat="44.82767" lon="4.22853">
        <ele>1441.3</ele>
        <time>2022-06-09T12:42:43Z</time>
      </trkpt>
      <trkpt lat="44.8277" lon="4.22851">
        <ele>1441.4</ele>
        <time>2022-06-09T12:42:44Z</time>
      </trkpt>
      <trkpt lat="44.82773" lon="4.22848">
        <ele>1441.6</ele>
        <time>2022-06-09T12:42:45Z</time>
      </trkpt>
      <trkpt lat="44.82774" lon="4.22847">
        <ele>1441.6</ele>
        <time>2022-06-09T12:42:46Z</time>
      </trkpt>
      <trkpt lat="44.82778" lon="4.22845">
        <ele>1441.8</ele>
        <time>2022-06-09T12:42:48Z</time>
      </trkpt>
      <trkpt lat="44.8278" lon="4.22844">
        <ele>1441.8</ele>
        <time>2022-06-09T12:42:49Z</time>
      </trkpt>
      <trkpt lat="44.82783" lon="4.22842">
        <ele>1442</ele>
        <time>2022-06-09T12:42:50Z</time>
      </trkpt>
      <trkpt lat="44.82787" lon="4.22839">
        <ele>1442.1</ele>
        <time>2022-06-09T12:42:52Z</time>
      </trkpt>
      <trkpt lat="44.82788" lon="4.22838">
        <ele>1442.2</ele>
        <time>2022-06-09T12:42:53Z</time>
      </trkpt>
      <trkpt lat="44.8279" lon="4.22837">
        <ele>1442.2</ele>
        <time>2022-06-09T12:42:54Z</time>
      </trkpt>
      <trkpt lat="44.82794" lon="4.22835">
        <ele>1442.4</ele>
        <time>2022-06-09T12:42:56Z</time>
      </trkpt>
      <trkpt lat="44.82796" lon="4.22833">
        <ele>1442.5</ele>
        <time>2022-06-09T12:42:58Z</time>
      </trkpt>
      <trkpt lat="44.82799" lon="4.22831">
        <ele>1442.6</ele>
        <time>2022-06-09T12:42:59Z</time>
      </trkpt>
      <trkpt lat="44.82801" lon="4.22829">
        <ele>1442.7</ele>
        <time>2022-06-09T12:43:00Z</time>
      </trkpt>
      <trkpt lat="44.82803" lon="4.22828">
        <ele>1442.7</ele>
        <time>2022-06-09T12:43:02Z</time>
      </trkpt>
      <trkpt lat="44.82806" lon="4.22826">
        <ele>1442.8</ele>
        <time>2022-06-09T12:43:03Z</time>
      </trkpt>
      <trkpt lat="44.82806" lon="4.22825">
        <ele>1442.9</ele>
        <time>2022-06-09T12:43:04Z</time>
      </trkpt>
      <trkpt lat="44.8281" lon="4.22823">
        <ele>1443</ele>
        <time>2022-06-09T12:43:05Z</time>
      </trkpt>
      <trkpt lat="44.82811" lon="4.22822">
        <ele>1443</ele>
        <time>2022-06-09T12:43:06Z</time>
      </trkpt>
      <trkpt lat="44.82814" lon="4.22819">
        <ele>1443.2</ele>
        <time>2022-06-09T12:43:07Z</time>
      </trkpt>
      <trkpt lat="44.82817" lon="4.22816">
        <ele>1443.3</ele>
        <time>2022-06-09T12:43:09Z</time>
      </trkpt>
      <trkpt lat="44.82817" lon="4.22816">
        <ele>1443.3</ele>
        <time>2022-06-09T12:43:10Z</time>
      </trkpt>
      <trkpt lat="44.8282" lon="4.22814">
        <ele>1443.4</ele>
        <time>2022-06-09T12:43:11Z</time>
      </trkpt>
      <trkpt lat="44.82821" lon="4.22813">
        <ele>1443.5</ele>
        <time>2022-06-09T12:43:12Z</time>
      </trkpt>
      <trkpt lat="44.82823" lon="4.22811">
        <ele>1443.6</ele>
        <time>2022-06-09T12:43:13Z</time>
      </trkpt>
      <trkpt lat="44.82824" lon="4.2281">
        <ele>1443.6</ele>
        <time>2022-06-09T12:43:14Z</time>
      </trkpt>
      <trkpt lat="44.82827" lon="4.22808">
        <ele>1443.7</ele>
        <time>2022-06-09T12:43:15Z</time>
      </trkpt>
      <trkpt lat="44.82827" lon="4.22807">
        <ele>1443.7</ele>
        <time>2022-06-09T12:43:16Z</time>
      </trkpt>
      <trkpt lat="44.8283" lon="4.22805">
        <ele>1443.9</ele>
        <time>2022-06-09T12:43:17Z</time>
      </trkpt>
      <trkpt lat="44.82833" lon="4.22802">
        <ele>1444</ele>
        <time>2022-06-09T12:43:19Z</time>
      </trkpt>
      <trkpt lat="44.82834" lon="4.22801">
        <ele>1444</ele>
        <time>2022-06-09T12:43:20Z</time>
      </trkpt>
      <trkpt lat="44.82837" lon="4.22799">
        <ele>1444.1</ele>
        <time>2022-06-09T12:43:21Z</time>
      </trkpt>
      <trkpt lat="44.82838" lon="4.22798">
        <ele>1444.2</ele>
        <time>2022-06-09T12:43:22Z</time>
      </trkpt>
      <trkpt lat="44.82841" lon="4.22796">
        <ele>1444.3</ele>
        <time>2022-06-09T12:43:23Z</time>
      </trkpt>
      <trkpt lat="44.82842" lon="4.22796">
        <ele>1444.3</ele>
        <time>2022-06-09T12:43:24Z</time>
      </trkpt>
      <trkpt lat="44.82845" lon="4.22795">
        <ele>1444.4</ele>
        <time>2022-06-09T12:43:26Z</time>
      </trkpt>
      <trkpt lat="44.82848" lon="4.22793">
        <ele>1444.5</ele>
        <time>2022-06-09T12:43:27Z</time>
      </trkpt>
      <trkpt lat="44.82851" lon="4.22791">
        <ele>1444.7</ele>
        <time>2022-06-09T12:43:28Z</time>
      </trkpt>
      <trkpt lat="44.82852" lon="4.2279">
        <ele>1444.7</ele>
        <time>2022-06-09T12:43:29Z</time>
      </trkpt>
      <trkpt lat="44.82854" lon="4.22788">
        <ele>1444.8</ele>
        <time>2022-06-09T12:43:30Z</time>
      </trkpt>
      <trkpt lat="44.82857" lon="4.22786">
        <ele>1444.9</ele>
        <time>2022-06-09T12:43:32Z</time>
      </trkpt>
      <trkpt lat="44.8286" lon="4.22784">
        <ele>1445</ele>
        <time>2022-06-09T12:43:33Z</time>
      </trkpt>
      <trkpt lat="44.82863" lon="4.22782">
        <ele>1445.1</ele>
        <time>2022-06-09T12:43:34Z</time>
      </trkpt>
      <trkpt lat="44.82864" lon="4.22781">
        <ele>1445.2</ele>
        <time>2022-06-09T12:43:35Z</time>
      </trkpt>
      <trkpt lat="44.82869" lon="4.22777">
        <ele>1445.3</ele>
        <time>2022-06-09T12:43:37Z</time>
      </trkpt>
      <trkpt lat="44.82871" lon="4.22776">
        <ele>1445.4</ele>
        <time>2022-06-09T12:43:39Z</time>
      </trkpt>
      <trkpt lat="44.82873" lon="4.22773">
        <ele>1445.5</ele>
        <time>2022-06-09T12:43:40Z</time>
      </trkpt>
      <trkpt lat="44.82875" lon="4.22773">
        <ele>1445.6</ele>
        <time>2022-06-09T12:43:41Z</time>
      </trkpt>
      <trkpt lat="44.82877" lon="4.22771">
        <ele>1445.7</ele>
        <time>2022-06-09T12:43:42Z</time>
      </trkpt>
      <trkpt lat="44.8288" lon="4.22769">
        <ele>1445.7</ele>
        <time>2022-06-09T12:43:43Z</time>
      </trkpt>
      <trkpt lat="44.82882" lon="4.22768">
        <ele>1445.8</ele>
        <time>2022-06-09T12:43:44Z</time>
      </trkpt>
      <trkpt lat="44.82883" lon="4.22766">
        <ele>1445.9</ele>
        <time>2022-06-09T12:43:46Z</time>
      </trkpt>
      <trkpt lat="44.82886" lon="4.22762">
        <ele>1446</ele>
        <time>2022-06-09T12:43:47Z</time>
      </trkpt>
      <trkpt lat="44.82888" lon="4.22761">
        <ele>1446</ele>
        <time>2022-06-09T12:43:48Z</time>
      </trkpt>
      <trkpt lat="44.82889" lon="4.22759">
        <ele>1446.1</ele>
        <time>2022-06-09T12:43:49Z</time>
      </trkpt>
      <trkpt lat="44.82891" lon="4.22757">
        <ele>1446.1</ele>
        <time>2022-06-09T12:43:51Z</time>
      </trkpt>
      <trkpt lat="44.82895" lon="4.22755">
        <ele>1446.2</ele>
        <time>2022-06-09T12:43:52Z</time>
      </trkpt>
      <trkpt lat="44.82896" lon="4.22753">
        <ele>1446.3</ele>
        <time>2022-06-09T12:43:53Z</time>
      </trkpt>
      <trkpt lat="44.82898" lon="4.22753">
        <ele>1446.3</ele>
        <time>2022-06-09T12:43:55Z</time>
      </trkpt>
      <trkpt lat="44.82901" lon="4.22751">
        <ele>1446.4</ele>
        <time>2022-06-09T12:43:56Z</time>
      </trkpt>
      <trkpt lat="44.82902" lon="4.22751">
        <ele>1446.5</ele>
        <time>2022-06-09T12:43:57Z</time>
      </trkpt>
      <trkpt lat="44.82905" lon="4.22748">
        <ele>1446.6</ele>
        <time>2022-06-09T12:43:58Z</time>
      </trkpt>
      <trkpt lat="44.82907" lon="4.22746">
        <ele>1446.6</ele>
        <time>2022-06-09T12:43:59Z</time>
      </trkpt>
      <trkpt lat="44.8291" lon="4.22744">
        <ele>1446.7</ele>
        <time>2022-06-09T12:44:01Z</time>
      </trkpt>
      <trkpt lat="44.82912" lon="4.22741">
        <ele>1446.8</ele>
        <time>2022-06-09T12:44:02Z</time>
      </trkpt>
      <trkpt lat="44.82915" lon="4.22739">
        <ele>1446.9</ele>
        <time>2022-06-09T12:44:03Z</time>
      </trkpt>
      <trkpt lat="44.82917" lon="4.22737">
        <ele>1446.9</ele>
        <time>2022-06-09T12:44:04Z</time>
      </trkpt>
      <trkpt lat="44.82919" lon="4.22736">
        <ele>1447</ele>
        <time>2022-06-09T12:44:06Z</time>
      </trkpt>
      <trkpt lat="44.82922" lon="4.22734">
        <ele>1447.1</ele>
        <time>2022-06-09T12:44:07Z</time>
      </trkpt>
      <trkpt lat="44.82923" lon="4.22733">
        <ele>1447.1</ele>
        <time>2022-06-09T12:44:08Z</time>
      </trkpt>
      <trkpt lat="44.82926" lon="4.22731">
        <ele>1447.2</ele>
        <time>2022-06-09T12:44:09Z</time>
      </trkpt>
      <trkpt lat="44.8293" lon="4.22727">
        <ele>1447.3</ele>
        <time>2022-06-09T12:44:10Z</time>
      </trkpt>
      <trkpt lat="44.82934" lon="4.22724">
        <ele>1447.5</ele>
        <time>2022-06-09T12:44:12Z</time>
      </trkpt>
      <trkpt lat="44.82936" lon="4.22722">
        <ele>1447.6</ele>
        <time>2022-06-09T12:44:13Z</time>
      </trkpt>
      <trkpt lat="44.82938" lon="4.2272">
        <ele>1447.6</ele>
        <time>2022-06-09T12:44:14Z</time>
      </trkpt>
      <trkpt lat="44.82942" lon="4.22716">
        <ele>1447.8</ele>
        <time>2022-06-09T12:44:16Z</time>
      </trkpt>
      <trkpt lat="44.82945" lon="4.22715">
        <ele>1447.8</ele>
        <time>2022-06-09T12:44:18Z</time>
      </trkpt>
      <trkpt lat="44.82948" lon="4.22713">
        <ele>1447.9</ele>
        <time>2022-06-09T12:44:19Z</time>
      </trkpt>
      <trkpt lat="44.8295" lon="4.22711">
        <ele>1448</ele>
        <time>2022-06-09T12:44:21Z</time>
      </trkpt>
      <trkpt lat="44.82953" lon="4.22709">
        <ele>1448.1</ele>
        <time>2022-06-09T12:44:22Z</time>
      </trkpt>
      <trkpt lat="44.82957" lon="4.22707">
        <ele>1448.2</ele>
        <time>2022-06-09T12:44:23Z</time>
      </trkpt>
      <trkpt lat="44.82957" lon="4.22707">
        <ele>1448.3</ele>
        <time>2022-06-09T12:44:24Z</time>
      </trkpt>
      <trkpt lat="44.82961" lon="4.22703">
        <ele>1448.4</ele>
        <time>2022-06-09T12:44:26Z</time>
      </trkpt>
      <trkpt lat="44.82963" lon="4.22702">
        <ele>1448.4</ele>
        <time>2022-06-09T12:44:27Z</time>
      </trkpt>
      <trkpt lat="44.82966" lon="4.227">
        <ele>1448.5</ele>
        <time>2022-06-09T12:44:29Z</time>
      </trkpt>
      <trkpt lat="44.8297" lon="4.22697">
        <ele>1448.6</ele>
        <time>2022-06-09T12:44:30Z</time>
      </trkpt>
      <trkpt lat="44.82973" lon="4.22695">
        <ele>1448.7</ele>
        <time>2022-06-09T12:44:31Z</time>
      </trkpt>
      <trkpt lat="44.82977" lon="4.22692">
        <ele>1448.8</ele>
        <time>2022-06-09T12:44:33Z</time>
      </trkpt>
      <trkpt lat="44.82979" lon="4.2269">
        <ele>1448.8</ele>
        <time>2022-06-09T12:44:34Z</time>
      </trkpt>
      <trkpt lat="44.82982" lon="4.22688">
        <ele>1448.9</ele>
        <time>2022-06-09T12:44:36Z</time>
      </trkpt>
      <trkpt lat="44.82986" lon="4.22685">
        <ele>1449</ele>
        <time>2022-06-09T12:44:37Z</time>
      </trkpt>
      <trkpt lat="44.8299" lon="4.22683">
        <ele>1449.1</ele>
        <time>2022-06-09T12:44:39Z</time>
      </trkpt>
      <trkpt lat="44.82992" lon="4.22682">
        <ele>1449.1</ele>
        <time>2022-06-09T12:44:40Z</time>
      </trkpt>
      <trkpt lat="44.82995" lon="4.22679">
        <ele>1449.2</ele>
        <time>2022-06-09T12:44:41Z</time>
      </trkpt>
      <trkpt lat="44.82999" lon="4.22676">
        <ele>1449.3</ele>
        <time>2022-06-09T12:44:43Z</time>
      </trkpt>
      <trkpt lat="44.83001" lon="4.22674">
        <ele>1449.3</ele>
        <time>2022-06-09T12:44:44Z</time>
      </trkpt>
      <trkpt lat="44.83003" lon="4.22673">
        <ele>1449.3</ele>
        <time>2022-06-09T12:44:45Z</time>
      </trkpt>
      <trkpt lat="44.83005" lon="4.22671">
        <ele>1449.3</ele>
        <time>2022-06-09T12:44:46Z</time>
      </trkpt>
      <trkpt lat="44.83009" lon="4.22668">
        <ele>1449.4</ele>
        <time>2022-06-09T12:44:47Z</time>
      </trkpt>
      <trkpt lat="44.83011" lon="4.22667">
        <ele>1449.4</ele>
        <time>2022-06-09T12:44:48Z</time>
      </trkpt>
      <trkpt lat="44.83015" lon="4.22664">
        <ele>1449.5</ele>
        <time>2022-06-09T12:44:50Z</time>
      </trkpt>
      <trkpt lat="44.83016" lon="4.22662">
        <ele>1449.5</ele>
        <time>2022-06-09T12:44:51Z</time>
      </trkpt>
      <trkpt lat="44.83018" lon="4.22661">
        <ele>1449.5</ele>
        <time>2022-06-09T12:44:52Z</time>
      </trkpt>
      <trkpt lat="44.83021" lon="4.2266">
        <ele>1449.5</ele>
        <time>2022-06-09T12:44:53Z</time>
      </trkpt>
      <trkpt lat="44.83023" lon="4.22658">
        <ele>1449.5</ele>
        <time>2022-06-09T12:44:54Z</time>
      </trkpt>
      <trkpt lat="44.83026" lon="4.22656">
        <ele>1449.5</ele>
        <time>2022-06-09T12:44:55Z</time>
      </trkpt>
      <trkpt lat="44.83029" lon="4.22654">
        <ele>1449.5</ele>
        <time>2022-06-09T12:44:56Z</time>
      </trkpt>
      <trkpt lat="44.83032" lon="4.22651">
        <ele>1449.5</ele>
        <time>2022-06-09T12:44:57Z</time>
      </trkpt>
      <trkpt lat="44.83034" lon="4.2265">
        <ele>1449.5</ele>
        <time>2022-06-09T12:44:58Z</time>
      </trkpt>
      <trkpt lat="44.83036" lon="4.22648">
        <ele>1449.5</ele>
        <time>2022-06-09T12:44:59Z</time>
      </trkpt>
      <trkpt lat="44.83039" lon="4.22646">
        <ele>1449.5</ele>
        <time>2022-06-09T12:45:00Z</time>
      </trkpt>
      <trkpt lat="44.83041" lon="4.22644">
        <ele>1449.4</ele>
        <time>2022-06-09T12:45:01Z</time>
      </trkpt>
      <trkpt lat="44.83044" lon="4.22641">
        <ele>1449.4</ele>
        <time>2022-06-09T12:45:02Z</time>
      </trkpt>
      <trkpt lat="44.83046" lon="4.2264">
        <ele>1449.4</ele>
        <time>2022-06-09T12:45:03Z</time>
      </trkpt>
      <trkpt lat="44.83052" lon="4.22635">
        <ele>1449.3</ele>
        <time>2022-06-09T12:45:04Z</time>
      </trkpt>
      <trkpt lat="44.83057" lon="4.22632">
        <ele>1449.1</ele>
        <time>2022-06-09T12:45:06Z</time>
      </trkpt>
      <trkpt lat="44.8306" lon="4.22629">
        <ele>1449</ele>
        <time>2022-06-09T12:45:08Z</time>
      </trkpt>
      <trkpt lat="44.83063" lon="4.22627">
        <ele>1449</ele>
        <time>2022-06-09T12:45:09Z</time>
      </trkpt>
      <trkpt lat="44.83068" lon="4.22622">
        <ele>1448.8</ele>
        <time>2022-06-09T12:45:10Z</time>
      </trkpt>
      <trkpt lat="44.83075" lon="4.22619">
        <ele>1448.6</ele>
        <time>2022-06-09T12:45:12Z</time>
      </trkpt>
      <trkpt lat="44.83078" lon="4.22616">
        <ele>1448.4</ele>
        <time>2022-06-09T12:45:13Z</time>
      </trkpt>
      <trkpt lat="44.83081" lon="4.22614">
        <ele>1448.3</ele>
        <time>2022-06-09T12:45:15Z</time>
      </trkpt>
      <trkpt lat="44.83085" lon="4.2261">
        <ele>1448.2</ele>
        <time>2022-06-09T12:45:16Z</time>
      </trkpt>
      <trkpt lat="44.83089" lon="4.22608">
        <ele>1448</ele>
        <time>2022-06-09T12:45:17Z</time>
      </trkpt>
      <trkpt lat="44.83093" lon="4.22608">
        <ele>1447.9</ele>
        <time>2022-06-09T12:45:18Z</time>
      </trkpt>
      <trkpt lat="44.83098" lon="4.22605">
        <ele>1447.7</ele>
        <time>2022-06-09T12:45:20Z</time>
      </trkpt>
      <trkpt lat="44.83104" lon="4.22603">
        <ele>1447.5</ele>
        <time>2022-06-09T12:45:22Z</time>
      </trkpt>
      <trkpt lat="44.83108" lon="4.22602">
        <ele>1447.3</ele>
        <time>2022-06-09T12:45:23Z</time>
      </trkpt>
      <trkpt lat="44.83113" lon="4.226">
        <ele>1447.2</ele>
        <time>2022-06-09T12:45:24Z</time>
      </trkpt>
      <trkpt lat="44.83116" lon="4.22599">
        <ele>1447</ele>
        <time>2022-06-09T12:45:25Z</time>
      </trkpt>
      <trkpt lat="44.83121" lon="4.22597">
        <ele>1446.8</ele>
        <time>2022-06-09T12:45:26Z</time>
      </trkpt>
      <trkpt lat="44.83125" lon="4.22596">
        <ele>1446.7</ele>
        <time>2022-06-09T12:45:28Z</time>
      </trkpt>
      <trkpt lat="44.83129" lon="4.22594">
        <ele>1446.5</ele>
        <time>2022-06-09T12:45:29Z</time>
      </trkpt>
      <trkpt lat="44.83138" lon="4.22592">
        <ele>1446.1</ele>
        <time>2022-06-09T12:45:30Z</time>
      </trkpt>
      <trkpt lat="44.83142" lon="4.22591">
        <ele>1445.9</ele>
        <time>2022-06-09T12:45:32Z</time>
      </trkpt>
      <trkpt lat="44.83146" lon="4.2259">
        <ele>1445.7</ele>
        <time>2022-06-09T12:45:33Z</time>
      </trkpt>
      <trkpt lat="44.8315" lon="4.22588">
        <ele>1445.5</ele>
        <time>2022-06-09T12:45:34Z</time>
      </trkpt>
      <trkpt lat="44.83155" lon="4.22587">
        <ele>1445.2</ele>
        <time>2022-06-09T12:45:35Z</time>
      </trkpt>
      <trkpt lat="44.8316" lon="4.22585">
        <ele>1445</ele>
        <time>2022-06-09T12:45:36Z</time>
      </trkpt>
      <trkpt lat="44.83165" lon="4.22584">
        <ele>1444.7</ele>
        <time>2022-06-09T12:45:37Z</time>
      </trkpt>
      <trkpt lat="44.83169" lon="4.22583">
        <ele>1444.4</ele>
        <time>2022-06-09T12:45:38Z</time>
      </trkpt>
      <trkpt lat="44.83174" lon="4.22581">
        <ele>1444.2</ele>
        <time>2022-06-09T12:45:39Z</time>
      </trkpt>
      <trkpt lat="44.83179" lon="4.22579">
        <ele>1443.9</ele>
        <time>2022-06-09T12:45:40Z</time>
      </trkpt>
      <trkpt lat="44.83183" lon="4.22578">
        <ele>1443.6</ele>
        <time>2022-06-09T12:45:41Z</time>
      </trkpt>
      <trkpt lat="44.83188" lon="4.22577">
        <ele>1443.3</ele>
        <time>2022-06-09T12:45:42Z</time>
      </trkpt>
      <trkpt lat="44.83193" lon="4.22575">
        <ele>1443</ele>
        <time>2022-06-09T12:45:43Z</time>
      </trkpt>
      <trkpt lat="44.83198" lon="4.22573">
        <ele>1442.7</ele>
        <time>2022-06-09T12:45:44Z</time>
      </trkpt>
      <trkpt lat="44.83202" lon="4.22572">
        <ele>1442.4</ele>
        <time>2022-06-09T12:45:45Z</time>
      </trkpt>
      <trkpt lat="44.83208" lon="4.2257">
        <ele>1442.1</ele>
        <time>2022-06-09T12:45:46Z</time>
      </trkpt>
      <trkpt lat="44.83213" lon="4.22568">
        <ele>1441.8</ele>
        <time>2022-06-09T12:45:47Z</time>
      </trkpt>
      <trkpt lat="44.83219" lon="4.22566">
        <ele>1441.4</ele>
        <time>2022-06-09T12:45:48Z</time>
      </trkpt>
      <trkpt lat="44.83225" lon="4.22565">
        <ele>1441</ele>
        <time>2022-06-09T12:45:49Z</time>
      </trkpt>
      <trkpt lat="44.83231" lon="4.22563">
        <ele>1440.6</ele>
        <time>2022-06-09T12:45:50Z</time>
      </trkpt>
      <trkpt lat="44.83238" lon="4.22562">
        <ele>1440.1</ele>
        <time>2022-06-09T12:45:51Z</time>
      </trkpt>
      <trkpt lat="44.83244" lon="4.2256">
        <ele>1439.6</ele>
        <time>2022-06-09T12:45:52Z</time>
      </trkpt>
      <trkpt lat="44.83251" lon="4.22558">
        <ele>1439.2</ele>
        <time>2022-06-09T12:45:53Z</time>
      </trkpt>
      <trkpt lat="44.83258" lon="4.22556">
        <ele>1438.7</ele>
        <time>2022-06-09T12:45:54Z</time>
      </trkpt>
      <trkpt lat="44.83265" lon="4.22554">
        <ele>1438.1</ele>
        <time>2022-06-09T12:45:55Z</time>
      </trkpt>
      <trkpt lat="44.83272" lon="4.22553">
        <ele>1437.6</ele>
        <time>2022-06-09T12:45:56Z</time>
      </trkpt>
      <trkpt lat="44.83279" lon="4.22552">
        <ele>1437</ele>
        <time>2022-06-09T12:45:57Z</time>
      </trkpt>
      <trkpt lat="44.83287" lon="4.22551">
        <ele>1436.5</ele>
        <time>2022-06-09T12:45:58Z</time>
      </trkpt>
      <trkpt lat="44.83294" lon="4.22549">
        <ele>1435.9</ele>
        <time>2022-06-09T12:45:59Z</time>
      </trkpt>
      <trkpt lat="44.83302" lon="4.22547">
        <ele>1435.3</ele>
        <time>2022-06-09T12:46:00Z</time>
      </trkpt>
      <trkpt lat="44.83309" lon="4.22545">
        <ele>1434.8</ele>
        <time>2022-06-09T12:46:01Z</time>
      </trkpt>
      <trkpt lat="44.83317" lon="4.22545">
        <ele>1434.2</ele>
        <time>2022-06-09T12:46:02Z</time>
      </trkpt>
      <trkpt lat="44.83326" lon="4.22544">
        <ele>1433.6</ele>
        <time>2022-06-09T12:46:03Z</time>
      </trkpt>
      <trkpt lat="44.83334" lon="4.22544">
        <ele>1433</ele>
        <time>2022-06-09T12:46:04Z</time>
      </trkpt>
      <trkpt lat="44.83343" lon="4.22544">
        <ele>1432.3</ele>
        <time>2022-06-09T12:46:05Z</time>
      </trkpt>
      <trkpt lat="44.83351" lon="4.22545">
        <ele>1431.6</ele>
        <time>2022-06-09T12:46:06Z</time>
      </trkpt>
      <trkpt lat="44.83359" lon="4.22546">
        <ele>1431</ele>
        <time>2022-06-09T12:46:07Z</time>
      </trkpt>
      <trkpt lat="44.83368" lon="4.22548">
        <ele>1430.3</ele>
        <time>2022-06-09T12:46:08Z</time>
      </trkpt>
      <trkpt lat="44.83376" lon="4.22551">
        <ele>1429.6</ele>
        <time>2022-06-09T12:46:09Z</time>
      </trkpt>
      <trkpt lat="44.83384" lon="4.22554">
        <ele>1428.9</ele>
        <time>2022-06-09T12:46:10Z</time>
      </trkpt>
      <trkpt lat="44.83392" lon="4.22559">
        <ele>1428.2</ele>
        <time>2022-06-09T12:46:11Z</time>
      </trkpt>
      <trkpt lat="44.834" lon="4.22564">
        <ele>1427.5</ele>
        <time>2022-06-09T12:46:12Z</time>
      </trkpt>
      <trkpt lat="44.83408" lon="4.22571">
        <ele>1426.9</ele>
        <time>2022-06-09T12:46:13Z</time>
      </trkpt>
      <trkpt lat="44.83416" lon="4.22579">
        <ele>1426.2</ele>
        <time>2022-06-09T12:46:14Z</time>
      </trkpt>
      <trkpt lat="44.83423" lon="4.22587">
        <ele>1425.6</ele>
        <time>2022-06-09T12:46:15Z</time>
      </trkpt>
      <trkpt lat="44.83431" lon="4.22595">
        <ele>1425</ele>
        <time>2022-06-09T12:46:16Z</time>
      </trkpt>
      <trkpt lat="44.83438" lon="4.22604">
        <ele>1424.5</ele>
        <time>2022-06-09T12:46:17Z</time>
      </trkpt>
      <trkpt lat="44.83446" lon="4.22611">
        <ele>1423.9</ele>
        <time>2022-06-09T12:46:18Z</time>
      </trkpt>
      <trkpt lat="44.83454" lon="4.22618">
        <ele>1423.4</ele>
        <time>2022-06-09T12:46:19Z</time>
      </trkpt>
      <trkpt lat="44.83463" lon="4.22624">
        <ele>1422.8</ele>
        <time>2022-06-09T12:46:20Z</time>
      </trkpt>
      <trkpt lat="44.83471" lon="4.22629">
        <ele>1422.2</ele>
        <time>2022-06-09T12:46:21Z</time>
      </trkpt>
      <trkpt lat="44.83481" lon="4.22633">
        <ele>1421.5</ele>
        <time>2022-06-09T12:46:22Z</time>
      </trkpt>
      <trkpt lat="44.8349" lon="4.22637">
        <ele>1420.8</ele>
        <time>2022-06-09T12:46:23Z</time>
      </trkpt>
      <trkpt lat="44.83499" lon="4.22639">
        <ele>1420.1</ele>
        <time>2022-06-09T12:46:24Z</time>
      </trkpt>
      <trkpt lat="44.83507" lon="4.2264">
        <ele>1419.5</ele>
        <time>2022-06-09T12:46:25Z</time>
      </trkpt>
      <trkpt lat="44.83514" lon="4.22641">
        <ele>1418.9</ele>
        <time>2022-06-09T12:46:26Z</time>
      </trkpt>
      <trkpt lat="44.83521" lon="4.22642">
        <ele>1418.5</ele>
        <time>2022-06-09T12:46:27Z</time>
      </trkpt>
      <trkpt lat="44.83527" lon="4.22644">
        <ele>1418.1</ele>
        <time>2022-06-09T12:46:28Z</time>
      </trkpt>
      <trkpt lat="44.83531" lon="4.22645">
        <ele>1417.7</ele>
        <time>2022-06-09T12:46:29Z</time>
      </trkpt>
      <trkpt lat="44.83535" lon="4.22645">
        <ele>1417.5</ele>
        <time>2022-06-09T12:46:30Z</time>
      </trkpt>
      <trkpt lat="44.8354" lon="4.22646">
        <ele>1417.2</ele>
        <time>2022-06-09T12:46:31Z</time>
      </trkpt>
      <trkpt lat="44.83542" lon="4.22646">
        <ele>1417</ele>
        <time>2022-06-09T12:46:32Z</time>
      </trkpt>
      <trkpt lat="44.83545" lon="4.22646">
        <ele>1416.8</ele>
        <time>2022-06-09T12:46:33Z</time>
      </trkpt>
      <trkpt lat="44.83547" lon="4.22646">
        <ele>1416.6</ele>
        <time>2022-06-09T12:46:34Z</time>
      </trkpt>
      <trkpt lat="44.83551" lon="4.22647">
        <ele>1416.4</ele>
        <time>2022-06-09T12:46:35Z</time>
      </trkpt>
      <trkpt lat="44.83552" lon="4.22647">
        <ele>1416.3</ele>
        <time>2022-06-09T12:46:36Z</time>
      </trkpt>
      <trkpt lat="44.83555" lon="4.22647">
        <ele>1416.1</ele>
        <time>2022-06-09T12:46:37Z</time>
      </trkpt>
      <trkpt lat="44.83556" lon="4.22647">
        <ele>1416</ele>
        <time>2022-06-09T12:46:38Z</time>
      </trkpt>
      <trkpt lat="44.83562" lon="4.22642">
        <ele>1415.6</ele>
        <time>2022-06-09T12:46:39Z</time>
      </trkpt>
      <trkpt lat="44.83564" lon="4.22641">
        <ele>1415.4</ele>
        <time>2022-06-09T12:46:40Z</time>
      </trkpt>
      <trkpt lat="44.83568" lon="4.22643">
        <ele>1415.1</ele>
        <time>2022-06-09T12:46:42Z</time>
      </trkpt>
      <trkpt lat="44.83568" lon="4.22643">
        <ele>1415.1</ele>
        <time>2022-06-09T12:46:44Z</time>
      </trkpt>
      <trkpt lat="44.83569" lon="4.22643">
        <ele>1415.1</ele>
        <time>2022-06-09T12:46:45Z</time>
      </trkpt>
      <trkpt lat="44.8357" lon="4.22644">
        <ele>1415</ele>
        <time>2022-06-09T12:46:46Z</time>
      </trkpt>
      <trkpt lat="44.8357" lon="4.22644">
        <ele>1415</ele>
        <time>2022-06-09T12:46:47Z</time>
      </trkpt>
      <trkpt lat="44.83571" lon="4.22644">
        <ele>1414.9</ele>
        <time>2022-06-09T12:46:48Z</time>
      </trkpt>
      <trkpt lat="44.83572" lon="4.22644">
        <ele>1414.9</ele>
        <time>2022-06-09T12:46:49Z</time>
      </trkpt>
      <trkpt lat="44.83572" lon="4.22644">
        <ele>1414.9</ele>
        <time>2022-06-09T12:46:50Z</time>
      </trkpt>
      <trkpt lat="44.83573" lon="4.22645">
        <ele>1414.8</ele>
        <time>2022-06-09T12:46:51Z</time>
      </trkpt>
      <trkpt lat="44.83573" lon="4.22645">
        <ele>1414.8</ele>
        <time>2022-06-09T12:46:53Z</time>
      </trkpt>
      <trkpt lat="44.83574" lon="4.22645">
        <ele>1414.7</ele>
        <time>2022-06-09T12:46:55Z</time>
      </trkpt>
      <trkpt lat="44.83575" lon="4.22645">
        <ele>1414.7</ele>
        <time>2022-06-09T12:47:17Z</time>
      </trkpt>
      <trkpt lat="44.83575" lon="4.22646">
        <ele>1414.7</ele>
        <time>2022-06-09T12:47:18Z</time>
      </trkpt>
      <trkpt lat="44.83576" lon="4.22646">
        <ele>1414.6</ele>
        <time>2022-06-09T12:47:19Z</time>
      </trkpt>
      <trkpt lat="44.8358" lon="4.22647">
        <ele>1414.3</ele>
        <time>2022-06-09T12:47:21Z</time>
      </trkpt>
      <trkpt lat="44.83586" lon="4.22648">
        <ele>1414</ele>
        <time>2022-06-09T12:47:22Z</time>
      </trkpt>
      <trkpt lat="44.8359" lon="4.22649">
        <ele>1413.8</ele>
        <time>2022-06-09T12:47:24Z</time>
      </trkpt>
      <trkpt lat="44.83595" lon="4.2265">
        <ele>1413.5</ele>
        <time>2022-06-09T12:47:25Z</time>
      </trkpt>
      <trkpt lat="44.836" lon="4.22652">
        <ele>1413.2</ele>
        <time>2022-06-09T12:47:26Z</time>
      </trkpt>
      <trkpt lat="44.83605" lon="4.22653">
        <ele>1413</ele>
        <time>2022-06-09T12:47:27Z</time>
      </trkpt>
      <trkpt lat="44.83614" lon="4.22654">
        <ele>1412.4</ele>
        <time>2022-06-09T12:47:29Z</time>
      </trkpt>
      <trkpt lat="44.83622" lon="4.22655">
        <ele>1412</ele>
        <time>2022-06-09T12:47:31Z</time>
      </trkpt>
      <trkpt lat="44.83627" lon="4.22656">
        <ele>1411.7</ele>
        <time>2022-06-09T12:47:32Z</time>
      </trkpt>
      <trkpt lat="44.83633" lon="4.22657">
        <ele>1411.4</ele>
        <time>2022-06-09T12:47:33Z</time>
      </trkpt>
      <trkpt lat="44.83638" lon="4.22658">
        <ele>1411.1</ele>
        <time>2022-06-09T12:47:34Z</time>
      </trkpt>
      <trkpt lat="44.83644" lon="4.22658">
        <ele>1410.8</ele>
        <time>2022-06-09T12:47:35Z</time>
      </trkpt>
      <trkpt lat="44.83649" lon="4.22659">
        <ele>1410.5</ele>
        <time>2022-06-09T12:47:36Z</time>
      </trkpt>
      <trkpt lat="44.83655" lon="4.2266">
        <ele>1410.3</ele>
        <time>2022-06-09T12:47:37Z</time>
      </trkpt>
      <trkpt lat="44.8366" lon="4.22661">
        <ele>1410</ele>
        <time>2022-06-09T12:47:38Z</time>
      </trkpt>
      <trkpt lat="44.83666" lon="4.22662">
        <ele>1409.8</ele>
        <time>2022-06-09T12:47:39Z</time>
      </trkpt>
      <trkpt lat="44.83672" lon="4.22662">
        <ele>1409.6</ele>
        <time>2022-06-09T12:47:40Z</time>
      </trkpt>
      <trkpt lat="44.83677" lon="4.22663">
        <ele>1409.3</ele>
        <time>2022-06-09T12:47:41Z</time>
      </trkpt>
      <trkpt lat="44.83683" lon="4.22663">
        <ele>1409.1</ele>
        <time>2022-06-09T12:47:42Z</time>
      </trkpt>
      <trkpt lat="44.83689" lon="4.22664">
        <ele>1408.9</ele>
        <time>2022-06-09T12:47:43Z</time>
      </trkpt>
      <trkpt lat="44.83695" lon="4.22666">
        <ele>1408.7</ele>
        <time>2022-06-09T12:47:44Z</time>
      </trkpt>
      <trkpt lat="44.83701" lon="4.22667">
        <ele>1408.5</ele>
        <time>2022-06-09T12:47:45Z</time>
      </trkpt>
      <trkpt lat="44.83707" lon="4.22668">
        <ele>1408.3</ele>
        <time>2022-06-09T12:47:46Z</time>
      </trkpt>
      <trkpt lat="44.83713" lon="4.22669">
        <ele>1408.2</ele>
        <time>2022-06-09T12:47:47Z</time>
      </trkpt>
      <trkpt lat="44.83719" lon="4.22669">
        <ele>1408</ele>
        <time>2022-06-09T12:47:48Z</time>
      </trkpt>
      <trkpt lat="44.83725" lon="4.2267">
        <ele>1407.9</ele>
        <time>2022-06-09T12:47:49Z</time>
      </trkpt>
      <trkpt lat="44.83731" lon="4.22671">
        <ele>1407.8</ele>
        <time>2022-06-09T12:47:50Z</time>
      </trkpt>
      <trkpt lat="44.83736" lon="4.22672">
        <ele>1407.7</ele>
        <time>2022-06-09T12:47:51Z</time>
      </trkpt>
      <trkpt lat="44.83742" lon="4.22673">
        <ele>1407.6</ele>
        <time>2022-06-09T12:47:52Z</time>
      </trkpt>
      <trkpt lat="44.83747" lon="4.22674">
        <ele>1407.6</ele>
        <time>2022-06-09T12:47:53Z</time>
      </trkpt>
      <trkpt lat="44.83752" lon="4.22674">
        <ele>1407.5</ele>
        <time>2022-06-09T12:47:54Z</time>
      </trkpt>
      <trkpt lat="44.83757" lon="4.22675">
        <ele>1407.5</ele>
        <time>2022-06-09T12:47:55Z</time>
      </trkpt>
      <trkpt lat="44.83763" lon="4.22676">
        <ele>1407.4</ele>
        <time>2022-06-09T12:47:56Z</time>
      </trkpt>
      <trkpt lat="44.83768" lon="4.22677">
        <ele>1407.4</ele>
        <time>2022-06-09T12:47:57Z</time>
      </trkpt>
      <trkpt lat="44.83773" lon="4.22677">
        <ele>1407.4</ele>
        <time>2022-06-09T12:47:58Z</time>
      </trkpt>
      <trkpt lat="44.83779" lon="4.22678">
        <ele>1407.4</ele>
        <time>2022-06-09T12:47:59Z</time>
      </trkpt>
      <trkpt lat="44.83784" lon="4.22679">
        <ele>1407.4</ele>
        <time>2022-06-09T12:48:00Z</time>
      </trkpt>
      <trkpt lat="44.8379" lon="4.2268">
        <ele>1407.5</ele>
        <time>2022-06-09T12:48:01Z</time>
      </trkpt>
      <trkpt lat="44.83795" lon="4.2268">
        <ele>1407.5</ele>
        <time>2022-06-09T12:48:02Z</time>
      </trkpt>
      <trkpt lat="44.838" lon="4.22681">
        <ele>1407.6</ele>
        <time>2022-06-09T12:48:03Z</time>
      </trkpt>
      <trkpt lat="44.83805" lon="4.22682">
        <ele>1407.8</ele>
        <time>2022-06-09T12:48:04Z</time>
      </trkpt>
      <trkpt lat="44.8381" lon="4.22682">
        <ele>1407.9</ele>
        <time>2022-06-09T12:48:05Z</time>
      </trkpt>
      <trkpt lat="44.83814" lon="4.22683">
        <ele>1408</ele>
        <time>2022-06-09T12:48:06Z</time>
      </trkpt>
      <trkpt lat="44.83817" lon="4.22683">
        <ele>1408.1</ele>
        <time>2022-06-09T12:48:07Z</time>
      </trkpt>
      <trkpt lat="44.83821" lon="4.22684">
        <ele>1408.2</ele>
        <time>2022-06-09T12:48:08Z</time>
      </trkpt>
      <trkpt lat="44.83825" lon="4.22685">
        <ele>1408.4</ele>
        <time>2022-06-09T12:48:09Z</time>
      </trkpt>
      <trkpt lat="44.83826" lon="4.22685">
        <ele>1408.4</ele>
        <time>2022-06-09T12:48:10Z</time>
      </trkpt>
      <trkpt lat="44.83829" lon="4.22684">
        <ele>1408.4</ele>
        <time>2022-06-09T12:48:11Z</time>
      </trkpt>
      <trkpt lat="44.8383" lon="4.22683">
        <ele>1408.4</ele>
        <time>2022-06-09T12:48:12Z</time>
      </trkpt>
      <trkpt lat="44.83831" lon="4.2268">
        <ele>1408.4</ele>
        <time>2022-06-09T12:48:13Z</time>
      </trkpt>
      <trkpt lat="44.83831" lon="4.22679">
        <ele>1408.4</ele>
        <time>2022-06-09T12:48:14Z</time>
      </trkpt>
      <trkpt lat="44.83831" lon="4.22678">
        <ele>1408.4</ele>
        <time>2022-06-09T12:48:15Z</time>
      </trkpt>
      <trkpt lat="44.83831" lon="4.22677">
        <ele>1408.4</ele>
        <time>2022-06-09T12:48:16Z</time>
      </trkpt>
      <trkpt lat="44.83832" lon="4.22677">
        <ele>1408.4</ele>
        <time>2022-06-09T12:48:17Z</time>
      </trkpt>
      <trkpt lat="44.83832" lon="4.22678">
        <ele>1408.4</ele>
        <time>2022-06-09T12:48:18Z</time>
      </trkpt>
      <trkpt lat="44.83832" lon="4.22677">
        <ele>1408.4</ele>
        <time>2022-06-09T12:48:19Z</time>
      </trkpt>
      <trkpt lat="44.83832" lon="4.22677">
        <ele>1408.4</ele>
        <time>2022-06-09T12:48:20Z</time>
      </trkpt>
      <trkpt lat="44.83831" lon="4.22677">
        <ele>1408.4</ele>
        <time>2022-06-09T12:48:21Z</time>
      </trkpt>
      <trkpt lat="44.83831" lon="4.22677">
        <ele>1408.4</ele>
        <time>2022-06-09T12:48:22Z</time>
      </trkpt>
      <trkpt lat="44.83831" lon="4.22676">
        <ele>1408.4</ele>
        <time>2022-06-09T12:48:24Z</time>
      </trkpt>
      <trkpt lat="44.83831" lon="4.22676">
        <ele>1408.4</ele>
        <time>2022-06-09T12:48:25Z</time>
      </trkpt>
      <trkpt lat="44.83831" lon="4.22676">
        <ele>1408.4</ele>
        <time>2022-06-09T12:48:26Z</time>
      </trkpt>
      <trkpt lat="44.83831" lon="4.22676">
        <ele>1408.4</ele>
        <time>2022-06-09T12:48:27Z</time>
      </trkpt>
      <trkpt lat="44.83831" lon="4.22675">
        <ele>1408.4</ele>
        <time>2022-06-09T12:48:28Z</time>
      </trkpt>
      <trkpt lat="44.83831" lon="4.22675">
        <ele>1408.4</ele>
        <time>2022-06-09T12:48:29Z</time>
      </trkpt>
      <trkpt lat="44.83831" lon="4.22675">
        <ele>1408.4</ele>
        <time>2022-06-09T12:48:30Z</time>
      </trkpt>
      <trkpt lat="44.83831" lon="4.22675">
        <ele>1408.4</ele>
        <time>2022-06-09T12:48:31Z</time>
      </trkpt>
      <trkpt lat="44.83831" lon="4.22675">
        <ele>1408.4</ele>
        <time>2022-06-09T12:48:32Z</time>
      </trkpt>
      <trkpt lat="44.83829" lon="4.22678">
        <ele>1408.4</ele>
        <time>2022-06-09T12:50:56Z</time>
      </trkpt>
      <trkpt lat="44.83828" lon="4.2268">
        <ele>1408.4</ele>
        <time>2022-06-09T12:50:58Z</time>
      </trkpt>
      <trkpt lat="44.83827" lon="4.22682">
        <ele>1408.4</ele>
        <time>2022-06-09T12:50:59Z</time>
      </trkpt>
      <trkpt lat="44.83826" lon="4.22685">
        <ele>1408.4</ele>
        <time>2022-06-09T12:51:00Z</time>
      </trkpt>
      <trkpt lat="44.83825" lon="4.22686">
        <ele>1408.4</ele>
        <time>2022-06-09T12:51:01Z</time>
      </trkpt>
      <trkpt lat="44.83825" lon="4.22689">
        <ele>1408.4</ele>
        <time>2022-06-09T12:51:02Z</time>
      </trkpt>
      <trkpt lat="44.83825" lon="4.22693">
        <ele>1408.4</ele>
        <time>2022-06-09T12:51:04Z</time>
      </trkpt>
      <trkpt lat="44.83825" lon="4.22695">
        <ele>1408.4</ele>
        <time>2022-06-09T12:51:05Z</time>
      </trkpt>
      <trkpt lat="44.83826" lon="4.22697">
        <ele>1408.4</ele>
        <time>2022-06-09T12:51:07Z</time>
      </trkpt>
      <trkpt lat="44.83826" lon="4.227">
        <ele>1408.4</ele>
        <time>2022-06-09T12:51:08Z</time>
      </trkpt>
      <trkpt lat="44.83826" lon="4.22702">
        <ele>1408.4</ele>
        <time>2022-06-09T12:51:10Z</time>
      </trkpt>
      <trkpt lat="44.83826" lon="4.22705">
        <ele>1408.4</ele>
        <time>2022-06-09T12:51:11Z</time>
      </trkpt>
      <trkpt lat="44.83829" lon="4.22708">
        <ele>1408.4</ele>
        <time>2022-06-09T12:51:13Z</time>
      </trkpt>
      <trkpt lat="44.83831" lon="4.22708">
        <ele>1408.4</ele>
        <time>2022-06-09T12:51:15Z</time>
      </trkpt>
      <trkpt lat="44.83831" lon="4.22708">
        <ele>1408.4</ele>
        <time>2022-06-09T12:51:16Z</time>
      </trkpt>
      <trkpt lat="44.83833" lon="4.22708">
        <ele>1408.4</ele>
        <time>2022-06-09T12:51:17Z</time>
      </trkpt>
      <trkpt lat="44.83834" lon="4.22707">
        <ele>1408.4</ele>
        <time>2022-06-09T12:51:18Z</time>
      </trkpt>
      <trkpt lat="44.83835" lon="4.22707">
        <ele>1408.4</ele>
        <time>2022-06-09T12:51:19Z</time>
      </trkpt>
      <trkpt lat="44.83836" lon="4.22708">
        <ele>1408.4</ele>
        <time>2022-06-09T12:51:21Z</time>
      </trkpt>
      <trkpt lat="44.83836" lon="4.22708">
        <ele>1408.4</ele>
        <time>2022-06-09T12:51:22Z</time>
      </trkpt>
      <trkpt lat="44.83836" lon="4.22708">
        <ele>1408.4</ele>
        <time>2022-06-09T12:51:23Z</time>
      </trkpt>
      <trkpt lat="44.83836" lon="4.22708">
        <ele>1408.4</ele>
        <time>2022-06-09T12:51:24Z</time>
      </trkpt>
      <trkpt lat="44.83836" lon="4.22708">
        <ele>1408.4</ele>
        <time>2022-06-09T12:51:25Z</time>
      </trkpt>
      <trkpt lat="44.83835" lon="4.22707">
        <ele>1408.4</ele>
        <time>2022-06-09T12:51:27Z</time>
      </trkpt>
      <trkpt lat="44.83835" lon="4.22707">
        <ele>1408.4</ele>
        <time>2022-06-09T12:51:28Z</time>
      </trkpt>
      <trkpt lat="44.83835" lon="4.22707">
        <ele>1408.4</ele>
        <time>2022-06-09T12:51:29Z</time>
      </trkpt>
      <trkpt lat="44.83835" lon="4.22707">
        <ele>1408.4</ele>
        <time>2022-06-09T12:51:30Z</time>
      </trkpt>
      <trkpt lat="44.83835" lon="4.22707">
        <ele>1408.4</ele>
        <time>2022-06-09T12:51:32Z</time>
      </trkpt>
      <trkpt lat="44.83835" lon="4.22707">
        <ele>1408.4</ele>
        <time>2022-06-09T12:51:33Z</time>
      </trkpt>
      <trkpt lat="44.83835" lon="4.22707">
        <ele>1408.4</ele>
        <time>2022-06-09T12:51:34Z</time>
      </trkpt>
      <trkpt lat="44.83834" lon="4.22708">
        <ele>1408.4</ele>
        <time>2022-06-09T12:51:35Z</time>
      </trkpt>
      <trkpt lat="44.83834" lon="4.22708">
        <ele>1408.4</ele>
        <time>2022-06-09T12:51:36Z</time>
      </trkpt>
      <trkpt lat="44.83834" lon="4.22708">
        <ele>1408.4</ele>
        <time>2022-06-09T12:51:37Z</time>
      </trkpt>
      <trkpt lat="44.83833" lon="4.22708">
        <ele>1408.4</ele>
        <time>2022-06-09T12:51:38Z</time>
      </trkpt>
      <trkpt lat="44.83833" lon="4.22707">
        <ele>1408.4</ele>
        <time>2022-06-09T12:51:39Z</time>
      </trkpt>
      <trkpt lat="44.83833" lon="4.22707">
        <ele>1408.4</ele>
        <time>2022-06-09T12:51:41Z</time>
      </trkpt>
      <trkpt lat="44.83833" lon="4.22706">
        <ele>1408.4</ele>
        <time>2022-06-09T12:51:42Z</time>
      </trkpt>
      <trkpt lat="44.83833" lon="4.22705">
        <ele>1408.4</ele>
        <time>2022-06-09T12:51:43Z</time>
      </trkpt>
      <trkpt lat="44.83833" lon="4.22704">
        <ele>1408.4</ele>
        <time>2022-06-09T12:51:44Z</time>
      </trkpt>
      <trkpt lat="44.83834" lon="4.22703">
        <ele>1408.4</ele>
        <time>2022-06-09T12:51:45Z</time>
      </trkpt>
      <trkpt lat="44.83834" lon="4.22701">
        <ele>1408.4</ele>
        <time>2022-06-09T12:51:46Z</time>
      </trkpt>
      <trkpt lat="44.83834" lon="4.22699">
        <ele>1408.4</ele>
        <time>2022-06-09T12:51:49Z</time>
      </trkpt>
      <trkpt lat="44.83834" lon="4.22698">
        <ele>1408.4</ele>
        <time>2022-06-09T12:51:50Z</time>
      </trkpt>
      <trkpt lat="44.83834" lon="4.22698">
        <ele>1408.4</ele>
        <time>2022-06-09T12:51:51Z</time>
      </trkpt>
      <trkpt lat="44.83834" lon="4.22698">
        <ele>1408.4</ele>
        <time>2022-06-09T12:51:52Z</time>
      </trkpt>
      <trkpt lat="44.83834" lon="4.22698">
        <ele>1408.4</ele>
        <time>2022-06-09T12:51:53Z</time>
      </trkpt>
      <trkpt lat="44.83834" lon="4.22698">
        <ele>1408.4</ele>
        <time>2022-06-09T12:51:54Z</time>
      </trkpt>
      <trkpt lat="44.83834" lon="4.22698">
        <ele>1408.4</ele>
        <time>2022-06-09T12:51:55Z</time>
      </trkpt>
      <trkpt lat="44.83834" lon="4.22698">
        <ele>1408.4</ele>
        <time>2022-06-09T12:51:56Z</time>
      </trkpt>
      <trkpt lat="44.83833" lon="4.22698">
        <ele>1408.4</ele>
        <time>2022-06-09T12:51:57Z</time>
      </trkpt>
      <trkpt lat="44.83833" lon="4.22698">
        <ele>1408.4</ele>
        <time>2022-06-09T12:51:58Z</time>
      </trkpt>
      <trkpt lat="44.83833" lon="4.22698">
        <ele>1408.4</ele>
        <time>2022-06-09T12:51:59Z</time>
      </trkpt>
      <trkpt lat="44.83832" lon="4.22696">
        <ele>1408.4</ele>
        <time>2022-06-09T12:53:26Z</time>
      </trkpt>
      <trkpt lat="44.83832" lon="4.22695">
        <ele>1408.4</ele>
        <time>2022-06-09T12:53:27Z</time>
      </trkpt>
      <trkpt lat="44.83832" lon="4.22694">
        <ele>1408.4</ele>
        <time>2022-06-09T12:53:28Z</time>
      </trkpt>
      <trkpt lat="44.83831" lon="4.22692">
        <ele>1408.4</ele>
        <time>2022-06-09T12:53:29Z</time>
      </trkpt>
      <trkpt lat="44.83831" lon="4.22689">
        <ele>1408.4</ele>
        <time>2022-06-09T12:53:30Z</time>
      </trkpt>
      <trkpt lat="44.83831" lon="4.22687">
        <ele>1408.4</ele>
        <time>2022-06-09T12:53:31Z</time>
      </trkpt>
      <trkpt lat="44.83831" lon="4.22685">
        <ele>1408.4</ele>
        <time>2022-06-09T12:53:32Z</time>
      </trkpt>
      <trkpt lat="44.83831" lon="4.22683">
        <ele>1408.4</ele>
        <time>2022-06-09T12:53:33Z</time>
      </trkpt>
      <trkpt lat="44.83828" lon="4.22679">
        <ele>1409.2</ele>
        <time>2022-06-09T12:53:35Z</time>
      </trkpt>
      <trkpt lat="44.83827" lon="4.22678">
        <ele>1409</ele>
        <time>2022-06-09T12:53:36Z</time>
      </trkpt>
      <trkpt lat="44.83827" lon="4.22677">
        <ele>1408.9</ele>
        <time>2022-06-09T12:53:38Z</time>
      </trkpt>
      <trkpt lat="44.83826" lon="4.22676">
        <ele>1408.7</ele>
        <time>2022-06-09T12:53:39Z</time>
      </trkpt>
      <trkpt lat="44.83826" lon="4.22675">
        <ele>1408.6</ele>
        <time>2022-06-09T12:53:40Z</time>
      </trkpt>
      <trkpt lat="44.83825" lon="4.22674">
        <ele>1408.5</ele>
        <time>2022-06-09T12:53:41Z</time>
      </trkpt>
      <trkpt lat="44.83825" lon="4.22673">
        <ele>1408.4</ele>
        <time>2022-06-09T12:53:42Z</time>
      </trkpt>
      <trkpt lat="44.83824" lon="4.22672">
        <ele>1408.2</ele>
        <time>2022-06-09T12:53:43Z</time>
      </trkpt>
      <trkpt lat="44.83823" lon="4.22669">
        <ele>1408</ele>
        <time>2022-06-09T12:53:44Z</time>
      </trkpt>
      <trkpt lat="44.83823" lon="4.22669">
        <ele>1407.9</ele>
        <time>2022-06-09T12:53:45Z</time>
      </trkpt>
      <trkpt lat="44.83823" lon="4.22668">
        <ele>1407.8</ele>
        <time>2022-06-09T12:53:47Z</time>
      </trkpt>
      <trkpt lat="44.83823" lon="4.22668">
        <ele>1407.7</ele>
        <time>2022-06-09T12:53:48Z</time>
      </trkpt>
      <trkpt lat="44.83823" lon="4.22667">
        <ele>1407.7</ele>
        <time>2022-06-09T12:53:49Z</time>
      </trkpt>
      <trkpt lat="44.83822" lon="4.22665">
        <ele>1407.4</ele>
        <time>2022-06-09T12:53:50Z</time>
      </trkpt>
      <trkpt lat="44.83822" lon="4.22663">
        <ele>1407.2</ele>
        <time>2022-06-09T12:53:51Z</time>
      </trkpt>
      <trkpt lat="44.83821" lon="4.22661">
        <ele>1407</ele>
        <time>2022-06-09T12:53:52Z</time>
      </trkpt>
      <trkpt lat="44.8382" lon="4.2266">
        <ele>1406.8</ele>
        <time>2022-06-09T12:53:53Z</time>
      </trkpt>
      <trkpt lat="44.8382" lon="4.22659">
        <ele>1406.7</ele>
        <time>2022-06-09T12:53:54Z</time>
      </trkpt>
      <trkpt lat="44.8382" lon="4.22657">
        <ele>1406.6</ele>
        <time>2022-06-09T12:53:55Z</time>
      </trkpt>
      <trkpt lat="44.8382" lon="4.22654">
        <ele>1406.3</ele>
        <time>2022-06-09T12:53:57Z</time>
      </trkpt>
      <trkpt lat="44.8382" lon="4.22653">
        <ele>1406.2</ele>
        <time>2022-06-09T12:53:58Z</time>
      </trkpt>
      <trkpt lat="44.8382" lon="4.22651">
        <ele>1406</ele>
        <time>2022-06-09T12:53:59Z</time>
      </trkpt>
      <trkpt lat="44.8382" lon="4.22649">
        <ele>1405.9</ele>
        <time>2022-06-09T12:54:00Z</time>
      </trkpt>
      <trkpt lat="44.8382" lon="4.22648">
        <ele>1405.8</ele>
        <time>2022-06-09T12:54:01Z</time>
      </trkpt>
      <trkpt lat="44.8382" lon="4.22646">
        <ele>1405.7</ele>
        <time>2022-06-09T12:54:02Z</time>
      </trkpt>
      <trkpt lat="44.83821" lon="4.22645">
        <ele>1405.5</ele>
        <time>2022-06-09T12:54:03Z</time>
      </trkpt>
      <trkpt lat="44.83821" lon="4.22644">
        <ele>1405.4</ele>
        <time>2022-06-09T12:54:04Z</time>
      </trkpt>
      <trkpt lat="44.83822" lon="4.22642">
        <ele>1405.4</ele>
        <time>2022-06-09T12:54:05Z</time>
      </trkpt>
      <trkpt lat="44.83822" lon="4.22641">
        <ele>1405.3</ele>
        <time>2022-06-09T12:54:07Z</time>
      </trkpt>
      <trkpt lat="44.83823" lon="4.2264">
        <ele>1405.2</ele>
        <time>2022-06-09T12:54:08Z</time>
      </trkpt>
      <trkpt lat="44.83823" lon="4.22638">
        <ele>1405.1</ele>
        <time>2022-06-09T12:54:09Z</time>
      </trkpt>
      <trkpt lat="44.83824" lon="4.22637">
        <ele>1405</ele>
        <time>2022-06-09T12:54:10Z</time>
      </trkpt>
      <trkpt lat="44.83824" lon="4.22634">
        <ele>1404.9</ele>
        <time>2022-06-09T12:54:11Z</time>
      </trkpt>
      <trkpt lat="44.83824" lon="4.22633">
        <ele>1404.9</ele>
        <time>2022-06-09T12:54:12Z</time>
      </trkpt>
      <trkpt lat="44.83824" lon="4.22632">
        <ele>1404.8</ele>
        <time>2022-06-09T12:54:13Z</time>
      </trkpt>
      <trkpt lat="44.83823" lon="4.2263">
        <ele>1404.8</ele>
        <time>2022-06-09T12:54:14Z</time>
      </trkpt>
      <trkpt lat="44.83823" lon="4.22629">
        <ele>1404.7</ele>
        <time>2022-06-09T12:54:15Z</time>
      </trkpt>
      <trkpt lat="44.83823" lon="4.22627">
        <ele>1404.6</ele>
        <time>2022-06-09T12:54:16Z</time>
      </trkpt>
      <trkpt lat="44.83823" lon="4.22625">
        <ele>1404.6</ele>
        <time>2022-06-09T12:54:17Z</time>
      </trkpt>
      <trkpt lat="44.83823" lon="4.22623">
        <ele>1404.5</ele>
        <time>2022-06-09T12:54:18Z</time>
      </trkpt>
      <trkpt lat="44.83823" lon="4.22621">
        <ele>1404.4</ele>
        <time>2022-06-09T12:54:20Z</time>
      </trkpt>
      <trkpt lat="44.83823" lon="4.22619">
        <ele>1404.4</ele>
        <time>2022-06-09T12:54:22Z</time>
      </trkpt>
      <trkpt lat="44.83824" lon="4.22618">
        <ele>1404.4</ele>
        <time>2022-06-09T12:54:23Z</time>
      </trkpt>
      <trkpt lat="44.83824" lon="4.22617">
        <ele>1404.3</ele>
        <time>2022-06-09T12:54:24Z</time>
      </trkpt>
      <trkpt lat="44.83825" lon="4.22616">
        <ele>1404.3</ele>
        <time>2022-06-09T12:54:25Z</time>
      </trkpt>
      <trkpt lat="44.83825" lon="4.22615">
        <ele>1404.2</ele>
        <time>2022-06-09T12:54:26Z</time>
      </trkpt>
      <trkpt lat="44.83825" lon="4.22613">
        <ele>1404.2</ele>
        <time>2022-06-09T12:54:27Z</time>
      </trkpt>
      <trkpt lat="44.83826" lon="4.22612">
        <ele>1404.2</ele>
        <time>2022-06-09T12:54:28Z</time>
      </trkpt>
      <trkpt lat="44.83826" lon="4.22611">
        <ele>1404.1</ele>
        <time>2022-06-09T12:54:30Z</time>
      </trkpt>
      <trkpt lat="44.83826" lon="4.2261">
        <ele>1404.1</ele>
        <time>2022-06-09T12:54:31Z</time>
      </trkpt>
      <trkpt lat="44.83826" lon="4.22609">
        <ele>1404.1</ele>
        <time>2022-06-09T12:54:32Z</time>
      </trkpt>
      <trkpt lat="44.83827" lon="4.22607">
        <ele>1404</ele>
        <time>2022-06-09T12:54:33Z</time>
      </trkpt>
      <trkpt lat="44.83827" lon="4.22606">
        <ele>1404</ele>
        <time>2022-06-09T12:54:34Z</time>
      </trkpt>
      <trkpt lat="44.83827" lon="4.22604">
        <ele>1403.9</ele>
        <time>2022-06-09T12:54:35Z</time>
      </trkpt>
      <trkpt lat="44.83828" lon="4.22601">
        <ele>1403.8</ele>
        <time>2022-06-09T12:54:37Z</time>
      </trkpt>
      <trkpt lat="44.83828" lon="4.22599">
        <ele>1403.7</ele>
        <time>2022-06-09T12:54:39Z</time>
      </trkpt>
      <trkpt lat="44.83829" lon="4.22598">
        <ele>1403.7</ele>
        <time>2022-06-09T12:54:40Z</time>
      </trkpt>
      <trkpt lat="44.83829" lon="4.22597">
        <ele>1403.6</ele>
        <time>2022-06-09T12:54:41Z</time>
      </trkpt>
      <trkpt lat="44.8383" lon="4.22595">
        <ele>1403.6</ele>
        <time>2022-06-09T12:54:42Z</time>
      </trkpt>
      <trkpt lat="44.83831" lon="4.22594">
        <ele>1403.5</ele>
        <time>2022-06-09T12:54:43Z</time>
      </trkpt>
      <trkpt lat="44.83831" lon="4.22593">
        <ele>1403.4</ele>
        <time>2022-06-09T12:54:44Z</time>
      </trkpt>
      <trkpt lat="44.83832" lon="4.22592">
        <ele>1403.4</ele>
        <time>2022-06-09T12:54:45Z</time>
      </trkpt>
      <trkpt lat="44.83833" lon="4.22591">
        <ele>1403.4</ele>
        <time>2022-06-09T12:54:47Z</time>
      </trkpt>
      <trkpt lat="44.83833" lon="4.22591">
        <ele>1403.3</ele>
        <time>2022-06-09T12:54:48Z</time>
      </trkpt>
      <trkpt lat="44.83833" lon="4.2259">
        <ele>1403.3</ele>
        <time>2022-06-09T12:54:49Z</time>
      </trkpt>
      <trkpt lat="44.83833" lon="4.2259">
        <ele>1403.3</ele>
        <time>2022-06-09T12:54:50Z</time>
      </trkpt>
      <trkpt lat="44.83833" lon="4.22589">
        <ele>1403.3</ele>
        <time>2022-06-09T12:54:51Z</time>
      </trkpt>
      <trkpt lat="44.83834" lon="4.22589">
        <ele>1403.3</ele>
        <time>2022-06-09T12:54:52Z</time>
      </trkpt>
      <trkpt lat="44.83834" lon="4.22588">
        <ele>1403.2</ele>
        <time>2022-06-09T12:54:53Z</time>
      </trkpt>
      <trkpt lat="44.83834" lon="4.22588">
        <ele>1403.2</ele>
        <time>2022-06-09T12:54:54Z</time>
      </trkpt>
      <trkpt lat="44.83834" lon="4.22587">
        <ele>1403.2</ele>
        <time>2022-06-09T12:54:55Z</time>
      </trkpt>
      <trkpt lat="44.83834" lon="4.22587">
        <ele>1403.2</ele>
        <time>2022-06-09T12:54:56Z</time>
      </trkpt>
      <trkpt lat="44.83834" lon="4.22587">
        <ele>1403.2</ele>
        <time>2022-06-09T12:54:57Z</time>
      </trkpt>
      <trkpt lat="44.83834" lon="4.22587">
        <ele>1403.1</ele>
        <time>2022-06-09T12:54:58Z</time>
      </trkpt>
      <trkpt lat="44.83833" lon="4.22587">
        <ele>1403.1</ele>
        <time>2022-06-09T12:54:59Z</time>
      </trkpt>
      <trkpt lat="44.83833" lon="4.22587">
        <ele>1403.1</ele>
        <time>2022-06-09T12:55:01Z</time>
      </trkpt>
      <trkpt lat="44.83833" lon="4.22587">
        <ele>1403.1</ele>
        <time>2022-06-09T12:55:02Z</time>
      </trkpt>
      <trkpt lat="44.83833" lon="4.22587">
        <ele>1403.1</ele>
        <time>2022-06-09T12:55:03Z</time>
      </trkpt>
      <trkpt lat="44.83833" lon="4.22587">
        <ele>1403.1</ele>
        <time>2022-06-09T12:55:04Z</time>
      </trkpt>
      <trkpt lat="44.83833" lon="4.22587">
        <ele>1403.1</ele>
        <time>2022-06-09T12:55:05Z</time>
      </trkpt>
      <trkpt lat="44.83833" lon="4.22586">
        <ele>1403.1</ele>
        <time>2022-06-09T12:55:06Z</time>
      </trkpt>
      <trkpt lat="44.83831" lon="4.22582">
        <ele>1402.9</ele>
        <time>2022-06-09T12:55:21Z</time>
      </trkpt>
      <trkpt lat="44.8383" lon="4.22581">
        <ele>1402.9</ele>
        <time>2022-06-09T12:55:23Z</time>
      </trkpt>
      <trkpt lat="44.8383" lon="4.22581">
        <ele>1402.9</ele>
        <time>2022-06-09T12:55:24Z</time>
      </trkpt>
      <trkpt lat="44.83829" lon="4.2258">
        <ele>1402.8</ele>
        <time>2022-06-09T12:55:26Z</time>
      </trkpt>
      <trkpt lat="44.83829" lon="4.2258">
        <ele>1402.8</ele>
        <time>2022-06-09T12:55:27Z</time>
      </trkpt>
      <trkpt lat="44.83829" lon="4.2258">
        <ele>1402.8</ele>
        <time>2022-06-09T12:55:28Z</time>
      </trkpt>
      <trkpt lat="44.83829" lon="4.2258">
        <ele>1402.8</ele>
        <time>2022-06-09T12:55:29Z</time>
      </trkpt>
      <trkpt lat="44.83829" lon="4.2258">
        <ele>1402.8</ele>
        <time>2022-06-09T12:55:30Z</time>
      </trkpt>
      <trkpt lat="44.83829" lon="4.2258">
        <ele>1402.8</ele>
        <time>2022-06-09T12:55:31Z</time>
      </trkpt>
      <trkpt lat="44.83829" lon="4.2258">
        <ele>1402.8</ele>
        <time>2022-06-09T12:55:32Z</time>
      </trkpt>
      <trkpt lat="44.83828" lon="4.2258">
        <ele>1402.8</ele>
        <time>2022-06-09T12:55:33Z</time>
      </trkpt>
      <trkpt lat="44.83828" lon="4.2258">
        <ele>1402.8</ele>
        <time>2022-06-09T12:55:34Z</time>
      </trkpt>
      <trkpt lat="44.83831" lon="4.22586">
        <ele>1402.6</ele>
        <time>2022-06-09T12:56:51Z</time>
      </trkpt>
      <trkpt lat="44.83833" lon="4.22587">
        <ele>1402.5</ele>
        <time>2022-06-09T12:56:52Z</time>
      </trkpt>
      <trkpt lat="44.83834" lon="4.22586">
        <ele>1402.5</ele>
        <time>2022-06-09T12:56:54Z</time>
      </trkpt>
      <trkpt lat="44.83835" lon="4.22585">
        <ele>1402.4</ele>
        <time>2022-06-09T12:56:55Z</time>
      </trkpt>
      <trkpt lat="44.83837" lon="4.22584">
        <ele>1402.4</ele>
        <time>2022-06-09T12:56:56Z</time>
      </trkpt>
      <trkpt lat="44.83839" lon="4.22582">
        <ele>1402.3</ele>
        <time>2022-06-09T12:56:58Z</time>
      </trkpt>
      <trkpt lat="44.8384" lon="4.22582">
        <ele>1402.3</ele>
        <time>2022-06-09T12:56:59Z</time>
      </trkpt>
      <trkpt lat="44.83841" lon="4.22581">
        <ele>1402.2</ele>
        <time>2022-06-09T12:57:00Z</time>
      </trkpt>
      <trkpt lat="44.83842" lon="4.22581">
        <ele>1402.2</ele>
        <time>2022-06-09T12:57:02Z</time>
      </trkpt>
      <trkpt lat="44.83842" lon="4.2258">
        <ele>1402.2</ele>
        <time>2022-06-09T12:57:03Z</time>
      </trkpt>
      <trkpt lat="44.83842" lon="4.22579">
        <ele>1402.1</ele>
        <time>2022-06-09T12:57:04Z</time>
      </trkpt>
      <trkpt lat="44.83842" lon="4.22578">
        <ele>1402.1</ele>
        <time>2022-06-09T12:57:05Z</time>
      </trkpt>
      <trkpt lat="44.83842" lon="4.22578">
        <ele>1402.1</ele>
        <time>2022-06-09T12:57:06Z</time>
      </trkpt>
      <trkpt lat="44.83842" lon="4.22577">
        <ele>1402.1</ele>
        <time>2022-06-09T12:57:07Z</time>
      </trkpt>
      <trkpt lat="44.83842" lon="4.22577">
        <ele>1402.1</ele>
        <time>2022-06-09T12:57:08Z</time>
      </trkpt>
      <trkpt lat="44.83843" lon="4.22577">
        <ele>1402</ele>
        <time>2022-06-09T12:57:10Z</time>
      </trkpt>
      <trkpt lat="44.83844" lon="4.22576">
        <ele>1402</ele>
        <time>2022-06-09T12:57:12Z</time>
      </trkpt>
      <trkpt lat="44.83845" lon="4.22576">
        <ele>1402</ele>
        <time>2022-06-09T12:57:13Z</time>
      </trkpt>
      <trkpt lat="44.83846" lon="4.22576">
        <ele>1401.9</ele>
        <time>2022-06-09T12:57:14Z</time>
      </trkpt>
      <trkpt lat="44.83847" lon="4.22575">
        <ele>1401.9</ele>
        <time>2022-06-09T12:57:15Z</time>
      </trkpt>
      <trkpt lat="44.83848" lon="4.22575">
        <ele>1401.8</ele>
        <time>2022-06-09T12:57:16Z</time>
      </trkpt>
      <trkpt lat="44.8385" lon="4.22573">
        <ele>1401.7</ele>
        <time>2022-06-09T12:57:17Z</time>
      </trkpt>
      <trkpt lat="44.83851" lon="4.22571">
        <ele>1401.6</ele>
        <time>2022-06-09T12:57:19Z</time>
      </trkpt>
      <trkpt lat="44.83852" lon="4.22569">
        <ele>1401.6</ele>
        <time>2022-06-09T12:57:21Z</time>
      </trkpt>
      <trkpt lat="44.83852" lon="4.22568">
        <ele>1401.5</ele>
        <time>2022-06-09T12:57:23Z</time>
      </trkpt>
      <trkpt lat="44.83852" lon="4.22566">
        <ele>1401.5</ele>
        <time>2022-06-09T12:57:24Z</time>
      </trkpt>
      <trkpt lat="44.83853" lon="4.22565">
        <ele>1401.4</ele>
        <time>2022-06-09T12:57:26Z</time>
      </trkpt>
      <trkpt lat="44.83853" lon="4.22564">
        <ele>1401.4</ele>
        <time>2022-06-09T12:57:27Z</time>
      </trkpt>
      <trkpt lat="44.83853" lon="4.22564">
        <ele>1401.4</ele>
        <time>2022-06-09T12:57:28Z</time>
      </trkpt>
      <trkpt lat="44.83852" lon="4.22563">
        <ele>1401.3</ele>
        <time>2022-06-09T12:57:29Z</time>
      </trkpt>
      <trkpt lat="44.83852" lon="4.22562">
        <ele>1401.3</ele>
        <time>2022-06-09T12:57:30Z</time>
      </trkpt>
      <trkpt lat="44.83852" lon="4.22562">
        <ele>1401.3</ele>
        <time>2022-06-09T12:57:31Z</time>
      </trkpt>
      <trkpt lat="44.83852" lon="4.22562">
        <ele>1401.3</ele>
        <time>2022-06-09T12:57:32Z</time>
      </trkpt>
      <trkpt lat="44.83851" lon="4.22562">
        <ele>1401.3</ele>
        <time>2022-06-09T12:57:33Z</time>
      </trkpt>
      <trkpt lat="44.83851" lon="4.22562">
        <ele>1401.3</ele>
        <time>2022-06-09T12:57:34Z</time>
      </trkpt>
      <trkpt lat="44.83851" lon="4.22562">
        <ele>1401.3</ele>
        <time>2022-06-09T12:57:35Z</time>
      </trkpt>
      <trkpt lat="44.83851" lon="4.22562">
        <ele>1401.3</ele>
        <time>2022-06-09T12:57:36Z</time>
      </trkpt>
      <trkpt lat="44.83851" lon="4.22562">
        <ele>1401.3</ele>
        <time>2022-06-09T12:57:37Z</time>
      </trkpt>
      <trkpt lat="44.83851" lon="4.22562">
        <ele>1401.3</ele>
        <time>2022-06-09T12:57:38Z</time>
      </trkpt>
      <trkpt lat="44.83851" lon="4.22562">
        <ele>1401.3</ele>
        <time>2022-06-09T12:57:39Z</time>
      </trkpt>
      <trkpt lat="44.83851" lon="4.22563">
        <ele>1401.3</ele>
        <time>2022-06-09T12:57:40Z</time>
      </trkpt>
      <trkpt lat="44.83851" lon="4.22563">
        <ele>1401.3</ele>
        <time>2022-06-09T12:57:41Z</time>
      </trkpt>
      <trkpt lat="44.83851" lon="4.22563">
        <ele>1401.2</ele>
        <time>2022-06-09T12:57:42Z</time>
      </trkpt>
      <trkpt lat="44.83851" lon="4.22563">
        <ele>1401.2</ele>
        <time>2022-06-09T12:57:43Z</time>
      </trkpt>
      <trkpt lat="44.8385" lon="4.22562">
        <ele>1401.2</ele>
        <time>2022-06-09T12:57:48Z</time>
      </trkpt>
      <trkpt lat="44.83849" lon="4.22561">
        <ele>1401.1</ele>
        <time>2022-06-09T12:57:49Z</time>
      </trkpt>
      <trkpt lat="44.83849" lon="4.2256">
        <ele>1401.1</ele>
        <time>2022-06-09T12:57:50Z</time>
      </trkpt>
      <trkpt lat="44.83848" lon="4.22558">
        <ele>1401</ele>
        <time>2022-06-09T12:57:51Z</time>
      </trkpt>
      <trkpt lat="44.83847" lon="4.22555">
        <ele>1400.8</ele>
        <time>2022-06-09T12:57:52Z</time>
      </trkpt>
      <trkpt lat="44.83847" lon="4.22554">
        <ele>1400.8</ele>
        <time>2022-06-09T12:57:54Z</time>
      </trkpt>
      <trkpt lat="44.83846" lon="4.22553">
        <ele>1400.7</ele>
        <time>2022-06-09T12:57:55Z</time>
      </trkpt>
      <trkpt lat="44.83846" lon="4.22551">
        <ele>1400.6</ele>
        <time>2022-06-09T12:57:56Z</time>
      </trkpt>
      <trkpt lat="44.83846" lon="4.2255">
        <ele>1400.6</ele>
        <time>2022-06-09T12:57:57Z</time>
      </trkpt>
      <trkpt lat="44.83846" lon="4.22548">
        <ele>1400.5</ele>
        <time>2022-06-09T12:57:58Z</time>
      </trkpt>
      <trkpt lat="44.83846" lon="4.22547">
        <ele>1400.5</ele>
        <time>2022-06-09T12:57:59Z</time>
      </trkpt>
      <trkpt lat="44.83846" lon="4.22546">
        <ele>1400.4</ele>
        <time>2022-06-09T12:58:01Z</time>
      </trkpt>
      <trkpt lat="44.83846" lon="4.22545">
        <ele>1400.3</ele>
        <time>2022-06-09T12:58:02Z</time>
      </trkpt>
      <trkpt lat="44.83846" lon="4.22544">
        <ele>1400.3</ele>
        <time>2022-06-09T12:58:03Z</time>
      </trkpt>
      <trkpt lat="44.83846" lon="4.22544">
        <ele>1400.3</ele>
        <time>2022-06-09T12:58:04Z</time>
      </trkpt>
      <trkpt lat="44.83846" lon="4.22543">
        <ele>1400.3</ele>
        <time>2022-06-09T12:58:05Z</time>
      </trkpt>
      <trkpt lat="44.83846" lon="4.22543">
        <ele>1400.2</ele>
        <time>2022-06-09T12:58:06Z</time>
      </trkpt>
      <trkpt lat="44.83847" lon="4.22543">
        <ele>1400.2</ele>
        <time>2022-06-09T12:58:07Z</time>
      </trkpt>
      <trkpt lat="44.83847" lon="4.22544">
        <ele>1400.2</ele>
        <time>2022-06-09T12:58:08Z</time>
      </trkpt>
      <trkpt lat="44.83847" lon="4.22544">
        <ele>1400.2</ele>
        <time>2022-06-09T12:58:09Z</time>
      </trkpt>
      <trkpt lat="44.83847" lon="4.22544">
        <ele>1400.2</ele>
        <time>2022-06-09T12:58:10Z</time>
      </trkpt>
      <trkpt lat="44.83847" lon="4.22544">
        <ele>1400.2</ele>
        <time>2022-06-09T12:58:11Z</time>
      </trkpt>
      <trkpt lat="44.83847" lon="4.22544">
        <ele>1400.2</ele>
        <time>2022-06-09T12:58:12Z</time>
      </trkpt>
      <trkpt lat="44.83847" lon="4.22544">
        <ele>1400.2</ele>
        <time>2022-06-09T12:58:13Z</time>
      </trkpt>
      <trkpt lat="44.83847" lon="4.22544">
        <ele>1400.2</ele>
        <time>2022-06-09T12:58:14Z</time>
      </trkpt>
      <trkpt lat="44.83847" lon="4.22544">
        <ele>1400.1</ele>
        <time>2022-06-09T12:58:15Z</time>
      </trkpt>
      <trkpt lat="44.83847" lon="4.22544">
        <ele>1400.1</ele>
        <time>2022-06-09T12:58:16Z</time>
      </trkpt>
      <trkpt lat="44.83847" lon="4.22544">
        <ele>1400.1</ele>
        <time>2022-06-09T12:58:17Z</time>
      </trkpt>
      <trkpt lat="44.83847" lon="4.22544">
        <ele>1400.1</ele>
        <time>2022-06-09T12:58:18Z</time>
      </trkpt>
      <trkpt lat="44.83847" lon="4.22544">
        <ele>1400.1</ele>
        <time>2022-06-09T12:58:19Z</time>
      </trkpt>
      <trkpt lat="44.83848" lon="4.22544">
        <ele>1400.1</ele>
        <time>2022-06-09T12:58:20Z</time>
      </trkpt>
      <trkpt lat="44.83847" lon="4.22542">
        <ele>1400</ele>
        <time>2022-06-09T12:58:33Z</time>
      </trkpt>
      <trkpt lat="44.83847" lon="4.22541">
        <ele>1400</ele>
        <time>2022-06-09T12:58:34Z</time>
      </trkpt>
      <trkpt lat="44.83846" lon="4.2254">
        <ele>1399.9</ele>
        <time>2022-06-09T12:58:35Z</time>
      </trkpt>
      <trkpt lat="44.83846" lon="4.22539">
        <ele>1399.8</ele>
        <time>2022-06-09T12:58:36Z</time>
      </trkpt>
      <trkpt lat="44.83844" lon="4.22538">
        <ele>1399.8</ele>
        <time>2022-06-09T12:58:38Z</time>
      </trkpt>
      <trkpt lat="44.83843" lon="4.22537">
        <ele>1399.7</ele>
        <time>2022-06-09T12:58:39Z</time>
      </trkpt>
      <trkpt lat="44.83842" lon="4.22537">
        <ele>1399.6</ele>
        <time>2022-06-09T12:58:41Z</time>
      </trkpt>
      <trkpt lat="44.83841" lon="4.22537">
        <ele>1399.5</ele>
        <time>2022-06-09T12:58:42Z</time>
      </trkpt>
      <trkpt lat="44.8384" lon="4.22536">
        <ele>1399.6</ele>
        <time>2022-06-09T12:58:43Z</time>
      </trkpt>
      <trkpt lat="44.83839" lon="4.22536">
        <ele>1399.6</ele>
        <time>2022-06-09T12:58:45Z</time>
      </trkpt>
      <trkpt lat="44.83839" lon="4.22536">
        <ele>1399.6</ele>
        <time>2022-06-09T12:58:46Z</time>
      </trkpt>
      <trkpt lat="44.8384" lon="4.22537">
        <ele>1399.6</ele>
        <time>2022-06-09T12:58:47Z</time>
      </trkpt>
      <trkpt lat="44.83841" lon="4.22537">
        <ele>1399.7</ele>
        <time>2022-06-09T12:58:48Z</time>
      </trkpt>
      <trkpt lat="44.83841" lon="4.22537">
        <ele>1399.7</ele>
        <time>2022-06-09T12:58:49Z</time>
      </trkpt>
      <trkpt lat="44.83842" lon="4.22537">
        <ele>1399.7</ele>
        <time>2022-06-09T12:58:50Z</time>
      </trkpt>
      <trkpt lat="44.83842" lon="4.22538">
        <ele>1399.8</ele>
        <time>2022-06-09T12:58:51Z</time>
      </trkpt>
      <trkpt lat="44.83843" lon="4.22538">
        <ele>1399.8</ele>
        <time>2022-06-09T12:58:52Z</time>
      </trkpt>
      <trkpt lat="44.83844" lon="4.22538">
        <ele>1399.8</ele>
        <time>2022-06-09T12:58:53Z</time>
      </trkpt>
      <trkpt lat="44.83844" lon="4.22539">
        <ele>1399.9</ele>
        <time>2022-06-09T12:59:14Z</time>
      </trkpt>
      <trkpt lat="44.83845" lon="4.22539">
        <ele>1399.9</ele>
        <time>2022-06-09T12:59:15Z</time>
      </trkpt>
      <trkpt lat="44.83846" lon="4.22539">
        <ele>1399.9</ele>
        <time>2022-06-09T12:59:16Z</time>
      </trkpt>
      <trkpt lat="44.83846" lon="4.22539">
        <ele>1400</ele>
        <time>2022-06-09T12:59:18Z</time>
      </trkpt>
      <trkpt lat="44.83847" lon="4.2254">
        <ele>1400</ele>
        <time>2022-06-09T12:59:20Z</time>
      </trkpt>
      <trkpt lat="44.83848" lon="4.2254">
        <ele>1400</ele>
        <time>2022-06-09T12:59:21Z</time>
      </trkpt>
      <trkpt lat="44.83848" lon="4.2254">
        <ele>1400.1</ele>
        <time>2022-06-09T12:59:22Z</time>
      </trkpt>
      <trkpt lat="44.8385" lon="4.22541">
        <ele>1400.1</ele>
        <time>2022-06-09T12:59:23Z</time>
      </trkpt>
      <trkpt lat="44.8385" lon="4.22542">
        <ele>1400.2</ele>
        <time>2022-06-09T12:59:25Z</time>
      </trkpt>
      <trkpt lat="44.83851" lon="4.22545">
        <ele>1400.3</ele>
        <time>2022-06-09T12:59:27Z</time>
      </trkpt>
      <trkpt lat="44.83852" lon="4.22546">
        <ele>1400.3</ele>
        <time>2022-06-09T12:59:28Z</time>
      </trkpt>
      <trkpt lat="44.83852" lon="4.22549">
        <ele>1400.4</ele>
        <time>2022-06-09T12:59:29Z</time>
      </trkpt>
      <trkpt lat="44.83851" lon="4.22552">
        <ele>1400.5</ele>
        <time>2022-06-09T12:59:30Z</time>
      </trkpt>
      <trkpt lat="44.8385" lon="4.22554">
        <ele>1400.6</ele>
        <time>2022-06-09T12:59:32Z</time>
      </trkpt>
      <trkpt lat="44.8385" lon="4.22555">
        <ele>1400.7</ele>
        <time>2022-06-09T12:59:33Z</time>
      </trkpt>
      <trkpt lat="44.83849" lon="4.22559">
        <ele>1400.8</ele>
        <time>2022-06-09T12:59:35Z</time>
      </trkpt>
      <trkpt lat="44.83849" lon="4.2256">
        <ele>1400.8</ele>
        <time>2022-06-09T12:59:37Z</time>
      </trkpt>
      <trkpt lat="44.8385" lon="4.22563">
        <ele>1400.9</ele>
        <time>2022-06-09T12:59:38Z</time>
      </trkpt>
      <trkpt lat="44.83851" lon="4.22566">
        <ele>1401</ele>
        <time>2022-06-09T12:59:40Z</time>
      </trkpt>
      <trkpt lat="44.83852" lon="4.22566">
        <ele>1401.1</ele>
        <time>2022-06-09T12:59:42Z</time>
      </trkpt>
      <trkpt lat="44.83852" lon="4.22567">
        <ele>1401.1</ele>
        <time>2022-06-09T12:59:43Z</time>
      </trkpt>
      <trkpt lat="44.83853" lon="4.22569">
        <ele>1401.1</ele>
        <time>2022-06-09T12:59:44Z</time>
      </trkpt>
      <trkpt lat="44.83852" lon="4.2257">
        <ele>1401.2</ele>
        <time>2022-06-09T12:59:46Z</time>
      </trkpt>
      <trkpt lat="44.83852" lon="4.22571">
        <ele>1401.2</ele>
        <time>2022-06-09T12:59:47Z</time>
      </trkpt>
      <trkpt lat="44.83851" lon="4.22574">
        <ele>1401.3</ele>
        <time>2022-06-09T12:59:48Z</time>
      </trkpt>
      <trkpt lat="44.8385" lon="4.22575">
        <ele>1401.3</ele>
        <time>2022-06-09T12:59:50Z</time>
      </trkpt>
      <trkpt lat="44.83849" lon="4.22576">
        <ele>1401.4</ele>
        <time>2022-06-09T12:59:51Z</time>
      </trkpt>
      <trkpt lat="44.83848" lon="4.22576">
        <ele>1401.4</ele>
        <time>2022-06-09T12:59:52Z</time>
      </trkpt>
      <trkpt lat="44.83847" lon="4.22577">
        <ele>1401.5</ele>
        <time>2022-06-09T12:59:53Z</time>
      </trkpt>
      <trkpt lat="44.83846" lon="4.22577">
        <ele>1401.5</ele>
        <time>2022-06-09T12:59:54Z</time>
      </trkpt>
      <trkpt lat="44.83844" lon="4.22578">
        <ele>1401.6</ele>
        <time>2022-06-09T12:59:55Z</time>
      </trkpt>
      <trkpt lat="44.83843" lon="4.22578">
        <ele>1401.6</ele>
        <time>2022-06-09T12:59:56Z</time>
      </trkpt>
      <trkpt lat="44.83842" lon="4.22578">
        <ele>1401.6</ele>
        <time>2022-06-09T12:59:57Z</time>
      </trkpt>
      <trkpt lat="44.83841" lon="4.22577">
        <ele>1401.7</ele>
        <time>2022-06-09T12:59:58Z</time>
      </trkpt>
      <trkpt lat="44.8384" lon="4.22577">
        <ele>1401.7</ele>
        <time>2022-06-09T12:59:59Z</time>
      </trkpt>
      <trkpt lat="44.83839" lon="4.22577">
        <ele>1401.7</ele>
        <time>2022-06-09T13:00:00Z</time>
      </trkpt>
      <trkpt lat="44.83839" lon="4.22578">
        <ele>1401.8</ele>
        <time>2022-06-09T13:00:01Z</time>
      </trkpt>
      <trkpt lat="44.83838" lon="4.22578">
        <ele>1401.8</ele>
        <time>2022-06-09T13:00:02Z</time>
      </trkpt>
      <trkpt lat="44.83838" lon="4.22577">
        <ele>1401.8</ele>
        <time>2022-06-09T13:00:03Z</time>
      </trkpt>
      <trkpt lat="44.83838" lon="4.22577">
        <ele>1401.8</ele>
        <time>2022-06-09T13:00:04Z</time>
      </trkpt>
      <trkpt lat="44.83838" lon="4.22576">
        <ele>1401.8</ele>
        <time>2022-06-09T13:00:05Z</time>
      </trkpt>
      <trkpt lat="44.83838" lon="4.22574">
        <ele>1401.8</ele>
        <time>2022-06-09T13:00:07Z</time>
      </trkpt>
      <trkpt lat="44.83838" lon="4.22573">
        <ele>1401.9</ele>
        <time>2022-06-09T13:00:08Z</time>
      </trkpt>
      <trkpt lat="44.83837" lon="4.22572">
        <ele>1401.9</ele>
        <time>2022-06-09T13:00:09Z</time>
      </trkpt>
      <trkpt lat="44.83836" lon="4.22571">
        <ele>1401.9</ele>
        <time>2022-06-09T13:00:10Z</time>
      </trkpt>
      <trkpt lat="44.83835" lon="4.22569">
        <ele>1402</ele>
        <time>2022-06-09T13:00:11Z</time>
      </trkpt>
      <trkpt lat="44.83834" lon="4.22568">
        <ele>1402</ele>
        <time>2022-06-09T13:00:12Z</time>
      </trkpt>
      <trkpt lat="44.83833" lon="4.22567">
        <ele>1402</ele>
        <time>2022-06-09T13:00:13Z</time>
      </trkpt>
      <trkpt lat="44.83832" lon="4.22567">
        <ele>1402.1</ele>
        <time>2022-06-09T13:00:15Z</time>
      </trkpt>
      <trkpt lat="44.83832" lon="4.22566">
        <ele>1402.1</ele>
        <time>2022-06-09T13:00:16Z</time>
      </trkpt>
      <trkpt lat="44.8383" lon="4.22565">
        <ele>1402.1</ele>
        <time>2022-06-09T13:00:17Z</time>
      </trkpt>
      <trkpt lat="44.83829" lon="4.22565">
        <ele>1402.2</ele>
        <time>2022-06-09T13:00:18Z</time>
      </trkpt>
      <trkpt lat="44.83829" lon="4.22565">
        <ele>1402.2</ele>
        <time>2022-06-09T13:00:20Z</time>
      </trkpt>
      <trkpt lat="44.83829" lon="4.22565">
        <ele>1402.2</ele>
        <time>2022-06-09T13:00:21Z</time>
      </trkpt>
      <trkpt lat="44.83829" lon="4.22565">
        <ele>1402.2</ele>
        <time>2022-06-09T13:00:23Z</time>
      </trkpt>
      <trkpt lat="44.8383" lon="4.22566">
        <ele>1402.2</ele>
        <time>2022-06-09T13:00:24Z</time>
      </trkpt>
      <trkpt lat="44.8383" lon="4.22566">
        <ele>1402.2</ele>
        <time>2022-06-09T13:00:25Z</time>
      </trkpt>
      <trkpt lat="44.8383" lon="4.22566">
        <ele>1402.2</ele>
        <time>2022-06-09T13:00:26Z</time>
      </trkpt>
      <trkpt lat="44.83831" lon="4.22566">
        <ele>1402.2</ele>
        <time>2022-06-09T13:00:27Z</time>
      </trkpt>
      <trkpt lat="44.83831" lon="4.22567">
        <ele>1402.2</ele>
        <time>2022-06-09T13:00:28Z</time>
      </trkpt>
      <trkpt lat="44.83831" lon="4.22567">
        <ele>1402.2</ele>
        <time>2022-06-09T13:00:29Z</time>
      </trkpt>
      <trkpt lat="44.83831" lon="4.22567">
        <ele>1402.3</ele>
        <time>2022-06-09T13:00:30Z</time>
      </trkpt>
      <trkpt lat="44.83832" lon="4.22567">
        <ele>1402.3</ele>
        <time>2022-06-09T13:00:31Z</time>
      </trkpt>
      <trkpt lat="44.83832" lon="4.22568">
        <ele>1402.3</ele>
        <time>2022-06-09T13:00:32Z</time>
      </trkpt>
      <trkpt lat="44.83832" lon="4.22568">
        <ele>1402.3</ele>
        <time>2022-06-09T13:00:33Z</time>
      </trkpt>
      <trkpt lat="44.83834" lon="4.22569">
        <ele>1402.3</ele>
        <time>2022-06-09T13:00:34Z</time>
      </trkpt>
      <trkpt lat="44.83835" lon="4.2257">
        <ele>1402.4</ele>
        <time>2022-06-09T13:00:35Z</time>
      </trkpt>
      <trkpt lat="44.83836" lon="4.2257">
        <ele>1402.4</ele>
        <time>2022-06-09T13:00:36Z</time>
      </trkpt>
      <trkpt lat="44.83838" lon="4.22571">
        <ele>1402.5</ele>
        <time>2022-06-09T13:00:37Z</time>
      </trkpt>
      <trkpt lat="44.83839" lon="4.22572">
        <ele>1402.5</ele>
        <time>2022-06-09T13:00:38Z</time>
      </trkpt>
      <trkpt lat="44.8384" lon="4.22573">
        <ele>1402.5</ele>
        <time>2022-06-09T13:00:39Z</time>
      </trkpt>
      <trkpt lat="44.83841" lon="4.22574">
        <ele>1402.6</ele>
        <time>2022-06-09T13:00:40Z</time>
      </trkpt>
      <trkpt lat="44.83842" lon="4.22575">
        <ele>1402.6</ele>
        <time>2022-06-09T13:00:41Z</time>
      </trkpt>
      <trkpt lat="44.83843" lon="4.22576">
        <ele>1402.6</ele>
        <time>2022-06-09T13:00:42Z</time>
      </trkpt>
      <trkpt lat="44.83843" lon="4.22577">
        <ele>1402.6</ele>
        <time>2022-06-09T13:00:43Z</time>
      </trkpt>
      <trkpt lat="44.83844" lon="4.22577">
        <ele>1402.6</ele>
        <time>2022-06-09T13:00:44Z</time>
      </trkpt>
      <trkpt lat="44.83844" lon="4.22578">
        <ele>1402.7</ele>
        <time>2022-06-09T13:00:45Z</time>
      </trkpt>
      <trkpt lat="44.83844" lon="4.22578">
        <ele>1402.7</ele>
        <time>2022-06-09T13:00:46Z</time>
      </trkpt>
      <trkpt lat="44.83844" lon="4.22579">
        <ele>1402.7</ele>
        <time>2022-06-09T13:00:47Z</time>
      </trkpt>
      <trkpt lat="44.83844" lon="4.22579">
        <ele>1402.7</ele>
        <time>2022-06-09T13:00:48Z</time>
      </trkpt>
      <trkpt lat="44.83843" lon="4.22581">
        <ele>1402.7</ele>
        <time>2022-06-09T13:00:49Z</time>
      </trkpt>
      <trkpt lat="44.83841" lon="4.22581">
        <ele>1402.8</ele>
        <time>2022-06-09T13:00:51Z</time>
      </trkpt>
      <trkpt lat="44.83839" lon="4.22582">
        <ele>1402.8</ele>
        <time>2022-06-09T13:00:52Z</time>
      </trkpt>
      <trkpt lat="44.83837" lon="4.22581">
        <ele>1402.9</ele>
        <time>2022-06-09T13:00:54Z</time>
      </trkpt>
      <trkpt lat="44.83836" lon="4.22582">
        <ele>1403</ele>
        <time>2022-06-09T13:00:55Z</time>
      </trkpt>
      <trkpt lat="44.83834" lon="4.22582">
        <ele>1403</ele>
        <time>2022-06-09T13:00:56Z</time>
      </trkpt>
      <trkpt lat="44.83833" lon="4.22582">
        <ele>1403</ele>
        <time>2022-06-09T13:00:57Z</time>
      </trkpt>
      <trkpt lat="44.83832" lon="4.22582">
        <ele>1403.1</ele>
        <time>2022-06-09T13:00:59Z</time>
      </trkpt>
      <trkpt lat="44.83831" lon="4.22581">
        <ele>1403.1</ele>
        <time>2022-06-09T13:01:00Z</time>
      </trkpt>
      <trkpt lat="44.8383" lon="4.22579">
        <ele>1403.2</ele>
        <time>2022-06-09T13:01:01Z</time>
      </trkpt>
      <trkpt lat="44.8383" lon="4.22579">
        <ele>1403.2</ele>
        <time>2022-06-09T13:01:03Z</time>
      </trkpt>
      <trkpt lat="44.8383" lon="4.22578">
        <ele>1403.2</ele>
        <time>2022-06-09T13:01:04Z</time>
      </trkpt>
      <trkpt lat="44.8383" lon="4.22578">
        <ele>1403.2</ele>
        <time>2022-06-09T13:01:05Z</time>
      </trkpt>
      <trkpt lat="44.83829" lon="4.22578">
        <ele>1403.2</ele>
        <time>2022-06-09T13:01:06Z</time>
      </trkpt>
      <trkpt lat="44.83829" lon="4.22578">
        <ele>1403.2</ele>
        <time>2022-06-09T13:01:07Z</time>
      </trkpt>
      <trkpt lat="44.83829" lon="4.22578">
        <ele>1403.2</ele>
        <time>2022-06-09T13:01:08Z</time>
      </trkpt>
      <trkpt lat="44.83829" lon="4.22577">
        <ele>1403.2</ele>
        <time>2022-06-09T13:01:09Z</time>
      </trkpt>
      <trkpt lat="44.83829" lon="4.22577">
        <ele>1403.2</ele>
        <time>2022-06-09T13:01:10Z</time>
      </trkpt>
      <trkpt lat="44.83829" lon="4.22577">
        <ele>1403.2</ele>
        <time>2022-06-09T13:01:11Z</time>
      </trkpt>
      <trkpt lat="44.83829" lon="4.22577">
        <ele>1403.2</ele>
        <time>2022-06-09T13:01:12Z</time>
      </trkpt>
      <trkpt lat="44.83829" lon="4.22577">
        <ele>1403.2</ele>
        <time>2022-06-09T13:01:13Z</time>
      </trkpt>
      <trkpt lat="44.83829" lon="4.22577">
        <ele>1403.2</ele>
        <time>2022-06-09T13:01:14Z</time>
      </trkpt>
      <trkpt lat="44.83829" lon="4.22577">
        <ele>1403.2</ele>
        <time>2022-06-09T13:01:15Z</time>
      </trkpt>
      <trkpt lat="44.83829" lon="4.22577">
        <ele>1403.3</ele>
        <time>2022-06-09T13:01:16Z</time>
      </trkpt>
      <trkpt lat="44.83829" lon="4.22577">
        <ele>1403.3</ele>
        <time>2022-06-09T13:01:17Z</time>
      </trkpt>
      <trkpt lat="44.83829" lon="4.22577">
        <ele>1403.3</ele>
        <time>2022-06-09T13:01:18Z</time>
      </trkpt>
      <trkpt lat="44.83829" lon="4.22577">
        <ele>1403.3</ele>
        <time>2022-06-09T13:01:19Z</time>
      </trkpt>
      <trkpt lat="44.83829" lon="4.22577">
        <ele>1403.3</ele>
        <time>2022-06-09T13:01:20Z</time>
      </trkpt>
      <trkpt lat="44.83826" lon="4.22578">
        <ele>1403.4</ele>
        <time>2022-06-09T13:05:23Z</time>
      </trkpt>
      <trkpt lat="44.83826" lon="4.22578">
        <ele>1403.4</ele>
        <time>2022-06-09T13:05:24Z</time>
      </trkpt>
      <trkpt lat="44.83826" lon="4.22578">
        <ele>1403.4</ele>
        <time>2022-06-09T13:05:25Z</time>
      </trkpt>
      <trkpt lat="44.83826" lon="4.22578">
        <ele>1403.4</ele>
        <time>2022-06-09T13:05:26Z</time>
      </trkpt>
      <trkpt lat="44.83826" lon="4.22578">
        <ele>1403.4</ele>
        <time>2022-06-09T13:05:27Z</time>
      </trkpt>
      <trkpt lat="44.83826" lon="4.22578">
        <ele>1403.4</ele>
        <time>2022-06-09T13:05:28Z</time>
      </trkpt>
      <trkpt lat="44.83827" lon="4.22578">
        <ele>1403.4</ele>
        <time>2022-06-09T13:05:29Z</time>
      </trkpt>
      <trkpt lat="44.83827" lon="4.22578">
        <ele>1403.4</ele>
        <time>2022-06-09T13:05:30Z</time>
      </trkpt>
      <trkpt lat="44.83826" lon="4.22578">
        <ele>1403.4</ele>
        <time>2022-06-09T13:05:31Z</time>
      </trkpt>
      <trkpt lat="44.83826" lon="4.22578">
        <ele>1403.4</ele>
        <time>2022-06-09T13:05:33Z</time>
      </trkpt>
      <trkpt lat="44.83826" lon="4.22578">
        <ele>1403.4</ele>
        <time>2022-06-09T13:05:34Z</time>
      </trkpt>
      <trkpt lat="44.83826" lon="4.22579">
        <ele>1403.5</ele>
        <time>2022-06-09T13:05:36Z</time>
      </trkpt>
      <trkpt lat="44.83826" lon="4.22579">
        <ele>1403.5</ele>
        <time>2022-06-09T13:05:37Z</time>
      </trkpt>
      <trkpt lat="44.83826" lon="4.2258">
        <ele>1403.5</ele>
        <time>2022-06-09T13:05:38Z</time>
      </trkpt>
      <trkpt lat="44.83826" lon="4.2258">
        <ele>1403.5</ele>
        <time>2022-06-09T13:05:39Z</time>
      </trkpt>
      <trkpt lat="44.83826" lon="4.2258">
        <ele>1403.5</ele>
        <time>2022-06-09T13:05:40Z</time>
      </trkpt>
      <trkpt lat="44.83827" lon="4.2258">
        <ele>1403.5</ele>
        <time>2022-06-09T13:05:41Z</time>
      </trkpt>
      <trkpt lat="44.83827" lon="4.2258">
        <ele>1403.5</ele>
        <time>2022-06-09T13:05:42Z</time>
      </trkpt>
      <trkpt lat="44.83827" lon="4.22581">
        <ele>1403.5</ele>
        <time>2022-06-09T13:05:43Z</time>
      </trkpt>
      <trkpt lat="44.83827" lon="4.22581">
        <ele>1403.5</ele>
        <time>2022-06-09T13:05:44Z</time>
      </trkpt>
      <trkpt lat="44.83828" lon="4.22582">
        <ele>1403.6</ele>
        <time>2022-06-09T13:05:49Z</time>
      </trkpt>
      <trkpt lat="44.83828" lon="4.22582">
        <ele>1403.6</ele>
        <time>2022-06-09T13:05:51Z</time>
      </trkpt>
      <trkpt lat="44.83829" lon="4.22581">
        <ele>1403.6</ele>
        <time>2022-06-09T13:05:52Z</time>
      </trkpt>
      <trkpt lat="44.83829" lon="4.22581">
        <ele>1403.6</ele>
        <time>2022-06-09T13:05:53Z</time>
      </trkpt>
      <trkpt lat="44.83829" lon="4.22581">
        <ele>1403.6</ele>
        <time>2022-06-09T13:05:54Z</time>
      </trkpt>
      <trkpt lat="44.83829" lon="4.22581">
        <ele>1403.6</ele>
        <time>2022-06-09T13:05:55Z</time>
      </trkpt>
      <trkpt lat="44.83829" lon="4.22581">
        <ele>1403.6</ele>
        <time>2022-06-09T13:05:57Z</time>
      </trkpt>
      <trkpt lat="44.8383" lon="4.22581">
        <ele>1403.6</ele>
        <time>2022-06-09T13:05:58Z</time>
      </trkpt>
      <trkpt lat="44.8383" lon="4.22581">
        <ele>1403.6</ele>
        <time>2022-06-09T13:06:00Z</time>
      </trkpt>
      <trkpt lat="44.83833" lon="4.22582">
        <ele>1403.8</ele>
        <time>2022-06-09T13:06:57Z</time>
      </trkpt>
      <trkpt lat="44.83833" lon="4.22581">
        <ele>1403.8</ele>
        <time>2022-06-09T13:06:58Z</time>
      </trkpt>
      <trkpt lat="44.83833" lon="4.22581">
        <ele>1403.8</ele>
        <time>2022-06-09T13:06:59Z</time>
      </trkpt>
      <trkpt lat="44.83833" lon="4.22581">
        <ele>1403.8</ele>
        <time>2022-06-09T13:07:00Z</time>
      </trkpt>
      <trkpt lat="44.83833" lon="4.22581">
        <ele>1403.8</ele>
        <time>2022-06-09T13:07:01Z</time>
      </trkpt>
      <trkpt lat="44.83833" lon="4.22581">
        <ele>1403.8</ele>
        <time>2022-06-09T13:07:02Z</time>
      </trkpt>
      <trkpt lat="44.83833" lon="4.22581">
        <ele>1403.8</ele>
        <time>2022-06-09T13:07:03Z</time>
      </trkpt>
      <trkpt lat="44.83833" lon="4.22581">
        <ele>1403.8</ele>
        <time>2022-06-09T13:07:04Z</time>
      </trkpt>
      <trkpt lat="44.83833" lon="4.22581">
        <ele>1403.8</ele>
        <time>2022-06-09T13:07:05Z</time>
      </trkpt>
      <trkpt lat="44.83833" lon="4.22581">
        <ele>1403.8</ele>
        <time>2022-06-09T13:07:06Z</time>
      </trkpt>
      <trkpt lat="44.83833" lon="4.22581">
        <ele>1403.8</ele>
        <time>2022-06-09T13:07:07Z</time>
      </trkpt>
      <trkpt lat="44.83833" lon="4.22581">
        <ele>1403.8</ele>
        <time>2022-06-09T13:07:08Z</time>
      </trkpt>
      <trkpt lat="44.83831" lon="4.22589">
        <ele>1404</ele>
        <time>2022-06-09T13:07:59Z</time>
      </trkpt>
      <trkpt lat="44.83832" lon="4.22588">
        <ele>1404</ele>
        <time>2022-06-09T13:08:00Z</time>
      </trkpt>
      <trkpt lat="44.83833" lon="4.22589">
        <ele>1404.1</ele>
        <time>2022-06-09T13:08:01Z</time>
      </trkpt>
      <trkpt lat="44.83833" lon="4.22592">
        <ele>1404.1</ele>
        <time>2022-06-09T13:08:03Z</time>
      </trkpt>
      <trkpt lat="44.83832" lon="4.22596">
        <ele>1404.2</ele>
        <time>2022-06-09T13:08:04Z</time>
      </trkpt>
      <trkpt lat="44.83831" lon="4.22599">
        <ele>1404.3</ele>
        <time>2022-06-09T13:08:05Z</time>
      </trkpt>
      <trkpt lat="44.83829" lon="4.22601">
        <ele>1404.4</ele>
        <time>2022-06-09T13:08:07Z</time>
      </trkpt>
      <trkpt lat="44.83829" lon="4.22602">
        <ele>1404.4</ele>
        <time>2022-06-09T13:08:08Z</time>
      </trkpt>
      <trkpt lat="44.83828" lon="4.22602">
        <ele>1404.4</ele>
        <time>2022-06-09T13:08:09Z</time>
      </trkpt>
      <trkpt lat="44.83827" lon="4.22603">
        <ele>1404.5</ele>
        <time>2022-06-09T13:08:10Z</time>
      </trkpt>
      <trkpt lat="44.83827" lon="4.22602">
        <ele>1404.5</ele>
        <time>2022-06-09T13:08:11Z</time>
      </trkpt>
      <trkpt lat="44.83827" lon="4.22602">
        <ele>1404.5</ele>
        <time>2022-06-09T13:08:12Z</time>
      </trkpt>
      <trkpt lat="44.83827" lon="4.22602">
        <ele>1404.5</ele>
        <time>2022-06-09T13:08:13Z</time>
      </trkpt>
      <trkpt lat="44.83826" lon="4.22602">
        <ele>1404.5</ele>
        <time>2022-06-09T13:08:14Z</time>
      </trkpt>
      <trkpt lat="44.83826" lon="4.22602">
        <ele>1404.5</ele>
        <time>2022-06-09T13:08:15Z</time>
      </trkpt>
      <trkpt lat="44.83826" lon="4.22601">
        <ele>1404.5</ele>
        <time>2022-06-09T13:08:16Z</time>
      </trkpt>
      <trkpt lat="44.83826" lon="4.22601">
        <ele>1404.5</ele>
        <time>2022-06-09T13:08:17Z</time>
      </trkpt>
      <trkpt lat="44.83826" lon="4.22601">
        <ele>1404.5</ele>
        <time>2022-06-09T13:08:18Z</time>
      </trkpt>
      <trkpt lat="44.83826" lon="4.22601">
        <ele>1404.5</ele>
        <time>2022-06-09T13:08:19Z</time>
      </trkpt>
      <trkpt lat="44.83826" lon="4.22601">
        <ele>1404.5</ele>
        <time>2022-06-09T13:08:20Z</time>
      </trkpt>
      <trkpt lat="44.83824" lon="4.22602">
        <ele>1404.6</ele>
        <time>2022-06-09T13:08:30Z</time>
      </trkpt>
      <trkpt lat="44.83823" lon="4.22604">
        <ele>1404.6</ele>
        <time>2022-06-09T13:08:32Z</time>
      </trkpt>
      <trkpt lat="44.83822" lon="4.22606">
        <ele>1404.7</ele>
        <time>2022-06-09T13:08:33Z</time>
      </trkpt>
      <trkpt lat="44.83821" lon="4.22609">
        <ele>1404.8</ele>
        <time>2022-06-09T13:08:34Z</time>
      </trkpt>
      <trkpt lat="44.83822" lon="4.2261">
        <ele>1404.8</ele>
        <time>2022-06-09T13:08:36Z</time>
      </trkpt>
      <trkpt lat="44.83822" lon="4.22611">
        <ele>1404.8</ele>
        <time>2022-06-09T13:08:37Z</time>
      </trkpt>
      <trkpt lat="44.83822" lon="4.22612">
        <ele>1404.8</ele>
        <time>2022-06-09T13:08:38Z</time>
      </trkpt>
      <trkpt lat="44.83822" lon="4.22613">
        <ele>1404.9</ele>
        <time>2022-06-09T13:08:39Z</time>
      </trkpt>
      <trkpt lat="44.83822" lon="4.22614">
        <ele>1404.9</ele>
        <time>2022-06-09T13:08:40Z</time>
      </trkpt>
      <trkpt lat="44.83821" lon="4.22616">
        <ele>1405</ele>
        <time>2022-06-09T13:08:41Z</time>
      </trkpt>
      <trkpt lat="44.8382" lon="4.22618">
        <ele>1405.1</ele>
        <time>2022-06-09T13:08:43Z</time>
      </trkpt>
      <trkpt lat="44.83819" lon="4.2262">
        <ele>1405.2</ele>
        <time>2022-06-09T13:08:45Z</time>
      </trkpt>
      <trkpt lat="44.83818" lon="4.22622">
        <ele>1405.3</ele>
        <time>2022-06-09T13:08:46Z</time>
      </trkpt>
      <trkpt lat="44.83818" lon="4.22623">
        <ele>1405.3</ele>
        <time>2022-06-09T13:08:48Z</time>
      </trkpt>
      <trkpt lat="44.83818" lon="4.22623">
        <ele>1405.3</ele>
        <time>2022-06-09T13:08:49Z</time>
      </trkpt>
      <trkpt lat="44.83818" lon="4.22623">
        <ele>1405.3</ele>
        <time>2022-06-09T13:08:50Z</time>
      </trkpt>
      <trkpt lat="44.83819" lon="4.22623">
        <ele>1405.4</ele>
        <time>2022-06-09T13:08:52Z</time>
      </trkpt>
      <trkpt lat="44.83819" lon="4.22624">
        <ele>1405.4</ele>
        <time>2022-06-09T13:08:53Z</time>
      </trkpt>
      <trkpt lat="44.83819" lon="4.22624">
        <ele>1405.4</ele>
        <time>2022-06-09T13:08:54Z</time>
      </trkpt>
      <trkpt lat="44.83819" lon="4.22624">
        <ele>1405.4</ele>
        <time>2022-06-09T13:08:55Z</time>
      </trkpt>
      <trkpt lat="44.83819" lon="4.22624">
        <ele>1405.4</ele>
        <time>2022-06-09T13:08:56Z</time>
      </trkpt>
      <trkpt lat="44.83819" lon="4.22624">
        <ele>1405.4</ele>
        <time>2022-06-09T13:08:57Z</time>
      </trkpt>
      <trkpt lat="44.83819" lon="4.22624">
        <ele>1405.4</ele>
        <time>2022-06-09T13:08:58Z</time>
      </trkpt>
      <trkpt lat="44.83821" lon="4.22629">
        <ele>1405.7</ele>
        <time>2022-06-09T13:10:17Z</time>
      </trkpt>
      <trkpt lat="44.83821" lon="4.2263">
        <ele>1405.8</ele>
        <time>2022-06-09T13:10:18Z</time>
      </trkpt>
      <trkpt lat="44.83821" lon="4.22632">
        <ele>1405.8</ele>
        <time>2022-06-09T13:10:19Z</time>
      </trkpt>
      <trkpt lat="44.83821" lon="4.22633">
        <ele>1405.9</ele>
        <time>2022-06-09T13:10:20Z</time>
      </trkpt>
      <trkpt lat="44.83821" lon="4.22635">
        <ele>1406</ele>
        <time>2022-06-09T13:10:21Z</time>
      </trkpt>
      <trkpt lat="44.83821" lon="4.22636">
        <ele>1406.1</ele>
        <time>2022-06-09T13:10:22Z</time>
      </trkpt>
      <trkpt lat="44.83821" lon="4.22636">
        <ele>1406.1</ele>
        <time>2022-06-09T13:10:23Z</time>
      </trkpt>
      <trkpt lat="44.83821" lon="4.22638">
        <ele>1406.2</ele>
        <time>2022-06-09T13:10:24Z</time>
      </trkpt>
      <trkpt lat="44.83821" lon="4.22639">
        <ele>1406.3</ele>
        <time>2022-06-09T13:10:25Z</time>
      </trkpt>
      <trkpt lat="44.83821" lon="4.22641">
        <ele>1406.4</ele>
        <time>2022-06-09T13:10:26Z</time>
      </trkpt>
      <trkpt lat="44.83821" lon="4.22643">
        <ele>1406.5</ele>
        <time>2022-06-09T13:10:28Z</time>
      </trkpt>
      <trkpt lat="44.8382" lon="4.22645">
        <ele>1406.7</ele>
        <time>2022-06-09T13:10:29Z</time>
      </trkpt>
      <trkpt lat="44.83819" lon="4.22646">
        <ele>1406.8</ele>
        <time>2022-06-09T13:10:30Z</time>
      </trkpt>
      <trkpt lat="44.83819" lon="4.22648">
        <ele>1407</ele>
        <time>2022-06-09T13:10:31Z</time>
      </trkpt>
      <trkpt lat="44.83818" lon="4.2265">
        <ele>1407.1</ele>
        <time>2022-06-09T13:10:33Z</time>
      </trkpt>
      <trkpt lat="44.83818" lon="4.22651">
        <ele>1407.2</ele>
        <time>2022-06-09T13:10:34Z</time>
      </trkpt>
      <trkpt lat="44.83817" lon="4.22653">
        <ele>1407.4</ele>
        <time>2022-06-09T13:10:35Z</time>
      </trkpt>
      <trkpt lat="44.83818" lon="4.22654">
        <ele>1407.5</ele>
        <time>2022-06-09T13:10:36Z</time>
      </trkpt>
      <trkpt lat="44.83818" lon="4.22656">
        <ele>1407.6</ele>
        <time>2022-06-09T13:10:37Z</time>
      </trkpt>
      <trkpt lat="44.83818" lon="4.22657">
        <ele>1407.7</ele>
        <time>2022-06-09T13:10:39Z</time>
      </trkpt>
      <trkpt lat="44.83818" lon="4.22658">
        <ele>1407.7</ele>
        <time>2022-06-09T13:10:40Z</time>
      </trkpt>
      <trkpt lat="44.83818" lon="4.22659">
        <ele>1407.8</ele>
        <time>2022-06-09T13:10:41Z</time>
      </trkpt>
      <trkpt lat="44.83818" lon="4.2266">
        <ele>1407.9</ele>
        <time>2022-06-09T13:10:42Z</time>
      </trkpt>
      <trkpt lat="44.83818" lon="4.22661">
        <ele>1408</ele>
        <time>2022-06-09T13:10:43Z</time>
      </trkpt>
      <trkpt lat="44.83819" lon="4.22663">
        <ele>1408.2</ele>
        <time>2022-06-09T13:10:44Z</time>
      </trkpt>
      <trkpt lat="44.8382" lon="4.22665">
        <ele>1408.3</ele>
        <time>2022-06-09T13:10:45Z</time>
      </trkpt>
      <trkpt lat="44.8382" lon="4.22666">
        <ele>1408.5</ele>
        <time>2022-06-09T13:10:47Z</time>
      </trkpt>
      <trkpt lat="44.83821" lon="4.22667">
        <ele>1408.6</ele>
        <time>2022-06-09T13:10:48Z</time>
      </trkpt>
      <trkpt lat="44.83822" lon="4.2267">
        <ele>1408.8</ele>
        <time>2022-06-09T13:10:49Z</time>
      </trkpt>
      <trkpt lat="44.83822" lon="4.22671">
        <ele>1408.9</ele>
        <time>2022-06-09T13:10:50Z</time>
      </trkpt>
      <trkpt lat="44.83823" lon="4.22672">
        <ele>1409</ele>
        <time>2022-06-09T13:10:51Z</time>
      </trkpt>
      <trkpt lat="44.83823" lon="4.22674">
        <ele>1409.2</ele>
        <time>2022-06-09T13:10:53Z</time>
      </trkpt>
      <trkpt lat="44.83824" lon="4.22675">
        <ele>1409.1</ele>
        <time>2022-06-09T13:10:54Z</time>
      </trkpt>
      <trkpt lat="44.83824" lon="4.22676">
        <ele>1409</ele>
        <time>2022-06-09T13:10:55Z</time>
      </trkpt>
      <trkpt lat="44.83825" lon="4.22676">
        <ele>1408.9</ele>
        <time>2022-06-09T13:10:56Z</time>
      </trkpt>
      <trkpt lat="44.83825" lon="4.22677">
        <ele>1408.8</ele>
        <time>2022-06-09T13:10:57Z</time>
      </trkpt>
      <trkpt lat="44.83826" lon="4.22678">
        <ele>1408.7</ele>
        <time>2022-06-09T13:10:58Z</time>
      </trkpt>
      <trkpt lat="44.83826" lon="4.22679">
        <ele>1408.6</ele>
        <time>2022-06-09T13:10:59Z</time>
      </trkpt>
      <trkpt lat="44.83827" lon="4.2268">
        <ele>1408.5</ele>
        <time>2022-06-09T13:11:00Z</time>
      </trkpt>
      <trkpt lat="44.83827" lon="4.2268">
        <ele>1408.4</ele>
        <time>2022-06-09T13:11:01Z</time>
      </trkpt>
      <trkpt lat="44.83827" lon="4.22681">
        <ele>1408.4</ele>
        <time>2022-06-09T13:11:02Z</time>
      </trkpt>
      <trkpt lat="44.83827" lon="4.22681">
        <ele>1408.4</ele>
        <time>2022-06-09T13:11:03Z</time>
      </trkpt>
      <trkpt lat="44.83828" lon="4.22683">
        <ele>1408.3</ele>
        <time>2022-06-09T13:11:04Z</time>
      </trkpt>
      <trkpt lat="44.83828" lon="4.22685">
        <ele>1408.3</ele>
        <time>2022-06-09T13:11:06Z</time>
      </trkpt>
      <trkpt lat="44.83827" lon="4.22687">
        <ele>1408.3</ele>
        <time>2022-06-09T13:11:07Z</time>
      </trkpt>
      <trkpt lat="44.83826" lon="4.22689">
        <ele>1408.3</ele>
        <time>2022-06-09T13:11:08Z</time>
      </trkpt>
      <trkpt lat="44.83825" lon="4.2269">
        <ele>1408.3</ele>
        <time>2022-06-09T13:11:09Z</time>
      </trkpt>
      <trkpt lat="44.83824" lon="4.22692">
        <ele>1408.3</ele>
        <time>2022-06-09T13:11:10Z</time>
      </trkpt>
      <trkpt lat="44.83823" lon="4.22693">
        <ele>1408.2</ele>
        <time>2022-06-09T13:11:11Z</time>
      </trkpt>
      <trkpt lat="44.83822" lon="4.22694">
        <ele>1408.2</ele>
        <time>2022-06-09T13:11:12Z</time>
      </trkpt>
      <trkpt lat="44.8382" lon="4.22696">
        <ele>1408.2</ele>
        <time>2022-06-09T13:11:13Z</time>
      </trkpt>
      <trkpt lat="44.83819" lon="4.22697">
        <ele>1408.2</ele>
        <time>2022-06-09T13:11:15Z</time>
      </trkpt>
      <trkpt lat="44.83818" lon="4.22698">
        <ele>1408.2</ele>
        <time>2022-06-09T13:11:16Z</time>
      </trkpt>
      <trkpt lat="44.83817" lon="4.22699">
        <ele>1408.2</ele>
        <time>2022-06-09T13:11:17Z</time>
      </trkpt>
      <trkpt lat="44.83816" lon="4.227">
        <ele>1408.1</ele>
        <time>2022-06-09T13:11:18Z</time>
      </trkpt>
      <trkpt lat="44.83816" lon="4.22702">
        <ele>1408.1</ele>
        <time>2022-06-09T13:11:19Z</time>
      </trkpt>
      <trkpt lat="44.83816" lon="4.22703">
        <ele>1408.1</ele>
        <time>2022-06-09T13:11:21Z</time>
      </trkpt>
      <trkpt lat="44.83816" lon="4.22705">
        <ele>1408.1</ele>
        <time>2022-06-09T13:11:22Z</time>
      </trkpt>
      <trkpt lat="44.83815" lon="4.22706">
        <ele>1408.1</ele>
        <time>2022-06-09T13:11:23Z</time>
      </trkpt>
      <trkpt lat="44.83813" lon="4.22706">
        <ele>1408.1</ele>
        <time>2022-06-09T13:11:24Z</time>
      </trkpt>
      <trkpt lat="44.83812" lon="4.22706">
        <ele>1408.1</ele>
        <time>2022-06-09T13:11:26Z</time>
      </trkpt>
      <trkpt lat="44.83811" lon="4.22706">
        <ele>1408</ele>
        <time>2022-06-09T13:11:27Z</time>
      </trkpt>
      <trkpt lat="44.83811" lon="4.22705">
        <ele>1408</ele>
        <time>2022-06-09T13:11:28Z</time>
      </trkpt>
      <trkpt lat="44.8381" lon="4.22705">
        <ele>1408</ele>
        <time>2022-06-09T13:11:29Z</time>
      </trkpt>
      <trkpt lat="44.83809" lon="4.22704">
        <ele>1408</ele>
        <time>2022-06-09T13:11:30Z</time>
      </trkpt>
      <trkpt lat="44.83809" lon="4.22703">
        <ele>1408</ele>
        <time>2022-06-09T13:11:32Z</time>
      </trkpt>
      <trkpt lat="44.83808" lon="4.22702">
        <ele>1408</ele>
        <time>2022-06-09T13:11:33Z</time>
      </trkpt>
      <trkpt lat="44.83808" lon="4.22701">
        <ele>1408</ele>
        <time>2022-06-09T13:11:34Z</time>
      </trkpt>
      <trkpt lat="44.83807" lon="4.227">
        <ele>1408</ele>
        <time>2022-06-09T13:11:35Z</time>
      </trkpt>
      <trkpt lat="44.83806" lon="4.227">
        <ele>1408</ele>
        <time>2022-06-09T13:11:36Z</time>
      </trkpt>
      <trkpt lat="44.83804" lon="4.22701">
        <ele>1407.9</ele>
        <time>2022-06-09T13:11:37Z</time>
      </trkpt>
      <trkpt lat="44.83803" lon="4.22704">
        <ele>1407.9</ele>
        <time>2022-06-09T13:11:39Z</time>
      </trkpt>
      <trkpt lat="44.83803" lon="4.22705">
        <ele>1407.9</ele>
        <time>2022-06-09T13:11:41Z</time>
      </trkpt>
      <trkpt lat="44.83803" lon="4.22707">
        <ele>1407.9</ele>
        <time>2022-06-09T13:11:42Z</time>
      </trkpt>
      <trkpt lat="44.83803" lon="4.22709">
        <ele>1407.9</ele>
        <time>2022-06-09T13:11:43Z</time>
      </trkpt>
      <trkpt lat="44.83803" lon="4.22711">
        <ele>1407.9</ele>
        <time>2022-06-09T13:11:45Z</time>
      </trkpt>
      <trkpt lat="44.83802" lon="4.22712">
        <ele>1407.9</ele>
        <time>2022-06-09T13:11:46Z</time>
      </trkpt>
      <trkpt lat="44.83802" lon="4.22713">
        <ele>1407.8</ele>
        <time>2022-06-09T13:11:47Z</time>
      </trkpt>
      <trkpt lat="44.83801" lon="4.22714">
        <ele>1407.8</ele>
        <time>2022-06-09T13:11:49Z</time>
      </trkpt>
      <trkpt lat="44.838" lon="4.22713">
        <ele>1407.8</ele>
        <time>2022-06-09T13:11:50Z</time>
      </trkpt>
      <trkpt lat="44.83799" lon="4.22713">
        <ele>1407.8</ele>
        <time>2022-06-09T13:11:52Z</time>
      </trkpt>
      <trkpt lat="44.83797" lon="4.22712">
        <ele>1407.8</ele>
        <time>2022-06-09T13:11:53Z</time>
      </trkpt>
      <trkpt lat="44.83796" lon="4.22712">
        <ele>1407.8</ele>
        <time>2022-06-09T13:11:54Z</time>
      </trkpt>
      <trkpt lat="44.83795" lon="4.22712">
        <ele>1407.8</ele>
        <time>2022-06-09T13:11:55Z</time>
      </trkpt>
      <trkpt lat="44.83794" lon="4.22713">
        <ele>1407.8</ele>
        <time>2022-06-09T13:11:56Z</time>
      </trkpt>
      <trkpt lat="44.83793" lon="4.22713">
        <ele>1407.8</ele>
        <time>2022-06-09T13:11:58Z</time>
      </trkpt>
      <trkpt lat="44.83792" lon="4.22712">
        <ele>1407.7</ele>
        <time>2022-06-09T13:12:00Z</time>
      </trkpt>
      <trkpt lat="44.83791" lon="4.22712">
        <ele>1407.7</ele>
        <time>2022-06-09T13:12:02Z</time>
      </trkpt>
      <trkpt lat="44.8379" lon="4.22713">
        <ele>1407.7</ele>
        <time>2022-06-09T13:12:03Z</time>
      </trkpt>
      <trkpt lat="44.83789" lon="4.22713">
        <ele>1407.7</ele>
        <time>2022-06-09T13:12:05Z</time>
      </trkpt>
      <trkpt lat="44.83788" lon="4.22715">
        <ele>1407.7</ele>
        <time>2022-06-09T13:12:06Z</time>
      </trkpt>
      <trkpt lat="44.83788" lon="4.22715">
        <ele>1407.7</ele>
        <time>2022-06-09T13:12:08Z</time>
      </trkpt>
      <trkpt lat="44.83788" lon="4.22716">
        <ele>1407.7</ele>
        <time>2022-06-09T13:12:09Z</time>
      </trkpt>
      <trkpt lat="44.83788" lon="4.22716">
        <ele>1407.7</ele>
        <time>2022-06-09T13:12:10Z</time>
      </trkpt>
      <trkpt lat="44.83788" lon="4.22716">
        <ele>1407.7</ele>
        <time>2022-06-09T13:12:11Z</time>
      </trkpt>
      <trkpt lat="44.83788" lon="4.22716">
        <ele>1407.7</ele>
        <time>2022-06-09T13:12:12Z</time>
      </trkpt>
      <trkpt lat="44.83789" lon="4.22717">
        <ele>1407.7</ele>
        <time>2022-06-09T13:12:13Z</time>
      </trkpt>
      <trkpt lat="44.83788" lon="4.22717">
        <ele>1407.7</ele>
        <time>2022-06-09T13:12:14Z</time>
      </trkpt>
      <trkpt lat="44.83788" lon="4.22717">
        <ele>1407.7</ele>
        <time>2022-06-09T13:12:15Z</time>
      </trkpt>
      <trkpt lat="44.83788" lon="4.22718">
        <ele>1407.7</ele>
        <time>2022-06-09T13:12:16Z</time>
      </trkpt>
      <trkpt lat="44.83788" lon="4.22718">
        <ele>1407.7</ele>
        <time>2022-06-09T13:12:17Z</time>
      </trkpt>
      <trkpt lat="44.83787" lon="4.22718">
        <ele>1407.7</ele>
        <time>2022-06-09T13:12:18Z</time>
      </trkpt>
      <trkpt lat="44.83787" lon="4.22719">
        <ele>1407.7</ele>
        <time>2022-06-09T13:12:20Z</time>
      </trkpt>
      <trkpt lat="44.83787" lon="4.22719">
        <ele>1407.7</ele>
        <time>2022-06-09T13:12:21Z</time>
      </trkpt>
      <trkpt lat="44.83787" lon="4.22719">
        <ele>1407.7</ele>
        <time>2022-06-09T13:12:22Z</time>
      </trkpt>
      <trkpt lat="44.83786" lon="4.22719">
        <ele>1407.7</ele>
        <time>2022-06-09T13:12:23Z</time>
      </trkpt>
      <trkpt lat="44.83786" lon="4.22719">
        <ele>1407.7</ele>
        <time>2022-06-09T13:12:24Z</time>
      </trkpt>
      <trkpt lat="44.83785" lon="4.22719">
        <ele>1407.7</ele>
        <time>2022-06-09T13:12:25Z</time>
      </trkpt>
      <trkpt lat="44.83785" lon="4.2272">
        <ele>1407.7</ele>
        <time>2022-06-09T13:12:26Z</time>
      </trkpt>
      <trkpt lat="44.83785" lon="4.2272">
        <ele>1407.7</ele>
        <time>2022-06-09T13:12:27Z</time>
      </trkpt>
      <trkpt lat="44.83785" lon="4.2272">
        <ele>1407.7</ele>
        <time>2022-06-09T13:12:28Z</time>
      </trkpt>
      <trkpt lat="44.83785" lon="4.2272">
        <ele>1407.7</ele>
        <time>2022-06-09T13:12:29Z</time>
      </trkpt>
      <trkpt lat="44.83784" lon="4.22719">
        <ele>1407.6</ele>
        <time>2022-06-09T13:12:31Z</time>
      </trkpt>
      <trkpt lat="44.83784" lon="4.22719">
        <ele>1407.6</ele>
        <time>2022-06-09T13:12:32Z</time>
      </trkpt>
      <trkpt lat="44.83784" lon="4.22719">
        <ele>1407.6</ele>
        <time>2022-06-09T13:12:33Z</time>
      </trkpt>
      <trkpt lat="44.83784" lon="4.22719">
        <ele>1407.6</ele>
        <time>2022-06-09T13:12:34Z</time>
      </trkpt>
      <trkpt lat="44.83789" lon="4.22721">
        <ele>1407.6</ele>
        <time>2022-06-09T13:12:49Z</time>
      </trkpt>
      <trkpt lat="44.83789" lon="4.22721">
        <ele>1407.6</ele>
        <time>2022-06-09T13:12:50Z</time>
      </trkpt>
      <trkpt lat="44.8379" lon="4.22722">
        <ele>1407.6</ele>
        <time>2022-06-09T13:12:51Z</time>
      </trkpt>
      <trkpt lat="44.83791" lon="4.22722">
        <ele>1407.6</ele>
        <time>2022-06-09T13:12:52Z</time>
      </trkpt>
      <trkpt lat="44.83793" lon="4.2272">
        <ele>1407.6</ele>
        <time>2022-06-09T13:12:53Z</time>
      </trkpt>
      <trkpt lat="44.83793" lon="4.2272">
        <ele>1407.6</ele>
        <time>2022-06-09T13:12:54Z</time>
      </trkpt>
      <trkpt lat="44.83794" lon="4.22719">
        <ele>1407.6</ele>
        <time>2022-06-09T13:12:56Z</time>
      </trkpt>
      <trkpt lat="44.83795" lon="4.22718">
        <ele>1407.6</ele>
        <time>2022-06-09T13:12:57Z</time>
      </trkpt>
      <trkpt lat="44.83795" lon="4.22717">
        <ele>1407.6</ele>
        <time>2022-06-09T13:12:58Z</time>
      </trkpt>
      <trkpt lat="44.83796" lon="4.22715">
        <ele>1407.6</ele>
        <time>2022-06-09T13:12:59Z</time>
      </trkpt>
      <trkpt lat="44.83797" lon="4.22714">
        <ele>1407.6</ele>
        <time>2022-06-09T13:13:00Z</time>
      </trkpt>
      <trkpt lat="44.83798" lon="4.22713">
        <ele>1407.7</ele>
        <time>2022-06-09T13:13:02Z</time>
      </trkpt>
      <trkpt lat="44.83798" lon="4.22712">
        <ele>1407.7</ele>
        <time>2022-06-09T13:13:03Z</time>
      </trkpt>
      <trkpt lat="44.838" lon="4.2271">
        <ele>1407.7</ele>
        <time>2022-06-09T13:13:04Z</time>
      </trkpt>
      <trkpt lat="44.838" lon="4.22709">
        <ele>1407.7</ele>
        <time>2022-06-09T13:13:05Z</time>
      </trkpt>
      <trkpt lat="44.83801" lon="4.22708">
        <ele>1407.7</ele>
        <time>2022-06-09T13:13:06Z</time>
      </trkpt>
      <trkpt lat="44.83802" lon="4.22707">
        <ele>1407.8</ele>
        <time>2022-06-09T13:13:07Z</time>
      </trkpt>
      <trkpt lat="44.83803" lon="4.22706">
        <ele>1407.8</ele>
        <time>2022-06-09T13:13:09Z</time>
      </trkpt>
      <trkpt lat="44.83804" lon="4.22705">
        <ele>1407.8</ele>
        <time>2022-06-09T13:13:10Z</time>
      </trkpt>
      <trkpt lat="44.83804" lon="4.22704">
        <ele>1407.8</ele>
        <time>2022-06-09T13:13:11Z</time>
      </trkpt>
      <trkpt lat="44.83805" lon="4.22703">
        <ele>1407.8</ele>
        <time>2022-06-09T13:13:12Z</time>
      </trkpt>
      <trkpt lat="44.83805" lon="4.22703">
        <ele>1407.8</ele>
        <time>2022-06-09T13:13:13Z</time>
      </trkpt>
      <trkpt lat="44.83806" lon="4.22702">
        <ele>1407.9</ele>
        <time>2022-06-09T13:13:14Z</time>
      </trkpt>
      <trkpt lat="44.83806" lon="4.22701">
        <ele>1407.9</ele>
        <time>2022-06-09T13:13:15Z</time>
      </trkpt>
      <trkpt lat="44.83807" lon="4.22701">
        <ele>1407.9</ele>
        <time>2022-06-09T13:13:16Z</time>
      </trkpt>
      <trkpt lat="44.83807" lon="4.227">
        <ele>1407.9</ele>
        <time>2022-06-09T13:13:17Z</time>
      </trkpt>
      <trkpt lat="44.83808" lon="4.22698">
        <ele>1407.9</ele>
        <time>2022-06-09T13:13:18Z</time>
      </trkpt>
      <trkpt lat="44.83809" lon="4.22696">
        <ele>1408</ele>
        <time>2022-06-09T13:13:20Z</time>
      </trkpt>
      <trkpt lat="44.8381" lon="4.22696">
        <ele>1408</ele>
        <time>2022-06-09T13:13:21Z</time>
      </trkpt>
      <trkpt lat="44.83811" lon="4.22695">
        <ele>1408</ele>
        <time>2022-06-09T13:13:22Z</time>
      </trkpt>
      <trkpt lat="44.83813" lon="4.22694">
        <ele>1408.1</ele>
        <time>2022-06-09T13:13:23Z</time>
      </trkpt>
      <trkpt lat="44.83814" lon="4.22694">
        <ele>1408.1</ele>
        <time>2022-06-09T13:13:24Z</time>
      </trkpt>
      <trkpt lat="44.83816" lon="4.22693">
        <ele>1408.2</ele>
        <time>2022-06-09T13:13:25Z</time>
      </trkpt>
      <trkpt lat="44.83817" lon="4.22693">
        <ele>1408.2</ele>
        <time>2022-06-09T13:13:26Z</time>
      </trkpt>
      <trkpt lat="44.83818" lon="4.22693">
        <ele>1408.2</ele>
        <time>2022-06-09T13:13:27Z</time>
      </trkpt>
      <trkpt lat="44.83819" lon="4.22693">
        <ele>1408.2</ele>
        <time>2022-06-09T13:13:29Z</time>
      </trkpt>
      <trkpt lat="44.83821" lon="4.22694">
        <ele>1408.3</ele>
        <time>2022-06-09T13:13:30Z</time>
      </trkpt>
      <trkpt lat="44.83822" lon="4.22694">
        <ele>1408.3</ele>
        <time>2022-06-09T13:13:31Z</time>
      </trkpt>
      <trkpt lat="44.83824" lon="4.22695">
        <ele>1408.3</ele>
        <time>2022-06-09T13:13:32Z</time>
      </trkpt>
      <trkpt lat="44.83825" lon="4.22695">
        <ele>1408.4</ele>
        <time>2022-06-09T13:13:33Z</time>
      </trkpt>
      <trkpt lat="44.83826" lon="4.22696">
        <ele>1408.4</ele>
        <time>2022-06-09T13:13:34Z</time>
      </trkpt>
      <trkpt lat="44.83827" lon="4.22696">
        <ele>1408.4</ele>
        <time>2022-06-09T13:13:35Z</time>
      </trkpt>
      <trkpt lat="44.83829" lon="4.22697">
        <ele>1408.5</ele>
        <time>2022-06-09T13:13:36Z</time>
      </trkpt>
      <trkpt lat="44.8383" lon="4.22697">
        <ele>1408.5</ele>
        <time>2022-06-09T13:13:38Z</time>
      </trkpt>
      <trkpt lat="44.83832" lon="4.22696">
        <ele>1408.5</ele>
        <time>2022-06-09T13:13:39Z</time>
      </trkpt>
      <trkpt lat="44.83833" lon="4.22697">
        <ele>1408.6</ele>
        <time>2022-06-09T13:13:40Z</time>
      </trkpt>
      <trkpt lat="44.83833" lon="4.22697">
        <ele>1408.6</ele>
        <time>2022-06-09T13:13:41Z</time>
      </trkpt>
      <trkpt lat="44.83834" lon="4.22698">
        <ele>1408.6</ele>
        <time>2022-06-09T13:13:42Z</time>
      </trkpt>
      <trkpt lat="44.83834" lon="4.22699">
        <ele>1408.6</ele>
        <time>2022-06-09T13:13:43Z</time>
      </trkpt>
      <trkpt lat="44.83834" lon="4.227">
        <ele>1408.6</ele>
        <time>2022-06-09T13:13:44Z</time>
      </trkpt>
      <trkpt lat="44.83834" lon="4.227">
        <ele>1408.6</ele>
        <time>2022-06-09T13:13:45Z</time>
      </trkpt>
      <trkpt lat="44.83834" lon="4.227">
        <ele>1408.7</ele>
        <time>2022-06-09T13:13:46Z</time>
      </trkpt>
      <trkpt lat="44.83834" lon="4.227">
        <ele>1408.7</ele>
        <time>2022-06-09T13:13:47Z</time>
      </trkpt>
      <trkpt lat="44.83834" lon="4.22699">
        <ele>1408.7</ele>
        <time>2022-06-09T13:13:48Z</time>
      </trkpt>
      <trkpt lat="44.83834" lon="4.22699">
        <ele>1408.7</ele>
        <time>2022-06-09T13:13:49Z</time>
      </trkpt>
      <trkpt lat="44.83834" lon="4.22699">
        <ele>1408.7</ele>
        <time>2022-06-09T13:13:50Z</time>
      </trkpt>
      <trkpt lat="44.83834" lon="4.22699">
        <ele>1408.7</ele>
        <time>2022-06-09T13:13:51Z</time>
      </trkpt>
      <trkpt lat="44.83833" lon="4.22699">
        <ele>1408.7</ele>
        <time>2022-06-09T13:13:52Z</time>
      </trkpt>
      <trkpt lat="44.83833" lon="4.22699">
        <ele>1408.7</ele>
        <time>2022-06-09T13:13:53Z</time>
      </trkpt>
      <trkpt lat="44.83833" lon="4.227">
        <ele>1408.7</ele>
        <time>2022-06-09T13:13:54Z</time>
      </trkpt>
      <trkpt lat="44.83833" lon="4.22699">
        <ele>1408.7</ele>
        <time>2022-06-09T13:13:55Z</time>
      </trkpt>
      <trkpt lat="44.83833" lon="4.22699">
        <ele>1408.7</ele>
        <time>2022-06-09T13:13:56Z</time>
      </trkpt>
      <trkpt lat="44.83833" lon="4.22699">
        <ele>1408.7</ele>
        <time>2022-06-09T13:13:57Z</time>
      </trkpt>
      <trkpt lat="44.83833" lon="4.22699">
        <ele>1408.7</ele>
        <time>2022-06-09T13:13:58Z</time>
      </trkpt>
      <trkpt lat="44.83833" lon="4.227">
        <ele>1408.7</ele>
        <time>2022-06-09T13:13:59Z</time>
      </trkpt>
      <trkpt lat="44.83833" lon="4.227">
        <ele>1408.7</ele>
        <time>2022-06-09T13:14:01Z</time>
      </trkpt>
      <trkpt lat="44.8383" lon="4.22692">
        <ele>1408.8</ele>
        <time>2022-06-09T13:15:52Z</time>
      </trkpt>
      <trkpt lat="44.8383" lon="4.2269">
        <ele>1408.9</ele>
        <time>2022-06-09T13:15:53Z</time>
      </trkpt>
      <trkpt lat="44.83831" lon="4.22687">
        <ele>1408.9</ele>
        <time>2022-06-09T13:15:54Z</time>
      </trkpt>
      <trkpt lat="44.83834" lon="4.22684">
        <ele>1409.1</ele>
        <time>2022-06-09T13:15:55Z</time>
      </trkpt>
      <trkpt lat="44.83835" lon="4.22683">
        <ele>1409.1</ele>
        <time>2022-06-09T13:15:56Z</time>
      </trkpt>
      <trkpt lat="44.83839" lon="4.22683">
        <ele>1409.2</ele>
        <time>2022-06-09T13:15:57Z</time>
      </trkpt>
      <trkpt lat="44.8384" lon="4.22684">
        <ele>1409.3</ele>
        <time>2022-06-09T13:15:59Z</time>
      </trkpt>
      <trkpt lat="44.83842" lon="4.22685">
        <ele>1409.3</ele>
        <time>2022-06-09T13:16:00Z</time>
      </trkpt>
      <trkpt lat="44.83844" lon="4.22685">
        <ele>1409.4</ele>
        <time>2022-06-09T13:16:01Z</time>
      </trkpt>
      <trkpt lat="44.83848" lon="4.22686">
        <ele>1409.5</ele>
        <time>2022-06-09T13:16:02Z</time>
      </trkpt>
      <trkpt lat="44.83849" lon="4.22686">
        <ele>1409.5</ele>
        <time>2022-06-09T13:16:03Z</time>
      </trkpt>
      <trkpt lat="44.83853" lon="4.22686">
        <ele>1409.7</ele>
        <time>2022-06-09T13:16:04Z</time>
      </trkpt>
      <trkpt lat="44.83855" lon="4.22685">
        <ele>1409.7</ele>
        <time>2022-06-09T13:16:05Z</time>
      </trkpt>
      <trkpt lat="44.83858" lon="4.22685">
        <ele>1409.9</ele>
        <time>2022-06-09T13:16:07Z</time>
      </trkpt>
      <trkpt lat="44.83861" lon="4.22685">
        <ele>1410</ele>
        <time>2022-06-09T13:16:08Z</time>
      </trkpt>
      <trkpt lat="44.83864" lon="4.22685">
        <ele>1410.1</ele>
        <time>2022-06-09T13:16:09Z</time>
      </trkpt>
      <trkpt lat="44.83867" lon="4.22685">
        <ele>1410.2</ele>
        <time>2022-06-09T13:16:10Z</time>
      </trkpt>
      <trkpt lat="44.83871" lon="4.22684">
        <ele>1410.3</ele>
        <time>2022-06-09T13:16:12Z</time>
      </trkpt>
      <trkpt lat="44.83874" lon="4.22684">
        <ele>1410.4</ele>
        <time>2022-06-09T13:16:13Z</time>
      </trkpt>
      <trkpt lat="44.83877" lon="4.22683">
        <ele>1410.6</ele>
        <time>2022-06-09T13:16:14Z</time>
      </trkpt>
      <trkpt lat="44.8388" lon="4.22683">
        <ele>1410.7</ele>
        <time>2022-06-09T13:16:15Z</time>
      </trkpt>
      <trkpt lat="44.83885" lon="4.22682">
        <ele>1410.8</ele>
        <time>2022-06-09T13:16:16Z</time>
      </trkpt>
      <trkpt lat="44.83888" lon="4.22682">
        <ele>1411</ele>
        <time>2022-06-09T13:16:17Z</time>
      </trkpt>
      <trkpt lat="44.83892" lon="4.22682">
        <ele>1411.1</ele>
        <time>2022-06-09T13:16:18Z</time>
      </trkpt>
      <trkpt lat="44.83896" lon="4.22682">
        <ele>1411.2</ele>
        <time>2022-06-09T13:16:19Z</time>
      </trkpt>
      <trkpt lat="44.83903" lon="4.22682">
        <ele>1411.5</ele>
        <time>2022-06-09T13:16:21Z</time>
      </trkpt>
      <trkpt lat="44.83906" lon="4.22681">
        <ele>1411.6</ele>
        <time>2022-06-09T13:16:23Z</time>
      </trkpt>
      <trkpt lat="44.83909" lon="4.2268">
        <ele>1411.7</ele>
        <time>2022-06-09T13:16:24Z</time>
      </trkpt>
      <trkpt lat="44.83915" lon="4.2268">
        <ele>1411.9</ele>
        <time>2022-06-09T13:16:25Z</time>
      </trkpt>
      <trkpt lat="44.83919" lon="4.22679">
        <ele>1412</ele>
        <time>2022-06-09T13:16:26Z</time>
      </trkpt>
      <trkpt lat="44.83922" lon="4.22679">
        <ele>1412.1</ele>
        <time>2022-06-09T13:16:28Z</time>
      </trkpt>
      <trkpt lat="44.83926" lon="4.22679">
        <ele>1412.2</ele>
        <time>2022-06-09T13:16:29Z</time>
      </trkpt>
      <trkpt lat="44.83928" lon="4.22679">
        <ele>1412.3</ele>
        <time>2022-06-09T13:16:31Z</time>
      </trkpt>
      <trkpt lat="44.83929" lon="4.22679">
        <ele>1412.3</ele>
        <time>2022-06-09T13:16:32Z</time>
      </trkpt>
      <trkpt lat="44.83929" lon="4.22678">
        <ele>1412.3</ele>
        <time>2022-06-09T13:16:33Z</time>
      </trkpt>
      <trkpt lat="44.83928" lon="4.22678">
        <ele>1412.3</ele>
        <time>2022-06-09T13:16:34Z</time>
      </trkpt>
      <trkpt lat="44.83928" lon="4.22678">
        <ele>1412.3</ele>
        <time>2022-06-09T13:16:35Z</time>
      </trkpt>
      <trkpt lat="44.83928" lon="4.22679">
        <ele>1412.3</ele>
        <time>2022-06-09T13:16:36Z</time>
      </trkpt>
      <trkpt lat="44.83928" lon="4.22678">
        <ele>1412.3</ele>
        <time>2022-06-09T13:16:37Z</time>
      </trkpt>
      <trkpt lat="44.83928" lon="4.22678">
        <ele>1412.3</ele>
        <time>2022-06-09T13:16:38Z</time>
      </trkpt>
      <trkpt lat="44.83927" lon="4.22678">
        <ele>1412.4</ele>
        <time>2022-06-09T13:16:39Z</time>
      </trkpt>
      <trkpt lat="44.83927" lon="4.22678">
        <ele>1412.4</ele>
        <time>2022-06-09T13:16:40Z</time>
      </trkpt>
      <trkpt lat="44.83927" lon="4.22678">
        <ele>1412.4</ele>
        <time>2022-06-09T13:16:41Z</time>
      </trkpt>
      <trkpt lat="44.83927" lon="4.22678">
        <ele>1412.4</ele>
        <time>2022-06-09T13:16:42Z</time>
      </trkpt>
      <trkpt lat="44.8393" lon="4.22678">
        <ele>1412.4</ele>
        <time>2022-06-09T13:16:58Z</time>
      </trkpt>
      <trkpt lat="44.83932" lon="4.22677">
        <ele>1412.5</ele>
        <time>2022-06-09T13:16:59Z</time>
      </trkpt>
      <trkpt lat="44.83933" lon="4.22677">
        <ele>1412.5</ele>
        <time>2022-06-09T13:17:00Z</time>
      </trkpt>
      <trkpt lat="44.83935" lon="4.22675">
        <ele>1412.6</ele>
        <time>2022-06-09T13:17:01Z</time>
      </trkpt>
      <trkpt lat="44.83937" lon="4.22674">
        <ele>1412.6</ele>
        <time>2022-06-09T13:17:02Z</time>
      </trkpt>
      <trkpt lat="44.83938" lon="4.22673">
        <ele>1412.7</ele>
        <time>2022-06-09T13:17:03Z</time>
      </trkpt>
      <trkpt lat="44.8394" lon="4.22671">
        <ele>1412.8</ele>
        <time>2022-06-09T13:17:04Z</time>
      </trkpt>
      <trkpt lat="44.83944" lon="4.22669">
        <ele>1412.9</ele>
        <time>2022-06-09T13:17:05Z</time>
      </trkpt>
      <trkpt lat="44.83948" lon="4.22667">
        <ele>1413</ele>
        <time>2022-06-09T13:17:06Z</time>
      </trkpt>
      <trkpt lat="44.83952" lon="4.22662">
        <ele>1413.1</ele>
        <time>2022-06-09T13:17:08Z</time>
      </trkpt>
      <trkpt lat="44.83955" lon="4.2266">
        <ele>1413.2</ele>
        <time>2022-06-09T13:17:10Z</time>
      </trkpt>
      <trkpt lat="44.83957" lon="4.22657">
        <ele>1413.3</ele>
        <time>2022-06-09T13:17:11Z</time>
      </trkpt>
      <trkpt lat="44.8396" lon="4.22655">
        <ele>1413.4</ele>
        <time>2022-06-09T13:17:12Z</time>
      </trkpt>
      <trkpt lat="44.83963" lon="4.22651">
        <ele>1413.6</ele>
        <time>2022-06-09T13:17:13Z</time>
      </trkpt>
      <trkpt lat="44.83966" lon="4.22648">
        <ele>1413.7</ele>
        <time>2022-06-09T13:17:14Z</time>
      </trkpt>
      <trkpt lat="44.8397" lon="4.22645">
        <ele>1413.8</ele>
        <time>2022-06-09T13:17:15Z</time>
      </trkpt>
      <trkpt lat="44.83972" lon="4.22642">
        <ele>1413.9</ele>
        <time>2022-06-09T13:17:16Z</time>
      </trkpt>
      <trkpt lat="44.83974" lon="4.22638">
        <ele>1414</ele>
        <time>2022-06-09T13:17:18Z</time>
      </trkpt>
      <trkpt lat="44.83978" lon="4.22633">
        <ele>1414.1</ele>
        <time>2022-06-09T13:17:19Z</time>
      </trkpt>
      <trkpt lat="44.83981" lon="4.22629">
        <ele>1414.2</ele>
        <time>2022-06-09T13:17:20Z</time>
      </trkpt>
      <trkpt lat="44.83982" lon="4.22624">
        <ele>1414.3</ele>
        <time>2022-06-09T13:17:22Z</time>
      </trkpt>
      <trkpt lat="44.83984" lon="4.2262">
        <ele>1414.4</ele>
        <time>2022-06-09T13:17:23Z</time>
      </trkpt>
      <trkpt lat="44.83986" lon="4.22615">
        <ele>1414.5</ele>
        <time>2022-06-09T13:17:24Z</time>
      </trkpt>
      <trkpt lat="44.83989" lon="4.22612">
        <ele>1414.6</ele>
        <time>2022-06-09T13:17:25Z</time>
      </trkpt>
      <trkpt lat="44.83991" lon="4.22608">
        <ele>1414.7</ele>
        <time>2022-06-09T13:17:27Z</time>
      </trkpt>
      <trkpt lat="44.83994" lon="4.22604">
        <ele>1414.8</ele>
        <time>2022-06-09T13:17:28Z</time>
      </trkpt>
      <trkpt lat="44.83994" lon="4.22603">
        <ele>1414.9</ele>
        <time>2022-06-09T13:17:29Z</time>
      </trkpt>
      <trkpt lat="44.83996" lon="4.22597">
        <ele>1415</ele>
        <time>2022-06-09T13:17:30Z</time>
      </trkpt>
      <trkpt lat="44.83996" lon="4.22595">
        <ele>1415</ele>
        <time>2022-06-09T13:17:31Z</time>
      </trkpt>
      <trkpt lat="44.83999" lon="4.22592">
        <ele>1415.1</ele>
        <time>2022-06-09T13:17:32Z</time>
      </trkpt>
      <trkpt lat="44.84001" lon="4.2259">
        <ele>1415.2</ele>
        <time>2022-06-09T13:17:33Z</time>
      </trkpt>
      <trkpt lat="44.84003" lon="4.22587">
        <ele>1415.3</ele>
        <time>2022-06-09T13:17:34Z</time>
      </trkpt>
      <trkpt lat="44.84005" lon="4.22584">
        <ele>1415.4</ele>
        <time>2022-06-09T13:17:35Z</time>
      </trkpt>
      <trkpt lat="44.84008" lon="4.22578">
        <ele>1415.6</ele>
        <time>2022-06-09T13:17:36Z</time>
      </trkpt>
      <trkpt lat="44.84009" lon="4.22575">
        <ele>1415.6</ele>
        <time>2022-06-09T13:17:37Z</time>
      </trkpt>
      <trkpt lat="44.8401" lon="4.22572">
        <ele>1415.7</ele>
        <time>2022-06-09T13:17:39Z</time>
      </trkpt>
      <trkpt lat="44.84012" lon="4.22567">
        <ele>1415.8</ele>
        <time>2022-06-09T13:17:40Z</time>
      </trkpt>
      <trkpt lat="44.84013" lon="4.22565">
        <ele>1415.8</ele>
        <time>2022-06-09T13:17:41Z</time>
      </trkpt>
      <trkpt lat="44.84015" lon="4.2256">
        <ele>1416</ele>
        <time>2022-06-09T13:17:42Z</time>
      </trkpt>
      <trkpt lat="44.84019" lon="4.22555">
        <ele>1416.1</ele>
        <time>2022-06-09T13:17:44Z</time>
      </trkpt>
      <trkpt lat="44.84021" lon="4.22552">
        <ele>1416.1</ele>
        <time>2022-06-09T13:17:46Z</time>
      </trkpt>
      <trkpt lat="44.84023" lon="4.22547">
        <ele>1416.2</ele>
        <time>2022-06-09T13:17:47Z</time>
      </trkpt>
      <trkpt lat="44.84024" lon="4.22546">
        <ele>1416.2</ele>
        <time>2022-06-09T13:17:48Z</time>
      </trkpt>
      <trkpt lat="44.84026" lon="4.22541">
        <ele>1416.3</ele>
        <time>2022-06-09T13:17:49Z</time>
      </trkpt>
      <trkpt lat="44.84028" lon="4.22538">
        <ele>1416.3</ele>
        <time>2022-06-09T13:17:50Z</time>
      </trkpt>
      <trkpt lat="44.84031" lon="4.22532">
        <ele>1416.4</ele>
        <time>2022-06-09T13:17:52Z</time>
      </trkpt>
      <trkpt lat="44.84033" lon="4.22529">
        <ele>1416.4</ele>
        <time>2022-06-09T13:17:53Z</time>
      </trkpt>
      <trkpt lat="44.84035" lon="4.22526">
        <ele>1416.4</ele>
        <time>2022-06-09T13:17:55Z</time>
      </trkpt>
      <trkpt lat="44.84037" lon="4.22523">
        <ele>1416.4</ele>
        <time>2022-06-09T13:17:56Z</time>
      </trkpt>
      <trkpt lat="44.84039" lon="4.2252">
        <ele>1416.4</ele>
        <time>2022-06-09T13:17:57Z</time>
      </trkpt>
      <trkpt lat="44.8404" lon="4.22517">
        <ele>1416.4</ele>
        <time>2022-06-09T13:17:58Z</time>
      </trkpt>
      <trkpt lat="44.84042" lon="4.22514">
        <ele>1416.3</ele>
        <time>2022-06-09T13:17:59Z</time>
      </trkpt>
      <trkpt lat="44.84044" lon="4.2251">
        <ele>1416.3</ele>
        <time>2022-06-09T13:18:00Z</time>
      </trkpt>
      <trkpt lat="44.84045" lon="4.22507">
        <ele>1416.3</ele>
        <time>2022-06-09T13:18:01Z</time>
      </trkpt>
      <trkpt lat="44.84047" lon="4.22503">
        <ele>1416.3</ele>
        <time>2022-06-09T13:18:02Z</time>
      </trkpt>
      <trkpt lat="44.8405" lon="4.22499">
        <ele>1416.2</ele>
        <time>2022-06-09T13:18:03Z</time>
      </trkpt>
      <trkpt lat="44.84053" lon="4.22493">
        <ele>1416.1</ele>
        <time>2022-06-09T13:18:04Z</time>
      </trkpt>
      <trkpt lat="44.84056" lon="4.22487">
        <ele>1416</ele>
        <time>2022-06-09T13:18:05Z</time>
      </trkpt>
      <trkpt lat="44.84058" lon="4.22481">
        <ele>1416</ele>
        <time>2022-06-09T13:18:07Z</time>
      </trkpt>
      <trkpt lat="44.84061" lon="4.22477">
        <ele>1415.9</ele>
        <time>2022-06-09T13:18:08Z</time>
      </trkpt>
      <trkpt lat="44.84064" lon="4.22473">
        <ele>1415.8</ele>
        <time>2022-06-09T13:18:09Z</time>
      </trkpt>
      <trkpt lat="44.84067" lon="4.22468">
        <ele>1415.7</ele>
        <time>2022-06-09T13:18:10Z</time>
      </trkpt>
      <trkpt lat="44.8407" lon="4.22464">
        <ele>1415.7</ele>
        <time>2022-06-09T13:18:11Z</time>
      </trkpt>
      <trkpt lat="44.84072" lon="4.22459">
        <ele>1415.6</ele>
        <time>2022-06-09T13:18:12Z</time>
      </trkpt>
      <trkpt lat="44.84075" lon="4.22455">
        <ele>1415.5</ele>
        <time>2022-06-09T13:18:13Z</time>
      </trkpt>
      <trkpt lat="44.84078" lon="4.2245">
        <ele>1415.4</ele>
        <time>2022-06-09T13:18:14Z</time>
      </trkpt>
      <trkpt lat="44.84081" lon="4.22444">
        <ele>1415.3</ele>
        <time>2022-06-09T13:18:15Z</time>
      </trkpt>
      <trkpt lat="44.84084" lon="4.22439">
        <ele>1415.2</ele>
        <time>2022-06-09T13:18:16Z</time>
      </trkpt>
      <trkpt lat="44.84086" lon="4.22434">
        <ele>1415.2</ele>
        <time>2022-06-09T13:18:17Z</time>
      </trkpt>
      <trkpt lat="44.84089" lon="4.2243">
        <ele>1415.1</ele>
        <time>2022-06-09T13:18:18Z</time>
      </trkpt>
      <trkpt lat="44.84093" lon="4.22427">
        <ele>1415</ele>
        <time>2022-06-09T13:18:19Z</time>
      </trkpt>
      <trkpt lat="44.84097" lon="4.22426">
        <ele>1415</ele>
        <time>2022-06-09T13:18:20Z</time>
      </trkpt>
      <trkpt lat="44.841" lon="4.22425">
        <ele>1415</ele>
        <time>2022-06-09T13:18:21Z</time>
      </trkpt>
      <trkpt lat="44.84104" lon="4.22424">
        <ele>1415</ele>
        <time>2022-06-09T13:18:22Z</time>
      </trkpt>
      <trkpt lat="44.84105" lon="4.22424">
        <ele>1414.9</ele>
        <time>2022-06-09T13:18:23Z</time>
      </trkpt>
      <trkpt lat="44.84109" lon="4.22426">
        <ele>1414.9</ele>
        <time>2022-06-09T13:18:24Z</time>
      </trkpt>
      <trkpt lat="44.84111" lon="4.22426">
        <ele>1414.9</ele>
        <time>2022-06-09T13:18:25Z</time>
      </trkpt>
      <trkpt lat="44.84114" lon="4.22427">
        <ele>1414.9</ele>
        <time>2022-06-09T13:18:26Z</time>
      </trkpt>
      <trkpt lat="44.84116" lon="4.22428">
        <ele>1414.9</ele>
        <time>2022-06-09T13:18:27Z</time>
      </trkpt>
      <trkpt lat="44.84118" lon="4.2243">
        <ele>1414.9</ele>
        <time>2022-06-09T13:18:29Z</time>
      </trkpt>
      <trkpt lat="44.8412" lon="4.22434">
        <ele>1414.8</ele>
        <time>2022-06-09T13:18:30Z</time>
      </trkpt>
      <trkpt lat="44.84121" lon="4.22435">
        <ele>1414.8</ele>
        <time>2022-06-09T13:18:31Z</time>
      </trkpt>
      <trkpt lat="44.84123" lon="4.22438">
        <ele>1414.8</ele>
        <time>2022-06-09T13:18:32Z</time>
      </trkpt>
      <trkpt lat="44.84124" lon="4.2244">
        <ele>1414.8</ele>
        <time>2022-06-09T13:18:34Z</time>
      </trkpt>
      <trkpt lat="44.84126" lon="4.22442">
        <ele>1414.8</ele>
        <time>2022-06-09T13:18:35Z</time>
      </trkpt>
      <trkpt lat="44.84127" lon="4.22443">
        <ele>1414.8</ele>
        <time>2022-06-09T13:18:37Z</time>
      </trkpt>
      <trkpt lat="44.84127" lon="4.22443">
        <ele>1414.8</ele>
        <time>2022-06-09T13:18:38Z</time>
      </trkpt>
      <trkpt lat="44.84127" lon="4.22443">
        <ele>1414.8</ele>
        <time>2022-06-09T13:18:39Z</time>
      </trkpt>
      <trkpt lat="44.84128" lon="4.22444">
        <ele>1414.8</ele>
        <time>2022-06-09T13:18:40Z</time>
      </trkpt>
      <trkpt lat="44.84129" lon="4.22445">
        <ele>1414.8</ele>
        <time>2022-06-09T13:18:41Z</time>
      </trkpt>
      <trkpt lat="44.84129" lon="4.22444">
        <ele>1414.8</ele>
        <time>2022-06-09T13:18:42Z</time>
      </trkpt>
      <trkpt lat="44.84129" lon="4.22444">
        <ele>1414.8</ele>
        <time>2022-06-09T13:18:43Z</time>
      </trkpt>
      <trkpt lat="44.84129" lon="4.22443">
        <ele>1414.8</ele>
        <time>2022-06-09T13:18:44Z</time>
      </trkpt>
      <trkpt lat="44.84129" lon="4.22443">
        <ele>1414.8</ele>
        <time>2022-06-09T13:18:45Z</time>
      </trkpt>
      <trkpt lat="44.84129" lon="4.22443">
        <ele>1414.8</ele>
        <time>2022-06-09T13:18:46Z</time>
      </trkpt>
      <trkpt lat="44.84129" lon="4.22443">
        <ele>1414.8</ele>
        <time>2022-06-09T13:18:47Z</time>
      </trkpt>
      <trkpt lat="44.84129" lon="4.22443">
        <ele>1414.8</ele>
        <time>2022-06-09T13:18:48Z</time>
      </trkpt>
      <trkpt lat="44.84129" lon="4.22443">
        <ele>1414.8</ele>
        <time>2022-06-09T13:18:49Z</time>
      </trkpt>
      <trkpt lat="44.84129" lon="4.22442">
        <ele>1414.8</ele>
        <time>2022-06-09T13:18:50Z</time>
      </trkpt>
      <trkpt lat="44.84129" lon="4.22443">
        <ele>1414.8</ele>
        <time>2022-06-09T13:18:51Z</time>
      </trkpt>
      <trkpt lat="44.84129" lon="4.22443">
        <ele>1414.8</ele>
        <time>2022-06-09T13:18:52Z</time>
      </trkpt>
      <trkpt lat="44.84125" lon="4.22445">
        <ele>1414.8</ele>
        <time>2022-06-09T13:20:58Z</time>
      </trkpt>
      <trkpt lat="44.84126" lon="4.22445">
        <ele>1414.8</ele>
        <time>2022-06-09T13:20:59Z</time>
      </trkpt>
      <trkpt lat="44.84126" lon="4.22445">
        <ele>1414.8</ele>
        <time>2022-06-09T13:21:00Z</time>
      </trkpt>
      <trkpt lat="44.84126" lon="4.22445">
        <ele>1414.8</ele>
        <time>2022-06-09T13:21:01Z</time>
      </trkpt>
      <trkpt lat="44.84126" lon="4.22445">
        <ele>1414.8</ele>
        <time>2022-06-09T13:21:02Z</time>
      </trkpt>
      <trkpt lat="44.84125" lon="4.22444">
        <ele>1414.8</ele>
        <time>2022-06-09T13:21:03Z</time>
      </trkpt>
      <trkpt lat="44.84124" lon="4.22442">
        <ele>1414.8</ele>
        <time>2022-06-09T13:21:04Z</time>
      </trkpt>
      <trkpt lat="44.84124" lon="4.2244">
        <ele>1414.8</ele>
        <time>2022-06-09T13:21:06Z</time>
      </trkpt>
      <trkpt lat="44.84123" lon="4.22438">
        <ele>1414.8</ele>
        <time>2022-06-09T13:21:07Z</time>
      </trkpt>
      <trkpt lat="44.84123" lon="4.22436">
        <ele>1414.8</ele>
        <time>2022-06-09T13:21:08Z</time>
      </trkpt>
      <trkpt lat="44.84121" lon="4.22433">
        <ele>1414.8</ele>
        <time>2022-06-09T13:21:09Z</time>
      </trkpt>
      <trkpt lat="44.84121" lon="4.2243">
        <ele>1414.7</ele>
        <time>2022-06-09T13:21:11Z</time>
      </trkpt>
      <trkpt lat="44.8412" lon="4.22429">
        <ele>1414.7</ele>
        <time>2022-06-09T13:21:12Z</time>
      </trkpt>
      <trkpt lat="44.8412" lon="4.22427">
        <ele>1414.7</ele>
        <time>2022-06-09T13:21:13Z</time>
      </trkpt>
      <trkpt lat="44.8412" lon="4.22422">
        <ele>1414.7</ele>
        <time>2022-06-09T13:21:14Z</time>
      </trkpt>
      <trkpt lat="44.8412" lon="4.22421">
        <ele>1414.7</ele>
        <time>2022-06-09T13:21:15Z</time>
      </trkpt>
      <trkpt lat="44.84119" lon="4.2242">
        <ele>1414.7</ele>
        <time>2022-06-09T13:21:16Z</time>
      </trkpt>
      <trkpt lat="44.84119" lon="4.22419">
        <ele>1414.7</ele>
        <time>2022-06-09T13:21:18Z</time>
      </trkpt>
      <trkpt lat="44.84118" lon="4.22418">
        <ele>1414.7</ele>
        <time>2022-06-09T13:21:19Z</time>
      </trkpt>
      <trkpt lat="44.84118" lon="4.22418">
        <ele>1414.7</ele>
        <time>2022-06-09T13:21:20Z</time>
      </trkpt>
      <trkpt lat="44.84118" lon="4.22418">
        <ele>1414.7</ele>
        <time>2022-06-09T13:21:21Z</time>
      </trkpt>
      <trkpt lat="44.84117" lon="4.22419">
        <ele>1414.7</ele>
        <time>2022-06-09T13:21:22Z</time>
      </trkpt>
      <trkpt lat="44.84117" lon="4.22419">
        <ele>1414.7</ele>
        <time>2022-06-09T13:21:23Z</time>
      </trkpt>
      <trkpt lat="44.84117" lon="4.22419">
        <ele>1414.7</ele>
        <time>2022-06-09T13:21:24Z</time>
      </trkpt>
      <trkpt lat="44.84117" lon="4.22418">
        <ele>1414.7</ele>
        <time>2022-06-09T13:21:25Z</time>
      </trkpt>
      <trkpt lat="44.84117" lon="4.22418">
        <ele>1414.7</ele>
        <time>2022-06-09T13:21:26Z</time>
      </trkpt>
      <trkpt lat="44.84116" lon="4.22417">
        <ele>1414.7</ele>
        <time>2022-06-09T13:21:27Z</time>
      </trkpt>
      <trkpt lat="44.84116" lon="4.22417">
        <ele>1414.7</ele>
        <time>2022-06-09T13:21:28Z</time>
      </trkpt>
      <trkpt lat="44.84116" lon="4.22416">
        <ele>1414.7</ele>
        <time>2022-06-09T13:21:29Z</time>
      </trkpt>
      <trkpt lat="44.84116" lon="4.22417">
        <ele>1414.7</ele>
        <time>2022-06-09T13:21:30Z</time>
      </trkpt>
      <trkpt lat="44.84116" lon="4.22417">
        <ele>1414.7</ele>
        <time>2022-06-09T13:21:31Z</time>
      </trkpt>
      <trkpt lat="44.84116" lon="4.22416">
        <ele>1414.7</ele>
        <time>2022-06-09T13:21:32Z</time>
      </trkpt>
      <trkpt lat="44.84116" lon="4.22416">
        <ele>1414.7</ele>
        <time>2022-06-09T13:21:33Z</time>
      </trkpt>
      <trkpt lat="44.84116" lon="4.22416">
        <ele>1414.7</ele>
        <time>2022-06-09T13:21:34Z</time>
      </trkpt>
      <trkpt lat="44.84116" lon="4.22416">
        <ele>1414.7</ele>
        <time>2022-06-09T13:21:35Z</time>
      </trkpt>
      <trkpt lat="44.84116" lon="4.22416">
        <ele>1414.7</ele>
        <time>2022-06-09T13:21:36Z</time>
      </trkpt>
      <trkpt lat="44.84116" lon="4.22416">
        <ele>1414.7</ele>
        <time>2022-06-09T13:21:37Z</time>
      </trkpt>
      <trkpt lat="44.84116" lon="4.22416">
        <ele>1414.7</ele>
        <time>2022-06-09T13:21:38Z</time>
      </trkpt>
      <trkpt lat="44.84116" lon="4.22415">
        <ele>1414.7</ele>
        <time>2022-06-09T13:21:39Z</time>
      </trkpt>
      <trkpt lat="44.84116" lon="4.22415">
        <ele>1414.7</ele>
        <time>2022-06-09T13:21:40Z</time>
      </trkpt>
      <trkpt lat="44.84116" lon="4.22415">
        <ele>1414.7</ele>
        <time>2022-06-09T13:21:41Z</time>
      </trkpt>
      <trkpt lat="44.84116" lon="4.22415">
        <ele>1414.7</ele>
        <time>2022-06-09T13:21:42Z</time>
      </trkpt>
      <trkpt lat="44.84116" lon="4.22415">
        <ele>1414.7</ele>
        <time>2022-06-09T13:21:43Z</time>
      </trkpt>
      <trkpt lat="44.84115" lon="4.22415">
        <ele>1414.7</ele>
        <time>2022-06-09T13:21:44Z</time>
      </trkpt>
      <trkpt lat="44.84115" lon="4.22415">
        <ele>1414.7</ele>
        <time>2022-06-09T13:21:46Z</time>
      </trkpt>
      <trkpt lat="44.84112" lon="4.22419">
        <ele>1414.7</ele>
        <time>2022-06-09T13:25:56Z</time>
      </trkpt>
      <trkpt lat="44.84112" lon="4.22419">
        <ele>1414.7</ele>
        <time>2022-06-09T13:25:57Z</time>
      </trkpt>
      <trkpt lat="44.84112" lon="4.22419">
        <ele>1414.7</ele>
        <time>2022-06-09T13:25:58Z</time>
      </trkpt>
      <trkpt lat="44.84112" lon="4.22418">
        <ele>1414.7</ele>
        <time>2022-06-09T13:25:59Z</time>
      </trkpt>
      <trkpt lat="44.84112" lon="4.22418">
        <ele>1414.7</ele>
        <time>2022-06-09T13:26:00Z</time>
      </trkpt>
      <trkpt lat="44.84111" lon="4.22418">
        <ele>1414.7</ele>
        <time>2022-06-09T13:26:01Z</time>
      </trkpt>
      <trkpt lat="44.84111" lon="4.22418">
        <ele>1414.7</ele>
        <time>2022-06-09T13:26:02Z</time>
      </trkpt>
      <trkpt lat="44.84111" lon="4.22417">
        <ele>1414.7</ele>
        <time>2022-06-09T13:26:03Z</time>
      </trkpt>
      <trkpt lat="44.8411" lon="4.22416">
        <ele>1414.7</ele>
        <time>2022-06-09T13:26:04Z</time>
      </trkpt>
      <trkpt lat="44.84109" lon="4.22414">
        <ele>1414.7</ele>
        <time>2022-06-09T13:26:05Z</time>
      </trkpt>
      <trkpt lat="44.84108" lon="4.22412">
        <ele>1414.6</ele>
        <time>2022-06-09T13:26:06Z</time>
      </trkpt>
      <trkpt lat="44.84106" lon="4.22408">
        <ele>1414.6</ele>
        <time>2022-06-09T13:26:07Z</time>
      </trkpt>
      <trkpt lat="44.84106" lon="4.22407">
        <ele>1414.6</ele>
        <time>2022-06-09T13:26:08Z</time>
      </trkpt>
      <trkpt lat="44.84105" lon="4.22403">
        <ele>1414.6</ele>
        <time>2022-06-09T13:26:09Z</time>
      </trkpt>
      <trkpt lat="44.84105" lon="4.22399">
        <ele>1414.6</ele>
        <time>2022-06-09T13:26:10Z</time>
      </trkpt>
      <trkpt lat="44.84105" lon="4.22394">
        <ele>1414.6</ele>
        <time>2022-06-09T13:26:11Z</time>
      </trkpt>
      <trkpt lat="44.84104" lon="4.22389">
        <ele>1414.6</ele>
        <time>2022-06-09T13:26:12Z</time>
      </trkpt>
      <trkpt lat="44.84104" lon="4.22384">
        <ele>1414.6</ele>
        <time>2022-06-09T13:26:13Z</time>
      </trkpt>
      <trkpt lat="44.84104" lon="4.22378">
        <ele>1414.6</ele>
        <time>2022-06-09T13:26:14Z</time>
      </trkpt>
      <trkpt lat="44.84104" lon="4.22372">
        <ele>1414.5</ele>
        <time>2022-06-09T13:26:15Z</time>
      </trkpt>
      <trkpt lat="44.84105" lon="4.22367">
        <ele>1414.5</ele>
        <time>2022-06-09T13:26:16Z</time>
      </trkpt>
      <trkpt lat="44.84106" lon="4.22363">
        <ele>1414.5</ele>
        <time>2022-06-09T13:26:17Z</time>
      </trkpt>
      <trkpt lat="44.84106" lon="4.22357">
        <ele>1414.5</ele>
        <time>2022-06-09T13:26:18Z</time>
      </trkpt>
      <trkpt lat="44.84107" lon="4.22351">
        <ele>1414.5</ele>
        <time>2022-06-09T13:26:19Z</time>
      </trkpt>
      <trkpt lat="44.84108" lon="4.22345">
        <ele>1414.5</ele>
        <time>2022-06-09T13:26:20Z</time>
      </trkpt>
      <trkpt lat="44.84109" lon="4.22337">
        <ele>1414.4</ele>
        <time>2022-06-09T13:26:21Z</time>
      </trkpt>
      <trkpt lat="44.84109" lon="4.22331">
        <ele>1414.4</ele>
        <time>2022-06-09T13:26:23Z</time>
      </trkpt>
      <trkpt lat="44.84109" lon="4.22325">
        <ele>1414.4</ele>
        <time>2022-06-09T13:26:24Z</time>
      </trkpt>
      <trkpt lat="44.8411" lon="4.22319">
        <ele>1414.4</ele>
        <time>2022-06-09T13:26:25Z</time>
      </trkpt>
      <trkpt lat="44.84111" lon="4.2231">
        <ele>1414.4</ele>
        <time>2022-06-09T13:26:26Z</time>
      </trkpt>
      <trkpt lat="44.84112" lon="4.22303">
        <ele>1414.3</ele>
        <time>2022-06-09T13:26:27Z</time>
      </trkpt>
      <trkpt lat="44.84113" lon="4.22295">
        <ele>1414.3</ele>
        <time>2022-06-09T13:26:29Z</time>
      </trkpt>
      <trkpt lat="44.84114" lon="4.2229">
        <ele>1414.3</ele>
        <time>2022-06-09T13:26:30Z</time>
      </trkpt>
      <trkpt lat="44.84115" lon="4.22284">
        <ele>1414.3</ele>
        <time>2022-06-09T13:26:31Z</time>
      </trkpt>
      <trkpt lat="44.84116" lon="4.22279">
        <ele>1414.3</ele>
        <time>2022-06-09T13:26:32Z</time>
      </trkpt>
      <trkpt lat="44.84117" lon="4.22273">
        <ele>1414.3</ele>
        <time>2022-06-09T13:26:33Z</time>
      </trkpt>
      <trkpt lat="44.84118" lon="4.22266">
        <ele>1414.3</ele>
        <time>2022-06-09T13:26:34Z</time>
      </trkpt>
      <trkpt lat="44.84119" lon="4.22261">
        <ele>1414.3</ele>
        <time>2022-06-09T13:26:35Z</time>
      </trkpt>
      <trkpt lat="44.8412" lon="4.22257">
        <ele>1414.3</ele>
        <time>2022-06-09T13:26:36Z</time>
      </trkpt>
      <trkpt lat="44.8412" lon="4.2225">
        <ele>1414.1</ele>
        <time>2022-06-09T13:26:37Z</time>
      </trkpt>
      <trkpt lat="44.8412" lon="4.22245">
        <ele>1413.9</ele>
        <time>2022-06-09T13:26:39Z</time>
      </trkpt>
      <trkpt lat="44.84118" lon="4.2224">
        <ele>1413.8</ele>
        <time>2022-06-09T13:26:40Z</time>
      </trkpt>
      <trkpt lat="44.84115" lon="4.22233">
        <ele>1413.4</ele>
        <time>2022-06-09T13:26:41Z</time>
      </trkpt>
      <trkpt lat="44.84114" lon="4.22231">
        <ele>1413</ele>
        <time>2022-06-09T13:26:43Z</time>
      </trkpt>
      <trkpt lat="44.84112" lon="4.2223">
        <ele>1412.8</ele>
        <time>2022-06-09T13:26:44Z</time>
      </trkpt>
      <trkpt lat="44.8411" lon="4.2223">
        <ele>1412.7</ele>
        <time>2022-06-09T13:26:45Z</time>
      </trkpt>
      <trkpt lat="44.84109" lon="4.2223">
        <ele>1412.5</ele>
        <time>2022-06-09T13:26:46Z</time>
      </trkpt>
      <trkpt lat="44.84107" lon="4.22231">
        <ele>1412.4</ele>
        <time>2022-06-09T13:26:47Z</time>
      </trkpt>
      <trkpt lat="44.84106" lon="4.2223">
        <ele>1412.2</ele>
        <time>2022-06-09T13:26:48Z</time>
      </trkpt>
      <trkpt lat="44.84105" lon="4.22229">
        <ele>1412.2</ele>
        <time>2022-06-09T13:26:49Z</time>
      </trkpt>
      <trkpt lat="44.84104" lon="4.22228">
        <ele>1412.1</ele>
        <time>2022-06-09T13:26:50Z</time>
      </trkpt>
      <trkpt lat="44.84102" lon="4.22224">
        <ele>1411.7</ele>
        <time>2022-06-09T13:26:51Z</time>
      </trkpt>
      <trkpt lat="44.84101" lon="4.22223">
        <ele>1411.6</ele>
        <time>2022-06-09T13:26:52Z</time>
      </trkpt>
      <trkpt lat="44.84099" lon="4.22219">
        <ele>1411.3</ele>
        <time>2022-06-09T13:26:53Z</time>
      </trkpt>
      <trkpt lat="44.84097" lon="4.22213">
        <ele>1410.9</ele>
        <time>2022-06-09T13:26:54Z</time>
      </trkpt>
      <trkpt lat="44.84095" lon="4.22203">
        <ele>1410.3</ele>
        <time>2022-06-09T13:26:55Z</time>
      </trkpt>
      <trkpt lat="44.84093" lon="4.22196">
        <ele>1409.8</ele>
        <time>2022-06-09T13:26:56Z</time>
      </trkpt>
      <trkpt lat="44.84093" lon="4.22188">
        <ele>1409.3</ele>
        <time>2022-06-09T13:26:57Z</time>
      </trkpt>
      <trkpt lat="44.84092" lon="4.22179">
        <ele>1408.7</ele>
        <time>2022-06-09T13:26:58Z</time>
      </trkpt>
      <trkpt lat="44.84092" lon="4.2217">
        <ele>1408.2</ele>
        <time>2022-06-09T13:26:59Z</time>
      </trkpt>
      <trkpt lat="44.84092" lon="4.2216">
        <ele>1407.6</ele>
        <time>2022-06-09T13:27:00Z</time>
      </trkpt>
      <trkpt lat="44.84092" lon="4.2215">
        <ele>1406.9</ele>
        <time>2022-06-09T13:27:01Z</time>
      </trkpt>
      <trkpt lat="44.84093" lon="4.2214">
        <ele>1406.3</ele>
        <time>2022-06-09T13:27:02Z</time>
      </trkpt>
      <trkpt lat="44.84093" lon="4.22129">
        <ele>1405.7</ele>
        <time>2022-06-09T13:27:03Z</time>
      </trkpt>
      <trkpt lat="44.84092" lon="4.22117">
        <ele>1405</ele>
        <time>2022-06-09T13:27:04Z</time>
      </trkpt>
      <trkpt lat="44.84092" lon="4.22106">
        <ele>1404.3</ele>
        <time>2022-06-09T13:27:05Z</time>
      </trkpt>
      <trkpt lat="44.84092" lon="4.22094">
        <ele>1403.6</ele>
        <time>2022-06-09T13:27:06Z</time>
      </trkpt>
      <trkpt lat="44.84092" lon="4.22082">
        <ele>1403</ele>
        <time>2022-06-09T13:27:07Z</time>
      </trkpt>
      <trkpt lat="44.84092" lon="4.22071">
        <ele>1402.3</ele>
        <time>2022-06-09T13:27:08Z</time>
      </trkpt>
      <trkpt lat="44.84092" lon="4.2206">
        <ele>1401.6</ele>
        <time>2022-06-09T13:27:09Z</time>
      </trkpt>
      <trkpt lat="44.84092" lon="4.22048">
        <ele>1401</ele>
        <time>2022-06-09T13:27:10Z</time>
      </trkpt>
      <trkpt lat="44.84092" lon="4.22037">
        <ele>1400.3</ele>
        <time>2022-06-09T13:27:11Z</time>
      </trkpt>
      <trkpt lat="44.84091" lon="4.22025">
        <ele>1399.7</ele>
        <time>2022-06-09T13:27:12Z</time>
      </trkpt>
      <trkpt lat="44.84089" lon="4.22014">
        <ele>1399.1</ele>
        <time>2022-06-09T13:27:13Z</time>
      </trkpt>
      <trkpt lat="44.84086" lon="4.22002">
        <ele>1398.4</ele>
        <time>2022-06-09T13:27:14Z</time>
      </trkpt>
      <trkpt lat="44.84083" lon="4.21991">
        <ele>1397.7</ele>
        <time>2022-06-09T13:27:15Z</time>
      </trkpt>
      <trkpt lat="44.8408" lon="4.21979">
        <ele>1397</ele>
        <time>2022-06-09T13:27:16Z</time>
      </trkpt>
      <trkpt lat="44.84078" lon="4.21967">
        <ele>1396.3</ele>
        <time>2022-06-09T13:27:17Z</time>
      </trkpt>
      <trkpt lat="44.84075" lon="4.21955">
        <ele>1395.6</ele>
        <time>2022-06-09T13:27:18Z</time>
      </trkpt>
      <trkpt lat="44.84072" lon="4.21942">
        <ele>1394.9</ele>
        <time>2022-06-09T13:27:19Z</time>
      </trkpt>
      <trkpt lat="44.84069" lon="4.2193">
        <ele>1394.2</ele>
        <time>2022-06-09T13:27:20Z</time>
      </trkpt>
      <trkpt lat="44.84067" lon="4.21917">
        <ele>1393.5</ele>
        <time>2022-06-09T13:27:21Z</time>
      </trkpt>
      <trkpt lat="44.84064" lon="4.21905">
        <ele>1392.8</ele>
        <time>2022-06-09T13:27:22Z</time>
      </trkpt>
      <trkpt lat="44.84061" lon="4.21892">
        <ele>1392</ele>
        <time>2022-06-09T13:27:23Z</time>
      </trkpt>
      <trkpt lat="44.84058" lon="4.21878">
        <ele>1391.2</ele>
        <time>2022-06-09T13:27:24Z</time>
      </trkpt>
      <trkpt lat="44.84056" lon="4.21865">
        <ele>1390.5</ele>
        <time>2022-06-09T13:27:25Z</time>
      </trkpt>
      <trkpt lat="44.84054" lon="4.2185">
        <ele>1389.6</ele>
        <time>2022-06-09T13:27:26Z</time>
      </trkpt>
      <trkpt lat="44.84053" lon="4.21836">
        <ele>1388.8</ele>
        <time>2022-06-09T13:27:27Z</time>
      </trkpt>
      <trkpt lat="44.84054" lon="4.21821">
        <ele>1388</ele>
        <time>2022-06-09T13:27:28Z</time>
      </trkpt>
      <trkpt lat="44.84055" lon="4.21806">
        <ele>1387.2</ele>
        <time>2022-06-09T13:27:29Z</time>
      </trkpt>
      <trkpt lat="44.84056" lon="4.21791">
        <ele>1386.4</ele>
        <time>2022-06-09T13:27:30Z</time>
      </trkpt>
      <trkpt lat="44.84057" lon="4.21776">
        <ele>1385.6</ele>
        <time>2022-06-09T13:27:31Z</time>
      </trkpt>
      <trkpt lat="44.84058" lon="4.21761">
        <ele>1384.8</ele>
        <time>2022-06-09T13:27:32Z</time>
      </trkpt>
      <trkpt lat="44.84058" lon="4.21745">
        <ele>1384</ele>
        <time>2022-06-09T13:27:33Z</time>
      </trkpt>
      <trkpt lat="44.84058" lon="4.2173">
        <ele>1383.3</ele>
        <time>2022-06-09T13:27:34Z</time>
      </trkpt>
      <trkpt lat="44.84058" lon="4.21714">
        <ele>1382.5</ele>
        <time>2022-06-09T13:27:35Z</time>
      </trkpt>
      <trkpt lat="44.84058" lon="4.21699">
        <ele>1381.7</ele>
        <time>2022-06-09T13:27:36Z</time>
      </trkpt>
      <trkpt lat="44.84058" lon="4.21683">
        <ele>1380.9</ele>
        <time>2022-06-09T13:27:37Z</time>
      </trkpt>
      <trkpt lat="44.84059" lon="4.21669">
        <ele>1380.2</ele>
        <time>2022-06-09T13:27:38Z</time>
      </trkpt>
      <trkpt lat="44.84059" lon="4.21656">
        <ele>1379.5</ele>
        <time>2022-06-09T13:27:39Z</time>
      </trkpt>
      <trkpt lat="44.84059" lon="4.21649">
        <ele>1379.2</ele>
        <time>2022-06-09T13:27:40Z</time>
      </trkpt>
      <trkpt lat="44.8406" lon="4.21646">
        <ele>1379</ele>
        <time>2022-06-09T13:27:41Z</time>
      </trkpt>
      <trkpt lat="44.8406" lon="4.21645">
        <ele>1378.9</ele>
        <time>2022-06-09T13:27:42Z</time>
      </trkpt>
      <trkpt lat="44.8406" lon="4.21644">
        <ele>1378.9</ele>
        <time>2022-06-09T13:27:43Z</time>
      </trkpt>
      <trkpt lat="44.8406" lon="4.21644">
        <ele>1378.9</ele>
        <time>2022-06-09T13:27:44Z</time>
      </trkpt>
      <trkpt lat="44.84061" lon="4.21643">
        <ele>1378.8</ele>
        <time>2022-06-09T13:27:45Z</time>
      </trkpt>
      <trkpt lat="44.84061" lon="4.21642">
        <ele>1378.8</ele>
        <time>2022-06-09T13:27:46Z</time>
      </trkpt>
      <trkpt lat="44.84061" lon="4.21641">
        <ele>1378.7</ele>
        <time>2022-06-09T13:27:47Z</time>
      </trkpt>
      <trkpt lat="44.84061" lon="4.21641">
        <ele>1378.7</ele>
        <time>2022-06-09T13:27:48Z</time>
      </trkpt>
      <trkpt lat="44.84062" lon="4.2164">
        <ele>1378.7</ele>
        <time>2022-06-09T13:27:49Z</time>
      </trkpt>
      <trkpt lat="44.84062" lon="4.21639">
        <ele>1378.6</ele>
        <time>2022-06-09T13:27:50Z</time>
      </trkpt>
      <trkpt lat="44.84062" lon="4.21639">
        <ele>1378.6</ele>
        <time>2022-06-09T13:27:51Z</time>
      </trkpt>
      <trkpt lat="44.84062" lon="4.21638">
        <ele>1378.5</ele>
        <time>2022-06-09T13:27:52Z</time>
      </trkpt>
      <trkpt lat="44.84063" lon="4.21637">
        <ele>1378.5</ele>
        <time>2022-06-09T13:27:53Z</time>
      </trkpt>
      <trkpt lat="44.84063" lon="4.21637">
        <ele>1378.5</ele>
        <time>2022-06-09T13:27:54Z</time>
      </trkpt>
      <trkpt lat="44.84063" lon="4.21636">
        <ele>1378.4</ele>
        <time>2022-06-09T13:29:53Z</time>
      </trkpt>
      <trkpt lat="44.84063" lon="4.21635">
        <ele>1378.4</ele>
        <time>2022-06-09T13:29:54Z</time>
      </trkpt>
      <trkpt lat="44.84064" lon="4.21634">
        <ele>1378.3</ele>
        <time>2022-06-09T13:29:55Z</time>
      </trkpt>
      <trkpt lat="44.84064" lon="4.21634">
        <ele>1378.3</ele>
        <time>2022-06-09T13:29:56Z</time>
      </trkpt>
      <trkpt lat="44.84065" lon="4.2163">
        <ele>1378.1</ele>
        <time>2022-06-09T13:29:57Z</time>
      </trkpt>
      <trkpt lat="44.84066" lon="4.21622">
        <ele>1377.6</ele>
        <time>2022-06-09T13:29:58Z</time>
      </trkpt>
      <trkpt lat="44.84067" lon="4.21613">
        <ele>1377.1</ele>
        <time>2022-06-09T13:29:59Z</time>
      </trkpt>
      <trkpt lat="44.84068" lon="4.21604">
        <ele>1376.6</ele>
        <time>2022-06-09T13:30:00Z</time>
      </trkpt>
      <trkpt lat="44.8407" lon="4.21594">
        <ele>1376</ele>
        <time>2022-06-09T13:30:01Z</time>
      </trkpt>
      <trkpt lat="44.8407" lon="4.21584">
        <ele>1375.4</ele>
        <time>2022-06-09T13:30:02Z</time>
      </trkpt>
      <trkpt lat="44.84072" lon="4.21574">
        <ele>1374.8</ele>
        <time>2022-06-09T13:30:03Z</time>
      </trkpt>
      <trkpt lat="44.84073" lon="4.21563">
        <ele>1374.2</ele>
        <time>2022-06-09T13:30:04Z</time>
      </trkpt>
      <trkpt lat="44.84074" lon="4.21551">
        <ele>1373.5</ele>
        <time>2022-06-09T13:30:05Z</time>
      </trkpt>
      <trkpt lat="44.84074" lon="4.21539">
        <ele>1372.8</ele>
        <time>2022-06-09T13:30:06Z</time>
      </trkpt>
      <trkpt lat="44.84075" lon="4.21525">
        <ele>1372.1</ele>
        <time>2022-06-09T13:30:07Z</time>
      </trkpt>
      <trkpt lat="44.84074" lon="4.21512">
        <ele>1371.4</ele>
        <time>2022-06-09T13:30:08Z</time>
      </trkpt>
      <trkpt lat="44.84073" lon="4.21498">
        <ele>1370.6</ele>
        <time>2022-06-09T13:30:09Z</time>
      </trkpt>
      <trkpt lat="44.8407" lon="4.21483">
        <ele>1369.7</ele>
        <time>2022-06-09T13:30:10Z</time>
      </trkpt>
      <trkpt lat="44.84067" lon="4.21469">
        <ele>1368.8</ele>
        <time>2022-06-09T13:30:11Z</time>
      </trkpt>
      <trkpt lat="44.84065" lon="4.21455">
        <ele>1367.9</ele>
        <time>2022-06-09T13:30:12Z</time>
      </trkpt>
      <trkpt lat="44.84063" lon="4.21441">
        <ele>1367</ele>
        <time>2022-06-09T13:30:13Z</time>
      </trkpt>
      <trkpt lat="44.84061" lon="4.21425">
        <ele>1365.9</ele>
        <time>2022-06-09T13:30:14Z</time>
      </trkpt>
      <trkpt lat="44.84059" lon="4.21409">
        <ele>1364.9</ele>
        <time>2022-06-09T13:30:15Z</time>
      </trkpt>
      <trkpt lat="44.84058" lon="4.21393">
        <ele>1363.8</ele>
        <time>2022-06-09T13:30:16Z</time>
      </trkpt>
      <trkpt lat="44.84059" lon="4.21377">
        <ele>1362.7</ele>
        <time>2022-06-09T13:30:17Z</time>
      </trkpt>
      <trkpt lat="44.84061" lon="4.2136">
        <ele>1361.6</ele>
        <time>2022-06-09T13:30:18Z</time>
      </trkpt>
      <trkpt lat="44.84062" lon="4.21344">
        <ele>1360.7</ele>
        <time>2022-06-09T13:30:19Z</time>
      </trkpt>
      <trkpt lat="44.84062" lon="4.21329">
        <ele>1359.8</ele>
        <time>2022-06-09T13:30:20Z</time>
      </trkpt>
      <trkpt lat="44.8406" lon="4.21312">
        <ele>1358.9</ele>
        <time>2022-06-09T13:30:21Z</time>
      </trkpt>
      <trkpt lat="44.84057" lon="4.21296">
        <ele>1358</ele>
        <time>2022-06-09T13:30:22Z</time>
      </trkpt>
      <trkpt lat="44.84053" lon="4.2128">
        <ele>1357.4</ele>
        <time>2022-06-09T13:30:23Z</time>
      </trkpt>
      <trkpt lat="44.8405" lon="4.21264">
        <ele>1356.9</ele>
        <time>2022-06-09T13:30:24Z</time>
      </trkpt>
      <trkpt lat="44.84048" lon="4.21248">
        <ele>1356</ele>
        <time>2022-06-09T13:30:25Z</time>
      </trkpt>
      <trkpt lat="44.84048" lon="4.21231">
        <ele>1355</ele>
        <time>2022-06-09T13:30:26Z</time>
      </trkpt>
      <trkpt lat="44.84049" lon="4.21214">
        <ele>1354.1</ele>
        <time>2022-06-09T13:30:27Z</time>
      </trkpt>
      <trkpt lat="44.84051" lon="4.21197">
        <ele>1353.4</ele>
        <time>2022-06-09T13:30:28Z</time>
      </trkpt>
      <trkpt lat="44.84054" lon="4.21182">
        <ele>1353.1</ele>
        <time>2022-06-09T13:30:29Z</time>
      </trkpt>
      <trkpt lat="44.84058" lon="4.21168">
        <ele>1353.1</ele>
        <time>2022-06-09T13:30:30Z</time>
      </trkpt>
      <trkpt lat="44.84061" lon="4.21154">
        <ele>1353.1</ele>
        <time>2022-06-09T13:30:31Z</time>
      </trkpt>
      <trkpt lat="44.84062" lon="4.2114">
        <ele>1352.8</ele>
        <time>2022-06-09T13:30:32Z</time>
      </trkpt>
      <trkpt lat="44.84061" lon="4.21125">
        <ele>1352.2</ele>
        <time>2022-06-09T13:30:33Z</time>
      </trkpt>
      <trkpt lat="44.84059" lon="4.21111">
        <ele>1351.6</ele>
        <time>2022-06-09T13:30:34Z</time>
      </trkpt>
      <trkpt lat="44.84057" lon="4.21096">
        <ele>1350.9</ele>
        <time>2022-06-09T13:30:35Z</time>
      </trkpt>
      <trkpt lat="44.84055" lon="4.21082">
        <ele>1350.1</ele>
        <time>2022-06-09T13:30:36Z</time>
      </trkpt>
      <trkpt lat="44.84053" lon="4.21067">
        <ele>1349.4</ele>
        <time>2022-06-09T13:30:37Z</time>
      </trkpt>
      <trkpt lat="44.84049" lon="4.21053">
        <ele>1348.7</ele>
        <time>2022-06-09T13:30:38Z</time>
      </trkpt>
      <trkpt lat="44.84043" lon="4.2104">
        <ele>1348.1</ele>
        <time>2022-06-09T13:30:39Z</time>
      </trkpt>
      <trkpt lat="44.84036" lon="4.21028">
        <ele>1347.4</ele>
        <time>2022-06-09T13:30:40Z</time>
      </trkpt>
      <trkpt lat="44.84028" lon="4.21018">
        <ele>1346.8</ele>
        <time>2022-06-09T13:30:41Z</time>
      </trkpt>
      <trkpt lat="44.84019" lon="4.21009">
        <ele>1346.1</ele>
        <time>2022-06-09T13:30:42Z</time>
      </trkpt>
      <trkpt lat="44.8401" lon="4.21">
        <ele>1345.4</ele>
        <time>2022-06-09T13:30:43Z</time>
      </trkpt>
      <trkpt lat="44.84001" lon="4.20991">
        <ele>1344.7</ele>
        <time>2022-06-09T13:30:44Z</time>
      </trkpt>
      <trkpt lat="44.83991" lon="4.20983">
        <ele>1344</ele>
        <time>2022-06-09T13:30:45Z</time>
      </trkpt>
      <trkpt lat="44.83982" lon="4.20975">
        <ele>1343.1</ele>
        <time>2022-06-09T13:30:46Z</time>
      </trkpt>
      <trkpt lat="44.83973" lon="4.20967">
        <ele>1342.2</ele>
        <time>2022-06-09T13:30:47Z</time>
      </trkpt>
      <trkpt lat="44.83964" lon="4.20959">
        <ele>1341.3</ele>
        <time>2022-06-09T13:30:48Z</time>
      </trkpt>
      <trkpt lat="44.83954" lon="4.20952">
        <ele>1340.4</ele>
        <time>2022-06-09T13:30:49Z</time>
      </trkpt>
      <trkpt lat="44.83943" lon="4.20946">
        <ele>1339.5</ele>
        <time>2022-06-09T13:30:50Z</time>
      </trkpt>
      <trkpt lat="44.83933" lon="4.20942">
        <ele>1338.6</ele>
        <time>2022-06-09T13:30:51Z</time>
      </trkpt>
      <trkpt lat="44.83922" lon="4.20937">
        <ele>1337.8</ele>
        <time>2022-06-09T13:30:52Z</time>
      </trkpt>
      <trkpt lat="44.83911" lon="4.20933">
        <ele>1336.8</ele>
        <time>2022-06-09T13:30:53Z</time>
      </trkpt>
      <trkpt lat="44.83899" lon="4.20928">
        <ele>1335.9</ele>
        <time>2022-06-09T13:30:54Z</time>
      </trkpt>
      <trkpt lat="44.83887" lon="4.20925">
        <ele>1334.9</ele>
        <time>2022-06-09T13:30:55Z</time>
      </trkpt>
      <trkpt lat="44.83876" lon="4.20921">
        <ele>1334</ele>
        <time>2022-06-09T13:30:56Z</time>
      </trkpt>
      <trkpt lat="44.83864" lon="4.20919">
        <ele>1333</ele>
        <time>2022-06-09T13:30:57Z</time>
      </trkpt>
      <trkpt lat="44.83851" lon="4.20916">
        <ele>1332</ele>
        <time>2022-06-09T13:30:58Z</time>
      </trkpt>
      <trkpt lat="44.83839" lon="4.20914">
        <ele>1331.1</ele>
        <time>2022-06-09T13:30:59Z</time>
      </trkpt>
      <trkpt lat="44.83827" lon="4.20911">
        <ele>1330.1</ele>
        <time>2022-06-09T13:31:00Z</time>
      </trkpt>
      <trkpt lat="44.83814" lon="4.20908">
        <ele>1329</ele>
        <time>2022-06-09T13:31:01Z</time>
      </trkpt>
      <trkpt lat="44.83801" lon="4.20904">
        <ele>1328</ele>
        <time>2022-06-09T13:31:02Z</time>
      </trkpt>
      <trkpt lat="44.83789" lon="4.20898">
        <ele>1326.9</ele>
        <time>2022-06-09T13:31:03Z</time>
      </trkpt>
      <trkpt lat="44.83778" lon="4.20889">
        <ele>1325.8</ele>
        <time>2022-06-09T13:31:04Z</time>
      </trkpt>
      <trkpt lat="44.83767" lon="4.20879">
        <ele>1324.7</ele>
        <time>2022-06-09T13:31:05Z</time>
      </trkpt>
      <trkpt lat="44.83756" lon="4.20869">
        <ele>1323.7</ele>
        <time>2022-06-09T13:31:06Z</time>
      </trkpt>
      <trkpt lat="44.83744" lon="4.20861">
        <ele>1322.7</ele>
        <time>2022-06-09T13:31:07Z</time>
      </trkpt>
      <trkpt lat="44.83732" lon="4.20854">
        <ele>1321.7</ele>
        <time>2022-06-09T13:31:08Z</time>
      </trkpt>
      <trkpt lat="44.8372" lon="4.20847">
        <ele>1320.7</ele>
        <time>2022-06-09T13:31:09Z</time>
      </trkpt>
      <trkpt lat="44.83711" lon="4.20839">
        <ele>1319.8</ele>
        <time>2022-06-09T13:31:10Z</time>
      </trkpt>
      <trkpt lat="44.83704" lon="4.20828">
        <ele>1318.9</ele>
        <time>2022-06-09T13:31:11Z</time>
      </trkpt>
      <trkpt lat="44.837" lon="4.20813">
        <ele>1317.9</ele>
        <time>2022-06-09T13:31:12Z</time>
      </trkpt>
      <trkpt lat="44.837" lon="4.20796">
        <ele>1316.8</ele>
        <time>2022-06-09T13:31:13Z</time>
      </trkpt>
      <trkpt lat="44.83701" lon="4.20779">
        <ele>1315.8</ele>
        <time>2022-06-09T13:31:14Z</time>
      </trkpt>
      <trkpt lat="44.83702" lon="4.20763">
        <ele>1314.8</ele>
        <time>2022-06-09T13:31:15Z</time>
      </trkpt>
      <trkpt lat="44.83702" lon="4.20747">
        <ele>1313.9</ele>
        <time>2022-06-09T13:31:16Z</time>
      </trkpt>
      <trkpt lat="44.83701" lon="4.20731">
        <ele>1313</ele>
        <time>2022-06-09T13:31:17Z</time>
      </trkpt>
      <trkpt lat="44.837" lon="4.20715">
        <ele>1312.2</ele>
        <time>2022-06-09T13:31:18Z</time>
      </trkpt>
      <trkpt lat="44.837" lon="4.20699">
        <ele>1311.3</ele>
        <time>2022-06-09T13:31:19Z</time>
      </trkpt>
      <trkpt lat="44.83699" lon="4.20683">
        <ele>1310.5</ele>
        <time>2022-06-09T13:31:20Z</time>
      </trkpt>
      <trkpt lat="44.83699" lon="4.20667">
        <ele>1309.6</ele>
        <time>2022-06-09T13:31:21Z</time>
      </trkpt>
      <trkpt lat="44.83697" lon="4.20651">
        <ele>1308.7</ele>
        <time>2022-06-09T13:31:22Z</time>
      </trkpt>
      <trkpt lat="44.83697" lon="4.20635">
        <ele>1307.8</ele>
        <time>2022-06-09T13:31:23Z</time>
      </trkpt>
      <trkpt lat="44.83696" lon="4.20619">
        <ele>1306.9</ele>
        <time>2022-06-09T13:31:24Z</time>
      </trkpt>
      <trkpt lat="44.83695" lon="4.20603">
        <ele>1306</ele>
        <time>2022-06-09T13:31:25Z</time>
      </trkpt>
      <trkpt lat="44.83695" lon="4.20588">
        <ele>1305.2</ele>
        <time>2022-06-09T13:31:26Z</time>
      </trkpt>
      <trkpt lat="44.83695" lon="4.20572">
        <ele>1304.3</ele>
        <time>2022-06-09T13:31:27Z</time>
      </trkpt>
      <trkpt lat="44.83693" lon="4.20557">
        <ele>1303.5</ele>
        <time>2022-06-09T13:31:28Z</time>
      </trkpt>
      <trkpt lat="44.83691" lon="4.20541">
        <ele>1302.6</ele>
        <time>2022-06-09T13:31:29Z</time>
      </trkpt>
      <trkpt lat="44.83687" lon="4.20526">
        <ele>1301.7</ele>
        <time>2022-06-09T13:31:30Z</time>
      </trkpt>
      <trkpt lat="44.83683" lon="4.20511">
        <ele>1300.7</ele>
        <time>2022-06-09T13:31:31Z</time>
      </trkpt>
      <trkpt lat="44.83679" lon="4.20496">
        <ele>1299.7</ele>
        <time>2022-06-09T13:31:32Z</time>
      </trkpt>
      <trkpt lat="44.83674" lon="4.20482">
        <ele>1298.7</ele>
        <time>2022-06-09T13:31:33Z</time>
      </trkpt>
      <trkpt lat="44.83668" lon="4.20467">
        <ele>1297.7</ele>
        <time>2022-06-09T13:31:34Z</time>
      </trkpt>
      <trkpt lat="44.83662" lon="4.20454">
        <ele>1296.8</ele>
        <time>2022-06-09T13:31:35Z</time>
      </trkpt>
      <trkpt lat="44.83656" lon="4.2044">
        <ele>1296</ele>
        <time>2022-06-09T13:31:36Z</time>
      </trkpt>
      <trkpt lat="44.8365" lon="4.20427">
        <ele>1295.1</ele>
        <time>2022-06-09T13:31:37Z</time>
      </trkpt>
      <trkpt lat="44.83644" lon="4.20413">
        <ele>1294.3</ele>
        <time>2022-06-09T13:31:38Z</time>
      </trkpt>
      <trkpt lat="44.83638" lon="4.20399">
        <ele>1293.4</ele>
        <time>2022-06-09T13:31:39Z</time>
      </trkpt>
      <trkpt lat="44.83631" lon="4.20386">
        <ele>1292.6</ele>
        <time>2022-06-09T13:31:40Z</time>
      </trkpt>
      <trkpt lat="44.83625" lon="4.20372">
        <ele>1291.8</ele>
        <time>2022-06-09T13:31:41Z</time>
      </trkpt>
      <trkpt lat="44.83619" lon="4.20359">
        <ele>1291</ele>
        <time>2022-06-09T13:31:42Z</time>
      </trkpt>
      <trkpt lat="44.83615" lon="4.20344">
        <ele>1290.3</ele>
        <time>2022-06-09T13:31:43Z</time>
      </trkpt>
      <trkpt lat="44.83613" lon="4.20328">
        <ele>1289.6</ele>
        <time>2022-06-09T13:31:44Z</time>
      </trkpt>
      <trkpt lat="44.83614" lon="4.20312">
        <ele>1288.9</ele>
        <time>2022-06-09T13:31:45Z</time>
      </trkpt>
      <trkpt lat="44.83615" lon="4.20297">
        <ele>1288.3</ele>
        <time>2022-06-09T13:31:46Z</time>
      </trkpt>
      <trkpt lat="44.83616" lon="4.20282">
        <ele>1287.7</ele>
        <time>2022-06-09T13:31:47Z</time>
      </trkpt>
      <trkpt lat="44.83617" lon="4.20267">
        <ele>1287.1</ele>
        <time>2022-06-09T13:31:48Z</time>
      </trkpt>
      <trkpt lat="44.83618" lon="4.20253">
        <ele>1286.5</ele>
        <time>2022-06-09T13:31:49Z</time>
      </trkpt>
      <trkpt lat="44.83619" lon="4.20238">
        <ele>1285.9</ele>
        <time>2022-06-09T13:31:50Z</time>
      </trkpt>
      <trkpt lat="44.8362" lon="4.20225">
        <ele>1285.3</ele>
        <time>2022-06-09T13:31:51Z</time>
      </trkpt>
      <trkpt lat="44.83623" lon="4.20211">
        <ele>1284.6</ele>
        <time>2022-06-09T13:31:52Z</time>
      </trkpt>
      <trkpt lat="44.83626" lon="4.20197">
        <ele>1283.9</ele>
        <time>2022-06-09T13:31:53Z</time>
      </trkpt>
      <trkpt lat="44.83628" lon="4.20183">
        <ele>1283.1</ele>
        <time>2022-06-09T13:31:54Z</time>
      </trkpt>
      <trkpt lat="44.8363" lon="4.20168">
        <ele>1282.4</ele>
        <time>2022-06-09T13:31:55Z</time>
      </trkpt>
      <trkpt lat="44.83633" lon="4.20154">
        <ele>1281.6</ele>
        <time>2022-06-09T13:31:56Z</time>
      </trkpt>
      <trkpt lat="44.83635" lon="4.20139">
        <ele>1280.9</ele>
        <time>2022-06-09T13:31:57Z</time>
      </trkpt>
      <trkpt lat="44.83637" lon="4.20124">
        <ele>1280.1</ele>
        <time>2022-06-09T13:31:58Z</time>
      </trkpt>
      <trkpt lat="44.83638" lon="4.20108">
        <ele>1279.4</ele>
        <time>2022-06-09T13:31:59Z</time>
      </trkpt>
      <trkpt lat="44.8364" lon="4.20092">
        <ele>1278.5</ele>
        <time>2022-06-09T13:32:00Z</time>
      </trkpt>
      <trkpt lat="44.83641" lon="4.20076">
        <ele>1277.7</ele>
        <time>2022-06-09T13:32:01Z</time>
      </trkpt>
      <trkpt lat="44.83641" lon="4.2006">
        <ele>1276.9</ele>
        <time>2022-06-09T13:32:02Z</time>
      </trkpt>
      <trkpt lat="44.83638" lon="4.20043">
        <ele>1276.1</ele>
        <time>2022-06-09T13:32:03Z</time>
      </trkpt>
      <trkpt lat="44.83632" lon="4.20029">
        <ele>1275.4</ele>
        <time>2022-06-09T13:32:04Z</time>
      </trkpt>
      <trkpt lat="44.83623" lon="4.20017">
        <ele>1274.7</ele>
        <time>2022-06-09T13:32:05Z</time>
      </trkpt>
      <trkpt lat="44.83613" lon="4.20009">
        <ele>1274.1</ele>
        <time>2022-06-09T13:32:06Z</time>
      </trkpt>
      <trkpt lat="44.83602" lon="4.20003">
        <ele>1273.5</ele>
        <time>2022-06-09T13:32:07Z</time>
      </trkpt>
      <trkpt lat="44.8359" lon="4.19999">
        <ele>1272.7</ele>
        <time>2022-06-09T13:32:08Z</time>
      </trkpt>
      <trkpt lat="44.83578" lon="4.19995">
        <ele>1271.9</ele>
        <time>2022-06-09T13:32:09Z</time>
      </trkpt>
      <trkpt lat="44.83567" lon="4.19992">
        <ele>1271.1</ele>
        <time>2022-06-09T13:32:10Z</time>
      </trkpt>
      <trkpt lat="44.83556" lon="4.19988">
        <ele>1270.3</ele>
        <time>2022-06-09T13:32:11Z</time>
      </trkpt>
      <trkpt lat="44.83544" lon="4.19986">
        <ele>1269.4</ele>
        <time>2022-06-09T13:32:12Z</time>
      </trkpt>
      <trkpt lat="44.83532" lon="4.19983">
        <ele>1268.6</ele>
        <time>2022-06-09T13:32:13Z</time>
      </trkpt>
      <trkpt lat="44.8352" lon="4.1998">
        <ele>1267.8</ele>
        <time>2022-06-09T13:32:14Z</time>
      </trkpt>
      <trkpt lat="44.83509" lon="4.19977">
        <ele>1267</ele>
        <time>2022-06-09T13:32:15Z</time>
      </trkpt>
      <trkpt lat="44.83497" lon="4.19975">
        <ele>1266.3</ele>
        <time>2022-06-09T13:32:16Z</time>
      </trkpt>
      <trkpt lat="44.83486" lon="4.19972">
        <ele>1265.5</ele>
        <time>2022-06-09T13:32:17Z</time>
      </trkpt>
      <trkpt lat="44.83474" lon="4.1997">
        <ele>1264.8</ele>
        <time>2022-06-09T13:32:18Z</time>
      </trkpt>
      <trkpt lat="44.83462" lon="4.19968">
        <ele>1264.1</ele>
        <time>2022-06-09T13:32:19Z</time>
      </trkpt>
      <trkpt lat="44.8345" lon="4.19966">
        <ele>1263.3</ele>
        <time>2022-06-09T13:32:20Z</time>
      </trkpt>
      <trkpt lat="44.83438" lon="4.19964">
        <ele>1262.5</ele>
        <time>2022-06-09T13:32:21Z</time>
      </trkpt>
      <trkpt lat="44.83425" lon="4.19962">
        <ele>1261.7</ele>
        <time>2022-06-09T13:32:22Z</time>
      </trkpt>
      <trkpt lat="44.83413" lon="4.19959">
        <ele>1260.9</ele>
        <time>2022-06-09T13:32:23Z</time>
      </trkpt>
      <trkpt lat="44.83401" lon="4.19955">
        <ele>1260.1</ele>
        <time>2022-06-09T13:32:24Z</time>
      </trkpt>
      <trkpt lat="44.83389" lon="4.19952">
        <ele>1259.3</ele>
        <time>2022-06-09T13:32:25Z</time>
      </trkpt>
      <trkpt lat="44.83377" lon="4.19949">
        <ele>1258.6</ele>
        <time>2022-06-09T13:32:26Z</time>
      </trkpt>
      <trkpt lat="44.83366" lon="4.19946">
        <ele>1257.8</ele>
        <time>2022-06-09T13:32:27Z</time>
      </trkpt>
      <trkpt lat="44.83354" lon="4.19941">
        <ele>1257</ele>
        <time>2022-06-09T13:32:28Z</time>
      </trkpt>
      <trkpt lat="44.83342" lon="4.19936">
        <ele>1256.1</ele>
        <time>2022-06-09T13:32:29Z</time>
      </trkpt>
      <trkpt lat="44.83331" lon="4.1993">
        <ele>1255.3</ele>
        <time>2022-06-09T13:32:30Z</time>
      </trkpt>
      <trkpt lat="44.83319" lon="4.19926">
        <ele>1254.6</ele>
        <time>2022-06-09T13:32:31Z</time>
      </trkpt>
      <trkpt lat="44.83307" lon="4.19923">
        <ele>1253.8</ele>
        <time>2022-06-09T13:32:32Z</time>
      </trkpt>
      <trkpt lat="44.83294" lon="4.19922">
        <ele>1252.9</ele>
        <time>2022-06-09T13:32:33Z</time>
      </trkpt>
      <trkpt lat="44.83282" lon="4.19919">
        <ele>1252.1</ele>
        <time>2022-06-09T13:32:34Z</time>
      </trkpt>
      <trkpt lat="44.83271" lon="4.19915">
        <ele>1251.2</ele>
        <time>2022-06-09T13:32:35Z</time>
      </trkpt>
      <trkpt lat="44.83259" lon="4.19912">
        <ele>1250.3</ele>
        <time>2022-06-09T13:32:36Z</time>
      </trkpt>
      <trkpt lat="44.83246" lon="4.19912">
        <ele>1249.4</ele>
        <time>2022-06-09T13:32:37Z</time>
      </trkpt>
      <trkpt lat="44.83234" lon="4.19914">
        <ele>1248.6</ele>
        <time>2022-06-09T13:32:38Z</time>
      </trkpt>
      <trkpt lat="44.83222" lon="4.19918">
        <ele>1247.8</ele>
        <time>2022-06-09T13:32:39Z</time>
      </trkpt>
      <trkpt lat="44.8321" lon="4.19919">
        <ele>1247</ele>
        <time>2022-06-09T13:32:40Z</time>
      </trkpt>
      <trkpt lat="44.83199" lon="4.19917">
        <ele>1246.3</ele>
        <time>2022-06-09T13:32:41Z</time>
      </trkpt>
      <trkpt lat="44.83188" lon="4.1991">
        <ele>1245.7</ele>
        <time>2022-06-09T13:32:42Z</time>
      </trkpt>
      <trkpt lat="44.83179" lon="4.199">
        <ele>1245.2</ele>
        <time>2022-06-09T13:32:43Z</time>
      </trkpt>
      <trkpt lat="44.83172" lon="4.19887">
        <ele>1245</ele>
        <time>2022-06-09T13:32:44Z</time>
      </trkpt>
      <trkpt lat="44.83168" lon="4.19872">
        <ele>1245</ele>
        <time>2022-06-09T13:32:45Z</time>
      </trkpt>
      <trkpt lat="44.83167" lon="4.19856">
        <ele>1244.9</ele>
        <time>2022-06-09T13:32:46Z</time>
      </trkpt>
      <trkpt lat="44.83169" lon="4.19841">
        <ele>1244.9</ele>
        <time>2022-06-09T13:32:47Z</time>
      </trkpt>
      <trkpt lat="44.8317" lon="4.19827">
        <ele>1244.9</ele>
        <time>2022-06-09T13:32:48Z</time>
      </trkpt>
      <trkpt lat="44.83171" lon="4.19813">
        <ele>1244.9</ele>
        <time>2022-06-09T13:32:49Z</time>
      </trkpt>
      <trkpt lat="44.83171" lon="4.19799">
        <ele>1244.8</ele>
        <time>2022-06-09T13:32:50Z</time>
      </trkpt>
      <trkpt lat="44.83169" lon="4.19787">
        <ele>1244.8</ele>
        <time>2022-06-09T13:32:51Z</time>
      </trkpt>
      <trkpt lat="44.83164" lon="4.19777">
        <ele>1244.7</ele>
        <time>2022-06-09T13:32:52Z</time>
      </trkpt>
      <trkpt lat="44.83159" lon="4.19767">
        <ele>1244.6</ele>
        <time>2022-06-09T13:32:53Z</time>
      </trkpt>
      <trkpt lat="44.83153" lon="4.19758">
        <ele>1244.5</ele>
        <time>2022-06-09T13:32:54Z</time>
      </trkpt>
      <trkpt lat="44.83147" lon="4.1975">
        <ele>1244.4</ele>
        <time>2022-06-09T13:32:55Z</time>
      </trkpt>
      <trkpt lat="44.83141" lon="4.19743">
        <ele>1244.3</ele>
        <time>2022-06-09T13:32:56Z</time>
      </trkpt>
      <trkpt lat="44.83134" lon="4.19736">
        <ele>1244.2</ele>
        <time>2022-06-09T13:32:57Z</time>
      </trkpt>
      <trkpt lat="44.83127" lon="4.19728">
        <ele>1244.1</ele>
        <time>2022-06-09T13:32:58Z</time>
      </trkpt>
      <trkpt lat="44.83121" lon="4.1972">
        <ele>1244</ele>
        <time>2022-06-09T13:32:59Z</time>
      </trkpt>
      <trkpt lat="44.83114" lon="4.19713">
        <ele>1243.7</ele>
        <time>2022-06-09T13:33:00Z</time>
      </trkpt>
      <trkpt lat="44.83106" lon="4.19708">
        <ele>1243.5</ele>
        <time>2022-06-09T13:33:01Z</time>
      </trkpt>
      <trkpt lat="44.83098" lon="4.19704">
        <ele>1243.3</ele>
        <time>2022-06-09T13:33:02Z</time>
      </trkpt>
      <trkpt lat="44.8309" lon="4.19702">
        <ele>1243</ele>
        <time>2022-06-09T13:33:03Z</time>
      </trkpt>
      <trkpt lat="44.83081" lon="4.19702">
        <ele>1242.7</ele>
        <time>2022-06-09T13:33:04Z</time>
      </trkpt>
      <trkpt lat="44.83072" lon="4.19703">
        <ele>1242.3</ele>
        <time>2022-06-09T13:33:05Z</time>
      </trkpt>
      <trkpt lat="44.83063" lon="4.19703">
        <ele>1241.9</ele>
        <time>2022-06-09T13:33:06Z</time>
      </trkpt>
      <trkpt lat="44.83053" lon="4.19704">
        <ele>1241.5</ele>
        <time>2022-06-09T13:33:07Z</time>
      </trkpt>
      <trkpt lat="44.83043" lon="4.19705">
        <ele>1241.2</ele>
        <time>2022-06-09T13:33:08Z</time>
      </trkpt>
      <trkpt lat="44.83034" lon="4.19706">
        <ele>1240.9</ele>
        <time>2022-06-09T13:33:09Z</time>
      </trkpt>
      <trkpt lat="44.83025" lon="4.19707">
        <ele>1240.6</ele>
        <time>2022-06-09T13:33:10Z</time>
      </trkpt>
      <trkpt lat="44.83016" lon="4.19705">
        <ele>1240.4</ele>
        <time>2022-06-09T13:33:11Z</time>
      </trkpt>
      <trkpt lat="44.83006" lon="4.19702">
        <ele>1240.1</ele>
        <time>2022-06-09T13:33:12Z</time>
      </trkpt>
      <trkpt lat="44.82998" lon="4.19697">
        <ele>1239.8</ele>
        <time>2022-06-09T13:33:13Z</time>
      </trkpt>
      <trkpt lat="44.82989" lon="4.1969">
        <ele>1239.5</ele>
        <time>2022-06-09T13:33:14Z</time>
      </trkpt>
      <trkpt lat="44.82982" lon="4.19683">
        <ele>1239.3</ele>
        <time>2022-06-09T13:33:15Z</time>
      </trkpt>
      <trkpt lat="44.82975" lon="4.19676">
        <ele>1239.1</ele>
        <time>2022-06-09T13:33:16Z</time>
      </trkpt>
      <trkpt lat="44.82967" lon="4.19667">
        <ele>1239</ele>
        <time>2022-06-09T13:33:17Z</time>
      </trkpt>
      <trkpt lat="44.82961" lon="4.19658">
        <ele>1238.9</ele>
        <time>2022-06-09T13:33:18Z</time>
      </trkpt>
      <trkpt lat="44.82955" lon="4.19648">
        <ele>1238.8</ele>
        <time>2022-06-09T13:33:19Z</time>
      </trkpt>
      <trkpt lat="44.82949" lon="4.19638">
        <ele>1238.7</ele>
        <time>2022-06-09T13:33:20Z</time>
      </trkpt>
      <trkpt lat="44.82943" lon="4.19629">
        <ele>1238.6</ele>
        <time>2022-06-09T13:33:21Z</time>
      </trkpt>
      <trkpt lat="44.82937" lon="4.1962">
        <ele>1238.5</ele>
        <time>2022-06-09T13:33:22Z</time>
      </trkpt>
      <trkpt lat="44.82931" lon="4.19611">
        <ele>1238.4</ele>
        <time>2022-06-09T13:33:23Z</time>
      </trkpt>
      <trkpt lat="44.82925" lon="4.19602">
        <ele>1238.3</ele>
        <time>2022-06-09T13:33:24Z</time>
      </trkpt>
      <trkpt lat="44.82919" lon="4.19592">
        <ele>1238.1</ele>
        <time>2022-06-09T13:33:25Z</time>
      </trkpt>
      <trkpt lat="44.82914" lon="4.19584">
        <ele>1238</ele>
        <time>2022-06-09T13:33:26Z</time>
      </trkpt>
      <trkpt lat="44.82908" lon="4.19575">
        <ele>1237.9</ele>
        <time>2022-06-09T13:33:27Z</time>
      </trkpt>
      <trkpt lat="44.82902" lon="4.19566">
        <ele>1237.8</ele>
        <time>2022-06-09T13:33:28Z</time>
      </trkpt>
      <trkpt lat="44.82897" lon="4.19557">
        <ele>1237.7</ele>
        <time>2022-06-09T13:33:29Z</time>
      </trkpt>
      <trkpt lat="44.82892" lon="4.19548">
        <ele>1237.5</ele>
        <time>2022-06-09T13:33:30Z</time>
      </trkpt>
      <trkpt lat="44.82887" lon="4.19539">
        <ele>1237.4</ele>
        <time>2022-06-09T13:33:31Z</time>
      </trkpt>
      <trkpt lat="44.82884" lon="4.19529">
        <ele>1237.3</ele>
        <time>2022-06-09T13:33:32Z</time>
      </trkpt>
      <trkpt lat="44.82883" lon="4.19518">
        <ele>1237.3</ele>
        <time>2022-06-09T13:33:33Z</time>
      </trkpt>
      <trkpt lat="44.82881" lon="4.19508">
        <ele>1237.3</ele>
        <time>2022-06-09T13:33:34Z</time>
      </trkpt>
      <trkpt lat="44.82881" lon="4.19497">
        <ele>1237.3</ele>
        <time>2022-06-09T13:33:35Z</time>
      </trkpt>
      <trkpt lat="44.8288" lon="4.19487">
        <ele>1237.2</ele>
        <time>2022-06-09T13:33:36Z</time>
      </trkpt>
      <trkpt lat="44.82878" lon="4.19477">
        <ele>1237.3</ele>
        <time>2022-06-09T13:33:37Z</time>
      </trkpt>
      <trkpt lat="44.82876" lon="4.19468">
        <ele>1237.3</ele>
        <time>2022-06-09T13:33:38Z</time>
      </trkpt>
      <trkpt lat="44.82873" lon="4.19459">
        <ele>1237.3</ele>
        <time>2022-06-09T13:33:39Z</time>
      </trkpt>
      <trkpt lat="44.82869" lon="4.19452">
        <ele>1237.4</ele>
        <time>2022-06-09T13:33:40Z</time>
      </trkpt>
      <trkpt lat="44.82864" lon="4.19445">
        <ele>1237.4</ele>
        <time>2022-06-09T13:33:41Z</time>
      </trkpt>
      <trkpt lat="44.82859" lon="4.19439">
        <ele>1237.5</ele>
        <time>2022-06-09T13:33:42Z</time>
      </trkpt>
      <trkpt lat="44.82853" lon="4.19434">
        <ele>1237.5</ele>
        <time>2022-06-09T13:33:43Z</time>
      </trkpt>
      <trkpt lat="44.82847" lon="4.19431">
        <ele>1237.4</ele>
        <time>2022-06-09T13:33:44Z</time>
      </trkpt>
      <trkpt lat="44.82841" lon="4.19428">
        <ele>1237.4</ele>
        <time>2022-06-09T13:33:45Z</time>
      </trkpt>
      <trkpt lat="44.82834" lon="4.19426">
        <ele>1237.4</ele>
        <time>2022-06-09T13:33:46Z</time>
      </trkpt>
      <trkpt lat="44.82827" lon="4.19423">
        <ele>1237.4</ele>
        <time>2022-06-09T13:33:47Z</time>
      </trkpt>
      <trkpt lat="44.8282" lon="4.19421">
        <ele>1237.4</ele>
        <time>2022-06-09T13:33:48Z</time>
      </trkpt>
      <trkpt lat="44.82813" lon="4.19418">
        <ele>1237.4</ele>
        <time>2022-06-09T13:33:49Z</time>
      </trkpt>
      <trkpt lat="44.82807" lon="4.19416">
        <ele>1237.3</ele>
        <time>2022-06-09T13:33:50Z</time>
      </trkpt>
      <trkpt lat="44.828" lon="4.19414">
        <ele>1237.3</ele>
        <time>2022-06-09T13:33:51Z</time>
      </trkpt>
      <trkpt lat="44.82794" lon="4.19412">
        <ele>1237.2</ele>
        <time>2022-06-09T13:33:52Z</time>
      </trkpt>
      <trkpt lat="44.82787" lon="4.1941">
        <ele>1237.2</ele>
        <time>2022-06-09T13:33:53Z</time>
      </trkpt>
      <trkpt lat="44.82781" lon="4.19408">
        <ele>1237.1</ele>
        <time>2022-06-09T13:33:54Z</time>
      </trkpt>
      <trkpt lat="44.82774" lon="4.19407">
        <ele>1237</ele>
        <time>2022-06-09T13:33:55Z</time>
      </trkpt>
      <trkpt lat="44.82767" lon="4.19406">
        <ele>1236.9</ele>
        <time>2022-06-09T13:33:56Z</time>
      </trkpt>
      <trkpt lat="44.8276" lon="4.19405">
        <ele>1236.8</ele>
        <time>2022-06-09T13:33:57Z</time>
      </trkpt>
      <trkpt lat="44.82753" lon="4.19406">
        <ele>1236.6</ele>
        <time>2022-06-09T13:33:58Z</time>
      </trkpt>
      <trkpt lat="44.82747" lon="4.19408">
        <ele>1236.3</ele>
        <time>2022-06-09T13:33:59Z</time>
      </trkpt>
      <trkpt lat="44.8274" lon="4.19411">
        <ele>1236.1</ele>
        <time>2022-06-09T13:34:00Z</time>
      </trkpt>
      <trkpt lat="44.82733" lon="4.19414">
        <ele>1235.7</ele>
        <time>2022-06-09T13:34:01Z</time>
      </trkpt>
      <trkpt lat="44.82727" lon="4.19419">
        <ele>1235.4</ele>
        <time>2022-06-09T13:34:02Z</time>
      </trkpt>
      <trkpt lat="44.8272" lon="4.19424">
        <ele>1235.1</ele>
        <time>2022-06-09T13:34:03Z</time>
      </trkpt>
      <trkpt lat="44.82713" lon="4.1943">
        <ele>1234.8</ele>
        <time>2022-06-09T13:34:04Z</time>
      </trkpt>
      <trkpt lat="44.82707" lon="4.19435">
        <ele>1234.5</ele>
        <time>2022-06-09T13:34:05Z</time>
      </trkpt>
      <trkpt lat="44.827" lon="4.19441">
        <ele>1234.2</ele>
        <time>2022-06-09T13:34:06Z</time>
      </trkpt>
      <trkpt lat="44.82694" lon="4.19445">
        <ele>1233.9</ele>
        <time>2022-06-09T13:34:07Z</time>
      </trkpt>
      <trkpt lat="44.82687" lon="4.1945">
        <ele>1233.5</ele>
        <time>2022-06-09T13:34:08Z</time>
      </trkpt>
      <trkpt lat="44.82679" lon="4.19454">
        <ele>1233.2</ele>
        <time>2022-06-09T13:34:09Z</time>
      </trkpt>
      <trkpt lat="44.8267" lon="4.19457">
        <ele>1232.8</ele>
        <time>2022-06-09T13:34:10Z</time>
      </trkpt>
      <trkpt lat="44.82661" lon="4.19459">
        <ele>1232.5</ele>
        <time>2022-06-09T13:34:11Z</time>
      </trkpt>
      <trkpt lat="44.82653" lon="4.19462">
        <ele>1232.2</ele>
        <time>2022-06-09T13:34:12Z</time>
      </trkpt>
      <trkpt lat="44.82645" lon="4.19465">
        <ele>1232</ele>
        <time>2022-06-09T13:34:13Z</time>
      </trkpt>
      <trkpt lat="44.82638" lon="4.19469">
        <ele>1231.8</ele>
        <time>2022-06-09T13:34:14Z</time>
      </trkpt>
      <trkpt lat="44.8263" lon="4.19472">
        <ele>1231.5</ele>
        <time>2022-06-09T13:34:15Z</time>
      </trkpt>
      <trkpt lat="44.82622" lon="4.19475">
        <ele>1231.3</ele>
        <time>2022-06-09T13:34:16Z</time>
      </trkpt>
      <trkpt lat="44.82614" lon="4.19478">
        <ele>1231.1</ele>
        <time>2022-06-09T13:34:17Z</time>
      </trkpt>
      <trkpt lat="44.82606" lon="4.19481">
        <ele>1230.9</ele>
        <time>2022-06-09T13:34:18Z</time>
      </trkpt>
      <trkpt lat="44.82598" lon="4.19483">
        <ele>1230.7</ele>
        <time>2022-06-09T13:34:19Z</time>
      </trkpt>
      <trkpt lat="44.8259" lon="4.19484">
        <ele>1230.4</ele>
        <time>2022-06-09T13:34:20Z</time>
      </trkpt>
      <trkpt lat="44.82582" lon="4.19485">
        <ele>1230.2</ele>
        <time>2022-06-09T13:34:21Z</time>
      </trkpt>
      <trkpt lat="44.82572" lon="4.19484">
        <ele>1230</ele>
        <time>2022-06-09T13:34:22Z</time>
      </trkpt>
      <trkpt lat="44.82564" lon="4.19482">
        <ele>1229.9</ele>
        <time>2022-06-09T13:34:23Z</time>
      </trkpt>
      <trkpt lat="44.82555" lon="4.19481">
        <ele>1229.7</ele>
        <time>2022-06-09T13:34:24Z</time>
      </trkpt>
      <trkpt lat="44.82547" lon="4.19479">
        <ele>1229.5</ele>
        <time>2022-06-09T13:34:25Z</time>
      </trkpt>
      <trkpt lat="44.82539" lon="4.19477">
        <ele>1229.4</ele>
        <time>2022-06-09T13:34:26Z</time>
      </trkpt>
      <trkpt lat="44.82531" lon="4.19475">
        <ele>1229.3</ele>
        <time>2022-06-09T13:34:27Z</time>
      </trkpt>
      <trkpt lat="44.82522" lon="4.19472">
        <ele>1229.2</ele>
        <time>2022-06-09T13:34:28Z</time>
      </trkpt>
      <trkpt lat="44.82515" lon="4.19469">
        <ele>1229.2</ele>
        <time>2022-06-09T13:34:29Z</time>
      </trkpt>
      <trkpt lat="44.82507" lon="4.19466">
        <ele>1229.2</ele>
        <time>2022-06-09T13:34:30Z</time>
      </trkpt>
      <trkpt lat="44.82499" lon="4.19464">
        <ele>1229.2</ele>
        <time>2022-06-09T13:34:31Z</time>
      </trkpt>
      <trkpt lat="44.8249" lon="4.19461">
        <ele>1229.2</ele>
        <time>2022-06-09T13:34:32Z</time>
      </trkpt>
      <trkpt lat="44.82484" lon="4.19458">
        <ele>1229.2</ele>
        <time>2022-06-09T13:34:33Z</time>
      </trkpt>
      <trkpt lat="44.82478" lon="4.19454">
        <ele>1229.2</ele>
        <time>2022-06-09T13:34:34Z</time>
      </trkpt>
      <trkpt lat="44.82469" lon="4.1945">
        <ele>1229.2</ele>
        <time>2022-06-09T13:34:35Z</time>
      </trkpt>
      <trkpt lat="44.8246" lon="4.19447">
        <ele>1229.2</ele>
        <time>2022-06-09T13:34:36Z</time>
      </trkpt>
      <trkpt lat="44.82452" lon="4.19443">
        <ele>1229.1</ele>
        <time>2022-06-09T13:34:37Z</time>
      </trkpt>
      <trkpt lat="44.82445" lon="4.19439">
        <ele>1229.1</ele>
        <time>2022-06-09T13:34:38Z</time>
      </trkpt>
      <trkpt lat="44.82438" lon="4.19436">
        <ele>1229.1</ele>
        <time>2022-06-09T13:34:39Z</time>
      </trkpt>
      <trkpt lat="44.82431" lon="4.19432">
        <ele>1229.2</ele>
        <time>2022-06-09T13:34:40Z</time>
      </trkpt>
      <trkpt lat="44.82425" lon="4.19429">
        <ele>1229.3</ele>
        <time>2022-06-09T13:34:41Z</time>
      </trkpt>
      <trkpt lat="44.82421" lon="4.19427">
        <ele>1229.4</ele>
        <time>2022-06-09T13:34:42Z</time>
      </trkpt>
      <trkpt lat="44.82415" lon="4.19424">
        <ele>1229.5</ele>
        <time>2022-06-09T13:34:43Z</time>
      </trkpt>
      <trkpt lat="44.82408" lon="4.1942">
        <ele>1229.6</ele>
        <time>2022-06-09T13:34:44Z</time>
      </trkpt>
      <trkpt lat="44.82401" lon="4.19417">
        <ele>1229.9</ele>
        <time>2022-06-09T13:34:45Z</time>
      </trkpt>
      <trkpt lat="44.82396" lon="4.19413">
        <ele>1230.1</ele>
        <time>2022-06-09T13:34:46Z</time>
      </trkpt>
      <trkpt lat="44.82391" lon="4.1941">
        <ele>1230.2</ele>
        <time>2022-06-09T13:34:47Z</time>
      </trkpt>
      <trkpt lat="44.82386" lon="4.19406">
        <ele>1230.2</ele>
        <time>2022-06-09T13:34:48Z</time>
      </trkpt>
      <trkpt lat="44.82382" lon="4.19403">
        <ele>1230.3</ele>
        <time>2022-06-09T13:34:49Z</time>
      </trkpt>
      <trkpt lat="44.82378" lon="4.19401">
        <ele>1230.4</ele>
        <time>2022-06-09T13:34:50Z</time>
      </trkpt>
      <trkpt lat="44.82373" lon="4.19399">
        <ele>1230.4</ele>
        <time>2022-06-09T13:34:51Z</time>
      </trkpt>
      <trkpt lat="44.82369" lon="4.19397">
        <ele>1230.5</ele>
        <time>2022-06-09T13:34:52Z</time>
      </trkpt>
      <trkpt lat="44.82364" lon="4.19395">
        <ele>1230.6</ele>
        <time>2022-06-09T13:34:53Z</time>
      </trkpt>
      <trkpt lat="44.82361" lon="4.19394">
        <ele>1230.7</ele>
        <time>2022-06-09T13:34:54Z</time>
      </trkpt>
      <trkpt lat="44.82357" lon="4.19393">
        <ele>1230.7</ele>
        <time>2022-06-09T13:34:55Z</time>
      </trkpt>
      <trkpt lat="44.82354" lon="4.19393">
        <ele>1230.8</ele>
        <time>2022-06-09T13:34:56Z</time>
      </trkpt>
      <trkpt lat="44.82349" lon="4.19392">
        <ele>1230.9</ele>
        <time>2022-06-09T13:34:57Z</time>
      </trkpt>
      <trkpt lat="44.82345" lon="4.19391">
        <ele>1231</ele>
        <time>2022-06-09T13:34:58Z</time>
      </trkpt>
      <trkpt lat="44.8234" lon="4.19391">
        <ele>1231.1</ele>
        <time>2022-06-09T13:34:59Z</time>
      </trkpt>
      <trkpt lat="44.82336" lon="4.1939">
        <ele>1231.2</ele>
        <time>2022-06-09T13:35:00Z</time>
      </trkpt>
      <trkpt lat="44.82333" lon="4.19389">
        <ele>1231.2</ele>
        <time>2022-06-09T13:35:01Z</time>
      </trkpt>
      <trkpt lat="44.82329" lon="4.19388">
        <ele>1231.3</ele>
        <time>2022-06-09T13:35:02Z</time>
      </trkpt>
      <trkpt lat="44.82323" lon="4.19387">
        <ele>1231.4</ele>
        <time>2022-06-09T13:35:03Z</time>
      </trkpt>
      <trkpt lat="44.82317" lon="4.19386">
        <ele>1231.6</ele>
        <time>2022-06-09T13:35:04Z</time>
      </trkpt>
      <trkpt lat="44.82312" lon="4.19384">
        <ele>1231.7</ele>
        <time>2022-06-09T13:35:05Z</time>
      </trkpt>
      <trkpt lat="44.82306" lon="4.19383">
        <ele>1231.8</ele>
        <time>2022-06-09T13:35:07Z</time>
      </trkpt>
      <trkpt lat="44.82302" lon="4.19382">
        <ele>1231.9</ele>
        <time>2022-06-09T13:35:08Z</time>
      </trkpt>
      <trkpt lat="44.82297" lon="4.19381">
        <ele>1232.1</ele>
        <time>2022-06-09T13:35:09Z</time>
      </trkpt>
      <trkpt lat="44.82292" lon="4.19379">
        <ele>1232.2</ele>
        <time>2022-06-09T13:35:10Z</time>
      </trkpt>
      <trkpt lat="44.82288" lon="4.19379">
        <ele>1232.3</ele>
        <time>2022-06-09T13:35:12Z</time>
      </trkpt>
      <trkpt lat="44.82282" lon="4.19378">
        <ele>1232.5</ele>
        <time>2022-06-09T13:35:13Z</time>
      </trkpt>
      <trkpt lat="44.82276" lon="4.19377">
        <ele>1232.7</ele>
        <time>2022-06-09T13:35:14Z</time>
      </trkpt>
      <trkpt lat="44.82272" lon="4.19377">
        <ele>1232.8</ele>
        <time>2022-06-09T13:35:16Z</time>
      </trkpt>
      <trkpt lat="44.82267" lon="4.19376">
        <ele>1232.9</ele>
        <time>2022-06-09T13:35:17Z</time>
      </trkpt>
      <trkpt lat="44.82262" lon="4.19375">
        <ele>1233.1</ele>
        <time>2022-06-09T13:35:18Z</time>
      </trkpt>
      <trkpt lat="44.82258" lon="4.19375">
        <ele>1233.2</ele>
        <time>2022-06-09T13:35:19Z</time>
      </trkpt>
      <trkpt lat="44.82253" lon="4.19373">
        <ele>1233.3</ele>
        <time>2022-06-09T13:35:21Z</time>
      </trkpt>
      <trkpt lat="44.82245" lon="4.19371">
        <ele>1233.6</ele>
        <time>2022-06-09T13:35:22Z</time>
      </trkpt>
      <trkpt lat="44.82241" lon="4.19371">
        <ele>1233.8</ele>
        <time>2022-06-09T13:35:24Z</time>
      </trkpt>
      <trkpt lat="44.82238" lon="4.1937">
        <ele>1233.9</ele>
        <time>2022-06-09T13:35:25Z</time>
      </trkpt>
      <trkpt lat="44.82233" lon="4.19369">
        <ele>1234.1</ele>
        <time>2022-06-09T13:35:26Z</time>
      </trkpt>
      <trkpt lat="44.82229" lon="4.19369">
        <ele>1234.3</ele>
        <time>2022-06-09T13:35:27Z</time>
      </trkpt>
      <trkpt lat="44.82225" lon="4.19369">
        <ele>1234.4</ele>
        <time>2022-06-09T13:35:28Z</time>
      </trkpt>
      <trkpt lat="44.82221" lon="4.19368">
        <ele>1234.5</ele>
        <time>2022-06-09T13:35:29Z</time>
      </trkpt>
      <trkpt lat="44.82218" lon="4.19368">
        <ele>1234.7</ele>
        <time>2022-06-09T13:35:30Z</time>
      </trkpt>
      <trkpt lat="44.82215" lon="4.19367">
        <ele>1234.8</ele>
        <time>2022-06-09T13:35:31Z</time>
      </trkpt>
      <trkpt lat="44.82211" lon="4.19367">
        <ele>1234.9</ele>
        <time>2022-06-09T13:35:32Z</time>
      </trkpt>
      <trkpt lat="44.82208" lon="4.19367">
        <ele>1235</ele>
        <time>2022-06-09T13:35:33Z</time>
      </trkpt>
      <trkpt lat="44.82204" lon="4.19366">
        <ele>1235.2</ele>
        <time>2022-06-09T13:35:34Z</time>
      </trkpt>
      <trkpt lat="44.822" lon="4.19365">
        <ele>1235.3</ele>
        <time>2022-06-09T13:35:35Z</time>
      </trkpt>
      <trkpt lat="44.82196" lon="4.19365">
        <ele>1235.5</ele>
        <time>2022-06-09T13:35:36Z</time>
      </trkpt>
      <trkpt lat="44.82192" lon="4.19364">
        <ele>1235.7</ele>
        <time>2022-06-09T13:35:37Z</time>
      </trkpt>
      <trkpt lat="44.82185" lon="4.19362">
        <ele>1236</ele>
        <time>2022-06-09T13:35:38Z</time>
      </trkpt>
      <trkpt lat="44.82181" lon="4.19361">
        <ele>1236.2</ele>
        <time>2022-06-09T13:35:40Z</time>
      </trkpt>
      <trkpt lat="44.82177" lon="4.1936">
        <ele>1236.4</ele>
        <time>2022-06-09T13:35:41Z</time>
      </trkpt>
      <trkpt lat="44.82174" lon="4.19359">
        <ele>1236.5</ele>
        <time>2022-06-09T13:35:42Z</time>
      </trkpt>
      <trkpt lat="44.8217" lon="4.1936">
        <ele>1236.6</ele>
        <time>2022-06-09T13:35:43Z</time>
      </trkpt>
      <trkpt lat="44.82169" lon="4.1936">
        <ele>1236.7</ele>
        <time>2022-06-09T13:35:44Z</time>
      </trkpt>
      <trkpt lat="44.82165" lon="4.19359">
        <ele>1236.9</ele>
        <time>2022-06-09T13:35:45Z</time>
      </trkpt>
      <trkpt lat="44.8216" lon="4.19358">
        <ele>1237.1</ele>
        <time>2022-06-09T13:35:47Z</time>
      </trkpt>
      <trkpt lat="44.82158" lon="4.19358">
        <ele>1237.2</ele>
        <time>2022-06-09T13:35:48Z</time>
      </trkpt>
      <trkpt lat="44.82156" lon="4.19357">
        <ele>1237.2</ele>
        <time>2022-06-09T13:35:49Z</time>
      </trkpt>
      <trkpt lat="44.82153" lon="4.19357">
        <ele>1237.4</ele>
        <time>2022-06-09T13:35:50Z</time>
      </trkpt>
      <trkpt lat="44.82149" lon="4.19356">
        <ele>1237.5</ele>
        <time>2022-06-09T13:35:52Z</time>
      </trkpt>
      <trkpt lat="44.82146" lon="4.19356">
        <ele>1237.7</ele>
        <time>2022-06-09T13:35:53Z</time>
      </trkpt>
      <trkpt lat="44.82144" lon="4.19356">
        <ele>1237.8</ele>
        <time>2022-06-09T13:35:54Z</time>
      </trkpt>
      <trkpt lat="44.82141" lon="4.19355">
        <ele>1237.9</ele>
        <time>2022-06-09T13:35:56Z</time>
      </trkpt>
      <trkpt lat="44.82136" lon="4.19355">
        <ele>1238.1</ele>
        <time>2022-06-09T13:35:57Z</time>
      </trkpt>
      <trkpt lat="44.82135" lon="4.19355">
        <ele>1238.2</ele>
        <time>2022-06-09T13:35:58Z</time>
      </trkpt>
      <trkpt lat="44.82131" lon="4.19354">
        <ele>1238.4</ele>
        <time>2022-06-09T13:36:00Z</time>
      </trkpt>
      <trkpt lat="44.8213" lon="4.19353">
        <ele>1238.4</ele>
        <time>2022-06-09T13:36:01Z</time>
      </trkpt>
      <trkpt lat="44.82127" lon="4.19353">
        <ele>1238.6</ele>
        <time>2022-06-09T13:36:02Z</time>
      </trkpt>
      <trkpt lat="44.82124" lon="4.19353">
        <ele>1238.7</ele>
        <time>2022-06-09T13:36:03Z</time>
      </trkpt>
      <trkpt lat="44.8212" lon="4.19353">
        <ele>1238.9</ele>
        <time>2022-06-09T13:36:05Z</time>
      </trkpt>
      <trkpt lat="44.82118" lon="4.19353">
        <ele>1239</ele>
        <time>2022-06-09T13:36:06Z</time>
      </trkpt>
      <trkpt lat="44.82115" lon="4.19353">
        <ele>1239.2</ele>
        <time>2022-06-09T13:36:07Z</time>
      </trkpt>
      <trkpt lat="44.82113" lon="4.19353">
        <ele>1239.2</ele>
        <time>2022-06-09T13:36:08Z</time>
      </trkpt>
      <trkpt lat="44.82111" lon="4.19352">
        <ele>1239.4</ele>
        <time>2022-06-09T13:36:09Z</time>
      </trkpt>
      <trkpt lat="44.82107" lon="4.19352">
        <ele>1239.5</ele>
        <time>2022-06-09T13:36:10Z</time>
      </trkpt>
      <trkpt lat="44.82105" lon="4.19351">
        <ele>1239.7</ele>
        <time>2022-06-09T13:36:11Z</time>
      </trkpt>
      <trkpt lat="44.82102" lon="4.19351">
        <ele>1239.8</ele>
        <time>2022-06-09T13:36:13Z</time>
      </trkpt>
      <trkpt lat="44.82098" lon="4.1935">
        <ele>1240</ele>
        <time>2022-06-09T13:36:14Z</time>
      </trkpt>
      <trkpt lat="44.82097" lon="4.1935">
        <ele>1240.1</ele>
        <time>2022-06-09T13:36:15Z</time>
      </trkpt>
      <trkpt lat="44.82094" lon="4.1935">
        <ele>1240.2</ele>
        <time>2022-06-09T13:36:16Z</time>
      </trkpt>
      <trkpt lat="44.8209" lon="4.1935">
        <ele>1240.4</ele>
        <time>2022-06-09T13:36:17Z</time>
      </trkpt>
      <trkpt lat="44.82089" lon="4.1935">
        <ele>1240.5</ele>
        <time>2022-06-09T13:36:18Z</time>
      </trkpt>
      <trkpt lat="44.82085" lon="4.19348">
        <ele>1240.7</ele>
        <time>2022-06-09T13:36:19Z</time>
      </trkpt>
      <trkpt lat="44.82081" lon="4.19349">
        <ele>1240.8</ele>
        <time>2022-06-09T13:36:21Z</time>
      </trkpt>
      <trkpt lat="44.82079" lon="4.19348">
        <ele>1241</ele>
        <time>2022-06-09T13:36:22Z</time>
      </trkpt>
      <trkpt lat="44.82075" lon="4.19348">
        <ele>1241.1</ele>
        <time>2022-06-09T13:36:23Z</time>
      </trkpt>
      <trkpt lat="44.82071" lon="4.19347">
        <ele>1241.3</ele>
        <time>2022-06-09T13:36:24Z</time>
      </trkpt>
      <trkpt lat="44.8207" lon="4.19347">
        <ele>1241.4</ele>
        <time>2022-06-09T13:36:25Z</time>
      </trkpt>
      <trkpt lat="44.82065" lon="4.19345">
        <ele>1241.6</ele>
        <time>2022-06-09T13:36:27Z</time>
      </trkpt>
      <trkpt lat="44.82063" lon="4.19344">
        <ele>1241.7</ele>
        <time>2022-06-09T13:36:28Z</time>
      </trkpt>
      <trkpt lat="44.8206" lon="4.19344">
        <ele>1241.8</ele>
        <time>2022-06-09T13:36:30Z</time>
      </trkpt>
      <trkpt lat="44.82056" lon="4.19343">
        <ele>1242</ele>
        <time>2022-06-09T13:36:31Z</time>
      </trkpt>
      <trkpt lat="44.82053" lon="4.19342">
        <ele>1242.1</ele>
        <time>2022-06-09T13:36:32Z</time>
      </trkpt>
      <trkpt lat="44.82051" lon="4.19342">
        <ele>1242.2</ele>
        <time>2022-06-09T13:36:34Z</time>
      </trkpt>
      <trkpt lat="44.82047" lon="4.19342">
        <ele>1242.4</ele>
        <time>2022-06-09T13:36:35Z</time>
      </trkpt>
      <trkpt lat="44.82044" lon="4.19342">
        <ele>1242.5</ele>
        <time>2022-06-09T13:36:36Z</time>
      </trkpt>
      <trkpt lat="44.82041" lon="4.1934">
        <ele>1242.6</ele>
        <time>2022-06-09T13:36:37Z</time>
      </trkpt>
      <trkpt lat="44.8204" lon="4.1934">
        <ele>1242.7</ele>
        <time>2022-06-09T13:36:38Z</time>
      </trkpt>
      <trkpt lat="44.82036" lon="4.19339">
        <ele>1242.8</ele>
        <time>2022-06-09T13:36:39Z</time>
      </trkpt>
      <trkpt lat="44.82031" lon="4.19338">
        <ele>1243</ele>
        <time>2022-06-09T13:36:41Z</time>
      </trkpt>
      <trkpt lat="44.8203" lon="4.19338">
        <ele>1243</ele>
        <time>2022-06-09T13:36:42Z</time>
      </trkpt>
      <trkpt lat="44.82028" lon="4.19337">
        <ele>1243.1</ele>
        <time>2022-06-09T13:36:43Z</time>
      </trkpt>
      <trkpt lat="44.82024" lon="4.19337">
        <ele>1243.3</ele>
        <time>2022-06-09T13:36:44Z</time>
      </trkpt>
      <trkpt lat="44.82022" lon="4.19336">
        <ele>1243.3</ele>
        <time>2022-06-09T13:36:45Z</time>
      </trkpt>
      <trkpt lat="44.82018" lon="4.19335">
        <ele>1243.5</ele>
        <time>2022-06-09T13:36:46Z</time>
      </trkpt>
      <trkpt lat="44.82015" lon="4.19335">
        <ele>1243.6</ele>
        <time>2022-06-09T13:36:47Z</time>
      </trkpt>
      <trkpt lat="44.82011" lon="4.19334">
        <ele>1243.7</ele>
        <time>2022-06-09T13:36:49Z</time>
      </trkpt>
      <trkpt lat="44.82009" lon="4.19333">
        <ele>1243.8</ele>
        <time>2022-06-09T13:36:50Z</time>
      </trkpt>
      <trkpt lat="44.82007" lon="4.19333">
        <ele>1243.9</ele>
        <time>2022-06-09T13:36:51Z</time>
      </trkpt>
      <trkpt lat="44.82003" lon="4.19332">
        <ele>1244</ele>
        <time>2022-06-09T13:36:52Z</time>
      </trkpt>
      <trkpt lat="44.81999" lon="4.19332">
        <ele>1244.2</ele>
        <time>2022-06-09T13:36:53Z</time>
      </trkpt>
      <trkpt lat="44.81995" lon="4.19331">
        <ele>1244.3</ele>
        <time>2022-06-09T13:36:55Z</time>
      </trkpt>
      <trkpt lat="44.81992" lon="4.1933">
        <ele>1244.4</ele>
        <time>2022-06-09T13:36:56Z</time>
      </trkpt>
      <trkpt lat="44.8199" lon="4.19329">
        <ele>1244.5</ele>
        <time>2022-06-09T13:36:57Z</time>
      </trkpt>
      <trkpt lat="44.81988" lon="4.19329">
        <ele>1244.6</ele>
        <time>2022-06-09T13:36:58Z</time>
      </trkpt>
      <trkpt lat="44.81984" lon="4.19329">
        <ele>1244.7</ele>
        <time>2022-06-09T13:36:59Z</time>
      </trkpt>
      <trkpt lat="44.81979" lon="4.19329">
        <ele>1244.9</ele>
        <time>2022-06-09T13:37:00Z</time>
      </trkpt>
      <trkpt lat="44.81974" lon="4.19329">
        <ele>1245</ele>
        <time>2022-06-09T13:37:02Z</time>
      </trkpt>
      <trkpt lat="44.81972" lon="4.19328">
        <ele>1245.1</ele>
        <time>2022-06-09T13:37:03Z</time>
      </trkpt>
      <trkpt lat="44.81971" lon="4.19328">
        <ele>1245.1</ele>
        <time>2022-06-09T13:37:04Z</time>
      </trkpt>
      <trkpt lat="44.81968" lon="4.19328">
        <ele>1245.2</ele>
        <time>2022-06-09T13:37:05Z</time>
      </trkpt>
      <trkpt lat="44.81964" lon="4.19327">
        <ele>1245.4</ele>
        <time>2022-06-09T13:37:06Z</time>
      </trkpt>
      <trkpt lat="44.81962" lon="4.19326">
        <ele>1245.4</ele>
        <time>2022-06-09T13:37:07Z</time>
      </trkpt>
      <trkpt lat="44.8196" lon="4.19326">
        <ele>1245.5</ele>
        <time>2022-06-09T13:37:08Z</time>
      </trkpt>
      <trkpt lat="44.81956" lon="4.19325">
        <ele>1245.6</ele>
        <time>2022-06-09T13:37:09Z</time>
      </trkpt>
      <trkpt lat="44.81955" lon="4.19325">
        <ele>1245.7</ele>
        <time>2022-06-09T13:37:10Z</time>
      </trkpt>
      <trkpt lat="44.81952" lon="4.19324">
        <ele>1245.8</ele>
        <time>2022-06-09T13:37:11Z</time>
      </trkpt>
      <trkpt lat="44.81949" lon="4.19323">
        <ele>1245.9</ele>
        <time>2022-06-09T13:37:12Z</time>
      </trkpt>
      <trkpt lat="44.81946" lon="4.19321">
        <ele>1246</ele>
        <time>2022-06-09T13:37:13Z</time>
      </trkpt>
      <trkpt lat="44.81943" lon="4.19321">
        <ele>1246.1</ele>
        <time>2022-06-09T13:37:14Z</time>
      </trkpt>
      <trkpt lat="44.81939" lon="4.19321">
        <ele>1246.3</ele>
        <time>2022-06-09T13:37:15Z</time>
      </trkpt>
      <trkpt lat="44.81937" lon="4.19321">
        <ele>1246.4</ele>
        <time>2022-06-09T13:37:16Z</time>
      </trkpt>
      <trkpt lat="44.81934" lon="4.1932">
        <ele>1246.5</ele>
        <time>2022-06-09T13:37:17Z</time>
      </trkpt>
      <trkpt lat="44.81929" lon="4.19319">
        <ele>1246.7</ele>
        <time>2022-06-09T13:37:18Z</time>
      </trkpt>
      <trkpt lat="44.81927" lon="4.19319">
        <ele>1246.8</ele>
        <time>2022-06-09T13:37:19Z</time>
      </trkpt>
      <trkpt lat="44.81924" lon="4.19319">
        <ele>1246.9</ele>
        <time>2022-06-09T13:37:20Z</time>
      </trkpt>
      <trkpt lat="44.81921" lon="4.19319">
        <ele>1247</ele>
        <time>2022-06-09T13:37:21Z</time>
      </trkpt>
      <trkpt lat="44.81917" lon="4.19319">
        <ele>1247.2</ele>
        <time>2022-06-09T13:37:23Z</time>
      </trkpt>
      <trkpt lat="44.81914" lon="4.19319">
        <ele>1247.3</ele>
        <time>2022-06-09T13:37:24Z</time>
      </trkpt>
      <trkpt lat="44.81909" lon="4.19318">
        <ele>1247.5</ele>
        <time>2022-06-09T13:37:25Z</time>
      </trkpt>
      <trkpt lat="44.81906" lon="4.19317">
        <ele>1247.6</ele>
        <time>2022-06-09T13:37:27Z</time>
      </trkpt>
      <trkpt lat="44.81903" lon="4.19316">
        <ele>1247.7</ele>
        <time>2022-06-09T13:37:28Z</time>
      </trkpt>
      <trkpt lat="44.81899" lon="4.19316">
        <ele>1247.8</ele>
        <time>2022-06-09T13:37:29Z</time>
      </trkpt>
      <trkpt lat="44.81895" lon="4.19317">
        <ele>1248</ele>
        <time>2022-06-09T13:37:31Z</time>
      </trkpt>
      <trkpt lat="44.81891" lon="4.19317">
        <ele>1248.2</ele>
        <time>2022-06-09T13:37:32Z</time>
      </trkpt>
      <trkpt lat="44.81888" lon="4.19316">
        <ele>1248.3</ele>
        <time>2022-06-09T13:37:33Z</time>
      </trkpt>
      <trkpt lat="44.81885" lon="4.19317">
        <ele>1248.4</ele>
        <time>2022-06-09T13:37:34Z</time>
      </trkpt>
      <trkpt lat="44.81882" lon="4.19319">
        <ele>1248.5</ele>
        <time>2022-06-09T13:37:35Z</time>
      </trkpt>
      <trkpt lat="44.81879" lon="4.1932">
        <ele>1248.6</ele>
        <time>2022-06-09T13:37:37Z</time>
      </trkpt>
      <trkpt lat="44.81875" lon="4.19322">
        <ele>1248.6</ele>
        <time>2022-06-09T13:37:38Z</time>
      </trkpt>
      <trkpt lat="44.81872" lon="4.19325">
        <ele>1248.5</ele>
        <time>2022-06-09T13:37:39Z</time>
      </trkpt>
      <trkpt lat="44.81869" lon="4.19326">
        <ele>1248.4</ele>
        <time>2022-06-09T13:37:41Z</time>
      </trkpt>
      <trkpt lat="44.81865" lon="4.19322">
        <ele>1248.2</ele>
        <time>2022-06-09T13:37:42Z</time>
      </trkpt>
      <trkpt lat="44.81863" lon="4.19327">
        <ele>1248</ele>
        <time>2022-06-09T13:37:44Z</time>
      </trkpt>
      <trkpt lat="44.81862" lon="4.19331">
        <ele>1247.9</ele>
        <time>2022-06-09T13:37:46Z</time>
      </trkpt>
      <trkpt lat="44.81856" lon="4.19336">
        <ele>1247.5</ele>
        <time>2022-06-09T13:37:47Z</time>
      </trkpt>
      <trkpt lat="44.81846" lon="4.1934">
        <ele>1247</ele>
        <time>2022-06-09T13:37:49Z</time>
      </trkpt>
      <trkpt lat="44.8184" lon="4.19342">
        <ele>1246.7</ele>
        <time>2022-06-09T13:37:50Z</time>
      </trkpt>
      <trkpt lat="44.81835" lon="4.19344">
        <ele>1246.4</ele>
        <time>2022-06-09T13:37:51Z</time>
      </trkpt>
      <trkpt lat="44.8183" lon="4.19346">
        <ele>1246.2</ele>
        <time>2022-06-09T13:37:52Z</time>
      </trkpt>
      <trkpt lat="44.81824" lon="4.19348">
        <ele>1245.9</ele>
        <time>2022-06-09T13:37:53Z</time>
      </trkpt>
      <trkpt lat="44.81818" lon="4.1935">
        <ele>1245.7</ele>
        <time>2022-06-09T13:37:54Z</time>
      </trkpt>
      <trkpt lat="44.81812" lon="4.19353">
        <ele>1245.4</ele>
        <time>2022-06-09T13:37:55Z</time>
      </trkpt>
      <trkpt lat="44.81807" lon="4.19356">
        <ele>1245.2</ele>
        <time>2022-06-09T13:37:56Z</time>
      </trkpt>
      <trkpt lat="44.81801" lon="4.19359">
        <ele>1245</ele>
        <time>2022-06-09T13:37:57Z</time>
      </trkpt>
      <trkpt lat="44.81795" lon="4.19362">
        <ele>1244.8</ele>
        <time>2022-06-09T13:37:58Z</time>
      </trkpt>
      <trkpt lat="44.81789" lon="4.19364">
        <ele>1244.7</ele>
        <time>2022-06-09T13:37:59Z</time>
      </trkpt>
      <trkpt lat="44.81782" lon="4.19366">
        <ele>1244.6</ele>
        <time>2022-06-09T13:38:00Z</time>
      </trkpt>
      <trkpt lat="44.81776" lon="4.19367">
        <ele>1244.6</ele>
        <time>2022-06-09T13:38:01Z</time>
      </trkpt>
      <trkpt lat="44.81771" lon="4.19367">
        <ele>1244.5</ele>
        <time>2022-06-09T13:38:02Z</time>
      </trkpt>
      <trkpt lat="44.81764" lon="4.19367">
        <ele>1244.4</ele>
        <time>2022-06-09T13:38:03Z</time>
      </trkpt>
      <trkpt lat="44.81759" lon="4.19366">
        <ele>1244.4</ele>
        <time>2022-06-09T13:38:04Z</time>
      </trkpt>
      <trkpt lat="44.81754" lon="4.19365">
        <ele>1244.3</ele>
        <time>2022-06-09T13:38:05Z</time>
      </trkpt>
      <trkpt lat="44.81748" lon="4.19364">
        <ele>1244.3</ele>
        <time>2022-06-09T13:38:06Z</time>
      </trkpt>
      <trkpt lat="44.81743" lon="4.19362">
        <ele>1244.2</ele>
        <time>2022-06-09T13:38:07Z</time>
      </trkpt>
      <trkpt lat="44.81737" lon="4.19361">
        <ele>1244.1</ele>
        <time>2022-06-09T13:38:08Z</time>
      </trkpt>
      <trkpt lat="44.81731" lon="4.1936">
        <ele>1244.1</ele>
        <time>2022-06-09T13:38:09Z</time>
      </trkpt>
      <trkpt lat="44.81726" lon="4.19359">
        <ele>1244</ele>
        <time>2022-06-09T13:38:10Z</time>
      </trkpt>
      <trkpt lat="44.8172" lon="4.19357">
        <ele>1244</ele>
        <time>2022-06-09T13:38:11Z</time>
      </trkpt>
      <trkpt lat="44.81714" lon="4.19356">
        <ele>1243.9</ele>
        <time>2022-06-09T13:38:12Z</time>
      </trkpt>
      <trkpt lat="44.81709" lon="4.19354">
        <ele>1243.9</ele>
        <time>2022-06-09T13:38:13Z</time>
      </trkpt>
      <trkpt lat="44.81703" lon="4.19352">
        <ele>1243.8</ele>
        <time>2022-06-09T13:38:14Z</time>
      </trkpt>
      <trkpt lat="44.81697" lon="4.19349">
        <ele>1243.8</ele>
        <time>2022-06-09T13:38:15Z</time>
      </trkpt>
      <trkpt lat="44.81692" lon="4.19346">
        <ele>1243.7</ele>
        <time>2022-06-09T13:38:16Z</time>
      </trkpt>
      <trkpt lat="44.81686" lon="4.19343">
        <ele>1243.7</ele>
        <time>2022-06-09T13:38:17Z</time>
      </trkpt>
      <trkpt lat="44.8168" lon="4.1934">
        <ele>1243.6</ele>
        <time>2022-06-09T13:38:18Z</time>
      </trkpt>
      <trkpt lat="44.81675" lon="4.19337">
        <ele>1243.6</ele>
        <time>2022-06-09T13:38:19Z</time>
      </trkpt>
      <trkpt lat="44.81669" lon="4.19334">
        <ele>1243.5</ele>
        <time>2022-06-09T13:38:20Z</time>
      </trkpt>
      <trkpt lat="44.81663" lon="4.19331">
        <ele>1243.5</ele>
        <time>2022-06-09T13:38:21Z</time>
      </trkpt>
      <trkpt lat="44.81656" lon="4.19329">
        <ele>1243.5</ele>
        <time>2022-06-09T13:38:22Z</time>
      </trkpt>
      <trkpt lat="44.8165" lon="4.19328">
        <ele>1243.5</ele>
        <time>2022-06-09T13:38:23Z</time>
      </trkpt>
      <trkpt lat="44.81644" lon="4.19326">
        <ele>1243.5</ele>
        <time>2022-06-09T13:38:24Z</time>
      </trkpt>
      <trkpt lat="44.81637" lon="4.19326">
        <ele>1243.5</ele>
        <time>2022-06-09T13:38:25Z</time>
      </trkpt>
      <trkpt lat="44.81631" lon="4.19325">
        <ele>1243.5</ele>
        <time>2022-06-09T13:38:26Z</time>
      </trkpt>
      <trkpt lat="44.81625" lon="4.19325">
        <ele>1243.5</ele>
        <time>2022-06-09T13:38:27Z</time>
      </trkpt>
      <trkpt lat="44.81618" lon="4.19324">
        <ele>1243.5</ele>
        <time>2022-06-09T13:38:28Z</time>
      </trkpt>
      <trkpt lat="44.81611" lon="4.19323">
        <ele>1243.5</ele>
        <time>2022-06-09T13:38:29Z</time>
      </trkpt>
      <trkpt lat="44.81604" lon="4.19322">
        <ele>1243.5</ele>
        <time>2022-06-09T13:38:30Z</time>
      </trkpt>
      <trkpt lat="44.81598" lon="4.1932">
        <ele>1243.5</ele>
        <time>2022-06-09T13:38:31Z</time>
      </trkpt>
      <trkpt lat="44.81591" lon="4.19318">
        <ele>1243.5</ele>
        <time>2022-06-09T13:38:32Z</time>
      </trkpt>
      <trkpt lat="44.81584" lon="4.19316">
        <ele>1243.6</ele>
        <time>2022-06-09T13:38:33Z</time>
      </trkpt>
      <trkpt lat="44.81577" lon="4.19314">
        <ele>1243.6</ele>
        <time>2022-06-09T13:38:34Z</time>
      </trkpt>
      <trkpt lat="44.8157" lon="4.19312">
        <ele>1243.7</ele>
        <time>2022-06-09T13:38:35Z</time>
      </trkpt>
      <trkpt lat="44.81564" lon="4.19309">
        <ele>1243.8</ele>
        <time>2022-06-09T13:38:36Z</time>
      </trkpt>
      <trkpt lat="44.81558" lon="4.19307">
        <ele>1243.9</ele>
        <time>2022-06-09T13:38:37Z</time>
      </trkpt>
      <trkpt lat="44.81551" lon="4.19304">
        <ele>1244</ele>
        <time>2022-06-09T13:38:38Z</time>
      </trkpt>
      <trkpt lat="44.81545" lon="4.19302">
        <ele>1244.1</ele>
        <time>2022-06-09T13:38:39Z</time>
      </trkpt>
      <trkpt lat="44.81538" lon="4.193">
        <ele>1244.2</ele>
        <time>2022-06-09T13:38:40Z</time>
      </trkpt>
      <trkpt lat="44.81532" lon="4.19298">
        <ele>1244.2</ele>
        <time>2022-06-09T13:38:41Z</time>
      </trkpt>
      <trkpt lat="44.81526" lon="4.19295">
        <ele>1244.3</ele>
        <time>2022-06-09T13:38:42Z</time>
      </trkpt>
      <trkpt lat="44.81521" lon="4.19293">
        <ele>1244.4</ele>
        <time>2022-06-09T13:38:43Z</time>
      </trkpt>
      <trkpt lat="44.81515" lon="4.19291">
        <ele>1244.4</ele>
        <time>2022-06-09T13:38:44Z</time>
      </trkpt>
      <trkpt lat="44.8151" lon="4.19288">
        <ele>1244.3</ele>
        <time>2022-06-09T13:38:45Z</time>
      </trkpt>
      <trkpt lat="44.81505" lon="4.19286">
        <ele>1244.2</ele>
        <time>2022-06-09T13:38:46Z</time>
      </trkpt>
      <trkpt lat="44.815" lon="4.19282">
        <ele>1244</ele>
        <time>2022-06-09T13:38:47Z</time>
      </trkpt>
      <trkpt lat="44.81496" lon="4.19277">
        <ele>1243.8</ele>
        <time>2022-06-09T13:38:48Z</time>
      </trkpt>
      <trkpt lat="44.81491" lon="4.19271">
        <ele>1243.4</ele>
        <time>2022-06-09T13:38:49Z</time>
      </trkpt>
      <trkpt lat="44.81488" lon="4.19263">
        <ele>1243</ele>
        <time>2022-06-09T13:38:50Z</time>
      </trkpt>
      <trkpt lat="44.81484" lon="4.19254">
        <ele>1242.6</ele>
        <time>2022-06-09T13:38:51Z</time>
      </trkpt>
      <trkpt lat="44.81482" lon="4.19245">
        <ele>1242.1</ele>
        <time>2022-06-09T13:38:52Z</time>
      </trkpt>
      <trkpt lat="44.81481" lon="4.19235">
        <ele>1241.5</ele>
        <time>2022-06-09T13:38:53Z</time>
      </trkpt>
      <trkpt lat="44.8148" lon="4.19225">
        <ele>1241</ele>
        <time>2022-06-09T13:38:54Z</time>
      </trkpt>
      <trkpt lat="44.81478" lon="4.19215">
        <ele>1240.5</ele>
        <time>2022-06-09T13:38:55Z</time>
      </trkpt>
      <trkpt lat="44.81476" lon="4.19204">
        <ele>1240.1</ele>
        <time>2022-06-09T13:38:56Z</time>
      </trkpt>
      <trkpt lat="44.81474" lon="4.19193">
        <ele>1239.6</ele>
        <time>2022-06-09T13:38:57Z</time>
      </trkpt>
      <trkpt lat="44.81472" lon="4.19182">
        <ele>1239.1</ele>
        <time>2022-06-09T13:38:58Z</time>
      </trkpt>
      <trkpt lat="44.8147" lon="4.1917">
        <ele>1238.6</ele>
        <time>2022-06-09T13:38:59Z</time>
      </trkpt>
      <trkpt lat="44.81468" lon="4.19158">
        <ele>1238.2</ele>
        <time>2022-06-09T13:39:00Z</time>
      </trkpt>
      <trkpt lat="44.81466" lon="4.19145">
        <ele>1237.7</ele>
        <time>2022-06-09T13:39:01Z</time>
      </trkpt>
      <trkpt lat="44.81463" lon="4.19132">
        <ele>1237.4</ele>
        <time>2022-06-09T13:39:02Z</time>
      </trkpt>
      <trkpt lat="44.81459" lon="4.1912">
        <ele>1237.1</ele>
        <time>2022-06-09T13:39:03Z</time>
      </trkpt>
      <trkpt lat="44.81454" lon="4.19109">
        <ele>1236.9</ele>
        <time>2022-06-09T13:39:04Z</time>
      </trkpt>
      <trkpt lat="44.81447" lon="4.191">
        <ele>1236.8</ele>
        <time>2022-06-09T13:39:05Z</time>
      </trkpt>
      <trkpt lat="44.81439" lon="4.19092">
        <ele>1236.9</ele>
        <time>2022-06-09T13:39:06Z</time>
      </trkpt>
      <trkpt lat="44.8143" lon="4.19086">
        <ele>1237</ele>
        <time>2022-06-09T13:39:07Z</time>
      </trkpt>
      <trkpt lat="44.81421" lon="4.19082">
        <ele>1236.9</ele>
        <time>2022-06-09T13:39:08Z</time>
      </trkpt>
      <trkpt lat="44.81413" lon="4.19079">
        <ele>1236.8</ele>
        <time>2022-06-09T13:39:09Z</time>
      </trkpt>
      <trkpt lat="44.81405" lon="4.19076">
        <ele>1236.8</ele>
        <time>2022-06-09T13:39:10Z</time>
      </trkpt>
      <trkpt lat="44.81397" lon="4.19074">
        <ele>1237</ele>
        <time>2022-06-09T13:39:11Z</time>
      </trkpt>
      <trkpt lat="44.8139" lon="4.19072">
        <ele>1237.2</ele>
        <time>2022-06-09T13:39:12Z</time>
      </trkpt>
      <trkpt lat="44.81383" lon="4.1907">
        <ele>1237.4</ele>
        <time>2022-06-09T13:39:13Z</time>
      </trkpt>
      <trkpt lat="44.81376" lon="4.19067">
        <ele>1237.6</ele>
        <time>2022-06-09T13:39:14Z</time>
      </trkpt>
      <trkpt lat="44.81369" lon="4.19064">
        <ele>1237.7</ele>
        <time>2022-06-09T13:39:15Z</time>
      </trkpt>
      <trkpt lat="44.81363" lon="4.19061">
        <ele>1237.9</ele>
        <time>2022-06-09T13:39:16Z</time>
      </trkpt>
      <trkpt lat="44.81357" lon="4.19059">
        <ele>1238</ele>
        <time>2022-06-09T13:39:17Z</time>
      </trkpt>
      <trkpt lat="44.81351" lon="4.19056">
        <ele>1238.2</ele>
        <time>2022-06-09T13:39:18Z</time>
      </trkpt>
      <trkpt lat="44.81345" lon="4.19053">
        <ele>1238.3</ele>
        <time>2022-06-09T13:39:19Z</time>
      </trkpt>
      <trkpt lat="44.81339" lon="4.19051">
        <ele>1238.5</ele>
        <time>2022-06-09T13:39:20Z</time>
      </trkpt>
      <trkpt lat="44.81332" lon="4.19049">
        <ele>1238.7</ele>
        <time>2022-06-09T13:39:21Z</time>
      </trkpt>
      <trkpt lat="44.81327" lon="4.19046">
        <ele>1238.8</ele>
        <time>2022-06-09T13:39:22Z</time>
      </trkpt>
      <trkpt lat="44.81322" lon="4.19044">
        <ele>1239</ele>
        <time>2022-06-09T13:39:23Z</time>
      </trkpt>
      <trkpt lat="44.81317" lon="4.19041">
        <ele>1239.1</ele>
        <time>2022-06-09T13:39:24Z</time>
      </trkpt>
      <trkpt lat="44.81312" lon="4.19039">
        <ele>1239.3</ele>
        <time>2022-06-09T13:39:25Z</time>
      </trkpt>
      <trkpt lat="44.81308" lon="4.19037">
        <ele>1239.4</ele>
        <time>2022-06-09T13:39:26Z</time>
      </trkpt>
      <trkpt lat="44.81304" lon="4.19035">
        <ele>1239.4</ele>
        <time>2022-06-09T13:39:27Z</time>
      </trkpt>
      <trkpt lat="44.81299" lon="4.19033">
        <ele>1239.5</ele>
        <time>2022-06-09T13:39:28Z</time>
      </trkpt>
      <trkpt lat="44.81296" lon="4.19032">
        <ele>1239.5</ele>
        <time>2022-06-09T13:39:29Z</time>
      </trkpt>
      <trkpt lat="44.81293" lon="4.19031">
        <ele>1239.5</ele>
        <time>2022-06-09T13:39:30Z</time>
      </trkpt>
      <trkpt lat="44.81288" lon="4.1903">
        <ele>1239.4</ele>
        <time>2022-06-09T13:39:31Z</time>
      </trkpt>
      <trkpt lat="44.81282" lon="4.1903">
        <ele>1239.2</ele>
        <time>2022-06-09T13:39:32Z</time>
      </trkpt>
      <trkpt lat="44.81276" lon="4.1903">
        <ele>1239.1</ele>
        <time>2022-06-09T13:39:33Z</time>
      </trkpt>
      <trkpt lat="44.8127" lon="4.19029">
        <ele>1238.9</ele>
        <time>2022-06-09T13:39:34Z</time>
      </trkpt>
      <trkpt lat="44.81264" lon="4.19029">
        <ele>1238.7</ele>
        <time>2022-06-09T13:39:35Z</time>
      </trkpt>
      <trkpt lat="44.81258" lon="4.19028">
        <ele>1238.5</ele>
        <time>2022-06-09T13:39:36Z</time>
      </trkpt>
      <trkpt lat="44.81251" lon="4.19028">
        <ele>1238.3</ele>
        <time>2022-06-09T13:39:37Z</time>
      </trkpt>
      <trkpt lat="44.81244" lon="4.19027">
        <ele>1238.2</ele>
        <time>2022-06-09T13:39:38Z</time>
      </trkpt>
      <trkpt lat="44.81237" lon="4.19025">
        <ele>1238.2</ele>
        <time>2022-06-09T13:39:39Z</time>
      </trkpt>
      <trkpt lat="44.81232" lon="4.19022">
        <ele>1238.2</ele>
        <time>2022-06-09T13:39:40Z</time>
      </trkpt>
      <trkpt lat="44.81227" lon="4.19017">
        <ele>1238.2</ele>
        <time>2022-06-09T13:39:41Z</time>
      </trkpt>
      <trkpt lat="44.81221" lon="4.19013">
        <ele>1238.2</ele>
        <time>2022-06-09T13:39:42Z</time>
      </trkpt>
      <trkpt lat="44.81216" lon="4.19009">
        <ele>1238.2</ele>
        <time>2022-06-09T13:39:43Z</time>
      </trkpt>
      <trkpt lat="44.81211" lon="4.19005">
        <ele>1238.2</ele>
        <time>2022-06-09T13:39:44Z</time>
      </trkpt>
      <trkpt lat="44.81207" lon="4.19002">
        <ele>1238.2</ele>
        <time>2022-06-09T13:39:45Z</time>
      </trkpt>
      <trkpt lat="44.81202" lon="4.18999">
        <ele>1238.2</ele>
        <time>2022-06-09T13:39:46Z</time>
      </trkpt>
      <trkpt lat="44.81198" lon="4.18996">
        <ele>1238.2</ele>
        <time>2022-06-09T13:39:47Z</time>
      </trkpt>
      <trkpt lat="44.81193" lon="4.18993">
        <ele>1238.2</ele>
        <time>2022-06-09T13:39:48Z</time>
      </trkpt>
      <trkpt lat="44.81188" lon="4.18991">
        <ele>1238.1</ele>
        <time>2022-06-09T13:39:49Z</time>
      </trkpt>
      <trkpt lat="44.81183" lon="4.18989">
        <ele>1238.1</ele>
        <time>2022-06-09T13:39:50Z</time>
      </trkpt>
      <trkpt lat="44.81178" lon="4.18986">
        <ele>1238.1</ele>
        <time>2022-06-09T13:39:51Z</time>
      </trkpt>
      <trkpt lat="44.81173" lon="4.18984">
        <ele>1238.1</ele>
        <time>2022-06-09T13:39:52Z</time>
      </trkpt>
      <trkpt lat="44.81167" lon="4.18982">
        <ele>1238</ele>
        <time>2022-06-09T13:39:53Z</time>
      </trkpt>
      <trkpt lat="44.81162" lon="4.18981">
        <ele>1237.9</ele>
        <time>2022-06-09T13:39:54Z</time>
      </trkpt>
      <trkpt lat="44.81157" lon="4.18981">
        <ele>1237.8</ele>
        <time>2022-06-09T13:39:55Z</time>
      </trkpt>
      <trkpt lat="44.81151" lon="4.1898">
        <ele>1237.7</ele>
        <time>2022-06-09T13:39:56Z</time>
      </trkpt>
      <trkpt lat="44.81146" lon="4.1898">
        <ele>1237.5</ele>
        <time>2022-06-09T13:39:57Z</time>
      </trkpt>
      <trkpt lat="44.81141" lon="4.1898">
        <ele>1237.4</ele>
        <time>2022-06-09T13:39:58Z</time>
      </trkpt>
      <trkpt lat="44.81135" lon="4.1898">
        <ele>1237.2</ele>
        <time>2022-06-09T13:39:59Z</time>
      </trkpt>
      <trkpt lat="44.8113" lon="4.1898">
        <ele>1237</ele>
        <time>2022-06-09T13:40:00Z</time>
      </trkpt>
      <trkpt lat="44.81124" lon="4.1898">
        <ele>1236.9</ele>
        <time>2022-06-09T13:40:01Z</time>
      </trkpt>
      <trkpt lat="44.81118" lon="4.18981">
        <ele>1236.7</ele>
        <time>2022-06-09T13:40:02Z</time>
      </trkpt>
      <trkpt lat="44.81111" lon="4.18981">
        <ele>1236.4</ele>
        <time>2022-06-09T13:40:03Z</time>
      </trkpt>
      <trkpt lat="44.81105" lon="4.18981">
        <ele>1236.2</ele>
        <time>2022-06-09T13:40:04Z</time>
      </trkpt>
      <trkpt lat="44.81099" lon="4.18981">
        <ele>1236</ele>
        <time>2022-06-09T13:40:05Z</time>
      </trkpt>
      <trkpt lat="44.81093" lon="4.18981">
        <ele>1235.9</ele>
        <time>2022-06-09T13:40:06Z</time>
      </trkpt>
      <trkpt lat="44.81087" lon="4.18981">
        <ele>1235.7</ele>
        <time>2022-06-09T13:40:07Z</time>
      </trkpt>
      <trkpt lat="44.81081" lon="4.18981">
        <ele>1235.5</ele>
        <time>2022-06-09T13:40:08Z</time>
      </trkpt>
      <trkpt lat="44.81076" lon="4.1898">
        <ele>1235.3</ele>
        <time>2022-06-09T13:40:09Z</time>
      </trkpt>
      <trkpt lat="44.81071" lon="4.1898">
        <ele>1235.1</ele>
        <time>2022-06-09T13:40:10Z</time>
      </trkpt>
      <trkpt lat="44.81067" lon="4.1898">
        <ele>1234.9</ele>
        <time>2022-06-09T13:40:11Z</time>
      </trkpt>
      <trkpt lat="44.81062" lon="4.1898">
        <ele>1234.7</ele>
        <time>2022-06-09T13:40:12Z</time>
      </trkpt>
      <trkpt lat="44.81058" lon="4.18979">
        <ele>1234.6</ele>
        <time>2022-06-09T13:40:13Z</time>
      </trkpt>
      <trkpt lat="44.81055" lon="4.18979">
        <ele>1234.5</ele>
        <time>2022-06-09T13:40:14Z</time>
      </trkpt>
      <trkpt lat="44.81051" lon="4.18979">
        <ele>1234.4</ele>
        <time>2022-06-09T13:40:15Z</time>
      </trkpt>
      <trkpt lat="44.81045" lon="4.1898">
        <ele>1234.2</ele>
        <time>2022-06-09T13:40:16Z</time>
      </trkpt>
      <trkpt lat="44.81042" lon="4.1898">
        <ele>1234.1</ele>
        <time>2022-06-09T13:40:17Z</time>
      </trkpt>
      <trkpt lat="44.81039" lon="4.1898">
        <ele>1234</ele>
        <time>2022-06-09T13:40:18Z</time>
      </trkpt>
      <trkpt lat="44.81034" lon="4.18981">
        <ele>1233.9</ele>
        <time>2022-06-09T13:40:19Z</time>
      </trkpt>
      <trkpt lat="44.81031" lon="4.18982">
        <ele>1233.8</ele>
        <time>2022-06-09T13:40:20Z</time>
      </trkpt>
      <trkpt lat="44.81031" lon="4.18983">
        <ele>1233.8</ele>
        <time>2022-06-09T13:40:21Z</time>
      </trkpt>
      <trkpt lat="44.81028" lon="4.18983">
        <ele>1233.7</ele>
        <time>2022-06-09T13:40:22Z</time>
      </trkpt>
      <trkpt lat="44.81021" lon="4.18982">
        <ele>1233.5</ele>
        <time>2022-06-09T13:40:24Z</time>
      </trkpt>
      <trkpt lat="44.81019" lon="4.18979">
        <ele>1233.5</ele>
        <time>2022-06-09T13:40:25Z</time>
      </trkpt>
      <trkpt lat="44.81019" lon="4.18977">
        <ele>1233.4</ele>
        <time>2022-06-09T13:40:26Z</time>
      </trkpt>
      <trkpt lat="44.81018" lon="4.18977">
        <ele>1233.4</ele>
        <time>2022-06-09T13:40:27Z</time>
      </trkpt>
      <trkpt lat="44.81018" lon="4.18978">
        <ele>1233.4</ele>
        <time>2022-06-09T13:40:28Z</time>
      </trkpt>
      <trkpt lat="44.81017" lon="4.18978">
        <ele>1233.4</ele>
        <time>2022-06-09T13:40:29Z</time>
      </trkpt>
      <trkpt lat="44.81017" lon="4.18978">
        <ele>1233.4</ele>
        <time>2022-06-09T13:40:30Z</time>
      </trkpt>
      <trkpt lat="44.81017" lon="4.18979">
        <ele>1233.4</ele>
        <time>2022-06-09T13:40:31Z</time>
      </trkpt>
      <trkpt lat="44.81017" lon="4.18979">
        <ele>1233.4</ele>
        <time>2022-06-09T13:40:32Z</time>
      </trkpt>
      <trkpt lat="44.81017" lon="4.1898">
        <ele>1233.4</ele>
        <time>2022-06-09T13:40:33Z</time>
      </trkpt>
      <trkpt lat="44.81017" lon="4.1898">
        <ele>1233.4</ele>
        <time>2022-06-09T13:40:34Z</time>
      </trkpt>
      <trkpt lat="44.81017" lon="4.18981">
        <ele>1233.4</ele>
        <time>2022-06-09T13:40:35Z</time>
      </trkpt>
      <trkpt lat="44.81016" lon="4.18981">
        <ele>1233.4</ele>
        <time>2022-06-09T13:40:36Z</time>
      </trkpt>
      <trkpt lat="44.81016" lon="4.18981">
        <ele>1233.3</ele>
        <time>2022-06-09T13:40:37Z</time>
      </trkpt>
      <trkpt lat="44.81016" lon="4.18982">
        <ele>1233.3</ele>
        <time>2022-06-09T13:40:38Z</time>
      </trkpt>
      <trkpt lat="44.81016" lon="4.18982">
        <ele>1233.3</ele>
        <time>2022-06-09T13:40:39Z</time>
      </trkpt>
      <trkpt lat="44.81016" lon="4.18983">
        <ele>1233.3</ele>
        <time>2022-06-09T13:40:40Z</time>
      </trkpt>
      <trkpt lat="44.81016" lon="4.18983">
        <ele>1233.3</ele>
        <time>2022-06-09T13:40:41Z</time>
      </trkpt>
      <trkpt lat="44.81015" lon="4.18984">
        <ele>1233.3</ele>
        <time>2022-06-09T13:40:42Z</time>
      </trkpt>
      <trkpt lat="44.81015" lon="4.18984">
        <ele>1233.3</ele>
        <time>2022-06-09T13:40:43Z</time>
      </trkpt>
      <trkpt lat="44.81015" lon="4.18985">
        <ele>1233.3</ele>
        <time>2022-06-09T13:40:44Z</time>
      </trkpt>
      <trkpt lat="44.81015" lon="4.18985">
        <ele>1233.3</ele>
        <time>2022-06-09T13:53:40Z</time>
      </trkpt>
      <trkpt lat="44.81015" lon="4.18985">
        <ele>1233.3</ele>
        <time>2022-06-09T13:53:41Z</time>
      </trkpt>
      <trkpt lat="44.81015" lon="4.18986">
        <ele>1233.3</ele>
        <time>2022-06-09T13:53:42Z</time>
      </trkpt>
      <trkpt lat="44.81012" lon="4.18987">
        <ele>1233.2</ele>
        <time>2022-06-09T13:53:43Z</time>
      </trkpt>
      <trkpt lat="44.81011" lon="4.18987">
        <ele>1233.2</ele>
        <time>2022-06-09T13:53:44Z</time>
      </trkpt>
      <trkpt lat="44.81009" lon="4.18987">
        <ele>1233.1</ele>
        <time>2022-06-09T13:53:45Z</time>
      </trkpt>
      <trkpt lat="44.81007" lon="4.18986">
        <ele>1233.1</ele>
        <time>2022-06-09T13:53:46Z</time>
      </trkpt>
      <trkpt lat="44.81003" lon="4.18981">
        <ele>1233</ele>
        <time>2022-06-09T13:53:47Z</time>
      </trkpt>
      <trkpt lat="44.81001" lon="4.18975">
        <ele>1233.1</ele>
        <time>2022-06-09T13:53:49Z</time>
      </trkpt>
      <trkpt lat="44.81001" lon="4.18971">
        <ele>1233.1</ele>
        <time>2022-06-09T13:53:50Z</time>
      </trkpt>
      <trkpt lat="44.81001" lon="4.18966">
        <ele>1233.2</ele>
        <time>2022-06-09T13:53:51Z</time>
      </trkpt>
      <trkpt lat="44.81002" lon="4.18965">
        <ele>1233.2</ele>
        <time>2022-06-09T13:53:52Z</time>
      </trkpt>
      <trkpt lat="44.81004" lon="4.18962">
        <ele>1233.2</ele>
        <time>2022-06-09T13:53:53Z</time>
      </trkpt>
      <trkpt lat="44.81005" lon="4.18961">
        <ele>1233.2</ele>
        <time>2022-06-09T13:53:54Z</time>
      </trkpt>
      <trkpt lat="44.81007" lon="4.18958">
        <ele>1233.3</ele>
        <time>2022-06-09T13:53:55Z</time>
      </trkpt>
      <trkpt lat="44.81008" lon="4.18958">
        <ele>1233.3</ele>
        <time>2022-06-09T13:53:56Z</time>
      </trkpt>
      <trkpt lat="44.81009" lon="4.18956">
        <ele>1233.3</ele>
        <time>2022-06-09T13:53:57Z</time>
      </trkpt>
      <trkpt lat="44.8101" lon="4.18954">
        <ele>1233.3</ele>
        <time>2022-06-09T13:53:58Z</time>
      </trkpt>
      <trkpt lat="44.81011" lon="4.18949">
        <ele>1233.4</ele>
        <time>2022-06-09T13:53:59Z</time>
      </trkpt>
      <trkpt lat="44.81012" lon="4.18947">
        <ele>1233.5</ele>
        <time>2022-06-09T13:54:00Z</time>
      </trkpt>
      <trkpt lat="44.81015" lon="4.18942">
        <ele>1233.6</ele>
        <time>2022-06-09T13:54:02Z</time>
      </trkpt>
      <trkpt lat="44.81017" lon="4.18941">
        <ele>1233.6</ele>
        <time>2022-06-09T13:54:03Z</time>
      </trkpt>
      <trkpt lat="44.81018" lon="4.18939">
        <ele>1233.7</ele>
        <time>2022-06-09T13:54:04Z</time>
      </trkpt>
      <trkpt lat="44.8102" lon="4.18938">
        <ele>1233.8</ele>
        <time>2022-06-09T13:54:06Z</time>
      </trkpt>
      <trkpt lat="44.81021" lon="4.18936">
        <ele>1233.8</ele>
        <time>2022-06-09T13:54:07Z</time>
      </trkpt>
      <trkpt lat="44.81022" lon="4.18935">
        <ele>1233.9</ele>
        <time>2022-06-09T13:54:08Z</time>
      </trkpt>
      <trkpt lat="44.81023" lon="4.18934">
        <ele>1233.9</ele>
        <time>2022-06-09T13:54:09Z</time>
      </trkpt>
      <trkpt lat="44.81023" lon="4.18933">
        <ele>1233.9</ele>
        <time>2022-06-09T13:54:10Z</time>
      </trkpt>
      <trkpt lat="44.81022" lon="4.18933">
        <ele>1234</ele>
        <time>2022-06-09T13:54:11Z</time>
      </trkpt>
      <trkpt lat="44.81022" lon="4.18932">
        <ele>1234</ele>
        <time>2022-06-09T13:54:12Z</time>
      </trkpt>
      <trkpt lat="44.81022" lon="4.18931">
        <ele>1234</ele>
        <time>2022-06-09T13:54:13Z</time>
      </trkpt>
      <trkpt lat="44.81022" lon="4.18931">
        <ele>1234</ele>
        <time>2022-06-09T13:54:14Z</time>
      </trkpt>
      <trkpt lat="44.81022" lon="4.1893">
        <ele>1234</ele>
        <time>2022-06-09T13:54:15Z</time>
      </trkpt>
      <trkpt lat="44.81022" lon="4.1893">
        <ele>1234</ele>
        <time>2022-06-09T13:54:16Z</time>
      </trkpt>
      <trkpt lat="44.81022" lon="4.18929">
        <ele>1234.1</ele>
        <time>2022-06-09T13:54:17Z</time>
      </trkpt>
      <trkpt lat="44.81022" lon="4.18929">
        <ele>1234.1</ele>
        <time>2022-06-09T13:54:18Z</time>
      </trkpt>
      <trkpt lat="44.81022" lon="4.18928">
        <ele>1234.1</ele>
        <time>2022-06-09T13:54:47Z</time>
      </trkpt>
      <trkpt lat="44.81022" lon="4.18927">
        <ele>1234.1</ele>
        <time>2022-06-09T13:54:48Z</time>
      </trkpt>
      <trkpt lat="44.81022" lon="4.18927">
        <ele>1234.1</ele>
        <time>2022-06-09T13:54:49Z</time>
      </trkpt>
      <trkpt lat="44.81022" lon="4.18926">
        <ele>1234.1</ele>
        <time>2022-06-09T13:54:50Z</time>
      </trkpt>
      <trkpt lat="44.81025" lon="4.18924">
        <ele>1234.3</ele>
        <time>2022-06-09T13:54:51Z</time>
      </trkpt>
      <trkpt lat="44.81026" lon="4.18923">
        <ele>1234.4</ele>
        <time>2022-06-09T13:54:52Z</time>
      </trkpt>
      <trkpt lat="44.81029" lon="4.18922">
        <ele>1234.5</ele>
        <time>2022-06-09T13:54:53Z</time>
      </trkpt>
      <trkpt lat="44.81029" lon="4.18921">
        <ele>1234.5</ele>
        <time>2022-06-09T13:54:54Z</time>
      </trkpt>
      <trkpt lat="44.81032" lon="4.1892">
        <ele>1234.7</ele>
        <time>2022-06-09T13:54:55Z</time>
      </trkpt>
      <trkpt lat="44.81033" lon="4.18919">
        <ele>1234.8</ele>
        <time>2022-06-09T13:54:56Z</time>
      </trkpt>
      <trkpt lat="44.81037" lon="4.18918">
        <ele>1235</ele>
        <time>2022-06-09T13:54:57Z</time>
      </trkpt>
      <trkpt lat="44.81038" lon="4.18917">
        <ele>1235</ele>
        <time>2022-06-09T13:54:58Z</time>
      </trkpt>
      <trkpt lat="44.81041" lon="4.18916">
        <ele>1235.3</ele>
        <time>2022-06-09T13:54:59Z</time>
      </trkpt>
      <trkpt lat="44.81043" lon="4.18915">
        <ele>1235.3</ele>
        <time>2022-06-09T13:55:00Z</time>
      </trkpt>
      <trkpt lat="44.81045" lon="4.18915">
        <ele>1235.5</ele>
        <time>2022-06-09T13:55:01Z</time>
      </trkpt>
      <trkpt lat="44.81047" lon="4.18914">
        <ele>1235.6</ele>
        <time>2022-06-09T13:55:02Z</time>
      </trkpt>
      <trkpt lat="44.8105" lon="4.18913">
        <ele>1235.9</ele>
        <time>2022-06-09T13:55:03Z</time>
      </trkpt>
      <trkpt lat="44.81051" lon="4.18912">
        <ele>1235.9</ele>
        <time>2022-06-09T13:55:04Z</time>
      </trkpt>
      <trkpt lat="44.81053" lon="4.18911">
        <ele>1236.1</ele>
        <time>2022-06-09T13:55:05Z</time>
      </trkpt>
      <trkpt lat="44.81054" lon="4.1891">
        <ele>1236.2</ele>
        <time>2022-06-09T13:55:06Z</time>
      </trkpt>
      <trkpt lat="44.81057" lon="4.18908">
        <ele>1236.4</ele>
        <time>2022-06-09T13:55:07Z</time>
      </trkpt>
      <trkpt lat="44.81059" lon="4.18907">
        <ele>1236.7</ele>
        <time>2022-06-09T13:55:09Z</time>
      </trkpt>
      <trkpt lat="44.81061" lon="4.18906">
        <ele>1236.8</ele>
        <time>2022-06-09T13:55:10Z</time>
      </trkpt>
      <trkpt lat="44.81063" lon="4.18906">
        <ele>1236.9</ele>
        <time>2022-06-09T13:55:11Z</time>
      </trkpt>
      <trkpt lat="44.81064" lon="4.18905">
        <ele>1237.1</ele>
        <time>2022-06-09T13:55:12Z</time>
      </trkpt>
      <trkpt lat="44.81065" lon="4.18904">
        <ele>1237.2</ele>
        <time>2022-06-09T13:55:13Z</time>
      </trkpt>
      <trkpt lat="44.81066" lon="4.18903">
        <ele>1237.3</ele>
        <time>2022-06-09T13:55:14Z</time>
      </trkpt>
      <trkpt lat="44.81068" lon="4.18901">
        <ele>1237.5</ele>
        <time>2022-06-09T13:55:15Z</time>
      </trkpt>
      <trkpt lat="44.81069" lon="4.189">
        <ele>1237.6</ele>
        <time>2022-06-09T13:55:16Z</time>
      </trkpt>
      <trkpt lat="44.8107" lon="4.189">
        <ele>1237.7</ele>
        <time>2022-06-09T13:55:17Z</time>
      </trkpt>
      <trkpt lat="44.81072" lon="4.18899">
        <ele>1237.9</ele>
        <time>2022-06-09T13:55:18Z</time>
      </trkpt>
      <trkpt lat="44.81074" lon="4.18899">
        <ele>1238</ele>
        <time>2022-06-09T13:55:19Z</time>
      </trkpt>
      <trkpt lat="44.81076" lon="4.18898">
        <ele>1238.3</ele>
        <time>2022-06-09T13:55:20Z</time>
      </trkpt>
      <trkpt lat="44.81077" lon="4.18898">
        <ele>1238.4</ele>
        <time>2022-06-09T13:55:21Z</time>
      </trkpt>
      <trkpt lat="44.81079" lon="4.18897">
        <ele>1238.5</ele>
        <time>2022-06-09T13:55:22Z</time>
      </trkpt>
      <trkpt lat="44.8108" lon="4.18897">
        <ele>1238.6</ele>
        <time>2022-06-09T13:55:23Z</time>
      </trkpt>
      <trkpt lat="44.81081" lon="4.18897">
        <ele>1238.7</ele>
        <time>2022-06-09T13:55:24Z</time>
      </trkpt>
      <trkpt lat="44.81083" lon="4.18895">
        <ele>1238.9</ele>
        <time>2022-06-09T13:55:25Z</time>
      </trkpt>
      <trkpt lat="44.81084" lon="4.18894">
        <ele>1239</ele>
        <time>2022-06-09T13:55:26Z</time>
      </trkpt>
      <trkpt lat="44.81085" lon="4.18893">
        <ele>1239.2</ele>
        <time>2022-06-09T13:55:27Z</time>
      </trkpt>
      <trkpt lat="44.81087" lon="4.18891">
        <ele>1239.4</ele>
        <time>2022-06-09T13:55:28Z</time>
      </trkpt>
      <trkpt lat="44.81088" lon="4.1889">
        <ele>1239.4</ele>
        <time>2022-06-09T13:55:29Z</time>
      </trkpt>
      <trkpt lat="44.81088" lon="4.18889">
        <ele>1239.5</ele>
        <time>2022-06-09T13:55:30Z</time>
      </trkpt>
      <trkpt lat="44.81089" lon="4.18888">
        <ele>1239.6</ele>
        <time>2022-06-09T13:55:31Z</time>
      </trkpt>
      <trkpt lat="44.8109" lon="4.18889">
        <ele>1239.7</ele>
        <time>2022-06-09T13:55:32Z</time>
      </trkpt>
      <trkpt lat="44.81092" lon="4.18887">
        <ele>1239.9</ele>
        <time>2022-06-09T13:55:33Z</time>
      </trkpt>
      <trkpt lat="44.81093" lon="4.18886">
        <ele>1240</ele>
        <time>2022-06-09T13:55:34Z</time>
      </trkpt>
      <trkpt lat="44.81095" lon="4.18885">
        <ele>1240.2</ele>
        <time>2022-06-09T13:55:35Z</time>
      </trkpt>
      <trkpt lat="44.81097" lon="4.18883">
        <ele>1240.4</ele>
        <time>2022-06-09T13:55:36Z</time>
      </trkpt>
      <trkpt lat="44.81098" lon="4.18883">
        <ele>1240.5</ele>
        <time>2022-06-09T13:55:37Z</time>
      </trkpt>
      <trkpt lat="44.81099" lon="4.18882">
        <ele>1240.6</ele>
        <time>2022-06-09T13:55:38Z</time>
      </trkpt>
      <trkpt lat="44.811" lon="4.18881">
        <ele>1240.8</ele>
        <time>2022-06-09T13:55:39Z</time>
      </trkpt>
      <trkpt lat="44.81101" lon="4.18879">
        <ele>1240.9</ele>
        <time>2022-06-09T13:55:40Z</time>
      </trkpt>
      <trkpt lat="44.81102" lon="4.18878">
        <ele>1241</ele>
        <time>2022-06-09T13:55:41Z</time>
      </trkpt>
      <trkpt lat="44.81103" lon="4.18876">
        <ele>1241.2</ele>
        <time>2022-06-09T13:55:42Z</time>
      </trkpt>
      <trkpt lat="44.81104" lon="4.18875">
        <ele>1241.3</ele>
        <time>2022-06-09T13:55:43Z</time>
      </trkpt>
      <trkpt lat="44.81105" lon="4.18873">
        <ele>1241.5</ele>
        <time>2022-06-09T13:55:44Z</time>
      </trkpt>
      <trkpt lat="44.81106" lon="4.18872">
        <ele>1241.6</ele>
        <time>2022-06-09T13:55:45Z</time>
      </trkpt>
      <trkpt lat="44.81107" lon="4.1887">
        <ele>1241.7</ele>
        <time>2022-06-09T13:55:46Z</time>
      </trkpt>
      <trkpt lat="44.81107" lon="4.1887">
        <ele>1241.8</ele>
        <time>2022-06-09T13:55:47Z</time>
      </trkpt>
      <trkpt lat="44.81108" lon="4.18867">
        <ele>1242</ele>
        <time>2022-06-09T13:55:48Z</time>
      </trkpt>
      <trkpt lat="44.81109" lon="4.18866">
        <ele>1242.1</ele>
        <time>2022-06-09T13:55:49Z</time>
      </trkpt>
      <trkpt lat="44.8111" lon="4.18862">
        <ele>1242.4</ele>
        <time>2022-06-09T13:55:51Z</time>
      </trkpt>
      <trkpt lat="44.8111" lon="4.1886">
        <ele>1242.5</ele>
        <time>2022-06-09T13:55:52Z</time>
      </trkpt>
      <trkpt lat="44.81111" lon="4.18859">
        <ele>1242.7</ele>
        <time>2022-06-09T13:55:53Z</time>
      </trkpt>
      <trkpt lat="44.81111" lon="4.18857">
        <ele>1242.8</ele>
        <time>2022-06-09T13:55:54Z</time>
      </trkpt>
      <trkpt lat="44.81113" lon="4.18853">
        <ele>1243.1</ele>
        <time>2022-06-09T13:55:56Z</time>
      </trkpt>
      <trkpt lat="44.81113" lon="4.18852">
        <ele>1243.2</ele>
        <time>2022-06-09T13:55:57Z</time>
      </trkpt>
      <trkpt lat="44.81114" lon="4.18851">
        <ele>1243.4</ele>
        <time>2022-06-09T13:55:58Z</time>
      </trkpt>
      <trkpt lat="44.81114" lon="4.18849">
        <ele>1243.5</ele>
        <time>2022-06-09T13:55:59Z</time>
      </trkpt>
      <trkpt lat="44.81115" lon="4.18846">
        <ele>1243.7</ele>
        <time>2022-06-09T13:56:00Z</time>
      </trkpt>
      <trkpt lat="44.81115" lon="4.18845">
        <ele>1243.8</ele>
        <time>2022-06-09T13:56:01Z</time>
      </trkpt>
      <trkpt lat="44.81116" lon="4.18844">
        <ele>1243.9</ele>
        <time>2022-06-09T13:56:02Z</time>
      </trkpt>
      <trkpt lat="44.81117" lon="4.18842">
        <ele>1244.1</ele>
        <time>2022-06-09T13:56:03Z</time>
      </trkpt>
      <trkpt lat="44.81118" lon="4.18841">
        <ele>1244.2</ele>
        <time>2022-06-09T13:56:04Z</time>
      </trkpt>
      <trkpt lat="44.81118" lon="4.1884">
        <ele>1244.3</ele>
        <time>2022-06-09T13:56:05Z</time>
      </trkpt>
      <trkpt lat="44.81119" lon="4.18839">
        <ele>1244.5</ele>
        <time>2022-06-09T13:56:06Z</time>
      </trkpt>
      <trkpt lat="44.81119" lon="4.18836">
        <ele>1244.6</ele>
        <time>2022-06-09T13:56:07Z</time>
      </trkpt>
      <trkpt lat="44.81119" lon="4.18832">
        <ele>1244.9</ele>
        <time>2022-06-09T13:56:09Z</time>
      </trkpt>
      <trkpt lat="44.81119" lon="4.1883">
        <ele>1245.1</ele>
        <time>2022-06-09T13:56:10Z</time>
      </trkpt>
      <trkpt lat="44.81119" lon="4.18828">
        <ele>1245.3</ele>
        <time>2022-06-09T13:56:11Z</time>
      </trkpt>
      <trkpt lat="44.81119" lon="4.18825">
        <ele>1245.5</ele>
        <time>2022-06-09T13:56:12Z</time>
      </trkpt>
      <trkpt lat="44.81119" lon="4.18824">
        <ele>1245.6</ele>
        <time>2022-06-09T13:56:13Z</time>
      </trkpt>
      <trkpt lat="44.81119" lon="4.18823">
        <ele>1245.7</ele>
        <time>2022-06-09T13:56:14Z</time>
      </trkpt>
      <trkpt lat="44.81119" lon="4.18821">
        <ele>1245.8</ele>
        <time>2022-06-09T13:56:15Z</time>
      </trkpt>
      <trkpt lat="44.81119" lon="4.1882">
        <ele>1245.9</ele>
        <time>2022-06-09T13:56:16Z</time>
      </trkpt>
      <trkpt lat="44.81119" lon="4.18818">
        <ele>1246</ele>
        <time>2022-06-09T13:56:17Z</time>
      </trkpt>
      <trkpt lat="44.8112" lon="4.18815">
        <ele>1246.3</ele>
        <time>2022-06-09T13:56:18Z</time>
      </trkpt>
      <trkpt lat="44.8112" lon="4.18814">
        <ele>1246.3</ele>
        <time>2022-06-09T13:56:19Z</time>
      </trkpt>
      <trkpt lat="44.8112" lon="4.18813">
        <ele>1246.4</ele>
        <time>2022-06-09T13:56:20Z</time>
      </trkpt>
      <trkpt lat="44.8112" lon="4.18811">
        <ele>1246.6</ele>
        <time>2022-06-09T13:56:21Z</time>
      </trkpt>
      <trkpt lat="44.81121" lon="4.18809">
        <ele>1246.7</ele>
        <time>2022-06-09T13:56:22Z</time>
      </trkpt>
      <trkpt lat="44.81121" lon="4.18806">
        <ele>1247</ele>
        <time>2022-06-09T13:56:23Z</time>
      </trkpt>
      <trkpt lat="44.81121" lon="4.18805">
        <ele>1247.1</ele>
        <time>2022-06-09T13:56:24Z</time>
      </trkpt>
      <trkpt lat="44.81122" lon="4.18804">
        <ele>1247.2</ele>
        <time>2022-06-09T13:56:25Z</time>
      </trkpt>
      <trkpt lat="44.81122" lon="4.18801">
        <ele>1247.4</ele>
        <time>2022-06-09T13:56:26Z</time>
      </trkpt>
      <trkpt lat="44.81122" lon="4.188">
        <ele>1247.5</ele>
        <time>2022-06-09T13:56:27Z</time>
      </trkpt>
      <trkpt lat="44.81122" lon="4.18799">
        <ele>1247.6</ele>
        <time>2022-06-09T13:56:28Z</time>
      </trkpt>
      <trkpt lat="44.81122" lon="4.18797">
        <ele>1247.7</ele>
        <time>2022-06-09T13:56:29Z</time>
      </trkpt>
      <trkpt lat="44.81123" lon="4.18796">
        <ele>1247.9</ele>
        <time>2022-06-09T13:56:30Z</time>
      </trkpt>
      <trkpt lat="44.81124" lon="4.18794">
        <ele>1248</ele>
        <time>2022-06-09T13:56:31Z</time>
      </trkpt>
      <trkpt lat="44.81125" lon="4.18793">
        <ele>1248.2</ele>
        <time>2022-06-09T13:56:32Z</time>
      </trkpt>
      <trkpt lat="44.81126" lon="4.18792">
        <ele>1248.4</ele>
        <time>2022-06-09T13:56:33Z</time>
      </trkpt>
      <trkpt lat="44.81127" lon="4.18791">
        <ele>1248.5</ele>
        <time>2022-06-09T13:56:34Z</time>
      </trkpt>
      <trkpt lat="44.81128" lon="4.18789">
        <ele>1248.7</ele>
        <time>2022-06-09T13:56:35Z</time>
      </trkpt>
      <trkpt lat="44.81129" lon="4.18787">
        <ele>1248.9</ele>
        <time>2022-06-09T13:56:36Z</time>
      </trkpt>
      <trkpt lat="44.81129" lon="4.18786">
        <ele>1249</ele>
        <time>2022-06-09T13:56:37Z</time>
      </trkpt>
      <trkpt lat="44.8113" lon="4.18784">
        <ele>1249.1</ele>
        <time>2022-06-09T13:56:38Z</time>
      </trkpt>
      <trkpt lat="44.8113" lon="4.18783">
        <ele>1249.3</ele>
        <time>2022-06-09T13:56:39Z</time>
      </trkpt>
      <trkpt lat="44.81131" lon="4.18781">
        <ele>1249.4</ele>
        <time>2022-06-09T13:56:40Z</time>
      </trkpt>
      <trkpt lat="44.81131" lon="4.18778">
        <ele>1249.7</ele>
        <time>2022-06-09T13:56:41Z</time>
      </trkpt>
      <trkpt lat="44.81132" lon="4.18777">
        <ele>1249.8</ele>
        <time>2022-06-09T13:56:42Z</time>
      </trkpt>
      <trkpt lat="44.81132" lon="4.18776">
        <ele>1249.9</ele>
        <time>2022-06-09T13:56:43Z</time>
      </trkpt>
      <trkpt lat="44.81133" lon="4.18774">
        <ele>1250.1</ele>
        <time>2022-06-09T13:56:44Z</time>
      </trkpt>
      <trkpt lat="44.81134" lon="4.18773">
        <ele>1250.2</ele>
        <time>2022-06-09T13:56:45Z</time>
      </trkpt>
      <trkpt lat="44.81134" lon="4.18772">
        <ele>1250.3</ele>
        <time>2022-06-09T13:56:46Z</time>
      </trkpt>
      <trkpt lat="44.81135" lon="4.18771">
        <ele>1250.4</ele>
        <time>2022-06-09T13:56:47Z</time>
      </trkpt>
      <trkpt lat="44.81136" lon="4.18769">
        <ele>1250.6</ele>
        <time>2022-06-09T13:56:48Z</time>
      </trkpt>
      <trkpt lat="44.81136" lon="4.18768">
        <ele>1250.7</ele>
        <time>2022-06-09T13:56:49Z</time>
      </trkpt>
      <trkpt lat="44.81137" lon="4.18766">
        <ele>1250.9</ele>
        <time>2022-06-09T13:56:50Z</time>
      </trkpt>
      <trkpt lat="44.81138" lon="4.18765">
        <ele>1251</ele>
        <time>2022-06-09T13:56:51Z</time>
      </trkpt>
      <trkpt lat="44.81138" lon="4.18764">
        <ele>1251.1</ele>
        <time>2022-06-09T13:56:52Z</time>
      </trkpt>
      <trkpt lat="44.81139" lon="4.18763">
        <ele>1251.2</ele>
        <time>2022-06-09T13:56:53Z</time>
      </trkpt>
      <trkpt lat="44.81139" lon="4.18761">
        <ele>1251.4</ele>
        <time>2022-06-09T13:56:54Z</time>
      </trkpt>
      <trkpt lat="44.8114" lon="4.18759">
        <ele>1251.6</ele>
        <time>2022-06-09T13:56:55Z</time>
      </trkpt>
      <trkpt lat="44.81141" lon="4.18758">
        <ele>1251.7</ele>
        <time>2022-06-09T13:56:56Z</time>
      </trkpt>
      <trkpt lat="44.81142" lon="4.18756">
        <ele>1251.9</ele>
        <time>2022-06-09T13:56:57Z</time>
      </trkpt>
      <trkpt lat="44.81142" lon="4.18755">
        <ele>1252</ele>
        <time>2022-06-09T13:56:58Z</time>
      </trkpt>
      <trkpt lat="44.81143" lon="4.18754">
        <ele>1252.1</ele>
        <time>2022-06-09T13:56:59Z</time>
      </trkpt>
      <trkpt lat="44.81144" lon="4.18754">
        <ele>1252.2</ele>
        <time>2022-06-09T13:57:00Z</time>
      </trkpt>
      <trkpt lat="44.81145" lon="4.18753">
        <ele>1252.4</ele>
        <time>2022-06-09T13:57:01Z</time>
      </trkpt>
      <trkpt lat="44.81146" lon="4.18752">
        <ele>1252.5</ele>
        <time>2022-06-09T13:57:02Z</time>
      </trkpt>
      <trkpt lat="44.81147" lon="4.18751">
        <ele>1252.7</ele>
        <time>2022-06-09T13:57:03Z</time>
      </trkpt>
      <trkpt lat="44.8115" lon="4.18749">
        <ele>1253</ele>
        <time>2022-06-09T13:57:04Z</time>
      </trkpt>
      <trkpt lat="44.81151" lon="4.18748">
        <ele>1253.3</ele>
        <time>2022-06-09T13:57:06Z</time>
      </trkpt>
      <trkpt lat="44.81152" lon="4.18748">
        <ele>1253.3</ele>
        <time>2022-06-09T13:57:07Z</time>
      </trkpt>
      <trkpt lat="44.81154" lon="4.18747">
        <ele>1253.5</ele>
        <time>2022-06-09T13:57:08Z</time>
      </trkpt>
      <trkpt lat="44.81155" lon="4.18746">
        <ele>1253.6</ele>
        <time>2022-06-09T13:57:09Z</time>
      </trkpt>
      <trkpt lat="44.81156" lon="4.18746">
        <ele>1253.7</ele>
        <time>2022-06-09T13:57:10Z</time>
      </trkpt>
      <trkpt lat="44.81157" lon="4.18746">
        <ele>1253.8</ele>
        <time>2022-06-09T13:57:11Z</time>
      </trkpt>
      <trkpt lat="44.81158" lon="4.18746">
        <ele>1253.9</ele>
        <time>2022-06-09T13:57:12Z</time>
      </trkpt>
      <trkpt lat="44.81159" lon="4.18747">
        <ele>1254.1</ele>
        <time>2022-06-09T13:57:13Z</time>
      </trkpt>
      <trkpt lat="44.8116" lon="4.18747">
        <ele>1254.2</ele>
        <time>2022-06-09T13:57:14Z</time>
      </trkpt>
      <trkpt lat="44.81161" lon="4.18747">
        <ele>1254.3</ele>
        <time>2022-06-09T13:57:15Z</time>
      </trkpt>
      <trkpt lat="44.81162" lon="4.18748">
        <ele>1254.4</ele>
        <time>2022-06-09T13:57:16Z</time>
      </trkpt>
      <trkpt lat="44.81164" lon="4.1875">
        <ele>1254.6</ele>
        <time>2022-06-09T13:57:17Z</time>
      </trkpt>
      <trkpt lat="44.81165" lon="4.1875">
        <ele>1254.7</ele>
        <time>2022-06-09T13:57:18Z</time>
      </trkpt>
      <trkpt lat="44.81165" lon="4.18751">
        <ele>1254.8</ele>
        <time>2022-06-09T13:57:19Z</time>
      </trkpt>
      <trkpt lat="44.81166" lon="4.18751">
        <ele>1254.9</ele>
        <time>2022-06-09T13:57:20Z</time>
      </trkpt>
      <trkpt lat="44.81168" lon="4.18753">
        <ele>1255.1</ele>
        <time>2022-06-09T13:57:22Z</time>
      </trkpt>
      <trkpt lat="44.81169" lon="4.18753">
        <ele>1255.2</ele>
        <time>2022-06-09T13:57:23Z</time>
      </trkpt>
      <trkpt lat="44.8117" lon="4.18753">
        <ele>1255.3</ele>
        <time>2022-06-09T13:57:24Z</time>
      </trkpt>
      <trkpt lat="44.81172" lon="4.18753">
        <ele>1255.5</ele>
        <time>2022-06-09T13:57:25Z</time>
      </trkpt>
      <trkpt lat="44.81174" lon="4.18753">
        <ele>1255.6</ele>
        <time>2022-06-09T13:57:27Z</time>
      </trkpt>
      <trkpt lat="44.81175" lon="4.18753">
        <ele>1255.7</ele>
        <time>2022-06-09T13:57:28Z</time>
      </trkpt>
      <trkpt lat="44.81177" lon="4.18753">
        <ele>1255.8</ele>
        <time>2022-06-09T13:57:30Z</time>
      </trkpt>
      <trkpt lat="44.81178" lon="4.18753">
        <ele>1255.9</ele>
        <time>2022-06-09T13:57:31Z</time>
      </trkpt>
      <trkpt lat="44.81179" lon="4.18753">
        <ele>1256</ele>
        <time>2022-06-09T13:57:32Z</time>
      </trkpt>
      <trkpt lat="44.8118" lon="4.18753">
        <ele>1256.1</ele>
        <time>2022-06-09T13:57:33Z</time>
      </trkpt>
      <trkpt lat="44.81182" lon="4.18754">
        <ele>1256.3</ele>
        <time>2022-06-09T13:57:35Z</time>
      </trkpt>
      <trkpt lat="44.81183" lon="4.18754">
        <ele>1256.4</ele>
        <time>2022-06-09T13:57:36Z</time>
      </trkpt>
      <trkpt lat="44.81184" lon="4.18754">
        <ele>1256.5</ele>
        <time>2022-06-09T13:57:37Z</time>
      </trkpt>
      <trkpt lat="44.81186" lon="4.18754">
        <ele>1256.5</ele>
        <time>2022-06-09T13:57:38Z</time>
      </trkpt>
      <trkpt lat="44.81187" lon="4.18755">
        <ele>1256.7</ele>
        <time>2022-06-09T13:57:39Z</time>
      </trkpt>
      <trkpt lat="44.81188" lon="4.18756">
        <ele>1256.7</ele>
        <time>2022-06-09T13:57:40Z</time>
      </trkpt>
      <trkpt lat="44.8119" lon="4.18756">
        <ele>1256.9</ele>
        <time>2022-06-09T13:57:41Z</time>
      </trkpt>
      <trkpt lat="44.81191" lon="4.18757">
        <ele>1257</ele>
        <time>2022-06-09T13:57:42Z</time>
      </trkpt>
      <trkpt lat="44.81193" lon="4.18757">
        <ele>1257.1</ele>
        <time>2022-06-09T13:57:43Z</time>
      </trkpt>
      <trkpt lat="44.81194" lon="4.18758">
        <ele>1257.2</ele>
        <time>2022-06-09T13:57:44Z</time>
      </trkpt>
      <trkpt lat="44.81195" lon="4.18758">
        <ele>1257.2</ele>
        <time>2022-06-09T13:57:45Z</time>
      </trkpt>
      <trkpt lat="44.81196" lon="4.18758">
        <ele>1257.3</ele>
        <time>2022-06-09T13:57:46Z</time>
      </trkpt>
      <trkpt lat="44.81198" lon="4.18758">
        <ele>1257.4</ele>
        <time>2022-06-09T13:57:47Z</time>
      </trkpt>
      <trkpt lat="44.812" lon="4.18759">
        <ele>1257.6</ele>
        <time>2022-06-09T13:57:48Z</time>
      </trkpt>
      <trkpt lat="44.81202" lon="4.1876">
        <ele>1257.7</ele>
        <time>2022-06-09T13:57:50Z</time>
      </trkpt>
      <trkpt lat="44.81203" lon="4.18761">
        <ele>1257.8</ele>
        <time>2022-06-09T13:57:51Z</time>
      </trkpt>
      <trkpt lat="44.81204" lon="4.18762">
        <ele>1257.9</ele>
        <time>2022-06-09T13:57:52Z</time>
      </trkpt>
      <trkpt lat="44.81205" lon="4.18763">
        <ele>1257.9</ele>
        <time>2022-06-09T13:57:53Z</time>
      </trkpt>
      <trkpt lat="44.81206" lon="4.18763">
        <ele>1258</ele>
        <time>2022-06-09T13:57:54Z</time>
      </trkpt>
      <trkpt lat="44.81207" lon="4.18763">
        <ele>1258.1</ele>
        <time>2022-06-09T13:57:55Z</time>
      </trkpt>
      <trkpt lat="44.8121" lon="4.18764">
        <ele>1258.3</ele>
        <time>2022-06-09T13:57:56Z</time>
      </trkpt>
      <trkpt lat="44.81211" lon="4.18764">
        <ele>1258.3</ele>
        <time>2022-06-09T13:57:57Z</time>
      </trkpt>
      <trkpt lat="44.81211" lon="4.18764">
        <ele>1258.4</ele>
        <time>2022-06-09T13:57:58Z</time>
      </trkpt>
      <trkpt lat="44.81213" lon="4.18764">
        <ele>1258.5</ele>
        <time>2022-06-09T13:57:59Z</time>
      </trkpt>
      <trkpt lat="44.81214" lon="4.18765">
        <ele>1258.6</ele>
        <time>2022-06-09T13:58:00Z</time>
      </trkpt>
      <trkpt lat="44.81216" lon="4.18766">
        <ele>1258.7</ele>
        <time>2022-06-09T13:58:01Z</time>
      </trkpt>
      <trkpt lat="44.81218" lon="4.18766">
        <ele>1258.8</ele>
        <time>2022-06-09T13:58:02Z</time>
      </trkpt>
      <trkpt lat="44.81221" lon="4.18766">
        <ele>1259</ele>
        <time>2022-06-09T13:58:03Z</time>
      </trkpt>
      <trkpt lat="44.81223" lon="4.18766">
        <ele>1259.1</ele>
        <time>2022-06-09T13:58:05Z</time>
      </trkpt>
      <trkpt lat="44.81224" lon="4.18766">
        <ele>1259.2</ele>
        <time>2022-06-09T13:58:06Z</time>
      </trkpt>
      <trkpt lat="44.81228" lon="4.18767">
        <ele>1259.5</ele>
        <time>2022-06-09T13:58:08Z</time>
      </trkpt>
      <trkpt lat="44.81229" lon="4.18767">
        <ele>1259.6</ele>
        <time>2022-06-09T13:58:09Z</time>
      </trkpt>
      <trkpt lat="44.81231" lon="4.18768">
        <ele>1259.7</ele>
        <time>2022-06-09T13:58:10Z</time>
      </trkpt>
      <trkpt lat="44.81233" lon="4.18769">
        <ele>1259.9</ele>
        <time>2022-06-09T13:58:12Z</time>
      </trkpt>
      <trkpt lat="44.81236" lon="4.1877">
        <ele>1260.1</ele>
        <time>2022-06-09T13:58:13Z</time>
      </trkpt>
      <trkpt lat="44.81237" lon="4.18771">
        <ele>1260.1</ele>
        <time>2022-06-09T13:58:14Z</time>
      </trkpt>
      <trkpt lat="44.81239" lon="4.18772">
        <ele>1260.2</ele>
        <time>2022-06-09T13:58:15Z</time>
      </trkpt>
      <trkpt lat="44.8124" lon="4.18772">
        <ele>1260.3</ele>
        <time>2022-06-09T13:58:16Z</time>
      </trkpt>
      <trkpt lat="44.81242" lon="4.18773">
        <ele>1260.4</ele>
        <time>2022-06-09T13:58:17Z</time>
      </trkpt>
      <trkpt lat="44.81244" lon="4.18774">
        <ele>1260.5</ele>
        <time>2022-06-09T13:58:18Z</time>
      </trkpt>
      <trkpt lat="44.81246" lon="4.18773">
        <ele>1260.6</ele>
        <time>2022-06-09T13:58:19Z</time>
      </trkpt>
      <trkpt lat="44.81247" lon="4.18775">
        <ele>1260.7</ele>
        <time>2022-06-09T13:58:21Z</time>
      </trkpt>
      <trkpt lat="44.8125" lon="4.18776">
        <ele>1260.9</ele>
        <time>2022-06-09T13:58:22Z</time>
      </trkpt>
      <trkpt lat="44.81252" lon="4.18776">
        <ele>1261</ele>
        <time>2022-06-09T13:58:24Z</time>
      </trkpt>
      <trkpt lat="44.81254" lon="4.18777">
        <ele>1261.1</ele>
        <time>2022-06-09T13:58:25Z</time>
      </trkpt>
      <trkpt lat="44.81255" lon="4.18777">
        <ele>1261.2</ele>
        <time>2022-06-09T13:58:26Z</time>
      </trkpt>
      <trkpt lat="44.81257" lon="4.18778">
        <ele>1261.3</ele>
        <time>2022-06-09T13:58:27Z</time>
      </trkpt>
      <trkpt lat="44.81259" lon="4.1878">
        <ele>1261.4</ele>
        <time>2022-06-09T13:58:28Z</time>
      </trkpt>
      <trkpt lat="44.8126" lon="4.1878">
        <ele>1261.5</ele>
        <time>2022-06-09T13:58:29Z</time>
      </trkpt>
      <trkpt lat="44.81262" lon="4.1878">
        <ele>1261.6</ele>
        <time>2022-06-09T13:58:30Z</time>
      </trkpt>
      <trkpt lat="44.81265" lon="4.18782">
        <ele>1261.7</ele>
        <time>2022-06-09T13:58:31Z</time>
      </trkpt>
      <trkpt lat="44.81267" lon="4.18782">
        <ele>1261.8</ele>
        <time>2022-06-09T13:58:32Z</time>
      </trkpt>
      <trkpt lat="44.8127" lon="4.18783">
        <ele>1261.9</ele>
        <time>2022-06-09T13:58:34Z</time>
      </trkpt>
      <trkpt lat="44.81271" lon="4.18783">
        <ele>1262</ele>
        <time>2022-06-09T13:58:35Z</time>
      </trkpt>
      <trkpt lat="44.81273" lon="4.18784">
        <ele>1262</ele>
        <time>2022-06-09T13:58:36Z</time>
      </trkpt>
      <trkpt lat="44.81275" lon="4.18784">
        <ele>1262.1</ele>
        <time>2022-06-09T13:58:37Z</time>
      </trkpt>
      <trkpt lat="44.81277" lon="4.18784">
        <ele>1262.2</ele>
        <time>2022-06-09T13:58:38Z</time>
      </trkpt>
      <trkpt lat="44.81279" lon="4.18784">
        <ele>1262.2</ele>
        <time>2022-06-09T13:58:39Z</time>
      </trkpt>
      <trkpt lat="44.81282" lon="4.18784">
        <ele>1262.3</ele>
        <time>2022-06-09T13:58:40Z</time>
      </trkpt>
      <trkpt lat="44.81284" lon="4.18784">
        <ele>1262.3</ele>
        <time>2022-06-09T13:58:41Z</time>
      </trkpt>
      <trkpt lat="44.81288" lon="4.18784">
        <ele>1262.4</ele>
        <time>2022-06-09T13:58:42Z</time>
      </trkpt>
      <trkpt lat="44.81289" lon="4.18784">
        <ele>1262.5</ele>
        <time>2022-06-09T13:58:43Z</time>
      </trkpt>
      <trkpt lat="44.81292" lon="4.18784">
        <ele>1262.5</ele>
        <time>2022-06-09T13:58:44Z</time>
      </trkpt>
      <trkpt lat="44.81295" lon="4.18784">
        <ele>1262.6</ele>
        <time>2022-06-09T13:58:46Z</time>
      </trkpt>
      <trkpt lat="44.81299" lon="4.18784">
        <ele>1262.7</ele>
        <time>2022-06-09T13:58:47Z</time>
      </trkpt>
      <trkpt lat="44.813" lon="4.18784">
        <ele>1262.7</ele>
        <time>2022-06-09T13:58:48Z</time>
      </trkpt>
      <trkpt lat="44.81305" lon="4.18783">
        <ele>1262.9</ele>
        <time>2022-06-09T13:58:50Z</time>
      </trkpt>
      <trkpt lat="44.81306" lon="4.18783">
        <ele>1262.9</ele>
        <time>2022-06-09T13:58:51Z</time>
      </trkpt>
      <trkpt lat="44.81308" lon="4.18782">
        <ele>1262.9</ele>
        <time>2022-06-09T13:58:52Z</time>
      </trkpt>
      <trkpt lat="44.81311" lon="4.18782">
        <ele>1263</ele>
        <time>2022-06-09T13:58:53Z</time>
      </trkpt>
      <trkpt lat="44.81314" lon="4.18782">
        <ele>1263.1</ele>
        <time>2022-06-09T13:58:54Z</time>
      </trkpt>
      <trkpt lat="44.81319" lon="4.18781">
        <ele>1263.2</ele>
        <time>2022-06-09T13:58:56Z</time>
      </trkpt>
      <trkpt lat="44.81321" lon="4.18781">
        <ele>1263.3</ele>
        <time>2022-06-09T13:58:57Z</time>
      </trkpt>
      <trkpt lat="44.81323" lon="4.1878">
        <ele>1263.3</ele>
        <time>2022-06-09T13:58:58Z</time>
      </trkpt>
      <trkpt lat="44.81327" lon="4.1878">
        <ele>1263.4</ele>
        <time>2022-06-09T13:59:00Z</time>
      </trkpt>
      <trkpt lat="44.81329" lon="4.1878">
        <ele>1263.5</ele>
        <time>2022-06-09T13:59:01Z</time>
      </trkpt>
      <trkpt lat="44.8133" lon="4.1878">
        <ele>1263.5</ele>
        <time>2022-06-09T13:59:02Z</time>
      </trkpt>
      <trkpt lat="44.81333" lon="4.1878">
        <ele>1263.6</ele>
        <time>2022-06-09T13:59:03Z</time>
      </trkpt>
      <trkpt lat="44.81334" lon="4.1878">
        <ele>1263.7</ele>
        <time>2022-06-09T13:59:04Z</time>
      </trkpt>
      <trkpt lat="44.81338" lon="4.1878">
        <ele>1263.8</ele>
        <time>2022-06-09T13:59:05Z</time>
      </trkpt>
      <trkpt lat="44.81339" lon="4.18781">
        <ele>1263.9</ele>
        <time>2022-06-09T13:59:06Z</time>
      </trkpt>
      <trkpt lat="44.81342" lon="4.1878">
        <ele>1264.1</ele>
        <time>2022-06-09T13:59:07Z</time>
      </trkpt>
      <trkpt lat="44.81343" lon="4.18779">
        <ele>1264.2</ele>
        <time>2022-06-09T13:59:08Z</time>
      </trkpt>
      <trkpt lat="44.81346" lon="4.18779">
        <ele>1264.4</ele>
        <time>2022-06-09T13:59:09Z</time>
      </trkpt>
      <trkpt lat="44.81347" lon="4.18779">
        <ele>1264.5</ele>
        <time>2022-06-09T13:59:10Z</time>
      </trkpt>
      <trkpt lat="44.81351" lon="4.1878">
        <ele>1264.8</ele>
        <time>2022-06-09T13:59:11Z</time>
      </trkpt>
      <trkpt lat="44.81353" lon="4.18781">
        <ele>1264.9</ele>
        <time>2022-06-09T13:59:12Z</time>
      </trkpt>
      <trkpt lat="44.81356" lon="4.18781">
        <ele>1265.1</ele>
        <time>2022-06-09T13:59:14Z</time>
      </trkpt>
      <trkpt lat="44.81357" lon="4.18781">
        <ele>1265.2</ele>
        <time>2022-06-09T13:59:15Z</time>
      </trkpt>
      <trkpt lat="44.81358" lon="4.18781">
        <ele>1265.3</ele>
        <time>2022-06-09T13:59:17Z</time>
      </trkpt>
      <trkpt lat="44.81359" lon="4.18781">
        <ele>1265.4</ele>
        <time>2022-06-09T13:59:18Z</time>
      </trkpt>
      <trkpt lat="44.8136" lon="4.18781">
        <ele>1265.5</ele>
        <time>2022-06-09T13:59:19Z</time>
      </trkpt>
      <trkpt lat="44.81362" lon="4.18781">
        <ele>1265.6</ele>
        <time>2022-06-09T13:59:20Z</time>
      </trkpt>
      <trkpt lat="44.81363" lon="4.18782">
        <ele>1265.7</ele>
        <time>2022-06-09T13:59:21Z</time>
      </trkpt>
      <trkpt lat="44.81364" lon="4.18782">
        <ele>1265.9</ele>
        <time>2022-06-09T13:59:22Z</time>
      </trkpt>
      <trkpt lat="44.81366" lon="4.18781">
        <ele>1266</ele>
        <time>2022-06-09T13:59:23Z</time>
      </trkpt>
      <trkpt lat="44.81367" lon="4.18781">
        <ele>1266.1</ele>
        <time>2022-06-09T13:59:24Z</time>
      </trkpt>
      <trkpt lat="44.81368" lon="4.18781">
        <ele>1266.2</ele>
        <time>2022-06-09T13:59:25Z</time>
      </trkpt>
      <trkpt lat="44.81369" lon="4.18781">
        <ele>1266.3</ele>
        <time>2022-06-09T13:59:26Z</time>
      </trkpt>
      <trkpt lat="44.81372" lon="4.18781">
        <ele>1266.5</ele>
        <time>2022-06-09T13:59:27Z</time>
      </trkpt>
      <trkpt lat="44.81373" lon="4.1878">
        <ele>1266.6</ele>
        <time>2022-06-09T13:59:28Z</time>
      </trkpt>
      <trkpt lat="44.81374" lon="4.1878">
        <ele>1266.7</ele>
        <time>2022-06-09T13:59:30Z</time>
      </trkpt>
      <trkpt lat="44.81376" lon="4.18782">
        <ele>1266.9</ele>
        <time>2022-06-09T13:59:31Z</time>
      </trkpt>
      <trkpt lat="44.81378" lon="4.18782">
        <ele>1267.1</ele>
        <time>2022-06-09T13:59:33Z</time>
      </trkpt>
      <trkpt lat="44.8138" lon="4.18781">
        <ele>1267.3</ele>
        <time>2022-06-09T13:59:34Z</time>
      </trkpt>
      <trkpt lat="44.81381" lon="4.18781">
        <ele>1267.4</ele>
        <time>2022-06-09T13:59:35Z</time>
      </trkpt>
      <trkpt lat="44.81382" lon="4.18781">
        <ele>1267.5</ele>
        <time>2022-06-09T13:59:36Z</time>
      </trkpt>
      <trkpt lat="44.81385" lon="4.18782">
        <ele>1267.8</ele>
        <time>2022-06-09T13:59:38Z</time>
      </trkpt>
      <trkpt lat="44.81387" lon="4.18783">
        <ele>1267.9</ele>
        <time>2022-06-09T13:59:39Z</time>
      </trkpt>
      <trkpt lat="44.81388" lon="4.18782">
        <ele>1268.1</ele>
        <time>2022-06-09T13:59:40Z</time>
      </trkpt>
      <trkpt lat="44.81389" lon="4.18782">
        <ele>1268.2</ele>
        <time>2022-06-09T13:59:42Z</time>
      </trkpt>
      <trkpt lat="44.81391" lon="4.18781">
        <ele>1268.4</ele>
        <time>2022-06-09T13:59:43Z</time>
      </trkpt>
      <trkpt lat="44.81392" lon="4.1878">
        <ele>1268.5</ele>
        <time>2022-06-09T13:59:44Z</time>
      </trkpt>
      <trkpt lat="44.81393" lon="4.18779">
        <ele>1268.6</ele>
        <time>2022-06-09T13:59:45Z</time>
      </trkpt>
      <trkpt lat="44.81393" lon="4.18776">
        <ele>1268.8</ele>
        <time>2022-06-09T13:59:46Z</time>
      </trkpt>
      <trkpt lat="44.81396" lon="4.18775">
        <ele>1269</ele>
        <time>2022-06-09T13:59:47Z</time>
      </trkpt>
      <trkpt lat="44.81397" lon="4.18775">
        <ele>1269.2</ele>
        <time>2022-06-09T13:59:49Z</time>
      </trkpt>
      <trkpt lat="44.81399" lon="4.18775">
        <ele>1269.3</ele>
        <time>2022-06-09T13:59:50Z</time>
      </trkpt>
      <trkpt lat="44.814" lon="4.18776">
        <ele>1269.5</ele>
        <time>2022-06-09T13:59:51Z</time>
      </trkpt>
      <trkpt lat="44.81403" lon="4.18777">
        <ele>1269.7</ele>
        <time>2022-06-09T13:59:52Z</time>
      </trkpt>
      <trkpt lat="44.81406" lon="4.18777">
        <ele>1270</ele>
        <time>2022-06-09T13:59:54Z</time>
      </trkpt>
      <trkpt lat="44.81408" lon="4.18778">
        <ele>1270.1</ele>
        <time>2022-06-09T13:59:56Z</time>
      </trkpt>
      <trkpt lat="44.8141" lon="4.18777">
        <ele>1270.3</ele>
        <time>2022-06-09T13:59:57Z</time>
      </trkpt>
      <trkpt lat="44.81413" lon="4.18778">
        <ele>1270.5</ele>
        <time>2022-06-09T13:59:58Z</time>
      </trkpt>
      <trkpt lat="44.81416" lon="4.18778">
        <ele>1270.7</ele>
        <time>2022-06-09T13:59:59Z</time>
      </trkpt>
      <trkpt lat="44.81417" lon="4.18778">
        <ele>1270.8</ele>
        <time>2022-06-09T14:00:00Z</time>
      </trkpt>
      <trkpt lat="44.8142" lon="4.18778">
        <ele>1271.1</ele>
        <time>2022-06-09T14:00:02Z</time>
      </trkpt>
      <trkpt lat="44.81422" lon="4.18778">
        <ele>1271.2</ele>
        <time>2022-06-09T14:00:03Z</time>
      </trkpt>
      <trkpt lat="44.81424" lon="4.18779">
        <ele>1271.4</ele>
        <time>2022-06-09T14:00:05Z</time>
      </trkpt>
      <trkpt lat="44.81425" lon="4.18779">
        <ele>1271.5</ele>
        <time>2022-06-09T14:00:06Z</time>
      </trkpt>
      <trkpt lat="44.81427" lon="4.18779">
        <ele>1271.6</ele>
        <time>2022-06-09T14:00:07Z</time>
      </trkpt>
      <trkpt lat="44.81429" lon="4.18779">
        <ele>1271.8</ele>
        <time>2022-06-09T14:00:08Z</time>
      </trkpt>
      <trkpt lat="44.8143" lon="4.18779">
        <ele>1271.9</ele>
        <time>2022-06-09T14:00:09Z</time>
      </trkpt>
      <trkpt lat="44.81432" lon="4.1878">
        <ele>1272</ele>
        <time>2022-06-09T14:00:10Z</time>
      </trkpt>
      <trkpt lat="44.81434" lon="4.18779">
        <ele>1272.2</ele>
        <time>2022-06-09T14:00:11Z</time>
      </trkpt>
      <trkpt lat="44.81436" lon="4.1878">
        <ele>1272.4</ele>
        <time>2022-06-09T14:00:12Z</time>
      </trkpt>
      <trkpt lat="44.81437" lon="4.1878">
        <ele>1272.5</ele>
        <time>2022-06-09T14:00:13Z</time>
      </trkpt>
      <trkpt lat="44.8144" lon="4.18778">
        <ele>1272.7</ele>
        <time>2022-06-09T14:00:14Z</time>
      </trkpt>
      <trkpt lat="44.81441" lon="4.18777">
        <ele>1272.8</ele>
        <time>2022-06-09T14:00:15Z</time>
      </trkpt>
      <trkpt lat="44.81444" lon="4.18775">
        <ele>1273</ele>
        <time>2022-06-09T14:00:17Z</time>
      </trkpt>
      <trkpt lat="44.81445" lon="4.18775">
        <ele>1273.1</ele>
        <time>2022-06-09T14:00:18Z</time>
      </trkpt>
      <trkpt lat="44.81447" lon="4.18774">
        <ele>1273.3</ele>
        <time>2022-06-09T14:00:20Z</time>
      </trkpt>
      <trkpt lat="44.81449" lon="4.18774">
        <ele>1273.4</ele>
        <time>2022-06-09T14:00:21Z</time>
      </trkpt>
      <trkpt lat="44.81451" lon="4.18773">
        <ele>1273.6</ele>
        <time>2022-06-09T14:00:22Z</time>
      </trkpt>
      <trkpt lat="44.81451" lon="4.18772">
        <ele>1273.7</ele>
        <time>2022-06-09T14:00:23Z</time>
      </trkpt>
      <trkpt lat="44.81454" lon="4.18773">
        <ele>1273.9</ele>
        <time>2022-06-09T14:00:24Z</time>
      </trkpt>
      <trkpt lat="44.81455" lon="4.18773">
        <ele>1274</ele>
        <time>2022-06-09T14:00:25Z</time>
      </trkpt>
      <trkpt lat="44.81458" lon="4.18775">
        <ele>1274.2</ele>
        <time>2022-06-09T14:00:27Z</time>
      </trkpt>
      <trkpt lat="44.81459" lon="4.18775">
        <ele>1274.2</ele>
        <time>2022-06-09T14:00:28Z</time>
      </trkpt>
      <trkpt lat="44.8146" lon="4.18776">
        <ele>1274.4</ele>
        <time>2022-06-09T14:00:29Z</time>
      </trkpt>
      <trkpt lat="44.81463" lon="4.18776">
        <ele>1274.5</ele>
        <time>2022-06-09T14:00:31Z</time>
      </trkpt>
      <trkpt lat="44.81465" lon="4.18776">
        <ele>1274.7</ele>
        <time>2022-06-09T14:00:32Z</time>
      </trkpt>
      <trkpt lat="44.81466" lon="4.18776">
        <ele>1274.8</ele>
        <time>2022-06-09T14:00:33Z</time>
      </trkpt>
      <trkpt lat="44.81469" lon="4.18776">
        <ele>1275</ele>
        <time>2022-06-09T14:00:35Z</time>
      </trkpt>
      <trkpt lat="44.81472" lon="4.18776">
        <ele>1275.2</ele>
        <time>2022-06-09T14:00:37Z</time>
      </trkpt>
      <trkpt lat="44.81474" lon="4.18776">
        <ele>1275.3</ele>
        <time>2022-06-09T14:00:38Z</time>
      </trkpt>
      <trkpt lat="44.81475" lon="4.18776">
        <ele>1275.4</ele>
        <time>2022-06-09T14:00:39Z</time>
      </trkpt>
      <trkpt lat="44.81476" lon="4.18776">
        <ele>1275.5</ele>
        <time>2022-06-09T14:00:40Z</time>
      </trkpt>
      <trkpt lat="44.81478" lon="4.18774">
        <ele>1275.7</ele>
        <time>2022-06-09T14:00:41Z</time>
      </trkpt>
      <trkpt lat="44.8148" lon="4.18774">
        <ele>1275.8</ele>
        <time>2022-06-09T14:00:42Z</time>
      </trkpt>
      <trkpt lat="44.81481" lon="4.18773">
        <ele>1275.9</ele>
        <time>2022-06-09T14:00:43Z</time>
      </trkpt>
      <trkpt lat="44.81483" lon="4.18773">
        <ele>1276</ele>
        <time>2022-06-09T14:00:45Z</time>
      </trkpt>
      <trkpt lat="44.81486" lon="4.18773">
        <ele>1276.3</ele>
        <time>2022-06-09T14:00:46Z</time>
      </trkpt>
      <trkpt lat="44.81487" lon="4.18773">
        <ele>1276.3</ele>
        <time>2022-06-09T14:00:47Z</time>
      </trkpt>
      <trkpt lat="44.8149" lon="4.18771">
        <ele>1276.5</ele>
        <time>2022-06-09T14:00:48Z</time>
      </trkpt>
      <trkpt lat="44.81493" lon="4.1877">
        <ele>1276.7</ele>
        <time>2022-06-09T14:00:50Z</time>
      </trkpt>
      <trkpt lat="44.81494" lon="4.1877">
        <ele>1276.9</ele>
        <time>2022-06-09T14:00:51Z</time>
      </trkpt>
      <trkpt lat="44.81497" lon="4.18771">
        <ele>1277.1</ele>
        <time>2022-06-09T14:00:53Z</time>
      </trkpt>
      <trkpt lat="44.81498" lon="4.1877">
        <ele>1277.1</ele>
        <time>2022-06-09T14:00:54Z</time>
      </trkpt>
      <trkpt lat="44.815" lon="4.1877">
        <ele>1277.2</ele>
        <time>2022-06-09T14:00:55Z</time>
      </trkpt>
      <trkpt lat="44.81501" lon="4.1877">
        <ele>1277.4</ele>
        <time>2022-06-09T14:00:56Z</time>
      </trkpt>
      <trkpt lat="44.81503" lon="4.1877">
        <ele>1277.5</ele>
        <time>2022-06-09T14:00:57Z</time>
      </trkpt>
      <trkpt lat="44.81504" lon="4.18769">
        <ele>1277.6</ele>
        <time>2022-06-09T14:00:58Z</time>
      </trkpt>
      <trkpt lat="44.81506" lon="4.18768">
        <ele>1277.7</ele>
        <time>2022-06-09T14:00:59Z</time>
      </trkpt>
      <trkpt lat="44.81507" lon="4.18767">
        <ele>1277.8</ele>
        <time>2022-06-09T14:01:00Z</time>
      </trkpt>
      <trkpt lat="44.81509" lon="4.18767">
        <ele>1278</ele>
        <time>2022-06-09T14:01:01Z</time>
      </trkpt>
      <trkpt lat="44.81512" lon="4.18766">
        <ele>1278.2</ele>
        <time>2022-06-09T14:01:02Z</time>
      </trkpt>
      <trkpt lat="44.81515" lon="4.18765">
        <ele>1278.4</ele>
        <time>2022-06-09T14:01:04Z</time>
      </trkpt>
      <trkpt lat="44.81516" lon="4.18764">
        <ele>1278.5</ele>
        <time>2022-06-09T14:01:06Z</time>
      </trkpt>
      <trkpt lat="44.81519" lon="4.18763">
        <ele>1278.7</ele>
        <time>2022-06-09T14:01:07Z</time>
      </trkpt>
      <trkpt lat="44.81521" lon="4.18762">
        <ele>1278.9</ele>
        <time>2022-06-09T14:01:09Z</time>
      </trkpt>
      <trkpt lat="44.81523" lon="4.18761">
        <ele>1279</ele>
        <time>2022-06-09T14:01:10Z</time>
      </trkpt>
      <trkpt lat="44.81524" lon="4.1876">
        <ele>1279.1</ele>
        <time>2022-06-09T14:01:11Z</time>
      </trkpt>
      <trkpt lat="44.81526" lon="4.18758">
        <ele>1279.2</ele>
        <time>2022-06-09T14:01:12Z</time>
      </trkpt>
      <trkpt lat="44.81527" lon="4.18757">
        <ele>1279.3</ele>
        <time>2022-06-09T14:01:13Z</time>
      </trkpt>
      <trkpt lat="44.81529" lon="4.18756">
        <ele>1279.4</ele>
        <time>2022-06-09T14:01:14Z</time>
      </trkpt>
      <trkpt lat="44.8153" lon="4.18755">
        <ele>1279.6</ele>
        <time>2022-06-09T14:01:15Z</time>
      </trkpt>
      <trkpt lat="44.81532" lon="4.18754">
        <ele>1279.7</ele>
        <time>2022-06-09T14:01:16Z</time>
      </trkpt>
      <trkpt lat="44.81533" lon="4.18753">
        <ele>1279.8</ele>
        <time>2022-06-09T14:01:17Z</time>
      </trkpt>
      <trkpt lat="44.81535" lon="4.18752">
        <ele>1279.9</ele>
        <time>2022-06-09T14:01:18Z</time>
      </trkpt>
      <trkpt lat="44.81537" lon="4.18749">
        <ele>1280</ele>
        <time>2022-06-09T14:01:19Z</time>
      </trkpt>
      <trkpt lat="44.81541" lon="4.18744">
        <ele>1280.3</ele>
        <time>2022-06-09T14:01:21Z</time>
      </trkpt>
      <trkpt lat="44.81543" lon="4.18743">
        <ele>1280.5</ele>
        <time>2022-06-09T14:01:23Z</time>
      </trkpt>
      <trkpt lat="44.81544" lon="4.18741">
        <ele>1280.6</ele>
        <time>2022-06-09T14:01:24Z</time>
      </trkpt>
      <trkpt lat="44.81547" lon="4.18739">
        <ele>1280.7</ele>
        <time>2022-06-09T14:01:26Z</time>
      </trkpt>
      <trkpt lat="44.81548" lon="4.18735">
        <ele>1280.8</ele>
        <time>2022-06-09T14:01:27Z</time>
      </trkpt>
      <trkpt lat="44.8155" lon="4.18731">
        <ele>1281</ele>
        <time>2022-06-09T14:01:28Z</time>
      </trkpt>
      <trkpt lat="44.81551" lon="4.18727">
        <ele>1281.2</ele>
        <time>2022-06-09T14:01:30Z</time>
      </trkpt>
      <trkpt lat="44.81553" lon="4.18719">
        <ele>1281.5</ele>
        <time>2022-06-09T14:01:31Z</time>
      </trkpt>
      <trkpt lat="44.81554" lon="4.18714">
        <ele>1281.6</ele>
        <time>2022-06-09T14:01:33Z</time>
      </trkpt>
      <trkpt lat="44.81555" lon="4.18708">
        <ele>1281.7</ele>
        <time>2022-06-09T14:01:34Z</time>
      </trkpt>
      <trkpt lat="44.81555" lon="4.18706">
        <ele>1281.8</ele>
        <time>2022-06-09T14:01:35Z</time>
      </trkpt>
      <trkpt lat="44.81557" lon="4.187">
        <ele>1281.9</ele>
        <time>2022-06-09T14:01:37Z</time>
      </trkpt>
      <trkpt lat="44.81557" lon="4.18697">
        <ele>1282</ele>
        <time>2022-06-09T14:01:38Z</time>
      </trkpt>
      <trkpt lat="44.81559" lon="4.18689">
        <ele>1282.2</ele>
        <time>2022-06-09T14:01:39Z</time>
      </trkpt>
      <trkpt lat="44.81559" lon="4.18686">
        <ele>1282.3</ele>
        <time>2022-06-09T14:01:40Z</time>
      </trkpt>
      <trkpt lat="44.8156" lon="4.18682">
        <ele>1282.4</ele>
        <time>2022-06-09T14:01:42Z</time>
      </trkpt>
      <trkpt lat="44.81561" lon="4.18677">
        <ele>1282.5</ele>
        <time>2022-06-09T14:01:43Z</time>
      </trkpt>
      <trkpt lat="44.81561" lon="4.18676">
        <ele>1282.6</ele>
        <time>2022-06-09T14:01:44Z</time>
      </trkpt>
      <trkpt lat="44.81562" lon="4.1867">
        <ele>1282.7</ele>
        <time>2022-06-09T14:01:45Z</time>
      </trkpt>
      <trkpt lat="44.81563" lon="4.18669">
        <ele>1282.7</ele>
        <time>2022-06-09T14:01:46Z</time>
      </trkpt>
      <trkpt lat="44.81563" lon="4.18665">
        <ele>1282.8</ele>
        <time>2022-06-09T14:01:47Z</time>
      </trkpt>
      <trkpt lat="44.81565" lon="4.18661">
        <ele>1282.9</ele>
        <time>2022-06-09T14:01:48Z</time>
      </trkpt>
      <trkpt lat="44.81566" lon="4.18656">
        <ele>1283.1</ele>
        <time>2022-06-09T14:01:49Z</time>
      </trkpt>
      <trkpt lat="44.81567" lon="4.18654">
        <ele>1283.1</ele>
        <time>2022-06-09T14:01:50Z</time>
      </trkpt>
      <trkpt lat="44.81567" lon="4.1865">
        <ele>1283.2</ele>
        <time>2022-06-09T14:01:51Z</time>
      </trkpt>
      <trkpt lat="44.81568" lon="4.18645">
        <ele>1283.3</ele>
        <time>2022-06-09T14:01:52Z</time>
      </trkpt>
      <trkpt lat="44.81568" lon="4.18643">
        <ele>1283.4</ele>
        <time>2022-06-09T14:01:53Z</time>
      </trkpt>
      <trkpt lat="44.8157" lon="4.18639">
        <ele>1283.5</ele>
        <time>2022-06-09T14:01:54Z</time>
      </trkpt>
      <trkpt lat="44.81571" lon="4.18636">
        <ele>1283.6</ele>
        <time>2022-06-09T14:01:55Z</time>
      </trkpt>
      <trkpt lat="44.81573" lon="4.18629">
        <ele>1283.8</ele>
        <time>2022-06-09T14:01:56Z</time>
      </trkpt>
      <trkpt lat="44.81573" lon="4.18625">
        <ele>1283.8</ele>
        <time>2022-06-09T14:01:57Z</time>
      </trkpt>
      <trkpt lat="44.81574" lon="4.18622">
        <ele>1283.9</ele>
        <time>2022-06-09T14:01:59Z</time>
      </trkpt>
      <trkpt lat="44.81576" lon="4.18617">
        <ele>1284.1</ele>
        <time>2022-06-09T14:02:00Z</time>
      </trkpt>
      <trkpt lat="44.81577" lon="4.18615">
        <ele>1284.1</ele>
        <time>2022-06-09T14:02:01Z</time>
      </trkpt>
      <trkpt lat="44.81578" lon="4.1861">
        <ele>1284.2</ele>
        <time>2022-06-09T14:02:02Z</time>
      </trkpt>
      <trkpt lat="44.8158" lon="4.18603">
        <ele>1284.4</ele>
        <time>2022-06-09T14:02:04Z</time>
      </trkpt>
      <trkpt lat="44.81581" lon="4.186">
        <ele>1284.5</ele>
        <time>2022-06-09T14:02:05Z</time>
      </trkpt>
      <trkpt lat="44.81582" lon="4.18597">
        <ele>1284.6</ele>
        <time>2022-06-09T14:02:06Z</time>
      </trkpt>
      <trkpt lat="44.81583" lon="4.18593">
        <ele>1284.7</ele>
        <time>2022-06-09T14:02:07Z</time>
      </trkpt>
      <trkpt lat="44.81584" lon="4.18588">
        <ele>1284.8</ele>
        <time>2022-06-09T14:02:09Z</time>
      </trkpt>
      <trkpt lat="44.81585" lon="4.18583">
        <ele>1285</ele>
        <time>2022-06-09T14:02:10Z</time>
      </trkpt>
      <trkpt lat="44.81586" lon="4.1858">
        <ele>1285.1</ele>
        <time>2022-06-09T14:02:11Z</time>
      </trkpt>
      <trkpt lat="44.81587" lon="4.18576">
        <ele>1285.2</ele>
        <time>2022-06-09T14:02:13Z</time>
      </trkpt>
      <trkpt lat="44.81589" lon="4.18572">
        <ele>1285.3</ele>
        <time>2022-06-09T14:02:14Z</time>
      </trkpt>
      <trkpt lat="44.81589" lon="4.18571">
        <ele>1285.4</ele>
        <time>2022-06-09T14:02:15Z</time>
      </trkpt>
      <trkpt lat="44.81591" lon="4.18567">
        <ele>1285.5</ele>
        <time>2022-06-09T14:02:16Z</time>
      </trkpt>
      <trkpt lat="44.81591" lon="4.18565">
        <ele>1285.6</ele>
        <time>2022-06-09T14:02:17Z</time>
      </trkpt>
      <trkpt lat="44.81593" lon="4.1856">
        <ele>1285.7</ele>
        <time>2022-06-09T14:02:18Z</time>
      </trkpt>
      <trkpt lat="44.81593" lon="4.18559">
        <ele>1285.8</ele>
        <time>2022-06-09T14:02:19Z</time>
      </trkpt>
      <trkpt lat="44.81593" lon="4.18554">
        <ele>1285.9</ele>
        <time>2022-06-09T14:02:20Z</time>
      </trkpt>
      <trkpt lat="44.81594" lon="4.18552">
        <ele>1286</ele>
        <time>2022-06-09T14:02:21Z</time>
      </trkpt>
      <trkpt lat="44.81595" lon="4.18548">
        <ele>1286.1</ele>
        <time>2022-06-09T14:02:22Z</time>
      </trkpt>
      <trkpt lat="44.81595" lon="4.18546">
        <ele>1286.1</ele>
        <time>2022-06-09T14:02:23Z</time>
      </trkpt>
      <trkpt lat="44.81596" lon="4.18541">
        <ele>1286.3</ele>
        <time>2022-06-09T14:02:24Z</time>
      </trkpt>
      <trkpt lat="44.81597" lon="4.18538">
        <ele>1286.4</ele>
        <time>2022-06-09T14:02:25Z</time>
      </trkpt>
      <trkpt lat="44.81597" lon="4.18535">
        <ele>1286.5</ele>
        <time>2022-06-09T14:02:27Z</time>
      </trkpt>
      <trkpt lat="44.81599" lon="4.1853">
        <ele>1286.7</ele>
        <time>2022-06-09T14:02:28Z</time>
      </trkpt>
      <trkpt lat="44.81599" lon="4.18529">
        <ele>1286.7</ele>
        <time>2022-06-09T14:02:29Z</time>
      </trkpt>
      <trkpt lat="44.81601" lon="4.18525">
        <ele>1286.8</ele>
        <time>2022-06-09T14:02:30Z</time>
      </trkpt>
      <trkpt lat="44.81601" lon="4.18523">
        <ele>1286.9</ele>
        <time>2022-06-09T14:02:31Z</time>
      </trkpt>
      <trkpt lat="44.81602" lon="4.1852">
        <ele>1287</ele>
        <time>2022-06-09T14:02:32Z</time>
      </trkpt>
      <trkpt lat="44.81602" lon="4.18519">
        <ele>1287.1</ele>
        <time>2022-06-09T14:02:33Z</time>
      </trkpt>
      <trkpt lat="44.81603" lon="4.18513">
        <ele>1287.2</ele>
        <time>2022-06-09T14:02:34Z</time>
      </trkpt>
      <trkpt lat="44.81605" lon="4.18509">
        <ele>1287.4</ele>
        <time>2022-06-09T14:02:36Z</time>
      </trkpt>
      <trkpt lat="44.81605" lon="4.18508">
        <ele>1287.4</ele>
        <time>2022-06-09T14:02:37Z</time>
      </trkpt>
      <trkpt lat="44.81607" lon="4.18503">
        <ele>1287.6</ele>
        <time>2022-06-09T14:02:38Z</time>
      </trkpt>
      <trkpt lat="44.81607" lon="4.18502">
        <ele>1287.6</ele>
        <time>2022-06-09T14:02:39Z</time>
      </trkpt>
      <trkpt lat="44.81609" lon="4.18497">
        <ele>1287.8</ele>
        <time>2022-06-09T14:02:40Z</time>
      </trkpt>
      <trkpt lat="44.8161" lon="4.18495">
        <ele>1287.9</ele>
        <time>2022-06-09T14:02:41Z</time>
      </trkpt>
      <trkpt lat="44.8161" lon="4.18493">
        <ele>1288</ele>
        <time>2022-06-09T14:02:42Z</time>
      </trkpt>
      <trkpt lat="44.81612" lon="4.18488">
        <ele>1288.1</ele>
        <time>2022-06-09T14:02:44Z</time>
      </trkpt>
      <trkpt lat="44.81615" lon="4.18483">
        <ele>1288.3</ele>
        <time>2022-06-09T14:02:46Z</time>
      </trkpt>
      <trkpt lat="44.81616" lon="4.18481">
        <ele>1288.4</ele>
        <time>2022-06-09T14:02:47Z</time>
      </trkpt>
      <trkpt lat="44.81618" lon="4.18476">
        <ele>1288.6</ele>
        <time>2022-06-09T14:02:49Z</time>
      </trkpt>
      <trkpt lat="44.81619" lon="4.18474">
        <ele>1288.6</ele>
        <time>2022-06-09T14:02:50Z</time>
      </trkpt>
      <trkpt lat="44.81621" lon="4.18471">
        <ele>1288.8</ele>
        <time>2022-06-09T14:02:51Z</time>
      </trkpt>
      <trkpt lat="44.81623" lon="4.18468">
        <ele>1288.9</ele>
        <time>2022-06-09T14:02:52Z</time>
      </trkpt>
      <trkpt lat="44.81624" lon="4.18465">
        <ele>1289</ele>
        <time>2022-06-09T14:02:54Z</time>
      </trkpt>
      <trkpt lat="44.81626" lon="4.18461">
        <ele>1289.2</ele>
        <time>2022-06-09T14:02:55Z</time>
      </trkpt>
      <trkpt lat="44.81627" lon="4.18459">
        <ele>1289.3</ele>
        <time>2022-06-09T14:02:56Z</time>
      </trkpt>
      <trkpt lat="44.81628" lon="4.18457">
        <ele>1289.4</ele>
        <time>2022-06-09T14:02:58Z</time>
      </trkpt>
      <trkpt lat="44.8163" lon="4.18455">
        <ele>1289.5</ele>
        <time>2022-06-09T14:02:59Z</time>
      </trkpt>
      <trkpt lat="44.81632" lon="4.18453">
        <ele>1289.6</ele>
        <time>2022-06-09T14:03:00Z</time>
      </trkpt>
      <trkpt lat="44.81633" lon="4.18451">
        <ele>1289.7</ele>
        <time>2022-06-09T14:03:01Z</time>
      </trkpt>
      <trkpt lat="44.81634" lon="4.18449">
        <ele>1289.8</ele>
        <time>2022-06-09T14:03:03Z</time>
      </trkpt>
      <trkpt lat="44.81635" lon="4.18448">
        <ele>1289.9</ele>
        <time>2022-06-09T14:03:04Z</time>
      </trkpt>
      <trkpt lat="44.81637" lon="4.18445">
        <ele>1290</ele>
        <time>2022-06-09T14:03:05Z</time>
      </trkpt>
      <trkpt lat="44.81638" lon="4.18444">
        <ele>1290</ele>
        <time>2022-06-09T14:03:06Z</time>
      </trkpt>
      <trkpt lat="44.8164" lon="4.1844">
        <ele>1290.2</ele>
        <time>2022-06-09T14:03:07Z</time>
      </trkpt>
      <trkpt lat="44.81641" lon="4.1844">
        <ele>1290.3</ele>
        <time>2022-06-09T14:03:08Z</time>
      </trkpt>
      <trkpt lat="44.81643" lon="4.18438">
        <ele>1290.4</ele>
        <time>2022-06-09T14:03:09Z</time>
      </trkpt>
      <trkpt lat="44.81644" lon="4.18437">
        <ele>1290.5</ele>
        <time>2022-06-09T14:03:11Z</time>
      </trkpt>
      <trkpt lat="44.81646" lon="4.18434">
        <ele>1290.6</ele>
        <time>2022-06-09T14:03:12Z</time>
      </trkpt>
      <trkpt lat="44.81648" lon="4.18433">
        <ele>1290.8</ele>
        <time>2022-06-09T14:03:14Z</time>
      </trkpt>
      <trkpt lat="44.81649" lon="4.1843">
        <ele>1290.9</ele>
        <time>2022-06-09T14:03:15Z</time>
      </trkpt>
      <trkpt lat="44.8165" lon="4.18429">
        <ele>1290.9</ele>
        <time>2022-06-09T14:03:16Z</time>
      </trkpt>
      <trkpt lat="44.81652" lon="4.18426">
        <ele>1291.1</ele>
        <time>2022-06-09T14:03:17Z</time>
      </trkpt>
      <trkpt lat="44.81654" lon="4.18425">
        <ele>1291.2</ele>
        <time>2022-06-09T14:03:19Z</time>
      </trkpt>
      <trkpt lat="44.81655" lon="4.18423">
        <ele>1291.3</ele>
        <time>2022-06-09T14:03:20Z</time>
      </trkpt>
      <trkpt lat="44.81658" lon="4.1842">
        <ele>1291.5</ele>
        <time>2022-06-09T14:03:21Z</time>
      </trkpt>
      <trkpt lat="44.81659" lon="4.18418">
        <ele>1291.6</ele>
        <time>2022-06-09T14:03:22Z</time>
      </trkpt>
      <trkpt lat="44.8166" lon="4.18416">
        <ele>1291.7</ele>
        <time>2022-06-09T14:03:23Z</time>
      </trkpt>
      <trkpt lat="44.81662" lon="4.18414">
        <ele>1291.8</ele>
        <time>2022-06-09T14:03:25Z</time>
      </trkpt>
      <trkpt lat="44.81665" lon="4.18412">
        <ele>1292</ele>
        <time>2022-06-09T14:03:26Z</time>
      </trkpt>
      <trkpt lat="44.81666" lon="4.18411">
        <ele>1292.1</ele>
        <time>2022-06-09T14:03:27Z</time>
      </trkpt>
      <trkpt lat="44.81668" lon="4.18409">
        <ele>1292.2</ele>
        <time>2022-06-09T14:03:29Z</time>
      </trkpt>
      <trkpt lat="44.81669" lon="4.18408">
        <ele>1292.2</ele>
        <time>2022-06-09T14:03:30Z</time>
      </trkpt>
      <trkpt lat="44.81671" lon="4.18404">
        <ele>1292.4</ele>
        <time>2022-06-09T14:03:31Z</time>
      </trkpt>
      <trkpt lat="44.81672" lon="4.18403">
        <ele>1292.5</ele>
        <time>2022-06-09T14:03:32Z</time>
      </trkpt>
      <trkpt lat="44.81674" lon="4.184">
        <ele>1292.6</ele>
        <time>2022-06-09T14:03:33Z</time>
      </trkpt>
      <trkpt lat="44.81678" lon="4.18396">
        <ele>1292.8</ele>
        <time>2022-06-09T14:03:35Z</time>
      </trkpt>
      <trkpt lat="44.81679" lon="4.18395">
        <ele>1292.9</ele>
        <time>2022-06-09T14:03:37Z</time>
      </trkpt>
      <trkpt lat="44.8168" lon="4.18393">
        <ele>1293</ele>
        <time>2022-06-09T14:03:38Z</time>
      </trkpt>
      <trkpt lat="44.81682" lon="4.1839">
        <ele>1293.1</ele>
        <time>2022-06-09T14:03:40Z</time>
      </trkpt>
      <trkpt lat="44.81683" lon="4.18389">
        <ele>1293.1</ele>
        <time>2022-06-09T14:03:41Z</time>
      </trkpt>
      <trkpt lat="44.81684" lon="4.18388">
        <ele>1293.2</ele>
        <time>2022-06-09T14:03:42Z</time>
      </trkpt>
      <trkpt lat="44.81686" lon="4.18387">
        <ele>1293.3</ele>
        <time>2022-06-09T14:03:43Z</time>
      </trkpt>
      <trkpt lat="44.81688" lon="4.18386">
        <ele>1293.4</ele>
        <time>2022-06-09T14:03:44Z</time>
      </trkpt>
      <trkpt lat="44.8169" lon="4.18383">
        <ele>1293.5</ele>
        <time>2022-06-09T14:03:45Z</time>
      </trkpt>
      <trkpt lat="44.8169" lon="4.18383">
        <ele>1293.5</ele>
        <time>2022-06-09T14:03:46Z</time>
      </trkpt>
      <trkpt lat="44.81693" lon="4.1838">
        <ele>1293.7</ele>
        <time>2022-06-09T14:03:47Z</time>
      </trkpt>
      <trkpt lat="44.81693" lon="4.18379">
        <ele>1293.7</ele>
        <time>2022-06-09T14:03:48Z</time>
      </trkpt>
      <trkpt lat="44.81694" lon="4.18378">
        <ele>1293.8</ele>
        <time>2022-06-09T14:03:49Z</time>
      </trkpt>
      <trkpt lat="44.81696" lon="4.18376">
        <ele>1293.9</ele>
        <time>2022-06-09T14:03:50Z</time>
      </trkpt>
      <trkpt lat="44.81697" lon="4.18375">
        <ele>1293.9</ele>
        <time>2022-06-09T14:03:51Z</time>
      </trkpt>
      <trkpt lat="44.81698" lon="4.18373">
        <ele>1294</ele>
        <time>2022-06-09T14:03:52Z</time>
      </trkpt>
      <trkpt lat="44.81701" lon="4.18372">
        <ele>1294.1</ele>
        <time>2022-06-09T14:03:53Z</time>
      </trkpt>
      <trkpt lat="44.81702" lon="4.18371">
        <ele>1294.2</ele>
        <time>2022-06-09T14:03:54Z</time>
      </trkpt>
      <trkpt lat="44.81705" lon="4.18368">
        <ele>1294.3</ele>
        <time>2022-06-09T14:03:55Z</time>
      </trkpt>
      <trkpt lat="44.81706" lon="4.18367">
        <ele>1294.4</ele>
        <time>2022-06-09T14:03:56Z</time>
      </trkpt>
      <trkpt lat="44.81708" lon="4.18365">
        <ele>1294.5</ele>
        <time>2022-06-09T14:03:57Z</time>
      </trkpt>
      <trkpt lat="44.81711" lon="4.18363">
        <ele>1294.6</ele>
        <time>2022-06-09T14:03:59Z</time>
      </trkpt>
      <trkpt lat="44.81713" lon="4.18361">
        <ele>1294.7</ele>
        <time>2022-06-09T14:04:01Z</time>
      </trkpt>
      <trkpt lat="44.81715" lon="4.18359">
        <ele>1294.8</ele>
        <time>2022-06-09T14:04:02Z</time>
      </trkpt>
      <trkpt lat="44.81716" lon="4.18358">
        <ele>1294.8</ele>
        <time>2022-06-09T14:04:03Z</time>
      </trkpt>
      <trkpt lat="44.81718" lon="4.18356">
        <ele>1294.9</ele>
        <time>2022-06-09T14:04:04Z</time>
      </trkpt>
      <trkpt lat="44.81719" lon="4.18355">
        <ele>1295</ele>
        <time>2022-06-09T14:04:05Z</time>
      </trkpt>
      <trkpt lat="44.8172" lon="4.18354">
        <ele>1295</ele>
        <time>2022-06-09T14:04:06Z</time>
      </trkpt>
      <trkpt lat="44.81722" lon="4.1835">
        <ele>1295.1</ele>
        <time>2022-06-09T14:04:07Z</time>
      </trkpt>
      <trkpt lat="44.81725" lon="4.18347">
        <ele>1295.2</ele>
        <time>2022-06-09T14:04:09Z</time>
      </trkpt>
      <trkpt lat="44.81727" lon="4.18345">
        <ele>1295.3</ele>
        <time>2022-06-09T14:04:11Z</time>
      </trkpt>
      <trkpt lat="44.81729" lon="4.18342">
        <ele>1295.4</ele>
        <time>2022-06-09T14:04:12Z</time>
      </trkpt>
      <trkpt lat="44.8173" lon="4.18342">
        <ele>1295.4</ele>
        <time>2022-06-09T14:04:13Z</time>
      </trkpt>
      <trkpt lat="44.81732" lon="4.18339">
        <ele>1295.5</ele>
        <time>2022-06-09T14:04:14Z</time>
      </trkpt>
      <trkpt lat="44.81733" lon="4.18337">
        <ele>1295.5</ele>
        <time>2022-06-09T14:04:15Z</time>
      </trkpt>
      <trkpt lat="44.81735" lon="4.18334">
        <ele>1295.6</ele>
        <time>2022-06-09T14:04:16Z</time>
      </trkpt>
      <trkpt lat="44.81736" lon="4.18332">
        <ele>1295.7</ele>
        <time>2022-06-09T14:04:17Z</time>
      </trkpt>
      <trkpt lat="44.81737" lon="4.1833">
        <ele>1295.7</ele>
        <time>2022-06-09T14:04:18Z</time>
      </trkpt>
      <trkpt lat="44.81739" lon="4.18328">
        <ele>1295.8</ele>
        <time>2022-06-09T14:04:20Z</time>
      </trkpt>
      <trkpt lat="44.81741" lon="4.18325">
        <ele>1295.8</ele>
        <time>2022-06-09T14:04:21Z</time>
      </trkpt>
      <trkpt lat="44.81744" lon="4.18322">
        <ele>1295.9</ele>
        <time>2022-06-09T14:04:22Z</time>
      </trkpt>
      <trkpt lat="44.81747" lon="4.1832">
        <ele>1296</ele>
        <time>2022-06-09T14:04:23Z</time>
      </trkpt>
      <trkpt lat="44.81748" lon="4.18319">
        <ele>1296</ele>
        <time>2022-06-09T14:04:24Z</time>
      </trkpt>
      <trkpt lat="44.8175" lon="4.18315">
        <ele>1296</ele>
        <time>2022-06-09T14:04:25Z</time>
      </trkpt>
      <trkpt lat="44.81751" lon="4.18314">
        <ele>1296</ele>
        <time>2022-06-09T14:04:26Z</time>
      </trkpt>
      <trkpt lat="44.81754" lon="4.18311">
        <ele>1296.1</ele>
        <time>2022-06-09T14:04:28Z</time>
      </trkpt>
      <trkpt lat="44.81754" lon="4.18309">
        <ele>1296.1</ele>
        <time>2022-06-09T14:04:29Z</time>
      </trkpt>
      <trkpt lat="44.81756" lon="4.18306">
        <ele>1296.2</ele>
        <time>2022-06-09T14:04:30Z</time>
      </trkpt>
      <trkpt lat="44.81758" lon="4.18302">
        <ele>1296.2</ele>
        <time>2022-06-09T14:04:31Z</time>
      </trkpt>
      <trkpt lat="44.81759" lon="4.18298">
        <ele>1296.2</ele>
        <time>2022-06-09T14:04:33Z</time>
      </trkpt>
      <trkpt lat="44.81761" lon="4.18295">
        <ele>1296.2</ele>
        <time>2022-06-09T14:04:34Z</time>
      </trkpt>
      <trkpt lat="44.81763" lon="4.1829">
        <ele>1296.3</ele>
        <time>2022-06-09T14:04:35Z</time>
      </trkpt>
      <trkpt lat="44.81766" lon="4.18284">
        <ele>1296.3</ele>
        <time>2022-06-09T14:04:36Z</time>
      </trkpt>
      <trkpt lat="44.81767" lon="4.18282">
        <ele>1296.3</ele>
        <time>2022-06-09T14:04:37Z</time>
      </trkpt>
      <trkpt lat="44.81769" lon="4.18278">
        <ele>1296.2</ele>
        <time>2022-06-09T14:04:39Z</time>
      </trkpt>
      <trkpt lat="44.81771" lon="4.18272">
        <ele>1296.1</ele>
        <time>2022-06-09T14:04:40Z</time>
      </trkpt>
      <trkpt lat="44.81773" lon="4.18267">
        <ele>1296</ele>
        <time>2022-06-09T14:04:41Z</time>
      </trkpt>
      <trkpt lat="44.81775" lon="4.18262">
        <ele>1295.9</ele>
        <time>2022-06-09T14:04:42Z</time>
      </trkpt>
      <trkpt lat="44.81776" lon="4.18257">
        <ele>1295.8</ele>
        <time>2022-06-09T14:04:43Z</time>
      </trkpt>
      <trkpt lat="44.81777" lon="4.18252">
        <ele>1295.6</ele>
        <time>2022-06-09T14:04:44Z</time>
      </trkpt>
      <trkpt lat="44.81779" lon="4.18245">
        <ele>1295.4</ele>
        <time>2022-06-09T14:04:45Z</time>
      </trkpt>
      <trkpt lat="44.81781" lon="4.18238">
        <ele>1295.3</ele>
        <time>2022-06-09T14:04:47Z</time>
      </trkpt>
      <trkpt lat="44.81782" lon="4.18226">
        <ele>1295</ele>
        <time>2022-06-09T14:04:48Z</time>
      </trkpt>
      <trkpt lat="44.81783" lon="4.1822">
        <ele>1294.8</ele>
        <time>2022-06-09T14:04:49Z</time>
      </trkpt>
      <trkpt lat="44.81784" lon="4.18208">
        <ele>1294.5</ele>
        <time>2022-06-09T14:04:52Z</time>
      </trkpt>
      <trkpt lat="44.81784" lon="4.18202">
        <ele>1294.4</ele>
        <time>2022-06-09T14:04:53Z</time>
      </trkpt>
      <trkpt lat="44.81783" lon="4.18196">
        <ele>1294.2</ele>
        <time>2022-06-09T14:04:54Z</time>
      </trkpt>
      <trkpt lat="44.81785" lon="4.18188">
        <ele>1294</ele>
        <time>2022-06-09T14:04:55Z</time>
      </trkpt>
      <trkpt lat="44.81784" lon="4.18181">
        <ele>1293.8</ele>
        <time>2022-06-09T14:04:56Z</time>
      </trkpt>
      <trkpt lat="44.81784" lon="4.18174">
        <ele>1293.6</ele>
        <time>2022-06-09T14:04:57Z</time>
      </trkpt>
      <trkpt lat="44.81783" lon="4.18167">
        <ele>1293.4</ele>
        <time>2022-06-09T14:04:58Z</time>
      </trkpt>
      <trkpt lat="44.81782" lon="4.18161">
        <ele>1293.2</ele>
        <time>2022-06-09T14:04:59Z</time>
      </trkpt>
      <trkpt lat="44.81781" lon="4.18155">
        <ele>1293</ele>
        <time>2022-06-09T14:05:00Z</time>
      </trkpt>
      <trkpt lat="44.8178" lon="4.18148">
        <ele>1292.8</ele>
        <time>2022-06-09T14:05:01Z</time>
      </trkpt>
      <trkpt lat="44.81779" lon="4.18142">
        <ele>1292.6</ele>
        <time>2022-06-09T14:05:02Z</time>
      </trkpt>
      <trkpt lat="44.81778" lon="4.18135">
        <ele>1292.4</ele>
        <time>2022-06-09T14:05:03Z</time>
      </trkpt>
      <trkpt lat="44.81777" lon="4.18129">
        <ele>1292.3</ele>
        <time>2022-06-09T14:05:04Z</time>
      </trkpt>
      <trkpt lat="44.81777" lon="4.18123">
        <ele>1292.1</ele>
        <time>2022-06-09T14:05:05Z</time>
      </trkpt>
      <trkpt lat="44.81776" lon="4.18117">
        <ele>1291.9</ele>
        <time>2022-06-09T14:05:06Z</time>
      </trkpt>
      <trkpt lat="44.81775" lon="4.18111">
        <ele>1291.7</ele>
        <time>2022-06-09T14:05:07Z</time>
      </trkpt>
      <trkpt lat="44.81774" lon="4.18104">
        <ele>1291.5</ele>
        <time>2022-06-09T14:05:08Z</time>
      </trkpt>
      <trkpt lat="44.81773" lon="4.18097">
        <ele>1291.2</ele>
        <time>2022-06-09T14:05:09Z</time>
      </trkpt>
      <trkpt lat="44.81772" lon="4.1809">
        <ele>1291</ele>
        <time>2022-06-09T14:05:10Z</time>
      </trkpt>
      <trkpt lat="44.81771" lon="4.18083">
        <ele>1290.8</ele>
        <time>2022-06-09T14:05:11Z</time>
      </trkpt>
      <trkpt lat="44.8177" lon="4.18075">
        <ele>1290.6</ele>
        <time>2022-06-09T14:05:12Z</time>
      </trkpt>
      <trkpt lat="44.81769" lon="4.18068">
        <ele>1290.3</ele>
        <time>2022-06-09T14:05:13Z</time>
      </trkpt>
      <trkpt lat="44.81769" lon="4.18061">
        <ele>1290.1</ele>
        <time>2022-06-09T14:05:14Z</time>
      </trkpt>
      <trkpt lat="44.81768" lon="4.18054">
        <ele>1289.8</ele>
        <time>2022-06-09T14:05:15Z</time>
      </trkpt>
      <trkpt lat="44.81767" lon="4.18047">
        <ele>1289.6</ele>
        <time>2022-06-09T14:05:16Z</time>
      </trkpt>
      <trkpt lat="44.81766" lon="4.1804">
        <ele>1289.4</ele>
        <time>2022-06-09T14:05:17Z</time>
      </trkpt>
      <trkpt lat="44.81765" lon="4.18033">
        <ele>1289.1</ele>
        <time>2022-06-09T14:05:18Z</time>
      </trkpt>
      <trkpt lat="44.81764" lon="4.18025">
        <ele>1288.8</ele>
        <time>2022-06-09T14:05:19Z</time>
      </trkpt>
      <trkpt lat="44.81763" lon="4.18018">
        <ele>1288.5</ele>
        <time>2022-06-09T14:05:20Z</time>
      </trkpt>
      <trkpt lat="44.81762" lon="4.1801">
        <ele>1288.2</ele>
        <time>2022-06-09T14:05:21Z</time>
      </trkpt>
      <trkpt lat="44.8176" lon="4.18001">
        <ele>1287.9</ele>
        <time>2022-06-09T14:05:22Z</time>
      </trkpt>
      <trkpt lat="44.81759" lon="4.17992">
        <ele>1287.5</ele>
        <time>2022-06-09T14:05:23Z</time>
      </trkpt>
      <trkpt lat="44.81758" lon="4.17983">
        <ele>1287.2</ele>
        <time>2022-06-09T14:05:24Z</time>
      </trkpt>
      <trkpt lat="44.81756" lon="4.17974">
        <ele>1286.8</ele>
        <time>2022-06-09T14:05:25Z</time>
      </trkpt>
      <trkpt lat="44.81755" lon="4.17965">
        <ele>1286.4</ele>
        <time>2022-06-09T14:05:26Z</time>
      </trkpt>
      <trkpt lat="44.81754" lon="4.17955">
        <ele>1286</ele>
        <time>2022-06-09T14:05:27Z</time>
      </trkpt>
      <trkpt lat="44.81752" lon="4.17946">
        <ele>1285.6</ele>
        <time>2022-06-09T14:05:28Z</time>
      </trkpt>
      <trkpt lat="44.81751" lon="4.17936">
        <ele>1285.2</ele>
        <time>2022-06-09T14:05:29Z</time>
      </trkpt>
      <trkpt lat="44.81749" lon="4.17927">
        <ele>1284.8</ele>
        <time>2022-06-09T14:05:30Z</time>
      </trkpt>
      <trkpt lat="44.81747" lon="4.17917">
        <ele>1284.4</ele>
        <time>2022-06-09T14:05:31Z</time>
      </trkpt>
      <trkpt lat="44.81745" lon="4.17907">
        <ele>1284</ele>
        <time>2022-06-09T14:05:32Z</time>
      </trkpt>
      <trkpt lat="44.81743" lon="4.17896">
        <ele>1283.6</ele>
        <time>2022-06-09T14:05:33Z</time>
      </trkpt>
      <trkpt lat="44.81742" lon="4.17885">
        <ele>1283.1</ele>
        <time>2022-06-09T14:05:34Z</time>
      </trkpt>
      <trkpt lat="44.8174" lon="4.17873">
        <ele>1282.7</ele>
        <time>2022-06-09T14:05:35Z</time>
      </trkpt>
      <trkpt lat="44.81738" lon="4.17862">
        <ele>1282.2</ele>
        <time>2022-06-09T14:05:36Z</time>
      </trkpt>
      <trkpt lat="44.81736" lon="4.1785">
        <ele>1281.8</ele>
        <time>2022-06-09T14:05:37Z</time>
      </trkpt>
      <trkpt lat="44.81735" lon="4.17839">
        <ele>1281.4</ele>
        <time>2022-06-09T14:05:38Z</time>
      </trkpt>
      <trkpt lat="44.81733" lon="4.17828">
        <ele>1281</ele>
        <time>2022-06-09T14:05:39Z</time>
      </trkpt>
      <trkpt lat="44.81731" lon="4.17816">
        <ele>1280.6</ele>
        <time>2022-06-09T14:05:40Z</time>
      </trkpt>
      <trkpt lat="44.8173" lon="4.17804">
        <ele>1280.1</ele>
        <time>2022-06-09T14:05:41Z</time>
      </trkpt>
      <trkpt lat="44.81728" lon="4.17793">
        <ele>1279.7</ele>
        <time>2022-06-09T14:05:42Z</time>
      </trkpt>
      <trkpt lat="44.81726" lon="4.17781">
        <ele>1279.3</ele>
        <time>2022-06-09T14:05:43Z</time>
      </trkpt>
      <trkpt lat="44.81724" lon="4.17769">
        <ele>1278.9</ele>
        <time>2022-06-09T14:05:44Z</time>
      </trkpt>
      <trkpt lat="44.81722" lon="4.17758">
        <ele>1278.5</ele>
        <time>2022-06-09T14:05:45Z</time>
      </trkpt>
      <trkpt lat="44.81721" lon="4.17746">
        <ele>1278.1</ele>
        <time>2022-06-09T14:05:46Z</time>
      </trkpt>
      <trkpt lat="44.81719" lon="4.17734">
        <ele>1277.8</ele>
        <time>2022-06-09T14:05:47Z</time>
      </trkpt>
      <trkpt lat="44.81717" lon="4.17722">
        <ele>1277.5</ele>
        <time>2022-06-09T14:05:48Z</time>
      </trkpt>
      <trkpt lat="44.81716" lon="4.1771">
        <ele>1277.3</ele>
        <time>2022-06-09T14:05:49Z</time>
      </trkpt>
      <trkpt lat="44.81715" lon="4.17699">
        <ele>1277.1</ele>
        <time>2022-06-09T14:05:50Z</time>
      </trkpt>
      <trkpt lat="44.81715" lon="4.17687">
        <ele>1276.9</ele>
        <time>2022-06-09T14:05:51Z</time>
      </trkpt>
      <trkpt lat="44.81715" lon="4.17675">
        <ele>1276.6</ele>
        <time>2022-06-09T14:05:52Z</time>
      </trkpt>
      <trkpt lat="44.81716" lon="4.17664">
        <ele>1276.3</ele>
        <time>2022-06-09T14:05:53Z</time>
      </trkpt>
      <trkpt lat="44.81719" lon="4.17653">
        <ele>1276</ele>
        <time>2022-06-09T14:05:54Z</time>
      </trkpt>
      <trkpt lat="44.81721" lon="4.17642">
        <ele>1275.7</ele>
        <time>2022-06-09T14:05:55Z</time>
      </trkpt>
      <trkpt lat="44.81725" lon="4.17632">
        <ele>1275.5</ele>
        <time>2022-06-09T14:05:56Z</time>
      </trkpt>
      <trkpt lat="44.81729" lon="4.17623">
        <ele>1275.2</ele>
        <time>2022-06-09T14:05:57Z</time>
      </trkpt>
      <trkpt lat="44.81734" lon="4.17616">
        <ele>1274.9</ele>
        <time>2022-06-09T14:05:58Z</time>
      </trkpt>
      <trkpt lat="44.81738" lon="4.1761">
        <ele>1274.7</ele>
        <time>2022-06-09T14:05:59Z</time>
      </trkpt>
      <trkpt lat="44.81743" lon="4.17604">
        <ele>1274.4</ele>
        <time>2022-06-09T14:06:00Z</time>
      </trkpt>
      <trkpt lat="44.81747" lon="4.17598">
        <ele>1274.1</ele>
        <time>2022-06-09T14:06:01Z</time>
      </trkpt>
      <trkpt lat="44.81752" lon="4.17593">
        <ele>1273.9</ele>
        <time>2022-06-09T14:06:02Z</time>
      </trkpt>
      <trkpt lat="44.81756" lon="4.17588">
        <ele>1273.6</ele>
        <time>2022-06-09T14:06:03Z</time>
      </trkpt>
      <trkpt lat="44.81761" lon="4.17582">
        <ele>1273.4</ele>
        <time>2022-06-09T14:06:04Z</time>
      </trkpt>
      <trkpt lat="44.81765" lon="4.17577">
        <ele>1273.1</ele>
        <time>2022-06-09T14:06:05Z</time>
      </trkpt>
      <trkpt lat="44.8177" lon="4.17572">
        <ele>1272.9</ele>
        <time>2022-06-09T14:06:06Z</time>
      </trkpt>
      <trkpt lat="44.81774" lon="4.17566">
        <ele>1272.6</ele>
        <time>2022-06-09T14:06:07Z</time>
      </trkpt>
      <trkpt lat="44.81779" lon="4.17561">
        <ele>1272.4</ele>
        <time>2022-06-09T14:06:08Z</time>
      </trkpt>
      <trkpt lat="44.81783" lon="4.17555">
        <ele>1272.1</ele>
        <time>2022-06-09T14:06:09Z</time>
      </trkpt>
      <trkpt lat="44.81788" lon="4.1755">
        <ele>1271.9</ele>
        <time>2022-06-09T14:06:10Z</time>
      </trkpt>
      <trkpt lat="44.81792" lon="4.17545">
        <ele>1271.7</ele>
        <time>2022-06-09T14:06:11Z</time>
      </trkpt>
      <trkpt lat="44.81796" lon="4.1754">
        <ele>1271.5</ele>
        <time>2022-06-09T14:06:12Z</time>
      </trkpt>
      <trkpt lat="44.81801" lon="4.17534">
        <ele>1271.2</ele>
        <time>2022-06-09T14:06:13Z</time>
      </trkpt>
      <trkpt lat="44.81805" lon="4.17529">
        <ele>1271</ele>
        <time>2022-06-09T14:06:14Z</time>
      </trkpt>
      <trkpt lat="44.8181" lon="4.17524">
        <ele>1270.7</ele>
        <time>2022-06-09T14:06:15Z</time>
      </trkpt>
      <trkpt lat="44.81814" lon="4.17519">
        <ele>1270.4</ele>
        <time>2022-06-09T14:06:16Z</time>
      </trkpt>
      <trkpt lat="44.81819" lon="4.17515">
        <ele>1270.1</ele>
        <time>2022-06-09T14:06:17Z</time>
      </trkpt>
      <trkpt lat="44.81823" lon="4.1751">
        <ele>1269.9</ele>
        <time>2022-06-09T14:06:18Z</time>
      </trkpt>
      <trkpt lat="44.81827" lon="4.17504">
        <ele>1269.6</ele>
        <time>2022-06-09T14:06:19Z</time>
      </trkpt>
      <trkpt lat="44.81831" lon="4.17498">
        <ele>1269.3</ele>
        <time>2022-06-09T14:06:20Z</time>
      </trkpt>
      <trkpt lat="44.81836" lon="4.17494">
        <ele>1269</ele>
        <time>2022-06-09T14:06:21Z</time>
      </trkpt>
      <trkpt lat="44.8184" lon="4.17489">
        <ele>1268.7</ele>
        <time>2022-06-09T14:06:22Z</time>
      </trkpt>
      <trkpt lat="44.81845" lon="4.17484">
        <ele>1268.4</ele>
        <time>2022-06-09T14:06:23Z</time>
      </trkpt>
      <trkpt lat="44.81849" lon="4.17479">
        <ele>1268.1</ele>
        <time>2022-06-09T14:06:24Z</time>
      </trkpt>
      <trkpt lat="44.81854" lon="4.17473">
        <ele>1267.8</ele>
        <time>2022-06-09T14:06:25Z</time>
      </trkpt>
      <trkpt lat="44.81858" lon="4.17467">
        <ele>1267.4</ele>
        <time>2022-06-09T14:06:26Z</time>
      </trkpt>
      <trkpt lat="44.81862" lon="4.17461">
        <ele>1267.1</ele>
        <time>2022-06-09T14:06:27Z</time>
      </trkpt>
      <trkpt lat="44.81867" lon="4.17454">
        <ele>1266.8</ele>
        <time>2022-06-09T14:06:28Z</time>
      </trkpt>
      <trkpt lat="44.8187" lon="4.17447">
        <ele>1266.4</ele>
        <time>2022-06-09T14:06:29Z</time>
      </trkpt>
      <trkpt lat="44.81873" lon="4.17438">
        <ele>1266.1</ele>
        <time>2022-06-09T14:06:30Z</time>
      </trkpt>
      <trkpt lat="44.81876" lon="4.17429">
        <ele>1265.7</ele>
        <time>2022-06-09T14:06:31Z</time>
      </trkpt>
      <trkpt lat="44.81878" lon="4.1742">
        <ele>1265.3</ele>
        <time>2022-06-09T14:06:32Z</time>
      </trkpt>
      <trkpt lat="44.81881" lon="4.17411">
        <ele>1264.9</ele>
        <time>2022-06-09T14:06:33Z</time>
      </trkpt>
      <trkpt lat="44.81883" lon="4.17402">
        <ele>1264.5</ele>
        <time>2022-06-09T14:06:34Z</time>
      </trkpt>
      <trkpt lat="44.81886" lon="4.17392">
        <ele>1264.1</ele>
        <time>2022-06-09T14:06:35Z</time>
      </trkpt>
      <trkpt lat="44.81888" lon="4.17383">
        <ele>1263.7</ele>
        <time>2022-06-09T14:06:36Z</time>
      </trkpt>
      <trkpt lat="44.81891" lon="4.17374">
        <ele>1263.2</ele>
        <time>2022-06-09T14:06:37Z</time>
      </trkpt>
      <trkpt lat="44.81893" lon="4.17365">
        <ele>1262.8</ele>
        <time>2022-06-09T14:06:38Z</time>
      </trkpt>
      <trkpt lat="44.81895" lon="4.17356">
        <ele>1262.4</ele>
        <time>2022-06-09T14:06:39Z</time>
      </trkpt>
      <trkpt lat="44.81897" lon="4.17346">
        <ele>1262.1</ele>
        <time>2022-06-09T14:06:40Z</time>
      </trkpt>
      <trkpt lat="44.819" lon="4.17337">
        <ele>1261.7</ele>
        <time>2022-06-09T14:06:41Z</time>
      </trkpt>
      <trkpt lat="44.81902" lon="4.17328">
        <ele>1261.3</ele>
        <time>2022-06-09T14:06:42Z</time>
      </trkpt>
      <trkpt lat="44.81905" lon="4.17319">
        <ele>1261</ele>
        <time>2022-06-09T14:06:43Z</time>
      </trkpt>
      <trkpt lat="44.81907" lon="4.17311">
        <ele>1260.6</ele>
        <time>2022-06-09T14:06:44Z</time>
      </trkpt>
      <trkpt lat="44.81909" lon="4.17302">
        <ele>1260.3</ele>
        <time>2022-06-09T14:06:45Z</time>
      </trkpt>
      <trkpt lat="44.81912" lon="4.17293">
        <ele>1259.9</ele>
        <time>2022-06-09T14:06:46Z</time>
      </trkpt>
      <trkpt lat="44.81914" lon="4.17284">
        <ele>1259.5</ele>
        <time>2022-06-09T14:06:47Z</time>
      </trkpt>
      <trkpt lat="44.81917" lon="4.17275">
        <ele>1259.2</ele>
        <time>2022-06-09T14:06:48Z</time>
      </trkpt>
      <trkpt lat="44.8192" lon="4.17266">
        <ele>1258.8</ele>
        <time>2022-06-09T14:06:49Z</time>
      </trkpt>
      <trkpt lat="44.81923" lon="4.17257">
        <ele>1258.4</ele>
        <time>2022-06-09T14:06:50Z</time>
      </trkpt>
      <trkpt lat="44.81926" lon="4.17248">
        <ele>1258</ele>
        <time>2022-06-09T14:06:51Z</time>
      </trkpt>
      <trkpt lat="44.81929" lon="4.17239">
        <ele>1257.6</ele>
        <time>2022-06-09T14:06:52Z</time>
      </trkpt>
      <trkpt lat="44.81933" lon="4.17231">
        <ele>1257.2</ele>
        <time>2022-06-09T14:06:53Z</time>
      </trkpt>
      <trkpt lat="44.81937" lon="4.17223">
        <ele>1256.8</ele>
        <time>2022-06-09T14:06:54Z</time>
      </trkpt>
      <trkpt lat="44.81941" lon="4.17215">
        <ele>1256.4</ele>
        <time>2022-06-09T14:06:55Z</time>
      </trkpt>
      <trkpt lat="44.81946" lon="4.17207">
        <ele>1256</ele>
        <time>2022-06-09T14:06:56Z</time>
      </trkpt>
      <trkpt lat="44.81951" lon="4.172">
        <ele>1255.6</ele>
        <time>2022-06-09T14:06:57Z</time>
      </trkpt>
      <trkpt lat="44.81956" lon="4.17193">
        <ele>1255.3</ele>
        <time>2022-06-09T14:06:58Z</time>
      </trkpt>
      <trkpt lat="44.81962" lon="4.17186">
        <ele>1254.9</ele>
        <time>2022-06-09T14:06:59Z</time>
      </trkpt>
      <trkpt lat="44.81968" lon="4.1718">
        <ele>1254.6</ele>
        <time>2022-06-09T14:07:00Z</time>
      </trkpt>
      <trkpt lat="44.81974" lon="4.17174">
        <ele>1254.3</ele>
        <time>2022-06-09T14:07:01Z</time>
      </trkpt>
      <trkpt lat="44.8198" lon="4.17169">
        <ele>1254</ele>
        <time>2022-06-09T14:07:02Z</time>
      </trkpt>
      <trkpt lat="44.81986" lon="4.17165">
        <ele>1253.8</ele>
        <time>2022-06-09T14:07:03Z</time>
      </trkpt>
      <trkpt lat="44.81992" lon="4.1716">
        <ele>1253.6</ele>
        <time>2022-06-09T14:07:04Z</time>
      </trkpt>
      <trkpt lat="44.81998" lon="4.17155">
        <ele>1253.6</ele>
        <time>2022-06-09T14:07:05Z</time>
      </trkpt>
      <trkpt lat="44.82004" lon="4.17151">
        <ele>1253.6</ele>
        <time>2022-06-09T14:07:06Z</time>
      </trkpt>
      <trkpt lat="44.8201" lon="4.17146">
        <ele>1253.6</ele>
        <time>2022-06-09T14:07:07Z</time>
      </trkpt>
      <trkpt lat="44.82015" lon="4.17143">
        <ele>1253.6</ele>
        <time>2022-06-09T14:07:08Z</time>
      </trkpt>
      <trkpt lat="44.8202" lon="4.17139">
        <ele>1253.6</ele>
        <time>2022-06-09T14:07:09Z</time>
      </trkpt>
      <trkpt lat="44.82025" lon="4.17135">
        <ele>1253.6</ele>
        <time>2022-06-09T14:07:10Z</time>
      </trkpt>
      <trkpt lat="44.82029" lon="4.17131">
        <ele>1253.6</ele>
        <time>2022-06-09T14:07:11Z</time>
      </trkpt>
      <trkpt lat="44.82034" lon="4.17127">
        <ele>1253.6</ele>
        <time>2022-06-09T14:07:12Z</time>
      </trkpt>
      <trkpt lat="44.82038" lon="4.17123">
        <ele>1253.6</ele>
        <time>2022-06-09T14:07:13Z</time>
      </trkpt>
      <trkpt lat="44.82042" lon="4.1712">
        <ele>1253.6</ele>
        <time>2022-06-09T14:07:14Z</time>
      </trkpt>
      <trkpt lat="44.82046" lon="4.17116">
        <ele>1253.6</ele>
        <time>2022-06-09T14:07:15Z</time>
      </trkpt>
      <trkpt lat="44.82049" lon="4.17112">
        <ele>1253.7</ele>
        <time>2022-06-09T14:07:16Z</time>
      </trkpt>
      <trkpt lat="44.82051" lon="4.17109">
        <ele>1253.7</ele>
        <time>2022-06-09T14:07:17Z</time>
      </trkpt>
      <trkpt lat="44.82054" lon="4.17106">
        <ele>1253.8</ele>
        <time>2022-06-09T14:07:18Z</time>
      </trkpt>
      <trkpt lat="44.82057" lon="4.17103">
        <ele>1253.8</ele>
        <time>2022-06-09T14:07:19Z</time>
      </trkpt>
      <trkpt lat="44.8206" lon="4.17099">
        <ele>1253.9</ele>
        <time>2022-06-09T14:07:20Z</time>
      </trkpt>
      <trkpt lat="44.82063" lon="4.17095">
        <ele>1254</ele>
        <time>2022-06-09T14:07:21Z</time>
      </trkpt>
      <trkpt lat="44.82065" lon="4.17091">
        <ele>1254.1</ele>
        <time>2022-06-09T14:07:22Z</time>
      </trkpt>
      <trkpt lat="44.82067" lon="4.17086">
        <ele>1254.2</ele>
        <time>2022-06-09T14:07:23Z</time>
      </trkpt>
      <trkpt lat="44.82068" lon="4.17082">
        <ele>1254.2</ele>
        <time>2022-06-09T14:07:24Z</time>
      </trkpt>
      <trkpt lat="44.82072" lon="4.17075">
        <ele>1254.4</ele>
        <time>2022-06-09T14:07:25Z</time>
      </trkpt>
      <trkpt lat="44.82076" lon="4.1707">
        <ele>1254.5</ele>
        <time>2022-06-09T14:07:27Z</time>
      </trkpt>
      <trkpt lat="44.82079" lon="4.17064">
        <ele>1254.7</ele>
        <time>2022-06-09T14:07:28Z</time>
      </trkpt>
      <trkpt lat="44.82081" lon="4.17059">
        <ele>1254.8</ele>
        <time>2022-06-09T14:07:29Z</time>
      </trkpt>
      <trkpt lat="44.82083" lon="4.17054">
        <ele>1255</ele>
        <time>2022-06-09T14:07:31Z</time>
      </trkpt>
      <trkpt lat="44.82085" lon="4.17049">
        <ele>1255.1</ele>
        <time>2022-06-09T14:07:32Z</time>
      </trkpt>
      <trkpt lat="44.82087" lon="4.17045">
        <ele>1255.2</ele>
        <time>2022-06-09T14:07:33Z</time>
      </trkpt>
      <trkpt lat="44.82088" lon="4.17039">
        <ele>1255.4</ele>
        <time>2022-06-09T14:07:34Z</time>
      </trkpt>
      <trkpt lat="44.82089" lon="4.17035">
        <ele>1255.5</ele>
        <time>2022-06-09T14:07:36Z</time>
      </trkpt>
      <trkpt lat="44.82091" lon="4.1703">
        <ele>1255.6</ele>
        <time>2022-06-09T14:07:37Z</time>
      </trkpt>
      <trkpt lat="44.82093" lon="4.17026">
        <ele>1255.7</ele>
        <time>2022-06-09T14:07:38Z</time>
      </trkpt>
      <trkpt lat="44.82094" lon="4.17022">
        <ele>1255.8</ele>
        <time>2022-06-09T14:07:39Z</time>
      </trkpt>
      <trkpt lat="44.82095" lon="4.17018">
        <ele>1255.9</ele>
        <time>2022-06-09T14:07:40Z</time>
      </trkpt>
      <trkpt lat="44.82096" lon="4.17013">
        <ele>1256</ele>
        <time>2022-06-09T14:07:41Z</time>
      </trkpt>
      <trkpt lat="44.82097" lon="4.17009">
        <ele>1256.1</ele>
        <time>2022-06-09T14:07:43Z</time>
      </trkpt>
      <trkpt lat="44.82098" lon="4.17005">
        <ele>1256.2</ele>
        <time>2022-06-09T14:07:44Z</time>
      </trkpt>
      <trkpt lat="44.821" lon="4.16998">
        <ele>1256.3</ele>
        <time>2022-06-09T14:07:46Z</time>
      </trkpt>
      <trkpt lat="44.82102" lon="4.16993">
        <ele>1256.5</ele>
        <time>2022-06-09T14:07:47Z</time>
      </trkpt>
      <trkpt lat="44.82102" lon="4.16991">
        <ele>1256.5</ele>
        <time>2022-06-09T14:07:48Z</time>
      </trkpt>
      <trkpt lat="44.82104" lon="4.16988">
        <ele>1256.6</ele>
        <time>2022-06-09T14:07:49Z</time>
      </trkpt>
      <trkpt lat="44.82106" lon="4.16983">
        <ele>1256.7</ele>
        <time>2022-06-09T14:07:50Z</time>
      </trkpt>
      <trkpt lat="44.82106" lon="4.16981">
        <ele>1256.7</ele>
        <time>2022-06-09T14:07:51Z</time>
      </trkpt>
      <trkpt lat="44.82107" lon="4.16975">
        <ele>1256.9</ele>
        <time>2022-06-09T14:07:52Z</time>
      </trkpt>
      <trkpt lat="44.82108" lon="4.16974">
        <ele>1256.9</ele>
        <time>2022-06-09T14:07:53Z</time>
      </trkpt>
      <trkpt lat="44.82109" lon="4.16969">
        <ele>1257</ele>
        <time>2022-06-09T14:07:54Z</time>
      </trkpt>
      <trkpt lat="44.8211" lon="4.16968">
        <ele>1257.1</ele>
        <time>2022-06-09T14:07:55Z</time>
      </trkpt>
      <trkpt lat="44.82111" lon="4.16963">
        <ele>1257.2</ele>
        <time>2022-06-09T14:07:56Z</time>
      </trkpt>
      <trkpt lat="44.82112" lon="4.16961">
        <ele>1257.2</ele>
        <time>2022-06-09T14:07:57Z</time>
      </trkpt>
      <trkpt lat="44.82113" lon="4.16956">
        <ele>1257.3</ele>
        <time>2022-06-09T14:07:58Z</time>
      </trkpt>
      <trkpt lat="44.82113" lon="4.16954">
        <ele>1257.4</ele>
        <time>2022-06-09T14:07:59Z</time>
      </trkpt>
      <trkpt lat="44.82115" lon="4.1695">
        <ele>1257.5</ele>
        <time>2022-06-09T14:08:00Z</time>
      </trkpt>
      <trkpt lat="44.82115" lon="4.16948">
        <ele>1257.5</ele>
        <time>2022-06-09T14:08:01Z</time>
      </trkpt>
      <trkpt lat="44.82117" lon="4.16944">
        <ele>1257.6</ele>
        <time>2022-06-09T14:08:02Z</time>
      </trkpt>
      <trkpt lat="44.82118" lon="4.16942">
        <ele>1257.6</ele>
        <time>2022-06-09T14:08:03Z</time>
      </trkpt>
      <trkpt lat="44.82119" lon="4.16938">
        <ele>1257.7</ele>
        <time>2022-06-09T14:08:05Z</time>
      </trkpt>
      <trkpt lat="44.82119" lon="4.16936">
        <ele>1257.7</ele>
        <time>2022-06-09T14:08:06Z</time>
      </trkpt>
      <trkpt lat="44.82121" lon="4.16932">
        <ele>1257.8</ele>
        <time>2022-06-09T14:08:07Z</time>
      </trkpt>
      <trkpt lat="44.82122" lon="4.16928">
        <ele>1257.8</ele>
        <time>2022-06-09T14:08:08Z</time>
      </trkpt>
      <trkpt lat="44.82123" lon="4.16924">
        <ele>1257.9</ele>
        <time>2022-06-09T14:08:10Z</time>
      </trkpt>
      <trkpt lat="44.82124" lon="4.16919">
        <ele>1258</ele>
        <time>2022-06-09T14:08:11Z</time>
      </trkpt>
      <trkpt lat="44.82125" lon="4.16915">
        <ele>1258.1</ele>
        <time>2022-06-09T14:08:13Z</time>
      </trkpt>
      <trkpt lat="44.82126" lon="4.1691">
        <ele>1258.2</ele>
        <time>2022-06-09T14:08:14Z</time>
      </trkpt>
      <trkpt lat="44.82128" lon="4.16906">
        <ele>1258.3</ele>
        <time>2022-06-09T14:08:15Z</time>
      </trkpt>
      <trkpt lat="44.82129" lon="4.16903">
        <ele>1258.4</ele>
        <time>2022-06-09T14:08:16Z</time>
      </trkpt>
      <trkpt lat="44.82131" lon="4.16897">
        <ele>1258.6</ele>
        <time>2022-06-09T14:08:18Z</time>
      </trkpt>
      <trkpt lat="44.82132" lon="4.16894">
        <ele>1258.7</ele>
        <time>2022-06-09T14:08:19Z</time>
      </trkpt>
      <trkpt lat="44.82134" lon="4.16889">
        <ele>1258.8</ele>
        <time>2022-06-09T14:08:21Z</time>
      </trkpt>
      <trkpt lat="44.82134" lon="4.16888">
        <ele>1258.9</ele>
        <time>2022-06-09T14:08:22Z</time>
      </trkpt>
      <trkpt lat="44.82136" lon="4.16884">
        <ele>1259</ele>
        <time>2022-06-09T14:08:23Z</time>
      </trkpt>
      <trkpt lat="44.82138" lon="4.16879">
        <ele>1259.1</ele>
        <time>2022-06-09T14:08:24Z</time>
      </trkpt>
      <trkpt lat="44.82138" lon="4.16876">
        <ele>1259.2</ele>
        <time>2022-06-09T14:08:25Z</time>
      </trkpt>
      <trkpt lat="44.8214" lon="4.16873">
        <ele>1259.3</ele>
        <time>2022-06-09T14:08:27Z</time>
      </trkpt>
      <trkpt lat="44.82142" lon="4.16869">
        <ele>1259.5</ele>
        <time>2022-06-09T14:08:28Z</time>
      </trkpt>
      <trkpt lat="44.82142" lon="4.16867">
        <ele>1259.5</ele>
        <time>2022-06-09T14:08:29Z</time>
      </trkpt>
      <trkpt lat="44.82143" lon="4.16863">
        <ele>1259.6</ele>
        <time>2022-06-09T14:08:30Z</time>
      </trkpt>
      <trkpt lat="44.82143" lon="4.16861">
        <ele>1259.7</ele>
        <time>2022-06-09T14:08:31Z</time>
      </trkpt>
      <trkpt lat="44.82145" lon="4.16856">
        <ele>1259.8</ele>
        <time>2022-06-09T14:08:32Z</time>
      </trkpt>
      <trkpt lat="44.82146" lon="4.16853">
        <ele>1259.9</ele>
        <time>2022-06-09T14:08:33Z</time>
      </trkpt>
      <trkpt lat="44.82147" lon="4.1685">
        <ele>1259.9</ele>
        <time>2022-06-09T14:08:34Z</time>
      </trkpt>
      <trkpt lat="44.82148" lon="4.16847">
        <ele>1260</ele>
        <time>2022-06-09T14:08:36Z</time>
      </trkpt>
      <trkpt lat="44.82149" lon="4.16842">
        <ele>1260.1</ele>
        <time>2022-06-09T14:08:37Z</time>
      </trkpt>
      <trkpt lat="44.8215" lon="4.16838">
        <ele>1260.2</ele>
        <time>2022-06-09T14:08:38Z</time>
      </trkpt>
      <trkpt lat="44.82151" lon="4.16835">
        <ele>1260.3</ele>
        <time>2022-06-09T14:08:39Z</time>
      </trkpt>
      <trkpt lat="44.82153" lon="4.1683">
        <ele>1260.4</ele>
        <time>2022-06-09T14:08:41Z</time>
      </trkpt>
      <trkpt lat="44.82154" lon="4.16826">
        <ele>1260.5</ele>
        <time>2022-06-09T14:08:42Z</time>
      </trkpt>
      <trkpt lat="44.82155" lon="4.16824">
        <ele>1260.6</ele>
        <time>2022-06-09T14:08:43Z</time>
      </trkpt>
      <trkpt lat="44.82156" lon="4.16821">
        <ele>1260.6</ele>
        <time>2022-06-09T14:08:44Z</time>
      </trkpt>
      <trkpt lat="44.82158" lon="4.16816">
        <ele>1260.7</ele>
        <time>2022-06-09T14:08:45Z</time>
      </trkpt>
      <trkpt lat="44.82158" lon="4.16814">
        <ele>1260.8</ele>
        <time>2022-06-09T14:08:46Z</time>
      </trkpt>
      <trkpt lat="44.82159" lon="4.16811">
        <ele>1260.8</ele>
        <time>2022-06-09T14:08:47Z</time>
      </trkpt>
      <trkpt lat="44.82161" lon="4.16806">
        <ele>1260.9</ele>
        <time>2022-06-09T14:08:48Z</time>
      </trkpt>
      <trkpt lat="44.82161" lon="4.16804">
        <ele>1260.9</ele>
        <time>2022-06-09T14:08:49Z</time>
      </trkpt>
      <trkpt lat="44.82163" lon="4.168">
        <ele>1260.9</ele>
        <time>2022-06-09T14:08:50Z</time>
      </trkpt>
      <trkpt lat="44.82166" lon="4.16792">
        <ele>1261</ele>
        <time>2022-06-09T14:08:51Z</time>
      </trkpt>
      <trkpt lat="44.82168" lon="4.16788">
        <ele>1261.1</ele>
        <time>2022-06-09T14:08:53Z</time>
      </trkpt>
      <trkpt lat="44.82169" lon="4.16783">
        <ele>1261.1</ele>
        <time>2022-06-09T14:08:54Z</time>
      </trkpt>
      <trkpt lat="44.8217" lon="4.16779">
        <ele>1261.1</ele>
        <time>2022-06-09T14:08:55Z</time>
      </trkpt>
      <trkpt lat="44.82172" lon="4.16775">
        <ele>1261.1</ele>
        <time>2022-06-09T14:08:56Z</time>
      </trkpt>
      <trkpt lat="44.82173" lon="4.16771">
        <ele>1261.2</ele>
        <time>2022-06-09T14:08:57Z</time>
      </trkpt>
      <trkpt lat="44.82173" lon="4.16766">
        <ele>1261.2</ele>
        <time>2022-06-09T14:08:58Z</time>
      </trkpt>
      <trkpt lat="44.82175" lon="4.16762">
        <ele>1261.2</ele>
        <time>2022-06-09T14:08:59Z</time>
      </trkpt>
      <trkpt lat="44.82176" lon="4.16758">
        <ele>1261.2</ele>
        <time>2022-06-09T14:09:00Z</time>
      </trkpt>
      <trkpt lat="44.82177" lon="4.16754">
        <ele>1261.2</ele>
        <time>2022-06-09T14:09:01Z</time>
      </trkpt>
      <trkpt lat="44.82179" lon="4.16749">
        <ele>1261.3</ele>
        <time>2022-06-09T14:09:02Z</time>
      </trkpt>
      <trkpt lat="44.8218" lon="4.16748">
        <ele>1261.3</ele>
        <time>2022-06-09T14:09:03Z</time>
      </trkpt>
      <trkpt lat="44.82181" lon="4.16744">
        <ele>1261.3</ele>
        <time>2022-06-09T14:09:04Z</time>
      </trkpt>
      <trkpt lat="44.82182" lon="4.16737">
        <ele>1261.3</ele>
        <time>2022-06-09T14:09:05Z</time>
      </trkpt>
      <trkpt lat="44.82183" lon="4.16733">
        <ele>1261.3</ele>
        <time>2022-06-09T14:09:07Z</time>
      </trkpt>
      <trkpt lat="44.82184" lon="4.16729">
        <ele>1261.4</ele>
        <time>2022-06-09T14:09:08Z</time>
      </trkpt>
      <trkpt lat="44.82186" lon="4.16725">
        <ele>1261.4</ele>
        <time>2022-06-09T14:09:09Z</time>
      </trkpt>
      <trkpt lat="44.82188" lon="4.16721">
        <ele>1261.4</ele>
        <time>2022-06-09T14:09:10Z</time>
      </trkpt>
      <trkpt lat="44.82189" lon="4.16717">
        <ele>1261.5</ele>
        <time>2022-06-09T14:09:11Z</time>
      </trkpt>
      <trkpt lat="44.82192" lon="4.16709">
        <ele>1261.5</ele>
        <time>2022-06-09T14:09:12Z</time>
      </trkpt>
      <trkpt lat="44.82194" lon="4.16701">
        <ele>1261.5</ele>
        <time>2022-06-09T14:09:14Z</time>
      </trkpt>
      <trkpt lat="44.82196" lon="4.16696">
        <ele>1261.5</ele>
        <time>2022-06-09T14:09:16Z</time>
      </trkpt>
      <trkpt lat="44.82197" lon="4.16692">
        <ele>1261.5</ele>
        <time>2022-06-09T14:09:17Z</time>
      </trkpt>
      <trkpt lat="44.82199" lon="4.16688">
        <ele>1261.5</ele>
        <time>2022-06-09T14:09:18Z</time>
      </trkpt>
      <trkpt lat="44.822" lon="4.16685">
        <ele>1261.5</ele>
        <time>2022-06-09T14:09:19Z</time>
      </trkpt>
      <trkpt lat="44.82201" lon="4.1668">
        <ele>1261.5</ele>
        <time>2022-06-09T14:09:20Z</time>
      </trkpt>
      <trkpt lat="44.82202" lon="4.16676">
        <ele>1261.5</ele>
        <time>2022-06-09T14:09:21Z</time>
      </trkpt>
      <trkpt lat="44.82204" lon="4.16671">
        <ele>1261.5</ele>
        <time>2022-06-09T14:09:22Z</time>
      </trkpt>
      <trkpt lat="44.82205" lon="4.16664">
        <ele>1261.5</ele>
        <time>2022-06-09T14:09:23Z</time>
      </trkpt>
      <trkpt lat="44.82207" lon="4.16657">
        <ele>1261.5</ele>
        <time>2022-06-09T14:09:25Z</time>
      </trkpt>
      <trkpt lat="44.82209" lon="4.16652">
        <ele>1261.5</ele>
        <time>2022-06-09T14:09:26Z</time>
      </trkpt>
      <trkpt lat="44.8221" lon="4.16645">
        <ele>1261.6</ele>
        <time>2022-06-09T14:09:27Z</time>
      </trkpt>
      <trkpt lat="44.82212" lon="4.1664">
        <ele>1261.6</ele>
        <time>2022-06-09T14:09:29Z</time>
      </trkpt>
      <trkpt lat="44.82214" lon="4.16631">
        <ele>1261.7</ele>
        <time>2022-06-09T14:09:30Z</time>
      </trkpt>
      <trkpt lat="44.82215" lon="4.16626">
        <ele>1261.7</ele>
        <time>2022-06-09T14:09:32Z</time>
      </trkpt>
      <trkpt lat="44.82215" lon="4.16621">
        <ele>1261.7</ele>
        <time>2022-06-09T14:09:33Z</time>
      </trkpt>
      <trkpt lat="44.82217" lon="4.16616">
        <ele>1261.8</ele>
        <time>2022-06-09T14:09:34Z</time>
      </trkpt>
      <trkpt lat="44.82218" lon="4.16607">
        <ele>1261.8</ele>
        <time>2022-06-09T14:09:35Z</time>
      </trkpt>
      <trkpt lat="44.82218" lon="4.16602">
        <ele>1261.9</ele>
        <time>2022-06-09T14:09:37Z</time>
      </trkpt>
      <trkpt lat="44.8222" lon="4.16594">
        <ele>1261.9</ele>
        <time>2022-06-09T14:09:38Z</time>
      </trkpt>
      <trkpt lat="44.82221" lon="4.16588">
        <ele>1262</ele>
        <time>2022-06-09T14:09:39Z</time>
      </trkpt>
      <trkpt lat="44.82221" lon="4.16583">
        <ele>1262</ele>
        <time>2022-06-09T14:09:41Z</time>
      </trkpt>
      <trkpt lat="44.82222" lon="4.16576">
        <ele>1262.1</ele>
        <time>2022-06-09T14:09:42Z</time>
      </trkpt>
      <trkpt lat="44.82222" lon="4.1657">
        <ele>1262.2</ele>
        <time>2022-06-09T14:09:43Z</time>
      </trkpt>
      <trkpt lat="44.82223" lon="4.16564">
        <ele>1262.2</ele>
        <time>2022-06-09T14:09:45Z</time>
      </trkpt>
      <trkpt lat="44.82224" lon="4.16557">
        <ele>1262.3</ele>
        <time>2022-06-09T14:09:46Z</time>
      </trkpt>
      <trkpt lat="44.82224" lon="4.16551">
        <ele>1262.4</ele>
        <time>2022-06-09T14:09:47Z</time>
      </trkpt>
      <trkpt lat="44.82225" lon="4.16546">
        <ele>1262.5</ele>
        <time>2022-06-09T14:09:48Z</time>
      </trkpt>
      <trkpt lat="44.82226" lon="4.16537">
        <ele>1262.7</ele>
        <time>2022-06-09T14:09:50Z</time>
      </trkpt>
      <trkpt lat="44.82226" lon="4.16528">
        <ele>1262.8</ele>
        <time>2022-06-09T14:09:52Z</time>
      </trkpt>
      <trkpt lat="44.82227" lon="4.16523">
        <ele>1262.9</ele>
        <time>2022-06-09T14:09:54Z</time>
      </trkpt>
      <trkpt lat="44.82227" lon="4.16519">
        <ele>1263</ele>
        <time>2022-06-09T14:09:55Z</time>
      </trkpt>
      <trkpt lat="44.82227" lon="4.16515">
        <ele>1263.1</ele>
        <time>2022-06-09T14:09:56Z</time>
      </trkpt>
      <trkpt lat="44.82228" lon="4.16512">
        <ele>1263.1</ele>
        <time>2022-06-09T14:09:57Z</time>
      </trkpt>
      <trkpt lat="44.82228" lon="4.16505">
        <ele>1263.3</ele>
        <time>2022-06-09T14:09:58Z</time>
      </trkpt>
      <trkpt lat="44.82228" lon="4.16502">
        <ele>1263.3</ele>
        <time>2022-06-09T14:09:59Z</time>
      </trkpt>
      <trkpt lat="44.82229" lon="4.16496">
        <ele>1263.4</ele>
        <time>2022-06-09T14:10:00Z</time>
      </trkpt>
      <trkpt lat="44.8223" lon="4.16492">
        <ele>1263.5</ele>
        <time>2022-06-09T14:10:01Z</time>
      </trkpt>
      <trkpt lat="44.82231" lon="4.16487">
        <ele>1263.6</ele>
        <time>2022-06-09T14:10:03Z</time>
      </trkpt>
      <trkpt lat="44.82231" lon="4.16481">
        <ele>1263.7</ele>
        <time>2022-06-09T14:10:04Z</time>
      </trkpt>
      <trkpt lat="44.82232" lon="4.16476">
        <ele>1263.8</ele>
        <time>2022-06-09T14:10:05Z</time>
      </trkpt>
      <trkpt lat="44.82233" lon="4.1647">
        <ele>1263.9</ele>
        <time>2022-06-09T14:10:06Z</time>
      </trkpt>
      <trkpt lat="44.82234" lon="4.16465">
        <ele>1264</ele>
        <time>2022-06-09T14:10:07Z</time>
      </trkpt>
      <trkpt lat="44.82236" lon="4.16458">
        <ele>1264.1</ele>
        <time>2022-06-09T14:10:09Z</time>
      </trkpt>
      <trkpt lat="44.82237" lon="4.16453">
        <ele>1264.2</ele>
        <time>2022-06-09T14:10:11Z</time>
      </trkpt>
      <trkpt lat="44.82239" lon="4.16445">
        <ele>1264.3</ele>
        <time>2022-06-09T14:10:12Z</time>
      </trkpt>
      <trkpt lat="44.8224" lon="4.16441">
        <ele>1264.3</ele>
        <time>2022-06-09T14:10:14Z</time>
      </trkpt>
      <trkpt lat="44.82241" lon="4.16437">
        <ele>1264.4</ele>
        <time>2022-06-09T14:10:15Z</time>
      </trkpt>
      <trkpt lat="44.82243" lon="4.16431">
        <ele>1264.5</ele>
        <time>2022-06-09T14:10:16Z</time>
      </trkpt>
      <trkpt lat="44.82244" lon="4.16426">
        <ele>1264.5</ele>
        <time>2022-06-09T14:10:17Z</time>
      </trkpt>
      <trkpt lat="44.82247" lon="4.16421">
        <ele>1264.6</ele>
        <time>2022-06-09T14:10:18Z</time>
      </trkpt>
      <trkpt lat="44.8225" lon="4.16412">
        <ele>1264.6</ele>
        <time>2022-06-09T14:10:20Z</time>
      </trkpt>
      <trkpt lat="44.82254" lon="4.16405">
        <ele>1264.6</ele>
        <time>2022-06-09T14:10:22Z</time>
      </trkpt>
      <trkpt lat="44.82255" lon="4.16401">
        <ele>1264.6</ele>
        <time>2022-06-09T14:10:23Z</time>
      </trkpt>
      <trkpt lat="44.82258" lon="4.16396">
        <ele>1264.5</ele>
        <time>2022-06-09T14:10:24Z</time>
      </trkpt>
      <trkpt lat="44.8226" lon="4.16391">
        <ele>1264.5</ele>
        <time>2022-06-09T14:10:25Z</time>
      </trkpt>
      <trkpt lat="44.82263" lon="4.16386">
        <ele>1264.5</ele>
        <time>2022-06-09T14:10:27Z</time>
      </trkpt>
      <trkpt lat="44.82265" lon="4.16382">
        <ele>1264.4</ele>
        <time>2022-06-09T14:10:28Z</time>
      </trkpt>
      <trkpt lat="44.82269" lon="4.16377">
        <ele>1264.3</ele>
        <time>2022-06-09T14:10:29Z</time>
      </trkpt>
      <trkpt lat="44.82272" lon="4.16372">
        <ele>1264.2</ele>
        <time>2022-06-09T14:10:30Z</time>
      </trkpt>
      <trkpt lat="44.82276" lon="4.16367">
        <ele>1264.1</ele>
        <time>2022-06-09T14:10:31Z</time>
      </trkpt>
      <trkpt lat="44.82279" lon="4.16363">
        <ele>1263.9</ele>
        <time>2022-06-09T14:10:32Z</time>
      </trkpt>
      <trkpt lat="44.82283" lon="4.16359">
        <ele>1263.8</ele>
        <time>2022-06-09T14:10:33Z</time>
      </trkpt>
      <trkpt lat="44.82286" lon="4.16355">
        <ele>1263.7</ele>
        <time>2022-06-09T14:10:34Z</time>
      </trkpt>
      <trkpt lat="44.8229" lon="4.16351">
        <ele>1263.5</ele>
        <time>2022-06-09T14:10:35Z</time>
      </trkpt>
      <trkpt lat="44.82294" lon="4.16347">
        <ele>1263.3</ele>
        <time>2022-06-09T14:10:36Z</time>
      </trkpt>
      <trkpt lat="44.82298" lon="4.16343">
        <ele>1263.2</ele>
        <time>2022-06-09T14:10:37Z</time>
      </trkpt>
      <trkpt lat="44.82303" lon="4.16339">
        <ele>1263</ele>
        <time>2022-06-09T14:10:38Z</time>
      </trkpt>
      <trkpt lat="44.82307" lon="4.16336">
        <ele>1262.8</ele>
        <time>2022-06-09T14:10:39Z</time>
      </trkpt>
      <trkpt lat="44.82312" lon="4.16332">
        <ele>1262.6</ele>
        <time>2022-06-09T14:10:40Z</time>
      </trkpt>
      <trkpt lat="44.82317" lon="4.16329">
        <ele>1262.4</ele>
        <time>2022-06-09T14:10:41Z</time>
      </trkpt>
      <trkpt lat="44.82321" lon="4.16326">
        <ele>1262.2</ele>
        <time>2022-06-09T14:10:42Z</time>
      </trkpt>
      <trkpt lat="44.82326" lon="4.16324">
        <ele>1262</ele>
        <time>2022-06-09T14:10:43Z</time>
      </trkpt>
      <trkpt lat="44.82331" lon="4.16321">
        <ele>1261.8</ele>
        <time>2022-06-09T14:10:44Z</time>
      </trkpt>
      <trkpt lat="44.82336" lon="4.16318">
        <ele>1261.6</ele>
        <time>2022-06-09T14:10:45Z</time>
      </trkpt>
      <trkpt lat="44.82341" lon="4.16315">
        <ele>1261.4</ele>
        <time>2022-06-09T14:10:46Z</time>
      </trkpt>
      <trkpt lat="44.82345" lon="4.16312">
        <ele>1261.2</ele>
        <time>2022-06-09T14:10:47Z</time>
      </trkpt>
      <trkpt lat="44.8235" lon="4.16309">
        <ele>1261</ele>
        <time>2022-06-09T14:10:48Z</time>
      </trkpt>
      <trkpt lat="44.82355" lon="4.16306">
        <ele>1260.7</ele>
        <time>2022-06-09T14:10:49Z</time>
      </trkpt>
      <trkpt lat="44.8236" lon="4.16303">
        <ele>1260.5</ele>
        <time>2022-06-09T14:10:50Z</time>
      </trkpt>
      <trkpt lat="44.82365" lon="4.16299">
        <ele>1260.3</ele>
        <time>2022-06-09T14:10:51Z</time>
      </trkpt>
      <trkpt lat="44.8237" lon="4.16296">
        <ele>1260.1</ele>
        <time>2022-06-09T14:10:52Z</time>
      </trkpt>
      <trkpt lat="44.82376" lon="4.16293">
        <ele>1259.9</ele>
        <time>2022-06-09T14:10:53Z</time>
      </trkpt>
      <trkpt lat="44.82381" lon="4.1629">
        <ele>1259.7</ele>
        <time>2022-06-09T14:10:54Z</time>
      </trkpt>
      <trkpt lat="44.82387" lon="4.16287">
        <ele>1259.5</ele>
        <time>2022-06-09T14:10:55Z</time>
      </trkpt>
      <trkpt lat="44.82393" lon="4.16284">
        <ele>1259.3</ele>
        <time>2022-06-09T14:10:56Z</time>
      </trkpt>
      <trkpt lat="44.82399" lon="4.1628">
        <ele>1259.3</ele>
        <time>2022-06-09T14:10:57Z</time>
      </trkpt>
      <trkpt lat="44.82405" lon="4.16277">
        <ele>1259.2</ele>
        <time>2022-06-09T14:10:58Z</time>
      </trkpt>
      <trkpt lat="44.82411" lon="4.16274">
        <ele>1259.1</ele>
        <time>2022-06-09T14:10:59Z</time>
      </trkpt>
      <trkpt lat="44.82417" lon="4.1627">
        <ele>1259</ele>
        <time>2022-06-09T14:11:00Z</time>
      </trkpt>
      <trkpt lat="44.82423" lon="4.16267">
        <ele>1258.8</ele>
        <time>2022-06-09T14:11:01Z</time>
      </trkpt>
      <trkpt lat="44.82429" lon="4.16263">
        <ele>1258.6</ele>
        <time>2022-06-09T14:11:02Z</time>
      </trkpt>
      <trkpt lat="44.82435" lon="4.1626">
        <ele>1258.4</ele>
        <time>2022-06-09T14:11:03Z</time>
      </trkpt>
      <trkpt lat="44.82441" lon="4.16256">
        <ele>1258.3</ele>
        <time>2022-06-09T14:11:04Z</time>
      </trkpt>
      <trkpt lat="44.82446" lon="4.16253">
        <ele>1258.1</ele>
        <time>2022-06-09T14:11:05Z</time>
      </trkpt>
      <trkpt lat="44.82452" lon="4.1625">
        <ele>1257.9</ele>
        <time>2022-06-09T14:11:06Z</time>
      </trkpt>
      <trkpt lat="44.82457" lon="4.16247">
        <ele>1257.7</ele>
        <time>2022-06-09T14:11:07Z</time>
      </trkpt>
      <trkpt lat="44.82462" lon="4.16243">
        <ele>1257.6</ele>
        <time>2022-06-09T14:11:08Z</time>
      </trkpt>
      <trkpt lat="44.82467" lon="4.1624">
        <ele>1257.4</ele>
        <time>2022-06-09T14:11:09Z</time>
      </trkpt>
      <trkpt lat="44.82473" lon="4.16237">
        <ele>1257.2</ele>
        <time>2022-06-09T14:11:10Z</time>
      </trkpt>
      <trkpt lat="44.82478" lon="4.16234">
        <ele>1257</ele>
        <time>2022-06-09T14:11:11Z</time>
      </trkpt>
      <trkpt lat="44.82483" lon="4.16231">
        <ele>1256.7</ele>
        <time>2022-06-09T14:11:12Z</time>
      </trkpt>
      <trkpt lat="44.82489" lon="4.16227">
        <ele>1256.5</ele>
        <time>2022-06-09T14:11:13Z</time>
      </trkpt>
      <trkpt lat="44.82494" lon="4.16223">
        <ele>1256.3</ele>
        <time>2022-06-09T14:11:14Z</time>
      </trkpt>
      <trkpt lat="44.82499" lon="4.16219">
        <ele>1256.1</ele>
        <time>2022-06-09T14:11:15Z</time>
      </trkpt>
      <trkpt lat="44.82504" lon="4.16215">
        <ele>1255.8</ele>
        <time>2022-06-09T14:11:16Z</time>
      </trkpt>
      <trkpt lat="44.8251" lon="4.16211">
        <ele>1255.5</ele>
        <time>2022-06-09T14:11:17Z</time>
      </trkpt>
      <trkpt lat="44.82516" lon="4.16207">
        <ele>1255.2</ele>
        <time>2022-06-09T14:11:18Z</time>
      </trkpt>
      <trkpt lat="44.82521" lon="4.16202">
        <ele>1254.9</ele>
        <time>2022-06-09T14:11:19Z</time>
      </trkpt>
      <trkpt lat="44.82527" lon="4.16197">
        <ele>1254.7</ele>
        <time>2022-06-09T14:11:20Z</time>
      </trkpt>
      <trkpt lat="44.82533" lon="4.16192">
        <ele>1254.4</ele>
        <time>2022-06-09T14:11:21Z</time>
      </trkpt>
      <trkpt lat="44.82538" lon="4.16187">
        <ele>1254.1</ele>
        <time>2022-06-09T14:11:22Z</time>
      </trkpt>
      <trkpt lat="44.82544" lon="4.16181">
        <ele>1253.8</ele>
        <time>2022-06-09T14:11:23Z</time>
      </trkpt>
      <trkpt lat="44.8255" lon="4.16176">
        <ele>1253.5</ele>
        <time>2022-06-09T14:11:24Z</time>
      </trkpt>
      <trkpt lat="44.82556" lon="4.16171">
        <ele>1253.2</ele>
        <time>2022-06-09T14:11:25Z</time>
      </trkpt>
      <trkpt lat="44.82561" lon="4.16166">
        <ele>1252.9</ele>
        <time>2022-06-09T14:11:26Z</time>
      </trkpt>
      <trkpt lat="44.82566" lon="4.16161">
        <ele>1252.7</ele>
        <time>2022-06-09T14:11:27Z</time>
      </trkpt>
      <trkpt lat="44.82571" lon="4.16155">
        <ele>1252.4</ele>
        <time>2022-06-09T14:11:28Z</time>
      </trkpt>
      <trkpt lat="44.82577" lon="4.1615">
        <ele>1252.1</ele>
        <time>2022-06-09T14:11:29Z</time>
      </trkpt>
      <trkpt lat="44.82582" lon="4.16145">
        <ele>1251.9</ele>
        <time>2022-06-09T14:11:30Z</time>
      </trkpt>
      <trkpt lat="44.82588" lon="4.16139">
        <ele>1251.6</ele>
        <time>2022-06-09T14:11:31Z</time>
      </trkpt>
      <trkpt lat="44.82594" lon="4.16134">
        <ele>1251.3</ele>
        <time>2022-06-09T14:11:32Z</time>
      </trkpt>
      <trkpt lat="44.82599" lon="4.16128">
        <ele>1251.1</ele>
        <time>2022-06-09T14:11:33Z</time>
      </trkpt>
      <trkpt lat="44.82605" lon="4.16123">
        <ele>1250.8</ele>
        <time>2022-06-09T14:11:34Z</time>
      </trkpt>
      <trkpt lat="44.82611" lon="4.16118">
        <ele>1250.5</ele>
        <time>2022-06-09T14:11:35Z</time>
      </trkpt>
      <trkpt lat="44.82616" lon="4.16113">
        <ele>1250.2</ele>
        <time>2022-06-09T14:11:36Z</time>
      </trkpt>
      <trkpt lat="44.82622" lon="4.16108">
        <ele>1249.9</ele>
        <time>2022-06-09T14:11:37Z</time>
      </trkpt>
      <trkpt lat="44.82627" lon="4.16102">
        <ele>1249.7</ele>
        <time>2022-06-09T14:11:38Z</time>
      </trkpt>
      <trkpt lat="44.82633" lon="4.16097">
        <ele>1249.4</ele>
        <time>2022-06-09T14:11:39Z</time>
      </trkpt>
      <trkpt lat="44.82639" lon="4.16092">
        <ele>1249.1</ele>
        <time>2022-06-09T14:11:40Z</time>
      </trkpt>
      <trkpt lat="44.82644" lon="4.16087">
        <ele>1248.8</ele>
        <time>2022-06-09T14:11:41Z</time>
      </trkpt>
      <trkpt lat="44.8265" lon="4.16083">
        <ele>1248.5</ele>
        <time>2022-06-09T14:11:42Z</time>
      </trkpt>
      <trkpt lat="44.82656" lon="4.16079">
        <ele>1248.2</ele>
        <time>2022-06-09T14:11:43Z</time>
      </trkpt>
      <trkpt lat="44.82662" lon="4.16075">
        <ele>1247.9</ele>
        <time>2022-06-09T14:11:44Z</time>
      </trkpt>
      <trkpt lat="44.82668" lon="4.16072">
        <ele>1247.6</ele>
        <time>2022-06-09T14:11:45Z</time>
      </trkpt>
      <trkpt lat="44.82674" lon="4.1607">
        <ele>1247.3</ele>
        <time>2022-06-09T14:11:46Z</time>
      </trkpt>
      <trkpt lat="44.8268" lon="4.16068">
        <ele>1247</ele>
        <time>2022-06-09T14:11:47Z</time>
      </trkpt>
      <trkpt lat="44.82687" lon="4.16066">
        <ele>1246.7</ele>
        <time>2022-06-09T14:11:48Z</time>
      </trkpt>
      <trkpt lat="44.82694" lon="4.16064">
        <ele>1246.5</ele>
        <time>2022-06-09T14:11:49Z</time>
      </trkpt>
      <trkpt lat="44.827" lon="4.16062">
        <ele>1246.3</ele>
        <time>2022-06-09T14:11:50Z</time>
      </trkpt>
      <trkpt lat="44.82707" lon="4.16059">
        <ele>1246.1</ele>
        <time>2022-06-09T14:11:51Z</time>
      </trkpt>
      <trkpt lat="44.82713" lon="4.16056">
        <ele>1246</ele>
        <time>2022-06-09T14:11:52Z</time>
      </trkpt>
      <trkpt lat="44.82718" lon="4.16052">
        <ele>1245.9</ele>
        <time>2022-06-09T14:11:53Z</time>
      </trkpt>
      <trkpt lat="44.82724" lon="4.1605">
        <ele>1245.9</ele>
        <time>2022-06-09T14:11:54Z</time>
      </trkpt>
      <trkpt lat="44.8273" lon="4.16052">
        <ele>1245.9</ele>
        <time>2022-06-09T14:11:55Z</time>
      </trkpt>
      <trkpt lat="44.82735" lon="4.16053">
        <ele>1245.9</ele>
        <time>2022-06-09T14:11:56Z</time>
      </trkpt>
      <trkpt lat="44.8274" lon="4.16055">
        <ele>1245.9</ele>
        <time>2022-06-09T14:11:57Z</time>
      </trkpt>
      <trkpt lat="44.82745" lon="4.16056">
        <ele>1245.9</ele>
        <time>2022-06-09T14:11:58Z</time>
      </trkpt>
      <trkpt lat="44.8275" lon="4.16057">
        <ele>1245.9</ele>
        <time>2022-06-09T14:11:59Z</time>
      </trkpt>
      <trkpt lat="44.82755" lon="4.16059">
        <ele>1245.9</ele>
        <time>2022-06-09T14:12:00Z</time>
      </trkpt>
      <trkpt lat="44.82759" lon="4.16062">
        <ele>1246</ele>
        <time>2022-06-09T14:12:01Z</time>
      </trkpt>
      <trkpt lat="44.82763" lon="4.16065">
        <ele>1246</ele>
        <time>2022-06-09T14:12:02Z</time>
      </trkpt>
      <trkpt lat="44.82765" lon="4.16067">
        <ele>1246.1</ele>
        <time>2022-06-09T14:12:03Z</time>
      </trkpt>
      <trkpt lat="44.82768" lon="4.16069">
        <ele>1246.1</ele>
        <time>2022-06-09T14:12:04Z</time>
      </trkpt>
      <trkpt lat="44.82772" lon="4.16072">
        <ele>1246.2</ele>
        <time>2022-06-09T14:12:05Z</time>
      </trkpt>
      <trkpt lat="44.82775" lon="4.16074">
        <ele>1246.3</ele>
        <time>2022-06-09T14:12:06Z</time>
      </trkpt>
      <trkpt lat="44.82779" lon="4.16077">
        <ele>1246.3</ele>
        <time>2022-06-09T14:12:07Z</time>
      </trkpt>
      <trkpt lat="44.82781" lon="4.1608">
        <ele>1246.4</ele>
        <time>2022-06-09T14:12:08Z</time>
      </trkpt>
      <trkpt lat="44.82784" lon="4.16081">
        <ele>1246.5</ele>
        <time>2022-06-09T14:12:09Z</time>
      </trkpt>
      <trkpt lat="44.82788" lon="4.16087">
        <ele>1246.6</ele>
        <time>2022-06-09T14:12:10Z</time>
      </trkpt>
      <trkpt lat="44.82791" lon="4.16091">
        <ele>1246.7</ele>
        <time>2022-06-09T14:12:11Z</time>
      </trkpt>
      <trkpt lat="44.82794" lon="4.16094">
        <ele>1246.8</ele>
        <time>2022-06-09T14:12:12Z</time>
      </trkpt>
      <trkpt lat="44.82796" lon="4.16097">
        <ele>1246.9</ele>
        <time>2022-06-09T14:12:14Z</time>
      </trkpt>
      <trkpt lat="44.82798" lon="4.161">
        <ele>1247</ele>
        <time>2022-06-09T14:12:15Z</time>
      </trkpt>
      <trkpt lat="44.82801" lon="4.16103">
        <ele>1247</ele>
        <time>2022-06-09T14:12:16Z</time>
      </trkpt>
      <trkpt lat="44.82803" lon="4.16105">
        <ele>1247.1</ele>
        <time>2022-06-09T14:12:17Z</time>
      </trkpt>
      <trkpt lat="44.82807" lon="4.16108">
        <ele>1247.2</ele>
        <time>2022-06-09T14:12:19Z</time>
      </trkpt>
      <trkpt lat="44.8281" lon="4.1611">
        <ele>1247.3</ele>
        <time>2022-06-09T14:12:20Z</time>
      </trkpt>
      <trkpt lat="44.82813" lon="4.16112">
        <ele>1247.4</ele>
        <time>2022-06-09T14:12:21Z</time>
      </trkpt>
      <trkpt lat="44.82816" lon="4.16114">
        <ele>1247.4</ele>
        <time>2022-06-09T14:12:22Z</time>
      </trkpt>
      <trkpt lat="44.82819" lon="4.16115">
        <ele>1247.5</ele>
        <time>2022-06-09T14:12:23Z</time>
      </trkpt>
      <trkpt lat="44.82823" lon="4.16116">
        <ele>1247.5</ele>
        <time>2022-06-09T14:12:25Z</time>
      </trkpt>
      <trkpt lat="44.82826" lon="4.16117">
        <ele>1247.5</ele>
        <time>2022-06-09T14:12:26Z</time>
      </trkpt>
      <trkpt lat="44.82829" lon="4.16117">
        <ele>1247.6</ele>
        <time>2022-06-09T14:12:27Z</time>
      </trkpt>
      <trkpt lat="44.82835" lon="4.16117">
        <ele>1247.7</ele>
        <time>2022-06-09T14:12:28Z</time>
      </trkpt>
      <trkpt lat="44.82838" lon="4.16117">
        <ele>1247.7</ele>
        <time>2022-06-09T14:12:30Z</time>
      </trkpt>
      <trkpt lat="44.82841" lon="4.16117">
        <ele>1247.8</ele>
        <time>2022-06-09T14:12:31Z</time>
      </trkpt>
      <trkpt lat="44.82845" lon="4.16115">
        <ele>1247.9</ele>
        <time>2022-06-09T14:12:32Z</time>
      </trkpt>
      <trkpt lat="44.82846" lon="4.16114">
        <ele>1247.9</ele>
        <time>2022-06-09T14:12:33Z</time>
      </trkpt>
      <trkpt lat="44.82849" lon="4.16112">
        <ele>1248</ele>
        <time>2022-06-09T14:12:34Z</time>
      </trkpt>
      <trkpt lat="44.82851" lon="4.1611">
        <ele>1248.1</ele>
        <time>2022-06-09T14:12:35Z</time>
      </trkpt>
      <trkpt lat="44.82854" lon="4.16108">
        <ele>1248.1</ele>
        <time>2022-06-09T14:12:36Z</time>
      </trkpt>
      <trkpt lat="44.82856" lon="4.16106">
        <ele>1248.2</ele>
        <time>2022-06-09T14:12:37Z</time>
      </trkpt>
      <trkpt lat="44.8286" lon="4.16103">
        <ele>1248.3</ele>
        <time>2022-06-09T14:12:38Z</time>
      </trkpt>
      <trkpt lat="44.82862" lon="4.16101">
        <ele>1248.4</ele>
        <time>2022-06-09T14:12:39Z</time>
      </trkpt>
      <trkpt lat="44.82865" lon="4.16098">
        <ele>1248.5</ele>
        <time>2022-06-09T14:12:40Z</time>
      </trkpt>
      <trkpt lat="44.82867" lon="4.16094">
        <ele>1248.6</ele>
        <time>2022-06-09T14:12:42Z</time>
      </trkpt>
      <trkpt lat="44.82868" lon="4.16093">
        <ele>1248.7</ele>
        <time>2022-06-09T14:12:43Z</time>
      </trkpt>
      <trkpt lat="44.82872" lon="4.16088">
        <ele>1248.8</ele>
        <time>2022-06-09T14:12:44Z</time>
      </trkpt>
      <trkpt lat="44.82874" lon="4.16082">
        <ele>1249</ele>
        <time>2022-06-09T14:12:46Z</time>
      </trkpt>
      <trkpt lat="44.82875" lon="4.16077">
        <ele>1249.1</ele>
        <time>2022-06-09T14:12:48Z</time>
      </trkpt>
      <trkpt lat="44.82875" lon="4.16075">
        <ele>1249.2</ele>
        <time>2022-06-09T14:12:49Z</time>
      </trkpt>
      <trkpt lat="44.82877" lon="4.16072">
        <ele>1249.3</ele>
        <time>2022-06-09T14:12:50Z</time>
      </trkpt>
      <trkpt lat="44.82877" lon="4.16071">
        <ele>1249.4</ele>
        <time>2022-06-09T14:12:51Z</time>
      </trkpt>
      <trkpt lat="44.82879" lon="4.16067">
        <ele>1249.6</ele>
        <time>2022-06-09T14:12:52Z</time>
      </trkpt>
      <trkpt lat="44.82879" lon="4.16066">
        <ele>1249.6</ele>
        <time>2022-06-09T14:12:53Z</time>
      </trkpt>
      <trkpt lat="44.8288" lon="4.16063">
        <ele>1249.7</ele>
        <time>2022-06-09T14:12:54Z</time>
      </trkpt>
      <trkpt lat="44.8288" lon="4.16062">
        <ele>1249.8</ele>
        <time>2022-06-09T14:12:55Z</time>
      </trkpt>
      <trkpt lat="44.82881" lon="4.16057">
        <ele>1250</ele>
        <time>2022-06-09T14:12:56Z</time>
      </trkpt>
      <trkpt lat="44.82881" lon="4.16054">
        <ele>1250.1</ele>
        <time>2022-06-09T14:12:57Z</time>
      </trkpt>
      <trkpt lat="44.82881" lon="4.16051">
        <ele>1250.3</ele>
        <time>2022-06-09T14:12:59Z</time>
      </trkpt>
      <trkpt lat="44.82881" lon="4.16049">
        <ele>1250.4</ele>
        <time>2022-06-09T14:13:00Z</time>
      </trkpt>
      <trkpt lat="44.82881" lon="4.16047">
        <ele>1250.5</ele>
        <time>2022-06-09T14:13:01Z</time>
      </trkpt>
      <trkpt lat="44.82881" lon="4.16044">
        <ele>1250.6</ele>
        <time>2022-06-09T14:13:02Z</time>
      </trkpt>
      <trkpt lat="44.8288" lon="4.16041">
        <ele>1250.7</ele>
        <time>2022-06-09T14:13:04Z</time>
      </trkpt>
      <trkpt lat="44.8288" lon="4.16038">
        <ele>1250.8</ele>
        <time>2022-06-09T14:13:05Z</time>
      </trkpt>
      <trkpt lat="44.82879" lon="4.16036">
        <ele>1250.9</ele>
        <time>2022-06-09T14:13:06Z</time>
      </trkpt>
      <trkpt lat="44.82878" lon="4.16031">
        <ele>1251.1</ele>
        <time>2022-06-09T14:13:07Z</time>
      </trkpt>
      <trkpt lat="44.82878" lon="4.1603">
        <ele>1251.2</ele>
        <time>2022-06-09T14:13:08Z</time>
      </trkpt>
      <trkpt lat="44.82877" lon="4.16025">
        <ele>1251.4</ele>
        <time>2022-06-09T14:13:09Z</time>
      </trkpt>
      <trkpt lat="44.82877" lon="4.16024">
        <ele>1251.4</ele>
        <time>2022-06-09T14:13:10Z</time>
      </trkpt>
      <trkpt lat="44.82875" lon="4.16018">
        <ele>1251.7</ele>
        <time>2022-06-09T14:13:12Z</time>
      </trkpt>
      <trkpt lat="44.82874" lon="4.16014">
        <ele>1251.9</ele>
        <time>2022-06-09T14:13:13Z</time>
      </trkpt>
      <trkpt lat="44.82873" lon="4.16013">
        <ele>1251.9</ele>
        <time>2022-06-09T14:13:14Z</time>
      </trkpt>
      <trkpt lat="44.82872" lon="4.16009">
        <ele>1252.1</ele>
        <time>2022-06-09T14:13:16Z</time>
      </trkpt>
      <trkpt lat="44.82871" lon="4.16008">
        <ele>1252.2</ele>
        <time>2022-06-09T14:13:17Z</time>
      </trkpt>
      <trkpt lat="44.8287" lon="4.16002">
        <ele>1252.4</ele>
        <time>2022-06-09T14:13:18Z</time>
      </trkpt>
      <trkpt lat="44.82869" lon="4.16">
        <ele>1252.5</ele>
        <time>2022-06-09T14:13:19Z</time>
      </trkpt>
      <trkpt lat="44.82867" lon="4.15994">
        <ele>1252.7</ele>
        <time>2022-06-09T14:13:21Z</time>
      </trkpt>
      <trkpt lat="44.82866" lon="4.15991">
        <ele>1252.9</ele>
        <time>2022-06-09T14:13:23Z</time>
      </trkpt>
      <trkpt lat="44.82865" lon="4.15987">
        <ele>1253.1</ele>
        <time>2022-06-09T14:13:24Z</time>
      </trkpt>
      <trkpt lat="44.82864" lon="4.15985">
        <ele>1253.1</ele>
        <time>2022-06-09T14:13:25Z</time>
      </trkpt>
      <trkpt lat="44.82863" lon="4.15981">
        <ele>1253.3</ele>
        <time>2022-06-09T14:13:26Z</time>
      </trkpt>
      <trkpt lat="44.82862" lon="4.1598">
        <ele>1253.3</ele>
        <time>2022-06-09T14:13:27Z</time>
      </trkpt>
      <trkpt lat="44.82861" lon="4.15975">
        <ele>1253.5</ele>
        <time>2022-06-09T14:13:28Z</time>
      </trkpt>
      <trkpt lat="44.8286" lon="4.15973">
        <ele>1253.6</ele>
        <time>2022-06-09T14:13:29Z</time>
      </trkpt>
      <trkpt lat="44.82859" lon="4.1597">
        <ele>1253.8</ele>
        <time>2022-06-09T14:13:31Z</time>
      </trkpt>
      <trkpt lat="44.82857" lon="4.15965">
        <ele>1254</ele>
        <time>2022-06-09T14:13:32Z</time>
      </trkpt>
      <trkpt lat="44.82856" lon="4.15962">
        <ele>1254.1</ele>
        <time>2022-06-09T14:13:33Z</time>
      </trkpt>
      <trkpt lat="44.82855" lon="4.15957">
        <ele>1254.3</ele>
        <time>2022-06-09T14:13:35Z</time>
      </trkpt>
      <trkpt lat="44.82854" lon="4.15954">
        <ele>1254.4</ele>
        <time>2022-06-09T14:13:36Z</time>
      </trkpt>
      <trkpt lat="44.82852" lon="4.15949">
        <ele>1254.6</ele>
        <time>2022-06-09T14:13:38Z</time>
      </trkpt>
      <trkpt lat="44.82851" lon="4.15946">
        <ele>1254.7</ele>
        <time>2022-06-09T14:13:39Z</time>
      </trkpt>
      <trkpt lat="44.8285" lon="4.15944">
        <ele>1254.8</ele>
        <time>2022-06-09T14:13:40Z</time>
      </trkpt>
      <trkpt lat="44.82849" lon="4.15938">
        <ele>1255</ele>
        <time>2022-06-09T14:13:42Z</time>
      </trkpt>
      <trkpt lat="44.82849" lon="4.15936">
        <ele>1255.1</ele>
        <time>2022-06-09T14:13:43Z</time>
      </trkpt>
      <trkpt lat="44.82847" lon="4.15932">
        <ele>1255.3</ele>
        <time>2022-06-09T14:13:45Z</time>
      </trkpt>
      <trkpt lat="44.82846" lon="4.15928">
        <ele>1255.4</ele>
        <time>2022-06-09T14:13:46Z</time>
      </trkpt>
      <trkpt lat="44.82846" lon="4.15924">
        <ele>1255.6</ele>
        <time>2022-06-09T14:13:47Z</time>
      </trkpt>
      <trkpt lat="44.82846" lon="4.15922">
        <ele>1255.7</ele>
        <time>2022-06-09T14:13:48Z</time>
      </trkpt>
      <trkpt lat="44.82845" lon="4.15916">
        <ele>1255.9</ele>
        <time>2022-06-09T14:13:50Z</time>
      </trkpt>
      <trkpt lat="44.82845" lon="4.15913">
        <ele>1256</ele>
        <time>2022-06-09T14:13:51Z</time>
      </trkpt>
      <trkpt lat="44.82845" lon="4.1591">
        <ele>1256.2</ele>
        <time>2022-06-09T14:13:53Z</time>
      </trkpt>
      <trkpt lat="44.82845" lon="4.15905">
        <ele>1256.3</ele>
        <time>2022-06-09T14:13:54Z</time>
      </trkpt>
      <trkpt lat="44.82845" lon="4.159">
        <ele>1256.5</ele>
        <time>2022-06-09T14:13:55Z</time>
      </trkpt>
      <trkpt lat="44.82845" lon="4.15899">
        <ele>1256.6</ele>
        <time>2022-06-09T14:13:56Z</time>
      </trkpt>
      <trkpt lat="44.82845" lon="4.15892">
        <ele>1256.8</ele>
        <time>2022-06-09T14:13:58Z</time>
      </trkpt>
      <trkpt lat="44.82845" lon="4.1589">
        <ele>1256.9</ele>
        <time>2022-06-09T14:13:59Z</time>
      </trkpt>
      <trkpt lat="44.82845" lon="4.15888">
        <ele>1257</ele>
        <time>2022-06-09T14:14:00Z</time>
      </trkpt>
      <trkpt lat="44.82846" lon="4.15882">
        <ele>1257.2</ele>
        <time>2022-06-09T14:14:01Z</time>
      </trkpt>
      <trkpt lat="44.82847" lon="4.15877">
        <ele>1257.4</ele>
        <time>2022-06-09T14:14:03Z</time>
      </trkpt>
      <trkpt lat="44.82847" lon="4.15876">
        <ele>1257.4</ele>
        <time>2022-06-09T14:14:04Z</time>
      </trkpt>
      <trkpt lat="44.82847" lon="4.1587">
        <ele>1257.7</ele>
        <time>2022-06-09T14:14:05Z</time>
      </trkpt>
      <trkpt lat="44.82848" lon="4.15865">
        <ele>1257.8</ele>
        <time>2022-06-09T14:14:07Z</time>
      </trkpt>
      <trkpt lat="44.82848" lon="4.15864">
        <ele>1257.9</ele>
        <time>2022-06-09T14:14:08Z</time>
      </trkpt>
      <trkpt lat="44.82849" lon="4.1586">
        <ele>1258.1</ele>
        <time>2022-06-09T14:14:09Z</time>
      </trkpt>
      <trkpt lat="44.82849" lon="4.15859">
        <ele>1258.1</ele>
        <time>2022-06-09T14:14:10Z</time>
      </trkpt>
      <trkpt lat="44.82849" lon="4.15855">
        <ele>1258.3</ele>
        <time>2022-06-09T14:14:11Z</time>
      </trkpt>
      <trkpt lat="44.8285" lon="4.15854">
        <ele>1258.4</ele>
        <time>2022-06-09T14:14:12Z</time>
      </trkpt>
      <trkpt lat="44.82851" lon="4.15852">
        <ele>1258.4</ele>
        <time>2022-06-09T14:14:13Z</time>
      </trkpt>
      <trkpt lat="44.82851" lon="4.15851">
        <ele>1258.5</ele>
        <time>2022-06-09T14:14:14Z</time>
      </trkpt>
      <trkpt lat="44.82851" lon="4.15849">
        <ele>1258.6</ele>
        <time>2022-06-09T14:14:15Z</time>
      </trkpt>
      <trkpt lat="44.82852" lon="4.15849">
        <ele>1258.6</ele>
        <time>2022-06-09T14:14:16Z</time>
      </trkpt>
      <trkpt lat="44.82852" lon="4.15849">
        <ele>1258.6</ele>
        <time>2022-06-09T14:14:17Z</time>
      </trkpt>
      <trkpt lat="44.82852" lon="4.15849">
        <ele>1258.6</ele>
        <time>2022-06-09T14:14:18Z</time>
      </trkpt>
      <trkpt lat="44.82852" lon="4.15849">
        <ele>1258.6</ele>
        <time>2022-06-09T14:14:19Z</time>
      </trkpt>
      <trkpt lat="44.82852" lon="4.15849">
        <ele>1258.6</ele>
        <time>2022-06-09T14:14:20Z</time>
      </trkpt>
      <trkpt lat="44.82852" lon="4.1585">
        <ele>1258.6</ele>
        <time>2022-06-09T14:14:21Z</time>
      </trkpt>
      <trkpt lat="44.82852" lon="4.1585">
        <ele>1258.6</ele>
        <time>2022-06-09T14:14:22Z</time>
      </trkpt>
      <trkpt lat="44.82851" lon="4.1585">
        <ele>1258.7</ele>
        <time>2022-06-09T14:14:23Z</time>
      </trkpt>
      <trkpt lat="44.82851" lon="4.1585">
        <ele>1258.7</ele>
        <time>2022-06-09T14:14:24Z</time>
      </trkpt>
      <trkpt lat="44.82851" lon="4.1585">
        <ele>1258.7</ele>
        <time>2022-06-09T14:14:25Z</time>
      </trkpt>
      <trkpt lat="44.82851" lon="4.1585">
        <ele>1258.7</ele>
        <time>2022-06-09T14:14:26Z</time>
      </trkpt>
      <trkpt lat="44.82851" lon="4.1585">
        <ele>1258.7</ele>
        <time>2022-06-09T14:14:27Z</time>
      </trkpt>
      <trkpt lat="44.82849" lon="4.15844">
        <ele>1259</ele>
        <time>2022-06-09T14:18:25Z</time>
      </trkpt>
      <trkpt lat="44.82849" lon="4.15844">
        <ele>1259</ele>
        <time>2022-06-09T14:18:26Z</time>
      </trkpt>
      <trkpt lat="44.82849" lon="4.15841">
        <ele>1259.2</ele>
        <time>2022-06-09T14:18:27Z</time>
      </trkpt>
      <trkpt lat="44.8285" lon="4.15836">
        <ele>1259.4</ele>
        <time>2022-06-09T14:18:29Z</time>
      </trkpt>
      <trkpt lat="44.82851" lon="4.15832">
        <ele>1259.5</ele>
        <time>2022-06-09T14:18:31Z</time>
      </trkpt>
      <trkpt lat="44.82852" lon="4.15827">
        <ele>1259.7</ele>
        <time>2022-06-09T14:18:32Z</time>
      </trkpt>
      <trkpt lat="44.82853" lon="4.15822">
        <ele>1260</ele>
        <time>2022-06-09T14:18:34Z</time>
      </trkpt>
      <trkpt lat="44.82853" lon="4.1582">
        <ele>1260.1</ele>
        <time>2022-06-09T14:18:35Z</time>
      </trkpt>
      <trkpt lat="44.82853" lon="4.15817">
        <ele>1260.2</ele>
        <time>2022-06-09T14:18:36Z</time>
      </trkpt>
      <trkpt lat="44.82854" lon="4.15814">
        <ele>1260.3</ele>
        <time>2022-06-09T14:18:38Z</time>
      </trkpt>
      <trkpt lat="44.82854" lon="4.1581">
        <ele>1260.5</ele>
        <time>2022-06-09T14:18:39Z</time>
      </trkpt>
      <trkpt lat="44.82854" lon="4.15809">
        <ele>1260.5</ele>
        <time>2022-06-09T14:18:40Z</time>
      </trkpt>
      <trkpt lat="44.82855" lon="4.15805">
        <ele>1260.7</ele>
        <time>2022-06-09T14:18:41Z</time>
      </trkpt>
      <trkpt lat="44.82855" lon="4.15804">
        <ele>1260.8</ele>
        <time>2022-06-09T14:18:42Z</time>
      </trkpt>
      <trkpt lat="44.82856" lon="4.158">
        <ele>1260.9</ele>
        <time>2022-06-09T14:18:43Z</time>
      </trkpt>
      <trkpt lat="44.82856" lon="4.15798">
        <ele>1261</ele>
        <time>2022-06-09T14:18:44Z</time>
      </trkpt>
      <trkpt lat="44.82856" lon="4.15796">
        <ele>1261.1</ele>
        <time>2022-06-09T14:18:45Z</time>
      </trkpt>
      <trkpt lat="44.82857" lon="4.15794">
        <ele>1261.2</ele>
        <time>2022-06-09T14:18:46Z</time>
      </trkpt>
      <trkpt lat="44.82858" lon="4.15791">
        <ele>1261.2</ele>
        <time>2022-06-09T14:18:47Z</time>
      </trkpt>
      <trkpt lat="44.82858" lon="4.15789">
        <ele>1261.3</ele>
        <time>2022-06-09T14:18:48Z</time>
      </trkpt>
      <trkpt lat="44.82859" lon="4.15787">
        <ele>1261.4</ele>
        <time>2022-06-09T14:18:49Z</time>
      </trkpt>
      <trkpt lat="44.82859" lon="4.15785">
        <ele>1261.5</ele>
        <time>2022-06-09T14:18:50Z</time>
      </trkpt>
      <trkpt lat="44.8286" lon="4.1578">
        <ele>1261.6</ele>
        <time>2022-06-09T14:18:51Z</time>
      </trkpt>
      <trkpt lat="44.82861" lon="4.15779">
        <ele>1261.7</ele>
        <time>2022-06-09T14:18:52Z</time>
      </trkpt>
      <trkpt lat="44.82862" lon="4.15775">
        <ele>1261.8</ele>
        <time>2022-06-09T14:18:53Z</time>
      </trkpt>
      <trkpt lat="44.82864" lon="4.1577">
        <ele>1262</ele>
        <time>2022-06-09T14:18:55Z</time>
      </trkpt>
      <trkpt lat="44.82865" lon="4.15767">
        <ele>1262.1</ele>
        <time>2022-06-09T14:18:57Z</time>
      </trkpt>
      <trkpt lat="44.82866" lon="4.15765">
        <ele>1262.2</ele>
        <time>2022-06-09T14:18:58Z</time>
      </trkpt>
      <trkpt lat="44.82867" lon="4.15761">
        <ele>1262.3</ele>
        <time>2022-06-09T14:18:59Z</time>
      </trkpt>
      <trkpt lat="44.8287" lon="4.15756">
        <ele>1262.5</ele>
        <time>2022-06-09T14:19:01Z</time>
      </trkpt>
      <trkpt lat="44.82871" lon="4.15755">
        <ele>1262.6</ele>
        <time>2022-06-09T14:19:02Z</time>
      </trkpt>
      <trkpt lat="44.82873" lon="4.15753">
        <ele>1262.7</ele>
        <time>2022-06-09T14:19:03Z</time>
      </trkpt>
      <trkpt lat="44.82874" lon="4.15751">
        <ele>1262.8</ele>
        <time>2022-06-09T14:19:05Z</time>
      </trkpt>
      <trkpt lat="44.82877" lon="4.15748">
        <ele>1262.9</ele>
        <time>2022-06-09T14:19:06Z</time>
      </trkpt>
      <trkpt lat="44.82878" lon="4.15748">
        <ele>1263</ele>
        <time>2022-06-09T14:19:07Z</time>
      </trkpt>
      <trkpt lat="44.82881" lon="4.15745">
        <ele>1263.1</ele>
        <time>2022-06-09T14:19:09Z</time>
      </trkpt>
      <trkpt lat="44.82882" lon="4.15744">
        <ele>1263.2</ele>
        <time>2022-06-09T14:19:10Z</time>
      </trkpt>
      <trkpt lat="44.82884" lon="4.15742">
        <ele>1263.3</ele>
        <time>2022-06-09T14:19:11Z</time>
      </trkpt>
      <trkpt lat="44.82885" lon="4.15741">
        <ele>1263.3</ele>
        <time>2022-06-09T14:19:12Z</time>
      </trkpt>
      <trkpt lat="44.82888" lon="4.15738">
        <ele>1263.5</ele>
        <time>2022-06-09T14:19:13Z</time>
      </trkpt>
      <trkpt lat="44.82888" lon="4.15738">
        <ele>1263.5</ele>
        <time>2022-06-09T14:19:14Z</time>
      </trkpt>
      <trkpt lat="44.82891" lon="4.15735">
        <ele>1263.6</ele>
        <time>2022-06-09T14:19:16Z</time>
      </trkpt>
      <trkpt lat="44.82892" lon="4.15734">
        <ele>1263.7</ele>
        <time>2022-06-09T14:19:17Z</time>
      </trkpt>
      <trkpt lat="44.82895" lon="4.15731">
        <ele>1263.8</ele>
        <time>2022-06-09T14:19:18Z</time>
      </trkpt>
      <trkpt lat="44.82895" lon="4.1573">
        <ele>1263.9</ele>
        <time>2022-06-09T14:19:19Z</time>
      </trkpt>
      <trkpt lat="44.82897" lon="4.15728">
        <ele>1264</ele>
        <time>2022-06-09T14:19:20Z</time>
      </trkpt>
      <trkpt lat="44.82899" lon="4.15727">
        <ele>1264.1</ele>
        <time>2022-06-09T14:19:22Z</time>
      </trkpt>
      <trkpt lat="44.829" lon="4.15723">
        <ele>1264.2</ele>
        <time>2022-06-09T14:19:23Z</time>
      </trkpt>
      <trkpt lat="44.82901" lon="4.15722">
        <ele>1264.2</ele>
        <time>2022-06-09T14:19:24Z</time>
      </trkpt>
      <trkpt lat="44.82903" lon="4.15719">
        <ele>1264.4</ele>
        <time>2022-06-09T14:19:25Z</time>
      </trkpt>
      <trkpt lat="44.82904" lon="4.15718">
        <ele>1264.4</ele>
        <time>2022-06-09T14:19:26Z</time>
      </trkpt>
      <trkpt lat="44.82907" lon="4.15715">
        <ele>1264.6</ele>
        <time>2022-06-09T14:19:27Z</time>
      </trkpt>
      <trkpt lat="44.82908" lon="4.15714">
        <ele>1264.6</ele>
        <time>2022-06-09T14:19:28Z</time>
      </trkpt>
      <trkpt lat="44.82911" lon="4.15712">
        <ele>1264.8</ele>
        <time>2022-06-09T14:19:29Z</time>
      </trkpt>
      <trkpt lat="44.82912" lon="4.15711">
        <ele>1264.8</ele>
        <time>2022-06-09T14:19:30Z</time>
      </trkpt>
      <trkpt lat="44.82913" lon="4.15709">
        <ele>1264.9</ele>
        <time>2022-06-09T14:19:32Z</time>
      </trkpt>
      <trkpt lat="44.82914" lon="4.15708">
        <ele>1265</ele>
        <time>2022-06-09T14:19:33Z</time>
      </trkpt>
      <trkpt lat="44.82917" lon="4.15706">
        <ele>1265.1</ele>
        <time>2022-06-09T14:19:34Z</time>
      </trkpt>
      <trkpt lat="44.82919" lon="4.15704">
        <ele>1265.3</ele>
        <time>2022-06-09T14:19:36Z</time>
      </trkpt>
      <trkpt lat="44.8292" lon="4.15702">
        <ele>1265.3</ele>
        <time>2022-06-09T14:19:37Z</time>
      </trkpt>
      <trkpt lat="44.82921" lon="4.157">
        <ele>1265.4</ele>
        <time>2022-06-09T14:19:38Z</time>
      </trkpt>
      <trkpt lat="44.82923" lon="4.15698">
        <ele>1265.5</ele>
        <time>2022-06-09T14:19:39Z</time>
      </trkpt>
      <trkpt lat="44.82924" lon="4.15697">
        <ele>1265.6</ele>
        <time>2022-06-09T14:19:40Z</time>
      </trkpt>
      <trkpt lat="44.82926" lon="4.15696">
        <ele>1265.7</ele>
        <time>2022-06-09T14:19:41Z</time>
      </trkpt>
      <trkpt lat="44.82927" lon="4.15694">
        <ele>1265.8</ele>
        <time>2022-06-09T14:19:42Z</time>
      </trkpt>
      <trkpt lat="44.82929" lon="4.15691">
        <ele>1265.9</ele>
        <time>2022-06-09T14:19:43Z</time>
      </trkpt>
      <trkpt lat="44.8293" lon="4.1569">
        <ele>1265.9</ele>
        <time>2022-06-09T14:19:44Z</time>
      </trkpt>
      <trkpt lat="44.82932" lon="4.15687">
        <ele>1266.1</ele>
        <time>2022-06-09T14:19:45Z</time>
      </trkpt>
      <trkpt lat="44.82935" lon="4.15684">
        <ele>1266.3</ele>
        <time>2022-06-09T14:19:47Z</time>
      </trkpt>
      <trkpt lat="44.82937" lon="4.15682">
        <ele>1266.4</ele>
        <time>2022-06-09T14:19:48Z</time>
      </trkpt>
      <trkpt lat="44.82938" lon="4.1568">
        <ele>1266.5</ele>
        <time>2022-06-09T14:19:50Z</time>
      </trkpt>
      <trkpt lat="44.82939" lon="4.15679">
        <ele>1266.5</ele>
        <time>2022-06-09T14:19:51Z</time>
      </trkpt>
      <trkpt lat="44.8294" lon="4.15677">
        <ele>1266.6</ele>
        <time>2022-06-09T14:19:52Z</time>
      </trkpt>
      <trkpt lat="44.82942" lon="4.15676">
        <ele>1266.7</ele>
        <time>2022-06-09T14:19:53Z</time>
      </trkpt>
      <trkpt lat="44.82943" lon="4.15674">
        <ele>1266.8</ele>
        <time>2022-06-09T14:19:54Z</time>
      </trkpt>
      <trkpt lat="44.82945" lon="4.15671">
        <ele>1266.9</ele>
        <time>2022-06-09T14:19:55Z</time>
      </trkpt>
      <trkpt lat="44.82948" lon="4.15669">
        <ele>1267.1</ele>
        <time>2022-06-09T14:19:57Z</time>
      </trkpt>
      <trkpt lat="44.82949" lon="4.15668">
        <ele>1267.2</ele>
        <time>2022-06-09T14:19:58Z</time>
      </trkpt>
      <trkpt lat="44.82951" lon="4.15665">
        <ele>1267.3</ele>
        <time>2022-06-09T14:19:59Z</time>
      </trkpt>
      <trkpt lat="44.82952" lon="4.15664">
        <ele>1267.3</ele>
        <time>2022-06-09T14:20:00Z</time>
      </trkpt>
      <trkpt lat="44.82953" lon="4.15661">
        <ele>1267.5</ele>
        <time>2022-06-09T14:20:01Z</time>
      </trkpt>
      <trkpt lat="44.82954" lon="4.1566">
        <ele>1267.5</ele>
        <time>2022-06-09T14:20:02Z</time>
      </trkpt>
      <trkpt lat="44.82955" lon="4.15658">
        <ele>1267.6</ele>
        <time>2022-06-09T14:20:03Z</time>
      </trkpt>
      <trkpt lat="44.82956" lon="4.15655">
        <ele>1267.7</ele>
        <time>2022-06-09T14:20:04Z</time>
      </trkpt>
      <trkpt lat="44.82958" lon="4.15651">
        <ele>1267.9</ele>
        <time>2022-06-09T14:20:05Z</time>
      </trkpt>
      <trkpt lat="44.82959" lon="4.15649">
        <ele>1267.9</ele>
        <time>2022-06-09T14:20:06Z</time>
      </trkpt>
      <trkpt lat="44.8296" lon="4.15646">
        <ele>1268</ele>
        <time>2022-06-09T14:20:08Z</time>
      </trkpt>
      <trkpt lat="44.82962" lon="4.15642">
        <ele>1268.2</ele>
        <time>2022-06-09T14:20:09Z</time>
      </trkpt>
      <trkpt lat="44.82962" lon="4.15641">
        <ele>1268.2</ele>
        <time>2022-06-09T14:20:10Z</time>
      </trkpt>
      <trkpt lat="44.82964" lon="4.15638">
        <ele>1268.3</ele>
        <time>2022-06-09T14:20:11Z</time>
      </trkpt>
      <trkpt lat="44.82965" lon="4.15635">
        <ele>1268.4</ele>
        <time>2022-06-09T14:20:13Z</time>
      </trkpt>
      <trkpt lat="44.82966" lon="4.15632">
        <ele>1268.5</ele>
        <time>2022-06-09T14:20:14Z</time>
      </trkpt>
      <trkpt lat="44.82968" lon="4.15629">
        <ele>1268.6</ele>
        <time>2022-06-09T14:20:16Z</time>
      </trkpt>
      <trkpt lat="44.82969" lon="4.15625">
        <ele>1268.7</ele>
        <time>2022-06-09T14:20:17Z</time>
      </trkpt>
      <trkpt lat="44.82971" lon="4.1562">
        <ele>1268.9</ele>
        <time>2022-06-09T14:20:18Z</time>
      </trkpt>
      <trkpt lat="44.82972" lon="4.15618">
        <ele>1268.9</ele>
        <time>2022-06-09T14:20:19Z</time>
      </trkpt>
      <trkpt lat="44.82974" lon="4.15614">
        <ele>1269.1</ele>
        <time>2022-06-09T14:20:21Z</time>
      </trkpt>
      <trkpt lat="44.82975" lon="4.15612">
        <ele>1269.1</ele>
        <time>2022-06-09T14:20:22Z</time>
      </trkpt>
      <trkpt lat="44.82976" lon="4.15609">
        <ele>1269.2</ele>
        <time>2022-06-09T14:20:23Z</time>
      </trkpt>
      <trkpt lat="44.82977" lon="4.15606">
        <ele>1269.3</ele>
        <time>2022-06-09T14:20:24Z</time>
      </trkpt>
      <trkpt lat="44.82979" lon="4.15603">
        <ele>1269.4</ele>
        <time>2022-06-09T14:20:26Z</time>
      </trkpt>
      <trkpt lat="44.8298" lon="4.15599">
        <ele>1269.5</ele>
        <time>2022-06-09T14:20:27Z</time>
      </trkpt>
      <trkpt lat="44.82981" lon="4.15598">
        <ele>1269.5</ele>
        <time>2022-06-09T14:20:28Z</time>
      </trkpt>
      <trkpt lat="44.82983" lon="4.15593">
        <ele>1269.6</ele>
        <time>2022-06-09T14:20:29Z</time>
      </trkpt>
      <trkpt lat="44.82984" lon="4.15591">
        <ele>1269.7</ele>
        <time>2022-06-09T14:20:30Z</time>
      </trkpt>
      <trkpt lat="44.82986" lon="4.15584">
        <ele>1269.9</ele>
        <time>2022-06-09T14:20:32Z</time>
      </trkpt>
      <trkpt lat="44.82987" lon="4.15582">
        <ele>1269.9</ele>
        <time>2022-06-09T14:20:34Z</time>
      </trkpt>
      <trkpt lat="44.82989" lon="4.15579">
        <ele>1270</ele>
        <time>2022-06-09T14:20:35Z</time>
      </trkpt>
      <trkpt lat="44.8299" lon="4.15577">
        <ele>1270.1</ele>
        <time>2022-06-09T14:20:36Z</time>
      </trkpt>
      <trkpt lat="44.82991" lon="4.15573">
        <ele>1270.2</ele>
        <time>2022-06-09T14:20:37Z</time>
      </trkpt>
      <trkpt lat="44.82992" lon="4.15572">
        <ele>1270.2</ele>
        <time>2022-06-09T14:20:38Z</time>
      </trkpt>
      <trkpt lat="44.82993" lon="4.15568">
        <ele>1270.3</ele>
        <time>2022-06-09T14:20:39Z</time>
      </trkpt>
      <trkpt lat="44.82994" lon="4.15567">
        <ele>1270.4</ele>
        <time>2022-06-09T14:20:40Z</time>
      </trkpt>
      <trkpt lat="44.82996" lon="4.15564">
        <ele>1270.5</ele>
        <time>2022-06-09T14:20:41Z</time>
      </trkpt>
      <trkpt lat="44.82997" lon="4.1556">
        <ele>1270.6</ele>
        <time>2022-06-09T14:20:42Z</time>
      </trkpt>
      <trkpt lat="44.82998" lon="4.15559">
        <ele>1270.7</ele>
        <time>2022-06-09T14:20:43Z</time>
      </trkpt>
      <trkpt lat="44.82999" lon="4.15556">
        <ele>1270.7</ele>
        <time>2022-06-09T14:20:44Z</time>
      </trkpt>
      <trkpt lat="44.83" lon="4.15553">
        <ele>1270.8</ele>
        <time>2022-06-09T14:20:46Z</time>
      </trkpt>
      <trkpt lat="44.83001" lon="4.1555">
        <ele>1270.9</ele>
        <time>2022-06-09T14:20:47Z</time>
      </trkpt>
      <trkpt lat="44.83002" lon="4.15549">
        <ele>1271</ele>
        <time>2022-06-09T14:20:48Z</time>
      </trkpt>
      <trkpt lat="44.83003" lon="4.15546">
        <ele>1271.1</ele>
        <time>2022-06-09T14:20:49Z</time>
      </trkpt>
      <trkpt lat="44.83004" lon="4.15544">
        <ele>1271.1</ele>
        <time>2022-06-09T14:20:50Z</time>
      </trkpt>
      <trkpt lat="44.83005" lon="4.15541">
        <ele>1271.2</ele>
        <time>2022-06-09T14:20:51Z</time>
      </trkpt>
      <trkpt lat="44.83007" lon="4.15537">
        <ele>1271.4</ele>
        <time>2022-06-09T14:20:52Z</time>
      </trkpt>
      <trkpt lat="44.83008" lon="4.15536">
        <ele>1271.4</ele>
        <time>2022-06-09T14:20:53Z</time>
      </trkpt>
      <trkpt lat="44.83009" lon="4.15532">
        <ele>1271.5</ele>
        <time>2022-06-09T14:20:54Z</time>
      </trkpt>
      <trkpt lat="44.8301" lon="4.15529">
        <ele>1271.6</ele>
        <time>2022-06-09T14:20:56Z</time>
      </trkpt>
      <trkpt lat="44.83012" lon="4.15525">
        <ele>1271.8</ele>
        <time>2022-06-09T14:20:57Z</time>
      </trkpt>
      <trkpt lat="44.83012" lon="4.15524">
        <ele>1271.8</ele>
        <time>2022-06-09T14:20:58Z</time>
      </trkpt>
      <trkpt lat="44.83014" lon="4.15519">
        <ele>1272</ele>
        <time>2022-06-09T14:20:59Z</time>
      </trkpt>
      <trkpt lat="44.83016" lon="4.15517">
        <ele>1272.1</ele>
        <time>2022-06-09T14:21:00Z</time>
      </trkpt>
      <trkpt lat="44.83017" lon="4.15514">
        <ele>1272.2</ele>
        <time>2022-06-09T14:21:02Z</time>
      </trkpt>
      <trkpt lat="44.8302" lon="4.1551">
        <ele>1272.3</ele>
        <time>2022-06-09T14:21:03Z</time>
      </trkpt>
      <trkpt lat="44.8302" lon="4.15508">
        <ele>1272.4</ele>
        <time>2022-06-09T14:21:04Z</time>
      </trkpt>
      <trkpt lat="44.83022" lon="4.15505">
        <ele>1272.5</ele>
        <time>2022-06-09T14:21:06Z</time>
      </trkpt>
      <trkpt lat="44.83023" lon="4.15501">
        <ele>1272.6</ele>
        <time>2022-06-09T14:21:07Z</time>
      </trkpt>
      <trkpt lat="44.83024" lon="4.15499">
        <ele>1272.7</ele>
        <time>2022-06-09T14:21:08Z</time>
      </trkpt>
      <trkpt lat="44.83026" lon="4.15496">
        <ele>1272.8</ele>
        <time>2022-06-09T14:21:10Z</time>
      </trkpt>
      <trkpt lat="44.83028" lon="4.15492">
        <ele>1272.9</ele>
        <time>2022-06-09T14:21:11Z</time>
      </trkpt>
      <trkpt lat="44.83028" lon="4.15491">
        <ele>1272.9</ele>
        <time>2022-06-09T14:21:12Z</time>
      </trkpt>
      <trkpt lat="44.83031" lon="4.15486">
        <ele>1273.1</ele>
        <time>2022-06-09T14:21:13Z</time>
      </trkpt>
      <trkpt lat="44.83033" lon="4.15482">
        <ele>1273.2</ele>
        <time>2022-06-09T14:21:15Z</time>
      </trkpt>
      <trkpt lat="44.83034" lon="4.15481">
        <ele>1273.2</ele>
        <time>2022-06-09T14:21:16Z</time>
      </trkpt>
      <trkpt lat="44.83036" lon="4.15477">
        <ele>1273.4</ele>
        <time>2022-06-09T14:21:17Z</time>
      </trkpt>
      <trkpt lat="44.83038" lon="4.15473">
        <ele>1273.5</ele>
        <time>2022-06-09T14:21:18Z</time>
      </trkpt>
      <trkpt lat="44.83038" lon="4.15472">
        <ele>1273.5</ele>
        <time>2022-06-09T14:21:19Z</time>
      </trkpt>
      <trkpt lat="44.8304" lon="4.15469">
        <ele>1273.6</ele>
        <time>2022-06-09T14:21:20Z</time>
      </trkpt>
      <trkpt lat="44.83043" lon="4.15465">
        <ele>1273.8</ele>
        <time>2022-06-09T14:21:22Z</time>
      </trkpt>
      <trkpt lat="44.83044" lon="4.15464">
        <ele>1273.8</ele>
        <time>2022-06-09T14:21:23Z</time>
      </trkpt>
      <trkpt lat="44.83046" lon="4.15461">
        <ele>1273.9</ele>
        <time>2022-06-09T14:21:24Z</time>
      </trkpt>
      <trkpt lat="44.83047" lon="4.1546">
        <ele>1274</ele>
        <time>2022-06-09T14:21:25Z</time>
      </trkpt>
      <trkpt lat="44.83049" lon="4.15455">
        <ele>1274.1</ele>
        <time>2022-06-09T14:21:26Z</time>
      </trkpt>
      <trkpt lat="44.83051" lon="4.15451">
        <ele>1274.2</ele>
        <time>2022-06-09T14:21:27Z</time>
      </trkpt>
      <trkpt lat="44.83052" lon="4.1545">
        <ele>1274.3</ele>
        <time>2022-06-09T14:21:28Z</time>
      </trkpt>
      <trkpt lat="44.83054" lon="4.15447">
        <ele>1274.4</ele>
        <time>2022-06-09T14:21:29Z</time>
      </trkpt>
      <trkpt lat="44.83056" lon="4.15444">
        <ele>1274.5</ele>
        <time>2022-06-09T14:21:31Z</time>
      </trkpt>
      <trkpt lat="44.83058" lon="4.15441">
        <ele>1274.6</ele>
        <time>2022-06-09T14:21:32Z</time>
      </trkpt>
      <trkpt lat="44.83059" lon="4.1544">
        <ele>1274.6</ele>
        <time>2022-06-09T14:21:33Z</time>
      </trkpt>
      <trkpt lat="44.83061" lon="4.15437">
        <ele>1274.8</ele>
        <time>2022-06-09T14:21:34Z</time>
      </trkpt>
      <trkpt lat="44.83064" lon="4.15434">
        <ele>1274.9</ele>
        <time>2022-06-09T14:21:35Z</time>
      </trkpt>
      <trkpt lat="44.83065" lon="4.15433">
        <ele>1275</ele>
        <time>2022-06-09T14:21:36Z</time>
      </trkpt>
      <trkpt lat="44.83068" lon="4.15428">
        <ele>1275.1</ele>
        <time>2022-06-09T14:21:38Z</time>
      </trkpt>
      <trkpt lat="44.8307" lon="4.15426">
        <ele>1275.2</ele>
        <time>2022-06-09T14:21:39Z</time>
      </trkpt>
      <trkpt lat="44.83071" lon="4.15424">
        <ele>1275.3</ele>
        <time>2022-06-09T14:21:40Z</time>
      </trkpt>
      <trkpt lat="44.83073" lon="4.15421">
        <ele>1275.4</ele>
        <time>2022-06-09T14:21:41Z</time>
      </trkpt>
      <trkpt lat="44.83074" lon="4.1542">
        <ele>1275.5</ele>
        <time>2022-06-09T14:21:42Z</time>
      </trkpt>
      <trkpt lat="44.83077" lon="4.15416">
        <ele>1275.6</ele>
        <time>2022-06-09T14:21:44Z</time>
      </trkpt>
      <trkpt lat="44.83078" lon="4.15414">
        <ele>1275.7</ele>
        <time>2022-06-09T14:21:45Z</time>
      </trkpt>
      <trkpt lat="44.8308" lon="4.15411">
        <ele>1275.8</ele>
        <time>2022-06-09T14:21:46Z</time>
      </trkpt>
      <trkpt lat="44.83082" lon="4.15407">
        <ele>1275.9</ele>
        <time>2022-06-09T14:21:48Z</time>
      </trkpt>
      <trkpt lat="44.83082" lon="4.15406">
        <ele>1275.9</ele>
        <time>2022-06-09T14:21:49Z</time>
      </trkpt>
      <trkpt lat="44.83084" lon="4.15402">
        <ele>1276.1</ele>
        <time>2022-06-09T14:21:50Z</time>
      </trkpt>
      <trkpt lat="44.83087" lon="4.15398">
        <ele>1276.2</ele>
        <time>2022-06-09T14:21:51Z</time>
      </trkpt>
      <trkpt lat="44.83088" lon="4.15397">
        <ele>1276.2</ele>
        <time>2022-06-09T14:21:52Z</time>
      </trkpt>
      <trkpt lat="44.8309" lon="4.15393">
        <ele>1276.4</ele>
        <time>2022-06-09T14:21:54Z</time>
      </trkpt>
      <trkpt lat="44.83091" lon="4.15391">
        <ele>1276.4</ele>
        <time>2022-06-09T14:21:55Z</time>
      </trkpt>
      <trkpt lat="44.83094" lon="4.15388">
        <ele>1276.6</ele>
        <time>2022-06-09T14:21:56Z</time>
      </trkpt>
      <trkpt lat="44.83095" lon="4.15386">
        <ele>1276.6</ele>
        <time>2022-06-09T14:21:57Z</time>
      </trkpt>
      <trkpt lat="44.83097" lon="4.15382">
        <ele>1276.8</ele>
        <time>2022-06-09T14:21:59Z</time>
      </trkpt>
      <trkpt lat="44.83099" lon="4.1538">
        <ele>1276.8</ele>
        <time>2022-06-09T14:22:00Z</time>
      </trkpt>
      <trkpt lat="44.831" lon="4.15378">
        <ele>1276.9</ele>
        <time>2022-06-09T14:22:02Z</time>
      </trkpt>
      <trkpt lat="44.83102" lon="4.15375">
        <ele>1277</ele>
        <time>2022-06-09T14:22:03Z</time>
      </trkpt>
      <trkpt lat="44.83103" lon="4.15373">
        <ele>1277.1</ele>
        <time>2022-06-09T14:22:04Z</time>
      </trkpt>
      <trkpt lat="44.83105" lon="4.1537">
        <ele>1277.2</ele>
        <time>2022-06-09T14:22:05Z</time>
      </trkpt>
      <trkpt lat="44.83106" lon="4.15369">
        <ele>1277.2</ele>
        <time>2022-06-09T14:22:06Z</time>
      </trkpt>
      <trkpt lat="44.83108" lon="4.15365">
        <ele>1277.4</ele>
        <time>2022-06-09T14:22:07Z</time>
      </trkpt>
      <trkpt lat="44.83108" lon="4.15364">
        <ele>1277.4</ele>
        <time>2022-06-09T14:22:08Z</time>
      </trkpt>
      <trkpt lat="44.83111" lon="4.15361">
        <ele>1277.5</ele>
        <time>2022-06-09T14:22:09Z</time>
      </trkpt>
      <trkpt lat="44.83111" lon="4.1536">
        <ele>1277.6</ele>
        <time>2022-06-09T14:22:10Z</time>
      </trkpt>
      <trkpt lat="44.83113" lon="4.15356">
        <ele>1277.7</ele>
        <time>2022-06-09T14:22:11Z</time>
      </trkpt>
      <trkpt lat="44.83114" lon="4.15355">
        <ele>1277.7</ele>
        <time>2022-06-09T14:22:12Z</time>
      </trkpt>
      <trkpt lat="44.83117" lon="4.1535">
        <ele>1277.9</ele>
        <time>2022-06-09T14:22:13Z</time>
      </trkpt>
      <trkpt lat="44.83118" lon="4.15348">
        <ele>1278</ele>
        <time>2022-06-09T14:22:14Z</time>
      </trkpt>
      <trkpt lat="44.83119" lon="4.15345">
        <ele>1278.1</ele>
        <time>2022-06-09T14:22:16Z</time>
      </trkpt>
      <trkpt lat="44.8312" lon="4.15342">
        <ele>1278.2</ele>
        <time>2022-06-09T14:22:17Z</time>
      </trkpt>
      <trkpt lat="44.83121" lon="4.15341">
        <ele>1278.2</ele>
        <time>2022-06-09T14:22:18Z</time>
      </trkpt>
      <trkpt lat="44.83123" lon="4.15337">
        <ele>1278.4</ele>
        <time>2022-06-09T14:22:19Z</time>
      </trkpt>
      <trkpt lat="44.83123" lon="4.15336">
        <ele>1278.4</ele>
        <time>2022-06-09T14:22:20Z</time>
      </trkpt>
      <trkpt lat="44.83125" lon="4.15333">
        <ele>1278.6</ele>
        <time>2022-06-09T14:22:21Z</time>
      </trkpt>
      <trkpt lat="44.83126" lon="4.15332">
        <ele>1278.6</ele>
        <time>2022-06-09T14:22:22Z</time>
      </trkpt>
      <trkpt lat="44.83127" lon="4.15329">
        <ele>1278.7</ele>
        <time>2022-06-09T14:22:23Z</time>
      </trkpt>
      <trkpt lat="44.83128" lon="4.15327">
        <ele>1278.8</ele>
        <time>2022-06-09T14:22:24Z</time>
      </trkpt>
      <trkpt lat="44.8313" lon="4.15323">
        <ele>1279</ele>
        <time>2022-06-09T14:22:25Z</time>
      </trkpt>
      <trkpt lat="44.83131" lon="4.15321">
        <ele>1279</ele>
        <time>2022-06-09T14:22:26Z</time>
      </trkpt>
      <trkpt lat="44.83132" lon="4.15318">
        <ele>1279.2</ele>
        <time>2022-06-09T14:22:27Z</time>
      </trkpt>
      <trkpt lat="44.83133" lon="4.15316">
        <ele>1279.2</ele>
        <time>2022-06-09T14:22:28Z</time>
      </trkpt>
      <trkpt lat="44.83134" lon="4.15311">
        <ele>1279.4</ele>
        <time>2022-06-09T14:22:29Z</time>
      </trkpt>
      <trkpt lat="44.83136" lon="4.15306">
        <ele>1279.6</ele>
        <time>2022-06-09T14:22:30Z</time>
      </trkpt>
      <trkpt lat="44.83137" lon="4.15305">
        <ele>1279.6</ele>
        <time>2022-06-09T14:22:31Z</time>
      </trkpt>
      <trkpt lat="44.83138" lon="4.15298">
        <ele>1279.9</ele>
        <time>2022-06-09T14:22:33Z</time>
      </trkpt>
      <trkpt lat="44.83139" lon="4.15295">
        <ele>1279.9</ele>
        <time>2022-06-09T14:22:34Z</time>
      </trkpt>
      <trkpt lat="44.8314" lon="4.15292">
        <ele>1280</ele>
        <time>2022-06-09T14:22:35Z</time>
      </trkpt>
      <trkpt lat="44.83141" lon="4.15286">
        <ele>1280.2</ele>
        <time>2022-06-09T14:22:37Z</time>
      </trkpt>
      <trkpt lat="44.83142" lon="4.15283">
        <ele>1280.3</ele>
        <time>2022-06-09T14:22:39Z</time>
      </trkpt>
      <trkpt lat="44.83143" lon="4.15278">
        <ele>1280.4</ele>
        <time>2022-06-09T14:22:40Z</time>
      </trkpt>
      <trkpt lat="44.83143" lon="4.15277">
        <ele>1280.5</ele>
        <time>2022-06-09T14:22:41Z</time>
      </trkpt>
      <trkpt lat="44.83144" lon="4.15272">
        <ele>1280.6</ele>
        <time>2022-06-09T14:22:42Z</time>
      </trkpt>
      <trkpt lat="44.83144" lon="4.1527">
        <ele>1280.7</ele>
        <time>2022-06-09T14:22:43Z</time>
      </trkpt>
      <trkpt lat="44.83144" lon="4.15266">
        <ele>1280.8</ele>
        <time>2022-06-09T14:22:44Z</time>
      </trkpt>
      <trkpt lat="44.83145" lon="4.15261">
        <ele>1280.9</ele>
        <time>2022-06-09T14:22:45Z</time>
      </trkpt>
      <trkpt lat="44.83145" lon="4.15256">
        <ele>1281</ele>
        <time>2022-06-09T14:22:46Z</time>
      </trkpt>
      <trkpt lat="44.83146" lon="4.15254">
        <ele>1281.1</ele>
        <time>2022-06-09T14:22:47Z</time>
      </trkpt>
      <trkpt lat="44.83146" lon="4.15248">
        <ele>1281.2</ele>
        <time>2022-06-09T14:22:48Z</time>
      </trkpt>
      <trkpt lat="44.83147" lon="4.15247">
        <ele>1281.3</ele>
        <time>2022-06-09T14:22:49Z</time>
      </trkpt>
      <trkpt lat="44.83146" lon="4.15243">
        <ele>1281.3</ele>
        <time>2022-06-09T14:22:50Z</time>
      </trkpt>
      <trkpt lat="44.83146" lon="4.15239">
        <ele>1281.5</ele>
        <time>2022-06-09T14:22:52Z</time>
      </trkpt>
      <trkpt lat="44.83146" lon="4.15235">
        <ele>1281.6</ele>
        <time>2022-06-09T14:22:53Z</time>
      </trkpt>
      <trkpt lat="44.83146" lon="4.1523">
        <ele>1281.7</ele>
        <time>2022-06-09T14:22:54Z</time>
      </trkpt>
      <trkpt lat="44.83145" lon="4.15226">
        <ele>1281.8</ele>
        <time>2022-06-09T14:22:55Z</time>
      </trkpt>
      <trkpt lat="44.83145" lon="4.15221">
        <ele>1281.9</ele>
        <time>2022-06-09T14:22:56Z</time>
      </trkpt>
      <trkpt lat="44.83145" lon="4.15219">
        <ele>1282</ele>
        <time>2022-06-09T14:22:57Z</time>
      </trkpt>
      <trkpt lat="44.83145" lon="4.15214">
        <ele>1282.1</ele>
        <time>2022-06-09T14:22:58Z</time>
      </trkpt>
      <trkpt lat="44.83145" lon="4.15213">
        <ele>1282.1</ele>
        <time>2022-06-09T14:22:59Z</time>
      </trkpt>
      <trkpt lat="44.83144" lon="4.15207">
        <ele>1282.3</ele>
        <time>2022-06-09T14:23:01Z</time>
      </trkpt>
      <trkpt lat="44.83144" lon="4.15204">
        <ele>1282.4</ele>
        <time>2022-06-09T14:23:02Z</time>
      </trkpt>
      <trkpt lat="44.83144" lon="4.152">
        <ele>1282.5</ele>
        <time>2022-06-09T14:23:03Z</time>
      </trkpt>
      <trkpt lat="44.83143" lon="4.15196">
        <ele>1282.6</ele>
        <time>2022-06-09T14:23:04Z</time>
      </trkpt>
      <trkpt lat="44.83143" lon="4.15192">
        <ele>1282.7</ele>
        <time>2022-06-09T14:23:06Z</time>
      </trkpt>
      <trkpt lat="44.83142" lon="4.15187">
        <ele>1282.9</ele>
        <time>2022-06-09T14:23:07Z</time>
      </trkpt>
      <trkpt lat="44.83142" lon="4.15186">
        <ele>1282.9</ele>
        <time>2022-06-09T14:23:08Z</time>
      </trkpt>
      <trkpt lat="44.83141" lon="4.1518">
        <ele>1283.1</ele>
        <time>2022-06-09T14:23:09Z</time>
      </trkpt>
      <trkpt lat="44.83141" lon="4.15177">
        <ele>1283.2</ele>
        <time>2022-06-09T14:23:10Z</time>
      </trkpt>
      <trkpt lat="44.8314" lon="4.15172">
        <ele>1283.3</ele>
        <time>2022-06-09T14:23:11Z</time>
      </trkpt>
      <trkpt lat="44.8314" lon="4.15167">
        <ele>1283.4</ele>
        <time>2022-06-09T14:23:13Z</time>
      </trkpt>
      <trkpt lat="44.8314" lon="4.15166">
        <ele>1283.5</ele>
        <time>2022-06-09T14:23:14Z</time>
      </trkpt>
      <trkpt lat="44.8314" lon="4.1516">
        <ele>1283.7</ele>
        <time>2022-06-09T14:23:15Z</time>
      </trkpt>
      <trkpt lat="44.83139" lon="4.15157">
        <ele>1283.8</ele>
        <time>2022-06-09T14:23:16Z</time>
      </trkpt>
      <trkpt lat="44.83139" lon="4.15153">
        <ele>1283.9</ele>
        <time>2022-06-09T14:23:18Z</time>
      </trkpt>
      <trkpt lat="44.83139" lon="4.15148">
        <ele>1284</ele>
        <time>2022-06-09T14:23:19Z</time>
      </trkpt>
      <trkpt lat="44.83139" lon="4.15144">
        <ele>1284.1</ele>
        <time>2022-06-09T14:23:20Z</time>
      </trkpt>
      <trkpt lat="44.83138" lon="4.1514">
        <ele>1284.2</ele>
        <time>2022-06-09T14:23:21Z</time>
      </trkpt>
      <trkpt lat="44.83137" lon="4.15135">
        <ele>1284.4</ele>
        <time>2022-06-09T14:23:22Z</time>
      </trkpt>
      <trkpt lat="44.83137" lon="4.15132">
        <ele>1284.4</ele>
        <time>2022-06-09T14:23:23Z</time>
      </trkpt>
      <trkpt lat="44.83137" lon="4.15128">
        <ele>1284.6</ele>
        <time>2022-06-09T14:23:25Z</time>
      </trkpt>
      <trkpt lat="44.83136" lon="4.15122">
        <ele>1284.7</ele>
        <time>2022-06-09T14:23:26Z</time>
      </trkpt>
      <trkpt lat="44.83136" lon="4.15117">
        <ele>1284.9</ele>
        <time>2022-06-09T14:23:27Z</time>
      </trkpt>
      <trkpt lat="44.83136" lon="4.15115">
        <ele>1284.9</ele>
        <time>2022-06-09T14:23:28Z</time>
      </trkpt>
      <trkpt lat="44.83135" lon="4.15107">
        <ele>1285.1</ele>
        <time>2022-06-09T14:23:30Z</time>
      </trkpt>
      <trkpt lat="44.83134" lon="4.15104">
        <ele>1285.2</ele>
        <time>2022-06-09T14:23:31Z</time>
      </trkpt>
      <trkpt lat="44.83134" lon="4.151">
        <ele>1285.3</ele>
        <time>2022-06-09T14:23:32Z</time>
      </trkpt>
      <trkpt lat="44.83134" lon="4.15096">
        <ele>1285.4</ele>
        <time>2022-06-09T14:23:33Z</time>
      </trkpt>
      <trkpt lat="44.83134" lon="4.15092">
        <ele>1285.5</ele>
        <time>2022-06-09T14:23:34Z</time>
      </trkpt>
      <trkpt lat="44.83134" lon="4.15085">
        <ele>1285.7</ele>
        <time>2022-06-09T14:23:36Z</time>
      </trkpt>
      <trkpt lat="44.83133" lon="4.15081">
        <ele>1285.8</ele>
        <time>2022-06-09T14:23:38Z</time>
      </trkpt>
      <trkpt lat="44.83133" lon="4.15076">
        <ele>1286</ele>
        <time>2022-06-09T14:23:39Z</time>
      </trkpt>
      <trkpt lat="44.83133" lon="4.15074">
        <ele>1286</ele>
        <time>2022-06-09T14:23:40Z</time>
      </trkpt>
      <trkpt lat="44.83132" lon="4.15069">
        <ele>1286.1</ele>
        <time>2022-06-09T14:23:41Z</time>
      </trkpt>
      <trkpt lat="44.83132" lon="4.15068">
        <ele>1286.1</ele>
        <time>2022-06-09T14:23:42Z</time>
      </trkpt>
      <trkpt lat="44.83131" lon="4.15063">
        <ele>1286.2</ele>
        <time>2022-06-09T14:23:43Z</time>
      </trkpt>
      <trkpt lat="44.83131" lon="4.15061">
        <ele>1286.3</ele>
        <time>2022-06-09T14:23:44Z</time>
      </trkpt>
      <trkpt lat="44.8313" lon="4.15057">
        <ele>1286.3</ele>
        <time>2022-06-09T14:23:45Z</time>
      </trkpt>
      <trkpt lat="44.8313" lon="4.15052">
        <ele>1286.4</ele>
        <time>2022-06-09T14:23:46Z</time>
      </trkpt>
      <trkpt lat="44.83129" lon="4.15049">
        <ele>1286.5</ele>
        <time>2022-06-09T14:23:47Z</time>
      </trkpt>
      <trkpt lat="44.83129" lon="4.15045">
        <ele>1286.5</ele>
        <time>2022-06-09T14:23:49Z</time>
      </trkpt>
      <trkpt lat="44.83129" lon="4.1504">
        <ele>1286.6</ele>
        <time>2022-06-09T14:23:50Z</time>
      </trkpt>
      <trkpt lat="44.83129" lon="4.15035">
        <ele>1286.7</ele>
        <time>2022-06-09T14:23:51Z</time>
      </trkpt>
      <trkpt lat="44.83129" lon="4.15029">
        <ele>1286.7</ele>
        <time>2022-06-09T14:23:52Z</time>
      </trkpt>
      <trkpt lat="44.83128" lon="4.15023">
        <ele>1286.8</ele>
        <time>2022-06-09T14:23:53Z</time>
      </trkpt>
      <trkpt lat="44.83128" lon="4.15017">
        <ele>1286.8</ele>
        <time>2022-06-09T14:23:55Z</time>
      </trkpt>
      <trkpt lat="44.83127" lon="4.15013">
        <ele>1286.8</ele>
        <time>2022-06-09T14:23:56Z</time>
      </trkpt>
      <trkpt lat="44.83127" lon="4.15007">
        <ele>1286.9</ele>
        <time>2022-06-09T14:23:57Z</time>
      </trkpt>
      <trkpt lat="44.83126" lon="4.14996">
        <ele>1286.9</ele>
        <time>2022-06-09T14:23:59Z</time>
      </trkpt>
      <trkpt lat="44.83125" lon="4.14991">
        <ele>1286.9</ele>
        <time>2022-06-09T14:24:01Z</time>
      </trkpt>
      <trkpt lat="44.83125" lon="4.1498">
        <ele>1286.9</ele>
        <time>2022-06-09T14:24:02Z</time>
      </trkpt>
      <trkpt lat="44.83125" lon="4.14974">
        <ele>1286.9</ele>
        <time>2022-06-09T14:24:04Z</time>
      </trkpt>
      <trkpt lat="44.83124" lon="4.14969">
        <ele>1286.9</ele>
        <time>2022-06-09T14:24:05Z</time>
      </trkpt>
      <trkpt lat="44.83124" lon="4.14963">
        <ele>1286.9</ele>
        <time>2022-06-09T14:24:06Z</time>
      </trkpt>
      <trkpt lat="44.83125" lon="4.14957">
        <ele>1286.9</ele>
        <time>2022-06-09T14:24:07Z</time>
      </trkpt>
      <trkpt lat="44.83125" lon="4.14948">
        <ele>1286.9</ele>
        <time>2022-06-09T14:24:08Z</time>
      </trkpt>
      <trkpt lat="44.83126" lon="4.1494">
        <ele>1286.8</ele>
        <time>2022-06-09T14:24:09Z</time>
      </trkpt>
      <trkpt lat="44.83127" lon="4.14934">
        <ele>1286.6</ele>
        <time>2022-06-09T14:24:10Z</time>
      </trkpt>
      <trkpt lat="44.8313" lon="4.14926">
        <ele>1286.4</ele>
        <time>2022-06-09T14:24:12Z</time>
      </trkpt>
      <trkpt lat="44.83132" lon="4.1492">
        <ele>1286.1</ele>
        <time>2022-06-09T14:24:13Z</time>
      </trkpt>
      <trkpt lat="44.83135" lon="4.14914">
        <ele>1285.9</ele>
        <time>2022-06-09T14:24:14Z</time>
      </trkpt>
      <trkpt lat="44.83138" lon="4.14909">
        <ele>1285.7</ele>
        <time>2022-06-09T14:24:15Z</time>
      </trkpt>
      <trkpt lat="44.83141" lon="4.14903">
        <ele>1285.5</ele>
        <time>2022-06-09T14:24:16Z</time>
      </trkpt>
      <trkpt lat="44.83145" lon="4.14898">
        <ele>1285.2</ele>
        <time>2022-06-09T14:24:17Z</time>
      </trkpt>
      <trkpt lat="44.83149" lon="4.14894">
        <ele>1285</ele>
        <time>2022-06-09T14:24:18Z</time>
      </trkpt>
      <trkpt lat="44.83154" lon="4.14889">
        <ele>1284.7</ele>
        <time>2022-06-09T14:24:19Z</time>
      </trkpt>
      <trkpt lat="44.83158" lon="4.14884">
        <ele>1284.4</ele>
        <time>2022-06-09T14:24:20Z</time>
      </trkpt>
      <trkpt lat="44.83163" lon="4.1488">
        <ele>1284.1</ele>
        <time>2022-06-09T14:24:21Z</time>
      </trkpt>
      <trkpt lat="44.83167" lon="4.14876">
        <ele>1283.8</ele>
        <time>2022-06-09T14:24:22Z</time>
      </trkpt>
      <trkpt lat="44.83172" lon="4.14871">
        <ele>1283.6</ele>
        <time>2022-06-09T14:24:23Z</time>
      </trkpt>
      <trkpt lat="44.83177" lon="4.14867">
        <ele>1283.3</ele>
        <time>2022-06-09T14:24:24Z</time>
      </trkpt>
      <trkpt lat="44.83181" lon="4.14862">
        <ele>1283</ele>
        <time>2022-06-09T14:24:25Z</time>
      </trkpt>
      <trkpt lat="44.83186" lon="4.14858">
        <ele>1282.7</ele>
        <time>2022-06-09T14:24:26Z</time>
      </trkpt>
      <trkpt lat="44.83191" lon="4.14854">
        <ele>1282.5</ele>
        <time>2022-06-09T14:24:27Z</time>
      </trkpt>
      <trkpt lat="44.83195" lon="4.14849">
        <ele>1282.3</ele>
        <time>2022-06-09T14:24:28Z</time>
      </trkpt>
      <trkpt lat="44.832" lon="4.14845">
        <ele>1282</ele>
        <time>2022-06-09T14:24:29Z</time>
      </trkpt>
      <trkpt lat="44.83204" lon="4.14841">
        <ele>1281.8</ele>
        <time>2022-06-09T14:24:30Z</time>
      </trkpt>
      <trkpt lat="44.83209" lon="4.14837">
        <ele>1281.5</ele>
        <time>2022-06-09T14:24:31Z</time>
      </trkpt>
      <trkpt lat="44.83213" lon="4.14832">
        <ele>1281.3</ele>
        <time>2022-06-09T14:24:32Z</time>
      </trkpt>
      <trkpt lat="44.83218" lon="4.14828">
        <ele>1281</ele>
        <time>2022-06-09T14:24:33Z</time>
      </trkpt>
      <trkpt lat="44.83222" lon="4.14823">
        <ele>1280.8</ele>
        <time>2022-06-09T14:24:34Z</time>
      </trkpt>
      <trkpt lat="44.83227" lon="4.14819">
        <ele>1280.5</ele>
        <time>2022-06-09T14:24:35Z</time>
      </trkpt>
      <trkpt lat="44.83231" lon="4.14815">
        <ele>1280.3</ele>
        <time>2022-06-09T14:24:36Z</time>
      </trkpt>
      <trkpt lat="44.83235" lon="4.14811">
        <ele>1280.1</ele>
        <time>2022-06-09T14:24:37Z</time>
      </trkpt>
      <trkpt lat="44.83239" lon="4.14807">
        <ele>1279.8</ele>
        <time>2022-06-09T14:24:38Z</time>
      </trkpt>
      <trkpt lat="44.83243" lon="4.14803">
        <ele>1279.6</ele>
        <time>2022-06-09T14:24:39Z</time>
      </trkpt>
      <trkpt lat="44.83248" lon="4.14799">
        <ele>1279.4</ele>
        <time>2022-06-09T14:24:40Z</time>
      </trkpt>
      <trkpt lat="44.83252" lon="4.14794">
        <ele>1279.2</ele>
        <time>2022-06-09T14:24:41Z</time>
      </trkpt>
      <trkpt lat="44.83256" lon="4.1479">
        <ele>1278.9</ele>
        <time>2022-06-09T14:24:42Z</time>
      </trkpt>
      <trkpt lat="44.8326" lon="4.14785">
        <ele>1278.7</ele>
        <time>2022-06-09T14:24:43Z</time>
      </trkpt>
      <trkpt lat="44.83265" lon="4.14781">
        <ele>1278.4</ele>
        <time>2022-06-09T14:24:44Z</time>
      </trkpt>
      <trkpt lat="44.83269" lon="4.14776">
        <ele>1278.2</ele>
        <time>2022-06-09T14:24:45Z</time>
      </trkpt>
      <trkpt lat="44.83274" lon="4.14772">
        <ele>1277.9</ele>
        <time>2022-06-09T14:24:46Z</time>
      </trkpt>
      <trkpt lat="44.83278" lon="4.14768">
        <ele>1277.7</ele>
        <time>2022-06-09T14:24:47Z</time>
      </trkpt>
      <trkpt lat="44.83282" lon="4.14764">
        <ele>1277.5</ele>
        <time>2022-06-09T14:24:48Z</time>
      </trkpt>
      <trkpt lat="44.83286" lon="4.1476">
        <ele>1277.2</ele>
        <time>2022-06-09T14:24:49Z</time>
      </trkpt>
      <trkpt lat="44.8329" lon="4.14756">
        <ele>1277</ele>
        <time>2022-06-09T14:24:50Z</time>
      </trkpt>
      <trkpt lat="44.83295" lon="4.14752">
        <ele>1276.8</ele>
        <time>2022-06-09T14:24:51Z</time>
      </trkpt>
      <trkpt lat="44.83299" lon="4.14748">
        <ele>1276.5</ele>
        <time>2022-06-09T14:24:52Z</time>
      </trkpt>
      <trkpt lat="44.83304" lon="4.14743">
        <ele>1276.3</ele>
        <time>2022-06-09T14:24:53Z</time>
      </trkpt>
      <trkpt lat="44.83308" lon="4.1474">
        <ele>1276</ele>
        <time>2022-06-09T14:24:54Z</time>
      </trkpt>
      <trkpt lat="44.83313" lon="4.14737">
        <ele>1275.8</ele>
        <time>2022-06-09T14:24:55Z</time>
      </trkpt>
      <trkpt lat="44.83318" lon="4.14734">
        <ele>1275.5</ele>
        <time>2022-06-09T14:24:56Z</time>
      </trkpt>
      <trkpt lat="44.83323" lon="4.14731">
        <ele>1275.2</ele>
        <time>2022-06-09T14:24:57Z</time>
      </trkpt>
      <trkpt lat="44.83329" lon="4.14728">
        <ele>1275</ele>
        <time>2022-06-09T14:24:58Z</time>
      </trkpt>
      <trkpt lat="44.83335" lon="4.14726">
        <ele>1274.7</ele>
        <time>2022-06-09T14:24:59Z</time>
      </trkpt>
      <trkpt lat="44.8334" lon="4.14725">
        <ele>1274.4</ele>
        <time>2022-06-09T14:25:00Z</time>
      </trkpt>
      <trkpt lat="44.83346" lon="4.14723">
        <ele>1274.2</ele>
        <time>2022-06-09T14:25:01Z</time>
      </trkpt>
      <trkpt lat="44.83351" lon="4.14723">
        <ele>1273.9</ele>
        <time>2022-06-09T14:25:02Z</time>
      </trkpt>
      <trkpt lat="44.83357" lon="4.14722">
        <ele>1273.7</ele>
        <time>2022-06-09T14:25:03Z</time>
      </trkpt>
      <trkpt lat="44.83362" lon="4.14721">
        <ele>1273.5</ele>
        <time>2022-06-09T14:25:04Z</time>
      </trkpt>
      <trkpt lat="44.83367" lon="4.14721">
        <ele>1273.2</ele>
        <time>2022-06-09T14:25:05Z</time>
      </trkpt>
      <trkpt lat="44.83373" lon="4.1472">
        <ele>1273</ele>
        <time>2022-06-09T14:25:06Z</time>
      </trkpt>
      <trkpt lat="44.83378" lon="4.14719">
        <ele>1272.8</ele>
        <time>2022-06-09T14:25:07Z</time>
      </trkpt>
      <trkpt lat="44.83383" lon="4.14718">
        <ele>1272.6</ele>
        <time>2022-06-09T14:25:08Z</time>
      </trkpt>
      <trkpt lat="44.83388" lon="4.14717">
        <ele>1272.4</ele>
        <time>2022-06-09T14:25:09Z</time>
      </trkpt>
      <trkpt lat="44.83392" lon="4.14717">
        <ele>1272.2</ele>
        <time>2022-06-09T14:25:10Z</time>
      </trkpt>
      <trkpt lat="44.83397" lon="4.14716">
        <ele>1272</ele>
        <time>2022-06-09T14:25:11Z</time>
      </trkpt>
      <trkpt lat="44.83401" lon="4.14715">
        <ele>1271.8</ele>
        <time>2022-06-09T14:25:12Z</time>
      </trkpt>
      <trkpt lat="44.83403" lon="4.14714">
        <ele>1271.7</ele>
        <time>2022-06-09T14:25:13Z</time>
      </trkpt>
      <trkpt lat="44.83407" lon="4.14713">
        <ele>1271.6</ele>
        <time>2022-06-09T14:25:14Z</time>
      </trkpt>
      <trkpt lat="44.83412" lon="4.14712">
        <ele>1271.3</ele>
        <time>2022-06-09T14:25:15Z</time>
      </trkpt>
      <trkpt lat="44.83416" lon="4.1471">
        <ele>1271.2</ele>
        <time>2022-06-09T14:25:16Z</time>
      </trkpt>
      <trkpt lat="44.8342" lon="4.14709">
        <ele>1271</ele>
        <time>2022-06-09T14:25:17Z</time>
      </trkpt>
      <trkpt lat="44.83424" lon="4.14707">
        <ele>1270.8</ele>
        <time>2022-06-09T14:25:18Z</time>
      </trkpt>
      <trkpt lat="44.83432" lon="4.14704">
        <ele>1270.4</ele>
        <time>2022-06-09T14:25:19Z</time>
      </trkpt>
      <trkpt lat="44.83438" lon="4.14699">
        <ele>1270</ele>
        <time>2022-06-09T14:25:21Z</time>
      </trkpt>
      <trkpt lat="44.83443" lon="4.14695">
        <ele>1269.8</ele>
        <time>2022-06-09T14:25:22Z</time>
      </trkpt>
      <trkpt lat="44.83447" lon="4.14691">
        <ele>1269.6</ele>
        <time>2022-06-09T14:25:23Z</time>
      </trkpt>
      <trkpt lat="44.83451" lon="4.14687">
        <ele>1269.3</ele>
        <time>2022-06-09T14:25:24Z</time>
      </trkpt>
      <trkpt lat="44.83455" lon="4.14683">
        <ele>1269.1</ele>
        <time>2022-06-09T14:25:25Z</time>
      </trkpt>
      <trkpt lat="44.83459" lon="4.14679">
        <ele>1268.8</ele>
        <time>2022-06-09T14:25:26Z</time>
      </trkpt>
      <trkpt lat="44.83463" lon="4.14674">
        <ele>1268.6</ele>
        <time>2022-06-09T14:25:27Z</time>
      </trkpt>
      <trkpt lat="44.83467" lon="4.14669">
        <ele>1268.4</ele>
        <time>2022-06-09T14:25:28Z</time>
      </trkpt>
      <trkpt lat="44.83471" lon="4.14665">
        <ele>1268.1</ele>
        <time>2022-06-09T14:25:29Z</time>
      </trkpt>
      <trkpt lat="44.83475" lon="4.14659">
        <ele>1267.9</ele>
        <time>2022-06-09T14:25:30Z</time>
      </trkpt>
      <trkpt lat="44.83479" lon="4.14654">
        <ele>1267.6</ele>
        <time>2022-06-09T14:25:31Z</time>
      </trkpt>
      <trkpt lat="44.83484" lon="4.14648">
        <ele>1267.3</ele>
        <time>2022-06-09T14:25:32Z</time>
      </trkpt>
      <trkpt lat="44.83488" lon="4.14642">
        <ele>1267</ele>
        <time>2022-06-09T14:25:33Z</time>
      </trkpt>
      <trkpt lat="44.83492" lon="4.14636">
        <ele>1266.7</ele>
        <time>2022-06-09T14:25:34Z</time>
      </trkpt>
      <trkpt lat="44.83497" lon="4.1463">
        <ele>1266.5</ele>
        <time>2022-06-09T14:25:35Z</time>
      </trkpt>
      <trkpt lat="44.83501" lon="4.14624">
        <ele>1266.2</ele>
        <time>2022-06-09T14:25:36Z</time>
      </trkpt>
      <trkpt lat="44.83505" lon="4.14618">
        <ele>1265.9</ele>
        <time>2022-06-09T14:25:37Z</time>
      </trkpt>
      <trkpt lat="44.8351" lon="4.14612">
        <ele>1265.6</ele>
        <time>2022-06-09T14:25:38Z</time>
      </trkpt>
      <trkpt lat="44.83515" lon="4.14606">
        <ele>1265.4</ele>
        <time>2022-06-09T14:25:39Z</time>
      </trkpt>
      <trkpt lat="44.83519" lon="4.146">
        <ele>1265.1</ele>
        <time>2022-06-09T14:25:40Z</time>
      </trkpt>
      <trkpt lat="44.83524" lon="4.14594">
        <ele>1264.8</ele>
        <time>2022-06-09T14:25:41Z</time>
      </trkpt>
      <trkpt lat="44.83528" lon="4.14587">
        <ele>1264.5</ele>
        <time>2022-06-09T14:25:42Z</time>
      </trkpt>
      <trkpt lat="44.83533" lon="4.14581">
        <ele>1264.3</ele>
        <time>2022-06-09T14:25:43Z</time>
      </trkpt>
      <trkpt lat="44.83538" lon="4.14574">
        <ele>1264</ele>
        <time>2022-06-09T14:25:44Z</time>
      </trkpt>
      <trkpt lat="44.83543" lon="4.14568">
        <ele>1263.7</ele>
        <time>2022-06-09T14:25:45Z</time>
      </trkpt>
      <trkpt lat="44.83547" lon="4.14561">
        <ele>1263.4</ele>
        <time>2022-06-09T14:25:46Z</time>
      </trkpt>
      <trkpt lat="44.83552" lon="4.14555">
        <ele>1263.1</ele>
        <time>2022-06-09T14:25:47Z</time>
      </trkpt>
      <trkpt lat="44.83556" lon="4.14548">
        <ele>1262.9</ele>
        <time>2022-06-09T14:25:48Z</time>
      </trkpt>
      <trkpt lat="44.83561" lon="4.14542">
        <ele>1262.6</ele>
        <time>2022-06-09T14:25:49Z</time>
      </trkpt>
      <trkpt lat="44.83565" lon="4.14535">
        <ele>1262.3</ele>
        <time>2022-06-09T14:25:50Z</time>
      </trkpt>
      <trkpt lat="44.8357" lon="4.14529">
        <ele>1262.1</ele>
        <time>2022-06-09T14:25:51Z</time>
      </trkpt>
      <trkpt lat="44.83575" lon="4.14523">
        <ele>1261.8</ele>
        <time>2022-06-09T14:25:52Z</time>
      </trkpt>
      <trkpt lat="44.83579" lon="4.14517">
        <ele>1261.6</ele>
        <time>2022-06-09T14:25:53Z</time>
      </trkpt>
      <trkpt lat="44.83584" lon="4.1451">
        <ele>1261.3</ele>
        <time>2022-06-09T14:25:54Z</time>
      </trkpt>
      <trkpt lat="44.83588" lon="4.14504">
        <ele>1261</ele>
        <time>2022-06-09T14:25:55Z</time>
      </trkpt>
      <trkpt lat="44.83593" lon="4.14497">
        <ele>1260.7</ele>
        <time>2022-06-09T14:25:56Z</time>
      </trkpt>
      <trkpt lat="44.83598" lon="4.14491">
        <ele>1260.4</ele>
        <time>2022-06-09T14:25:57Z</time>
      </trkpt>
      <trkpt lat="44.83602" lon="4.14485">
        <ele>1260.1</ele>
        <time>2022-06-09T14:25:58Z</time>
      </trkpt>
      <trkpt lat="44.83607" lon="4.14478">
        <ele>1259.8</ele>
        <time>2022-06-09T14:25:59Z</time>
      </trkpt>
      <trkpt lat="44.83611" lon="4.14472">
        <ele>1259.6</ele>
        <time>2022-06-09T14:26:00Z</time>
      </trkpt>
      <trkpt lat="44.83616" lon="4.14466">
        <ele>1259.3</ele>
        <time>2022-06-09T14:26:01Z</time>
      </trkpt>
      <trkpt lat="44.8362" lon="4.1446">
        <ele>1259</ele>
        <time>2022-06-09T14:26:02Z</time>
      </trkpt>
      <trkpt lat="44.83624" lon="4.14454">
        <ele>1258.7</ele>
        <time>2022-06-09T14:26:03Z</time>
      </trkpt>
      <trkpt lat="44.83629" lon="4.14448">
        <ele>1258.5</ele>
        <time>2022-06-09T14:26:04Z</time>
      </trkpt>
      <trkpt lat="44.83633" lon="4.14442">
        <ele>1258.2</ele>
        <time>2022-06-09T14:26:05Z</time>
      </trkpt>
      <trkpt lat="44.83638" lon="4.14436">
        <ele>1257.8</ele>
        <time>2022-06-09T14:26:06Z</time>
      </trkpt>
      <trkpt lat="44.83643" lon="4.1443">
        <ele>1257.5</ele>
        <time>2022-06-09T14:26:07Z</time>
      </trkpt>
      <trkpt lat="44.83648" lon="4.14424">
        <ele>1257.2</ele>
        <time>2022-06-09T14:26:08Z</time>
      </trkpt>
      <trkpt lat="44.83653" lon="4.14418">
        <ele>1256.8</ele>
        <time>2022-06-09T14:26:09Z</time>
      </trkpt>
      <trkpt lat="44.83658" lon="4.14413">
        <ele>1256.5</ele>
        <time>2022-06-09T14:26:10Z</time>
      </trkpt>
      <trkpt lat="44.83664" lon="4.14408">
        <ele>1256.1</ele>
        <time>2022-06-09T14:26:11Z</time>
      </trkpt>
      <trkpt lat="44.83669" lon="4.14403">
        <ele>1255.7</ele>
        <time>2022-06-09T14:26:12Z</time>
      </trkpt>
      <trkpt lat="44.83675" lon="4.14397">
        <ele>1255.4</ele>
        <time>2022-06-09T14:26:13Z</time>
      </trkpt>
      <trkpt lat="44.83681" lon="4.14392">
        <ele>1255.1</ele>
        <time>2022-06-09T14:26:14Z</time>
      </trkpt>
      <trkpt lat="44.83687" lon="4.14387">
        <ele>1254.8</ele>
        <time>2022-06-09T14:26:15Z</time>
      </trkpt>
      <trkpt lat="44.83693" lon="4.14381">
        <ele>1254.5</ele>
        <time>2022-06-09T14:26:16Z</time>
      </trkpt>
      <trkpt lat="44.83698" lon="4.14376">
        <ele>1254.2</ele>
        <time>2022-06-09T14:26:17Z</time>
      </trkpt>
      <trkpt lat="44.83704" lon="4.1437">
        <ele>1253.9</ele>
        <time>2022-06-09T14:26:18Z</time>
      </trkpt>
      <trkpt lat="44.83709" lon="4.14365">
        <ele>1253.6</ele>
        <time>2022-06-09T14:26:19Z</time>
      </trkpt>
      <trkpt lat="44.83714" lon="4.14358">
        <ele>1253.4</ele>
        <time>2022-06-09T14:26:20Z</time>
      </trkpt>
      <trkpt lat="44.83719" lon="4.14352">
        <ele>1253.1</ele>
        <time>2022-06-09T14:26:21Z</time>
      </trkpt>
      <trkpt lat="44.83725" lon="4.14345">
        <ele>1252.8</ele>
        <time>2022-06-09T14:26:22Z</time>
      </trkpt>
      <trkpt lat="44.8373" lon="4.14338">
        <ele>1252.5</ele>
        <time>2022-06-09T14:26:23Z</time>
      </trkpt>
      <trkpt lat="44.83735" lon="4.14332">
        <ele>1252.2</ele>
        <time>2022-06-09T14:26:24Z</time>
      </trkpt>
      <trkpt lat="44.83741" lon="4.14326">
        <ele>1251.9</ele>
        <time>2022-06-09T14:26:25Z</time>
      </trkpt>
      <trkpt lat="44.83746" lon="4.14319">
        <ele>1251.5</ele>
        <time>2022-06-09T14:26:26Z</time>
      </trkpt>
      <trkpt lat="44.83751" lon="4.14313">
        <ele>1251.2</ele>
        <time>2022-06-09T14:26:27Z</time>
      </trkpt>
      <trkpt lat="44.83756" lon="4.14306">
        <ele>1250.8</ele>
        <time>2022-06-09T14:26:28Z</time>
      </trkpt>
      <trkpt lat="44.83762" lon="4.14299">
        <ele>1250.5</ele>
        <time>2022-06-09T14:26:29Z</time>
      </trkpt>
      <trkpt lat="44.83767" lon="4.14292">
        <ele>1250.2</ele>
        <time>2022-06-09T14:26:30Z</time>
      </trkpt>
      <trkpt lat="44.83772" lon="4.14286">
        <ele>1249.8</ele>
        <time>2022-06-09T14:26:31Z</time>
      </trkpt>
      <trkpt lat="44.83778" lon="4.14279">
        <ele>1249.5</ele>
        <time>2022-06-09T14:26:32Z</time>
      </trkpt>
      <trkpt lat="44.83783" lon="4.14272">
        <ele>1249.2</ele>
        <time>2022-06-09T14:26:33Z</time>
      </trkpt>
      <trkpt lat="44.83788" lon="4.14265">
        <ele>1248.9</ele>
        <time>2022-06-09T14:26:34Z</time>
      </trkpt>
      <trkpt lat="44.83793" lon="4.14258">
        <ele>1248.6</ele>
        <time>2022-06-09T14:26:35Z</time>
      </trkpt>
      <trkpt lat="44.83799" lon="4.14252">
        <ele>1248.3</ele>
        <time>2022-06-09T14:26:36Z</time>
      </trkpt>
      <trkpt lat="44.83803" lon="4.14246">
        <ele>1248</ele>
        <time>2022-06-09T14:26:37Z</time>
      </trkpt>
      <trkpt lat="44.83808" lon="4.14241">
        <ele>1247.7</ele>
        <time>2022-06-09T14:26:38Z</time>
      </trkpt>
      <trkpt lat="44.83813" lon="4.14235">
        <ele>1247.4</ele>
        <time>2022-06-09T14:26:39Z</time>
      </trkpt>
      <trkpt lat="44.83817" lon="4.1423">
        <ele>1247.2</ele>
        <time>2022-06-09T14:26:40Z</time>
      </trkpt>
      <trkpt lat="44.83821" lon="4.14225">
        <ele>1246.8</ele>
        <time>2022-06-09T14:26:41Z</time>
      </trkpt>
      <trkpt lat="44.83825" lon="4.14219">
        <ele>1246.6</ele>
        <time>2022-06-09T14:26:42Z</time>
      </trkpt>
      <trkpt lat="44.8383" lon="4.14213">
        <ele>1246.3</ele>
        <time>2022-06-09T14:26:43Z</time>
      </trkpt>
      <trkpt lat="44.83835" lon="4.14207">
        <ele>1246.1</ele>
        <time>2022-06-09T14:26:44Z</time>
      </trkpt>
      <trkpt lat="44.83839" lon="4.14201">
        <ele>1245.8</ele>
        <time>2022-06-09T14:26:45Z</time>
      </trkpt>
      <trkpt lat="44.83843" lon="4.14195">
        <ele>1245.6</ele>
        <time>2022-06-09T14:26:46Z</time>
      </trkpt>
      <trkpt lat="44.83848" lon="4.14189">
        <ele>1245.4</ele>
        <time>2022-06-09T14:26:47Z</time>
      </trkpt>
      <trkpt lat="44.83852" lon="4.14184">
        <ele>1245.1</ele>
        <time>2022-06-09T14:26:48Z</time>
      </trkpt>
      <trkpt lat="44.83857" lon="4.14178">
        <ele>1244.9</ele>
        <time>2022-06-09T14:26:49Z</time>
      </trkpt>
      <trkpt lat="44.83862" lon="4.14172">
        <ele>1244.6</ele>
        <time>2022-06-09T14:26:50Z</time>
      </trkpt>
      <trkpt lat="44.83868" lon="4.14166">
        <ele>1244.4</ele>
        <time>2022-06-09T14:26:51Z</time>
      </trkpt>
      <trkpt lat="44.83873" lon="4.14159">
        <ele>1244.1</ele>
        <time>2022-06-09T14:26:52Z</time>
      </trkpt>
      <trkpt lat="44.83879" lon="4.14153">
        <ele>1243.9</ele>
        <time>2022-06-09T14:26:53Z</time>
      </trkpt>
      <trkpt lat="44.83884" lon="4.14146">
        <ele>1243.6</ele>
        <time>2022-06-09T14:26:54Z</time>
      </trkpt>
      <trkpt lat="44.83888" lon="4.14139">
        <ele>1243.4</ele>
        <time>2022-06-09T14:26:55Z</time>
      </trkpt>
      <trkpt lat="44.83893" lon="4.14133">
        <ele>1243.1</ele>
        <time>2022-06-09T14:26:56Z</time>
      </trkpt>
      <trkpt lat="44.83897" lon="4.14126">
        <ele>1242.9</ele>
        <time>2022-06-09T14:26:57Z</time>
      </trkpt>
      <trkpt lat="44.83902" lon="4.14118">
        <ele>1242.6</ele>
        <time>2022-06-09T14:26:58Z</time>
      </trkpt>
      <trkpt lat="44.83906" lon="4.14111">
        <ele>1242.3</ele>
        <time>2022-06-09T14:26:59Z</time>
      </trkpt>
      <trkpt lat="44.8391" lon="4.14103">
        <ele>1242.1</ele>
        <time>2022-06-09T14:27:00Z</time>
      </trkpt>
      <trkpt lat="44.83914" lon="4.14096">
        <ele>1241.8</ele>
        <time>2022-06-09T14:27:01Z</time>
      </trkpt>
      <trkpt lat="44.83917" lon="4.14088">
        <ele>1241.5</ele>
        <time>2022-06-09T14:27:02Z</time>
      </trkpt>
      <trkpt lat="44.8392" lon="4.14081">
        <ele>1241.2</ele>
        <time>2022-06-09T14:27:03Z</time>
      </trkpt>
      <trkpt lat="44.83924" lon="4.14074">
        <ele>1240.9</ele>
        <time>2022-06-09T14:27:04Z</time>
      </trkpt>
      <trkpt lat="44.83927" lon="4.14067">
        <ele>1240.6</ele>
        <time>2022-06-09T14:27:05Z</time>
      </trkpt>
      <trkpt lat="44.83931" lon="4.1406">
        <ele>1240.4</ele>
        <time>2022-06-09T14:27:06Z</time>
      </trkpt>
      <trkpt lat="44.83934" lon="4.14054">
        <ele>1240.1</ele>
        <time>2022-06-09T14:27:07Z</time>
      </trkpt>
      <trkpt lat="44.83937" lon="4.14047">
        <ele>1239.9</ele>
        <time>2022-06-09T14:27:08Z</time>
      </trkpt>
      <trkpt lat="44.83941" lon="4.1404">
        <ele>1239.6</ele>
        <time>2022-06-09T14:27:09Z</time>
      </trkpt>
      <trkpt lat="44.83944" lon="4.14032">
        <ele>1239.4</ele>
        <time>2022-06-09T14:27:10Z</time>
      </trkpt>
      <trkpt lat="44.83948" lon="4.14025">
        <ele>1239.1</ele>
        <time>2022-06-09T14:27:11Z</time>
      </trkpt>
      <trkpt lat="44.83951" lon="4.14018">
        <ele>1238.8</ele>
        <time>2022-06-09T14:27:12Z</time>
      </trkpt>
      <trkpt lat="44.83955" lon="4.14011">
        <ele>1238.6</ele>
        <time>2022-06-09T14:27:13Z</time>
      </trkpt>
      <trkpt lat="44.83958" lon="4.14004">
        <ele>1238.3</ele>
        <time>2022-06-09T14:27:14Z</time>
      </trkpt>
      <trkpt lat="44.83962" lon="4.13996">
        <ele>1238.1</ele>
        <time>2022-06-09T14:27:15Z</time>
      </trkpt>
      <trkpt lat="44.83965" lon="4.13989">
        <ele>1237.8</ele>
        <time>2022-06-09T14:27:16Z</time>
      </trkpt>
      <trkpt lat="44.83968" lon="4.13982">
        <ele>1237.6</ele>
        <time>2022-06-09T14:27:17Z</time>
      </trkpt>
      <trkpt lat="44.83972" lon="4.13976">
        <ele>1237.4</ele>
        <time>2022-06-09T14:27:18Z</time>
      </trkpt>
      <trkpt lat="44.83975" lon="4.13969">
        <ele>1237.1</ele>
        <time>2022-06-09T14:27:19Z</time>
      </trkpt>
      <trkpt lat="44.83979" lon="4.13962">
        <ele>1236.9</ele>
        <time>2022-06-09T14:27:20Z</time>
      </trkpt>
      <trkpt lat="44.83982" lon="4.13956">
        <ele>1236.6</ele>
        <time>2022-06-09T14:27:21Z</time>
      </trkpt>
      <trkpt lat="44.83986" lon="4.13949">
        <ele>1236.3</ele>
        <time>2022-06-09T14:27:22Z</time>
      </trkpt>
      <trkpt lat="44.83989" lon="4.13942">
        <ele>1236</ele>
        <time>2022-06-09T14:27:23Z</time>
      </trkpt>
      <trkpt lat="44.83993" lon="4.13934">
        <ele>1235.6</ele>
        <time>2022-06-09T14:27:24Z</time>
      </trkpt>
      <trkpt lat="44.83997" lon="4.13928">
        <ele>1235.3</ele>
        <time>2022-06-09T14:27:25Z</time>
      </trkpt>
      <trkpt lat="44.84001" lon="4.13921">
        <ele>1235</ele>
        <time>2022-06-09T14:27:26Z</time>
      </trkpt>
      <trkpt lat="44.84005" lon="4.13915">
        <ele>1234.7</ele>
        <time>2022-06-09T14:27:27Z</time>
      </trkpt>
      <trkpt lat="44.84009" lon="4.13909">
        <ele>1234.3</ele>
        <time>2022-06-09T14:27:28Z</time>
      </trkpt>
      <trkpt lat="44.84014" lon="4.13903">
        <ele>1233.9</ele>
        <time>2022-06-09T14:27:29Z</time>
      </trkpt>
      <trkpt lat="44.84018" lon="4.13897">
        <ele>1233.5</ele>
        <time>2022-06-09T14:27:30Z</time>
      </trkpt>
      <trkpt lat="44.84023" lon="4.13892">
        <ele>1233.1</ele>
        <time>2022-06-09T14:27:31Z</time>
      </trkpt>
      <trkpt lat="44.84028" lon="4.13886">
        <ele>1232.7</ele>
        <time>2022-06-09T14:27:32Z</time>
      </trkpt>
      <trkpt lat="44.84033" lon="4.13881">
        <ele>1232.3</ele>
        <time>2022-06-09T14:27:33Z</time>
      </trkpt>
      <trkpt lat="44.84039" lon="4.13877">
        <ele>1231.9</ele>
        <time>2022-06-09T14:27:34Z</time>
      </trkpt>
      <trkpt lat="44.84044" lon="4.13871">
        <ele>1231.4</ele>
        <time>2022-06-09T14:27:35Z</time>
      </trkpt>
      <trkpt lat="44.84049" lon="4.13866">
        <ele>1231.1</ele>
        <time>2022-06-09T14:27:36Z</time>
      </trkpt>
      <trkpt lat="44.84055" lon="4.13861">
        <ele>1230.7</ele>
        <time>2022-06-09T14:27:37Z</time>
      </trkpt>
      <trkpt lat="44.8406" lon="4.13856">
        <ele>1230.3</ele>
        <time>2022-06-09T14:27:38Z</time>
      </trkpt>
      <trkpt lat="44.84066" lon="4.13852">
        <ele>1230</ele>
        <time>2022-06-09T14:27:39Z</time>
      </trkpt>
      <trkpt lat="44.84072" lon="4.13848">
        <ele>1229.6</ele>
        <time>2022-06-09T14:27:40Z</time>
      </trkpt>
      <trkpt lat="44.84079" lon="4.13846">
        <ele>1229.3</ele>
        <time>2022-06-09T14:27:41Z</time>
      </trkpt>
      <trkpt lat="44.84085" lon="4.13844">
        <ele>1229</ele>
        <time>2022-06-09T14:27:42Z</time>
      </trkpt>
      <trkpt lat="44.84092" lon="4.13843">
        <ele>1228.8</ele>
        <time>2022-06-09T14:27:43Z</time>
      </trkpt>
      <trkpt lat="44.84098" lon="4.13843">
        <ele>1228.6</ele>
        <time>2022-06-09T14:27:44Z</time>
      </trkpt>
      <trkpt lat="44.84104" lon="4.13844">
        <ele>1228.4</ele>
        <time>2022-06-09T14:27:45Z</time>
      </trkpt>
      <trkpt lat="44.84109" lon="4.13845">
        <ele>1228.2</ele>
        <time>2022-06-09T14:27:46Z</time>
      </trkpt>
      <trkpt lat="44.84114" lon="4.13845">
        <ele>1228</ele>
        <time>2022-06-09T14:27:47Z</time>
      </trkpt>
      <trkpt lat="44.8412" lon="4.13845">
        <ele>1227.9</ele>
        <time>2022-06-09T14:27:48Z</time>
      </trkpt>
      <trkpt lat="44.84125" lon="4.13844">
        <ele>1227.7</ele>
        <time>2022-06-09T14:27:49Z</time>
      </trkpt>
      <trkpt lat="44.8413" lon="4.13841">
        <ele>1227.6</ele>
        <time>2022-06-09T14:27:50Z</time>
      </trkpt>
      <trkpt lat="44.84136" lon="4.13838">
        <ele>1227.5</ele>
        <time>2022-06-09T14:27:51Z</time>
      </trkpt>
      <trkpt lat="44.8414" lon="4.13833">
        <ele>1227.4</ele>
        <time>2022-06-09T14:27:52Z</time>
      </trkpt>
      <trkpt lat="44.84144" lon="4.13828">
        <ele>1227.4</ele>
        <time>2022-06-09T14:27:53Z</time>
      </trkpt>
      <trkpt lat="44.84148" lon="4.13822">
        <ele>1227.4</ele>
        <time>2022-06-09T14:27:54Z</time>
      </trkpt>
      <trkpt lat="44.84152" lon="4.13816">
        <ele>1227.4</ele>
        <time>2022-06-09T14:27:55Z</time>
      </trkpt>
      <trkpt lat="44.84156" lon="4.1381">
        <ele>1227.5</ele>
        <time>2022-06-09T14:27:56Z</time>
      </trkpt>
      <trkpt lat="44.84159" lon="4.13805">
        <ele>1227.5</ele>
        <time>2022-06-09T14:27:57Z</time>
      </trkpt>
      <trkpt lat="44.84163" lon="4.13799">
        <ele>1227.5</ele>
        <time>2022-06-09T14:27:58Z</time>
      </trkpt>
      <trkpt lat="44.84166" lon="4.13794">
        <ele>1227.6</ele>
        <time>2022-06-09T14:27:59Z</time>
      </trkpt>
      <trkpt lat="44.84169" lon="4.13788">
        <ele>1227.6</ele>
        <time>2022-06-09T14:28:00Z</time>
      </trkpt>
      <trkpt lat="44.84173" lon="4.13783">
        <ele>1227.7</ele>
        <time>2022-06-09T14:28:01Z</time>
      </trkpt>
      <trkpt lat="44.84176" lon="4.13778">
        <ele>1227.7</ele>
        <time>2022-06-09T14:28:02Z</time>
      </trkpt>
      <trkpt lat="44.84178" lon="4.13773">
        <ele>1227.8</ele>
        <time>2022-06-09T14:28:03Z</time>
      </trkpt>
      <trkpt lat="44.84182" lon="4.13768">
        <ele>1227.8</ele>
        <time>2022-06-09T14:28:04Z</time>
      </trkpt>
      <trkpt lat="44.84183" lon="4.13765">
        <ele>1227.8</ele>
        <time>2022-06-09T14:28:05Z</time>
      </trkpt>
      <trkpt lat="44.84186" lon="4.13761">
        <ele>1227.9</ele>
        <time>2022-06-09T14:28:06Z</time>
      </trkpt>
      <trkpt lat="44.84188" lon="4.13757">
        <ele>1227.9</ele>
        <time>2022-06-09T14:28:07Z</time>
      </trkpt>
      <trkpt lat="44.84191" lon="4.13753">
        <ele>1228</ele>
        <time>2022-06-09T14:28:08Z</time>
      </trkpt>
      <trkpt lat="44.84194" lon="4.13748">
        <ele>1228.1</ele>
        <time>2022-06-09T14:28:09Z</time>
      </trkpt>
      <trkpt lat="44.84196" lon="4.13745">
        <ele>1228.1</ele>
        <time>2022-06-09T14:28:10Z</time>
      </trkpt>
      <trkpt lat="44.84197" lon="4.13741">
        <ele>1228.2</ele>
        <time>2022-06-09T14:28:11Z</time>
      </trkpt>
      <trkpt lat="44.84199" lon="4.13735">
        <ele>1228.2</ele>
        <time>2022-06-09T14:28:12Z</time>
      </trkpt>
      <trkpt lat="44.84203" lon="4.1373">
        <ele>1228.4</ele>
        <time>2022-06-09T14:28:13Z</time>
      </trkpt>
      <trkpt lat="44.84206" lon="4.13726">
        <ele>1228.5</ele>
        <time>2022-06-09T14:28:14Z</time>
      </trkpt>
      <trkpt lat="44.84209" lon="4.13722">
        <ele>1228.6</ele>
        <time>2022-06-09T14:28:16Z</time>
      </trkpt>
      <trkpt lat="44.84211" lon="4.13719">
        <ele>1228.7</ele>
        <time>2022-06-09T14:28:17Z</time>
      </trkpt>
      <trkpt lat="44.84214" lon="4.13715">
        <ele>1228.7</ele>
        <time>2022-06-09T14:28:18Z</time>
      </trkpt>
      <trkpt lat="44.84216" lon="4.13712">
        <ele>1228.8</ele>
        <time>2022-06-09T14:28:19Z</time>
      </trkpt>
      <trkpt lat="44.84218" lon="4.13708">
        <ele>1228.9</ele>
        <time>2022-06-09T14:28:20Z</time>
      </trkpt>
      <trkpt lat="44.8422" lon="4.13704">
        <ele>1229</ele>
        <time>2022-06-09T14:28:21Z</time>
      </trkpt>
      <trkpt lat="44.84221" lon="4.137">
        <ele>1229.1</ele>
        <time>2022-06-09T14:28:22Z</time>
      </trkpt>
      <trkpt lat="44.84224" lon="4.13695">
        <ele>1229.2</ele>
        <time>2022-06-09T14:28:23Z</time>
      </trkpt>
      <trkpt lat="44.84227" lon="4.13689">
        <ele>1229.4</ele>
        <time>2022-06-09T14:28:24Z</time>
      </trkpt>
      <trkpt lat="44.84229" lon="4.13684">
        <ele>1229.5</ele>
        <time>2022-06-09T14:28:26Z</time>
      </trkpt>
      <trkpt lat="44.84231" lon="4.13677">
        <ele>1229.7</ele>
        <time>2022-06-09T14:28:27Z</time>
      </trkpt>
      <trkpt lat="44.84232" lon="4.13673">
        <ele>1229.8</ele>
        <time>2022-06-09T14:28:28Z</time>
      </trkpt>
      <trkpt lat="44.84233" lon="4.13669">
        <ele>1229.9</ele>
        <time>2022-06-09T14:28:29Z</time>
      </trkpt>
      <trkpt lat="44.84234" lon="4.13663">
        <ele>1230</ele>
        <time>2022-06-09T14:28:30Z</time>
      </trkpt>
      <trkpt lat="44.84236" lon="4.13658">
        <ele>1230.1</ele>
        <time>2022-06-09T14:28:31Z</time>
      </trkpt>
      <trkpt lat="44.84237" lon="4.13653">
        <ele>1230.3</ele>
        <time>2022-06-09T14:28:32Z</time>
      </trkpt>
      <trkpt lat="44.84238" lon="4.13649">
        <ele>1230.4</ele>
        <time>2022-06-09T14:28:34Z</time>
      </trkpt>
      <trkpt lat="44.84239" lon="4.13645">
        <ele>1230.5</ele>
        <time>2022-06-09T14:28:35Z</time>
      </trkpt>
      <trkpt lat="44.84239" lon="4.13641">
        <ele>1230.6</ele>
        <time>2022-06-09T14:28:36Z</time>
      </trkpt>
      <trkpt lat="44.8424" lon="4.13636">
        <ele>1230.8</ele>
        <time>2022-06-09T14:28:37Z</time>
      </trkpt>
      <trkpt lat="44.8424" lon="4.13634">
        <ele>1230.8</ele>
        <time>2022-06-09T14:28:38Z</time>
      </trkpt>
      <trkpt lat="44.8424" lon="4.13628">
        <ele>1231</ele>
        <time>2022-06-09T14:28:39Z</time>
      </trkpt>
      <trkpt lat="44.8424" lon="4.13623">
        <ele>1231.2</ele>
        <time>2022-06-09T14:28:41Z</time>
      </trkpt>
      <trkpt lat="44.8424" lon="4.13622">
        <ele>1231.2</ele>
        <time>2022-06-09T14:28:42Z</time>
      </trkpt>
      <trkpt lat="44.8424" lon="4.13618">
        <ele>1231.4</ele>
        <time>2022-06-09T14:28:43Z</time>
      </trkpt>
      <trkpt lat="44.8424" lon="4.13613">
        <ele>1231.6</ele>
        <time>2022-06-09T14:28:44Z</time>
      </trkpt>
      <trkpt lat="44.8424" lon="4.13608">
        <ele>1231.8</ele>
        <time>2022-06-09T14:28:45Z</time>
      </trkpt>
      <trkpt lat="44.8424" lon="4.13599">
        <ele>1232.1</ele>
        <time>2022-06-09T14:28:47Z</time>
      </trkpt>
      <trkpt lat="44.8424" lon="4.13596">
        <ele>1232.3</ele>
        <time>2022-06-09T14:28:48Z</time>
      </trkpt>
      <trkpt lat="44.84241" lon="4.13592">
        <ele>1232.4</ele>
        <time>2022-06-09T14:28:49Z</time>
      </trkpt>
      <trkpt lat="44.84241" lon="4.13589">
        <ele>1232.5</ele>
        <time>2022-06-09T14:28:51Z</time>
      </trkpt>
      <trkpt lat="44.84241" lon="4.13583">
        <ele>1232.7</ele>
        <time>2022-06-09T14:28:52Z</time>
      </trkpt>
      <trkpt lat="44.84241" lon="4.13582">
        <ele>1232.8</ele>
        <time>2022-06-09T14:28:53Z</time>
      </trkpt>
      <trkpt lat="44.84242" lon="4.13577">
        <ele>1233</ele>
        <time>2022-06-09T14:28:54Z</time>
      </trkpt>
      <trkpt lat="44.84242" lon="4.13575">
        <ele>1233.1</ele>
        <time>2022-06-09T14:28:55Z</time>
      </trkpt>
      <trkpt lat="44.84242" lon="4.13568">
        <ele>1233.3</ele>
        <time>2022-06-09T14:28:56Z</time>
      </trkpt>
      <trkpt lat="44.84242" lon="4.13565">
        <ele>1233.4</ele>
        <time>2022-06-09T14:28:57Z</time>
      </trkpt>
      <trkpt lat="44.84243" lon="4.13563">
        <ele>1233.5</ele>
        <time>2022-06-09T14:28:58Z</time>
      </trkpt>
      <trkpt lat="44.84243" lon="4.13557">
        <ele>1233.8</ele>
        <time>2022-06-09T14:29:00Z</time>
      </trkpt>
      <trkpt lat="44.84243" lon="4.13554">
        <ele>1233.8</ele>
        <time>2022-06-09T14:29:01Z</time>
      </trkpt>
      <trkpt lat="44.84244" lon="4.1355">
        <ele>1234</ele>
        <time>2022-06-09T14:29:02Z</time>
      </trkpt>
      <trkpt lat="44.84245" lon="4.13548">
        <ele>1234.1</ele>
        <time>2022-06-09T14:29:03Z</time>
      </trkpt>
      <trkpt lat="44.84246" lon="4.13543">
        <ele>1234.3</ele>
        <time>2022-06-09T14:29:05Z</time>
      </trkpt>
      <trkpt lat="44.84246" lon="4.13542">
        <ele>1234.3</ele>
        <time>2022-06-09T14:29:06Z</time>
      </trkpt>
      <trkpt lat="44.84247" lon="4.13538">
        <ele>1234.5</ele>
        <time>2022-06-09T14:29:07Z</time>
      </trkpt>
      <trkpt lat="44.84248" lon="4.13534">
        <ele>1234.7</ele>
        <time>2022-06-09T14:29:08Z</time>
      </trkpt>
      <trkpt lat="44.84248" lon="4.13532">
        <ele>1234.8</ele>
        <time>2022-06-09T14:29:09Z</time>
      </trkpt>
      <trkpt lat="44.84249" lon="4.13527">
        <ele>1235</ele>
        <time>2022-06-09T14:29:11Z</time>
      </trkpt>
      <trkpt lat="44.84251" lon="4.13522">
        <ele>1235.2</ele>
        <time>2022-06-09T14:29:13Z</time>
      </trkpt>
      <trkpt lat="44.84251" lon="4.13519">
        <ele>1235.3</ele>
        <time>2022-06-09T14:29:14Z</time>
      </trkpt>
      <trkpt lat="44.84252" lon="4.13517">
        <ele>1235.5</ele>
        <time>2022-06-09T14:29:16Z</time>
      </trkpt>
      <trkpt lat="44.84253" lon="4.13513">
        <ele>1235.6</ele>
        <time>2022-06-09T14:29:17Z</time>
      </trkpt>
      <trkpt lat="44.84254" lon="4.13511">
        <ele>1235.7</ele>
        <time>2022-06-09T14:29:18Z</time>
      </trkpt>
      <trkpt lat="44.84255" lon="4.13509">
        <ele>1235.8</ele>
        <time>2022-06-09T14:29:19Z</time>
      </trkpt>
      <trkpt lat="44.84256" lon="4.13505">
        <ele>1236</ele>
        <time>2022-06-09T14:29:20Z</time>
      </trkpt>
      <trkpt lat="44.84256" lon="4.13504">
        <ele>1236.1</ele>
        <time>2022-06-09T14:29:21Z</time>
      </trkpt>
      <trkpt lat="44.84257" lon="4.13499">
        <ele>1236.3</ele>
        <time>2022-06-09T14:29:23Z</time>
      </trkpt>
      <trkpt lat="44.84258" lon="4.13498">
        <ele>1236.3</ele>
        <time>2022-06-09T14:29:24Z</time>
      </trkpt>
      <trkpt lat="44.84259" lon="4.13493">
        <ele>1236.5</ele>
        <time>2022-06-09T14:29:25Z</time>
      </trkpt>
      <trkpt lat="44.84259" lon="4.13492">
        <ele>1236.6</ele>
        <time>2022-06-09T14:29:26Z</time>
      </trkpt>
      <trkpt lat="44.8426" lon="4.13488">
        <ele>1236.8</ele>
        <time>2022-06-09T14:29:27Z</time>
      </trkpt>
      <trkpt lat="44.8426" lon="4.13487">
        <ele>1236.8</ele>
        <time>2022-06-09T14:29:28Z</time>
      </trkpt>
      <trkpt lat="44.8426" lon="4.13485">
        <ele>1236.9</ele>
        <time>2022-06-09T14:29:29Z</time>
      </trkpt>
      <trkpt lat="44.84261" lon="4.13482">
        <ele>1237</ele>
        <time>2022-06-09T14:29:30Z</time>
      </trkpt>
      <trkpt lat="44.84262" lon="4.13477">
        <ele>1237.2</ele>
        <time>2022-06-09T14:29:31Z</time>
      </trkpt>
      <trkpt lat="44.84263" lon="4.13473">
        <ele>1237.4</ele>
        <time>2022-06-09T14:29:33Z</time>
      </trkpt>
      <trkpt lat="44.84263" lon="4.13472">
        <ele>1237.5</ele>
        <time>2022-06-09T14:29:34Z</time>
      </trkpt>
      <trkpt lat="44.84264" lon="4.13467">
        <ele>1237.7</ele>
        <time>2022-06-09T14:29:35Z</time>
      </trkpt>
      <trkpt lat="44.84265" lon="4.13465">
        <ele>1237.8</ele>
        <time>2022-06-09T14:29:36Z</time>
      </trkpt>
      <trkpt lat="44.84266" lon="4.13462">
        <ele>1238</ele>
        <time>2022-06-09T14:29:38Z</time>
      </trkpt>
      <trkpt lat="44.84267" lon="4.13458">
        <ele>1238.2</ele>
        <time>2022-06-09T14:29:39Z</time>
      </trkpt>
      <trkpt lat="44.84268" lon="4.13456">
        <ele>1238.2</ele>
        <time>2022-06-09T14:29:40Z</time>
      </trkpt>
      <trkpt lat="44.84269" lon="4.13453">
        <ele>1238.4</ele>
        <time>2022-06-09T14:29:41Z</time>
      </trkpt>
      <trkpt lat="44.84269" lon="4.13451">
        <ele>1238.5</ele>
        <time>2022-06-09T14:29:42Z</time>
      </trkpt>
      <trkpt lat="44.8427" lon="4.13448">
        <ele>1238.6</ele>
        <time>2022-06-09T14:29:43Z</time>
      </trkpt>
      <trkpt lat="44.84271" lon="4.13445">
        <ele>1238.8</ele>
        <time>2022-06-09T14:29:44Z</time>
      </trkpt>
      <trkpt lat="44.84272" lon="4.13443">
        <ele>1238.9</ele>
        <time>2022-06-09T14:29:46Z</time>
      </trkpt>
      <trkpt lat="44.84273" lon="4.13438">
        <ele>1239.1</ele>
        <time>2022-06-09T14:29:47Z</time>
      </trkpt>
      <trkpt lat="44.84274" lon="4.13434">
        <ele>1239.3</ele>
        <time>2022-06-09T14:29:49Z</time>
      </trkpt>
      <trkpt lat="44.84276" lon="4.1343">
        <ele>1239.4</ele>
        <time>2022-06-09T14:29:50Z</time>
      </trkpt>
      <trkpt lat="44.84277" lon="4.13426">
        <ele>1239.6</ele>
        <time>2022-06-09T14:29:52Z</time>
      </trkpt>
      <trkpt lat="44.84277" lon="4.13425">
        <ele>1239.7</ele>
        <time>2022-06-09T14:29:53Z</time>
      </trkpt>
      <trkpt lat="44.84279" lon="4.1342">
        <ele>1239.8</ele>
        <time>2022-06-09T14:29:54Z</time>
      </trkpt>
      <trkpt lat="44.8428" lon="4.13418">
        <ele>1240</ele>
        <time>2022-06-09T14:29:55Z</time>
      </trkpt>
      <trkpt lat="44.84281" lon="4.13416">
        <ele>1240</ele>
        <time>2022-06-09T14:29:57Z</time>
      </trkpt>
      <trkpt lat="44.84282" lon="4.13411">
        <ele>1240.2</ele>
        <time>2022-06-09T14:29:58Z</time>
      </trkpt>
      <trkpt lat="44.84283" lon="4.13409">
        <ele>1240.3</ele>
        <time>2022-06-09T14:29:59Z</time>
      </trkpt>
      <trkpt lat="44.84284" lon="4.13406">
        <ele>1240.4</ele>
        <time>2022-06-09T14:30:01Z</time>
      </trkpt>
      <trkpt lat="44.84286" lon="4.13402">
        <ele>1240.6</ele>
        <time>2022-06-09T14:30:02Z</time>
      </trkpt>
      <trkpt lat="44.84287" lon="4.13399">
        <ele>1240.7</ele>
        <time>2022-06-09T14:30:03Z</time>
      </trkpt>
      <trkpt lat="44.84289" lon="4.13395">
        <ele>1240.9</ele>
        <time>2022-06-09T14:30:04Z</time>
      </trkpt>
      <trkpt lat="44.8429" lon="4.13394">
        <ele>1241</ele>
        <time>2022-06-09T14:30:05Z</time>
      </trkpt>
      <trkpt lat="44.84292" lon="4.13392">
        <ele>1241.1</ele>
        <time>2022-06-09T14:30:06Z</time>
      </trkpt>
      <trkpt lat="44.84294" lon="4.13387">
        <ele>1241.3</ele>
        <time>2022-06-09T14:30:08Z</time>
      </trkpt>
      <trkpt lat="44.84295" lon="4.13385">
        <ele>1241.4</ele>
        <time>2022-06-09T14:30:10Z</time>
      </trkpt>
      <trkpt lat="44.84297" lon="4.1338">
        <ele>1241.6</ele>
        <time>2022-06-09T14:30:11Z</time>
      </trkpt>
      <trkpt lat="44.84298" lon="4.13379">
        <ele>1241.7</ele>
        <time>2022-06-09T14:30:12Z</time>
      </trkpt>
      <trkpt lat="44.843" lon="4.13375">
        <ele>1241.9</ele>
        <time>2022-06-09T14:30:13Z</time>
      </trkpt>
      <trkpt lat="44.84301" lon="4.13372">
        <ele>1242.1</ele>
        <time>2022-06-09T14:30:14Z</time>
      </trkpt>
      <trkpt lat="44.84302" lon="4.1337">
        <ele>1242.2</ele>
        <time>2022-06-09T14:30:16Z</time>
      </trkpt>
      <trkpt lat="44.84304" lon="4.13367">
        <ele>1242.3</ele>
        <time>2022-06-09T14:30:17Z</time>
      </trkpt>
      <trkpt lat="44.84306" lon="4.13363">
        <ele>1242.6</ele>
        <time>2022-06-09T14:30:18Z</time>
      </trkpt>
      <trkpt lat="44.84308" lon="4.13359">
        <ele>1242.8</ele>
        <time>2022-06-09T14:30:20Z</time>
      </trkpt>
      <trkpt lat="44.84309" lon="4.13358">
        <ele>1242.8</ele>
        <time>2022-06-09T14:30:21Z</time>
      </trkpt>
      <trkpt lat="44.8431" lon="4.13354">
        <ele>1243</ele>
        <time>2022-06-09T14:30:22Z</time>
      </trkpt>
      <trkpt lat="44.84311" lon="4.13352">
        <ele>1243.1</ele>
        <time>2022-06-09T14:30:23Z</time>
      </trkpt>
      <trkpt lat="44.84312" lon="4.13348">
        <ele>1243.2</ele>
        <time>2022-06-09T14:30:24Z</time>
      </trkpt>
      <trkpt lat="44.84313" lon="4.13347">
        <ele>1243.3</ele>
        <time>2022-06-09T14:30:25Z</time>
      </trkpt>
      <trkpt lat="44.84315" lon="4.13344">
        <ele>1243.5</ele>
        <time>2022-06-09T14:30:26Z</time>
      </trkpt>
      <trkpt lat="44.84315" lon="4.13342">
        <ele>1243.5</ele>
        <time>2022-06-09T14:30:27Z</time>
      </trkpt>
      <trkpt lat="44.84317" lon="4.13338">
        <ele>1243.8</ele>
        <time>2022-06-09T14:30:28Z</time>
      </trkpt>
      <trkpt lat="44.84319" lon="4.13336">
        <ele>1243.9</ele>
        <time>2022-06-09T14:30:29Z</time>
      </trkpt>
      <trkpt lat="44.84321" lon="4.13332">
        <ele>1244.1</ele>
        <time>2022-06-09T14:30:31Z</time>
      </trkpt>
      <trkpt lat="44.84322" lon="4.1333">
        <ele>1244.2</ele>
        <time>2022-06-09T14:30:33Z</time>
      </trkpt>
      <trkpt lat="44.84323" lon="4.13327">
        <ele>1244.3</ele>
        <time>2022-06-09T14:30:34Z</time>
      </trkpt>
      <trkpt lat="44.84324" lon="4.13324">
        <ele>1244.5</ele>
        <time>2022-06-09T14:30:35Z</time>
      </trkpt>
      <trkpt lat="44.84325" lon="4.13322">
        <ele>1244.6</ele>
        <time>2022-06-09T14:30:37Z</time>
      </trkpt>
      <trkpt lat="44.84327" lon="4.13318">
        <ele>1244.8</ele>
        <time>2022-06-09T14:30:38Z</time>
      </trkpt>
      <trkpt lat="44.84329" lon="4.13313">
        <ele>1245</ele>
        <time>2022-06-09T14:30:40Z</time>
      </trkpt>
      <trkpt lat="44.8433" lon="4.13312">
        <ele>1245.1</ele>
        <time>2022-06-09T14:30:42Z</time>
      </trkpt>
      <trkpt lat="44.84331" lon="4.1331">
        <ele>1245.1</ele>
        <time>2022-06-09T14:30:43Z</time>
      </trkpt>
      <trkpt lat="44.84332" lon="4.13307">
        <ele>1245.3</ele>
        <time>2022-06-09T14:30:44Z</time>
      </trkpt>
      <trkpt lat="44.84333" lon="4.13306">
        <ele>1245.4</ele>
        <time>2022-06-09T14:30:45Z</time>
      </trkpt>
      <trkpt lat="44.84334" lon="4.13303">
        <ele>1245.5</ele>
        <time>2022-06-09T14:30:46Z</time>
      </trkpt>
      <trkpt lat="44.84335" lon="4.13301">
        <ele>1245.6</ele>
        <time>2022-06-09T14:30:47Z</time>
      </trkpt>
      <trkpt lat="44.84337" lon="4.13297">
        <ele>1245.8</ele>
        <time>2022-06-09T14:30:48Z</time>
      </trkpt>
      <trkpt lat="44.84337" lon="4.13295">
        <ele>1245.9</ele>
        <time>2022-06-09T14:30:49Z</time>
      </trkpt>
      <trkpt lat="44.8434" lon="4.13291">
        <ele>1246.1</ele>
        <time>2022-06-09T14:30:51Z</time>
      </trkpt>
      <trkpt lat="44.84342" lon="4.13285">
        <ele>1246.3</ele>
        <time>2022-06-09T14:30:53Z</time>
      </trkpt>
      <trkpt lat="44.84343" lon="4.13283">
        <ele>1246.4</ele>
        <time>2022-06-09T14:30:54Z</time>
      </trkpt>
      <trkpt lat="44.84344" lon="4.13281">
        <ele>1246.5</ele>
        <time>2022-06-09T14:30:55Z</time>
      </trkpt>
      <trkpt lat="44.84345" lon="4.13279">
        <ele>1246.6</ele>
        <time>2022-06-09T14:30:56Z</time>
      </trkpt>
      <trkpt lat="44.84346" lon="4.13276">
        <ele>1246.7</ele>
        <time>2022-06-09T14:30:58Z</time>
      </trkpt>
      <trkpt lat="44.84347" lon="4.13273">
        <ele>1246.9</ele>
        <time>2022-06-09T14:30:59Z</time>
      </trkpt>
      <trkpt lat="44.84349" lon="4.13271">
        <ele>1247</ele>
        <time>2022-06-09T14:31:01Z</time>
      </trkpt>
      <trkpt lat="44.8435" lon="4.13267">
        <ele>1247.1</ele>
        <time>2022-06-09T14:31:02Z</time>
      </trkpt>
      <trkpt lat="44.84352" lon="4.13264">
        <ele>1247.2</ele>
        <time>2022-06-09T14:31:03Z</time>
      </trkpt>
      <trkpt lat="44.84352" lon="4.13263">
        <ele>1247.3</ele>
        <time>2022-06-09T14:31:04Z</time>
      </trkpt>
      <trkpt lat="44.84355" lon="4.13259">
        <ele>1247.5</ele>
        <time>2022-06-09T14:31:06Z</time>
      </trkpt>
      <trkpt lat="44.84356" lon="4.13257">
        <ele>1247.5</ele>
        <time>2022-06-09T14:31:07Z</time>
      </trkpt>
      <trkpt lat="44.84357" lon="4.13253">
        <ele>1247.7</ele>
        <time>2022-06-09T14:31:08Z</time>
      </trkpt>
      <trkpt lat="44.84358" lon="4.13252">
        <ele>1247.8</ele>
        <time>2022-06-09T14:31:09Z</time>
      </trkpt>
      <trkpt lat="44.84359" lon="4.13249">
        <ele>1247.9</ele>
        <time>2022-06-09T14:31:10Z</time>
      </trkpt>
      <trkpt lat="44.8436" lon="4.13246">
        <ele>1248</ele>
        <time>2022-06-09T14:31:12Z</time>
      </trkpt>
      <trkpt lat="44.84361" lon="4.13244">
        <ele>1248.1</ele>
        <time>2022-06-09T14:31:13Z</time>
      </trkpt>
      <trkpt lat="44.84362" lon="4.13242">
        <ele>1248.2</ele>
        <time>2022-06-09T14:31:14Z</time>
      </trkpt>
      <trkpt lat="44.84363" lon="4.1324">
        <ele>1248.3</ele>
        <time>2022-06-09T14:31:15Z</time>
      </trkpt>
      <trkpt lat="44.84364" lon="4.13238">
        <ele>1248.4</ele>
        <time>2022-06-09T14:31:16Z</time>
      </trkpt>
      <trkpt lat="44.84365" lon="4.13234">
        <ele>1248.6</ele>
        <time>2022-06-09T14:31:17Z</time>
      </trkpt>
      <trkpt lat="44.84366" lon="4.13232">
        <ele>1248.6</ele>
        <time>2022-06-09T14:31:18Z</time>
      </trkpt>
      <trkpt lat="44.84367" lon="4.1323">
        <ele>1248.7</ele>
        <time>2022-06-09T14:31:19Z</time>
      </trkpt>
      <trkpt lat="44.84368" lon="4.13228">
        <ele>1248.8</ele>
        <time>2022-06-09T14:31:20Z</time>
      </trkpt>
      <trkpt lat="44.84369" lon="4.13225">
        <ele>1249</ele>
        <time>2022-06-09T14:31:21Z</time>
      </trkpt>
      <trkpt lat="44.8437" lon="4.13223">
        <ele>1249.1</ele>
        <time>2022-06-09T14:31:23Z</time>
      </trkpt>
      <trkpt lat="44.84372" lon="4.13219">
        <ele>1249.3</ele>
        <time>2022-06-09T14:31:24Z</time>
      </trkpt>
      <trkpt lat="44.84373" lon="4.13217">
        <ele>1249.4</ele>
        <time>2022-06-09T14:31:25Z</time>
      </trkpt>
      <trkpt lat="44.84374" lon="4.13214">
        <ele>1249.5</ele>
        <time>2022-06-09T14:31:27Z</time>
      </trkpt>
      <trkpt lat="44.84375" lon="4.1321">
        <ele>1249.7</ele>
        <time>2022-06-09T14:31:28Z</time>
      </trkpt>
      <trkpt lat="44.84376" lon="4.13208">
        <ele>1249.8</ele>
        <time>2022-06-09T14:31:29Z</time>
      </trkpt>
      <trkpt lat="44.84376" lon="4.13205">
        <ele>1249.9</ele>
        <time>2022-06-09T14:31:30Z</time>
      </trkpt>
      <trkpt lat="44.84377" lon="4.13201">
        <ele>1250.1</ele>
        <time>2022-06-09T14:31:32Z</time>
      </trkpt>
      <trkpt lat="44.84377" lon="4.13196">
        <ele>1250.3</ele>
        <time>2022-06-09T14:31:33Z</time>
      </trkpt>
      <trkpt lat="44.84378" lon="4.13192">
        <ele>1250.4</ele>
        <time>2022-06-09T14:31:34Z</time>
      </trkpt>
      <trkpt lat="44.84378" lon="4.13189">
        <ele>1250.5</ele>
        <time>2022-06-09T14:31:36Z</time>
      </trkpt>
      <trkpt lat="44.84378" lon="4.13185">
        <ele>1250.7</ele>
        <time>2022-06-09T14:31:37Z</time>
      </trkpt>
      <trkpt lat="44.84378" lon="4.13184">
        <ele>1250.7</ele>
        <time>2022-06-09T14:31:38Z</time>
      </trkpt>
      <trkpt lat="44.84378" lon="4.13179">
        <ele>1250.9</ele>
        <time>2022-06-09T14:31:39Z</time>
      </trkpt>
      <trkpt lat="44.84378" lon="4.13178">
        <ele>1251</ele>
        <time>2022-06-09T14:31:40Z</time>
      </trkpt>
      <trkpt lat="44.84378" lon="4.13174">
        <ele>1251.1</ele>
        <time>2022-06-09T14:31:41Z</time>
      </trkpt>
      <trkpt lat="44.84378" lon="4.13172">
        <ele>1251.2</ele>
        <time>2022-06-09T14:31:42Z</time>
      </trkpt>
      <trkpt lat="44.84378" lon="4.13167">
        <ele>1251.4</ele>
        <time>2022-06-09T14:31:43Z</time>
      </trkpt>
      <trkpt lat="44.84377" lon="4.13162">
        <ele>1251.6</ele>
        <time>2022-06-09T14:31:45Z</time>
      </trkpt>
      <trkpt lat="44.84377" lon="4.13161">
        <ele>1251.6</ele>
        <time>2022-06-09T14:31:46Z</time>
      </trkpt>
      <trkpt lat="44.84376" lon="4.13156">
        <ele>1251.8</ele>
        <time>2022-06-09T14:31:47Z</time>
      </trkpt>
      <trkpt lat="44.84376" lon="4.13155">
        <ele>1251.9</ele>
        <time>2022-06-09T14:31:48Z</time>
      </trkpt>
      <trkpt lat="44.84374" lon="4.1315">
        <ele>1252.1</ele>
        <time>2022-06-09T14:31:49Z</time>
      </trkpt>
      <trkpt lat="44.84374" lon="4.13149">
        <ele>1252.1</ele>
        <time>2022-06-09T14:31:50Z</time>
      </trkpt>
      <trkpt lat="44.84373" lon="4.13145">
        <ele>1252.3</ele>
        <time>2022-06-09T14:31:52Z</time>
      </trkpt>
      <trkpt lat="44.84373" lon="4.13144">
        <ele>1252.3</ele>
        <time>2022-06-09T14:31:53Z</time>
      </trkpt>
      <trkpt lat="44.84372" lon="4.1314">
        <ele>1252.5</ele>
        <time>2022-06-09T14:31:54Z</time>
      </trkpt>
      <trkpt lat="44.8437" lon="4.13136">
        <ele>1252.7</ele>
        <time>2022-06-09T14:31:55Z</time>
      </trkpt>
      <trkpt lat="44.84368" lon="4.13132">
        <ele>1252.9</ele>
        <time>2022-06-09T14:31:57Z</time>
      </trkpt>
      <trkpt lat="44.84367" lon="4.13129">
        <ele>1253</ele>
        <time>2022-06-09T14:31:58Z</time>
      </trkpt>
      <trkpt lat="44.84365" lon="4.13124">
        <ele>1253.3</ele>
        <time>2022-06-09T14:32:00Z</time>
      </trkpt>
      <trkpt lat="44.84365" lon="4.13122">
        <ele>1253.4</ele>
        <time>2022-06-09T14:32:01Z</time>
      </trkpt>
      <trkpt lat="44.84364" lon="4.1312">
        <ele>1253.4</ele>
        <time>2022-06-09T14:32:02Z</time>
      </trkpt>
      <trkpt lat="44.84362" lon="4.13116">
        <ele>1253.7</ele>
        <time>2022-06-09T14:32:03Z</time>
      </trkpt>
      <trkpt lat="44.84361" lon="4.13114">
        <ele>1253.8</ele>
        <time>2022-06-09T14:32:04Z</time>
      </trkpt>
      <trkpt lat="44.84359" lon="4.1311">
        <ele>1254</ele>
        <time>2022-06-09T14:32:05Z</time>
      </trkpt>
      <trkpt lat="44.84358" lon="4.13108">
        <ele>1254.1</ele>
        <time>2022-06-09T14:32:06Z</time>
      </trkpt>
      <trkpt lat="44.84356" lon="4.13103">
        <ele>1254.3</ele>
        <time>2022-06-09T14:32:07Z</time>
      </trkpt>
      <trkpt lat="44.84355" lon="4.13102">
        <ele>1254.4</ele>
        <time>2022-06-09T14:32:08Z</time>
      </trkpt>
      <trkpt lat="44.84353" lon="4.13098">
        <ele>1254.6</ele>
        <time>2022-06-09T14:32:10Z</time>
      </trkpt>
      <trkpt lat="44.84353" lon="4.13097">
        <ele>1254.7</ele>
        <time>2022-06-09T14:32:11Z</time>
      </trkpt>
      <trkpt lat="44.84351" lon="4.13093">
        <ele>1254.9</ele>
        <time>2022-06-09T14:32:12Z</time>
      </trkpt>
      <trkpt lat="44.8435" lon="4.13091">
        <ele>1255</ele>
        <time>2022-06-09T14:32:13Z</time>
      </trkpt>
      <trkpt lat="44.84349" lon="4.13087">
        <ele>1255.2</ele>
        <time>2022-06-09T14:32:14Z</time>
      </trkpt>
      <trkpt lat="44.84349" lon="4.13085">
        <ele>1255.3</ele>
        <time>2022-06-09T14:32:15Z</time>
      </trkpt>
      <trkpt lat="44.84348" lon="4.13081">
        <ele>1255.5</ele>
        <time>2022-06-09T14:32:16Z</time>
      </trkpt>
      <trkpt lat="44.84347" lon="4.13079">
        <ele>1255.5</ele>
        <time>2022-06-09T14:32:17Z</time>
      </trkpt>
      <trkpt lat="44.84346" lon="4.13075">
        <ele>1255.7</ele>
        <time>2022-06-09T14:32:18Z</time>
      </trkpt>
      <trkpt lat="44.84346" lon="4.13073">
        <ele>1255.8</ele>
        <time>2022-06-09T14:32:19Z</time>
      </trkpt>
      <trkpt lat="44.84346" lon="4.13069">
        <ele>1256</ele>
        <time>2022-06-09T14:32:20Z</time>
      </trkpt>
      <trkpt lat="44.84346" lon="4.13067">
        <ele>1256</ele>
        <time>2022-06-09T14:32:21Z</time>
      </trkpt>
      <trkpt lat="44.84345" lon="4.13062">
        <ele>1256.2</ele>
        <time>2022-06-09T14:32:22Z</time>
      </trkpt>
      <trkpt lat="44.84345" lon="4.1306">
        <ele>1256.3</ele>
        <time>2022-06-09T14:32:23Z</time>
      </trkpt>
      <trkpt lat="44.84345" lon="4.13055">
        <ele>1256.5</ele>
        <time>2022-06-09T14:32:24Z</time>
      </trkpt>
      <trkpt lat="44.84346" lon="4.13049">
        <ele>1256.8</ele>
        <time>2022-06-09T14:32:26Z</time>
      </trkpt>
      <trkpt lat="44.84346" lon="4.13047">
        <ele>1256.8</ele>
        <time>2022-06-09T14:32:27Z</time>
      </trkpt>
      <trkpt lat="44.84347" lon="4.13043">
        <ele>1257</ele>
        <time>2022-06-09T14:32:29Z</time>
      </trkpt>
      <trkpt lat="44.84348" lon="4.13037">
        <ele>1257.3</ele>
        <time>2022-06-09T14:32:30Z</time>
      </trkpt>
      <trkpt lat="44.84349" lon="4.13032">
        <ele>1257.5</ele>
        <time>2022-06-09T14:32:31Z</time>
      </trkpt>
      <trkpt lat="44.8435" lon="4.1303">
        <ele>1257.6</ele>
        <time>2022-06-09T14:32:32Z</time>
      </trkpt>
      <trkpt lat="44.84352" lon="4.13025">
        <ele>1257.8</ele>
        <time>2022-06-09T14:32:33Z</time>
      </trkpt>
      <trkpt lat="44.84352" lon="4.13023">
        <ele>1257.9</ele>
        <time>2022-06-09T14:32:34Z</time>
      </trkpt>
      <trkpt lat="44.84353" lon="4.13021">
        <ele>1258</ele>
        <time>2022-06-09T14:32:36Z</time>
      </trkpt>
      <trkpt lat="44.84356" lon="4.13016">
        <ele>1258.3</ele>
        <time>2022-06-09T14:32:38Z</time>
      </trkpt>
      <trkpt lat="44.84358" lon="4.13013">
        <ele>1258.5</ele>
        <time>2022-06-09T14:32:39Z</time>
      </trkpt>
      <trkpt lat="44.84359" lon="4.13012">
        <ele>1258.6</ele>
        <time>2022-06-09T14:32:40Z</time>
      </trkpt>
      <trkpt lat="44.8436" lon="4.1301">
        <ele>1258.7</ele>
        <time>2022-06-09T14:32:41Z</time>
      </trkpt>
      <trkpt lat="44.84361" lon="4.13008">
        <ele>1258.8</ele>
        <time>2022-06-09T14:32:42Z</time>
      </trkpt>
      <trkpt lat="44.84363" lon="4.13006">
        <ele>1258.9</ele>
        <time>2022-06-09T14:32:43Z</time>
      </trkpt>
      <trkpt lat="44.84366" lon="4.13003">
        <ele>1259.1</ele>
        <time>2022-06-09T14:32:45Z</time>
      </trkpt>
      <trkpt lat="44.84367" lon="4.13002">
        <ele>1259.2</ele>
        <time>2022-06-09T14:32:46Z</time>
      </trkpt>
      <trkpt lat="44.84369" lon="4.12999">
        <ele>1259.3</ele>
        <time>2022-06-09T14:32:47Z</time>
      </trkpt>
      <trkpt lat="44.8437" lon="4.12999">
        <ele>1259.4</ele>
        <time>2022-06-09T14:32:48Z</time>
      </trkpt>
      <trkpt lat="44.84372" lon="4.12996">
        <ele>1259.5</ele>
        <time>2022-06-09T14:32:49Z</time>
      </trkpt>
      <trkpt lat="44.84373" lon="4.12995">
        <ele>1259.6</ele>
        <time>2022-06-09T14:32:50Z</time>
      </trkpt>
      <trkpt lat="44.84374" lon="4.12993">
        <ele>1259.7</ele>
        <time>2022-06-09T14:32:51Z</time>
      </trkpt>
      <trkpt lat="44.84376" lon="4.12992">
        <ele>1259.8</ele>
        <time>2022-06-09T14:32:52Z</time>
      </trkpt>
      <trkpt lat="44.84378" lon="4.1299">
        <ele>1259.9</ele>
        <time>2022-06-09T14:32:53Z</time>
      </trkpt>
      <trkpt lat="44.84379" lon="4.12989">
        <ele>1260</ele>
        <time>2022-06-09T14:32:54Z</time>
      </trkpt>
      <trkpt lat="44.8438" lon="4.12988">
        <ele>1260</ele>
        <time>2022-06-09T14:32:55Z</time>
      </trkpt>
      <trkpt lat="44.84382" lon="4.12986">
        <ele>1260.1</ele>
        <time>2022-06-09T14:32:56Z</time>
      </trkpt>
      <trkpt lat="44.84385" lon="4.12984">
        <ele>1259.9</ele>
        <time>2022-06-09T14:32:57Z</time>
      </trkpt>
      <trkpt lat="44.84389" lon="4.12982">
        <ele>1259.7</ele>
        <time>2022-06-09T14:32:59Z</time>
      </trkpt>
      <trkpt lat="44.84391" lon="4.12981">
        <ele>1259.6</ele>
        <time>2022-06-09T14:33:00Z</time>
      </trkpt>
      <trkpt lat="44.84394" lon="4.12981">
        <ele>1259.5</ele>
        <time>2022-06-09T14:33:02Z</time>
      </trkpt>
      <trkpt lat="44.84399" lon="4.1298">
        <ele>1259.2</ele>
        <time>2022-06-09T14:33:03Z</time>
      </trkpt>
      <trkpt lat="44.84402" lon="4.1298">
        <ele>1259</ele>
        <time>2022-06-09T14:33:04Z</time>
      </trkpt>
      <trkpt lat="44.84409" lon="4.12979">
        <ele>1258.6</ele>
        <time>2022-06-09T14:33:06Z</time>
      </trkpt>
      <trkpt lat="44.84414" lon="4.1298">
        <ele>1258.4</ele>
        <time>2022-06-09T14:33:08Z</time>
      </trkpt>
      <trkpt lat="44.8442" lon="4.1298">
        <ele>1258</ele>
        <time>2022-06-09T14:33:09Z</time>
      </trkpt>
      <trkpt lat="44.84426" lon="4.1298">
        <ele>1257.7</ele>
        <time>2022-06-09T14:33:11Z</time>
      </trkpt>
      <trkpt lat="44.84431" lon="4.1298">
        <ele>1257.5</ele>
        <time>2022-06-09T14:33:12Z</time>
      </trkpt>
      <trkpt lat="44.84436" lon="4.12979">
        <ele>1257.2</ele>
        <time>2022-06-09T14:33:13Z</time>
      </trkpt>
      <trkpt lat="44.84441" lon="4.12979">
        <ele>1257</ele>
        <time>2022-06-09T14:33:14Z</time>
      </trkpt>
      <trkpt lat="44.84446" lon="4.12978">
        <ele>1256.7</ele>
        <time>2022-06-09T14:33:15Z</time>
      </trkpt>
      <trkpt lat="44.84451" lon="4.12977">
        <ele>1256.4</ele>
        <time>2022-06-09T14:33:16Z</time>
      </trkpt>
      <trkpt lat="44.84456" lon="4.12977">
        <ele>1256.1</ele>
        <time>2022-06-09T14:33:17Z</time>
      </trkpt>
      <trkpt lat="44.84461" lon="4.12977">
        <ele>1255.8</ele>
        <time>2022-06-09T14:33:18Z</time>
      </trkpt>
      <trkpt lat="44.84467" lon="4.12977">
        <ele>1255.5</ele>
        <time>2022-06-09T14:33:19Z</time>
      </trkpt>
      <trkpt lat="44.84472" lon="4.12977">
        <ele>1255.2</ele>
        <time>2022-06-09T14:33:20Z</time>
      </trkpt>
      <trkpt lat="44.84477" lon="4.12976">
        <ele>1254.8</ele>
        <time>2022-06-09T14:33:21Z</time>
      </trkpt>
      <trkpt lat="44.84482" lon="4.12975">
        <ele>1254.5</ele>
        <time>2022-06-09T14:33:22Z</time>
      </trkpt>
      <trkpt lat="44.84487" lon="4.12974">
        <ele>1254.2</ele>
        <time>2022-06-09T14:33:23Z</time>
      </trkpt>
      <trkpt lat="44.84492" lon="4.12973">
        <ele>1253.8</ele>
        <time>2022-06-09T14:33:24Z</time>
      </trkpt>
      <trkpt lat="44.84497" lon="4.1297">
        <ele>1253.5</ele>
        <time>2022-06-09T14:33:25Z</time>
      </trkpt>
      <trkpt lat="44.84503" lon="4.12967">
        <ele>1253.1</ele>
        <time>2022-06-09T14:33:26Z</time>
      </trkpt>
      <trkpt lat="44.84508" lon="4.12962">
        <ele>1252.8</ele>
        <time>2022-06-09T14:33:27Z</time>
      </trkpt>
      <trkpt lat="44.84514" lon="4.12957">
        <ele>1252.4</ele>
        <time>2022-06-09T14:33:28Z</time>
      </trkpt>
      <trkpt lat="44.84519" lon="4.12953">
        <ele>1252.1</ele>
        <time>2022-06-09T14:33:29Z</time>
      </trkpt>
      <trkpt lat="44.84525" lon="4.12948">
        <ele>1251.7</ele>
        <time>2022-06-09T14:33:30Z</time>
      </trkpt>
      <trkpt lat="44.8453" lon="4.12943">
        <ele>1251.4</ele>
        <time>2022-06-09T14:33:31Z</time>
      </trkpt>
      <trkpt lat="44.84536" lon="4.12938">
        <ele>1251</ele>
        <time>2022-06-09T14:33:32Z</time>
      </trkpt>
      <trkpt lat="44.84541" lon="4.12932">
        <ele>1250.7</ele>
        <time>2022-06-09T14:33:33Z</time>
      </trkpt>
      <trkpt lat="44.84547" lon="4.12926">
        <ele>1250.3</ele>
        <time>2022-06-09T14:33:34Z</time>
      </trkpt>
      <trkpt lat="44.84553" lon="4.1292">
        <ele>1250</ele>
        <time>2022-06-09T14:33:35Z</time>
      </trkpt>
      <trkpt lat="44.84558" lon="4.12914">
        <ele>1249.6</ele>
        <time>2022-06-09T14:33:36Z</time>
      </trkpt>
      <trkpt lat="44.84564" lon="4.12907">
        <ele>1249.2</ele>
        <time>2022-06-09T14:33:37Z</time>
      </trkpt>
      <trkpt lat="44.84569" lon="4.129">
        <ele>1248.8</ele>
        <time>2022-06-09T14:33:38Z</time>
      </trkpt>
      <trkpt lat="44.84575" lon="4.12892">
        <ele>1248.4</ele>
        <time>2022-06-09T14:33:39Z</time>
      </trkpt>
      <trkpt lat="44.8458" lon="4.12885">
        <ele>1248</ele>
        <time>2022-06-09T14:33:40Z</time>
      </trkpt>
      <trkpt lat="44.84584" lon="4.12876">
        <ele>1247.6</ele>
        <time>2022-06-09T14:33:41Z</time>
      </trkpt>
      <trkpt lat="44.84588" lon="4.12867">
        <ele>1247.2</ele>
        <time>2022-06-09T14:33:42Z</time>
      </trkpt>
      <trkpt lat="44.84591" lon="4.12858">
        <ele>1246.7</ele>
        <time>2022-06-09T14:33:43Z</time>
      </trkpt>
      <trkpt lat="44.84594" lon="4.12848">
        <ele>1246.3</ele>
        <time>2022-06-09T14:33:44Z</time>
      </trkpt>
      <trkpt lat="44.84598" lon="4.12839">
        <ele>1245.9</ele>
        <time>2022-06-09T14:33:45Z</time>
      </trkpt>
      <trkpt lat="44.84602" lon="4.1283">
        <ele>1245.5</ele>
        <time>2022-06-09T14:33:46Z</time>
      </trkpt>
      <trkpt lat="44.84606" lon="4.12822">
        <ele>1245.1</ele>
        <time>2022-06-09T14:33:47Z</time>
      </trkpt>
      <trkpt lat="44.8461" lon="4.12814">
        <ele>1244.8</ele>
        <time>2022-06-09T14:33:48Z</time>
      </trkpt>
      <trkpt lat="44.84613" lon="4.12807">
        <ele>1244.5</ele>
        <time>2022-06-09T14:33:49Z</time>
      </trkpt>
      <trkpt lat="44.84616" lon="4.12799">
        <ele>1244.2</ele>
        <time>2022-06-09T14:33:50Z</time>
      </trkpt>
      <trkpt lat="44.84619" lon="4.12791">
        <ele>1243.9</ele>
        <time>2022-06-09T14:33:51Z</time>
      </trkpt>
      <trkpt lat="44.84622" lon="4.12783">
        <ele>1243.6</ele>
        <time>2022-06-09T14:33:52Z</time>
      </trkpt>
      <trkpt lat="44.84625" lon="4.12776">
        <ele>1243.3</ele>
        <time>2022-06-09T14:33:53Z</time>
      </trkpt>
      <trkpt lat="44.84628" lon="4.12768">
        <ele>1243</ele>
        <time>2022-06-09T14:33:54Z</time>
      </trkpt>
      <trkpt lat="44.84631" lon="4.12759">
        <ele>1242.7</ele>
        <time>2022-06-09T14:33:55Z</time>
      </trkpt>
      <trkpt lat="44.84634" lon="4.12751">
        <ele>1242.4</ele>
        <time>2022-06-09T14:33:56Z</time>
      </trkpt>
      <trkpt lat="44.84636" lon="4.12742">
        <ele>1242</ele>
        <time>2022-06-09T14:33:57Z</time>
      </trkpt>
      <trkpt lat="44.84639" lon="4.12733">
        <ele>1241.7</ele>
        <time>2022-06-09T14:33:58Z</time>
      </trkpt>
      <trkpt lat="44.84641" lon="4.12723">
        <ele>1241.4</ele>
        <time>2022-06-09T14:33:59Z</time>
      </trkpt>
      <trkpt lat="44.84641" lon="4.12713">
        <ele>1241.1</ele>
        <time>2022-06-09T14:34:00Z</time>
      </trkpt>
      <trkpt lat="44.84641" lon="4.12702">
        <ele>1240.8</ele>
        <time>2022-06-09T14:34:01Z</time>
      </trkpt>
      <trkpt lat="44.84641" lon="4.12692">
        <ele>1240.6</ele>
        <time>2022-06-09T14:34:02Z</time>
      </trkpt>
      <trkpt lat="44.84642" lon="4.12682">
        <ele>1240.4</ele>
        <time>2022-06-09T14:34:03Z</time>
      </trkpt>
      <trkpt lat="44.84642" lon="4.12671">
        <ele>1240.1</ele>
        <time>2022-06-09T14:34:04Z</time>
      </trkpt>
      <trkpt lat="44.84641" lon="4.12661">
        <ele>1240</ele>
        <time>2022-06-09T14:34:05Z</time>
      </trkpt>
      <trkpt lat="44.84641" lon="4.12651">
        <ele>1239.8</ele>
        <time>2022-06-09T14:34:06Z</time>
      </trkpt>
      <trkpt lat="44.8464" lon="4.12641">
        <ele>1239.6</ele>
        <time>2022-06-09T14:34:07Z</time>
      </trkpt>
      <trkpt lat="44.8464" lon="4.12631">
        <ele>1239.4</ele>
        <time>2022-06-09T14:34:08Z</time>
      </trkpt>
      <trkpt lat="44.8464" lon="4.12623">
        <ele>1239.2</ele>
        <time>2022-06-09T14:34:09Z</time>
      </trkpt>
      <trkpt lat="44.8464" lon="4.12614">
        <ele>1238.9</ele>
        <time>2022-06-09T14:34:10Z</time>
      </trkpt>
      <trkpt lat="44.8464" lon="4.12606">
        <ele>1238.6</ele>
        <time>2022-06-09T14:34:11Z</time>
      </trkpt>
      <trkpt lat="44.8464" lon="4.12597">
        <ele>1238.3</ele>
        <time>2022-06-09T14:34:12Z</time>
      </trkpt>
      <trkpt lat="44.84639" lon="4.12588">
        <ele>1238</ele>
        <time>2022-06-09T14:34:13Z</time>
      </trkpt>
      <trkpt lat="44.84639" lon="4.12579">
        <ele>1237.6</ele>
        <time>2022-06-09T14:34:14Z</time>
      </trkpt>
      <trkpt lat="44.84639" lon="4.1257">
        <ele>1237.3</ele>
        <time>2022-06-09T14:34:15Z</time>
      </trkpt>
      <trkpt lat="44.84639" lon="4.1256">
        <ele>1236.9</ele>
        <time>2022-06-09T14:34:16Z</time>
      </trkpt>
      <trkpt lat="44.84639" lon="4.1255">
        <ele>1236.6</ele>
        <time>2022-06-09T14:34:17Z</time>
      </trkpt>
      <trkpt lat="44.8464" lon="4.12541">
        <ele>1236.2</ele>
        <time>2022-06-09T14:34:18Z</time>
      </trkpt>
      <trkpt lat="44.84642" lon="4.12531">
        <ele>1235.9</ele>
        <time>2022-06-09T14:34:19Z</time>
      </trkpt>
      <trkpt lat="44.84644" lon="4.12523">
        <ele>1235.5</ele>
        <time>2022-06-09T14:34:20Z</time>
      </trkpt>
      <trkpt lat="44.84648" lon="4.12514">
        <ele>1235.1</ele>
        <time>2022-06-09T14:34:21Z</time>
      </trkpt>
      <trkpt lat="44.84652" lon="4.12507">
        <ele>1234.7</ele>
        <time>2022-06-09T14:34:22Z</time>
      </trkpt>
      <trkpt lat="44.84657" lon="4.12499">
        <ele>1234.4</ele>
        <time>2022-06-09T14:34:23Z</time>
      </trkpt>
      <trkpt lat="44.84661" lon="4.12492">
        <ele>1234</ele>
        <time>2022-06-09T14:34:24Z</time>
      </trkpt>
      <trkpt lat="44.84664" lon="4.12483">
        <ele>1233.6</ele>
        <time>2022-06-09T14:34:25Z</time>
      </trkpt>
      <trkpt lat="44.84667" lon="4.12474">
        <ele>1233.2</ele>
        <time>2022-06-09T14:34:26Z</time>
      </trkpt>
      <trkpt lat="44.8467" lon="4.12464">
        <ele>1232.9</ele>
        <time>2022-06-09T14:34:27Z</time>
      </trkpt>
      <trkpt lat="44.84673" lon="4.12455">
        <ele>1232.5</ele>
        <time>2022-06-09T14:34:28Z</time>
      </trkpt>
      <trkpt lat="44.84676" lon="4.12447">
        <ele>1232.2</ele>
        <time>2022-06-09T14:34:29Z</time>
      </trkpt>
      <trkpt lat="44.8468" lon="4.12438">
        <ele>1231.9</ele>
        <time>2022-06-09T14:34:30Z</time>
      </trkpt>
      <trkpt lat="44.84682" lon="4.1243">
        <ele>1231.6</ele>
        <time>2022-06-09T14:34:31Z</time>
      </trkpt>
      <trkpt lat="44.84685" lon="4.12421">
        <ele>1231.3</ele>
        <time>2022-06-09T14:34:32Z</time>
      </trkpt>
      <trkpt lat="44.84688" lon="4.12413">
        <ele>1231</ele>
        <time>2022-06-09T14:34:33Z</time>
      </trkpt>
      <trkpt lat="44.8469" lon="4.12404">
        <ele>1230.6</ele>
        <time>2022-06-09T14:34:34Z</time>
      </trkpt>
      <trkpt lat="44.84693" lon="4.12396">
        <ele>1230.3</ele>
        <time>2022-06-09T14:34:35Z</time>
      </trkpt>
      <trkpt lat="44.84697" lon="4.12388">
        <ele>1230</ele>
        <time>2022-06-09T14:34:36Z</time>
      </trkpt>
      <trkpt lat="44.847" lon="4.1238">
        <ele>1229.6</ele>
        <time>2022-06-09T14:34:37Z</time>
      </trkpt>
      <trkpt lat="44.84703" lon="4.12373">
        <ele>1229.3</ele>
        <time>2022-06-09T14:34:38Z</time>
      </trkpt>
      <trkpt lat="44.84707" lon="4.12365">
        <ele>1229</ele>
        <time>2022-06-09T14:34:39Z</time>
      </trkpt>
      <trkpt lat="44.8471" lon="4.12358">
        <ele>1228.7</ele>
        <time>2022-06-09T14:34:40Z</time>
      </trkpt>
      <trkpt lat="44.84713" lon="4.1235">
        <ele>1228.3</ele>
        <time>2022-06-09T14:34:41Z</time>
      </trkpt>
      <trkpt lat="44.84716" lon="4.12342">
        <ele>1228</ele>
        <time>2022-06-09T14:34:42Z</time>
      </trkpt>
      <trkpt lat="44.84719" lon="4.12335">
        <ele>1227.6</ele>
        <time>2022-06-09T14:34:43Z</time>
      </trkpt>
      <trkpt lat="44.84723" lon="4.12328">
        <ele>1227.3</ele>
        <time>2022-06-09T14:34:44Z</time>
      </trkpt>
      <trkpt lat="44.84726" lon="4.12321">
        <ele>1227</ele>
        <time>2022-06-09T14:34:45Z</time>
      </trkpt>
      <trkpt lat="44.8473" lon="4.12314">
        <ele>1226.7</ele>
        <time>2022-06-09T14:34:46Z</time>
      </trkpt>
      <trkpt lat="44.84734" lon="4.12306">
        <ele>1226.3</ele>
        <time>2022-06-09T14:34:47Z</time>
      </trkpt>
      <trkpt lat="44.84738" lon="4.12299">
        <ele>1226</ele>
        <time>2022-06-09T14:34:48Z</time>
      </trkpt>
      <trkpt lat="44.84742" lon="4.12293">
        <ele>1225.7</ele>
        <time>2022-06-09T14:34:49Z</time>
      </trkpt>
      <trkpt lat="44.84746" lon="4.12286">
        <ele>1225.4</ele>
        <time>2022-06-09T14:34:50Z</time>
      </trkpt>
      <trkpt lat="44.84749" lon="4.1228">
        <ele>1225</ele>
        <time>2022-06-09T14:34:51Z</time>
      </trkpt>
      <trkpt lat="44.84754" lon="4.12273">
        <ele>1224.7</ele>
        <time>2022-06-09T14:34:52Z</time>
      </trkpt>
      <trkpt lat="44.84758" lon="4.12266">
        <ele>1224.3</ele>
        <time>2022-06-09T14:34:53Z</time>
      </trkpt>
      <trkpt lat="44.84762" lon="4.12259">
        <ele>1223.9</ele>
        <time>2022-06-09T14:34:54Z</time>
      </trkpt>
      <trkpt lat="44.84766" lon="4.12252">
        <ele>1223.4</ele>
        <time>2022-06-09T14:34:55Z</time>
      </trkpt>
      <trkpt lat="44.8477" lon="4.12244">
        <ele>1223</ele>
        <time>2022-06-09T14:34:56Z</time>
      </trkpt>
      <trkpt lat="44.84775" lon="4.12236">
        <ele>1222.6</ele>
        <time>2022-06-09T14:34:57Z</time>
      </trkpt>
      <trkpt lat="44.84779" lon="4.12228">
        <ele>1222.2</ele>
        <time>2022-06-09T14:34:58Z</time>
      </trkpt>
      <trkpt lat="44.84784" lon="4.1222">
        <ele>1221.8</ele>
        <time>2022-06-09T14:34:59Z</time>
      </trkpt>
      <trkpt lat="44.84789" lon="4.12212">
        <ele>1221.3</ele>
        <time>2022-06-09T14:35:00Z</time>
      </trkpt>
      <trkpt lat="44.84794" lon="4.12205">
        <ele>1220.9</ele>
        <time>2022-06-09T14:35:01Z</time>
      </trkpt>
      <trkpt lat="44.84799" lon="4.12198">
        <ele>1220.5</ele>
        <time>2022-06-09T14:35:02Z</time>
      </trkpt>
      <trkpt lat="44.84805" lon="4.12191">
        <ele>1220.1</ele>
        <time>2022-06-09T14:35:03Z</time>
      </trkpt>
      <trkpt lat="44.84811" lon="4.12185">
        <ele>1219.8</ele>
        <time>2022-06-09T14:35:04Z</time>
      </trkpt>
      <trkpt lat="44.84817" lon="4.1218">
        <ele>1219.4</ele>
        <time>2022-06-09T14:35:05Z</time>
      </trkpt>
      <trkpt lat="44.84824" lon="4.12175">
        <ele>1219.1</ele>
        <time>2022-06-09T14:35:06Z</time>
      </trkpt>
      <trkpt lat="44.84831" lon="4.1217">
        <ele>1218.8</ele>
        <time>2022-06-09T14:35:07Z</time>
      </trkpt>
      <trkpt lat="44.84838" lon="4.12165">
        <ele>1218.6</ele>
        <time>2022-06-09T14:35:08Z</time>
      </trkpt>
      <trkpt lat="44.84844" lon="4.12159">
        <ele>1218.4</ele>
        <time>2022-06-09T14:35:09Z</time>
      </trkpt>
      <trkpt lat="44.8485" lon="4.12155">
        <ele>1218.2</ele>
        <time>2022-06-09T14:35:10Z</time>
      </trkpt>
      <trkpt lat="44.84856" lon="4.12151">
        <ele>1218</ele>
        <time>2022-06-09T14:35:11Z</time>
      </trkpt>
      <trkpt lat="44.84861" lon="4.12147">
        <ele>1217.8</ele>
        <time>2022-06-09T14:35:12Z</time>
      </trkpt>
      <trkpt lat="44.84866" lon="4.12143">
        <ele>1217.6</ele>
        <time>2022-06-09T14:35:13Z</time>
      </trkpt>
      <trkpt lat="44.84872" lon="4.12139">
        <ele>1217.4</ele>
        <time>2022-06-09T14:35:14Z</time>
      </trkpt>
      <trkpt lat="44.84877" lon="4.12135">
        <ele>1217.1</ele>
        <time>2022-06-09T14:35:15Z</time>
      </trkpt>
      <trkpt lat="44.84882" lon="4.12132">
        <ele>1216.8</ele>
        <time>2022-06-09T14:35:16Z</time>
      </trkpt>
      <trkpt lat="44.84887" lon="4.12129">
        <ele>1216.5</ele>
        <time>2022-06-09T14:35:17Z</time>
      </trkpt>
      <trkpt lat="44.84892" lon="4.12124">
        <ele>1216.2</ele>
        <time>2022-06-09T14:35:18Z</time>
      </trkpt>
      <trkpt lat="44.84897" lon="4.12119">
        <ele>1215.9</ele>
        <time>2022-06-09T14:35:19Z</time>
      </trkpt>
      <trkpt lat="44.84902" lon="4.12114">
        <ele>1215.6</ele>
        <time>2022-06-09T14:35:20Z</time>
      </trkpt>
      <trkpt lat="44.84906" lon="4.12108">
        <ele>1215.3</ele>
        <time>2022-06-09T14:35:21Z</time>
      </trkpt>
      <trkpt lat="44.84908" lon="4.121">
        <ele>1214.9</ele>
        <time>2022-06-09T14:35:22Z</time>
      </trkpt>
      <trkpt lat="44.84906" lon="4.12093">
        <ele>1214.6</ele>
        <time>2022-06-09T14:35:23Z</time>
      </trkpt>
      <trkpt lat="44.84902" lon="4.12088">
        <ele>1214.2</ele>
        <time>2022-06-09T14:35:24Z</time>
      </trkpt>
      <trkpt lat="44.84896" lon="4.12086">
        <ele>1213.7</ele>
        <time>2022-06-09T14:35:25Z</time>
      </trkpt>
      <trkpt lat="44.84889" lon="4.12087">
        <ele>1213.3</ele>
        <time>2022-06-09T14:35:26Z</time>
      </trkpt>
      <trkpt lat="44.84882" lon="4.1209">
        <ele>1212.9</ele>
        <time>2022-06-09T14:35:27Z</time>
      </trkpt>
      <trkpt lat="44.84876" lon="4.12093">
        <ele>1212.5</ele>
        <time>2022-06-09T14:35:28Z</time>
      </trkpt>
      <trkpt lat="44.84869" lon="4.12096">
        <ele>1212.2</ele>
        <time>2022-06-09T14:35:29Z</time>
      </trkpt>
      <trkpt lat="44.84862" lon="4.12097">
        <ele>1211.8</ele>
        <time>2022-06-09T14:35:30Z</time>
      </trkpt>
      <trkpt lat="44.84854" lon="4.12097">
        <ele>1211.4</ele>
        <time>2022-06-09T14:35:31Z</time>
      </trkpt>
      <trkpt lat="44.84847" lon="4.12095">
        <ele>1211</ele>
        <time>2022-06-09T14:35:32Z</time>
      </trkpt>
      <trkpt lat="44.84839" lon="4.12092">
        <ele>1210.6</ele>
        <time>2022-06-09T14:35:33Z</time>
      </trkpt>
      <trkpt lat="44.84832" lon="4.12089">
        <ele>1210.1</ele>
        <time>2022-06-09T14:35:34Z</time>
      </trkpt>
      <trkpt lat="44.84824" lon="4.12087">
        <ele>1209.7</ele>
        <time>2022-06-09T14:35:35Z</time>
      </trkpt>
      <trkpt lat="44.84816" lon="4.12085">
        <ele>1209.2</ele>
        <time>2022-06-09T14:35:36Z</time>
      </trkpt>
      <trkpt lat="44.84809" lon="4.12082">
        <ele>1208.8</ele>
        <time>2022-06-09T14:35:37Z</time>
      </trkpt>
      <trkpt lat="44.84801" lon="4.12079">
        <ele>1208.3</ele>
        <time>2022-06-09T14:35:38Z</time>
      </trkpt>
      <trkpt lat="44.84793" lon="4.12076">
        <ele>1207.8</ele>
        <time>2022-06-09T14:35:39Z</time>
      </trkpt>
      <trkpt lat="44.84784" lon="4.12075">
        <ele>1207.5</ele>
        <time>2022-06-09T14:35:40Z</time>
      </trkpt>
      <trkpt lat="44.84776" lon="4.12075">
        <ele>1207.1</ele>
        <time>2022-06-09T14:35:41Z</time>
      </trkpt>
      <trkpt lat="44.84768" lon="4.12078">
        <ele>1206.9</ele>
        <time>2022-06-09T14:35:42Z</time>
      </trkpt>
      <trkpt lat="44.8476" lon="4.12083">
        <ele>1206.6</ele>
        <time>2022-06-09T14:35:43Z</time>
      </trkpt>
      <trkpt lat="44.84753" lon="4.1209">
        <ele>1206.3</ele>
        <time>2022-06-09T14:35:44Z</time>
      </trkpt>
      <trkpt lat="44.84746" lon="4.12098">
        <ele>1206.1</ele>
        <time>2022-06-09T14:35:45Z</time>
      </trkpt>
      <trkpt lat="44.8474" lon="4.12107">
        <ele>1205.9</ele>
        <time>2022-06-09T14:35:46Z</time>
      </trkpt>
      <trkpt lat="44.84735" lon="4.12115">
        <ele>1205.8</ele>
        <time>2022-06-09T14:35:47Z</time>
      </trkpt>
      <trkpt lat="44.84731" lon="4.12122">
        <ele>1205.7</ele>
        <time>2022-06-09T14:35:48Z</time>
      </trkpt>
      <trkpt lat="44.84725" lon="4.12125">
        <ele>1205.6</ele>
        <time>2022-06-09T14:35:49Z</time>
      </trkpt>
      <trkpt lat="44.8472" lon="4.12124">
        <ele>1205.5</ele>
        <time>2022-06-09T14:35:50Z</time>
      </trkpt>
      <trkpt lat="44.84718" lon="4.12119">
        <ele>1205.4</ele>
        <time>2022-06-09T14:35:51Z</time>
      </trkpt>
      <trkpt lat="44.84718" lon="4.12115">
        <ele>1205.4</ele>
        <time>2022-06-09T14:35:52Z</time>
      </trkpt>
      <trkpt lat="44.84717" lon="4.12112">
        <ele>1205.3</ele>
        <time>2022-06-09T14:35:53Z</time>
      </trkpt>
      <trkpt lat="44.84717" lon="4.1211">
        <ele>1205.3</ele>
        <time>2022-06-09T14:35:54Z</time>
      </trkpt>
      <trkpt lat="44.84717" lon="4.12109">
        <ele>1205.3</ele>
        <time>2022-06-09T14:35:55Z</time>
      </trkpt>
      <trkpt lat="44.84717" lon="4.12106">
        <ele>1205.2</ele>
        <time>2022-06-09T14:35:56Z</time>
      </trkpt>
      <trkpt lat="44.84716" lon="4.12102">
        <ele>1205.1</ele>
        <time>2022-06-09T14:35:57Z</time>
      </trkpt>
      <trkpt lat="44.84715" lon="4.12101">
        <ele>1205.1</ele>
        <time>2022-06-09T14:35:58Z</time>
      </trkpt>
      <trkpt lat="44.84714" lon="4.12101">
        <ele>1205.1</ele>
        <time>2022-06-09T14:35:59Z</time>
      </trkpt>
      <trkpt lat="44.84712" lon="4.121">
        <ele>1205</ele>
        <time>2022-06-09T14:36:00Z</time>
      </trkpt>
      <trkpt lat="44.84709" lon="4.12099">
        <ele>1204.8</ele>
        <time>2022-06-09T14:36:01Z</time>
      </trkpt>
      <trkpt lat="44.84707" lon="4.12099">
        <ele>1204.7</ele>
        <time>2022-06-09T14:36:03Z</time>
      </trkpt>
      <trkpt lat="44.84707" lon="4.12098">
        <ele>1204.7</ele>
        <time>2022-06-09T14:36:04Z</time>
      </trkpt>
      <trkpt lat="44.84707" lon="4.12098">
        <ele>1204.7</ele>
        <time>2022-06-09T14:36:05Z</time>
      </trkpt>
      <trkpt lat="44.84707" lon="4.12098">
        <ele>1204.7</ele>
        <time>2022-06-09T14:36:06Z</time>
      </trkpt>
      <trkpt lat="44.84707" lon="4.12099">
        <ele>1204.7</ele>
        <time>2022-06-09T14:36:07Z</time>
      </trkpt>
      <trkpt lat="44.84707" lon="4.12099">
        <ele>1204.7</ele>
        <time>2022-06-09T14:36:08Z</time>
      </trkpt>
      <trkpt lat="44.84707" lon="4.12099">
        <ele>1204.7</ele>
        <time>2022-06-09T14:36:09Z</time>
      </trkpt>
      <trkpt lat="44.84707" lon="4.12099">
        <ele>1204.7</ele>
        <time>2022-06-09T14:36:10Z</time>
      </trkpt>
      <trkpt lat="44.84707" lon="4.12099">
        <ele>1204.7</ele>
        <time>2022-06-09T14:36:11Z</time>
      </trkpt>
      <trkpt lat="44.84706" lon="4.121">
        <ele>1204.6</ele>
        <time>2022-06-09T14:36:12Z</time>
      </trkpt>
      <trkpt lat="44.84707" lon="4.121">
        <ele>1204.6</ele>
        <time>2022-06-09T14:36:13Z</time>
      </trkpt>
      <trkpt lat="44.84707" lon="4.121">
        <ele>1204.6</ele>
        <time>2022-06-09T14:36:14Z</time>
      </trkpt>
      <trkpt lat="44.84707" lon="4.121">
        <ele>1204.6</ele>
        <time>2022-06-09T14:36:15Z</time>
      </trkpt>
      <trkpt lat="44.84707" lon="4.121">
        <ele>1204.6</ele>
        <time>2022-06-09T14:36:16Z</time>
      </trkpt>
      <trkpt lat="44.84707" lon="4.121">
        <ele>1204.6</ele>
        <time>2022-06-09T14:36:17Z</time>
      </trkpt>
      <trkpt lat="44.84708" lon="4.12103">
        <ele>1204.5</ele>
        <time>2022-06-09T14:45:17Z</time>
      </trkpt>
      <trkpt lat="44.84708" lon="4.12103">
        <ele>1204.5</ele>
        <time>2022-06-09T14:45:18Z</time>
      </trkpt>
      <trkpt lat="44.84709" lon="4.12104">
        <ele>1204.5</ele>
        <time>2022-06-09T14:45:19Z</time>
      </trkpt>
      <trkpt lat="44.84711" lon="4.12104">
        <ele>1204.4</ele>
        <time>2022-06-09T14:45:20Z</time>
      </trkpt>
      <trkpt lat="44.84712" lon="4.12105">
        <ele>1204.4</ele>
        <time>2022-06-09T14:45:21Z</time>
      </trkpt>
      <trkpt lat="44.84712" lon="4.12103">
        <ele>1204.3</ele>
        <time>2022-06-09T14:45:22Z</time>
      </trkpt>
      <trkpt lat="44.84714" lon="4.12103">
        <ele>1204.2</ele>
        <time>2022-06-09T14:45:23Z</time>
      </trkpt>
      <trkpt lat="44.84718" lon="4.12104">
        <ele>1204.1</ele>
        <time>2022-06-09T14:45:24Z</time>
      </trkpt>
      <trkpt lat="44.84721" lon="4.12103">
        <ele>1203.9</ele>
        <time>2022-06-09T14:45:25Z</time>
      </trkpt>
      <trkpt lat="44.84724" lon="4.121">
        <ele>1203.8</ele>
        <time>2022-06-09T14:45:26Z</time>
      </trkpt>
      <trkpt lat="44.84727" lon="4.12098">
        <ele>1203.6</ele>
        <time>2022-06-09T14:45:27Z</time>
      </trkpt>
      <trkpt lat="44.84731" lon="4.12095">
        <ele>1203.4</ele>
        <time>2022-06-09T14:45:28Z</time>
      </trkpt>
      <trkpt lat="44.84735" lon="4.12091">
        <ele>1203.2</ele>
        <time>2022-06-09T14:45:30Z</time>
      </trkpt>
      <trkpt lat="44.84737" lon="4.12088">
        <ele>1203</ele>
        <time>2022-06-09T14:45:31Z</time>
      </trkpt>
      <trkpt lat="44.84742" lon="4.12081">
        <ele>1202.6</ele>
        <time>2022-06-09T14:45:32Z</time>
      </trkpt>
      <trkpt lat="44.84745" lon="4.12077">
        <ele>1202.4</ele>
        <time>2022-06-09T14:45:34Z</time>
      </trkpt>
      <trkpt lat="44.84748" lon="4.12073">
        <ele>1202.2</ele>
        <time>2022-06-09T14:45:35Z</time>
      </trkpt>
      <trkpt lat="44.84751" lon="4.12068">
        <ele>1201.9</ele>
        <time>2022-06-09T14:45:36Z</time>
      </trkpt>
      <trkpt lat="44.84757" lon="4.12059">
        <ele>1201.5</ele>
        <time>2022-06-09T14:45:37Z</time>
      </trkpt>
      <trkpt lat="44.84762" lon="4.12053">
        <ele>1201.1</ele>
        <time>2022-06-09T14:45:39Z</time>
      </trkpt>
      <trkpt lat="44.84766" lon="4.12048">
        <ele>1200.9</ele>
        <time>2022-06-09T14:45:40Z</time>
      </trkpt>
      <trkpt lat="44.84769" lon="4.12042">
        <ele>1200.6</ele>
        <time>2022-06-09T14:45:41Z</time>
      </trkpt>
      <trkpt lat="44.84773" lon="4.12036">
        <ele>1200.4</ele>
        <time>2022-06-09T14:45:42Z</time>
      </trkpt>
      <trkpt lat="44.84776" lon="4.12031">
        <ele>1200.1</ele>
        <time>2022-06-09T14:45:43Z</time>
      </trkpt>
      <trkpt lat="44.8478" lon="4.12025">
        <ele>1199.9</ele>
        <time>2022-06-09T14:45:44Z</time>
      </trkpt>
      <trkpt lat="44.84784" lon="4.12019">
        <ele>1199.6</ele>
        <time>2022-06-09T14:45:45Z</time>
      </trkpt>
      <trkpt lat="44.84788" lon="4.12014">
        <ele>1199.4</ele>
        <time>2022-06-09T14:45:46Z</time>
      </trkpt>
      <trkpt lat="44.84793" lon="4.1201">
        <ele>1199.1</ele>
        <time>2022-06-09T14:45:47Z</time>
      </trkpt>
      <trkpt lat="44.84797" lon="4.12005">
        <ele>1198.8</ele>
        <time>2022-06-09T14:45:48Z</time>
      </trkpt>
      <trkpt lat="44.84802" lon="4.12002">
        <ele>1198.6</ele>
        <time>2022-06-09T14:45:49Z</time>
      </trkpt>
      <trkpt lat="44.84807" lon="4.12">
        <ele>1198.3</ele>
        <time>2022-06-09T14:45:50Z</time>
      </trkpt>
      <trkpt lat="44.84812" lon="4.12">
        <ele>1198</ele>
        <time>2022-06-09T14:45:51Z</time>
      </trkpt>
      <trkpt lat="44.84816" lon="4.12002">
        <ele>1197.8</ele>
        <time>2022-06-09T14:45:52Z</time>
      </trkpt>
      <trkpt lat="44.84821" lon="4.12005">
        <ele>1197.5</ele>
        <time>2022-06-09T14:45:53Z</time>
      </trkpt>
      <trkpt lat="44.84827" lon="4.12007">
        <ele>1197.2</ele>
        <time>2022-06-09T14:45:54Z</time>
      </trkpt>
      <trkpt lat="44.84833" lon="4.12008">
        <ele>1196.9</ele>
        <time>2022-06-09T14:45:55Z</time>
      </trkpt>
      <trkpt lat="44.84839" lon="4.12007">
        <ele>1196.6</ele>
        <time>2022-06-09T14:45:56Z</time>
      </trkpt>
      <trkpt lat="44.84845" lon="4.12006">
        <ele>1196.4</ele>
        <time>2022-06-09T14:45:57Z</time>
      </trkpt>
      <trkpt lat="44.84851" lon="4.12">
        <ele>1196.1</ele>
        <time>2022-06-09T14:45:58Z</time>
      </trkpt>
      <trkpt lat="44.84856" lon="4.11994">
        <ele>1195.8</ele>
        <time>2022-06-09T14:45:59Z</time>
      </trkpt>
      <trkpt lat="44.8486" lon="4.11987">
        <ele>1195.5</ele>
        <time>2022-06-09T14:46:00Z</time>
      </trkpt>
      <trkpt lat="44.84864" lon="4.11979">
        <ele>1195.2</ele>
        <time>2022-06-09T14:46:01Z</time>
      </trkpt>
      <trkpt lat="44.84867" lon="4.11971">
        <ele>1194.9</ele>
        <time>2022-06-09T14:46:02Z</time>
      </trkpt>
      <trkpt lat="44.8487" lon="4.11964">
        <ele>1194.6</ele>
        <time>2022-06-09T14:46:03Z</time>
      </trkpt>
      <trkpt lat="44.84873" lon="4.11956">
        <ele>1194.4</ele>
        <time>2022-06-09T14:46:04Z</time>
      </trkpt>
      <trkpt lat="44.84876" lon="4.11948">
        <ele>1194.1</ele>
        <time>2022-06-09T14:46:05Z</time>
      </trkpt>
      <trkpt lat="44.84879" lon="4.11939">
        <ele>1193.9</ele>
        <time>2022-06-09T14:46:06Z</time>
      </trkpt>
      <trkpt lat="44.84882" lon="4.11932">
        <ele>1193.7</ele>
        <time>2022-06-09T14:46:07Z</time>
      </trkpt>
      <trkpt lat="44.84884" lon="4.11924">
        <ele>1193.5</ele>
        <time>2022-06-09T14:46:08Z</time>
      </trkpt>
      <trkpt lat="44.84887" lon="4.11915">
        <ele>1193.3</ele>
        <time>2022-06-09T14:46:09Z</time>
      </trkpt>
      <trkpt lat="44.84889" lon="4.11907">
        <ele>1193.2</ele>
        <time>2022-06-09T14:46:10Z</time>
      </trkpt>
      <trkpt lat="44.84892" lon="4.11899">
        <ele>1193.1</ele>
        <time>2022-06-09T14:46:11Z</time>
      </trkpt>
      <trkpt lat="44.84894" lon="4.11891">
        <ele>1193</ele>
        <time>2022-06-09T14:46:12Z</time>
      </trkpt>
      <trkpt lat="44.84897" lon="4.11883">
        <ele>1192.9</ele>
        <time>2022-06-09T14:46:13Z</time>
      </trkpt>
      <trkpt lat="44.84901" lon="4.11876">
        <ele>1192.8</ele>
        <time>2022-06-09T14:46:14Z</time>
      </trkpt>
      <trkpt lat="44.84904" lon="4.11869">
        <ele>1192.7</ele>
        <time>2022-06-09T14:46:15Z</time>
      </trkpt>
      <trkpt lat="44.84909" lon="4.11862">
        <ele>1192.6</ele>
        <time>2022-06-09T14:46:16Z</time>
      </trkpt>
      <trkpt lat="44.84913" lon="4.11857">
        <ele>1192.5</ele>
        <time>2022-06-09T14:46:17Z</time>
      </trkpt>
      <trkpt lat="44.84918" lon="4.11852">
        <ele>1192.4</ele>
        <time>2022-06-09T14:46:18Z</time>
      </trkpt>
      <trkpt lat="44.84923" lon="4.11848">
        <ele>1192.3</ele>
        <time>2022-06-09T14:46:19Z</time>
      </trkpt>
      <trkpt lat="44.84928" lon="4.11845">
        <ele>1192.2</ele>
        <time>2022-06-09T14:46:20Z</time>
      </trkpt>
      <trkpt lat="44.84934" lon="4.11842">
        <ele>1192</ele>
        <time>2022-06-09T14:46:21Z</time>
      </trkpt>
      <trkpt lat="44.84939" lon="4.1184">
        <ele>1191.7</ele>
        <time>2022-06-09T14:46:22Z</time>
      </trkpt>
      <trkpt lat="44.84945" lon="4.11839">
        <ele>1191.5</ele>
        <time>2022-06-09T14:46:23Z</time>
      </trkpt>
      <trkpt lat="44.84952" lon="4.11836">
        <ele>1191.2</ele>
        <time>2022-06-09T14:46:24Z</time>
      </trkpt>
      <trkpt lat="44.84958" lon="4.11833">
        <ele>1190.9</ele>
        <time>2022-06-09T14:46:25Z</time>
      </trkpt>
      <trkpt lat="44.84964" lon="4.1183">
        <ele>1190.7</ele>
        <time>2022-06-09T14:46:26Z</time>
      </trkpt>
      <trkpt lat="44.8497" lon="4.11828">
        <ele>1190.4</ele>
        <time>2022-06-09T14:46:27Z</time>
      </trkpt>
      <trkpt lat="44.84976" lon="4.11825">
        <ele>1190.1</ele>
        <time>2022-06-09T14:46:28Z</time>
      </trkpt>
      <trkpt lat="44.84982" lon="4.11822">
        <ele>1189.8</ele>
        <time>2022-06-09T14:46:29Z</time>
      </trkpt>
      <trkpt lat="44.84989" lon="4.11817">
        <ele>1189.4</ele>
        <time>2022-06-09T14:46:30Z</time>
      </trkpt>
      <trkpt lat="44.84996" lon="4.11813">
        <ele>1189.1</ele>
        <time>2022-06-09T14:46:31Z</time>
      </trkpt>
      <trkpt lat="44.85002" lon="4.11807">
        <ele>1188.8</ele>
        <time>2022-06-09T14:46:32Z</time>
      </trkpt>
      <trkpt lat="44.85008" lon="4.11802">
        <ele>1188.5</ele>
        <time>2022-06-09T14:46:33Z</time>
      </trkpt>
      <trkpt lat="44.85015" lon="4.11796">
        <ele>1188.1</ele>
        <time>2022-06-09T14:46:34Z</time>
      </trkpt>
      <trkpt lat="44.85021" lon="4.11789">
        <ele>1187.7</ele>
        <time>2022-06-09T14:46:35Z</time>
      </trkpt>
      <trkpt lat="44.85028" lon="4.11783">
        <ele>1187.3</ele>
        <time>2022-06-09T14:46:36Z</time>
      </trkpt>
      <trkpt lat="44.85034" lon="4.11777">
        <ele>1187</ele>
        <time>2022-06-09T14:46:37Z</time>
      </trkpt>
      <trkpt lat="44.8504" lon="4.1177">
        <ele>1186.6</ele>
        <time>2022-06-09T14:46:38Z</time>
      </trkpt>
      <trkpt lat="44.85046" lon="4.11763">
        <ele>1186.3</ele>
        <time>2022-06-09T14:46:39Z</time>
      </trkpt>
      <trkpt lat="44.85052" lon="4.11757">
        <ele>1185.9</ele>
        <time>2022-06-09T14:46:40Z</time>
      </trkpt>
      <trkpt lat="44.85059" lon="4.11751">
        <ele>1185.6</ele>
        <time>2022-06-09T14:46:41Z</time>
      </trkpt>
      <trkpt lat="44.85065" lon="4.11745">
        <ele>1185.2</ele>
        <time>2022-06-09T14:46:42Z</time>
      </trkpt>
      <trkpt lat="44.85072" lon="4.11739">
        <ele>1184.9</ele>
        <time>2022-06-09T14:46:43Z</time>
      </trkpt>
      <trkpt lat="44.85078" lon="4.11733">
        <ele>1184.5</ele>
        <time>2022-06-09T14:46:44Z</time>
      </trkpt>
      <trkpt lat="44.85084" lon="4.11727">
        <ele>1184.2</ele>
        <time>2022-06-09T14:46:45Z</time>
      </trkpt>
      <trkpt lat="44.85089" lon="4.11721">
        <ele>1183.9</ele>
        <time>2022-06-09T14:46:46Z</time>
      </trkpt>
      <trkpt lat="44.85095" lon="4.11715">
        <ele>1183.6</ele>
        <time>2022-06-09T14:46:47Z</time>
      </trkpt>
      <trkpt lat="44.85101" lon="4.11709">
        <ele>1183.3</ele>
        <time>2022-06-09T14:46:48Z</time>
      </trkpt>
      <trkpt lat="44.85107" lon="4.11703">
        <ele>1182.9</ele>
        <time>2022-06-09T14:46:49Z</time>
      </trkpt>
      <trkpt lat="44.85112" lon="4.11695">
        <ele>1182.6</ele>
        <time>2022-06-09T14:46:50Z</time>
      </trkpt>
      <trkpt lat="44.85118" lon="4.11688">
        <ele>1182.2</ele>
        <time>2022-06-09T14:46:51Z</time>
      </trkpt>
      <trkpt lat="44.85124" lon="4.11681">
        <ele>1181.8</ele>
        <time>2022-06-09T14:46:52Z</time>
      </trkpt>
      <trkpt lat="44.8513" lon="4.11675">
        <ele>1181.5</ele>
        <time>2022-06-09T14:46:53Z</time>
      </trkpt>
      <trkpt lat="44.85136" lon="4.11669">
        <ele>1181.1</ele>
        <time>2022-06-09T14:46:54Z</time>
      </trkpt>
      <trkpt lat="44.85142" lon="4.11663">
        <ele>1180.7</ele>
        <time>2022-06-09T14:46:55Z</time>
      </trkpt>
      <trkpt lat="44.85148" lon="4.11658">
        <ele>1180.4</ele>
        <time>2022-06-09T14:46:56Z</time>
      </trkpt>
      <trkpt lat="44.85154" lon="4.11653">
        <ele>1180.1</ele>
        <time>2022-06-09T14:46:57Z</time>
      </trkpt>
      <trkpt lat="44.8516" lon="4.11647">
        <ele>1179.7</ele>
        <time>2022-06-09T14:46:58Z</time>
      </trkpt>
      <trkpt lat="44.85166" lon="4.11641">
        <ele>1179.4</ele>
        <time>2022-06-09T14:46:59Z</time>
      </trkpt>
      <trkpt lat="44.85172" lon="4.11635">
        <ele>1179</ele>
        <time>2022-06-09T14:47:00Z</time>
      </trkpt>
      <trkpt lat="44.85178" lon="4.1163">
        <ele>1178.7</ele>
        <time>2022-06-09T14:47:01Z</time>
      </trkpt>
      <trkpt lat="44.85183" lon="4.11624">
        <ele>1178.4</ele>
        <time>2022-06-09T14:47:02Z</time>
      </trkpt>
      <trkpt lat="44.85188" lon="4.11617">
        <ele>1178</ele>
        <time>2022-06-09T14:47:03Z</time>
      </trkpt>
      <trkpt lat="44.85193" lon="4.1161">
        <ele>1177.7</ele>
        <time>2022-06-09T14:47:04Z</time>
      </trkpt>
      <trkpt lat="44.85198" lon="4.11602">
        <ele>1177.3</ele>
        <time>2022-06-09T14:47:05Z</time>
      </trkpt>
      <trkpt lat="44.85203" lon="4.11594">
        <ele>1177</ele>
        <time>2022-06-09T14:47:06Z</time>
      </trkpt>
      <trkpt lat="44.85206" lon="4.11585">
        <ele>1176.6</ele>
        <time>2022-06-09T14:47:07Z</time>
      </trkpt>
      <trkpt lat="44.8521" lon="4.11576">
        <ele>1176.2</ele>
        <time>2022-06-09T14:47:08Z</time>
      </trkpt>
      <trkpt lat="44.85213" lon="4.11567">
        <ele>1175.9</ele>
        <time>2022-06-09T14:47:09Z</time>
      </trkpt>
      <trkpt lat="44.85217" lon="4.11558">
        <ele>1175.5</ele>
        <time>2022-06-09T14:47:10Z</time>
      </trkpt>
      <trkpt lat="44.8522" lon="4.11548">
        <ele>1175.1</ele>
        <time>2022-06-09T14:47:11Z</time>
      </trkpt>
      <trkpt lat="44.85224" lon="4.11539">
        <ele>1174.6</ele>
        <time>2022-06-09T14:47:12Z</time>
      </trkpt>
      <trkpt lat="44.85229" lon="4.11531">
        <ele>1174.2</ele>
        <time>2022-06-09T14:47:13Z</time>
      </trkpt>
      <trkpt lat="44.85235" lon="4.11523">
        <ele>1173.8</ele>
        <time>2022-06-09T14:47:14Z</time>
      </trkpt>
      <trkpt lat="44.8524" lon="4.11516">
        <ele>1173.3</ele>
        <time>2022-06-09T14:47:15Z</time>
      </trkpt>
      <trkpt lat="44.85247" lon="4.11511">
        <ele>1172.9</ele>
        <time>2022-06-09T14:47:16Z</time>
      </trkpt>
      <trkpt lat="44.85254" lon="4.11506">
        <ele>1172.5</ele>
        <time>2022-06-09T14:47:17Z</time>
      </trkpt>
      <trkpt lat="44.85261" lon="4.11502">
        <ele>1172</ele>
        <time>2022-06-09T14:47:18Z</time>
      </trkpt>
      <trkpt lat="44.85268" lon="4.11499">
        <ele>1171.6</ele>
        <time>2022-06-09T14:47:19Z</time>
      </trkpt>
      <trkpt lat="44.85275" lon="4.11495">
        <ele>1171.1</ele>
        <time>2022-06-09T14:47:20Z</time>
      </trkpt>
      <trkpt lat="44.85282" lon="4.11491">
        <ele>1170.7</ele>
        <time>2022-06-09T14:47:21Z</time>
      </trkpt>
      <trkpt lat="44.85289" lon="4.11487">
        <ele>1170.3</ele>
        <time>2022-06-09T14:47:22Z</time>
      </trkpt>
      <trkpt lat="44.85297" lon="4.11483">
        <ele>1169.8</ele>
        <time>2022-06-09T14:47:23Z</time>
      </trkpt>
      <trkpt lat="44.85304" lon="4.11479">
        <ele>1169.4</ele>
        <time>2022-06-09T14:47:24Z</time>
      </trkpt>
      <trkpt lat="44.85311" lon="4.11475">
        <ele>1169</ele>
        <time>2022-06-09T14:47:25Z</time>
      </trkpt>
      <trkpt lat="44.85319" lon="4.11471">
        <ele>1168.6</ele>
        <time>2022-06-09T14:47:26Z</time>
      </trkpt>
      <trkpt lat="44.85326" lon="4.11466">
        <ele>1168.2</ele>
        <time>2022-06-09T14:47:27Z</time>
      </trkpt>
      <trkpt lat="44.85333" lon="4.11462">
        <ele>1167.7</ele>
        <time>2022-06-09T14:47:28Z</time>
      </trkpt>
      <trkpt lat="44.85341" lon="4.11458">
        <ele>1167.3</ele>
        <time>2022-06-09T14:47:29Z</time>
      </trkpt>
      <trkpt lat="44.85349" lon="4.11454">
        <ele>1166.8</ele>
        <time>2022-06-09T14:47:30Z</time>
      </trkpt>
      <trkpt lat="44.85358" lon="4.11451">
        <ele>1166.4</ele>
        <time>2022-06-09T14:47:31Z</time>
      </trkpt>
      <trkpt lat="44.85366" lon="4.1145">
        <ele>1165.9</ele>
        <time>2022-06-09T14:47:32Z</time>
      </trkpt>
      <trkpt lat="44.85374" lon="4.11451">
        <ele>1165.4</ele>
        <time>2022-06-09T14:47:33Z</time>
      </trkpt>
      <trkpt lat="44.85383" lon="4.11453">
        <ele>1164.9</ele>
        <time>2022-06-09T14:47:34Z</time>
      </trkpt>
      <trkpt lat="44.85391" lon="4.11455">
        <ele>1164.5</ele>
        <time>2022-06-09T14:47:35Z</time>
      </trkpt>
      <trkpt lat="44.854" lon="4.11457">
        <ele>1164</ele>
        <time>2022-06-09T14:47:36Z</time>
      </trkpt>
      <trkpt lat="44.85409" lon="4.11458">
        <ele>1163.5</ele>
        <time>2022-06-09T14:47:37Z</time>
      </trkpt>
      <trkpt lat="44.85417" lon="4.11458">
        <ele>1163</ele>
        <time>2022-06-09T14:47:38Z</time>
      </trkpt>
      <trkpt lat="44.85426" lon="4.11457">
        <ele>1162.5</ele>
        <time>2022-06-09T14:47:39Z</time>
      </trkpt>
      <trkpt lat="44.85434" lon="4.11454">
        <ele>1162</ele>
        <time>2022-06-09T14:47:40Z</time>
      </trkpt>
      <trkpt lat="44.85443" lon="4.11449">
        <ele>1161.5</ele>
        <time>2022-06-09T14:47:41Z</time>
      </trkpt>
      <trkpt lat="44.8545" lon="4.11445">
        <ele>1161</ele>
        <time>2022-06-09T14:47:42Z</time>
      </trkpt>
      <trkpt lat="44.85458" lon="4.11441">
        <ele>1160.7</ele>
        <time>2022-06-09T14:47:43Z</time>
      </trkpt>
      <trkpt lat="44.85466" lon="4.11437">
        <ele>1160.2</ele>
        <time>2022-06-09T14:47:44Z</time>
      </trkpt>
      <trkpt lat="44.85473" lon="4.11433">
        <ele>1159.8</ele>
        <time>2022-06-09T14:47:45Z</time>
      </trkpt>
      <trkpt lat="44.85481" lon="4.1143">
        <ele>1159.4</ele>
        <time>2022-06-09T14:47:46Z</time>
      </trkpt>
      <trkpt lat="44.85488" lon="4.11426">
        <ele>1159</ele>
        <time>2022-06-09T14:47:47Z</time>
      </trkpt>
      <trkpt lat="44.85496" lon="4.11422">
        <ele>1158.5</ele>
        <time>2022-06-09T14:47:48Z</time>
      </trkpt>
      <trkpt lat="44.85503" lon="4.11418">
        <ele>1158.1</ele>
        <time>2022-06-09T14:47:49Z</time>
      </trkpt>
      <trkpt lat="44.8551" lon="4.11414">
        <ele>1157.7</ele>
        <time>2022-06-09T14:47:50Z</time>
      </trkpt>
      <trkpt lat="44.85517" lon="4.11409">
        <ele>1157.2</ele>
        <time>2022-06-09T14:47:51Z</time>
      </trkpt>
      <trkpt lat="44.85524" lon="4.11405">
        <ele>1156.8</ele>
        <time>2022-06-09T14:47:52Z</time>
      </trkpt>
      <trkpt lat="44.85531" lon="4.114">
        <ele>1156.4</ele>
        <time>2022-06-09T14:47:53Z</time>
      </trkpt>
      <trkpt lat="44.85538" lon="4.11396">
        <ele>1156</ele>
        <time>2022-06-09T14:47:54Z</time>
      </trkpt>
      <trkpt lat="44.85545" lon="4.11392">
        <ele>1155.5</ele>
        <time>2022-06-09T14:47:55Z</time>
      </trkpt>
      <trkpt lat="44.85552" lon="4.11388">
        <ele>1155.1</ele>
        <time>2022-06-09T14:47:56Z</time>
      </trkpt>
      <trkpt lat="44.85558" lon="4.11385">
        <ele>1154.7</ele>
        <time>2022-06-09T14:47:57Z</time>
      </trkpt>
      <trkpt lat="44.85565" lon="4.11382">
        <ele>1154.2</ele>
        <time>2022-06-09T14:47:58Z</time>
      </trkpt>
      <trkpt lat="44.85571" lon="4.11379">
        <ele>1153.8</ele>
        <time>2022-06-09T14:47:59Z</time>
      </trkpt>
      <trkpt lat="44.85578" lon="4.11378">
        <ele>1153.4</ele>
        <time>2022-06-09T14:48:00Z</time>
      </trkpt>
      <trkpt lat="44.85585" lon="4.11378">
        <ele>1153</ele>
        <time>2022-06-09T14:48:01Z</time>
      </trkpt>
      <trkpt lat="44.85591" lon="4.1138">
        <ele>1152.6</ele>
        <time>2022-06-09T14:48:02Z</time>
      </trkpt>
      <trkpt lat="44.85597" lon="4.11385">
        <ele>1152.2</ele>
        <time>2022-06-09T14:48:03Z</time>
      </trkpt>
      <trkpt lat="44.85601" lon="4.11393">
        <ele>1151.7</ele>
        <time>2022-06-09T14:48:04Z</time>
      </trkpt>
      <trkpt lat="44.85604" lon="4.11402">
        <ele>1151.3</ele>
        <time>2022-06-09T14:48:05Z</time>
      </trkpt>
      <trkpt lat="44.85607" lon="4.11412">
        <ele>1150.9</ele>
        <time>2022-06-09T14:48:06Z</time>
      </trkpt>
      <trkpt lat="44.85609" lon="4.11422">
        <ele>1150.5</ele>
        <time>2022-06-09T14:48:07Z</time>
      </trkpt>
      <trkpt lat="44.85611" lon="4.11432">
        <ele>1150</ele>
        <time>2022-06-09T14:48:08Z</time>
      </trkpt>
      <trkpt lat="44.85613" lon="4.11443">
        <ele>1149.6</ele>
        <time>2022-06-09T14:48:09Z</time>
      </trkpt>
      <trkpt lat="44.85614" lon="4.11455">
        <ele>1149.1</ele>
        <time>2022-06-09T14:48:10Z</time>
      </trkpt>
      <trkpt lat="44.85615" lon="4.11466">
        <ele>1148.7</ele>
        <time>2022-06-09T14:48:11Z</time>
      </trkpt>
      <trkpt lat="44.85615" lon="4.11478">
        <ele>1148.2</ele>
        <time>2022-06-09T14:48:12Z</time>
      </trkpt>
      <trkpt lat="44.85616" lon="4.1149">
        <ele>1147.8</ele>
        <time>2022-06-09T14:48:13Z</time>
      </trkpt>
      <trkpt lat="44.85617" lon="4.11502">
        <ele>1147.3</ele>
        <time>2022-06-09T14:48:14Z</time>
      </trkpt>
      <trkpt lat="44.8562" lon="4.11513">
        <ele>1146.8</ele>
        <time>2022-06-09T14:48:15Z</time>
      </trkpt>
      <trkpt lat="44.85623" lon="4.11525">
        <ele>1146.3</ele>
        <time>2022-06-09T14:48:16Z</time>
      </trkpt>
      <trkpt lat="44.85624" lon="4.11538">
        <ele>1145.8</ele>
        <time>2022-06-09T14:48:17Z</time>
      </trkpt>
      <trkpt lat="44.85625" lon="4.11551">
        <ele>1145.3</ele>
        <time>2022-06-09T14:48:18Z</time>
      </trkpt>
      <trkpt lat="44.85624" lon="4.11565">
        <ele>1144.8</ele>
        <time>2022-06-09T14:48:19Z</time>
      </trkpt>
      <trkpt lat="44.85622" lon="4.11578">
        <ele>1144.2</ele>
        <time>2022-06-09T14:48:20Z</time>
      </trkpt>
      <trkpt lat="44.8562" lon="4.11592">
        <ele>1143.7</ele>
        <time>2022-06-09T14:48:21Z</time>
      </trkpt>
      <trkpt lat="44.85617" lon="4.11605">
        <ele>1143.1</ele>
        <time>2022-06-09T14:48:22Z</time>
      </trkpt>
      <trkpt lat="44.85615" lon="4.11619">
        <ele>1142.6</ele>
        <time>2022-06-09T14:48:23Z</time>
      </trkpt>
      <trkpt lat="44.85613" lon="4.11633">
        <ele>1142.1</ele>
        <time>2022-06-09T14:48:24Z</time>
      </trkpt>
      <trkpt lat="44.85612" lon="4.11648">
        <ele>1141.5</ele>
        <time>2022-06-09T14:48:25Z</time>
      </trkpt>
      <trkpt lat="44.8561" lon="4.11662">
        <ele>1141</ele>
        <time>2022-06-09T14:48:26Z</time>
      </trkpt>
      <trkpt lat="44.85608" lon="4.11675">
        <ele>1140.4</ele>
        <time>2022-06-09T14:48:27Z</time>
      </trkpt>
      <trkpt lat="44.85607" lon="4.11687">
        <ele>1140</ele>
        <time>2022-06-09T14:48:28Z</time>
      </trkpt>
      <trkpt lat="44.85608" lon="4.11698">
        <ele>1139.5</ele>
        <time>2022-06-09T14:48:29Z</time>
      </trkpt>
      <trkpt lat="44.85611" lon="4.11709">
        <ele>1139</ele>
        <time>2022-06-09T14:48:30Z</time>
      </trkpt>
      <trkpt lat="44.85615" lon="4.1172">
        <ele>1138.5</ele>
        <time>2022-06-09T14:48:31Z</time>
      </trkpt>
      <trkpt lat="44.85619" lon="4.11729">
        <ele>1138</ele>
        <time>2022-06-09T14:48:32Z</time>
      </trkpt>
      <trkpt lat="44.85624" lon="4.11738">
        <ele>1137.6</ele>
        <time>2022-06-09T14:48:33Z</time>
      </trkpt>
      <trkpt lat="44.85629" lon="4.11749">
        <ele>1137.1</ele>
        <time>2022-06-09T14:48:34Z</time>
      </trkpt>
      <trkpt lat="44.85632" lon="4.11761">
        <ele>1136.6</ele>
        <time>2022-06-09T14:48:35Z</time>
      </trkpt>
      <trkpt lat="44.85635" lon="4.11772">
        <ele>1136.1</ele>
        <time>2022-06-09T14:48:36Z</time>
      </trkpt>
      <trkpt lat="44.85637" lon="4.11783">
        <ele>1135.6</ele>
        <time>2022-06-09T14:48:37Z</time>
      </trkpt>
      <trkpt lat="44.85638" lon="4.11794">
        <ele>1135.2</ele>
        <time>2022-06-09T14:48:38Z</time>
      </trkpt>
      <trkpt lat="44.85639" lon="4.11804">
        <ele>1134.7</ele>
        <time>2022-06-09T14:48:39Z</time>
      </trkpt>
      <trkpt lat="44.85638" lon="4.11813">
        <ele>1134.3</ele>
        <time>2022-06-09T14:48:40Z</time>
      </trkpt>
      <trkpt lat="44.85638" lon="4.11822">
        <ele>1133.8</ele>
        <time>2022-06-09T14:48:41Z</time>
      </trkpt>
      <trkpt lat="44.85637" lon="4.11832">
        <ele>1133.4</ele>
        <time>2022-06-09T14:48:42Z</time>
      </trkpt>
      <trkpt lat="44.85638" lon="4.11841">
        <ele>1133</ele>
        <time>2022-06-09T14:48:43Z</time>
      </trkpt>
      <trkpt lat="44.8564" lon="4.1185">
        <ele>1132.6</ele>
        <time>2022-06-09T14:48:44Z</time>
      </trkpt>
      <trkpt lat="44.85644" lon="4.11857">
        <ele>1132.2</ele>
        <time>2022-06-09T14:48:45Z</time>
      </trkpt>
      <trkpt lat="44.85649" lon="4.11864">
        <ele>1131.7</ele>
        <time>2022-06-09T14:48:46Z</time>
      </trkpt>
      <trkpt lat="44.85655" lon="4.11868">
        <ele>1131.3</ele>
        <time>2022-06-09T14:48:47Z</time>
      </trkpt>
      <trkpt lat="44.85662" lon="4.11872">
        <ele>1130.8</ele>
        <time>2022-06-09T14:48:48Z</time>
      </trkpt>
      <trkpt lat="44.85669" lon="4.11877">
        <ele>1130.3</ele>
        <time>2022-06-09T14:48:49Z</time>
      </trkpt>
      <trkpt lat="44.85676" lon="4.11881">
        <ele>1129.9</ele>
        <time>2022-06-09T14:48:50Z</time>
      </trkpt>
      <trkpt lat="44.85682" lon="4.11887">
        <ele>1129.5</ele>
        <time>2022-06-09T14:48:51Z</time>
      </trkpt>
      <trkpt lat="44.85689" lon="4.11893">
        <ele>1129.1</ele>
        <time>2022-06-09T14:48:52Z</time>
      </trkpt>
      <trkpt lat="44.85694" lon="4.11901">
        <ele>1128.8</ele>
        <time>2022-06-09T14:48:53Z</time>
      </trkpt>
      <trkpt lat="44.85698" lon="4.11911">
        <ele>1128.4</ele>
        <time>2022-06-09T14:48:54Z</time>
      </trkpt>
      <trkpt lat="44.857" lon="4.11921">
        <ele>1128</ele>
        <time>2022-06-09T14:48:55Z</time>
      </trkpt>
      <trkpt lat="44.857" lon="4.11932">
        <ele>1127.6</ele>
        <time>2022-06-09T14:48:56Z</time>
      </trkpt>
      <trkpt lat="44.85699" lon="4.11943">
        <ele>1127.2</ele>
        <time>2022-06-09T14:48:57Z</time>
      </trkpt>
      <trkpt lat="44.85698" lon="4.11953">
        <ele>1126.8</ele>
        <time>2022-06-09T14:48:58Z</time>
      </trkpt>
      <trkpt lat="44.85697" lon="4.11964">
        <ele>1126.4</ele>
        <time>2022-06-09T14:48:59Z</time>
      </trkpt>
      <trkpt lat="44.85697" lon="4.11975">
        <ele>1126</ele>
        <time>2022-06-09T14:49:00Z</time>
      </trkpt>
      <trkpt lat="44.85701" lon="4.11985">
        <ele>1125.5</ele>
        <time>2022-06-09T14:49:01Z</time>
      </trkpt>
      <trkpt lat="44.85707" lon="4.11992">
        <ele>1125.1</ele>
        <time>2022-06-09T14:49:02Z</time>
      </trkpt>
      <trkpt lat="44.85715" lon="4.11996">
        <ele>1124.6</ele>
        <time>2022-06-09T14:49:03Z</time>
      </trkpt>
      <trkpt lat="44.85723" lon="4.11994">
        <ele>1124.1</ele>
        <time>2022-06-09T14:49:04Z</time>
      </trkpt>
      <trkpt lat="44.8573" lon="4.11989">
        <ele>1123.6</ele>
        <time>2022-06-09T14:49:05Z</time>
      </trkpt>
      <trkpt lat="44.85737" lon="4.11982">
        <ele>1123.1</ele>
        <time>2022-06-09T14:49:06Z</time>
      </trkpt>
      <trkpt lat="44.85743" lon="4.11975">
        <ele>1122.7</ele>
        <time>2022-06-09T14:49:07Z</time>
      </trkpt>
      <trkpt lat="44.85751" lon="4.11969">
        <ele>1122.2</ele>
        <time>2022-06-09T14:49:08Z</time>
      </trkpt>
      <trkpt lat="44.85758" lon="4.11964">
        <ele>1121.7</ele>
        <time>2022-06-09T14:49:09Z</time>
      </trkpt>
      <trkpt lat="44.85766" lon="4.11961">
        <ele>1121.3</ele>
        <time>2022-06-09T14:49:10Z</time>
      </trkpt>
      <trkpt lat="44.85774" lon="4.11958">
        <ele>1120.8</ele>
        <time>2022-06-09T14:49:11Z</time>
      </trkpt>
      <trkpt lat="44.85782" lon="4.11952">
        <ele>1120.3</ele>
        <time>2022-06-09T14:49:12Z</time>
      </trkpt>
      <trkpt lat="44.8579" lon="4.11947">
        <ele>1119.9</ele>
        <time>2022-06-09T14:49:13Z</time>
      </trkpt>
      <trkpt lat="44.85797" lon="4.11941">
        <ele>1119.4</ele>
        <time>2022-06-09T14:49:14Z</time>
      </trkpt>
      <trkpt lat="44.85805" lon="4.11936">
        <ele>1118.9</ele>
        <time>2022-06-09T14:49:15Z</time>
      </trkpt>
      <trkpt lat="44.85814" lon="4.11932">
        <ele>1118.4</ele>
        <time>2022-06-09T14:49:16Z</time>
      </trkpt>
      <trkpt lat="44.85822" lon="4.11929">
        <ele>1117.9</ele>
        <time>2022-06-09T14:49:17Z</time>
      </trkpt>
      <trkpt lat="44.85831" lon="4.11926">
        <ele>1117.3</ele>
        <time>2022-06-09T14:49:18Z</time>
      </trkpt>
      <trkpt lat="44.8584" lon="4.11925">
        <ele>1116.8</ele>
        <time>2022-06-09T14:49:19Z</time>
      </trkpt>
      <trkpt lat="44.85849" lon="4.11924">
        <ele>1116.2</ele>
        <time>2022-06-09T14:49:20Z</time>
      </trkpt>
      <trkpt lat="44.85858" lon="4.11922">
        <ele>1115.9</ele>
        <time>2022-06-09T14:49:21Z</time>
      </trkpt>
      <trkpt lat="44.85867" lon="4.1192">
        <ele>1115.5</ele>
        <time>2022-06-09T14:49:22Z</time>
      </trkpt>
      <trkpt lat="44.85876" lon="4.11919">
        <ele>1115.2</ele>
        <time>2022-06-09T14:49:23Z</time>
      </trkpt>
      <trkpt lat="44.85885" lon="4.11917">
        <ele>1114.9</ele>
        <time>2022-06-09T14:49:24Z</time>
      </trkpt>
      <trkpt lat="44.85894" lon="4.11916">
        <ele>1114.6</ele>
        <time>2022-06-09T14:49:25Z</time>
      </trkpt>
      <trkpt lat="44.85903" lon="4.11915">
        <ele>1114.4</ele>
        <time>2022-06-09T14:49:26Z</time>
      </trkpt>
      <trkpt lat="44.85911" lon="4.11913">
        <ele>1114.3</ele>
        <time>2022-06-09T14:49:27Z</time>
      </trkpt>
      <trkpt lat="44.85918" lon="4.11909">
        <ele>1114.1</ele>
        <time>2022-06-09T14:49:28Z</time>
      </trkpt>
      <trkpt lat="44.85923" lon="4.11901">
        <ele>1114</ele>
        <time>2022-06-09T14:49:29Z</time>
      </trkpt>
      <trkpt lat="44.85927" lon="4.11891">
        <ele>1113.9</ele>
        <time>2022-06-09T14:49:30Z</time>
      </trkpt>
      <trkpt lat="44.85928" lon="4.1188">
        <ele>1113.9</ele>
        <time>2022-06-09T14:49:31Z</time>
      </trkpt>
      <trkpt lat="44.85929" lon="4.11869">
        <ele>1113.8</ele>
        <time>2022-06-09T14:49:32Z</time>
      </trkpt>
      <trkpt lat="44.85929" lon="4.11858">
        <ele>1113.8</ele>
        <time>2022-06-09T14:49:33Z</time>
      </trkpt>
      <trkpt lat="44.85928" lon="4.11848">
        <ele>1113.9</ele>
        <time>2022-06-09T14:49:34Z</time>
      </trkpt>
      <trkpt lat="44.85927" lon="4.11838">
        <ele>1114.1</ele>
        <time>2022-06-09T14:49:35Z</time>
      </trkpt>
      <trkpt lat="44.85924" lon="4.11829">
        <ele>1114.3</ele>
        <time>2022-06-09T14:49:36Z</time>
      </trkpt>
      <trkpt lat="44.8592" lon="4.11822">
        <ele>1114.5</ele>
        <time>2022-06-09T14:49:37Z</time>
      </trkpt>
      <trkpt lat="44.85915" lon="4.11817">
        <ele>1114.6</ele>
        <time>2022-06-09T14:49:38Z</time>
      </trkpt>
      <trkpt lat="44.85909" lon="4.11815">
        <ele>1114.7</ele>
        <time>2022-06-09T14:49:39Z</time>
      </trkpt>
      <trkpt lat="44.85904" lon="4.11815">
        <ele>1114.8</ele>
        <time>2022-06-09T14:49:40Z</time>
      </trkpt>
      <trkpt lat="44.85898" lon="4.11815">
        <ele>1114.9</ele>
        <time>2022-06-09T14:49:41Z</time>
      </trkpt>
      <trkpt lat="44.85893" lon="4.11815">
        <ele>1115</ele>
        <time>2022-06-09T14:49:42Z</time>
      </trkpt>
      <trkpt lat="44.85889" lon="4.11815">
        <ele>1115.1</ele>
        <time>2022-06-09T14:49:43Z</time>
      </trkpt>
      <trkpt lat="44.85886" lon="4.11815">
        <ele>1115.2</ele>
        <time>2022-06-09T14:49:44Z</time>
      </trkpt>
      <trkpt lat="44.85882" lon="4.11815">
        <ele>1115.3</ele>
        <time>2022-06-09T14:49:45Z</time>
      </trkpt>
      <trkpt lat="44.85878" lon="4.11815">
        <ele>1115.5</ele>
        <time>2022-06-09T14:49:46Z</time>
      </trkpt>
      <trkpt lat="44.85874" lon="4.11815">
        <ele>1115.6</ele>
        <time>2022-06-09T14:49:47Z</time>
      </trkpt>
      <trkpt lat="44.8587" lon="4.11814">
        <ele>1115.8</ele>
        <time>2022-06-09T14:49:48Z</time>
      </trkpt>
      <trkpt lat="44.85866" lon="4.11814">
        <ele>1116</ele>
        <time>2022-06-09T14:49:49Z</time>
      </trkpt>
      <trkpt lat="44.85863" lon="4.11815">
        <ele>1116.2</ele>
        <time>2022-06-09T14:49:50Z</time>
      </trkpt>
      <trkpt lat="44.85862" lon="4.11816">
        <ele>1116.2</ele>
        <time>2022-06-09T14:49:51Z</time>
      </trkpt>
      <trkpt lat="44.85855" lon="4.11814">
        <ele>1116.6</ele>
        <time>2022-06-09T14:49:52Z</time>
      </trkpt>
      <trkpt lat="44.85852" lon="4.11814">
        <ele>1116.8</ele>
        <time>2022-06-09T14:49:53Z</time>
      </trkpt>
      <trkpt lat="44.85848" lon="4.11813">
        <ele>1117</ele>
        <time>2022-06-09T14:49:55Z</time>
      </trkpt>
      <trkpt lat="44.85844" lon="4.11813">
        <ele>1117.3</ele>
        <time>2022-06-09T14:49:56Z</time>
      </trkpt>
      <trkpt lat="44.85839" lon="4.11813">
        <ele>1117.6</ele>
        <time>2022-06-09T14:49:57Z</time>
      </trkpt>
      <trkpt lat="44.85834" lon="4.11812">
        <ele>1117.9</ele>
        <time>2022-06-09T14:49:59Z</time>
      </trkpt>
      <trkpt lat="44.85832" lon="4.11811">
        <ele>1118</ele>
        <time>2022-06-09T14:50:00Z</time>
      </trkpt>
      <trkpt lat="44.8583" lon="4.11809">
        <ele>1118.2</ele>
        <time>2022-06-09T14:50:02Z</time>
      </trkpt>
      <trkpt lat="44.85826" lon="4.11807">
        <ele>1118.4</ele>
        <time>2022-06-09T14:50:04Z</time>
      </trkpt>
      <trkpt lat="44.85824" lon="4.11805">
        <ele>1118.7</ele>
        <time>2022-06-09T14:50:05Z</time>
      </trkpt>
      <trkpt lat="44.85822" lon="4.11804">
        <ele>1118.8</ele>
        <time>2022-06-09T14:50:06Z</time>
      </trkpt>
      <trkpt lat="44.8582" lon="4.11801">
        <ele>1119</ele>
        <time>2022-06-09T14:50:07Z</time>
      </trkpt>
      <trkpt lat="44.85819" lon="4.11799">
        <ele>1119.1</ele>
        <time>2022-06-09T14:50:08Z</time>
      </trkpt>
      <trkpt lat="44.85817" lon="4.11796">
        <ele>1119.3</ele>
        <time>2022-06-09T14:50:10Z</time>
      </trkpt>
      <trkpt lat="44.85816" lon="4.11793">
        <ele>1119.4</ele>
        <time>2022-06-09T14:50:11Z</time>
      </trkpt>
      <trkpt lat="44.85815" lon="4.11792">
        <ele>1119.5</ele>
        <time>2022-06-09T14:50:12Z</time>
      </trkpt>
      <trkpt lat="44.85814" lon="4.11788">
        <ele>1119.6</ele>
        <time>2022-06-09T14:50:13Z</time>
      </trkpt>
      <trkpt lat="44.85814" lon="4.11787">
        <ele>1119.7</ele>
        <time>2022-06-09T14:50:14Z</time>
      </trkpt>
      <trkpt lat="44.85814" lon="4.11784">
        <ele>1119.8</ele>
        <time>2022-06-09T14:50:15Z</time>
      </trkpt>
      <trkpt lat="44.85813" lon="4.1178">
        <ele>1120</ele>
        <time>2022-06-09T14:50:16Z</time>
      </trkpt>
      <trkpt lat="44.85813" lon="4.11774">
        <ele>1120.2</ele>
        <time>2022-06-09T14:50:18Z</time>
      </trkpt>
      <trkpt lat="44.85813" lon="4.11772">
        <ele>1120.2</ele>
        <time>2022-06-09T14:50:20Z</time>
      </trkpt>
      <trkpt lat="44.85813" lon="4.1177">
        <ele>1120.3</ele>
        <time>2022-06-09T14:50:21Z</time>
      </trkpt>
      <trkpt lat="44.85813" lon="4.11768">
        <ele>1120.4</ele>
        <time>2022-06-09T14:50:22Z</time>
      </trkpt>
      <trkpt lat="44.85814" lon="4.11763">
        <ele>1120.6</ele>
        <time>2022-06-09T14:50:23Z</time>
      </trkpt>
      <trkpt lat="44.85816" lon="4.11758">
        <ele>1120.7</ele>
        <time>2022-06-09T14:50:25Z</time>
      </trkpt>
      <trkpt lat="44.85816" lon="4.11757">
        <ele>1120.8</ele>
        <time>2022-06-09T14:50:26Z</time>
      </trkpt>
      <trkpt lat="44.85818" lon="4.1175">
        <ele>1121</ele>
        <time>2022-06-09T14:50:28Z</time>
      </trkpt>
      <trkpt lat="44.85819" lon="4.11747">
        <ele>1121.1</ele>
        <time>2022-06-09T14:50:30Z</time>
      </trkpt>
      <trkpt lat="44.8582" lon="4.11742">
        <ele>1121.3</ele>
        <time>2022-06-09T14:50:31Z</time>
      </trkpt>
      <trkpt lat="44.8582" lon="4.11739">
        <ele>1121.3</ele>
        <time>2022-06-09T14:50:32Z</time>
      </trkpt>
      <trkpt lat="44.85821" lon="4.11735">
        <ele>1121.5</ele>
        <time>2022-06-09T14:50:34Z</time>
      </trkpt>
      <trkpt lat="44.85822" lon="4.11731">
        <ele>1121.5</ele>
        <time>2022-06-09T14:50:35Z</time>
      </trkpt>
      <trkpt lat="44.85823" lon="4.11728">
        <ele>1121.6</ele>
        <time>2022-06-09T14:50:36Z</time>
      </trkpt>
      <trkpt lat="44.85824" lon="4.11725">
        <ele>1121.7</ele>
        <time>2022-06-09T14:50:38Z</time>
      </trkpt>
      <trkpt lat="44.85825" lon="4.1172">
        <ele>1121.8</ele>
        <time>2022-06-09T14:50:39Z</time>
      </trkpt>
      <trkpt lat="44.85825" lon="4.11718">
        <ele>1121.9</ele>
        <time>2022-06-09T14:50:40Z</time>
      </trkpt>
      <trkpt lat="44.85825" lon="4.11715">
        <ele>1121.9</ele>
        <time>2022-06-09T14:50:41Z</time>
      </trkpt>
      <trkpt lat="44.85826" lon="4.1171">
        <ele>1122</ele>
        <time>2022-06-09T14:50:43Z</time>
      </trkpt>
      <trkpt lat="44.85827" lon="4.11705">
        <ele>1122.1</ele>
        <time>2022-06-09T14:50:44Z</time>
      </trkpt>
      <trkpt lat="44.85827" lon="4.11704">
        <ele>1122.2</ele>
        <time>2022-06-09T14:50:45Z</time>
      </trkpt>
      <trkpt lat="44.85828" lon="4.11701">
        <ele>1122.2</ele>
        <time>2022-06-09T14:50:46Z</time>
      </trkpt>
      <trkpt lat="44.85828" lon="4.11699">
        <ele>1122.3</ele>
        <time>2022-06-09T14:50:47Z</time>
      </trkpt>
      <trkpt lat="44.85829" lon="4.11696">
        <ele>1122.4</ele>
        <time>2022-06-09T14:50:48Z</time>
      </trkpt>
      <trkpt lat="44.8583" lon="4.11694">
        <ele>1122.4</ele>
        <time>2022-06-09T14:50:50Z</time>
      </trkpt>
      <trkpt lat="44.8583" lon="4.11693">
        <ele>1122.5</ele>
        <time>2022-06-09T14:50:51Z</time>
      </trkpt>
      <trkpt lat="44.8583" lon="4.11694">
        <ele>1122.5</ele>
        <time>2022-06-09T14:50:52Z</time>
      </trkpt>
      <trkpt lat="44.85829" lon="4.11695">
        <ele>1122.5</ele>
        <time>2022-06-09T14:50:53Z</time>
      </trkpt>
      <trkpt lat="44.85829" lon="4.11696">
        <ele>1122.5</ele>
        <time>2022-06-09T14:50:54Z</time>
      </trkpt>
      <trkpt lat="44.85828" lon="4.11697">
        <ele>1122.6</ele>
        <time>2022-06-09T14:50:55Z</time>
      </trkpt>
      <trkpt lat="44.85828" lon="4.11698">
        <ele>1122.6</ele>
        <time>2022-06-09T14:50:56Z</time>
      </trkpt>
      <trkpt lat="44.85827" lon="4.11698">
        <ele>1122.6</ele>
        <time>2022-06-09T14:50:57Z</time>
      </trkpt>
      <trkpt lat="44.85827" lon="4.11699">
        <ele>1122.7</ele>
        <time>2022-06-09T14:50:58Z</time>
      </trkpt>
      <trkpt lat="44.85826" lon="4.117">
        <ele>1122.7</ele>
        <time>2022-06-09T14:50:59Z</time>
      </trkpt>
      <trkpt lat="44.85826" lon="4.11701">
        <ele>1122.7</ele>
        <time>2022-06-09T14:51:00Z</time>
      </trkpt>
      <trkpt lat="44.85825" lon="4.11702">
        <ele>1122.8</ele>
        <time>2022-06-09T14:51:01Z</time>
      </trkpt>
      <trkpt lat="44.85825" lon="4.11703">
        <ele>1122.8</ele>
        <time>2022-06-09T14:51:49Z</time>
      </trkpt>
      <trkpt lat="44.85824" lon="4.11704">
        <ele>1122.8</ele>
        <time>2022-06-09T14:51:50Z</time>
      </trkpt>
      <trkpt lat="44.85822" lon="4.11709">
        <ele>1123</ele>
        <time>2022-06-09T14:51:51Z</time>
      </trkpt>
      <trkpt lat="44.85821" lon="4.11715">
        <ele>1122.8</ele>
        <time>2022-06-09T14:51:52Z</time>
      </trkpt>
      <trkpt lat="44.85819" lon="4.11721">
        <ele>1122.6</ele>
        <time>2022-06-09T14:51:54Z</time>
      </trkpt>
      <trkpt lat="44.85817" lon="4.11728">
        <ele>1122.4</ele>
        <time>2022-06-09T14:51:55Z</time>
      </trkpt>
      <trkpt lat="44.85815" lon="4.11735">
        <ele>1122.2</ele>
        <time>2022-06-09T14:51:56Z</time>
      </trkpt>
      <trkpt lat="44.85813" lon="4.11742">
        <ele>1122</ele>
        <time>2022-06-09T14:51:57Z</time>
      </trkpt>
      <trkpt lat="44.85811" lon="4.11748">
        <ele>1121.8</ele>
        <time>2022-06-09T14:51:58Z</time>
      </trkpt>
      <trkpt lat="44.85809" lon="4.11756">
        <ele>1121.6</ele>
        <time>2022-06-09T14:51:59Z</time>
      </trkpt>
      <trkpt lat="44.85809" lon="4.11763">
        <ele>1121.4</ele>
        <time>2022-06-09T14:52:00Z</time>
      </trkpt>
      <trkpt lat="44.85808" lon="4.11771">
        <ele>1121.2</ele>
        <time>2022-06-09T14:52:01Z</time>
      </trkpt>
      <trkpt lat="44.85809" lon="4.1178">
        <ele>1120.9</ele>
        <time>2022-06-09T14:52:02Z</time>
      </trkpt>
      <trkpt lat="44.8581" lon="4.11789">
        <ele>1120.5</ele>
        <time>2022-06-09T14:52:03Z</time>
      </trkpt>
      <trkpt lat="44.85813" lon="4.11798">
        <ele>1120.1</ele>
        <time>2022-06-09T14:52:04Z</time>
      </trkpt>
      <trkpt lat="44.85818" lon="4.11804">
        <ele>1119.7</ele>
        <time>2022-06-09T14:52:05Z</time>
      </trkpt>
      <trkpt lat="44.85824" lon="4.1181">
        <ele>1119.3</ele>
        <time>2022-06-09T14:52:06Z</time>
      </trkpt>
      <trkpt lat="44.85831" lon="4.11814">
        <ele>1118.7</ele>
        <time>2022-06-09T14:52:07Z</time>
      </trkpt>
      <trkpt lat="44.85839" lon="4.11816">
        <ele>1118.1</ele>
        <time>2022-06-09T14:52:08Z</time>
      </trkpt>
      <trkpt lat="44.85846" lon="4.11818">
        <ele>1117.6</ele>
        <time>2022-06-09T14:52:09Z</time>
      </trkpt>
      <trkpt lat="44.85854" lon="4.11818">
        <ele>1117</ele>
        <time>2022-06-09T14:52:10Z</time>
      </trkpt>
      <trkpt lat="44.85863" lon="4.11818">
        <ele>1116.4</ele>
        <time>2022-06-09T14:52:11Z</time>
      </trkpt>
      <trkpt lat="44.85871" lon="4.11818">
        <ele>1116</ele>
        <time>2022-06-09T14:52:12Z</time>
      </trkpt>
      <trkpt lat="44.85879" lon="4.11818">
        <ele>1115.6</ele>
        <time>2022-06-09T14:52:13Z</time>
      </trkpt>
      <trkpt lat="44.85888" lon="4.11818">
        <ele>1115.2</ele>
        <time>2022-06-09T14:52:14Z</time>
      </trkpt>
      <trkpt lat="44.85896" lon="4.11818">
        <ele>1115</ele>
        <time>2022-06-09T14:52:15Z</time>
      </trkpt>
      <trkpt lat="44.85904" lon="4.11818">
        <ele>1114.8</ele>
        <time>2022-06-09T14:52:16Z</time>
      </trkpt>
      <trkpt lat="44.85912" lon="4.11819">
        <ele>1114.6</ele>
        <time>2022-06-09T14:52:17Z</time>
      </trkpt>
      <trkpt lat="44.85918" lon="4.11823">
        <ele>1114.5</ele>
        <time>2022-06-09T14:52:18Z</time>
      </trkpt>
      <trkpt lat="44.85922" lon="4.1183">
        <ele>1114.3</ele>
        <time>2022-06-09T14:52:19Z</time>
      </trkpt>
      <trkpt lat="44.85924" lon="4.1184">
        <ele>1114</ele>
        <time>2022-06-09T14:52:20Z</time>
      </trkpt>
      <trkpt lat="44.85925" lon="4.11849">
        <ele>1113.9</ele>
        <time>2022-06-09T14:52:21Z</time>
      </trkpt>
      <trkpt lat="44.85926" lon="4.11859">
        <ele>1113.8</ele>
        <time>2022-06-09T14:52:22Z</time>
      </trkpt>
      <trkpt lat="44.85925" lon="4.11868">
        <ele>1113.8</ele>
        <time>2022-06-09T14:52:23Z</time>
      </trkpt>
      <trkpt lat="44.85925" lon="4.11877">
        <ele>1113.8</ele>
        <time>2022-06-09T14:52:24Z</time>
      </trkpt>
      <trkpt lat="44.85925" lon="4.11885">
        <ele>1113.9</ele>
        <time>2022-06-09T14:52:25Z</time>
      </trkpt>
      <trkpt lat="44.85924" lon="4.11893">
        <ele>1114</ele>
        <time>2022-06-09T14:52:26Z</time>
      </trkpt>
      <trkpt lat="44.85921" lon="4.11899">
        <ele>1114</ele>
        <time>2022-06-09T14:52:27Z</time>
      </trkpt>
      <trkpt lat="44.85916" lon="4.11903">
        <ele>1114.1</ele>
        <time>2022-06-09T14:52:28Z</time>
      </trkpt>
      <trkpt lat="44.85913" lon="4.11906">
        <ele>1114.2</ele>
        <time>2022-06-09T14:52:29Z</time>
      </trkpt>
      <trkpt lat="44.85908" lon="4.11908">
        <ele>1114.3</ele>
        <time>2022-06-09T14:52:30Z</time>
      </trkpt>
      <trkpt lat="44.85905" lon="4.11909">
        <ele>1114.3</ele>
        <time>2022-06-09T14:52:31Z</time>
      </trkpt>
      <trkpt lat="44.85901" lon="4.11909">
        <ele>1114.4</ele>
        <time>2022-06-09T14:52:32Z</time>
      </trkpt>
      <trkpt lat="44.85897" lon="4.1191">
        <ele>1114.5</ele>
        <time>2022-06-09T14:52:33Z</time>
      </trkpt>
      <trkpt lat="44.85894" lon="4.1191">
        <ele>1114.5</ele>
        <time>2022-06-09T14:52:34Z</time>
      </trkpt>
      <trkpt lat="44.85891" lon="4.1191">
        <ele>1114.6</ele>
        <time>2022-06-09T14:52:35Z</time>
      </trkpt>
      <trkpt lat="44.85887" lon="4.1191">
        <ele>1114.7</ele>
        <time>2022-06-09T14:52:36Z</time>
      </trkpt>
      <trkpt lat="44.85884" lon="4.11909">
        <ele>1114.8</ele>
        <time>2022-06-09T14:52:37Z</time>
      </trkpt>
      <trkpt lat="44.85882" lon="4.11909">
        <ele>1114.9</ele>
        <time>2022-06-09T14:52:38Z</time>
      </trkpt>
      <trkpt lat="44.85878" lon="4.11909">
        <ele>1115</ele>
        <time>2022-06-09T14:52:39Z</time>
      </trkpt>
      <trkpt lat="44.85874" lon="4.11912">
        <ele>1115.2</ele>
        <time>2022-06-09T14:52:40Z</time>
      </trkpt>
      <trkpt lat="44.85872" lon="4.11913">
        <ele>1115.3</ele>
        <time>2022-06-09T14:52:41Z</time>
      </trkpt>
      <trkpt lat="44.85868" lon="4.11915">
        <ele>1115.4</ele>
        <time>2022-06-09T14:52:42Z</time>
      </trkpt>
      <trkpt lat="44.85863" lon="4.11916">
        <ele>1115.6</ele>
        <time>2022-06-09T14:52:44Z</time>
      </trkpt>
      <trkpt lat="44.85861" lon="4.11917">
        <ele>1115.7</ele>
        <time>2022-06-09T14:52:45Z</time>
      </trkpt>
      <trkpt lat="44.85859" lon="4.11917">
        <ele>1115.8</ele>
        <time>2022-06-09T14:52:46Z</time>
      </trkpt>
      <trkpt lat="44.85856" lon="4.11918">
        <ele>1115.9</ele>
        <time>2022-06-09T14:52:47Z</time>
      </trkpt>
      <trkpt lat="44.85852" lon="4.11919">
        <ele>1116.1</ele>
        <time>2022-06-09T14:52:48Z</time>
      </trkpt>
      <trkpt lat="44.85847" lon="4.11919">
        <ele>1116.3</ele>
        <time>2022-06-09T14:52:50Z</time>
      </trkpt>
      <trkpt lat="44.85844" lon="4.1192">
        <ele>1116.5</ele>
        <time>2022-06-09T14:52:51Z</time>
      </trkpt>
      <trkpt lat="44.85841" lon="4.1192">
        <ele>1116.7</ele>
        <time>2022-06-09T14:52:53Z</time>
      </trkpt>
      <trkpt lat="44.8584" lon="4.11921">
        <ele>1116.8</ele>
        <time>2022-06-09T14:52:54Z</time>
      </trkpt>
      <trkpt lat="44.85837" lon="4.1192">
        <ele>1117</ele>
        <time>2022-06-09T14:52:55Z</time>
      </trkpt>
      <trkpt lat="44.85834" lon="4.11921">
        <ele>1117.2</ele>
        <time>2022-06-09T14:52:56Z</time>
      </trkpt>
      <trkpt lat="44.85832" lon="4.11921">
        <ele>1117.3</ele>
        <time>2022-06-09T14:52:57Z</time>
      </trkpt>
      <trkpt lat="44.85828" lon="4.11922">
        <ele>1117.5</ele>
        <time>2022-06-09T14:52:59Z</time>
      </trkpt>
      <trkpt lat="44.85827" lon="4.11922">
        <ele>1117.6</ele>
        <time>2022-06-09T14:53:00Z</time>
      </trkpt>
      <trkpt lat="44.85825" lon="4.11921">
        <ele>1117.7</ele>
        <time>2022-06-09T14:53:01Z</time>
      </trkpt>
      <trkpt lat="44.85821" lon="4.11922">
        <ele>1118</ele>
        <time>2022-06-09T14:53:02Z</time>
      </trkpt>
      <trkpt lat="44.85818" lon="4.11923">
        <ele>1118.2</ele>
        <time>2022-06-09T14:53:04Z</time>
      </trkpt>
      <trkpt lat="44.85817" lon="4.11923">
        <ele>1118.2</ele>
        <time>2022-06-09T14:53:05Z</time>
      </trkpt>
      <trkpt lat="44.85814" lon="4.11926">
        <ele>1118.4</ele>
        <time>2022-06-09T14:53:06Z</time>
      </trkpt>
      <trkpt lat="44.85813" lon="4.11927">
        <ele>1118.5</ele>
        <time>2022-06-09T14:53:07Z</time>
      </trkpt>
      <trkpt lat="44.85808" lon="4.11929">
        <ele>1118.8</ele>
        <time>2022-06-09T14:53:08Z</time>
      </trkpt>
      <trkpt lat="44.85805" lon="4.1193">
        <ele>1119</ele>
        <time>2022-06-09T14:53:10Z</time>
      </trkpt>
      <trkpt lat="44.85803" lon="4.11931">
        <ele>1119.1</ele>
        <time>2022-06-09T14:53:11Z</time>
      </trkpt>
      <trkpt lat="44.858" lon="4.11933">
        <ele>1119.3</ele>
        <time>2022-06-09T14:53:12Z</time>
      </trkpt>
      <trkpt lat="44.85799" lon="4.11933">
        <ele>1119.4</ele>
        <time>2022-06-09T14:53:13Z</time>
      </trkpt>
      <trkpt lat="44.85795" lon="4.11934">
        <ele>1119.6</ele>
        <time>2022-06-09T14:53:14Z</time>
      </trkpt>
      <trkpt lat="44.85794" lon="4.11935">
        <ele>1119.7</ele>
        <time>2022-06-09T14:53:15Z</time>
      </trkpt>
      <trkpt lat="44.85791" lon="4.11938">
        <ele>1119.9</ele>
        <time>2022-06-09T14:53:16Z</time>
      </trkpt>
      <trkpt lat="44.85789" lon="4.11939">
        <ele>1120</ele>
        <time>2022-06-09T14:53:17Z</time>
      </trkpt>
      <trkpt lat="44.85786" lon="4.11941">
        <ele>1120.2</ele>
        <time>2022-06-09T14:53:18Z</time>
      </trkpt>
      <trkpt lat="44.85785" lon="4.11941">
        <ele>1120.2</ele>
        <time>2022-06-09T14:53:19Z</time>
      </trkpt>
      <trkpt lat="44.85782" lon="4.11943">
        <ele>1120.4</ele>
        <time>2022-06-09T14:53:20Z</time>
      </trkpt>
      <trkpt lat="44.85781" lon="4.11944">
        <ele>1120.5</ele>
        <time>2022-06-09T14:53:21Z</time>
      </trkpt>
      <trkpt lat="44.85777" lon="4.11946">
        <ele>1120.7</ele>
        <time>2022-06-09T14:53:22Z</time>
      </trkpt>
      <trkpt lat="44.85776" lon="4.11946">
        <ele>1120.8</ele>
        <time>2022-06-09T14:53:23Z</time>
      </trkpt>
      <trkpt lat="44.85772" lon="4.11949">
        <ele>1121</ele>
        <time>2022-06-09T14:53:24Z</time>
      </trkpt>
      <trkpt lat="44.85767" lon="4.11951">
        <ele>1121.3</ele>
        <time>2022-06-09T14:53:26Z</time>
      </trkpt>
      <trkpt lat="44.85765" lon="4.11952">
        <ele>1121.4</ele>
        <time>2022-06-09T14:53:28Z</time>
      </trkpt>
      <trkpt lat="44.85763" lon="4.11953">
        <ele>1121.5</ele>
        <time>2022-06-09T14:53:29Z</time>
      </trkpt>
      <trkpt lat="44.85761" lon="4.11955">
        <ele>1121.7</ele>
        <time>2022-06-09T14:53:31Z</time>
      </trkpt>
      <trkpt lat="44.85758" lon="4.11956">
        <ele>1121.9</ele>
        <time>2022-06-09T14:53:32Z</time>
      </trkpt>
      <trkpt lat="44.85755" lon="4.11958">
        <ele>1122.1</ele>
        <time>2022-06-09T14:53:34Z</time>
      </trkpt>
      <trkpt lat="44.85754" lon="4.11958">
        <ele>1122.1</ele>
        <time>2022-06-09T14:53:35Z</time>
      </trkpt>
      <trkpt lat="44.85751" lon="4.11959">
        <ele>1122.3</ele>
        <time>2022-06-09T14:53:36Z</time>
      </trkpt>
      <trkpt lat="44.8575" lon="4.1196">
        <ele>1122.3</ele>
        <time>2022-06-09T14:53:37Z</time>
      </trkpt>
      <trkpt lat="44.85749" lon="4.1196">
        <ele>1122.4</ele>
        <time>2022-06-09T14:53:38Z</time>
      </trkpt>
      <trkpt lat="44.85747" lon="4.11961">
        <ele>1122.5</ele>
        <time>2022-06-09T14:53:39Z</time>
      </trkpt>
      <trkpt lat="44.85744" lon="4.11963">
        <ele>1122.7</ele>
        <time>2022-06-09T14:53:40Z</time>
      </trkpt>
      <trkpt lat="44.85743" lon="4.11963">
        <ele>1122.8</ele>
        <time>2022-06-09T14:53:41Z</time>
      </trkpt>
      <trkpt lat="44.85741" lon="4.11965">
        <ele>1122.9</ele>
        <time>2022-06-09T14:53:42Z</time>
      </trkpt>
      <trkpt lat="44.8574" lon="4.11966">
        <ele>1123</ele>
        <time>2022-06-09T14:53:43Z</time>
      </trkpt>
      <trkpt lat="44.85737" lon="4.11969">
        <ele>1123.2</ele>
        <time>2022-06-09T14:53:44Z</time>
      </trkpt>
      <trkpt lat="44.85736" lon="4.1197">
        <ele>1123.3</ele>
        <time>2022-06-09T14:53:45Z</time>
      </trkpt>
      <trkpt lat="44.85734" lon="4.11974">
        <ele>1123.5</ele>
        <time>2022-06-09T14:53:46Z</time>
      </trkpt>
      <trkpt lat="44.85733" lon="4.11975">
        <ele>1123.5</ele>
        <time>2022-06-09T14:53:47Z</time>
      </trkpt>
      <trkpt lat="44.85731" lon="4.11978">
        <ele>1123.7</ele>
        <time>2022-06-09T14:53:49Z</time>
      </trkpt>
      <trkpt lat="44.8573" lon="4.11979">
        <ele>1123.8</ele>
        <time>2022-06-09T14:53:50Z</time>
      </trkpt>
      <trkpt lat="44.85727" lon="4.11982">
        <ele>1124</ele>
        <time>2022-06-09T14:53:51Z</time>
      </trkpt>
      <trkpt lat="44.85726" lon="4.11983">
        <ele>1124.1</ele>
        <time>2022-06-09T14:53:52Z</time>
      </trkpt>
      <trkpt lat="44.85722" lon="4.11986">
        <ele>1124.4</ele>
        <time>2022-06-09T14:53:54Z</time>
      </trkpt>
      <trkpt lat="44.85721" lon="4.11987">
        <ele>1124.5</ele>
        <time>2022-06-09T14:53:56Z</time>
      </trkpt>
      <trkpt lat="44.85717" lon="4.11987">
        <ele>1124.7</ele>
        <time>2022-06-09T14:53:57Z</time>
      </trkpt>
      <trkpt lat="44.85715" lon="4.11987">
        <ele>1124.8</ele>
        <time>2022-06-09T14:53:58Z</time>
      </trkpt>
      <trkpt lat="44.85711" lon="4.11986">
        <ele>1125.1</ele>
        <time>2022-06-09T14:54:00Z</time>
      </trkpt>
      <trkpt lat="44.85709" lon="4.11985">
        <ele>1125.2</ele>
        <time>2022-06-09T14:54:01Z</time>
      </trkpt>
      <trkpt lat="44.85708" lon="4.11983">
        <ele>1125.3</ele>
        <time>2022-06-09T14:54:03Z</time>
      </trkpt>
      <trkpt lat="44.85707" lon="4.11982">
        <ele>1125.4</ele>
        <time>2022-06-09T14:54:04Z</time>
      </trkpt>
      <trkpt lat="44.85705" lon="4.11978">
        <ele>1125.5</ele>
        <time>2022-06-09T14:54:05Z</time>
      </trkpt>
      <trkpt lat="44.85704" lon="4.11976">
        <ele>1125.7</ele>
        <time>2022-06-09T14:54:07Z</time>
      </trkpt>
      <trkpt lat="44.85704" lon="4.11974">
        <ele>1125.8</ele>
        <time>2022-06-09T14:54:08Z</time>
      </trkpt>
      <trkpt lat="44.85703" lon="4.11972">
        <ele>1125.8</ele>
        <time>2022-06-09T14:54:09Z</time>
      </trkpt>
      <trkpt lat="44.85702" lon="4.11969">
        <ele>1125.9</ele>
        <time>2022-06-09T14:54:10Z</time>
      </trkpt>
      <trkpt lat="44.85702" lon="4.11967">
        <ele>1126</ele>
        <time>2022-06-09T14:54:11Z</time>
      </trkpt>
      <trkpt lat="44.85702" lon="4.11964">
        <ele>1126.1</ele>
        <time>2022-06-09T14:54:12Z</time>
      </trkpt>
      <trkpt lat="44.85701" lon="4.11962">
        <ele>1126.2</ele>
        <time>2022-06-09T14:54:13Z</time>
      </trkpt>
      <trkpt lat="44.85701" lon="4.1196">
        <ele>1126.3</ele>
        <time>2022-06-09T14:54:14Z</time>
      </trkpt>
      <trkpt lat="44.85702" lon="4.11958">
        <ele>1126.4</ele>
        <time>2022-06-09T14:54:15Z</time>
      </trkpt>
      <trkpt lat="44.85702" lon="4.11957">
        <ele>1126.4</ele>
        <time>2022-06-09T14:54:16Z</time>
      </trkpt>
      <trkpt lat="44.85702" lon="4.11955">
        <ele>1126.5</ele>
        <time>2022-06-09T14:54:17Z</time>
      </trkpt>
      <trkpt lat="44.85703" lon="4.11953">
        <ele>1126.6</ele>
        <time>2022-06-09T14:54:18Z</time>
      </trkpt>
      <trkpt lat="44.85703" lon="4.11951">
        <ele>1126.7</ele>
        <time>2022-06-09T14:54:19Z</time>
      </trkpt>
      <trkpt lat="44.85703" lon="4.11949">
        <ele>1126.8</ele>
        <time>2022-06-09T14:54:20Z</time>
      </trkpt>
      <trkpt lat="44.85703" lon="4.11946">
        <ele>1126.9</ele>
        <time>2022-06-09T14:54:21Z</time>
      </trkpt>
      <trkpt lat="44.85705" lon="4.11941">
        <ele>1127.1</ele>
        <time>2022-06-09T14:54:24Z</time>
      </trkpt>
      <trkpt lat="44.85705" lon="4.11939">
        <ele>1127.2</ele>
        <time>2022-06-09T14:54:25Z</time>
      </trkpt>
      <trkpt lat="44.85705" lon="4.11937">
        <ele>1127.2</ele>
        <time>2022-06-09T14:54:26Z</time>
      </trkpt>
      <trkpt lat="44.85706" lon="4.11934">
        <ele>1127.4</ele>
        <time>2022-06-09T14:54:27Z</time>
      </trkpt>
      <trkpt lat="44.85706" lon="4.11932">
        <ele>1127.4</ele>
        <time>2022-06-09T14:54:29Z</time>
      </trkpt>
      <trkpt lat="44.85706" lon="4.11928">
        <ele>1127.6</ele>
        <time>2022-06-09T14:54:30Z</time>
      </trkpt>
      <trkpt lat="44.85706" lon="4.11927">
        <ele>1127.6</ele>
        <time>2022-06-09T14:54:31Z</time>
      </trkpt>
      <trkpt lat="44.85706" lon="4.11923">
        <ele>1127.8</ele>
        <time>2022-06-09T14:54:32Z</time>
      </trkpt>
      <trkpt lat="44.85706" lon="4.11922">
        <ele>1127.8</ele>
        <time>2022-06-09T14:54:33Z</time>
      </trkpt>
      <trkpt lat="44.85705" lon="4.11917">
        <ele>1128</ele>
        <time>2022-06-09T14:54:34Z</time>
      </trkpt>
      <trkpt lat="44.85705" lon="4.11915">
        <ele>1128.1</ele>
        <time>2022-06-09T14:54:35Z</time>
      </trkpt>
      <trkpt lat="44.85705" lon="4.11911">
        <ele>1128.2</ele>
        <time>2022-06-09T14:54:37Z</time>
      </trkpt>
      <trkpt lat="44.85704" lon="4.11908">
        <ele>1128.4</ele>
        <time>2022-06-09T14:54:38Z</time>
      </trkpt>
      <trkpt lat="44.85703" lon="4.11906">
        <ele>1128.4</ele>
        <time>2022-06-09T14:54:39Z</time>
      </trkpt>
      <trkpt lat="44.85702" lon="4.11902">
        <ele>1128.6</ele>
        <time>2022-06-09T14:54:40Z</time>
      </trkpt>
      <trkpt lat="44.85701" lon="4.11901">
        <ele>1128.7</ele>
        <time>2022-06-09T14:54:41Z</time>
      </trkpt>
      <trkpt lat="44.857" lon="4.11898">
        <ele>1128.8</ele>
        <time>2022-06-09T14:54:42Z</time>
      </trkpt>
      <trkpt lat="44.85699" lon="4.11896">
        <ele>1128.9</ele>
        <time>2022-06-09T14:54:43Z</time>
      </trkpt>
      <trkpt lat="44.85697" lon="4.11892">
        <ele>1129.1</ele>
        <time>2022-06-09T14:54:44Z</time>
      </trkpt>
      <trkpt lat="44.85694" lon="4.11888">
        <ele>1129.3</ele>
        <time>2022-06-09T14:54:46Z</time>
      </trkpt>
      <trkpt lat="44.85691" lon="4.11886">
        <ele>1129.4</ele>
        <time>2022-06-09T14:54:48Z</time>
      </trkpt>
      <trkpt lat="44.85691" lon="4.11885">
        <ele>1129.4</ele>
        <time>2022-06-09T14:54:49Z</time>
      </trkpt>
      <trkpt lat="44.85688" lon="4.11883">
        <ele>1129.6</ele>
        <time>2022-06-09T14:54:50Z</time>
      </trkpt>
      <trkpt lat="44.85687" lon="4.11882">
        <ele>1129.6</ele>
        <time>2022-06-09T14:54:51Z</time>
      </trkpt>
      <trkpt lat="44.85684" lon="4.1188">
        <ele>1129.8</ele>
        <time>2022-06-09T14:54:52Z</time>
      </trkpt>
      <trkpt lat="44.85683" lon="4.1188">
        <ele>1129.9</ele>
        <time>2022-06-09T14:54:53Z</time>
      </trkpt>
      <trkpt lat="44.8568" lon="4.11877">
        <ele>1130.1</ele>
        <time>2022-06-09T14:54:54Z</time>
      </trkpt>
      <trkpt lat="44.85679" lon="4.11876">
        <ele>1130.2</ele>
        <time>2022-06-09T14:54:55Z</time>
      </trkpt>
      <trkpt lat="44.85676" lon="4.11874">
        <ele>1130.4</ele>
        <time>2022-06-09T14:54:56Z</time>
      </trkpt>
      <trkpt lat="44.85674" lon="4.11874">
        <ele>1130.4</ele>
        <time>2022-06-09T14:54:57Z</time>
      </trkpt>
      <trkpt lat="44.85672" lon="4.11873">
        <ele>1130.6</ele>
        <time>2022-06-09T14:54:58Z</time>
      </trkpt>
      <trkpt lat="44.85671" lon="4.11873">
        <ele>1130.7</ele>
        <time>2022-06-09T14:54:59Z</time>
      </trkpt>
      <trkpt lat="44.85668" lon="4.11871">
        <ele>1130.9</ele>
        <time>2022-06-09T14:55:00Z</time>
      </trkpt>
      <trkpt lat="44.85667" lon="4.1187">
        <ele>1130.9</ele>
        <time>2022-06-09T14:55:01Z</time>
      </trkpt>
      <trkpt lat="44.85665" lon="4.11869">
        <ele>1131.1</ele>
        <time>2022-06-09T14:55:02Z</time>
      </trkpt>
      <trkpt lat="44.85663" lon="4.11867">
        <ele>1131.3</ele>
        <time>2022-06-09T14:55:03Z</time>
      </trkpt>
      <trkpt lat="44.85662" lon="4.11865">
        <ele>1131.4</ele>
        <time>2022-06-09T14:55:04Z</time>
      </trkpt>
      <trkpt lat="44.85659" lon="4.11863">
        <ele>1131.6</ele>
        <time>2022-06-09T14:55:06Z</time>
      </trkpt>
      <trkpt lat="44.85658" lon="4.11863">
        <ele>1131.6</ele>
        <time>2022-06-09T14:55:07Z</time>
      </trkpt>
      <trkpt lat="44.85655" lon="4.11859">
        <ele>1131.9</ele>
        <time>2022-06-09T14:55:08Z</time>
      </trkpt>
      <trkpt lat="44.85655" lon="4.11858">
        <ele>1132</ele>
        <time>2022-06-09T14:55:09Z</time>
      </trkpt>
      <trkpt lat="44.85652" lon="4.11855">
        <ele>1132.2</ele>
        <time>2022-06-09T14:55:10Z</time>
      </trkpt>
      <trkpt lat="44.85652" lon="4.11854">
        <ele>1132.2</ele>
        <time>2022-06-09T14:55:12Z</time>
      </trkpt>
      <trkpt lat="44.85651" lon="4.11852">
        <ele>1132.3</ele>
        <time>2022-06-09T14:55:13Z</time>
      </trkpt>
      <trkpt lat="44.8565" lon="4.11851">
        <ele>1132.4</ele>
        <time>2022-06-09T14:55:14Z</time>
      </trkpt>
      <trkpt lat="44.85648" lon="4.11846">
        <ele>1132.7</ele>
        <time>2022-06-09T14:55:15Z</time>
      </trkpt>
      <trkpt lat="44.85647" lon="4.11844">
        <ele>1132.7</ele>
        <time>2022-06-09T14:55:16Z</time>
      </trkpt>
      <trkpt lat="44.85647" lon="4.11841">
        <ele>1132.9</ele>
        <time>2022-06-09T14:55:17Z</time>
      </trkpt>
      <trkpt lat="44.85646" lon="4.11838">
        <ele>1133</ele>
        <time>2022-06-09T14:55:19Z</time>
      </trkpt>
      <trkpt lat="44.85645" lon="4.11834">
        <ele>1133.3</ele>
        <time>2022-06-09T14:55:20Z</time>
      </trkpt>
      <trkpt lat="44.85645" lon="4.1183">
        <ele>1133.5</ele>
        <time>2022-06-09T14:55:21Z</time>
      </trkpt>
      <trkpt lat="44.85644" lon="4.11828">
        <ele>1133.6</ele>
        <time>2022-06-09T14:55:23Z</time>
      </trkpt>
      <trkpt lat="44.85644" lon="4.11823">
        <ele>1133.8</ele>
        <time>2022-06-09T14:55:24Z</time>
      </trkpt>
      <trkpt lat="44.85644" lon="4.11821">
        <ele>1133.9</ele>
        <time>2022-06-09T14:55:25Z</time>
      </trkpt>
      <trkpt lat="44.85643" lon="4.11817">
        <ele>1134.1</ele>
        <time>2022-06-09T14:55:27Z</time>
      </trkpt>
      <trkpt lat="44.85643" lon="4.11816">
        <ele>1134.2</ele>
        <time>2022-06-09T14:55:28Z</time>
      </trkpt>
      <trkpt lat="44.85643" lon="4.11811">
        <ele>1134.4</ele>
        <time>2022-06-09T14:55:29Z</time>
      </trkpt>
      <trkpt lat="44.85643" lon="4.11805">
        <ele>1134.7</ele>
        <time>2022-06-09T14:55:31Z</time>
      </trkpt>
      <trkpt lat="44.85643" lon="4.11803">
        <ele>1134.8</ele>
        <time>2022-06-09T14:55:32Z</time>
      </trkpt>
      <trkpt lat="44.85642" lon="4.11801">
        <ele>1134.9</ele>
        <time>2022-06-09T14:55:33Z</time>
      </trkpt>
      <trkpt lat="44.85642" lon="4.11796">
        <ele>1135.1</ele>
        <time>2022-06-09T14:55:34Z</time>
      </trkpt>
      <trkpt lat="44.85642" lon="4.11795">
        <ele>1135.1</ele>
        <time>2022-06-09T14:55:35Z</time>
      </trkpt>
      <trkpt lat="44.85642" lon="4.11791">
        <ele>1135.3</ele>
        <time>2022-06-09T14:55:36Z</time>
      </trkpt>
      <trkpt lat="44.85641" lon="4.1179">
        <ele>1135.3</ele>
        <time>2022-06-09T14:55:37Z</time>
      </trkpt>
      <trkpt lat="44.85641" lon="4.11784">
        <ele>1135.5</ele>
        <time>2022-06-09T14:55:38Z</time>
      </trkpt>
      <trkpt lat="44.8564" lon="4.11782">
        <ele>1135.7</ele>
        <time>2022-06-09T14:55:39Z</time>
      </trkpt>
      <trkpt lat="44.85639" lon="4.11779">
        <ele>1135.8</ele>
        <time>2022-06-09T14:55:40Z</time>
      </trkpt>
      <trkpt lat="44.85638" lon="4.11775">
        <ele>1136</ele>
        <time>2022-06-09T14:55:42Z</time>
      </trkpt>
      <trkpt lat="44.85638" lon="4.11773">
        <ele>1136</ele>
        <time>2022-06-09T14:55:43Z</time>
      </trkpt>
      <trkpt lat="44.85637" lon="4.11769">
        <ele>1136.2</ele>
        <time>2022-06-09T14:55:44Z</time>
      </trkpt>
      <trkpt lat="44.85636" lon="4.11768">
        <ele>1136.2</ele>
        <time>2022-06-09T14:55:45Z</time>
      </trkpt>
      <trkpt lat="44.85635" lon="4.11765">
        <ele>1136.4</ele>
        <time>2022-06-09T14:55:46Z</time>
      </trkpt>
      <trkpt lat="44.85634" lon="4.11764">
        <ele>1136.5</ele>
        <time>2022-06-09T14:55:47Z</time>
      </trkpt>
      <trkpt lat="44.85633" lon="4.11759">
        <ele>1136.6</ele>
        <time>2022-06-09T14:55:48Z</time>
      </trkpt>
      <trkpt lat="44.85633" lon="4.11758">
        <ele>1136.7</ele>
        <time>2022-06-09T14:55:49Z</time>
      </trkpt>
      <trkpt lat="44.85631" lon="4.11754">
        <ele>1136.9</ele>
        <time>2022-06-09T14:55:50Z</time>
      </trkpt>
      <trkpt lat="44.8563" lon="4.11751">
        <ele>1137</ele>
        <time>2022-06-09T14:55:51Z</time>
      </trkpt>
      <trkpt lat="44.85629" lon="4.11748">
        <ele>1137.1</ele>
        <time>2022-06-09T14:55:53Z</time>
      </trkpt>
      <trkpt lat="44.85627" lon="4.11743">
        <ele>1137.4</ele>
        <time>2022-06-09T14:55:54Z</time>
      </trkpt>
      <trkpt lat="44.85627" lon="4.1174">
        <ele>1137.5</ele>
        <time>2022-06-09T14:55:55Z</time>
      </trkpt>
      <trkpt lat="44.85625" lon="4.11737">
        <ele>1137.6</ele>
        <time>2022-06-09T14:55:56Z</time>
      </trkpt>
      <trkpt lat="44.85624" lon="4.11733">
        <ele>1137.8</ele>
        <time>2022-06-09T14:55:58Z</time>
      </trkpt>
      <trkpt lat="44.85622" lon="4.11729">
        <ele>1138</ele>
        <time>2022-06-09T14:55:59Z</time>
      </trkpt>
      <trkpt lat="44.85621" lon="4.11727">
        <ele>1138</ele>
        <time>2022-06-09T14:56:00Z</time>
      </trkpt>
      <trkpt lat="44.85619" lon="4.11724">
        <ele>1138.2</ele>
        <time>2022-06-09T14:56:02Z</time>
      </trkpt>
      <trkpt lat="44.85618" lon="4.11723">
        <ele>1138.3</ele>
        <time>2022-06-09T14:56:03Z</time>
      </trkpt>
      <trkpt lat="44.85617" lon="4.1172">
        <ele>1138.5</ele>
        <time>2022-06-09T14:56:04Z</time>
      </trkpt>
      <trkpt lat="44.85614" lon="4.11716">
        <ele>1138.7</ele>
        <time>2022-06-09T14:56:05Z</time>
      </trkpt>
      <trkpt lat="44.85614" lon="4.11715">
        <ele>1138.7</ele>
        <time>2022-06-09T14:56:06Z</time>
      </trkpt>
      <trkpt lat="44.85611" lon="4.11708">
        <ele>1139.1</ele>
        <time>2022-06-09T14:56:08Z</time>
      </trkpt>
      <trkpt lat="44.8561" lon="4.11705">
        <ele>1139.2</ele>
        <time>2022-06-09T14:56:10Z</time>
      </trkpt>
      <trkpt lat="44.85609" lon="4.11701">
        <ele>1139.4</ele>
        <time>2022-06-09T14:56:11Z</time>
      </trkpt>
      <trkpt lat="44.85609" lon="4.11699">
        <ele>1139.5</ele>
        <time>2022-06-09T14:56:12Z</time>
      </trkpt>
      <trkpt lat="44.85609" lon="4.11694">
        <ele>1139.7</ele>
        <time>2022-06-09T14:56:13Z</time>
      </trkpt>
      <trkpt lat="44.85608" lon="4.11691">
        <ele>1139.8</ele>
        <time>2022-06-09T14:56:15Z</time>
      </trkpt>
      <trkpt lat="44.85608" lon="4.11689">
        <ele>1139.9</ele>
        <time>2022-06-09T14:56:16Z</time>
      </trkpt>
      <trkpt lat="44.85608" lon="4.11686">
        <ele>1140</ele>
        <time>2022-06-09T14:56:17Z</time>
      </trkpt>
      <trkpt lat="44.85609" lon="4.11683">
        <ele>1140.1</ele>
        <time>2022-06-09T14:56:19Z</time>
      </trkpt>
      <trkpt lat="44.85609" lon="4.11677">
        <ele>1140.4</ele>
        <time>2022-06-09T14:56:20Z</time>
      </trkpt>
      <trkpt lat="44.8561" lon="4.11675">
        <ele>1140.4</ele>
        <time>2022-06-09T14:56:21Z</time>
      </trkpt>
      <trkpt lat="44.8561" lon="4.11669">
        <ele>1140.7</ele>
        <time>2022-06-09T14:56:23Z</time>
      </trkpt>
      <trkpt lat="44.8561" lon="4.11667">
        <ele>1140.7</ele>
        <time>2022-06-09T14:56:24Z</time>
      </trkpt>
      <trkpt lat="44.8561" lon="4.11666">
        <ele>1140.8</ele>
        <time>2022-06-09T14:56:25Z</time>
      </trkpt>
      <trkpt lat="44.85611" lon="4.11663">
        <ele>1140.9</ele>
        <time>2022-06-09T14:56:26Z</time>
      </trkpt>
      <trkpt lat="44.85612" lon="4.11659">
        <ele>1141.1</ele>
        <time>2022-06-09T14:56:28Z</time>
      </trkpt>
      <trkpt lat="44.85612" lon="4.11654">
        <ele>1141.3</ele>
        <time>2022-06-09T14:56:29Z</time>
      </trkpt>
      <trkpt lat="44.85613" lon="4.11651">
        <ele>1141.4</ele>
        <time>2022-06-09T14:56:30Z</time>
      </trkpt>
      <trkpt lat="44.85613" lon="4.11648">
        <ele>1141.5</ele>
        <time>2022-06-09T14:56:32Z</time>
      </trkpt>
      <trkpt lat="44.85614" lon="4.11643">
        <ele>1141.7</ele>
        <time>2022-06-09T14:56:33Z</time>
      </trkpt>
      <trkpt lat="44.85614" lon="4.11639">
        <ele>1141.9</ele>
        <time>2022-06-09T14:56:35Z</time>
      </trkpt>
      <trkpt lat="44.85614" lon="4.11637">
        <ele>1141.9</ele>
        <time>2022-06-09T14:56:36Z</time>
      </trkpt>
      <trkpt lat="44.85615" lon="4.11634">
        <ele>1142</ele>
        <time>2022-06-09T14:56:38Z</time>
      </trkpt>
      <trkpt lat="44.85615" lon="4.1163">
        <ele>1142.2</ele>
        <time>2022-06-09T14:56:40Z</time>
      </trkpt>
      <trkpt lat="44.85616" lon="4.11626">
        <ele>1142.3</ele>
        <time>2022-06-09T14:56:42Z</time>
      </trkpt>
      <trkpt lat="44.85616" lon="4.11624">
        <ele>1142.4</ele>
        <time>2022-06-09T14:56:43Z</time>
      </trkpt>
      <trkpt lat="44.85616" lon="4.11622">
        <ele>1142.5</ele>
        <time>2022-06-09T14:56:44Z</time>
      </trkpt>
      <trkpt lat="44.85617" lon="4.11618">
        <ele>1142.6</ele>
        <time>2022-06-09T14:56:45Z</time>
      </trkpt>
      <trkpt lat="44.85617" lon="4.11617">
        <ele>1142.7</ele>
        <time>2022-06-09T14:56:46Z</time>
      </trkpt>
      <trkpt lat="44.85618" lon="4.11612">
        <ele>1142.8</ele>
        <time>2022-06-09T14:56:47Z</time>
      </trkpt>
      <trkpt lat="44.85618" lon="4.11611">
        <ele>1142.9</ele>
        <time>2022-06-09T14:56:48Z</time>
      </trkpt>
      <trkpt lat="44.85619" lon="4.11608">
        <ele>1143</ele>
        <time>2022-06-09T14:56:50Z</time>
      </trkpt>
      <trkpt lat="44.85619" lon="4.11606">
        <ele>1143.1</ele>
        <time>2022-06-09T14:56:51Z</time>
      </trkpt>
      <trkpt lat="44.8562" lon="4.11602">
        <ele>1143.2</ele>
        <time>2022-06-09T14:56:52Z</time>
      </trkpt>
      <trkpt lat="44.85622" lon="4.11597">
        <ele>1143.4</ele>
        <time>2022-06-09T14:56:53Z</time>
      </trkpt>
      <trkpt lat="44.85622" lon="4.11596">
        <ele>1143.5</ele>
        <time>2022-06-09T14:56:54Z</time>
      </trkpt>
      <trkpt lat="44.85623" lon="4.11592">
        <ele>1143.7</ele>
        <time>2022-06-09T14:56:55Z</time>
      </trkpt>
      <trkpt lat="44.85623" lon="4.1159">
        <ele>1143.7</ele>
        <time>2022-06-09T14:56:56Z</time>
      </trkpt>
      <trkpt lat="44.85624" lon="4.11584">
        <ele>1144</ele>
        <time>2022-06-09T14:56:58Z</time>
      </trkpt>
      <trkpt lat="44.85625" lon="4.11582">
        <ele>1144.1</ele>
        <time>2022-06-09T14:56:59Z</time>
      </trkpt>
      <trkpt lat="44.85625" lon="4.1158">
        <ele>1144.1</ele>
        <time>2022-06-09T14:57:00Z</time>
      </trkpt>
      <trkpt lat="44.85626" lon="4.11573">
        <ele>1144.4</ele>
        <time>2022-06-09T14:57:01Z</time>
      </trkpt>
      <trkpt lat="44.85626" lon="4.1157">
        <ele>1144.5</ele>
        <time>2022-06-09T14:57:02Z</time>
      </trkpt>
      <trkpt lat="44.85627" lon="4.11565">
        <ele>1144.7</ele>
        <time>2022-06-09T14:57:03Z</time>
      </trkpt>
      <trkpt lat="44.85627" lon="4.11564">
        <ele>1144.8</ele>
        <time>2022-06-09T14:57:04Z</time>
      </trkpt>
      <trkpt lat="44.85627" lon="4.1156">
        <ele>1144.9</ele>
        <time>2022-06-09T14:57:05Z</time>
      </trkpt>
      <trkpt lat="44.85627" lon="4.11557">
        <ele>1145</ele>
        <time>2022-06-09T14:57:07Z</time>
      </trkpt>
      <trkpt lat="44.85627" lon="4.11553">
        <ele>1145.2</ele>
        <time>2022-06-09T14:57:08Z</time>
      </trkpt>
      <trkpt lat="44.85627" lon="4.11551">
        <ele>1145.3</ele>
        <time>2022-06-09T14:57:09Z</time>
      </trkpt>
      <trkpt lat="44.85627" lon="4.11547">
        <ele>1145.4</ele>
        <time>2022-06-09T14:57:10Z</time>
      </trkpt>
      <trkpt lat="44.85627" lon="4.11545">
        <ele>1145.5</ele>
        <time>2022-06-09T14:57:11Z</time>
      </trkpt>
      <trkpt lat="44.85627" lon="4.11541">
        <ele>1145.6</ele>
        <time>2022-06-09T14:57:12Z</time>
      </trkpt>
      <trkpt lat="44.85626" lon="4.1154">
        <ele>1145.7</ele>
        <time>2022-06-09T14:57:13Z</time>
      </trkpt>
      <trkpt lat="44.85626" lon="4.11536">
        <ele>1145.9</ele>
        <time>2022-06-09T14:57:14Z</time>
      </trkpt>
      <trkpt lat="44.85626" lon="4.11535">
        <ele>1145.9</ele>
        <time>2022-06-09T14:57:15Z</time>
      </trkpt>
      <trkpt lat="44.85624" lon="4.1153">
        <ele>1146.1</ele>
        <time>2022-06-09T14:57:16Z</time>
      </trkpt>
      <trkpt lat="44.85624" lon="4.11528">
        <ele>1146.2</ele>
        <time>2022-06-09T14:57:17Z</time>
      </trkpt>
      <trkpt lat="44.85623" lon="4.11525">
        <ele>1146.3</ele>
        <time>2022-06-09T14:57:18Z</time>
      </trkpt>
      <trkpt lat="44.85622" lon="4.11522">
        <ele>1146.4</ele>
        <time>2022-06-09T14:57:20Z</time>
      </trkpt>
      <trkpt lat="44.85622" lon="4.11519">
        <ele>1146.5</ele>
        <time>2022-06-09T14:57:21Z</time>
      </trkpt>
      <trkpt lat="44.85622" lon="4.11517">
        <ele>1146.6</ele>
        <time>2022-06-09T14:57:22Z</time>
      </trkpt>
      <trkpt lat="44.85621" lon="4.11513">
        <ele>1146.8</ele>
        <time>2022-06-09T14:57:23Z</time>
      </trkpt>
      <trkpt lat="44.8562" lon="4.11511">
        <ele>1146.9</ele>
        <time>2022-06-09T14:57:24Z</time>
      </trkpt>
      <trkpt lat="44.85619" lon="4.11507">
        <ele>1147</ele>
        <time>2022-06-09T14:57:25Z</time>
      </trkpt>
      <trkpt lat="44.85619" lon="4.11506">
        <ele>1147.1</ele>
        <time>2022-06-09T14:57:26Z</time>
      </trkpt>
      <trkpt lat="44.85619" lon="4.11501">
        <ele>1147.3</ele>
        <time>2022-06-09T14:57:27Z</time>
      </trkpt>
      <trkpt lat="44.85618" lon="4.11499">
        <ele>1147.4</ele>
        <time>2022-06-09T14:57:29Z</time>
      </trkpt>
      <trkpt lat="44.85617" lon="4.11497">
        <ele>1147.4</ele>
        <time>2022-06-09T14:57:30Z</time>
      </trkpt>
      <trkpt lat="44.85617" lon="4.11491">
        <ele>1147.7</ele>
        <time>2022-06-09T14:57:31Z</time>
      </trkpt>
      <trkpt lat="44.85617" lon="4.11489">
        <ele>1147.7</ele>
        <time>2022-06-09T14:57:32Z</time>
      </trkpt>
      <trkpt lat="44.85618" lon="4.11485">
        <ele>1147.9</ele>
        <time>2022-06-09T14:57:33Z</time>
      </trkpt>
      <trkpt lat="44.85618" lon="4.11483">
        <ele>1148</ele>
        <time>2022-06-09T14:57:34Z</time>
      </trkpt>
      <trkpt lat="44.85618" lon="4.1148">
        <ele>1148.1</ele>
        <time>2022-06-09T14:57:35Z</time>
      </trkpt>
      <trkpt lat="44.85618" lon="4.11477">
        <ele>1148.2</ele>
        <time>2022-06-09T14:57:37Z</time>
      </trkpt>
      <trkpt lat="44.85618" lon="4.11475">
        <ele>1148.3</ele>
        <time>2022-06-09T14:57:38Z</time>
      </trkpt>
      <trkpt lat="44.85618" lon="4.11472">
        <ele>1148.4</ele>
        <time>2022-06-09T14:57:39Z</time>
      </trkpt>
      <trkpt lat="44.85618" lon="4.11468">
        <ele>1148.5</ele>
        <time>2022-06-09T14:57:40Z</time>
      </trkpt>
      <trkpt lat="44.85617" lon="4.11467">
        <ele>1148.6</ele>
        <time>2022-06-09T14:57:41Z</time>
      </trkpt>
      <trkpt lat="44.85617" lon="4.11463">
        <ele>1148.7</ele>
        <time>2022-06-09T14:57:42Z</time>
      </trkpt>
      <trkpt lat="44.85618" lon="4.11459">
        <ele>1148.9</ele>
        <time>2022-06-09T14:57:43Z</time>
      </trkpt>
      <trkpt lat="44.85617" lon="4.11456">
        <ele>1149</ele>
        <time>2022-06-09T14:57:45Z</time>
      </trkpt>
      <trkpt lat="44.85616" lon="4.11452">
        <ele>1149.2</ele>
        <time>2022-06-09T14:57:46Z</time>
      </trkpt>
      <trkpt lat="44.85616" lon="4.1145">
        <ele>1149.2</ele>
        <time>2022-06-09T14:57:47Z</time>
      </trkpt>
      <trkpt lat="44.85615" lon="4.11444">
        <ele>1149.5</ele>
        <time>2022-06-09T14:57:49Z</time>
      </trkpt>
      <trkpt lat="44.85615" lon="4.11442">
        <ele>1149.6</ele>
        <time>2022-06-09T14:57:50Z</time>
      </trkpt>
      <trkpt lat="44.85615" lon="4.1144">
        <ele>1149.6</ele>
        <time>2022-06-09T14:57:51Z</time>
      </trkpt>
      <trkpt lat="44.85614" lon="4.11436">
        <ele>1149.8</ele>
        <time>2022-06-09T14:57:52Z</time>
      </trkpt>
      <trkpt lat="44.85613" lon="4.11434">
        <ele>1149.9</ele>
        <time>2022-06-09T14:57:53Z</time>
      </trkpt>
      <trkpt lat="44.85613" lon="4.1143">
        <ele>1150.1</ele>
        <time>2022-06-09T14:57:54Z</time>
      </trkpt>
      <trkpt lat="44.85613" lon="4.11428">
        <ele>1150.1</ele>
        <time>2022-06-09T14:57:55Z</time>
      </trkpt>
      <trkpt lat="44.85612" lon="4.11422">
        <ele>1150.4</ele>
        <time>2022-06-09T14:57:56Z</time>
      </trkpt>
      <trkpt lat="44.8561" lon="4.1142">
        <ele>1150.5</ele>
        <time>2022-06-09T14:57:57Z</time>
      </trkpt>
      <trkpt lat="44.8561" lon="4.11417">
        <ele>1150.6</ele>
        <time>2022-06-09T14:57:59Z</time>
      </trkpt>
      <trkpt lat="44.85609" lon="4.11412">
        <ele>1150.8</ele>
        <time>2022-06-09T14:58:00Z</time>
      </trkpt>
      <trkpt lat="44.85609" lon="4.11411">
        <ele>1150.9</ele>
        <time>2022-06-09T14:58:01Z</time>
      </trkpt>
      <trkpt lat="44.85607" lon="4.11406">
        <ele>1151.1</ele>
        <time>2022-06-09T14:58:02Z</time>
      </trkpt>
      <trkpt lat="44.85606" lon="4.11404">
        <ele>1151.2</ele>
        <time>2022-06-09T14:58:03Z</time>
      </trkpt>
      <trkpt lat="44.85605" lon="4.11399">
        <ele>1151.4</ele>
        <time>2022-06-09T14:58:04Z</time>
      </trkpt>
      <trkpt lat="44.85605" lon="4.11398">
        <ele>1151.4</ele>
        <time>2022-06-09T14:58:05Z</time>
      </trkpt>
      <trkpt lat="44.85604" lon="4.11394">
        <ele>1151.6</ele>
        <time>2022-06-09T14:58:06Z</time>
      </trkpt>
      <trkpt lat="44.85604" lon="4.11391">
        <ele>1151.7</ele>
        <time>2022-06-09T14:58:08Z</time>
      </trkpt>
      <trkpt lat="44.85602" lon="4.11387">
        <ele>1151.9</ele>
        <time>2022-06-09T14:58:09Z</time>
      </trkpt>
      <trkpt lat="44.856" lon="4.11384">
        <ele>1152</ele>
        <time>2022-06-09T14:58:10Z</time>
      </trkpt>
      <trkpt lat="44.85599" lon="4.11382">
        <ele>1152.2</ele>
        <time>2022-06-09T14:58:11Z</time>
      </trkpt>
      <trkpt lat="44.85598" lon="4.11379">
        <ele>1152.3</ele>
        <time>2022-06-09T14:58:13Z</time>
      </trkpt>
      <trkpt lat="44.85597" lon="4.11376">
        <ele>1152.5</ele>
        <time>2022-06-09T14:58:14Z</time>
      </trkpt>
      <trkpt lat="44.85593" lon="4.11373">
        <ele>1152.7</ele>
        <time>2022-06-09T14:58:15Z</time>
      </trkpt>
      <trkpt lat="44.85593" lon="4.11372">
        <ele>1152.8</ele>
        <time>2022-06-09T14:58:16Z</time>
      </trkpt>
      <trkpt lat="44.85589" lon="4.11371">
        <ele>1153</ele>
        <time>2022-06-09T14:58:18Z</time>
      </trkpt>
      <trkpt lat="44.85588" lon="4.1137">
        <ele>1153</ele>
        <time>2022-06-09T14:58:19Z</time>
      </trkpt>
      <trkpt lat="44.85585" lon="4.11369">
        <ele>1153.2</ele>
        <time>2022-06-09T14:58:20Z</time>
      </trkpt>
      <trkpt lat="44.8558" lon="4.11369">
        <ele>1153.5</ele>
        <time>2022-06-09T14:58:22Z</time>
      </trkpt>
      <trkpt lat="44.85579" lon="4.11369">
        <ele>1153.6</ele>
        <time>2022-06-09T14:58:23Z</time>
      </trkpt>
      <trkpt lat="44.85577" lon="4.11368">
        <ele>1153.8</ele>
        <time>2022-06-09T14:58:24Z</time>
      </trkpt>
      <trkpt lat="44.85573" lon="4.1137">
        <ele>1154</ele>
        <time>2022-06-09T14:58:26Z</time>
      </trkpt>
      <trkpt lat="44.85572" lon="4.11371">
        <ele>1154.1</ele>
        <time>2022-06-09T14:58:27Z</time>
      </trkpt>
      <trkpt lat="44.85569" lon="4.11372">
        <ele>1154.2</ele>
        <time>2022-06-09T14:58:29Z</time>
      </trkpt>
      <trkpt lat="44.85566" lon="4.11373">
        <ele>1154.5</ele>
        <time>2022-06-09T14:58:30Z</time>
      </trkpt>
      <trkpt lat="44.85563" lon="4.11374">
        <ele>1154.6</ele>
        <time>2022-06-09T14:58:32Z</time>
      </trkpt>
      <trkpt lat="44.85562" lon="4.11375">
        <ele>1154.7</ele>
        <time>2022-06-09T14:58:33Z</time>
      </trkpt>
      <trkpt lat="44.8556" lon="4.11376">
        <ele>1154.8</ele>
        <time>2022-06-09T14:58:34Z</time>
      </trkpt>
      <trkpt lat="44.85559" lon="4.11377">
        <ele>1154.9</ele>
        <time>2022-06-09T14:58:35Z</time>
      </trkpt>
      <trkpt lat="44.85556" lon="4.11379">
        <ele>1155.1</ele>
        <time>2022-06-09T14:58:36Z</time>
      </trkpt>
      <trkpt lat="44.85552" lon="4.11381">
        <ele>1155.4</ele>
        <time>2022-06-09T14:58:38Z</time>
      </trkpt>
      <trkpt lat="44.85549" lon="4.11381">
        <ele>1155.5</ele>
        <time>2022-06-09T14:58:39Z</time>
      </trkpt>
      <trkpt lat="44.85547" lon="4.11382">
        <ele>1155.6</ele>
        <time>2022-06-09T14:58:41Z</time>
      </trkpt>
      <trkpt lat="44.85545" lon="4.11384">
        <ele>1155.8</ele>
        <time>2022-06-09T14:58:42Z</time>
      </trkpt>
      <trkpt lat="44.85544" lon="4.11385">
        <ele>1155.8</ele>
        <time>2022-06-09T14:58:43Z</time>
      </trkpt>
      <trkpt lat="44.85541" lon="4.11387">
        <ele>1156</ele>
        <time>2022-06-09T14:58:44Z</time>
      </trkpt>
      <trkpt lat="44.85538" lon="4.11389">
        <ele>1156.2</ele>
        <time>2022-06-09T14:58:45Z</time>
      </trkpt>
      <trkpt lat="44.85534" lon="4.11392">
        <ele>1156.5</ele>
        <time>2022-06-09T14:58:47Z</time>
      </trkpt>
      <trkpt lat="44.85532" lon="4.11393">
        <ele>1156.5</ele>
        <time>2022-06-09T14:58:48Z</time>
      </trkpt>
      <trkpt lat="44.85531" lon="4.11394">
        <ele>1156.6</ele>
        <time>2022-06-09T14:58:49Z</time>
      </trkpt>
      <trkpt lat="44.85528" lon="4.11396">
        <ele>1156.8</ele>
        <time>2022-06-09T14:58:50Z</time>
      </trkpt>
      <trkpt lat="44.85527" lon="4.11396">
        <ele>1156.9</ele>
        <time>2022-06-09T14:58:51Z</time>
      </trkpt>
      <trkpt lat="44.85524" lon="4.11398">
        <ele>1157</ele>
        <time>2022-06-09T14:58:52Z</time>
      </trkpt>
      <trkpt lat="44.85523" lon="4.11398">
        <ele>1157.1</ele>
        <time>2022-06-09T14:58:53Z</time>
      </trkpt>
      <trkpt lat="44.8552" lon="4.11401">
        <ele>1157.2</ele>
        <time>2022-06-09T14:58:54Z</time>
      </trkpt>
      <trkpt lat="44.85519" lon="4.11401">
        <ele>1157.3</ele>
        <time>2022-06-09T14:58:55Z</time>
      </trkpt>
      <trkpt lat="44.85516" lon="4.11403">
        <ele>1157.5</ele>
        <time>2022-06-09T14:58:56Z</time>
      </trkpt>
      <trkpt lat="44.85515" lon="4.11403">
        <ele>1157.6</ele>
        <time>2022-06-09T14:58:57Z</time>
      </trkpt>
      <trkpt lat="44.85512" lon="4.11405">
        <ele>1157.7</ele>
        <time>2022-06-09T14:58:58Z</time>
      </trkpt>
      <trkpt lat="44.85512" lon="4.11406">
        <ele>1157.8</ele>
        <time>2022-06-09T14:58:59Z</time>
      </trkpt>
      <trkpt lat="44.85508" lon="4.11408">
        <ele>1158</ele>
        <time>2022-06-09T14:59:00Z</time>
      </trkpt>
      <trkpt lat="44.85507" lon="4.11409">
        <ele>1158.1</ele>
        <time>2022-06-09T14:59:01Z</time>
      </trkpt>
      <trkpt lat="44.85504" lon="4.11411">
        <ele>1158.3</ele>
        <time>2022-06-09T14:59:02Z</time>
      </trkpt>
      <trkpt lat="44.85502" lon="4.11412">
        <ele>1158.3</ele>
        <time>2022-06-09T14:59:03Z</time>
      </trkpt>
      <trkpt lat="44.85498" lon="4.11414">
        <ele>1158.6</ele>
        <time>2022-06-09T14:59:05Z</time>
      </trkpt>
      <trkpt lat="44.85496" lon="4.11415">
        <ele>1158.7</ele>
        <time>2022-06-09T14:59:06Z</time>
      </trkpt>
      <trkpt lat="44.85495" lon="4.11416">
        <ele>1158.8</ele>
        <time>2022-06-09T14:59:07Z</time>
      </trkpt>
      <trkpt lat="44.85491" lon="4.11417">
        <ele>1159</ele>
        <time>2022-06-09T14:59:08Z</time>
      </trkpt>
      <trkpt lat="44.85487" lon="4.1142">
        <ele>1159.2</ele>
        <time>2022-06-09T14:59:10Z</time>
      </trkpt>
      <trkpt lat="44.85483" lon="4.11423">
        <ele>1159.5</ele>
        <time>2022-06-09T14:59:12Z</time>
      </trkpt>
      <trkpt lat="44.85481" lon="4.11425">
        <ele>1159.6</ele>
        <time>2022-06-09T14:59:13Z</time>
      </trkpt>
      <trkpt lat="44.85479" lon="4.11426">
        <ele>1159.7</ele>
        <time>2022-06-09T14:59:15Z</time>
      </trkpt>
      <trkpt lat="44.85475" lon="4.11427">
        <ele>1159.9</ele>
        <time>2022-06-09T14:59:16Z</time>
      </trkpt>
      <trkpt lat="44.85474" lon="4.11428">
        <ele>1160</ele>
        <time>2022-06-09T14:59:17Z</time>
      </trkpt>
      <trkpt lat="44.85471" lon="4.1143">
        <ele>1160.2</ele>
        <time>2022-06-09T14:59:18Z</time>
      </trkpt>
      <trkpt lat="44.85468" lon="4.11432">
        <ele>1160.4</ele>
        <time>2022-06-09T14:59:19Z</time>
      </trkpt>
      <trkpt lat="44.85467" lon="4.11433">
        <ele>1160.4</ele>
        <time>2022-06-09T14:59:20Z</time>
      </trkpt>
      <trkpt lat="44.85464" lon="4.11434">
        <ele>1160.5</ele>
        <time>2022-06-09T14:59:21Z</time>
      </trkpt>
      <trkpt lat="44.85462" lon="4.11435">
        <ele>1160.7</ele>
        <time>2022-06-09T14:59:23Z</time>
      </trkpt>
      <trkpt lat="44.85458" lon="4.11436">
        <ele>1160.8</ele>
        <time>2022-06-09T14:59:24Z</time>
      </trkpt>
      <trkpt lat="44.85457" lon="4.11436">
        <ele>1160.9</ele>
        <time>2022-06-09T14:59:25Z</time>
      </trkpt>
      <trkpt lat="44.85454" lon="4.11439">
        <ele>1161.1</ele>
        <time>2022-06-09T14:59:26Z</time>
      </trkpt>
      <trkpt lat="44.85452" lon="4.1144">
        <ele>1161.2</ele>
        <time>2022-06-09T14:59:27Z</time>
      </trkpt>
      <trkpt lat="44.85449" lon="4.11441">
        <ele>1161.3</ele>
        <time>2022-06-09T14:59:28Z</time>
      </trkpt>
      <trkpt lat="44.85445" lon="4.11443">
        <ele>1161.5</ele>
        <time>2022-06-09T14:59:29Z</time>
      </trkpt>
      <trkpt lat="44.85444" lon="4.11444">
        <ele>1161.6</ele>
        <time>2022-06-09T14:59:30Z</time>
      </trkpt>
      <trkpt lat="44.85439" lon="4.11445">
        <ele>1161.9</ele>
        <time>2022-06-09T14:59:32Z</time>
      </trkpt>
      <trkpt lat="44.85435" lon="4.11446">
        <ele>1162.1</ele>
        <time>2022-06-09T14:59:34Z</time>
      </trkpt>
      <trkpt lat="44.85433" lon="4.11446">
        <ele>1162.2</ele>
        <time>2022-06-09T14:59:35Z</time>
      </trkpt>
      <trkpt lat="44.8543" lon="4.11448">
        <ele>1162.4</ele>
        <time>2022-06-09T14:59:36Z</time>
      </trkpt>
      <trkpt lat="44.85428" lon="4.11449">
        <ele>1162.5</ele>
        <time>2022-06-09T14:59:37Z</time>
      </trkpt>
      <trkpt lat="44.85425" lon="4.11449">
        <ele>1162.7</ele>
        <time>2022-06-09T14:59:39Z</time>
      </trkpt>
      <trkpt lat="44.85421" lon="4.11449">
        <ele>1162.9</ele>
        <time>2022-06-09T14:59:40Z</time>
      </trkpt>
      <trkpt lat="44.8542" lon="4.11449">
        <ele>1163</ele>
        <time>2022-06-09T14:59:41Z</time>
      </trkpt>
      <trkpt lat="44.85416" lon="4.11449">
        <ele>1163.2</ele>
        <time>2022-06-09T14:59:42Z</time>
      </trkpt>
      <trkpt lat="44.85415" lon="4.11449">
        <ele>1163.3</ele>
        <time>2022-06-09T14:59:43Z</time>
      </trkpt>
      <trkpt lat="44.85412" lon="4.11449">
        <ele>1163.5</ele>
        <time>2022-06-09T14:59:44Z</time>
      </trkpt>
      <trkpt lat="44.85411" lon="4.11448">
        <ele>1163.5</ele>
        <time>2022-06-09T14:59:45Z</time>
      </trkpt>
      <trkpt lat="44.85408" lon="4.11447">
        <ele>1163.7</ele>
        <time>2022-06-09T14:59:46Z</time>
      </trkpt>
      <trkpt lat="44.85406" lon="4.11447">
        <ele>1163.7</ele>
        <time>2022-06-09T14:59:47Z</time>
      </trkpt>
      <trkpt lat="44.85403" lon="4.11447">
        <ele>1163.9</ele>
        <time>2022-06-09T14:59:48Z</time>
      </trkpt>
      <trkpt lat="44.85403" lon="4.11447">
        <ele>1163.9</ele>
        <time>2022-06-09T14:59:49Z</time>
      </trkpt>
      <trkpt lat="44.85399" lon="4.11446">
        <ele>1164.1</ele>
        <time>2022-06-09T14:59:50Z</time>
      </trkpt>
      <trkpt lat="44.85396" lon="4.11447">
        <ele>1164.3</ele>
        <time>2022-06-09T14:59:52Z</time>
      </trkpt>
      <trkpt lat="44.85394" lon="4.11447">
        <ele>1164.4</ele>
        <time>2022-06-09T14:59:53Z</time>
      </trkpt>
      <trkpt lat="44.85391" lon="4.11445">
        <ele>1164.6</ele>
        <time>2022-06-09T14:59:54Z</time>
      </trkpt>
      <trkpt lat="44.8539" lon="4.11445">
        <ele>1164.6</ele>
        <time>2022-06-09T14:59:55Z</time>
      </trkpt>
      <trkpt lat="44.85387" lon="4.11445">
        <ele>1164.8</ele>
        <time>2022-06-09T14:59:56Z</time>
      </trkpt>
      <trkpt lat="44.85386" lon="4.11445">
        <ele>1164.9</ele>
        <time>2022-06-09T14:59:57Z</time>
      </trkpt>
      <trkpt lat="44.85383" lon="4.11445">
        <ele>1165</ele>
        <time>2022-06-09T14:59:58Z</time>
      </trkpt>
      <trkpt lat="44.85382" lon="4.11444">
        <ele>1165.1</ele>
        <time>2022-06-09T14:59:59Z</time>
      </trkpt>
      <trkpt lat="44.85379" lon="4.11443">
        <ele>1165.3</ele>
        <time>2022-06-09T15:00:00Z</time>
      </trkpt>
      <trkpt lat="44.85378" lon="4.11443">
        <ele>1165.3</ele>
        <time>2022-06-09T15:00:01Z</time>
      </trkpt>
      <trkpt lat="44.85375" lon="4.11443">
        <ele>1165.5</ele>
        <time>2022-06-09T15:00:02Z</time>
      </trkpt>
      <trkpt lat="44.85374" lon="4.11443">
        <ele>1165.6</ele>
        <time>2022-06-09T15:00:03Z</time>
      </trkpt>
      <trkpt lat="44.85371" lon="4.11443">
        <ele>1165.7</ele>
        <time>2022-06-09T15:00:04Z</time>
      </trkpt>
      <trkpt lat="44.8537" lon="4.11443">
        <ele>1165.8</ele>
        <time>2022-06-09T15:00:05Z</time>
      </trkpt>
      <trkpt lat="44.85366" lon="4.11442">
        <ele>1166</ele>
        <time>2022-06-09T15:00:06Z</time>
      </trkpt>
      <trkpt lat="44.85365" lon="4.11442">
        <ele>1166</ele>
        <time>2022-06-09T15:00:07Z</time>
      </trkpt>
      <trkpt lat="44.85362" lon="4.11443">
        <ele>1166.2</ele>
        <time>2022-06-09T15:00:08Z</time>
      </trkpt>
      <trkpt lat="44.85361" lon="4.11443">
        <ele>1166.3</ele>
        <time>2022-06-09T15:00:09Z</time>
      </trkpt>
      <trkpt lat="44.85358" lon="4.11444">
        <ele>1166.4</ele>
        <time>2022-06-09T15:00:10Z</time>
      </trkpt>
      <trkpt lat="44.85355" lon="4.11444">
        <ele>1166.6</ele>
        <time>2022-06-09T15:00:11Z</time>
      </trkpt>
      <trkpt lat="44.85354" lon="4.11445">
        <ele>1166.6</ele>
        <time>2022-06-09T15:00:12Z</time>
      </trkpt>
      <trkpt lat="44.85351" lon="4.11446">
        <ele>1166.8</ele>
        <time>2022-06-09T15:00:13Z</time>
      </trkpt>
      <trkpt lat="44.85348" lon="4.11447">
        <ele>1166.9</ele>
        <time>2022-06-09T15:00:14Z</time>
      </trkpt>
      <trkpt lat="44.85346" lon="4.11448">
        <ele>1167.1</ele>
        <time>2022-06-09T15:00:15Z</time>
      </trkpt>
      <trkpt lat="44.85344" lon="4.11449">
        <ele>1167.2</ele>
        <time>2022-06-09T15:00:17Z</time>
      </trkpt>
      <trkpt lat="44.85341" lon="4.11451">
        <ele>1167.4</ele>
        <time>2022-06-09T15:00:18Z</time>
      </trkpt>
      <trkpt lat="44.85338" lon="4.11452">
        <ele>1167.5</ele>
        <time>2022-06-09T15:00:19Z</time>
      </trkpt>
      <trkpt lat="44.85335" lon="4.11454">
        <ele>1167.7</ele>
        <time>2022-06-09T15:00:20Z</time>
      </trkpt>
      <trkpt lat="44.85334" lon="4.11455">
        <ele>1167.8</ele>
        <time>2022-06-09T15:00:21Z</time>
      </trkpt>
      <trkpt lat="44.8533" lon="4.11457">
        <ele>1168</ele>
        <time>2022-06-09T15:00:23Z</time>
      </trkpt>
      <trkpt lat="44.85329" lon="4.11458">
        <ele>1168.1</ele>
        <time>2022-06-09T15:00:24Z</time>
      </trkpt>
      <trkpt lat="44.85325" lon="4.11461">
        <ele>1168.3</ele>
        <time>2022-06-09T15:00:25Z</time>
      </trkpt>
      <trkpt lat="44.85324" lon="4.11462">
        <ele>1168.3</ele>
        <time>2022-06-09T15:00:26Z</time>
      </trkpt>
      <trkpt lat="44.85321" lon="4.11463">
        <ele>1168.5</ele>
        <time>2022-06-09T15:00:27Z</time>
      </trkpt>
      <trkpt lat="44.8532" lon="4.11464">
        <ele>1168.6</ele>
        <time>2022-06-09T15:00:28Z</time>
      </trkpt>
      <trkpt lat="44.85317" lon="4.11466">
        <ele>1168.7</ele>
        <time>2022-06-09T15:00:30Z</time>
      </trkpt>
      <trkpt lat="44.85313" lon="4.11468">
        <ele>1168.9</ele>
        <time>2022-06-09T15:00:31Z</time>
      </trkpt>
      <trkpt lat="44.85309" lon="4.11471">
        <ele>1169.2</ele>
        <time>2022-06-09T15:00:33Z</time>
      </trkpt>
      <trkpt lat="44.85305" lon="4.11473">
        <ele>1169.4</ele>
        <time>2022-06-09T15:00:35Z</time>
      </trkpt>
      <trkpt lat="44.85304" lon="4.11474">
        <ele>1169.5</ele>
        <time>2022-06-09T15:00:36Z</time>
      </trkpt>
      <trkpt lat="44.85301" lon="4.11476">
        <ele>1169.6</ele>
        <time>2022-06-09T15:00:37Z</time>
      </trkpt>
      <trkpt lat="44.85298" lon="4.11477">
        <ele>1169.8</ele>
        <time>2022-06-09T15:00:38Z</time>
      </trkpt>
      <trkpt lat="44.85295" lon="4.11479">
        <ele>1170</ele>
        <time>2022-06-09T15:00:40Z</time>
      </trkpt>
      <trkpt lat="44.85292" lon="4.11481">
        <ele>1170.2</ele>
        <time>2022-06-09T15:00:41Z</time>
      </trkpt>
      <trkpt lat="44.85289" lon="4.11483">
        <ele>1170.4</ele>
        <time>2022-06-09T15:00:42Z</time>
      </trkpt>
      <trkpt lat="44.85288" lon="4.11484">
        <ele>1170.4</ele>
        <time>2022-06-09T15:00:43Z</time>
      </trkpt>
      <trkpt lat="44.85285" lon="4.11485">
        <ele>1170.6</ele>
        <time>2022-06-09T15:00:44Z</time>
      </trkpt>
      <trkpt lat="44.85283" lon="4.11486">
        <ele>1170.7</ele>
        <time>2022-06-09T15:00:46Z</time>
      </trkpt>
      <trkpt lat="44.8528" lon="4.11487">
        <ele>1170.9</ele>
        <time>2022-06-09T15:00:47Z</time>
      </trkpt>
      <trkpt lat="44.85278" lon="4.11487">
        <ele>1171</ele>
        <time>2022-06-09T15:00:48Z</time>
      </trkpt>
      <trkpt lat="44.85275" lon="4.11489">
        <ele>1171.2</ele>
        <time>2022-06-09T15:00:49Z</time>
      </trkpt>
      <trkpt lat="44.85274" lon="4.1149">
        <ele>1171.3</ele>
        <time>2022-06-09T15:00:50Z</time>
      </trkpt>
      <trkpt lat="44.85271" lon="4.11492">
        <ele>1171.4</ele>
        <time>2022-06-09T15:00:51Z</time>
      </trkpt>
      <trkpt lat="44.85268" lon="4.11493">
        <ele>1171.6</ele>
        <time>2022-06-09T15:00:53Z</time>
      </trkpt>
      <trkpt lat="44.85265" lon="4.11495">
        <ele>1171.8</ele>
        <time>2022-06-09T15:00:54Z</time>
      </trkpt>
      <trkpt lat="44.85264" lon="4.11496">
        <ele>1171.9</ele>
        <time>2022-06-09T15:00:55Z</time>
      </trkpt>
      <trkpt lat="44.8526" lon="4.11497">
        <ele>1172.1</ele>
        <time>2022-06-09T15:00:56Z</time>
      </trkpt>
      <trkpt lat="44.85259" lon="4.11498">
        <ele>1172.2</ele>
        <time>2022-06-09T15:00:57Z</time>
      </trkpt>
      <trkpt lat="44.85256" lon="4.11499">
        <ele>1172.4</ele>
        <time>2022-06-09T15:00:58Z</time>
      </trkpt>
      <trkpt lat="44.85252" lon="4.11501">
        <ele>1172.6</ele>
        <time>2022-06-09T15:01:00Z</time>
      </trkpt>
      <trkpt lat="44.8525" lon="4.11504">
        <ele>1172.8</ele>
        <time>2022-06-09T15:01:02Z</time>
      </trkpt>
      <trkpt lat="44.85247" lon="4.11507">
        <ele>1173</ele>
        <time>2022-06-09T15:01:03Z</time>
      </trkpt>
      <trkpt lat="44.85244" lon="4.11508">
        <ele>1173.1</ele>
        <time>2022-06-09T15:01:05Z</time>
      </trkpt>
      <trkpt lat="44.85241" lon="4.11511">
        <ele>1173.3</ele>
        <time>2022-06-09T15:01:06Z</time>
      </trkpt>
      <trkpt lat="44.85239" lon="4.11512">
        <ele>1173.5</ele>
        <time>2022-06-09T15:01:07Z</time>
      </trkpt>
      <trkpt lat="44.85236" lon="4.11515">
        <ele>1173.7</ele>
        <time>2022-06-09T15:01:08Z</time>
      </trkpt>
      <trkpt lat="44.85234" lon="4.11518">
        <ele>1173.8</ele>
        <time>2022-06-09T15:01:09Z</time>
      </trkpt>
      <trkpt lat="44.85232" lon="4.11521">
        <ele>1174</ele>
        <time>2022-06-09T15:01:11Z</time>
      </trkpt>
      <trkpt lat="44.85229" lon="4.11525">
        <ele>1174.2</ele>
        <time>2022-06-09T15:01:12Z</time>
      </trkpt>
      <trkpt lat="44.85227" lon="4.11528">
        <ele>1174.4</ele>
        <time>2022-06-09T15:01:13Z</time>
      </trkpt>
      <trkpt lat="44.85224" lon="4.11533">
        <ele>1174.6</ele>
        <time>2022-06-09T15:01:14Z</time>
      </trkpt>
      <trkpt lat="44.85223" lon="4.11535">
        <ele>1174.7</ele>
        <time>2022-06-09T15:01:15Z</time>
      </trkpt>
      <trkpt lat="44.85221" lon="4.11537">
        <ele>1174.9</ele>
        <time>2022-06-09T15:01:17Z</time>
      </trkpt>
      <trkpt lat="44.85219" lon="4.11541">
        <ele>1175</ele>
        <time>2022-06-09T15:01:18Z</time>
      </trkpt>
      <trkpt lat="44.85218" lon="4.11545">
        <ele>1175.2</ele>
        <time>2022-06-09T15:01:19Z</time>
      </trkpt>
      <trkpt lat="44.85216" lon="4.1155">
        <ele>1175.4</ele>
        <time>2022-06-09T15:01:20Z</time>
      </trkpt>
      <trkpt lat="44.85215" lon="4.11552">
        <ele>1175.5</ele>
        <time>2022-06-09T15:01:21Z</time>
      </trkpt>
      <trkpt lat="44.85213" lon="4.11557">
        <ele>1175.7</ele>
        <time>2022-06-09T15:01:23Z</time>
      </trkpt>
      <trkpt lat="44.85212" lon="4.11559">
        <ele>1175.8</ele>
        <time>2022-06-09T15:01:24Z</time>
      </trkpt>
      <trkpt lat="44.85212" lon="4.11561">
        <ele>1175.9</ele>
        <time>2022-06-09T15:01:25Z</time>
      </trkpt>
      <trkpt lat="44.8521" lon="4.11564">
        <ele>1176</ele>
        <time>2022-06-09T15:01:26Z</time>
      </trkpt>
      <trkpt lat="44.85208" lon="4.11571">
        <ele>1176.3</ele>
        <time>2022-06-09T15:01:28Z</time>
      </trkpt>
      <trkpt lat="44.85207" lon="4.11576">
        <ele>1176.5</ele>
        <time>2022-06-09T15:01:29Z</time>
      </trkpt>
      <trkpt lat="44.85206" lon="4.11578">
        <ele>1176.5</ele>
        <time>2022-06-09T15:01:30Z</time>
      </trkpt>
      <trkpt lat="44.85203" lon="4.11584">
        <ele>1176.8</ele>
        <time>2022-06-09T15:01:31Z</time>
      </trkpt>
      <trkpt lat="44.85202" lon="4.11587">
        <ele>1176.9</ele>
        <time>2022-06-09T15:01:32Z</time>
      </trkpt>
      <trkpt lat="44.852" lon="4.1159">
        <ele>1177.1</ele>
        <time>2022-06-09T15:01:34Z</time>
      </trkpt>
      <trkpt lat="44.85198" lon="4.11595">
        <ele>1177.2</ele>
        <time>2022-06-09T15:01:35Z</time>
      </trkpt>
      <trkpt lat="44.85197" lon="4.11597">
        <ele>1177.3</ele>
        <time>2022-06-09T15:01:36Z</time>
      </trkpt>
      <trkpt lat="44.85195" lon="4.11601">
        <ele>1177.5</ele>
        <time>2022-06-09T15:01:37Z</time>
      </trkpt>
      <trkpt lat="44.85194" lon="4.11602">
        <ele>1177.6</ele>
        <time>2022-06-09T15:01:38Z</time>
      </trkpt>
      <trkpt lat="44.85192" lon="4.11605">
        <ele>1177.7</ele>
        <time>2022-06-09T15:01:39Z</time>
      </trkpt>
      <trkpt lat="44.85189" lon="4.11608">
        <ele>1177.9</ele>
        <time>2022-06-09T15:01:40Z</time>
      </trkpt>
      <trkpt lat="44.85188" lon="4.1161">
        <ele>1177.9</ele>
        <time>2022-06-09T15:01:41Z</time>
      </trkpt>
      <trkpt lat="44.85185" lon="4.11613">
        <ele>1178.1</ele>
        <time>2022-06-09T15:01:42Z</time>
      </trkpt>
      <trkpt lat="44.85184" lon="4.11614">
        <ele>1178.2</ele>
        <time>2022-06-09T15:01:43Z</time>
      </trkpt>
      <trkpt lat="44.85181" lon="4.11618">
        <ele>1178.4</ele>
        <time>2022-06-09T15:01:44Z</time>
      </trkpt>
      <trkpt lat="44.85178" lon="4.11621">
        <ele>1178.5</ele>
        <time>2022-06-09T15:01:45Z</time>
      </trkpt>
      <trkpt lat="44.85176" lon="4.11624">
        <ele>1178.7</ele>
        <time>2022-06-09T15:01:47Z</time>
      </trkpt>
      <trkpt lat="44.85173" lon="4.11626">
        <ele>1178.8</ele>
        <time>2022-06-09T15:01:48Z</time>
      </trkpt>
      <trkpt lat="44.85171" lon="4.1163">
        <ele>1179</ele>
        <time>2022-06-09T15:01:49Z</time>
      </trkpt>
      <trkpt lat="44.8517" lon="4.11631">
        <ele>1179.1</ele>
        <time>2022-06-09T15:01:50Z</time>
      </trkpt>
      <trkpt lat="44.85165" lon="4.11635">
        <ele>1179.3</ele>
        <time>2022-06-09T15:01:52Z</time>
      </trkpt>
      <trkpt lat="44.85163" lon="4.11636">
        <ele>1179.4</ele>
        <time>2022-06-09T15:01:53Z</time>
      </trkpt>
      <trkpt lat="44.85161" lon="4.11638">
        <ele>1179.5</ele>
        <time>2022-06-09T15:01:54Z</time>
      </trkpt>
      <trkpt lat="44.85159" lon="4.1164">
        <ele>1179.7</ele>
        <time>2022-06-09T15:01:55Z</time>
      </trkpt>
      <trkpt lat="44.85155" lon="4.11643">
        <ele>1179.9</ele>
        <time>2022-06-09T15:01:57Z</time>
      </trkpt>
      <trkpt lat="44.85154" lon="4.11645">
        <ele>1179.9</ele>
        <time>2022-06-09T15:01:58Z</time>
      </trkpt>
      <trkpt lat="44.85151" lon="4.11648">
        <ele>1180.1</ele>
        <time>2022-06-09T15:01:59Z</time>
      </trkpt>
      <trkpt lat="44.85148" lon="4.11651">
        <ele>1180.3</ele>
        <time>2022-06-09T15:02:01Z</time>
      </trkpt>
      <trkpt lat="44.85147" lon="4.11652">
        <ele>1180.4</ele>
        <time>2022-06-09T15:02:02Z</time>
      </trkpt>
      <trkpt lat="44.85144" lon="4.11655">
        <ele>1180.5</ele>
        <time>2022-06-09T15:02:03Z</time>
      </trkpt>
      <trkpt lat="44.85142" lon="4.11656">
        <ele>1180.6</ele>
        <time>2022-06-09T15:02:04Z</time>
      </trkpt>
      <trkpt lat="44.8514" lon="4.11659">
        <ele>1180.8</ele>
        <time>2022-06-09T15:02:05Z</time>
      </trkpt>
      <trkpt lat="44.85136" lon="4.11662">
        <ele>1181</ele>
        <time>2022-06-09T15:02:06Z</time>
      </trkpt>
      <trkpt lat="44.85135" lon="4.11663">
        <ele>1181</ele>
        <time>2022-06-09T15:02:07Z</time>
      </trkpt>
      <trkpt lat="44.85133" lon="4.11665">
        <ele>1181.2</ele>
        <time>2022-06-09T15:02:09Z</time>
      </trkpt>
      <trkpt lat="44.85129" lon="4.11668">
        <ele>1181.4</ele>
        <time>2022-06-09T15:02:10Z</time>
      </trkpt>
      <trkpt lat="44.85127" lon="4.11672">
        <ele>1181.5</ele>
        <time>2022-06-09T15:02:11Z</time>
      </trkpt>
      <trkpt lat="44.85126" lon="4.11673">
        <ele>1181.6</ele>
        <time>2022-06-09T15:02:12Z</time>
      </trkpt>
      <trkpt lat="44.85123" lon="4.11677">
        <ele>1181.8</ele>
        <time>2022-06-09T15:02:14Z</time>
      </trkpt>
      <trkpt lat="44.85121" lon="4.11679">
        <ele>1181.9</ele>
        <time>2022-06-09T15:02:15Z</time>
      </trkpt>
      <trkpt lat="44.8512" lon="4.1168">
        <ele>1182</ele>
        <time>2022-06-09T15:02:16Z</time>
      </trkpt>
      <trkpt lat="44.85117" lon="4.11684">
        <ele>1182.2</ele>
        <time>2022-06-09T15:02:17Z</time>
      </trkpt>
      <trkpt lat="44.85113" lon="4.11688">
        <ele>1182.4</ele>
        <time>2022-06-09T15:02:19Z</time>
      </trkpt>
      <trkpt lat="44.85112" lon="4.1169">
        <ele>1182.5</ele>
        <time>2022-06-09T15:02:20Z</time>
      </trkpt>
      <trkpt lat="44.85111" lon="4.11692">
        <ele>1182.5</ele>
        <time>2022-06-09T15:02:21Z</time>
      </trkpt>
      <trkpt lat="44.85106" lon="4.11696">
        <ele>1182.8</ele>
        <time>2022-06-09T15:02:22Z</time>
      </trkpt>
      <trkpt lat="44.85104" lon="4.11699">
        <ele>1182.9</ele>
        <time>2022-06-09T15:02:24Z</time>
      </trkpt>
      <trkpt lat="44.85101" lon="4.11702">
        <ele>1183.1</ele>
        <time>2022-06-09T15:02:25Z</time>
      </trkpt>
      <trkpt lat="44.85099" lon="4.11703">
        <ele>1183.2</ele>
        <time>2022-06-09T15:02:26Z</time>
      </trkpt>
      <trkpt lat="44.85096" lon="4.11706">
        <ele>1183.4</ele>
        <time>2022-06-09T15:02:27Z</time>
      </trkpt>
      <trkpt lat="44.85092" lon="4.1171">
        <ele>1183.6</ele>
        <time>2022-06-09T15:02:29Z</time>
      </trkpt>
      <trkpt lat="44.85091" lon="4.11712">
        <ele>1183.7</ele>
        <time>2022-06-09T15:02:30Z</time>
      </trkpt>
      <trkpt lat="44.85089" lon="4.11713">
        <ele>1183.8</ele>
        <time>2022-06-09T15:02:31Z</time>
      </trkpt>
      <trkpt lat="44.85087" lon="4.11716">
        <ele>1183.9</ele>
        <time>2022-06-09T15:02:32Z</time>
      </trkpt>
      <trkpt lat="44.85083" lon="4.1172">
        <ele>1184.1</ele>
        <time>2022-06-09T15:02:33Z</time>
      </trkpt>
      <trkpt lat="44.85081" lon="4.11722">
        <ele>1184.2</ele>
        <time>2022-06-09T15:02:34Z</time>
      </trkpt>
      <trkpt lat="44.85079" lon="4.11725">
        <ele>1184.3</ele>
        <time>2022-06-09T15:02:35Z</time>
      </trkpt>
      <trkpt lat="44.85077" lon="4.11727">
        <ele>1184.5</ele>
        <time>2022-06-09T15:02:36Z</time>
      </trkpt>
      <trkpt lat="44.85072" lon="4.1173">
        <ele>1184.7</ele>
        <time>2022-06-09T15:02:38Z</time>
      </trkpt>
      <trkpt lat="44.8507" lon="4.11733">
        <ele>1184.8</ele>
        <time>2022-06-09T15:02:40Z</time>
      </trkpt>
      <trkpt lat="44.85067" lon="4.11736">
        <ele>1185</ele>
        <time>2022-06-09T15:02:41Z</time>
      </trkpt>
      <trkpt lat="44.85064" lon="4.11739">
        <ele>1185.2</ele>
        <time>2022-06-09T15:02:42Z</time>
      </trkpt>
      <trkpt lat="44.85061" lon="4.11741">
        <ele>1185.3</ele>
        <time>2022-06-09T15:02:43Z</time>
      </trkpt>
      <trkpt lat="44.85059" lon="4.11743">
        <ele>1185.4</ele>
        <time>2022-06-09T15:02:44Z</time>
      </trkpt>
      <trkpt lat="44.85057" lon="4.11745">
        <ele>1185.6</ele>
        <time>2022-06-09T15:02:46Z</time>
      </trkpt>
      <trkpt lat="44.85054" lon="4.11749">
        <ele>1185.7</ele>
        <time>2022-06-09T15:02:47Z</time>
      </trkpt>
      <trkpt lat="44.85051" lon="4.11751">
        <ele>1185.9</ele>
        <time>2022-06-09T15:02:48Z</time>
      </trkpt>
      <trkpt lat="44.85048" lon="4.11754">
        <ele>1186</ele>
        <time>2022-06-09T15:02:49Z</time>
      </trkpt>
      <trkpt lat="44.85045" lon="4.11757">
        <ele>1186.2</ele>
        <time>2022-06-09T15:02:50Z</time>
      </trkpt>
      <trkpt lat="44.85043" lon="4.11759">
        <ele>1186.3</ele>
        <time>2022-06-09T15:02:51Z</time>
      </trkpt>
      <trkpt lat="44.8504" lon="4.11761">
        <ele>1186.5</ele>
        <time>2022-06-09T15:02:53Z</time>
      </trkpt>
      <trkpt lat="44.85038" lon="4.11763">
        <ele>1186.6</ele>
        <time>2022-06-09T15:02:54Z</time>
      </trkpt>
      <trkpt lat="44.85036" lon="4.11766">
        <ele>1186.7</ele>
        <time>2022-06-09T15:02:55Z</time>
      </trkpt>
      <trkpt lat="44.85034" lon="4.1177">
        <ele>1186.9</ele>
        <time>2022-06-09T15:02:56Z</time>
      </trkpt>
      <trkpt lat="44.85031" lon="4.11772">
        <ele>1187</ele>
        <time>2022-06-09T15:02:57Z</time>
      </trkpt>
      <trkpt lat="44.85028" lon="4.11774">
        <ele>1187.2</ele>
        <time>2022-06-09T15:02:58Z</time>
      </trkpt>
      <trkpt lat="44.85025" lon="4.11778">
        <ele>1187.4</ele>
        <time>2022-06-09T15:03:00Z</time>
      </trkpt>
      <trkpt lat="44.85024" lon="4.11779">
        <ele>1187.4</ele>
        <time>2022-06-09T15:03:01Z</time>
      </trkpt>
      <trkpt lat="44.85022" lon="4.11783">
        <ele>1187.6</ele>
        <time>2022-06-09T15:03:02Z</time>
      </trkpt>
      <trkpt lat="44.8502" lon="4.11784">
        <ele>1187.7</ele>
        <time>2022-06-09T15:03:03Z</time>
      </trkpt>
      <trkpt lat="44.85017" lon="4.11785">
        <ele>1187.8</ele>
        <time>2022-06-09T15:03:04Z</time>
      </trkpt>
      <trkpt lat="44.85014" lon="4.11787">
        <ele>1188</ele>
        <time>2022-06-09T15:03:05Z</time>
      </trkpt>
      <trkpt lat="44.85012" lon="4.1179">
        <ele>1188.1</ele>
        <time>2022-06-09T15:03:06Z</time>
      </trkpt>
      <trkpt lat="44.85007" lon="4.11794">
        <ele>1188.4</ele>
        <time>2022-06-09T15:03:07Z</time>
      </trkpt>
      <trkpt lat="44.85005" lon="4.11796">
        <ele>1188.5</ele>
        <time>2022-06-09T15:03:09Z</time>
      </trkpt>
      <trkpt lat="44.85001" lon="4.118">
        <ele>1188.7</ele>
        <time>2022-06-09T15:03:10Z</time>
      </trkpt>
      <trkpt lat="44.85" lon="4.11802">
        <ele>1188.8</ele>
        <time>2022-06-09T15:03:11Z</time>
      </trkpt>
      <trkpt lat="44.84994" lon="4.11804">
        <ele>1189.1</ele>
        <time>2022-06-09T15:03:13Z</time>
      </trkpt>
      <trkpt lat="44.84991" lon="4.11806">
        <ele>1189.2</ele>
        <time>2022-06-09T15:03:15Z</time>
      </trkpt>
      <trkpt lat="44.84988" lon="4.11808">
        <ele>1189.3</ele>
        <time>2022-06-09T15:03:16Z</time>
      </trkpt>
      <trkpt lat="44.84986" lon="4.1181">
        <ele>1189.5</ele>
        <time>2022-06-09T15:03:17Z</time>
      </trkpt>
      <trkpt lat="44.84983" lon="4.11812">
        <ele>1189.6</ele>
        <time>2022-06-09T15:03:18Z</time>
      </trkpt>
      <trkpt lat="44.8498" lon="4.11813">
        <ele>1189.7</ele>
        <time>2022-06-09T15:03:19Z</time>
      </trkpt>
      <trkpt lat="44.84977" lon="4.11815">
        <ele>1189.9</ele>
        <time>2022-06-09T15:03:20Z</time>
      </trkpt>
      <trkpt lat="44.84973" lon="4.11817">
        <ele>1190.1</ele>
        <time>2022-06-09T15:03:21Z</time>
      </trkpt>
      <trkpt lat="44.8497" lon="4.11819">
        <ele>1190.2</ele>
        <time>2022-06-09T15:03:22Z</time>
      </trkpt>
      <trkpt lat="44.84967" lon="4.1182">
        <ele>1190.4</ele>
        <time>2022-06-09T15:03:23Z</time>
      </trkpt>
      <trkpt lat="44.84963" lon="4.11822">
        <ele>1190.6</ele>
        <time>2022-06-09T15:03:25Z</time>
      </trkpt>
      <trkpt lat="44.84962" lon="4.11822">
        <ele>1190.6</ele>
        <time>2022-06-09T15:03:26Z</time>
      </trkpt>
      <trkpt lat="44.84959" lon="4.11823">
        <ele>1190.8</ele>
        <time>2022-06-09T15:03:27Z</time>
      </trkpt>
      <trkpt lat="44.84955" lon="4.11825">
        <ele>1191</ele>
        <time>2022-06-09T15:03:28Z</time>
      </trkpt>
      <trkpt lat="44.84953" lon="4.11826">
        <ele>1191</ele>
        <time>2022-06-09T15:03:29Z</time>
      </trkpt>
      <trkpt lat="44.8495" lon="4.11827">
        <ele>1191.2</ele>
        <time>2022-06-09T15:03:31Z</time>
      </trkpt>
      <trkpt lat="44.84948" lon="4.11829">
        <ele>1191.3</ele>
        <time>2022-06-09T15:03:32Z</time>
      </trkpt>
      <trkpt lat="44.84943" lon="4.11832">
        <ele>1191.5</ele>
        <time>2022-06-09T15:03:33Z</time>
      </trkpt>
      <trkpt lat="44.84939" lon="4.11834">
        <ele>1191.7</ele>
        <time>2022-06-09T15:03:35Z</time>
      </trkpt>
      <trkpt lat="44.84936" lon="4.11835">
        <ele>1191.8</ele>
        <time>2022-06-09T15:03:36Z</time>
      </trkpt>
      <trkpt lat="44.84932" lon="4.11837">
        <ele>1192</ele>
        <time>2022-06-09T15:03:37Z</time>
      </trkpt>
      <trkpt lat="44.84928" lon="4.11838">
        <ele>1192.1</ele>
        <time>2022-06-09T15:03:39Z</time>
      </trkpt>
      <trkpt lat="44.84925" lon="4.11841">
        <ele>1192.2</ele>
        <time>2022-06-09T15:03:40Z</time>
      </trkpt>
      <trkpt lat="44.84921" lon="4.11844">
        <ele>1192.3</ele>
        <time>2022-06-09T15:03:41Z</time>
      </trkpt>
      <trkpt lat="44.84919" lon="4.11847">
        <ele>1192.4</ele>
        <time>2022-06-09T15:03:42Z</time>
      </trkpt>
      <trkpt lat="44.84916" lon="4.11849">
        <ele>1192.4</ele>
        <time>2022-06-09T15:03:43Z</time>
      </trkpt>
      <trkpt lat="44.84913" lon="4.11851">
        <ele>1192.5</ele>
        <time>2022-06-09T15:03:45Z</time>
      </trkpt>
      <trkpt lat="44.8491" lon="4.11854">
        <ele>1192.5</ele>
        <time>2022-06-09T15:03:46Z</time>
      </trkpt>
      <trkpt lat="44.84908" lon="4.11857">
        <ele>1192.6</ele>
        <time>2022-06-09T15:03:47Z</time>
      </trkpt>
      <trkpt lat="44.84905" lon="4.1186">
        <ele>1192.6</ele>
        <time>2022-06-09T15:03:48Z</time>
      </trkpt>
      <trkpt lat="44.84903" lon="4.11863">
        <ele>1192.7</ele>
        <time>2022-06-09T15:03:49Z</time>
      </trkpt>
      <trkpt lat="44.84901" lon="4.11866">
        <ele>1192.7</ele>
        <time>2022-06-09T15:03:50Z</time>
      </trkpt>
      <trkpt lat="44.84898" lon="4.1187">
        <ele>1192.8</ele>
        <time>2022-06-09T15:03:51Z</time>
      </trkpt>
      <trkpt lat="44.84897" lon="4.11874">
        <ele>1192.9</ele>
        <time>2022-06-09T15:03:52Z</time>
      </trkpt>
      <trkpt lat="44.84895" lon="4.11878">
        <ele>1192.9</ele>
        <time>2022-06-09T15:03:53Z</time>
      </trkpt>
      <trkpt lat="44.84894" lon="4.11883">
        <ele>1193</ele>
        <time>2022-06-09T15:03:54Z</time>
      </trkpt>
      <trkpt lat="44.84892" lon="4.11887">
        <ele>1193</ele>
        <time>2022-06-09T15:03:55Z</time>
      </trkpt>
      <trkpt lat="44.84891" lon="4.11892">
        <ele>1193.1</ele>
        <time>2022-06-09T15:03:56Z</time>
      </trkpt>
      <trkpt lat="44.8489" lon="4.11897">
        <ele>1193.1</ele>
        <time>2022-06-09T15:03:57Z</time>
      </trkpt>
      <trkpt lat="44.84889" lon="4.11901">
        <ele>1193.2</ele>
        <time>2022-06-09T15:03:58Z</time>
      </trkpt>
      <trkpt lat="44.84887" lon="4.11906">
        <ele>1193.3</ele>
        <time>2022-06-09T15:03:59Z</time>
      </trkpt>
      <trkpt lat="44.84885" lon="4.1191">
        <ele>1193.3</ele>
        <time>2022-06-09T15:04:00Z</time>
      </trkpt>
      <trkpt lat="44.84882" lon="4.11918">
        <ele>1193.5</ele>
        <time>2022-06-09T15:04:01Z</time>
      </trkpt>
      <trkpt lat="44.8488" lon="4.11922">
        <ele>1193.6</ele>
        <time>2022-06-09T15:04:03Z</time>
      </trkpt>
      <trkpt lat="44.84878" lon="4.11929">
        <ele>1193.7</ele>
        <time>2022-06-09T15:04:04Z</time>
      </trkpt>
      <trkpt lat="44.84876" lon="4.11933">
        <ele>1193.8</ele>
        <time>2022-06-09T15:04:05Z</time>
      </trkpt>
      <trkpt lat="44.84875" lon="4.11937">
        <ele>1193.9</ele>
        <time>2022-06-09T15:04:07Z</time>
      </trkpt>
      <trkpt lat="44.84872" lon="4.11942">
        <ele>1194.1</ele>
        <time>2022-06-09T15:04:08Z</time>
      </trkpt>
      <trkpt lat="44.8487" lon="4.11947">
        <ele>1194.3</ele>
        <time>2022-06-09T15:04:09Z</time>
      </trkpt>
      <trkpt lat="44.84869" lon="4.11951">
        <ele>1194.4</ele>
        <time>2022-06-09T15:04:10Z</time>
      </trkpt>
      <trkpt lat="44.84867" lon="4.11955">
        <ele>1194.6</ele>
        <time>2022-06-09T15:04:11Z</time>
      </trkpt>
      <trkpt lat="44.84866" lon="4.11959">
        <ele>1194.7</ele>
        <time>2022-06-09T15:04:13Z</time>
      </trkpt>
      <trkpt lat="44.84864" lon="4.11963">
        <ele>1194.8</ele>
        <time>2022-06-09T15:04:14Z</time>
      </trkpt>
      <trkpt lat="44.84862" lon="4.11966">
        <ele>1195</ele>
        <time>2022-06-09T15:04:15Z</time>
      </trkpt>
      <trkpt lat="44.8486" lon="4.1197">
        <ele>1195.1</ele>
        <time>2022-06-09T15:04:16Z</time>
      </trkpt>
      <trkpt lat="44.84858" lon="4.11975">
        <ele>1195.3</ele>
        <time>2022-06-09T15:04:17Z</time>
      </trkpt>
      <trkpt lat="44.84857" lon="4.11978">
        <ele>1195.4</ele>
        <time>2022-06-09T15:04:18Z</time>
      </trkpt>
      <trkpt lat="44.84856" lon="4.11981">
        <ele>1195.5</ele>
        <time>2022-06-09T15:04:20Z</time>
      </trkpt>
      <trkpt lat="44.84853" lon="4.11987">
        <ele>1195.8</ele>
        <time>2022-06-09T15:04:21Z</time>
      </trkpt>
      <trkpt lat="44.84851" lon="4.11991">
        <ele>1195.9</ele>
        <time>2022-06-09T15:04:22Z</time>
      </trkpt>
      <trkpt lat="44.84849" lon="4.11993">
        <ele>1196.1</ele>
        <time>2022-06-09T15:04:24Z</time>
      </trkpt>
      <trkpt lat="44.84847" lon="4.11996">
        <ele>1196.2</ele>
        <time>2022-06-09T15:04:25Z</time>
      </trkpt>
      <trkpt lat="44.84845" lon="4.11999">
        <ele>1196.3</ele>
        <time>2022-06-09T15:04:26Z</time>
      </trkpt>
      <trkpt lat="44.8484" lon="4.12">
        <ele>1196.5</ele>
        <time>2022-06-09T15:04:27Z</time>
      </trkpt>
      <trkpt lat="44.84838" lon="4.12">
        <ele>1196.6</ele>
        <time>2022-06-09T15:04:28Z</time>
      </trkpt>
      <trkpt lat="44.84835" lon="4.12001">
        <ele>1196.8</ele>
        <time>2022-06-09T15:04:29Z</time>
      </trkpt>
      <trkpt lat="44.84831" lon="4.12">
        <ele>1196.9</ele>
        <time>2022-06-09T15:04:30Z</time>
      </trkpt>
      <trkpt lat="44.84828" lon="4.12">
        <ele>1197.1</ele>
        <time>2022-06-09T15:04:31Z</time>
      </trkpt>
      <trkpt lat="44.84824" lon="4.11999">
        <ele>1197.3</ele>
        <time>2022-06-09T15:04:33Z</time>
      </trkpt>
      <trkpt lat="44.84821" lon="4.11998">
        <ele>1197.5</ele>
        <time>2022-06-09T15:04:34Z</time>
      </trkpt>
      <trkpt lat="44.8482" lon="4.11997">
        <ele>1197.5</ele>
        <time>2022-06-09T15:04:35Z</time>
      </trkpt>
      <trkpt lat="44.84816" lon="4.11996">
        <ele>1197.8</ele>
        <time>2022-06-09T15:04:36Z</time>
      </trkpt>
      <trkpt lat="44.84813" lon="4.11994">
        <ele>1197.9</ele>
        <time>2022-06-09T15:04:37Z</time>
      </trkpt>
      <trkpt lat="44.84808" lon="4.11992">
        <ele>1198.2</ele>
        <time>2022-06-09T15:04:39Z</time>
      </trkpt>
      <trkpt lat="44.84805" lon="4.11992">
        <ele>1198.4</ele>
        <time>2022-06-09T15:04:41Z</time>
      </trkpt>
      <trkpt lat="44.84804" lon="4.11992">
        <ele>1198.5</ele>
        <time>2022-06-09T15:04:42Z</time>
      </trkpt>
      <trkpt lat="44.848" lon="4.11992">
        <ele>1198.7</ele>
        <time>2022-06-09T15:04:43Z</time>
      </trkpt>
      <trkpt lat="44.84799" lon="4.11993">
        <ele>1198.7</ele>
        <time>2022-06-09T15:04:44Z</time>
      </trkpt>
      <trkpt lat="44.84795" lon="4.11994">
        <ele>1198.9</ele>
        <time>2022-06-09T15:04:45Z</time>
      </trkpt>
      <trkpt lat="44.84792" lon="4.11996">
        <ele>1199.1</ele>
        <time>2022-06-09T15:04:46Z</time>
      </trkpt>
      <trkpt lat="44.84789" lon="4.11998">
        <ele>1199.3</ele>
        <time>2022-06-09T15:04:48Z</time>
      </trkpt>
      <trkpt lat="44.84787" lon="4.12001">
        <ele>1199.4</ele>
        <time>2022-06-09T15:04:49Z</time>
      </trkpt>
      <trkpt lat="44.84784" lon="4.12004">
        <ele>1199.6</ele>
        <time>2022-06-09T15:04:50Z</time>
      </trkpt>
      <trkpt lat="44.84781" lon="4.12008">
        <ele>1199.8</ele>
        <time>2022-06-09T15:04:51Z</time>
      </trkpt>
      <trkpt lat="44.8478" lon="4.1201">
        <ele>1199.9</ele>
        <time>2022-06-09T15:04:52Z</time>
      </trkpt>
      <trkpt lat="44.84778" lon="4.12013">
        <ele>1200</ele>
        <time>2022-06-09T15:04:53Z</time>
      </trkpt>
      <trkpt lat="44.84776" lon="4.12017">
        <ele>1200.2</ele>
        <time>2022-06-09T15:04:55Z</time>
      </trkpt>
      <trkpt lat="44.84774" lon="4.1202">
        <ele>1200.3</ele>
        <time>2022-06-09T15:04:56Z</time>
      </trkpt>
      <trkpt lat="44.84771" lon="4.12023">
        <ele>1200.5</ele>
        <time>2022-06-09T15:04:57Z</time>
      </trkpt>
      <trkpt lat="44.84768" lon="4.12026">
        <ele>1200.7</ele>
        <time>2022-06-09T15:04:58Z</time>
      </trkpt>
      <trkpt lat="44.84766" lon="4.1203">
        <ele>1200.9</ele>
        <time>2022-06-09T15:04:59Z</time>
      </trkpt>
      <trkpt lat="44.84763" lon="4.12035">
        <ele>1201.1</ele>
        <time>2022-06-09T15:05:01Z</time>
      </trkpt>
      <trkpt lat="44.84762" lon="4.12037">
        <ele>1201.2</ele>
        <time>2022-06-09T15:05:02Z</time>
      </trkpt>
      <trkpt lat="44.84761" lon="4.12039">
        <ele>1201.3</ele>
        <time>2022-06-09T15:05:03Z</time>
      </trkpt>
      <trkpt lat="44.84759" lon="4.12043">
        <ele>1201.5</ele>
        <time>2022-06-09T15:05:04Z</time>
      </trkpt>
      <trkpt lat="44.84758" lon="4.12044">
        <ele>1201.6</ele>
        <time>2022-06-09T15:05:05Z</time>
      </trkpt>
      <trkpt lat="44.84757" lon="4.12046">
        <ele>1201.7</ele>
        <time>2022-06-09T15:05:06Z</time>
      </trkpt>
      <trkpt lat="44.84756" lon="4.12047">
        <ele>1201.7</ele>
        <time>2022-06-09T15:05:07Z</time>
      </trkpt>
      <trkpt lat="44.84755" lon="4.12048">
        <ele>1201.8</ele>
        <time>2022-06-09T15:05:08Z</time>
      </trkpt>
      <trkpt lat="44.84755" lon="4.12047">
        <ele>1201.8</ele>
        <time>2022-06-09T15:05:09Z</time>
      </trkpt>
      <trkpt lat="44.84755" lon="4.12048">
        <ele>1201.8</ele>
        <time>2022-06-09T15:05:10Z</time>
      </trkpt>
      <trkpt lat="44.84755" lon="4.12049">
        <ele>1201.9</ele>
        <time>2022-06-09T15:05:11Z</time>
      </trkpt>
      <trkpt lat="44.84754" lon="4.12049">
        <ele>1201.9</ele>
        <time>2022-06-09T15:05:12Z</time>
      </trkpt>
      <trkpt lat="44.84754" lon="4.1205">
        <ele>1201.9</ele>
        <time>2022-06-09T15:05:13Z</time>
      </trkpt>
      <trkpt lat="44.84753" lon="4.12051">
        <ele>1202</ele>
        <time>2022-06-09T15:05:14Z</time>
      </trkpt>
      <trkpt lat="44.84753" lon="4.12051">
        <ele>1202</ele>
        <time>2022-06-09T15:05:15Z</time>
      </trkpt>
      <trkpt lat="44.84753" lon="4.12052">
        <ele>1202</ele>
        <time>2022-06-09T15:05:16Z</time>
      </trkpt>
      <trkpt lat="44.84752" lon="4.12053">
        <ele>1202.1</ele>
        <time>2022-06-09T15:05:17Z</time>
      </trkpt>
      <trkpt lat="44.84752" lon="4.12053">
        <ele>1202.1</ele>
        <time>2022-06-09T15:05:18Z</time>
      </trkpt>
      <trkpt lat="44.84752" lon="4.12054">
        <ele>1202.1</ele>
        <time>2022-06-09T15:06:39Z</time>
      </trkpt>
      <trkpt lat="44.84751" lon="4.12055">
        <ele>1202.2</ele>
        <time>2022-06-09T15:06:40Z</time>
      </trkpt>
      <trkpt lat="44.84751" lon="4.12055">
        <ele>1202.2</ele>
        <time>2022-06-09T15:06:41Z</time>
      </trkpt>
      <trkpt lat="44.8475" lon="4.12058">
        <ele>1202.3</ele>
        <time>2022-06-09T15:06:42Z</time>
      </trkpt>
      <trkpt lat="44.8475" lon="4.1206">
        <ele>1202.4</ele>
        <time>2022-06-09T15:06:43Z</time>
      </trkpt>
      <trkpt lat="44.84748" lon="4.12063">
        <ele>1202.6</ele>
        <time>2022-06-09T15:06:44Z</time>
      </trkpt>
      <trkpt lat="44.84746" lon="4.12067">
        <ele>1202.8</ele>
        <time>2022-06-09T15:06:45Z</time>
      </trkpt>
      <trkpt lat="44.84743" lon="4.1207">
        <ele>1203</ele>
        <time>2022-06-09T15:06:46Z</time>
      </trkpt>
      <trkpt lat="44.8474" lon="4.12074">
        <ele>1203.2</ele>
        <time>2022-06-09T15:06:47Z</time>
      </trkpt>
      <trkpt lat="44.84737" lon="4.12078">
        <ele>1203.4</ele>
        <time>2022-06-09T15:06:49Z</time>
      </trkpt>
      <trkpt lat="44.84736" lon="4.12079">
        <ele>1203.5</ele>
        <time>2022-06-09T15:06:50Z</time>
      </trkpt>
      <trkpt lat="44.84733" lon="4.12082">
        <ele>1203.7</ele>
        <time>2022-06-09T15:06:51Z</time>
      </trkpt>
      <trkpt lat="44.8473" lon="4.12087">
        <ele>1203.9</ele>
        <time>2022-06-09T15:06:53Z</time>
      </trkpt>
      <trkpt lat="44.84728" lon="4.1209">
        <ele>1204</ele>
        <time>2022-06-09T15:06:54Z</time>
      </trkpt>
      <trkpt lat="44.84724" lon="4.12095">
        <ele>1204.3</ele>
        <time>2022-06-09T15:06:55Z</time>
      </trkpt>
      <trkpt lat="44.84722" lon="4.12098">
        <ele>1204.4</ele>
        <time>2022-06-09T15:06:57Z</time>
      </trkpt>
      <trkpt lat="44.84719" lon="4.12101">
        <ele>1204.6</ele>
        <time>2022-06-09T15:06:58Z</time>
      </trkpt>
      <trkpt lat="44.84716" lon="4.12105">
        <ele>1204.7</ele>
        <time>2022-06-09T15:06:59Z</time>
      </trkpt>
      <trkpt lat="44.84713" lon="4.12107">
        <ele>1204.9</ele>
        <time>2022-06-09T15:07:00Z</time>
      </trkpt>
      <trkpt lat="44.8471" lon="4.12109">
        <ele>1205</ele>
        <time>2022-06-09T15:07:01Z</time>
      </trkpt>
      <trkpt lat="44.84707" lon="4.12111">
        <ele>1205</ele>
        <time>2022-06-09T15:07:03Z</time>
      </trkpt>
      <trkpt lat="44.84704" lon="4.12113">
        <ele>1205</ele>
        <time>2022-06-09T15:07:04Z</time>
      </trkpt>
      <trkpt lat="44.84701" lon="4.12116">
        <ele>1204.9</ele>
        <time>2022-06-09T15:07:05Z</time>
      </trkpt>
      <trkpt lat="44.84694" lon="4.12121">
        <ele>1204.9</ele>
        <time>2022-06-09T15:07:07Z</time>
      </trkpt>
      <trkpt lat="44.84691" lon="4.12124">
        <ele>1204.8</ele>
        <time>2022-06-09T15:07:08Z</time>
      </trkpt>
      <trkpt lat="44.84683" lon="4.12128">
        <ele>1204.8</ele>
        <time>2022-06-09T15:07:09Z</time>
      </trkpt>
      <trkpt lat="44.84679" lon="4.12132">
        <ele>1204.9</ele>
        <time>2022-06-09T15:07:11Z</time>
      </trkpt>
      <trkpt lat="44.84676" lon="4.12135">
        <ele>1204.9</ele>
        <time>2022-06-09T15:07:12Z</time>
      </trkpt>
      <trkpt lat="44.84672" lon="4.12138">
        <ele>1204.9</ele>
        <time>2022-06-09T15:07:13Z</time>
      </trkpt>
      <trkpt lat="44.84668" lon="4.12141">
        <ele>1204.9</ele>
        <time>2022-06-09T15:07:14Z</time>
      </trkpt>
      <trkpt lat="44.84665" lon="4.12144">
        <ele>1204.9</ele>
        <time>2022-06-09T15:07:15Z</time>
      </trkpt>
      <trkpt lat="44.84661" lon="4.12147">
        <ele>1204.9</ele>
        <time>2022-06-09T15:07:16Z</time>
      </trkpt>
      <trkpt lat="44.84656" lon="4.12152">
        <ele>1205</ele>
        <time>2022-06-09T15:07:17Z</time>
      </trkpt>
      <trkpt lat="44.84652" lon="4.12156">
        <ele>1205</ele>
        <time>2022-06-09T15:07:18Z</time>
      </trkpt>
      <trkpt lat="44.84648" lon="4.1216">
        <ele>1205</ele>
        <time>2022-06-09T15:07:19Z</time>
      </trkpt>
      <trkpt lat="44.84644" lon="4.12164">
        <ele>1205</ele>
        <time>2022-06-09T15:07:21Z</time>
      </trkpt>
      <trkpt lat="44.84641" lon="4.12168">
        <ele>1205</ele>
        <time>2022-06-09T15:07:22Z</time>
      </trkpt>
      <trkpt lat="44.84638" lon="4.12172">
        <ele>1205</ele>
        <time>2022-06-09T15:07:23Z</time>
      </trkpt>
      <trkpt lat="44.84632" lon="4.12179">
        <ele>1205</ele>
        <time>2022-06-09T15:07:24Z</time>
      </trkpt>
      <trkpt lat="44.84628" lon="4.12183">
        <ele>1205</ele>
        <time>2022-06-09T15:07:26Z</time>
      </trkpt>
      <trkpt lat="44.84622" lon="4.12191">
        <ele>1205.1</ele>
        <time>2022-06-09T15:07:27Z</time>
      </trkpt>
      <trkpt lat="44.84619" lon="4.12196">
        <ele>1205.1</ele>
        <time>2022-06-09T15:07:29Z</time>
      </trkpt>
      <trkpt lat="44.84616" lon="4.12201">
        <ele>1205.1</ele>
        <time>2022-06-09T15:07:30Z</time>
      </trkpt>
      <trkpt lat="44.84614" lon="4.12206">
        <ele>1205.1</ele>
        <time>2022-06-09T15:07:31Z</time>
      </trkpt>
      <trkpt lat="44.8461" lon="4.12212">
        <ele>1205.1</ele>
        <time>2022-06-09T15:07:32Z</time>
      </trkpt>
      <trkpt lat="44.84605" lon="4.12218">
        <ele>1205.1</ele>
        <time>2022-06-09T15:07:33Z</time>
      </trkpt>
      <trkpt lat="44.846" lon="4.12225">
        <ele>1205</ele>
        <time>2022-06-09T15:07:35Z</time>
      </trkpt>
      <trkpt lat="44.84597" lon="4.1223">
        <ele>1204.9</ele>
        <time>2022-06-09T15:07:36Z</time>
      </trkpt>
      <trkpt lat="44.84593" lon="4.12235">
        <ele>1204.8</ele>
        <time>2022-06-09T15:07:37Z</time>
      </trkpt>
      <trkpt lat="44.8459" lon="4.1224">
        <ele>1204.7</ele>
        <time>2022-06-09T15:07:38Z</time>
      </trkpt>
      <trkpt lat="44.84587" lon="4.12246">
        <ele>1204.6</ele>
        <time>2022-06-09T15:07:39Z</time>
      </trkpt>
      <trkpt lat="44.84583" lon="4.12252">
        <ele>1204.5</ele>
        <time>2022-06-09T15:07:40Z</time>
      </trkpt>
      <trkpt lat="44.8458" lon="4.12259">
        <ele>1204.4</ele>
        <time>2022-06-09T15:07:41Z</time>
      </trkpt>
      <trkpt lat="44.84577" lon="4.12266">
        <ele>1204.3</ele>
        <time>2022-06-09T15:07:42Z</time>
      </trkpt>
      <trkpt lat="44.84575" lon="4.12274">
        <ele>1204.2</ele>
        <time>2022-06-09T15:07:43Z</time>
      </trkpt>
      <trkpt lat="44.84572" lon="4.12281">
        <ele>1204.1</ele>
        <time>2022-06-09T15:07:44Z</time>
      </trkpt>
      <trkpt lat="44.8457" lon="4.12289">
        <ele>1204</ele>
        <time>2022-06-09T15:07:45Z</time>
      </trkpt>
      <trkpt lat="44.84568" lon="4.12298">
        <ele>1203.9</ele>
        <time>2022-06-09T15:07:46Z</time>
      </trkpt>
      <trkpt lat="44.84567" lon="4.12307">
        <ele>1203.9</ele>
        <time>2022-06-09T15:07:47Z</time>
      </trkpt>
      <trkpt lat="44.84567" lon="4.12316">
        <ele>1203.7</ele>
        <time>2022-06-09T15:07:48Z</time>
      </trkpt>
      <trkpt lat="44.84566" lon="4.12325">
        <ele>1203.6</ele>
        <time>2022-06-09T15:07:49Z</time>
      </trkpt>
      <trkpt lat="44.84566" lon="4.12335">
        <ele>1203.5</ele>
        <time>2022-06-09T15:07:50Z</time>
      </trkpt>
      <trkpt lat="44.84565" lon="4.12344">
        <ele>1203.4</ele>
        <time>2022-06-09T15:07:51Z</time>
      </trkpt>
      <trkpt lat="44.84566" lon="4.12354">
        <ele>1203.3</ele>
        <time>2022-06-09T15:07:52Z</time>
      </trkpt>
      <trkpt lat="44.84566" lon="4.12364">
        <ele>1203.2</ele>
        <time>2022-06-09T15:07:53Z</time>
      </trkpt>
      <trkpt lat="44.84567" lon="4.12374">
        <ele>1203.1</ele>
        <time>2022-06-09T15:07:54Z</time>
      </trkpt>
      <trkpt lat="44.84567" lon="4.12384">
        <ele>1203</ele>
        <time>2022-06-09T15:07:55Z</time>
      </trkpt>
      <trkpt lat="44.84567" lon="4.12395">
        <ele>1202.9</ele>
        <time>2022-06-09T15:07:56Z</time>
      </trkpt>
      <trkpt lat="44.84567" lon="4.12405">
        <ele>1202.8</ele>
        <time>2022-06-09T15:07:57Z</time>
      </trkpt>
      <trkpt lat="44.84567" lon="4.12415">
        <ele>1202.7</ele>
        <time>2022-06-09T15:07:58Z</time>
      </trkpt>
      <trkpt lat="44.84566" lon="4.12425">
        <ele>1202.6</ele>
        <time>2022-06-09T15:07:59Z</time>
      </trkpt>
      <trkpt lat="44.84565" lon="4.12435">
        <ele>1202.5</ele>
        <time>2022-06-09T15:08:00Z</time>
      </trkpt>
      <trkpt lat="44.84563" lon="4.12446">
        <ele>1202.4</ele>
        <time>2022-06-09T15:08:01Z</time>
      </trkpt>
      <trkpt lat="44.84562" lon="4.12456">
        <ele>1202.3</ele>
        <time>2022-06-09T15:08:02Z</time>
      </trkpt>
      <trkpt lat="44.8456" lon="4.12466">
        <ele>1202.1</ele>
        <time>2022-06-09T15:08:03Z</time>
      </trkpt>
      <trkpt lat="44.84558" lon="4.12476">
        <ele>1202</ele>
        <time>2022-06-09T15:08:04Z</time>
      </trkpt>
      <trkpt lat="44.84557" lon="4.12486">
        <ele>1201.8</ele>
        <time>2022-06-09T15:08:05Z</time>
      </trkpt>
      <trkpt lat="44.84555" lon="4.12496">
        <ele>1201.7</ele>
        <time>2022-06-09T15:08:06Z</time>
      </trkpt>
      <trkpt lat="44.84553" lon="4.12507">
        <ele>1201.5</ele>
        <time>2022-06-09T15:08:07Z</time>
      </trkpt>
      <trkpt lat="44.84551" lon="4.12518">
        <ele>1201.4</ele>
        <time>2022-06-09T15:08:08Z</time>
      </trkpt>
      <trkpt lat="44.84549" lon="4.12529">
        <ele>1201.2</ele>
        <time>2022-06-09T15:08:09Z</time>
      </trkpt>
      <trkpt lat="44.84547" lon="4.12539">
        <ele>1201.1</ele>
        <time>2022-06-09T15:08:10Z</time>
      </trkpt>
      <trkpt lat="44.84545" lon="4.12551">
        <ele>1200.9</ele>
        <time>2022-06-09T15:08:11Z</time>
      </trkpt>
      <trkpt lat="44.84542" lon="4.12562">
        <ele>1200.8</ele>
        <time>2022-06-09T15:08:12Z</time>
      </trkpt>
      <trkpt lat="44.84539" lon="4.12573">
        <ele>1200.7</ele>
        <time>2022-06-09T15:08:13Z</time>
      </trkpt>
      <trkpt lat="44.84536" lon="4.12583">
        <ele>1200.6</ele>
        <time>2022-06-09T15:08:14Z</time>
      </trkpt>
      <trkpt lat="44.84531" lon="4.12592">
        <ele>1200.5</ele>
        <time>2022-06-09T15:08:15Z</time>
      </trkpt>
      <trkpt lat="44.84525" lon="4.126">
        <ele>1200.5</ele>
        <time>2022-06-09T15:08:16Z</time>
      </trkpt>
      <trkpt lat="44.84518" lon="4.12606">
        <ele>1200.4</ele>
        <time>2022-06-09T15:08:17Z</time>
      </trkpt>
      <trkpt lat="44.84511" lon="4.12612">
        <ele>1200.4</ele>
        <time>2022-06-09T15:08:18Z</time>
      </trkpt>
      <trkpt lat="44.84505" lon="4.12618">
        <ele>1200.4</ele>
        <time>2022-06-09T15:08:19Z</time>
      </trkpt>
      <trkpt lat="44.84499" lon="4.12623">
        <ele>1200.3</ele>
        <time>2022-06-09T15:08:20Z</time>
      </trkpt>
      <trkpt lat="44.84493" lon="4.12627">
        <ele>1200.1</ele>
        <time>2022-06-09T15:08:21Z</time>
      </trkpt>
      <trkpt lat="44.84486" lon="4.1263">
        <ele>1200</ele>
        <time>2022-06-09T15:08:22Z</time>
      </trkpt>
      <trkpt lat="44.8448" lon="4.12633">
        <ele>1199.9</ele>
        <time>2022-06-09T15:08:23Z</time>
      </trkpt>
      <trkpt lat="44.84473" lon="4.12635">
        <ele>1199.8</ele>
        <time>2022-06-09T15:08:24Z</time>
      </trkpt>
      <trkpt lat="44.84466" lon="4.12635">
        <ele>1199.7</ele>
        <time>2022-06-09T15:08:25Z</time>
      </trkpt>
      <trkpt lat="44.84459" lon="4.12635">
        <ele>1199.6</ele>
        <time>2022-06-09T15:08:26Z</time>
      </trkpt>
      <trkpt lat="44.84452" lon="4.12633">
        <ele>1199.4</ele>
        <time>2022-06-09T15:08:27Z</time>
      </trkpt>
      <trkpt lat="44.84445" lon="4.1263">
        <ele>1199.3</ele>
        <time>2022-06-09T15:08:28Z</time>
      </trkpt>
      <trkpt lat="44.84438" lon="4.12625">
        <ele>1199.1</ele>
        <time>2022-06-09T15:08:29Z</time>
      </trkpt>
      <trkpt lat="44.84432" lon="4.12618">
        <ele>1199</ele>
        <time>2022-06-09T15:08:30Z</time>
      </trkpt>
      <trkpt lat="44.84428" lon="4.12612">
        <ele>1198.8</ele>
        <time>2022-06-09T15:08:31Z</time>
      </trkpt>
      <trkpt lat="44.84424" lon="4.12605">
        <ele>1198.7</ele>
        <time>2022-06-09T15:08:32Z</time>
      </trkpt>
      <trkpt lat="44.84421" lon="4.12597">
        <ele>1198.6</ele>
        <time>2022-06-09T15:08:33Z</time>
      </trkpt>
      <trkpt lat="44.84418" lon="4.1259">
        <ele>1198.4</ele>
        <time>2022-06-09T15:08:34Z</time>
      </trkpt>
      <trkpt lat="44.84414" lon="4.12582">
        <ele>1198.3</ele>
        <time>2022-06-09T15:08:35Z</time>
      </trkpt>
      <trkpt lat="44.84411" lon="4.12575">
        <ele>1198.2</ele>
        <time>2022-06-09T15:08:36Z</time>
      </trkpt>
      <trkpt lat="44.84407" lon="4.12568">
        <ele>1198.1</ele>
        <time>2022-06-09T15:08:37Z</time>
      </trkpt>
      <trkpt lat="44.84404" lon="4.1256">
        <ele>1198</ele>
        <time>2022-06-09T15:08:38Z</time>
      </trkpt>
      <trkpt lat="44.84401" lon="4.12553">
        <ele>1197.8</ele>
        <time>2022-06-09T15:08:39Z</time>
      </trkpt>
      <trkpt lat="44.84398" lon="4.12545">
        <ele>1197.7</ele>
        <time>2022-06-09T15:08:40Z</time>
      </trkpt>
      <trkpt lat="44.84394" lon="4.12537">
        <ele>1197.6</ele>
        <time>2022-06-09T15:08:41Z</time>
      </trkpt>
      <trkpt lat="44.84391" lon="4.1253">
        <ele>1197.5</ele>
        <time>2022-06-09T15:08:42Z</time>
      </trkpt>
      <trkpt lat="44.84387" lon="4.12523">
        <ele>1197.3</ele>
        <time>2022-06-09T15:08:43Z</time>
      </trkpt>
      <trkpt lat="44.84384" lon="4.12515">
        <ele>1197.2</ele>
        <time>2022-06-09T15:08:44Z</time>
      </trkpt>
      <trkpt lat="44.8438" lon="4.12508">
        <ele>1197</ele>
        <time>2022-06-09T15:08:45Z</time>
      </trkpt>
      <trkpt lat="44.84376" lon="4.12502">
        <ele>1196.8</ele>
        <time>2022-06-09T15:08:46Z</time>
      </trkpt>
      <trkpt lat="44.84372" lon="4.12495">
        <ele>1196.7</ele>
        <time>2022-06-09T15:08:47Z</time>
      </trkpt>
      <trkpt lat="44.84368" lon="4.12489">
        <ele>1196.5</ele>
        <time>2022-06-09T15:08:48Z</time>
      </trkpt>
      <trkpt lat="44.84363" lon="4.12482">
        <ele>1196.3</ele>
        <time>2022-06-09T15:08:49Z</time>
      </trkpt>
      <trkpt lat="44.84358" lon="4.12475">
        <ele>1196.2</ele>
        <time>2022-06-09T15:08:50Z</time>
      </trkpt>
      <trkpt lat="44.84354" lon="4.12468">
        <ele>1196.1</ele>
        <time>2022-06-09T15:08:51Z</time>
      </trkpt>
      <trkpt lat="44.84349" lon="4.12461">
        <ele>1195.9</ele>
        <time>2022-06-09T15:08:52Z</time>
      </trkpt>
      <trkpt lat="44.84344" lon="4.12454">
        <ele>1195.8</ele>
        <time>2022-06-09T15:08:53Z</time>
      </trkpt>
      <trkpt lat="44.8434" lon="4.12447">
        <ele>1195.6</ele>
        <time>2022-06-09T15:08:54Z</time>
      </trkpt>
      <trkpt lat="44.84335" lon="4.12441">
        <ele>1195.5</ele>
        <time>2022-06-09T15:08:55Z</time>
      </trkpt>
      <trkpt lat="44.84331" lon="4.12435">
        <ele>1195.4</ele>
        <time>2022-06-09T15:08:56Z</time>
      </trkpt>
      <trkpt lat="44.84327" lon="4.12428">
        <ele>1195.3</ele>
        <time>2022-06-09T15:08:57Z</time>
      </trkpt>
      <trkpt lat="44.84322" lon="4.12422">
        <ele>1195.1</ele>
        <time>2022-06-09T15:08:58Z</time>
      </trkpt>
      <trkpt lat="44.84317" lon="4.12417">
        <ele>1195</ele>
        <time>2022-06-09T15:08:59Z</time>
      </trkpt>
      <trkpt lat="44.84312" lon="4.12412">
        <ele>1194.9</ele>
        <time>2022-06-09T15:09:00Z</time>
      </trkpt>
      <trkpt lat="44.84307" lon="4.12409">
        <ele>1194.8</ele>
        <time>2022-06-09T15:09:01Z</time>
      </trkpt>
      <trkpt lat="44.84301" lon="4.12405">
        <ele>1194.7</ele>
        <time>2022-06-09T15:09:02Z</time>
      </trkpt>
      <trkpt lat="44.84295" lon="4.12402">
        <ele>1194.6</ele>
        <time>2022-06-09T15:09:03Z</time>
      </trkpt>
      <trkpt lat="44.84288" lon="4.12399">
        <ele>1194.5</ele>
        <time>2022-06-09T15:09:04Z</time>
      </trkpt>
      <trkpt lat="44.84281" lon="4.12397">
        <ele>1194.4</ele>
        <time>2022-06-09T15:09:05Z</time>
      </trkpt>
      <trkpt lat="44.84275" lon="4.12395">
        <ele>1194.3</ele>
        <time>2022-06-09T15:09:06Z</time>
      </trkpt>
      <trkpt lat="44.84268" lon="4.12393">
        <ele>1194.2</ele>
        <time>2022-06-09T15:09:07Z</time>
      </trkpt>
      <trkpt lat="44.84262" lon="4.12391">
        <ele>1194.1</ele>
        <time>2022-06-09T15:09:08Z</time>
      </trkpt>
      <trkpt lat="44.84255" lon="4.12389">
        <ele>1194</ele>
        <time>2022-06-09T15:09:09Z</time>
      </trkpt>
      <trkpt lat="44.84249" lon="4.12385">
        <ele>1193.9</ele>
        <time>2022-06-09T15:09:10Z</time>
      </trkpt>
      <trkpt lat="44.84242" lon="4.1238">
        <ele>1193.8</ele>
        <time>2022-06-09T15:09:11Z</time>
      </trkpt>
      <trkpt lat="44.84237" lon="4.12373">
        <ele>1193.7</ele>
        <time>2022-06-09T15:09:12Z</time>
      </trkpt>
      <trkpt lat="44.84233" lon="4.12364">
        <ele>1193.7</ele>
        <time>2022-06-09T15:09:13Z</time>
      </trkpt>
      <trkpt lat="44.84231" lon="4.12354">
        <ele>1193.6</ele>
        <time>2022-06-09T15:09:14Z</time>
      </trkpt>
      <trkpt lat="44.84231" lon="4.12344">
        <ele>1193.5</ele>
        <time>2022-06-09T15:09:15Z</time>
      </trkpt>
      <trkpt lat="44.84232" lon="4.12334">
        <ele>1193.4</ele>
        <time>2022-06-09T15:09:16Z</time>
      </trkpt>
      <trkpt lat="44.84233" lon="4.12325">
        <ele>1193.3</ele>
        <time>2022-06-09T15:09:17Z</time>
      </trkpt>
      <trkpt lat="44.84234" lon="4.12315">
        <ele>1193.1</ele>
        <time>2022-06-09T15:09:18Z</time>
      </trkpt>
      <trkpt lat="44.84235" lon="4.12306">
        <ele>1193</ele>
        <time>2022-06-09T15:09:19Z</time>
      </trkpt>
      <trkpt lat="44.84236" lon="4.12296">
        <ele>1193</ele>
        <time>2022-06-09T15:09:20Z</time>
      </trkpt>
      <trkpt lat="44.84237" lon="4.12287">
        <ele>1192.9</ele>
        <time>2022-06-09T15:09:21Z</time>
      </trkpt>
      <trkpt lat="44.84238" lon="4.12278">
        <ele>1192.8</ele>
        <time>2022-06-09T15:09:22Z</time>
      </trkpt>
      <trkpt lat="44.84239" lon="4.1227">
        <ele>1192.8</ele>
        <time>2022-06-09T15:09:23Z</time>
      </trkpt>
      <trkpt lat="44.84239" lon="4.12261">
        <ele>1192.7</ele>
        <time>2022-06-09T15:09:24Z</time>
      </trkpt>
      <trkpt lat="44.8424" lon="4.12252">
        <ele>1192.6</ele>
        <time>2022-06-09T15:09:25Z</time>
      </trkpt>
      <trkpt lat="44.84242" lon="4.12243">
        <ele>1192.6</ele>
        <time>2022-06-09T15:09:26Z</time>
      </trkpt>
      <trkpt lat="44.84243" lon="4.12234">
        <ele>1192.5</ele>
        <time>2022-06-09T15:09:27Z</time>
      </trkpt>
      <trkpt lat="44.84243" lon="4.12225">
        <ele>1192.4</ele>
        <time>2022-06-09T15:09:28Z</time>
      </trkpt>
      <trkpt lat="44.84244" lon="4.12217">
        <ele>1192.4</ele>
        <time>2022-06-09T15:09:29Z</time>
      </trkpt>
      <trkpt lat="44.84244" lon="4.12208">
        <ele>1192.3</ele>
        <time>2022-06-09T15:09:30Z</time>
      </trkpt>
      <trkpt lat="44.84244" lon="4.12199">
        <ele>1192.3</ele>
        <time>2022-06-09T15:09:31Z</time>
      </trkpt>
      <trkpt lat="44.84245" lon="4.12191">
        <ele>1192.2</ele>
        <time>2022-06-09T15:09:32Z</time>
      </trkpt>
      <trkpt lat="44.84245" lon="4.12183">
        <ele>1192.2</ele>
        <time>2022-06-09T15:09:33Z</time>
      </trkpt>
      <trkpt lat="44.84245" lon="4.12175">
        <ele>1192.1</ele>
        <time>2022-06-09T15:09:34Z</time>
      </trkpt>
      <trkpt lat="44.84245" lon="4.12166">
        <ele>1192.1</ele>
        <time>2022-06-09T15:09:35Z</time>
      </trkpt>
      <trkpt lat="44.84245" lon="4.12158">
        <ele>1192</ele>
        <time>2022-06-09T15:09:36Z</time>
      </trkpt>
      <trkpt lat="44.84245" lon="4.1215">
        <ele>1191.9</ele>
        <time>2022-06-09T15:09:37Z</time>
      </trkpt>
      <trkpt lat="44.84245" lon="4.12141">
        <ele>1191.8</ele>
        <time>2022-06-09T15:09:38Z</time>
      </trkpt>
      <trkpt lat="44.84245" lon="4.12133">
        <ele>1191.7</ele>
        <time>2022-06-09T15:09:39Z</time>
      </trkpt>
      <trkpt lat="44.84244" lon="4.12125">
        <ele>1191.6</ele>
        <time>2022-06-09T15:09:40Z</time>
      </trkpt>
      <trkpt lat="44.84244" lon="4.12117">
        <ele>1191.6</ele>
        <time>2022-06-09T15:09:41Z</time>
      </trkpt>
      <trkpt lat="44.84243" lon="4.12109">
        <ele>1191.5</ele>
        <time>2022-06-09T15:09:42Z</time>
      </trkpt>
      <trkpt lat="44.84242" lon="4.12101">
        <ele>1191.4</ele>
        <time>2022-06-09T15:09:43Z</time>
      </trkpt>
      <trkpt lat="44.84241" lon="4.12093">
        <ele>1191.3</ele>
        <time>2022-06-09T15:09:44Z</time>
      </trkpt>
      <trkpt lat="44.84239" lon="4.12085">
        <ele>1191.3</ele>
        <time>2022-06-09T15:09:45Z</time>
      </trkpt>
      <trkpt lat="44.84238" lon="4.12077">
        <ele>1191.2</ele>
        <time>2022-06-09T15:09:46Z</time>
      </trkpt>
      <trkpt lat="44.84236" lon="4.12069">
        <ele>1191.2</ele>
        <time>2022-06-09T15:09:47Z</time>
      </trkpt>
      <trkpt lat="44.84234" lon="4.12061">
        <ele>1191.1</ele>
        <time>2022-06-09T15:09:48Z</time>
      </trkpt>
      <trkpt lat="44.84231" lon="4.12054">
        <ele>1191.1</ele>
        <time>2022-06-09T15:09:49Z</time>
      </trkpt>
      <trkpt lat="44.8423" lon="4.12046">
        <ele>1191</ele>
        <time>2022-06-09T15:09:50Z</time>
      </trkpt>
      <trkpt lat="44.84227" lon="4.12039">
        <ele>1191</ele>
        <time>2022-06-09T15:09:51Z</time>
      </trkpt>
      <trkpt lat="44.84225" lon="4.12031">
        <ele>1190.9</ele>
        <time>2022-06-09T15:09:52Z</time>
      </trkpt>
      <trkpt lat="44.84223" lon="4.12024">
        <ele>1190.8</ele>
        <time>2022-06-09T15:09:53Z</time>
      </trkpt>
      <trkpt lat="44.84221" lon="4.12016">
        <ele>1190.7</ele>
        <time>2022-06-09T15:09:54Z</time>
      </trkpt>
      <trkpt lat="44.84218" lon="4.12009">
        <ele>1190.6</ele>
        <time>2022-06-09T15:09:55Z</time>
      </trkpt>
      <trkpt lat="44.84216" lon="4.12001">
        <ele>1190.5</ele>
        <time>2022-06-09T15:09:56Z</time>
      </trkpt>
      <trkpt lat="44.84214" lon="4.11994">
        <ele>1190.4</ele>
        <time>2022-06-09T15:09:57Z</time>
      </trkpt>
      <trkpt lat="44.84212" lon="4.11986">
        <ele>1190.4</ele>
        <time>2022-06-09T15:09:58Z</time>
      </trkpt>
      <trkpt lat="44.84211" lon="4.11979">
        <ele>1190.3</ele>
        <time>2022-06-09T15:09:59Z</time>
      </trkpt>
      <trkpt lat="44.84211" lon="4.11972">
        <ele>1190.3</ele>
        <time>2022-06-09T15:10:00Z</time>
      </trkpt>
      <trkpt lat="44.84211" lon="4.11965">
        <ele>1190.2</ele>
        <time>2022-06-09T15:10:01Z</time>
      </trkpt>
      <trkpt lat="44.8421" lon="4.11958">
        <ele>1190.2</ele>
        <time>2022-06-09T15:10:02Z</time>
      </trkpt>
      <trkpt lat="44.8421" lon="4.11951">
        <ele>1190.1</ele>
        <time>2022-06-09T15:10:03Z</time>
      </trkpt>
      <trkpt lat="44.84211" lon="4.11944">
        <ele>1190.1</ele>
        <time>2022-06-09T15:10:04Z</time>
      </trkpt>
      <trkpt lat="44.84211" lon="4.11937">
        <ele>1190</ele>
        <time>2022-06-09T15:10:05Z</time>
      </trkpt>
      <trkpt lat="44.84211" lon="4.11929">
        <ele>1190</ele>
        <time>2022-06-09T15:10:06Z</time>
      </trkpt>
      <trkpt lat="44.84212" lon="4.11922">
        <ele>1189.9</ele>
        <time>2022-06-09T15:10:07Z</time>
      </trkpt>
      <trkpt lat="44.84214" lon="4.11915">
        <ele>1189.8</ele>
        <time>2022-06-09T15:10:08Z</time>
      </trkpt>
      <trkpt lat="44.84217" lon="4.11907">
        <ele>1189.7</ele>
        <time>2022-06-09T15:10:09Z</time>
      </trkpt>
      <trkpt lat="44.84219" lon="4.119">
        <ele>1189.6</ele>
        <time>2022-06-09T15:10:10Z</time>
      </trkpt>
      <trkpt lat="44.84222" lon="4.11894">
        <ele>1189.5</ele>
        <time>2022-06-09T15:10:11Z</time>
      </trkpt>
      <trkpt lat="44.84226" lon="4.11888">
        <ele>1189.4</ele>
        <time>2022-06-09T15:10:12Z</time>
      </trkpt>
      <trkpt lat="44.8423" lon="4.11882">
        <ele>1189.3</ele>
        <time>2022-06-09T15:10:13Z</time>
      </trkpt>
      <trkpt lat="44.84234" lon="4.11876">
        <ele>1189.1</ele>
        <time>2022-06-09T15:10:14Z</time>
      </trkpt>
      <trkpt lat="44.84239" lon="4.11871">
        <ele>1189.1</ele>
        <time>2022-06-09T15:10:15Z</time>
      </trkpt>
      <trkpt lat="44.84243" lon="4.11867">
        <ele>1189</ele>
        <time>2022-06-09T15:10:16Z</time>
      </trkpt>
      <trkpt lat="44.84247" lon="4.11862">
        <ele>1188.9</ele>
        <time>2022-06-09T15:10:17Z</time>
      </trkpt>
      <trkpt lat="44.84252" lon="4.11858">
        <ele>1188.9</ele>
        <time>2022-06-09T15:10:18Z</time>
      </trkpt>
      <trkpt lat="44.84257" lon="4.11854">
        <ele>1188.8</ele>
        <time>2022-06-09T15:10:19Z</time>
      </trkpt>
      <trkpt lat="44.84262" lon="4.1185">
        <ele>1188.8</ele>
        <time>2022-06-09T15:10:20Z</time>
      </trkpt>
      <trkpt lat="44.84266" lon="4.11846">
        <ele>1188.8</ele>
        <time>2022-06-09T15:10:21Z</time>
      </trkpt>
      <trkpt lat="44.84271" lon="4.11843">
        <ele>1188.7</ele>
        <time>2022-06-09T15:10:22Z</time>
      </trkpt>
      <trkpt lat="44.84276" lon="4.11839">
        <ele>1188.7</ele>
        <time>2022-06-09T15:10:23Z</time>
      </trkpt>
      <trkpt lat="44.84279" lon="4.11837">
        <ele>1188.6</ele>
        <time>2022-06-09T15:10:24Z</time>
      </trkpt>
      <trkpt lat="44.84281" lon="4.11836">
        <ele>1188.6</ele>
        <time>2022-06-09T15:10:25Z</time>
      </trkpt>
      <trkpt lat="44.84283" lon="4.11835">
        <ele>1188.6</ele>
        <time>2022-06-09T15:10:26Z</time>
      </trkpt>
      <trkpt lat="44.84284" lon="4.11834">
        <ele>1188.6</ele>
        <time>2022-06-09T15:10:27Z</time>
      </trkpt>
      <trkpt lat="44.84284" lon="4.11834">
        <ele>1188.6</ele>
        <time>2022-06-09T15:10:28Z</time>
      </trkpt>
      <trkpt lat="44.84283" lon="4.11834">
        <ele>1188.6</ele>
        <time>2022-06-09T15:10:29Z</time>
      </trkpt>
      <trkpt lat="44.84283" lon="4.11834">
        <ele>1188.6</ele>
        <time>2022-06-09T15:10:30Z</time>
      </trkpt>
      <trkpt lat="44.84283" lon="4.11834">
        <ele>1188.6</ele>
        <time>2022-06-09T15:10:31Z</time>
      </trkpt>
      <trkpt lat="44.84283" lon="4.11834">
        <ele>1188.6</ele>
        <time>2022-06-09T15:10:33Z</time>
      </trkpt>
      <trkpt lat="44.84283" lon="4.11834">
        <ele>1188.6</ele>
        <time>2022-06-09T15:10:35Z</time>
      </trkpt>
      <trkpt lat="44.84283" lon="4.11833">
        <ele>1188.6</ele>
        <time>2022-06-09T15:10:36Z</time>
      </trkpt>
      <trkpt lat="44.84283" lon="4.11833">
        <ele>1188.6</ele>
        <time>2022-06-09T15:10:37Z</time>
      </trkpt>
      <trkpt lat="44.84283" lon="4.11833">
        <ele>1188.6</ele>
        <time>2022-06-09T15:10:38Z</time>
      </trkpt>
      <trkpt lat="44.84283" lon="4.11833">
        <ele>1188.6</ele>
        <time>2022-06-09T15:10:39Z</time>
      </trkpt>
      <trkpt lat="44.84287" lon="4.1183">
        <ele>1188.6</ele>
        <time>2022-06-09T15:10:56Z</time>
      </trkpt>
      <trkpt lat="44.84291" lon="4.11825">
        <ele>1188.5</ele>
        <time>2022-06-09T15:10:58Z</time>
      </trkpt>
      <trkpt lat="44.84293" lon="4.11822">
        <ele>1188.5</ele>
        <time>2022-06-09T15:10:59Z</time>
      </trkpt>
      <trkpt lat="44.84296" lon="4.11819">
        <ele>1188.4</ele>
        <time>2022-06-09T15:11:00Z</time>
      </trkpt>
      <trkpt lat="44.84299" lon="4.11816">
        <ele>1188.4</ele>
        <time>2022-06-09T15:11:02Z</time>
      </trkpt>
      <trkpt lat="44.84303" lon="4.11812">
        <ele>1188.3</ele>
        <time>2022-06-09T15:11:03Z</time>
      </trkpt>
      <trkpt lat="44.84306" lon="4.11809">
        <ele>1188.3</ele>
        <time>2022-06-09T15:11:04Z</time>
      </trkpt>
      <trkpt lat="44.84309" lon="4.11805">
        <ele>1188.2</ele>
        <time>2022-06-09T15:11:05Z</time>
      </trkpt>
      <trkpt lat="44.84313" lon="4.118">
        <ele>1188.2</ele>
        <time>2022-06-09T15:11:06Z</time>
      </trkpt>
      <trkpt lat="44.84316" lon="4.11795">
        <ele>1188.1</ele>
        <time>2022-06-09T15:11:07Z</time>
      </trkpt>
      <trkpt lat="44.8432" lon="4.1179">
        <ele>1188.1</ele>
        <time>2022-06-09T15:11:08Z</time>
      </trkpt>
      <trkpt lat="44.84323" lon="4.11786">
        <ele>1188</ele>
        <time>2022-06-09T15:11:10Z</time>
      </trkpt>
      <trkpt lat="44.84326" lon="4.11782">
        <ele>1188</ele>
        <time>2022-06-09T15:11:11Z</time>
      </trkpt>
      <trkpt lat="44.8433" lon="4.11776">
        <ele>1187.9</ele>
        <time>2022-06-09T15:11:12Z</time>
      </trkpt>
      <trkpt lat="44.84332" lon="4.11772">
        <ele>1187.9</ele>
        <time>2022-06-09T15:11:13Z</time>
      </trkpt>
      <trkpt lat="44.84336" lon="4.11765">
        <ele>1187.8</ele>
        <time>2022-06-09T15:11:15Z</time>
      </trkpt>
      <trkpt lat="44.84339" lon="4.1176">
        <ele>1187.8</ele>
        <time>2022-06-09T15:11:16Z</time>
      </trkpt>
      <trkpt lat="44.84343" lon="4.11753">
        <ele>1187.8</ele>
        <time>2022-06-09T15:11:17Z</time>
      </trkpt>
      <trkpt lat="44.84345" lon="4.11747">
        <ele>1187.8</ele>
        <time>2022-06-09T15:11:18Z</time>
      </trkpt>
      <trkpt lat="44.84349" lon="4.11741">
        <ele>1187.7</ele>
        <time>2022-06-09T15:11:19Z</time>
      </trkpt>
      <trkpt lat="44.84351" lon="4.11735">
        <ele>1187.7</ele>
        <time>2022-06-09T15:11:21Z</time>
      </trkpt>
      <trkpt lat="44.84354" lon="4.1173">
        <ele>1187.7</ele>
        <time>2022-06-09T15:11:22Z</time>
      </trkpt>
      <trkpt lat="44.84357" lon="4.11722">
        <ele>1187.7</ele>
        <time>2022-06-09T15:11:23Z</time>
      </trkpt>
      <trkpt lat="44.84361" lon="4.11715">
        <ele>1187.6</ele>
        <time>2022-06-09T15:11:25Z</time>
      </trkpt>
      <trkpt lat="44.84364" lon="4.11705">
        <ele>1187.5</ele>
        <time>2022-06-09T15:11:26Z</time>
      </trkpt>
      <trkpt lat="44.84366" lon="4.117">
        <ele>1187.5</ele>
        <time>2022-06-09T15:11:27Z</time>
      </trkpt>
      <trkpt lat="44.84368" lon="4.11693">
        <ele>1187.4</ele>
        <time>2022-06-09T15:11:28Z</time>
      </trkpt>
      <trkpt lat="44.84369" lon="4.11687">
        <ele>1187.4</ele>
        <time>2022-06-09T15:11:30Z</time>
      </trkpt>
      <trkpt lat="44.84369" lon="4.11681">
        <ele>1187.3</ele>
        <time>2022-06-09T15:11:31Z</time>
      </trkpt>
      <trkpt lat="44.84368" lon="4.11673">
        <ele>1187.2</ele>
        <time>2022-06-09T15:11:32Z</time>
      </trkpt>
      <trkpt lat="44.84368" lon="4.11666">
        <ele>1187</ele>
        <time>2022-06-09T15:11:33Z</time>
      </trkpt>
      <trkpt lat="44.84367" lon="4.11659">
        <ele>1186.9</ele>
        <time>2022-06-09T15:11:34Z</time>
      </trkpt>
      <trkpt lat="44.84365" lon="4.11652">
        <ele>1186.8</ele>
        <time>2022-06-09T15:11:35Z</time>
      </trkpt>
      <trkpt lat="44.84362" lon="4.11646">
        <ele>1186.7</ele>
        <time>2022-06-09T15:11:36Z</time>
      </trkpt>
      <trkpt lat="44.84358" lon="4.1164">
        <ele>1186.6</ele>
        <time>2022-06-09T15:11:37Z</time>
      </trkpt>
      <trkpt lat="44.84353" lon="4.11635">
        <ele>1186.5</ele>
        <time>2022-06-09T15:11:38Z</time>
      </trkpt>
      <trkpt lat="44.84348" lon="4.11631">
        <ele>1186.4</ele>
        <time>2022-06-09T15:11:39Z</time>
      </trkpt>
      <trkpt lat="44.84342" lon="4.11629">
        <ele>1186.3</ele>
        <time>2022-06-09T15:11:40Z</time>
      </trkpt>
      <trkpt lat="44.84336" lon="4.11628">
        <ele>1186.2</ele>
        <time>2022-06-09T15:11:41Z</time>
      </trkpt>
      <trkpt lat="44.84329" lon="4.11627">
        <ele>1186.1</ele>
        <time>2022-06-09T15:11:42Z</time>
      </trkpt>
      <trkpt lat="44.84323" lon="4.11628">
        <ele>1186</ele>
        <time>2022-06-09T15:11:43Z</time>
      </trkpt>
      <trkpt lat="44.84317" lon="4.11628">
        <ele>1185.9</ele>
        <time>2022-06-09T15:11:44Z</time>
      </trkpt>
      <trkpt lat="44.8431" lon="4.11629">
        <ele>1185.8</ele>
        <time>2022-06-09T15:11:45Z</time>
      </trkpt>
      <trkpt lat="44.84304" lon="4.11629">
        <ele>1185.8</ele>
        <time>2022-06-09T15:11:46Z</time>
      </trkpt>
      <trkpt lat="44.84297" lon="4.1163">
        <ele>1185.7</ele>
        <time>2022-06-09T15:11:47Z</time>
      </trkpt>
      <trkpt lat="44.84291" lon="4.1163">
        <ele>1185.7</ele>
        <time>2022-06-09T15:11:48Z</time>
      </trkpt>
      <trkpt lat="44.84284" lon="4.1163">
        <ele>1185.6</ele>
        <time>2022-06-09T15:11:49Z</time>
      </trkpt>
      <trkpt lat="44.84277" lon="4.11629">
        <ele>1185.6</ele>
        <time>2022-06-09T15:11:50Z</time>
      </trkpt>
      <trkpt lat="44.84271" lon="4.11627">
        <ele>1185.6</ele>
        <time>2022-06-09T15:11:51Z</time>
      </trkpt>
      <trkpt lat="44.84265" lon="4.11625">
        <ele>1185.5</ele>
        <time>2022-06-09T15:11:52Z</time>
      </trkpt>
      <trkpt lat="44.84259" lon="4.11622">
        <ele>1185.5</ele>
        <time>2022-06-09T15:11:53Z</time>
      </trkpt>
      <trkpt lat="44.84253" lon="4.11618">
        <ele>1185.5</ele>
        <time>2022-06-09T15:11:54Z</time>
      </trkpt>
      <trkpt lat="44.84247" lon="4.11614">
        <ele>1185.4</ele>
        <time>2022-06-09T15:11:55Z</time>
      </trkpt>
      <trkpt lat="44.84242" lon="4.1161">
        <ele>1185.4</ele>
        <time>2022-06-09T15:11:56Z</time>
      </trkpt>
      <trkpt lat="44.84236" lon="4.11605">
        <ele>1185.3</ele>
        <time>2022-06-09T15:11:57Z</time>
      </trkpt>
      <trkpt lat="44.8423" lon="4.11601">
        <ele>1185.3</ele>
        <time>2022-06-09T15:11:58Z</time>
      </trkpt>
      <trkpt lat="44.84225" lon="4.11597">
        <ele>1185.2</ele>
        <time>2022-06-09T15:11:59Z</time>
      </trkpt>
      <trkpt lat="44.84219" lon="4.11592">
        <ele>1185.2</ele>
        <time>2022-06-09T15:12:00Z</time>
      </trkpt>
      <trkpt lat="44.84213" lon="4.11588">
        <ele>1185.1</ele>
        <time>2022-06-09T15:12:01Z</time>
      </trkpt>
      <trkpt lat="44.84208" lon="4.11582">
        <ele>1185</ele>
        <time>2022-06-09T15:12:02Z</time>
      </trkpt>
      <trkpt lat="44.84204" lon="4.11575">
        <ele>1184.9</ele>
        <time>2022-06-09T15:12:03Z</time>
      </trkpt>
      <trkpt lat="44.842" lon="4.11566">
        <ele>1184.8</ele>
        <time>2022-06-09T15:12:04Z</time>
      </trkpt>
      <trkpt lat="44.84198" lon="4.11557">
        <ele>1184.7</ele>
        <time>2022-06-09T15:12:05Z</time>
      </trkpt>
      <trkpt lat="44.84198" lon="4.11547">
        <ele>1184.7</ele>
        <time>2022-06-09T15:12:06Z</time>
      </trkpt>
      <trkpt lat="44.84199" lon="4.11538">
        <ele>1184.6</ele>
        <time>2022-06-09T15:12:07Z</time>
      </trkpt>
      <trkpt lat="44.842" lon="4.11529">
        <ele>1184.6</ele>
        <time>2022-06-09T15:12:08Z</time>
      </trkpt>
      <trkpt lat="44.84202" lon="4.11521">
        <ele>1184.6</ele>
        <time>2022-06-09T15:12:09Z</time>
      </trkpt>
      <trkpt lat="44.84204" lon="4.11513">
        <ele>1184.5</ele>
        <time>2022-06-09T15:12:10Z</time>
      </trkpt>
      <trkpt lat="44.84205" lon="4.11505">
        <ele>1184.5</ele>
        <time>2022-06-09T15:12:11Z</time>
      </trkpt>
      <trkpt lat="44.84207" lon="4.11497">
        <ele>1184.5</ele>
        <time>2022-06-09T15:12:12Z</time>
      </trkpt>
      <trkpt lat="44.84208" lon="4.11489">
        <ele>1184.4</ele>
        <time>2022-06-09T15:12:13Z</time>
      </trkpt>
      <trkpt lat="44.84209" lon="4.11482">
        <ele>1184.4</ele>
        <time>2022-06-09T15:12:14Z</time>
      </trkpt>
      <trkpt lat="44.84211" lon="4.11475">
        <ele>1184.3</ele>
        <time>2022-06-09T15:12:15Z</time>
      </trkpt>
      <trkpt lat="44.84212" lon="4.11468">
        <ele>1184.3</ele>
        <time>2022-06-09T15:12:16Z</time>
      </trkpt>
      <trkpt lat="44.84212" lon="4.11462">
        <ele>1184.2</ele>
        <time>2022-06-09T15:12:17Z</time>
      </trkpt>
      <trkpt lat="44.84213" lon="4.11455">
        <ele>1184.1</ele>
        <time>2022-06-09T15:12:18Z</time>
      </trkpt>
      <trkpt lat="44.84214" lon="4.11449">
        <ele>1184.1</ele>
        <time>2022-06-09T15:12:19Z</time>
      </trkpt>
      <trkpt lat="44.84214" lon="4.11442">
        <ele>1184</ele>
        <time>2022-06-09T15:12:20Z</time>
      </trkpt>
      <trkpt lat="44.84215" lon="4.11435">
        <ele>1183.9</ele>
        <time>2022-06-09T15:12:21Z</time>
      </trkpt>
      <trkpt lat="44.84216" lon="4.11428">
        <ele>1183.8</ele>
        <time>2022-06-09T15:12:22Z</time>
      </trkpt>
      <trkpt lat="44.84216" lon="4.11421">
        <ele>1183.7</ele>
        <time>2022-06-09T15:12:23Z</time>
      </trkpt>
      <trkpt lat="44.84215" lon="4.11414">
        <ele>1183.6</ele>
        <time>2022-06-09T15:12:24Z</time>
      </trkpt>
      <trkpt lat="44.84214" lon="4.11406">
        <ele>1183.5</ele>
        <time>2022-06-09T15:12:25Z</time>
      </trkpt>
      <trkpt lat="44.84212" lon="4.11399">
        <ele>1183.4</ele>
        <time>2022-06-09T15:12:26Z</time>
      </trkpt>
      <trkpt lat="44.8421" lon="4.11392">
        <ele>1183.3</ele>
        <time>2022-06-09T15:12:27Z</time>
      </trkpt>
      <trkpt lat="44.84207" lon="4.11385">
        <ele>1183.2</ele>
        <time>2022-06-09T15:12:28Z</time>
      </trkpt>
      <trkpt lat="44.84205" lon="4.11377">
        <ele>1183.1</ele>
        <time>2022-06-09T15:12:29Z</time>
      </trkpt>
      <trkpt lat="44.84202" lon="4.11371">
        <ele>1183</ele>
        <time>2022-06-09T15:12:30Z</time>
      </trkpt>
      <trkpt lat="44.84198" lon="4.11365">
        <ele>1182.9</ele>
        <time>2022-06-09T15:12:31Z</time>
      </trkpt>
      <trkpt lat="44.84194" lon="4.11359">
        <ele>1182.9</ele>
        <time>2022-06-09T15:12:32Z</time>
      </trkpt>
      <trkpt lat="44.8419" lon="4.11353">
        <ele>1182.8</ele>
        <time>2022-06-09T15:12:33Z</time>
      </trkpt>
      <trkpt lat="44.84186" lon="4.11348">
        <ele>1182.7</ele>
        <time>2022-06-09T15:12:34Z</time>
      </trkpt>
      <trkpt lat="44.84182" lon="4.11343">
        <ele>1182.6</ele>
        <time>2022-06-09T15:12:35Z</time>
      </trkpt>
      <trkpt lat="44.84177" lon="4.11338">
        <ele>1182.5</ele>
        <time>2022-06-09T15:12:36Z</time>
      </trkpt>
      <trkpt lat="44.84173" lon="4.11334">
        <ele>1182.4</ele>
        <time>2022-06-09T15:12:37Z</time>
      </trkpt>
      <trkpt lat="44.84169" lon="4.11329">
        <ele>1182.3</ele>
        <time>2022-06-09T15:12:38Z</time>
      </trkpt>
      <trkpt lat="44.84164" lon="4.11325">
        <ele>1182.1</ele>
        <time>2022-06-09T15:12:39Z</time>
      </trkpt>
      <trkpt lat="44.84159" lon="4.1132">
        <ele>1182</ele>
        <time>2022-06-09T15:12:40Z</time>
      </trkpt>
      <trkpt lat="44.84154" lon="4.11315">
        <ele>1181.8</ele>
        <time>2022-06-09T15:12:41Z</time>
      </trkpt>
      <trkpt lat="44.84149" lon="4.1131">
        <ele>1181.7</ele>
        <time>2022-06-09T15:12:42Z</time>
      </trkpt>
      <trkpt lat="44.84143" lon="4.11305">
        <ele>1181.6</ele>
        <time>2022-06-09T15:12:43Z</time>
      </trkpt>
      <trkpt lat="44.84138" lon="4.113">
        <ele>1181.6</ele>
        <time>2022-06-09T15:12:44Z</time>
      </trkpt>
      <trkpt lat="44.84132" lon="4.11295">
        <ele>1181.5</ele>
        <time>2022-06-09T15:12:45Z</time>
      </trkpt>
      <trkpt lat="44.84127" lon="4.11289">
        <ele>1181.4</ele>
        <time>2022-06-09T15:12:46Z</time>
      </trkpt>
      <trkpt lat="44.84122" lon="4.11282">
        <ele>1181.4</ele>
        <time>2022-06-09T15:12:47Z</time>
      </trkpt>
      <trkpt lat="44.84118" lon="4.11274">
        <ele>1181.4</ele>
        <time>2022-06-09T15:12:48Z</time>
      </trkpt>
      <trkpt lat="44.84117" lon="4.11265">
        <ele>1181.4</ele>
        <time>2022-06-09T15:12:49Z</time>
      </trkpt>
      <trkpt lat="44.84117" lon="4.11254">
        <ele>1181.3</ele>
        <time>2022-06-09T15:12:50Z</time>
      </trkpt>
      <trkpt lat="44.84119" lon="4.11244">
        <ele>1181.2</ele>
        <time>2022-06-09T15:12:51Z</time>
      </trkpt>
      <trkpt lat="44.84122" lon="4.11235">
        <ele>1181.1</ele>
        <time>2022-06-09T15:12:52Z</time>
      </trkpt>
      <trkpt lat="44.84126" lon="4.11227">
        <ele>1181.1</ele>
        <time>2022-06-09T15:12:53Z</time>
      </trkpt>
      <trkpt lat="44.8413" lon="4.1122">
        <ele>1181.1</ele>
        <time>2022-06-09T15:12:54Z</time>
      </trkpt>
      <trkpt lat="44.84133" lon="4.11213">
        <ele>1181</ele>
        <time>2022-06-09T15:12:55Z</time>
      </trkpt>
      <trkpt lat="44.84136" lon="4.11205">
        <ele>1181</ele>
        <time>2022-06-09T15:12:56Z</time>
      </trkpt>
      <trkpt lat="44.8414" lon="4.11198">
        <ele>1181.1</ele>
        <time>2022-06-09T15:12:57Z</time>
      </trkpt>
      <trkpt lat="44.84143" lon="4.11191">
        <ele>1181.1</ele>
        <time>2022-06-09T15:12:58Z</time>
      </trkpt>
      <trkpt lat="44.84146" lon="4.11184">
        <ele>1181.1</ele>
        <time>2022-06-09T15:12:59Z</time>
      </trkpt>
      <trkpt lat="44.84148" lon="4.11176">
        <ele>1181.1</ele>
        <time>2022-06-09T15:13:00Z</time>
      </trkpt>
      <trkpt lat="44.84149" lon="4.11169">
        <ele>1181.1</ele>
        <time>2022-06-09T15:13:01Z</time>
      </trkpt>
      <trkpt lat="44.8415" lon="4.11161">
        <ele>1181.1</ele>
        <time>2022-06-09T15:13:02Z</time>
      </trkpt>
      <trkpt lat="44.8415" lon="4.11153">
        <ele>1181</ele>
        <time>2022-06-09T15:13:03Z</time>
      </trkpt>
      <trkpt lat="44.84148" lon="4.11145">
        <ele>1180.9</ele>
        <time>2022-06-09T15:13:04Z</time>
      </trkpt>
      <trkpt lat="44.84146" lon="4.11138">
        <ele>1180.9</ele>
        <time>2022-06-09T15:13:05Z</time>
      </trkpt>
      <trkpt lat="44.84143" lon="4.1113">
        <ele>1180.8</ele>
        <time>2022-06-09T15:13:06Z</time>
      </trkpt>
      <trkpt lat="44.84141" lon="4.11123">
        <ele>1180.7</ele>
        <time>2022-06-09T15:13:07Z</time>
      </trkpt>
      <trkpt lat="44.84137" lon="4.11115">
        <ele>1180.6</ele>
        <time>2022-06-09T15:13:08Z</time>
      </trkpt>
      <trkpt lat="44.84134" lon="4.11108">
        <ele>1180.5</ele>
        <time>2022-06-09T15:13:09Z</time>
      </trkpt>
      <trkpt lat="44.84131" lon="4.111">
        <ele>1180.5</ele>
        <time>2022-06-09T15:13:10Z</time>
      </trkpt>
      <trkpt lat="44.84128" lon="4.11092">
        <ele>1180.4</ele>
        <time>2022-06-09T15:13:11Z</time>
      </trkpt>
      <trkpt lat="44.84124" lon="4.11084">
        <ele>1180.3</ele>
        <time>2022-06-09T15:13:12Z</time>
      </trkpt>
      <trkpt lat="44.84121" lon="4.11077">
        <ele>1180.3</ele>
        <time>2022-06-09T15:13:13Z</time>
      </trkpt>
      <trkpt lat="44.84118" lon="4.11068">
        <ele>1180.2</ele>
        <time>2022-06-09T15:13:14Z</time>
      </trkpt>
      <trkpt lat="44.84114" lon="4.1106">
        <ele>1180.1</ele>
        <time>2022-06-09T15:13:15Z</time>
      </trkpt>
      <trkpt lat="44.84111" lon="4.11052">
        <ele>1180</ele>
        <time>2022-06-09T15:13:16Z</time>
      </trkpt>
      <trkpt lat="44.84108" lon="4.11044">
        <ele>1180</ele>
        <time>2022-06-09T15:13:17Z</time>
      </trkpt>
      <trkpt lat="44.84106" lon="4.11035">
        <ele>1179.9</ele>
        <time>2022-06-09T15:13:18Z</time>
      </trkpt>
      <trkpt lat="44.84105" lon="4.11026">
        <ele>1179.9</ele>
        <time>2022-06-09T15:13:19Z</time>
      </trkpt>
      <trkpt lat="44.84104" lon="4.11017">
        <ele>1179.8</ele>
        <time>2022-06-09T15:13:20Z</time>
      </trkpt>
      <trkpt lat="44.84102" lon="4.11008">
        <ele>1179.7</ele>
        <time>2022-06-09T15:13:21Z</time>
      </trkpt>
      <trkpt lat="44.84099" lon="4.10998">
        <ele>1179.6</ele>
        <time>2022-06-09T15:13:22Z</time>
      </trkpt>
      <trkpt lat="44.84099" lon="4.10989">
        <ele>1179.5</ele>
        <time>2022-06-09T15:13:23Z</time>
      </trkpt>
      <trkpt lat="44.84097" lon="4.1098">
        <ele>1179.3</ele>
        <time>2022-06-09T15:13:24Z</time>
      </trkpt>
      <trkpt lat="44.84096" lon="4.10971">
        <ele>1179.1</ele>
        <time>2022-06-09T15:13:25Z</time>
      </trkpt>
      <trkpt lat="44.84094" lon="4.10963">
        <ele>1179</ele>
        <time>2022-06-09T15:13:26Z</time>
      </trkpt>
      <trkpt lat="44.84093" lon="4.10954">
        <ele>1178.7</ele>
        <time>2022-06-09T15:13:27Z</time>
      </trkpt>
      <trkpt lat="44.84091" lon="4.10945">
        <ele>1178.5</ele>
        <time>2022-06-09T15:13:28Z</time>
      </trkpt>
      <trkpt lat="44.8409" lon="4.10936">
        <ele>1178.3</ele>
        <time>2022-06-09T15:13:29Z</time>
      </trkpt>
      <trkpt lat="44.84088" lon="4.10927">
        <ele>1178.1</ele>
        <time>2022-06-09T15:13:30Z</time>
      </trkpt>
      <trkpt lat="44.84087" lon="4.10919">
        <ele>1177.9</ele>
        <time>2022-06-09T15:13:31Z</time>
      </trkpt>
      <trkpt lat="44.84086" lon="4.1091">
        <ele>1177.7</ele>
        <time>2022-06-09T15:13:32Z</time>
      </trkpt>
      <trkpt lat="44.84086" lon="4.10902">
        <ele>1177.5</ele>
        <time>2022-06-09T15:13:33Z</time>
      </trkpt>
      <trkpt lat="44.84085" lon="4.10894">
        <ele>1177.3</ele>
        <time>2022-06-09T15:13:34Z</time>
      </trkpt>
      <trkpt lat="44.84085" lon="4.10886">
        <ele>1177.1</ele>
        <time>2022-06-09T15:13:35Z</time>
      </trkpt>
      <trkpt lat="44.84086" lon="4.10878">
        <ele>1176.9</ele>
        <time>2022-06-09T15:13:36Z</time>
      </trkpt>
      <trkpt lat="44.84086" lon="4.1087">
        <ele>1176.7</ele>
        <time>2022-06-09T15:13:37Z</time>
      </trkpt>
      <trkpt lat="44.84087" lon="4.10861">
        <ele>1176.5</ele>
        <time>2022-06-09T15:13:38Z</time>
      </trkpt>
      <trkpt lat="44.84089" lon="4.10853">
        <ele>1176.3</ele>
        <time>2022-06-09T15:13:39Z</time>
      </trkpt>
      <trkpt lat="44.8409" lon="4.10845">
        <ele>1176.1</ele>
        <time>2022-06-09T15:13:40Z</time>
      </trkpt>
      <trkpt lat="44.84092" lon="4.10837">
        <ele>1175.9</ele>
        <time>2022-06-09T15:13:41Z</time>
      </trkpt>
      <trkpt lat="44.84093" lon="4.1083">
        <ele>1175.8</ele>
        <time>2022-06-09T15:13:42Z</time>
      </trkpt>
      <trkpt lat="44.84094" lon="4.10822">
        <ele>1175.6</ele>
        <time>2022-06-09T15:13:43Z</time>
      </trkpt>
      <trkpt lat="44.84096" lon="4.10814">
        <ele>1175.4</ele>
        <time>2022-06-09T15:13:44Z</time>
      </trkpt>
      <trkpt lat="44.84097" lon="4.10806">
        <ele>1175.2</ele>
        <time>2022-06-09T15:13:45Z</time>
      </trkpt>
      <trkpt lat="44.84098" lon="4.10798">
        <ele>1175</ele>
        <time>2022-06-09T15:13:46Z</time>
      </trkpt>
      <trkpt lat="44.841" lon="4.1079">
        <ele>1174.8</ele>
        <time>2022-06-09T15:13:47Z</time>
      </trkpt>
      <trkpt lat="44.84102" lon="4.10782">
        <ele>1174.6</ele>
        <time>2022-06-09T15:13:48Z</time>
      </trkpt>
      <trkpt lat="44.84104" lon="4.10774">
        <ele>1174.4</ele>
        <time>2022-06-09T15:13:49Z</time>
      </trkpt>
      <trkpt lat="44.84106" lon="4.10766">
        <ele>1174.2</ele>
        <time>2022-06-09T15:13:50Z</time>
      </trkpt>
      <trkpt lat="44.84107" lon="4.10758">
        <ele>1174</ele>
        <time>2022-06-09T15:13:51Z</time>
      </trkpt>
      <trkpt lat="44.84109" lon="4.1075">
        <ele>1173.8</ele>
        <time>2022-06-09T15:13:52Z</time>
      </trkpt>
      <trkpt lat="44.84111" lon="4.10742">
        <ele>1173.6</ele>
        <time>2022-06-09T15:13:53Z</time>
      </trkpt>
      <trkpt lat="44.84113" lon="4.10734">
        <ele>1173.4</ele>
        <time>2022-06-09T15:13:54Z</time>
      </trkpt>
      <trkpt lat="44.84114" lon="4.10726">
        <ele>1173.3</ele>
        <time>2022-06-09T15:13:55Z</time>
      </trkpt>
      <trkpt lat="44.84116" lon="4.10718">
        <ele>1173.1</ele>
        <time>2022-06-09T15:13:56Z</time>
      </trkpt>
      <trkpt lat="44.84117" lon="4.1071">
        <ele>1173</ele>
        <time>2022-06-09T15:13:57Z</time>
      </trkpt>
      <trkpt lat="44.84118" lon="4.10703">
        <ele>1172.9</ele>
        <time>2022-06-09T15:13:58Z</time>
      </trkpt>
      <trkpt lat="44.84119" lon="4.10696">
        <ele>1172.8</ele>
        <time>2022-06-09T15:13:59Z</time>
      </trkpt>
      <trkpt lat="44.8412" lon="4.10688">
        <ele>1172.7</ele>
        <time>2022-06-09T15:14:00Z</time>
      </trkpt>
      <trkpt lat="44.8412" lon="4.10681">
        <ele>1172.5</ele>
        <time>2022-06-09T15:14:01Z</time>
      </trkpt>
      <trkpt lat="44.8412" lon="4.10674">
        <ele>1172.4</ele>
        <time>2022-06-09T15:14:02Z</time>
      </trkpt>
      <trkpt lat="44.84119" lon="4.10667">
        <ele>1172.3</ele>
        <time>2022-06-09T15:14:03Z</time>
      </trkpt>
      <trkpt lat="44.84119" lon="4.10661">
        <ele>1172.1</ele>
        <time>2022-06-09T15:14:04Z</time>
      </trkpt>
      <trkpt lat="44.84118" lon="4.10654">
        <ele>1171.9</ele>
        <time>2022-06-09T15:14:05Z</time>
      </trkpt>
      <trkpt lat="44.84117" lon="4.10647">
        <ele>1171.8</ele>
        <time>2022-06-09T15:14:06Z</time>
      </trkpt>
      <trkpt lat="44.84117" lon="4.1064">
        <ele>1171.5</ele>
        <time>2022-06-09T15:14:07Z</time>
      </trkpt>
      <trkpt lat="44.84116" lon="4.10632">
        <ele>1171.3</ele>
        <time>2022-06-09T15:14:08Z</time>
      </trkpt>
      <trkpt lat="44.84116" lon="4.10624">
        <ele>1171.1</ele>
        <time>2022-06-09T15:14:09Z</time>
      </trkpt>
      <trkpt lat="44.84116" lon="4.10616">
        <ele>1170.9</ele>
        <time>2022-06-09T15:14:10Z</time>
      </trkpt>
      <trkpt lat="44.84118" lon="4.10607">
        <ele>1170.6</ele>
        <time>2022-06-09T15:14:11Z</time>
      </trkpt>
      <trkpt lat="44.84121" lon="4.10598">
        <ele>1170.4</ele>
        <time>2022-06-09T15:14:12Z</time>
      </trkpt>
      <trkpt lat="44.84125" lon="4.10591">
        <ele>1170.2</ele>
        <time>2022-06-09T15:14:13Z</time>
      </trkpt>
      <trkpt lat="44.8413" lon="4.10584">
        <ele>1170.1</ele>
        <time>2022-06-09T15:14:14Z</time>
      </trkpt>
      <trkpt lat="44.84135" lon="4.10578">
        <ele>1169.9</ele>
        <time>2022-06-09T15:14:15Z</time>
      </trkpt>
      <trkpt lat="44.8414" lon="4.10573">
        <ele>1169.7</ele>
        <time>2022-06-09T15:14:16Z</time>
      </trkpt>
      <trkpt lat="44.84146" lon="4.10567">
        <ele>1169.5</ele>
        <time>2022-06-09T15:14:17Z</time>
      </trkpt>
      <trkpt lat="44.84151" lon="4.10561">
        <ele>1169.3</ele>
        <time>2022-06-09T15:14:18Z</time>
      </trkpt>
      <trkpt lat="44.84157" lon="4.10555">
        <ele>1169.1</ele>
        <time>2022-06-09T15:14:19Z</time>
      </trkpt>
      <trkpt lat="44.84162" lon="4.1055">
        <ele>1168.9</ele>
        <time>2022-06-09T15:14:20Z</time>
      </trkpt>
      <trkpt lat="44.84167" lon="4.10544">
        <ele>1168.7</ele>
        <time>2022-06-09T15:14:21Z</time>
      </trkpt>
      <trkpt lat="44.84172" lon="4.10538">
        <ele>1168.5</ele>
        <time>2022-06-09T15:14:22Z</time>
      </trkpt>
      <trkpt lat="44.84177" lon="4.10532">
        <ele>1168.4</ele>
        <time>2022-06-09T15:14:23Z</time>
      </trkpt>
      <trkpt lat="44.84181" lon="4.10525">
        <ele>1168.2</ele>
        <time>2022-06-09T15:14:24Z</time>
      </trkpt>
      <trkpt lat="44.84186" lon="4.10519">
        <ele>1168.1</ele>
        <time>2022-06-09T15:14:25Z</time>
      </trkpt>
      <trkpt lat="44.8419" lon="4.10513">
        <ele>1167.9</ele>
        <time>2022-06-09T15:14:26Z</time>
      </trkpt>
      <trkpt lat="44.84193" lon="4.10507">
        <ele>1167.8</ele>
        <time>2022-06-09T15:14:27Z</time>
      </trkpt>
      <trkpt lat="44.84197" lon="4.105">
        <ele>1167.7</ele>
        <time>2022-06-09T15:14:28Z</time>
      </trkpt>
      <trkpt lat="44.842" lon="4.10493">
        <ele>1167.6</ele>
        <time>2022-06-09T15:14:29Z</time>
      </trkpt>
      <trkpt lat="44.84203" lon="4.10487">
        <ele>1167.5</ele>
        <time>2022-06-09T15:14:30Z</time>
      </trkpt>
      <trkpt lat="44.84206" lon="4.1048">
        <ele>1167.4</ele>
        <time>2022-06-09T15:14:31Z</time>
      </trkpt>
      <trkpt lat="44.84209" lon="4.10473">
        <ele>1167.3</ele>
        <time>2022-06-09T15:14:32Z</time>
      </trkpt>
      <trkpt lat="44.84212" lon="4.10466">
        <ele>1167.2</ele>
        <time>2022-06-09T15:14:33Z</time>
      </trkpt>
      <trkpt lat="44.84214" lon="4.10459">
        <ele>1167.2</ele>
        <time>2022-06-09T15:14:34Z</time>
      </trkpt>
      <trkpt lat="44.84216" lon="4.10452">
        <ele>1167.1</ele>
        <time>2022-06-09T15:14:35Z</time>
      </trkpt>
      <trkpt lat="44.84217" lon="4.10445">
        <ele>1167</ele>
        <time>2022-06-09T15:14:36Z</time>
      </trkpt>
      <trkpt lat="44.84219" lon="4.10438">
        <ele>1166.9</ele>
        <time>2022-06-09T15:14:37Z</time>
      </trkpt>
      <trkpt lat="44.84221" lon="4.1043">
        <ele>1166.8</ele>
        <time>2022-06-09T15:14:38Z</time>
      </trkpt>
      <trkpt lat="44.84222" lon="4.10422">
        <ele>1166.8</ele>
        <time>2022-06-09T15:14:39Z</time>
      </trkpt>
      <trkpt lat="44.84223" lon="4.10414">
        <ele>1166.7</ele>
        <time>2022-06-09T15:14:40Z</time>
      </trkpt>
      <trkpt lat="44.84224" lon="4.10406">
        <ele>1166.6</ele>
        <time>2022-06-09T15:14:41Z</time>
      </trkpt>
      <trkpt lat="44.84224" lon="4.10398">
        <ele>1166.6</ele>
        <time>2022-06-09T15:14:42Z</time>
      </trkpt>
      <trkpt lat="44.84224" lon="4.1039">
        <ele>1166.5</ele>
        <time>2022-06-09T15:14:43Z</time>
      </trkpt>
      <trkpt lat="44.84223" lon="4.10382">
        <ele>1166.4</ele>
        <time>2022-06-09T15:14:44Z</time>
      </trkpt>
      <trkpt lat="44.84223" lon="4.10375">
        <ele>1166.4</ele>
        <time>2022-06-09T15:14:45Z</time>
      </trkpt>
      <trkpt lat="44.84222" lon="4.10367">
        <ele>1166.3</ele>
        <time>2022-06-09T15:14:46Z</time>
      </trkpt>
      <trkpt lat="44.84221" lon="4.1036">
        <ele>1166.3</ele>
        <time>2022-06-09T15:14:47Z</time>
      </trkpt>
      <trkpt lat="44.84221" lon="4.10352">
        <ele>1166.3</ele>
        <time>2022-06-09T15:14:48Z</time>
      </trkpt>
      <trkpt lat="44.8422" lon="4.10344">
        <ele>1166.2</ele>
        <time>2022-06-09T15:14:49Z</time>
      </trkpt>
      <trkpt lat="44.84219" lon="4.10336">
        <ele>1166.2</ele>
        <time>2022-06-09T15:14:50Z</time>
      </trkpt>
      <trkpt lat="44.84218" lon="4.10329">
        <ele>1166.2</ele>
        <time>2022-06-09T15:14:51Z</time>
      </trkpt>
      <trkpt lat="44.84217" lon="4.10321">
        <ele>1166.1</ele>
        <time>2022-06-09T15:14:52Z</time>
      </trkpt>
      <trkpt lat="44.84216" lon="4.10314">
        <ele>1166.1</ele>
        <time>2022-06-09T15:14:53Z</time>
      </trkpt>
      <trkpt lat="44.84215" lon="4.10306">
        <ele>1166</ele>
        <time>2022-06-09T15:14:54Z</time>
      </trkpt>
      <trkpt lat="44.84214" lon="4.10298">
        <ele>1165.9</ele>
        <time>2022-06-09T15:14:55Z</time>
      </trkpt>
      <trkpt lat="44.84213" lon="4.1029">
        <ele>1165.8</ele>
        <time>2022-06-09T15:14:56Z</time>
      </trkpt>
      <trkpt lat="44.84213" lon="4.10282">
        <ele>1165.8</ele>
        <time>2022-06-09T15:14:57Z</time>
      </trkpt>
      <trkpt lat="44.84212" lon="4.10275">
        <ele>1165.7</ele>
        <time>2022-06-09T15:14:58Z</time>
      </trkpt>
      <trkpt lat="44.84211" lon="4.10267">
        <ele>1165.6</ele>
        <time>2022-06-09T15:14:59Z</time>
      </trkpt>
      <trkpt lat="44.84211" lon="4.10259">
        <ele>1165.6</ele>
        <time>2022-06-09T15:15:00Z</time>
      </trkpt>
      <trkpt lat="44.84211" lon="4.10251">
        <ele>1165.5</ele>
        <time>2022-06-09T15:15:01Z</time>
      </trkpt>
      <trkpt lat="44.8421" lon="4.10244">
        <ele>1165.4</ele>
        <time>2022-06-09T15:15:02Z</time>
      </trkpt>
      <trkpt lat="44.84209" lon="4.10236">
        <ele>1165.4</ele>
        <time>2022-06-09T15:15:03Z</time>
      </trkpt>
      <trkpt lat="44.84209" lon="4.10228">
        <ele>1165.3</ele>
        <time>2022-06-09T15:15:04Z</time>
      </trkpt>
      <trkpt lat="44.84208" lon="4.1022">
        <ele>1165.3</ele>
        <time>2022-06-09T15:15:05Z</time>
      </trkpt>
      <trkpt lat="44.84208" lon="4.10212">
        <ele>1165.2</ele>
        <time>2022-06-09T15:15:06Z</time>
      </trkpt>
      <trkpt lat="44.84207" lon="4.10204">
        <ele>1165.2</ele>
        <time>2022-06-09T15:15:07Z</time>
      </trkpt>
      <trkpt lat="44.84207" lon="4.10196">
        <ele>1165.1</ele>
        <time>2022-06-09T15:15:08Z</time>
      </trkpt>
      <trkpt lat="44.84206" lon="4.10188">
        <ele>1165</ele>
        <time>2022-06-09T15:15:09Z</time>
      </trkpt>
      <trkpt lat="44.84205" lon="4.1018">
        <ele>1164.9</ele>
        <time>2022-06-09T15:15:10Z</time>
      </trkpt>
      <trkpt lat="44.84205" lon="4.10172">
        <ele>1164.8</ele>
        <time>2022-06-09T15:15:11Z</time>
      </trkpt>
      <trkpt lat="44.84204" lon="4.10164">
        <ele>1164.7</ele>
        <time>2022-06-09T15:15:12Z</time>
      </trkpt>
      <trkpt lat="44.84204" lon="4.10156">
        <ele>1164.7</ele>
        <time>2022-06-09T15:15:13Z</time>
      </trkpt>
      <trkpt lat="44.84203" lon="4.10149">
        <ele>1164.6</ele>
        <time>2022-06-09T15:15:14Z</time>
      </trkpt>
      <trkpt lat="44.84203" lon="4.10142">
        <ele>1164.5</ele>
        <time>2022-06-09T15:15:15Z</time>
      </trkpt>
      <trkpt lat="44.84203" lon="4.10134">
        <ele>1164.5</ele>
        <time>2022-06-09T15:15:16Z</time>
      </trkpt>
      <trkpt lat="44.84202" lon="4.10127">
        <ele>1164.4</ele>
        <time>2022-06-09T15:15:17Z</time>
      </trkpt>
      <trkpt lat="44.84201" lon="4.10119">
        <ele>1164.4</ele>
        <time>2022-06-09T15:15:18Z</time>
      </trkpt>
      <trkpt lat="44.84201" lon="4.10112">
        <ele>1164.3</ele>
        <time>2022-06-09T15:15:19Z</time>
      </trkpt>
      <trkpt lat="44.84199" lon="4.10105">
        <ele>1164.3</ele>
        <time>2022-06-09T15:15:20Z</time>
      </trkpt>
      <trkpt lat="44.84198" lon="4.10098">
        <ele>1164.2</ele>
        <time>2022-06-09T15:15:21Z</time>
      </trkpt>
      <trkpt lat="44.84196" lon="4.10091">
        <ele>1164.2</ele>
        <time>2022-06-09T15:15:22Z</time>
      </trkpt>
      <trkpt lat="44.84194" lon="4.10084">
        <ele>1164.1</ele>
        <time>2022-06-09T15:15:23Z</time>
      </trkpt>
      <trkpt lat="44.84191" lon="4.10077">
        <ele>1164</ele>
        <time>2022-06-09T15:15:24Z</time>
      </trkpt>
      <trkpt lat="44.84188" lon="4.10071">
        <ele>1163.9</ele>
        <time>2022-06-09T15:15:25Z</time>
      </trkpt>
      <trkpt lat="44.84184" lon="4.10064">
        <ele>1163.9</ele>
        <time>2022-06-09T15:15:26Z</time>
      </trkpt>
      <trkpt lat="44.8418" lon="4.10057">
        <ele>1163.8</ele>
        <time>2022-06-09T15:15:27Z</time>
      </trkpt>
      <trkpt lat="44.84176" lon="4.10051">
        <ele>1163.7</ele>
        <time>2022-06-09T15:15:28Z</time>
      </trkpt>
      <trkpt lat="44.84172" lon="4.10045">
        <ele>1163.6</ele>
        <time>2022-06-09T15:15:29Z</time>
      </trkpt>
      <trkpt lat="44.84167" lon="4.1004">
        <ele>1163.5</ele>
        <time>2022-06-09T15:15:30Z</time>
      </trkpt>
      <trkpt lat="44.84162" lon="4.10035">
        <ele>1163.4</ele>
        <time>2022-06-09T15:15:31Z</time>
      </trkpt>
      <trkpt lat="44.84157" lon="4.10031">
        <ele>1163.4</ele>
        <time>2022-06-09T15:15:32Z</time>
      </trkpt>
      <trkpt lat="44.84152" lon="4.10028">
        <ele>1163.3</ele>
        <time>2022-06-09T15:15:33Z</time>
      </trkpt>
      <trkpt lat="44.84146" lon="4.10025">
        <ele>1163.3</ele>
        <time>2022-06-09T15:15:34Z</time>
      </trkpt>
      <trkpt lat="44.8414" lon="4.10023">
        <ele>1163.2</ele>
        <time>2022-06-09T15:15:35Z</time>
      </trkpt>
      <trkpt lat="44.84134" lon="4.10021">
        <ele>1163.1</ele>
        <time>2022-06-09T15:15:36Z</time>
      </trkpt>
      <trkpt lat="44.84128" lon="4.1002">
        <ele>1163.1</ele>
        <time>2022-06-09T15:15:37Z</time>
      </trkpt>
      <trkpt lat="44.84122" lon="4.10018">
        <ele>1163</ele>
        <time>2022-06-09T15:15:38Z</time>
      </trkpt>
      <trkpt lat="44.84115" lon="4.10016">
        <ele>1162.9</ele>
        <time>2022-06-09T15:15:39Z</time>
      </trkpt>
      <trkpt lat="44.84109" lon="4.10014">
        <ele>1162.9</ele>
        <time>2022-06-09T15:15:40Z</time>
      </trkpt>
      <trkpt lat="44.84103" lon="4.10012">
        <ele>1162.8</ele>
        <time>2022-06-09T15:15:41Z</time>
      </trkpt>
      <trkpt lat="44.84097" lon="4.1001">
        <ele>1162.7</ele>
        <time>2022-06-09T15:15:42Z</time>
      </trkpt>
      <trkpt lat="44.84091" lon="4.10007">
        <ele>1162.7</ele>
        <time>2022-06-09T15:15:43Z</time>
      </trkpt>
      <trkpt lat="44.84084" lon="4.10005">
        <ele>1162.6</ele>
        <time>2022-06-09T15:15:44Z</time>
      </trkpt>
      <trkpt lat="44.84078" lon="4.10002">
        <ele>1162.5</ele>
        <time>2022-06-09T15:15:45Z</time>
      </trkpt>
      <trkpt lat="44.84072" lon="4.1">
        <ele>1162.5</ele>
        <time>2022-06-09T15:15:46Z</time>
      </trkpt>
      <trkpt lat="44.84066" lon="4.09999">
        <ele>1162.4</ele>
        <time>2022-06-09T15:15:47Z</time>
      </trkpt>
      <trkpt lat="44.8406" lon="4.09998">
        <ele>1162.3</ele>
        <time>2022-06-09T15:15:48Z</time>
      </trkpt>
      <trkpt lat="44.84053" lon="4.09998">
        <ele>1162.2</ele>
        <time>2022-06-09T15:15:49Z</time>
      </trkpt>
      <trkpt lat="44.84047" lon="4.09998">
        <ele>1162.2</ele>
        <time>2022-06-09T15:15:50Z</time>
      </trkpt>
      <trkpt lat="44.84041" lon="4.09999">
        <ele>1162.1</ele>
        <time>2022-06-09T15:15:51Z</time>
      </trkpt>
      <trkpt lat="44.84034" lon="4.1">
        <ele>1162</ele>
        <time>2022-06-09T15:15:52Z</time>
      </trkpt>
      <trkpt lat="44.84028" lon="4.10002">
        <ele>1161.9</ele>
        <time>2022-06-09T15:15:53Z</time>
      </trkpt>
      <trkpt lat="44.84021" lon="4.10004">
        <ele>1161.9</ele>
        <time>2022-06-09T15:15:54Z</time>
      </trkpt>
      <trkpt lat="44.84015" lon="4.10007">
        <ele>1161.8</ele>
        <time>2022-06-09T15:15:55Z</time>
      </trkpt>
      <trkpt lat="44.84008" lon="4.10009">
        <ele>1161.7</ele>
        <time>2022-06-09T15:15:56Z</time>
      </trkpt>
      <trkpt lat="44.84002" lon="4.10012">
        <ele>1161.6</ele>
        <time>2022-06-09T15:15:57Z</time>
      </trkpt>
      <trkpt lat="44.83996" lon="4.10015">
        <ele>1161.6</ele>
        <time>2022-06-09T15:15:58Z</time>
      </trkpt>
      <trkpt lat="44.83989" lon="4.10017">
        <ele>1161.4</ele>
        <time>2022-06-09T15:15:59Z</time>
      </trkpt>
      <trkpt lat="44.83982" lon="4.10019">
        <ele>1161.3</ele>
        <time>2022-06-09T15:16:00Z</time>
      </trkpt>
      <trkpt lat="44.83975" lon="4.10019">
        <ele>1161.2</ele>
        <time>2022-06-09T15:16:01Z</time>
      </trkpt>
      <trkpt lat="44.83968" lon="4.10018">
        <ele>1161</ele>
        <time>2022-06-09T15:16:02Z</time>
      </trkpt>
      <trkpt lat="44.83961" lon="4.10016">
        <ele>1160.9</ele>
        <time>2022-06-09T15:16:03Z</time>
      </trkpt>
      <trkpt lat="44.83953" lon="4.10013">
        <ele>1160.7</ele>
        <time>2022-06-09T15:16:04Z</time>
      </trkpt>
      <trkpt lat="44.83946" lon="4.10009">
        <ele>1160.5</ele>
        <time>2022-06-09T15:16:05Z</time>
      </trkpt>
      <trkpt lat="44.83939" lon="4.10004">
        <ele>1160.3</ele>
        <time>2022-06-09T15:16:06Z</time>
      </trkpt>
      <trkpt lat="44.83932" lon="4.09998">
        <ele>1160.1</ele>
        <time>2022-06-09T15:16:07Z</time>
      </trkpt>
      <trkpt lat="44.83926" lon="4.09992">
        <ele>1159.7</ele>
        <time>2022-06-09T15:16:08Z</time>
      </trkpt>
      <trkpt lat="44.83919" lon="4.09986">
        <ele>1159.3</ele>
        <time>2022-06-09T15:16:09Z</time>
      </trkpt>
      <trkpt lat="44.83912" lon="4.0998">
        <ele>1159</ele>
        <time>2022-06-09T15:16:10Z</time>
      </trkpt>
      <trkpt lat="44.83905" lon="4.09973">
        <ele>1158.6</ele>
        <time>2022-06-09T15:16:11Z</time>
      </trkpt>
      <trkpt lat="44.83898" lon="4.09966">
        <ele>1158.2</ele>
        <time>2022-06-09T15:16:12Z</time>
      </trkpt>
      <trkpt lat="44.83891" lon="4.0996">
        <ele>1157.8</ele>
        <time>2022-06-09T15:16:13Z</time>
      </trkpt>
      <trkpt lat="44.83884" lon="4.09953">
        <ele>1157.5</ele>
        <time>2022-06-09T15:16:14Z</time>
      </trkpt>
      <trkpt lat="44.83877" lon="4.09946">
        <ele>1157.1</ele>
        <time>2022-06-09T15:16:15Z</time>
      </trkpt>
      <trkpt lat="44.83869" lon="4.0994">
        <ele>1156.7</ele>
        <time>2022-06-09T15:16:16Z</time>
      </trkpt>
      <trkpt lat="44.83861" lon="4.09935">
        <ele>1156.4</ele>
        <time>2022-06-09T15:16:17Z</time>
      </trkpt>
      <trkpt lat="44.83853" lon="4.0993">
        <ele>1156</ele>
        <time>2022-06-09T15:16:18Z</time>
      </trkpt>
      <trkpt lat="44.83846" lon="4.09924">
        <ele>1155.6</ele>
        <time>2022-06-09T15:16:19Z</time>
      </trkpt>
      <trkpt lat="44.83838" lon="4.09918">
        <ele>1155.3</ele>
        <time>2022-06-09T15:16:20Z</time>
      </trkpt>
      <trkpt lat="44.83831" lon="4.09913">
        <ele>1154.9</ele>
        <time>2022-06-09T15:16:21Z</time>
      </trkpt>
      <trkpt lat="44.83824" lon="4.09907">
        <ele>1154.5</ele>
        <time>2022-06-09T15:16:22Z</time>
      </trkpt>
      <trkpt lat="44.83817" lon="4.09902">
        <ele>1154.2</ele>
        <time>2022-06-09T15:16:23Z</time>
      </trkpt>
      <trkpt lat="44.83809" lon="4.09897">
        <ele>1153.9</ele>
        <time>2022-06-09T15:16:24Z</time>
      </trkpt>
      <trkpt lat="44.83802" lon="4.09891">
        <ele>1153.6</ele>
        <time>2022-06-09T15:16:25Z</time>
      </trkpt>
      <trkpt lat="44.83795" lon="4.09886">
        <ele>1153.3</ele>
        <time>2022-06-09T15:16:26Z</time>
      </trkpt>
      <trkpt lat="44.83787" lon="4.0988">
        <ele>1152.9</ele>
        <time>2022-06-09T15:16:27Z</time>
      </trkpt>
      <trkpt lat="44.83779" lon="4.09875">
        <ele>1152.6</ele>
        <time>2022-06-09T15:16:28Z</time>
      </trkpt>
      <trkpt lat="44.83772" lon="4.0987">
        <ele>1152.3</ele>
        <time>2022-06-09T15:16:29Z</time>
      </trkpt>
      <trkpt lat="44.83764" lon="4.09866">
        <ele>1152</ele>
        <time>2022-06-09T15:16:30Z</time>
      </trkpt>
      <trkpt lat="44.83756" lon="4.09862">
        <ele>1151.8</ele>
        <time>2022-06-09T15:16:31Z</time>
      </trkpt>
      <trkpt lat="44.83748" lon="4.09858">
        <ele>1151.5</ele>
        <time>2022-06-09T15:16:32Z</time>
      </trkpt>
      <trkpt lat="44.8374" lon="4.09853">
        <ele>1151.3</ele>
        <time>2022-06-09T15:16:33Z</time>
      </trkpt>
      <trkpt lat="44.83733" lon="4.09846">
        <ele>1151</ele>
        <time>2022-06-09T15:16:34Z</time>
      </trkpt>
      <trkpt lat="44.83727" lon="4.09838">
        <ele>1150.7</ele>
        <time>2022-06-09T15:16:35Z</time>
      </trkpt>
      <trkpt lat="44.83722" lon="4.09828">
        <ele>1150.3</ele>
        <time>2022-06-09T15:16:36Z</time>
      </trkpt>
      <trkpt lat="44.83718" lon="4.09817">
        <ele>1149.9</ele>
        <time>2022-06-09T15:16:37Z</time>
      </trkpt>
      <trkpt lat="44.83715" lon="4.09805">
        <ele>1149.6</ele>
        <time>2022-06-09T15:16:38Z</time>
      </trkpt>
      <trkpt lat="44.83714" lon="4.09794">
        <ele>1149.2</ele>
        <time>2022-06-09T15:16:39Z</time>
      </trkpt>
      <trkpt lat="44.83713" lon="4.09782">
        <ele>1148.8</ele>
        <time>2022-06-09T15:16:40Z</time>
      </trkpt>
      <trkpt lat="44.83712" lon="4.09771">
        <ele>1148.4</ele>
        <time>2022-06-09T15:16:41Z</time>
      </trkpt>
      <trkpt lat="44.83711" lon="4.09759">
        <ele>1148</ele>
        <time>2022-06-09T15:16:42Z</time>
      </trkpt>
      <trkpt lat="44.8371" lon="4.09748">
        <ele>1147.6</ele>
        <time>2022-06-09T15:16:43Z</time>
      </trkpt>
      <trkpt lat="44.83709" lon="4.09736">
        <ele>1147.2</ele>
        <time>2022-06-09T15:16:44Z</time>
      </trkpt>
      <trkpt lat="44.83708" lon="4.09724">
        <ele>1146.8</ele>
        <time>2022-06-09T15:16:45Z</time>
      </trkpt>
      <trkpt lat="44.83708" lon="4.09712">
        <ele>1146.3</ele>
        <time>2022-06-09T15:16:46Z</time>
      </trkpt>
      <trkpt lat="44.83708" lon="4.097">
        <ele>1145.8</ele>
        <time>2022-06-09T15:16:47Z</time>
      </trkpt>
      <trkpt lat="44.83709" lon="4.09688">
        <ele>1145.4</ele>
        <time>2022-06-09T15:16:48Z</time>
      </trkpt>
      <trkpt lat="44.8371" lon="4.09675">
        <ele>1144.9</ele>
        <time>2022-06-09T15:16:49Z</time>
      </trkpt>
      <trkpt lat="44.83713" lon="4.09663">
        <ele>1144.3</ele>
        <time>2022-06-09T15:16:50Z</time>
      </trkpt>
      <trkpt lat="44.83715" lon="4.09651">
        <ele>1143.8</ele>
        <time>2022-06-09T15:16:51Z</time>
      </trkpt>
      <trkpt lat="44.83718" lon="4.09639">
        <ele>1143.3</ele>
        <time>2022-06-09T15:16:52Z</time>
      </trkpt>
      <trkpt lat="44.8372" lon="4.09627">
        <ele>1142.7</ele>
        <time>2022-06-09T15:16:53Z</time>
      </trkpt>
      <trkpt lat="44.83723" lon="4.09615">
        <ele>1142.2</ele>
        <time>2022-06-09T15:16:54Z</time>
      </trkpt>
      <trkpt lat="44.83724" lon="4.09602">
        <ele>1141.7</ele>
        <time>2022-06-09T15:16:55Z</time>
      </trkpt>
      <trkpt lat="44.83724" lon="4.0959">
        <ele>1141.2</ele>
        <time>2022-06-09T15:16:56Z</time>
      </trkpt>
      <trkpt lat="44.83722" lon="4.09578">
        <ele>1140.6</ele>
        <time>2022-06-09T15:16:57Z</time>
      </trkpt>
      <trkpt lat="44.83719" lon="4.09566">
        <ele>1140.1</ele>
        <time>2022-06-09T15:16:58Z</time>
      </trkpt>
      <trkpt lat="44.83716" lon="4.09554">
        <ele>1139.6</ele>
        <time>2022-06-09T15:16:59Z</time>
      </trkpt>
      <trkpt lat="44.83712" lon="4.09542">
        <ele>1139.1</ele>
        <time>2022-06-09T15:17:00Z</time>
      </trkpt>
      <trkpt lat="44.83708" lon="4.0953">
        <ele>1138.6</ele>
        <time>2022-06-09T15:17:01Z</time>
      </trkpt>
      <trkpt lat="44.83704" lon="4.09518">
        <ele>1138.1</ele>
        <time>2022-06-09T15:17:02Z</time>
      </trkpt>
      <trkpt lat="44.837" lon="4.09506">
        <ele>1137.5</ele>
        <time>2022-06-09T15:17:03Z</time>
      </trkpt>
      <trkpt lat="44.83695" lon="4.09494">
        <ele>1137</ele>
        <time>2022-06-09T15:17:04Z</time>
      </trkpt>
      <trkpt lat="44.8369" lon="4.09483">
        <ele>1136.4</ele>
        <time>2022-06-09T15:17:05Z</time>
      </trkpt>
      <trkpt lat="44.83683" lon="4.09474">
        <ele>1135.8</ele>
        <time>2022-06-09T15:17:06Z</time>
      </trkpt>
      <trkpt lat="44.83674" lon="4.0947">
        <ele>1135.2</ele>
        <time>2022-06-09T15:17:07Z</time>
      </trkpt>
      <trkpt lat="44.83663" lon="4.09468">
        <ele>1134.6</ele>
        <time>2022-06-09T15:17:08Z</time>
      </trkpt>
      <trkpt lat="44.83653" lon="4.09469">
        <ele>1134</ele>
        <time>2022-06-09T15:17:09Z</time>
      </trkpt>
      <trkpt lat="44.83643" lon="4.09473">
        <ele>1133.3</ele>
        <time>2022-06-09T15:17:10Z</time>
      </trkpt>
      <trkpt lat="44.83633" lon="4.09477">
        <ele>1132.8</ele>
        <time>2022-06-09T15:17:11Z</time>
      </trkpt>
      <trkpt lat="44.83623" lon="4.09482">
        <ele>1132.2</ele>
        <time>2022-06-09T15:17:12Z</time>
      </trkpt>
      <trkpt lat="44.83613" lon="4.09486">
        <ele>1131.6</ele>
        <time>2022-06-09T15:17:13Z</time>
      </trkpt>
      <trkpt lat="44.83603" lon="4.09491">
        <ele>1131</ele>
        <time>2022-06-09T15:17:14Z</time>
      </trkpt>
      <trkpt lat="44.83593" lon="4.09496">
        <ele>1130.4</ele>
        <time>2022-06-09T15:17:15Z</time>
      </trkpt>
      <trkpt lat="44.83583" lon="4.09501">
        <ele>1129.8</ele>
        <time>2022-06-09T15:17:16Z</time>
      </trkpt>
      <trkpt lat="44.83573" lon="4.09506">
        <ele>1129.2</ele>
        <time>2022-06-09T15:17:17Z</time>
      </trkpt>
      <trkpt lat="44.83563" lon="4.09512">
        <ele>1128.7</ele>
        <time>2022-06-09T15:17:18Z</time>
      </trkpt>
      <trkpt lat="44.83553" lon="4.09518">
        <ele>1128.2</ele>
        <time>2022-06-09T15:17:19Z</time>
      </trkpt>
      <trkpt lat="44.83543" lon="4.09521">
        <ele>1127.7</ele>
        <time>2022-06-09T15:17:20Z</time>
      </trkpt>
      <trkpt lat="44.83533" lon="4.09521">
        <ele>1127.1</ele>
        <time>2022-06-09T15:17:21Z</time>
      </trkpt>
      <trkpt lat="44.83523" lon="4.09519">
        <ele>1126.6</ele>
        <time>2022-06-09T15:17:22Z</time>
      </trkpt>
      <trkpt lat="44.83514" lon="4.09514">
        <ele>1126</ele>
        <time>2022-06-09T15:17:23Z</time>
      </trkpt>
      <trkpt lat="44.83505" lon="4.09507">
        <ele>1125.4</ele>
        <time>2022-06-09T15:17:24Z</time>
      </trkpt>
      <trkpt lat="44.83497" lon="4.09498">
        <ele>1124.8</ele>
        <time>2022-06-09T15:17:25Z</time>
      </trkpt>
      <trkpt lat="44.8349" lon="4.09488">
        <ele>1124.1</ele>
        <time>2022-06-09T15:17:26Z</time>
      </trkpt>
      <trkpt lat="44.83483" lon="4.09478">
        <ele>1123.5</ele>
        <time>2022-06-09T15:17:27Z</time>
      </trkpt>
      <trkpt lat="44.83477" lon="4.09468">
        <ele>1122.9</ele>
        <time>2022-06-09T15:17:28Z</time>
      </trkpt>
      <trkpt lat="44.8347" lon="4.09458">
        <ele>1122.3</ele>
        <time>2022-06-09T15:17:29Z</time>
      </trkpt>
      <trkpt lat="44.83462" lon="4.09449">
        <ele>1121.7</ele>
        <time>2022-06-09T15:17:30Z</time>
      </trkpt>
      <trkpt lat="44.83455" lon="4.0944">
        <ele>1121.2</ele>
        <time>2022-06-09T15:17:31Z</time>
      </trkpt>
      <trkpt lat="44.83446" lon="4.09433">
        <ele>1120.6</ele>
        <time>2022-06-09T15:17:32Z</time>
      </trkpt>
      <trkpt lat="44.83436" lon="4.09428">
        <ele>1120.1</ele>
        <time>2022-06-09T15:17:33Z</time>
      </trkpt>
      <trkpt lat="44.83426" lon="4.09424">
        <ele>1119.5</ele>
        <time>2022-06-09T15:17:34Z</time>
      </trkpt>
      <trkpt lat="44.83417" lon="4.09418">
        <ele>1119</ele>
        <time>2022-06-09T15:17:35Z</time>
      </trkpt>
      <trkpt lat="44.83408" lon="4.0941">
        <ele>1118.5</ele>
        <time>2022-06-09T15:17:36Z</time>
      </trkpt>
      <trkpt lat="44.83402" lon="4.09398">
        <ele>1117.9</ele>
        <time>2022-06-09T15:17:37Z</time>
      </trkpt>
      <trkpt lat="44.83396" lon="4.09386">
        <ele>1117.4</ele>
        <time>2022-06-09T15:17:38Z</time>
      </trkpt>
      <trkpt lat="44.83392" lon="4.09374">
        <ele>1116.8</ele>
        <time>2022-06-09T15:17:39Z</time>
      </trkpt>
      <trkpt lat="44.83387" lon="4.09362">
        <ele>1116.3</ele>
        <time>2022-06-09T15:17:40Z</time>
      </trkpt>
      <trkpt lat="44.83382" lon="4.09351">
        <ele>1115.8</ele>
        <time>2022-06-09T15:17:41Z</time>
      </trkpt>
      <trkpt lat="44.83377" lon="4.0934">
        <ele>1115.3</ele>
        <time>2022-06-09T15:17:42Z</time>
      </trkpt>
      <trkpt lat="44.8337" lon="4.09331">
        <ele>1114.7</ele>
        <time>2022-06-09T15:17:43Z</time>
      </trkpt>
      <trkpt lat="44.83362" lon="4.09325">
        <ele>1114.1</ele>
        <time>2022-06-09T15:17:44Z</time>
      </trkpt>
      <trkpt lat="44.83353" lon="4.09322">
        <ele>1113.5</ele>
        <time>2022-06-09T15:17:45Z</time>
      </trkpt>
      <trkpt lat="44.83345" lon="4.09322">
        <ele>1112.9</ele>
        <time>2022-06-09T15:17:46Z</time>
      </trkpt>
      <trkpt lat="44.83336" lon="4.09327">
        <ele>1112.2</ele>
        <time>2022-06-09T15:17:47Z</time>
      </trkpt>
      <trkpt lat="44.83329" lon="4.09336">
        <ele>1111.6</ele>
        <time>2022-06-09T15:17:48Z</time>
      </trkpt>
      <trkpt lat="44.83323" lon="4.09347">
        <ele>1111</ele>
        <time>2022-06-09T15:17:49Z</time>
      </trkpt>
      <trkpt lat="44.83318" lon="4.0936">
        <ele>1110.4</ele>
        <time>2022-06-09T15:17:50Z</time>
      </trkpt>
      <trkpt lat="44.83314" lon="4.09372">
        <ele>1109.9</ele>
        <time>2022-06-09T15:17:51Z</time>
      </trkpt>
      <trkpt lat="44.83309" lon="4.09385">
        <ele>1109.4</ele>
        <time>2022-06-09T15:17:52Z</time>
      </trkpt>
      <trkpt lat="44.83304" lon="4.09396">
        <ele>1109</ele>
        <time>2022-06-09T15:17:53Z</time>
      </trkpt>
      <trkpt lat="44.83297" lon="4.09405">
        <ele>1108.5</ele>
        <time>2022-06-09T15:17:54Z</time>
      </trkpt>
      <trkpt lat="44.83288" lon="4.0941">
        <ele>1108</ele>
        <time>2022-06-09T15:17:55Z</time>
      </trkpt>
      <trkpt lat="44.83278" lon="4.09411">
        <ele>1107.4</ele>
        <time>2022-06-09T15:17:56Z</time>
      </trkpt>
      <trkpt lat="44.83268" lon="4.09407">
        <ele>1106.8</ele>
        <time>2022-06-09T15:17:57Z</time>
      </trkpt>
      <trkpt lat="44.83259" lon="4.094">
        <ele>1106.2</ele>
        <time>2022-06-09T15:17:58Z</time>
      </trkpt>
      <trkpt lat="44.83251" lon="4.09391">
        <ele>1105.5</ele>
        <time>2022-06-09T15:17:59Z</time>
      </trkpt>
      <trkpt lat="44.83242" lon="4.09383">
        <ele>1104.8</ele>
        <time>2022-06-09T15:18:00Z</time>
      </trkpt>
      <trkpt lat="44.83234" lon="4.09376">
        <ele>1104.2</ele>
        <time>2022-06-09T15:18:01Z</time>
      </trkpt>
      <trkpt lat="44.83226" lon="4.09369">
        <ele>1103.6</ele>
        <time>2022-06-09T15:18:02Z</time>
      </trkpt>
      <trkpt lat="44.83218" lon="4.09363">
        <ele>1103</ele>
        <time>2022-06-09T15:18:03Z</time>
      </trkpt>
      <trkpt lat="44.8321" lon="4.09357">
        <ele>1102.4</ele>
        <time>2022-06-09T15:18:04Z</time>
      </trkpt>
      <trkpt lat="44.83203" lon="4.09348">
        <ele>1101.8</ele>
        <time>2022-06-09T15:18:05Z</time>
      </trkpt>
      <trkpt lat="44.832" lon="4.09336">
        <ele>1101.3</ele>
        <time>2022-06-09T15:18:06Z</time>
      </trkpt>
      <trkpt lat="44.83199" lon="4.09322">
        <ele>1100.7</ele>
        <time>2022-06-09T15:18:07Z</time>
      </trkpt>
      <trkpt lat="44.83198" lon="4.09308">
        <ele>1100.1</ele>
        <time>2022-06-09T15:18:08Z</time>
      </trkpt>
      <trkpt lat="44.83198" lon="4.09295">
        <ele>1099.5</ele>
        <time>2022-06-09T15:18:09Z</time>
      </trkpt>
      <trkpt lat="44.83198" lon="4.09283">
        <ele>1099</ele>
        <time>2022-06-09T15:18:10Z</time>
      </trkpt>
      <trkpt lat="44.83197" lon="4.09271">
        <ele>1098.5</ele>
        <time>2022-06-09T15:18:11Z</time>
      </trkpt>
      <trkpt lat="44.83194" lon="4.09259">
        <ele>1098</ele>
        <time>2022-06-09T15:18:12Z</time>
      </trkpt>
      <trkpt lat="44.83191" lon="4.09248">
        <ele>1097.6</ele>
        <time>2022-06-09T15:18:13Z</time>
      </trkpt>
      <trkpt lat="44.83186" lon="4.09237">
        <ele>1097</ele>
        <time>2022-06-09T15:18:14Z</time>
      </trkpt>
      <trkpt lat="44.8318" lon="4.09227">
        <ele>1096.5</ele>
        <time>2022-06-09T15:18:15Z</time>
      </trkpt>
      <trkpt lat="44.83174" lon="4.09218">
        <ele>1096</ele>
        <time>2022-06-09T15:18:16Z</time>
      </trkpt>
      <trkpt lat="44.83167" lon="4.09209">
        <ele>1095.4</ele>
        <time>2022-06-09T15:18:17Z</time>
      </trkpt>
      <trkpt lat="44.8316" lon="4.092">
        <ele>1094.9</ele>
        <time>2022-06-09T15:18:18Z</time>
      </trkpt>
      <trkpt lat="44.83152" lon="4.0919">
        <ele>1094.3</ele>
        <time>2022-06-09T15:18:19Z</time>
      </trkpt>
      <trkpt lat="44.83145" lon="4.09179">
        <ele>1093.7</ele>
        <time>2022-06-09T15:18:20Z</time>
      </trkpt>
      <trkpt lat="44.8314" lon="4.09167">
        <ele>1093</ele>
        <time>2022-06-09T15:18:21Z</time>
      </trkpt>
      <trkpt lat="44.83136" lon="4.09153">
        <ele>1092.4</ele>
        <time>2022-06-09T15:18:22Z</time>
      </trkpt>
      <trkpt lat="44.83132" lon="4.09139">
        <ele>1091.7</ele>
        <time>2022-06-09T15:18:23Z</time>
      </trkpt>
      <trkpt lat="44.83128" lon="4.09125">
        <ele>1091.2</ele>
        <time>2022-06-09T15:18:24Z</time>
      </trkpt>
      <trkpt lat="44.83124" lon="4.09112">
        <ele>1090.6</ele>
        <time>2022-06-09T15:18:25Z</time>
      </trkpt>
      <trkpt lat="44.83118" lon="4.09099">
        <ele>1090.1</ele>
        <time>2022-06-09T15:18:26Z</time>
      </trkpt>
      <trkpt lat="44.83111" lon="4.09088">
        <ele>1089.5</ele>
        <time>2022-06-09T15:18:27Z</time>
      </trkpt>
      <trkpt lat="44.83102" lon="4.0908">
        <ele>1089</ele>
        <time>2022-06-09T15:18:28Z</time>
      </trkpt>
      <trkpt lat="44.8309" lon="4.09077">
        <ele>1088.5</ele>
        <time>2022-06-09T15:18:29Z</time>
      </trkpt>
      <trkpt lat="44.83079" lon="4.09077">
        <ele>1088</ele>
        <time>2022-06-09T15:18:30Z</time>
      </trkpt>
      <trkpt lat="44.83068" lon="4.09077">
        <ele>1087.5</ele>
        <time>2022-06-09T15:18:31Z</time>
      </trkpt>
      <trkpt lat="44.83058" lon="4.09072">
        <ele>1087.3</ele>
        <time>2022-06-09T15:18:32Z</time>
      </trkpt>
      <trkpt lat="44.83051" lon="4.09061">
        <ele>1086.8</ele>
        <time>2022-06-09T15:18:33Z</time>
      </trkpt>
      <trkpt lat="44.83046" lon="4.09049">
        <ele>1086.2</ele>
        <time>2022-06-09T15:18:34Z</time>
      </trkpt>
      <trkpt lat="44.83043" lon="4.09036">
        <ele>1085.5</ele>
        <time>2022-06-09T15:18:35Z</time>
      </trkpt>
      <trkpt lat="44.83045" lon="4.09022">
        <ele>1084.7</ele>
        <time>2022-06-09T15:18:36Z</time>
      </trkpt>
      <trkpt lat="44.8305" lon="4.09009">
        <ele>1084</ele>
        <time>2022-06-09T15:18:37Z</time>
      </trkpt>
      <trkpt lat="44.83056" lon="4.08998">
        <ele>1083.2</ele>
        <time>2022-06-09T15:18:38Z</time>
      </trkpt>
      <trkpt lat="44.83062" lon="4.08985">
        <ele>1082.4</ele>
        <time>2022-06-09T15:18:39Z</time>
      </trkpt>
      <trkpt lat="44.83066" lon="4.08971">
        <ele>1081.7</ele>
        <time>2022-06-09T15:18:40Z</time>
      </trkpt>
      <trkpt lat="44.83067" lon="4.08956">
        <ele>1081</ele>
        <time>2022-06-09T15:18:41Z</time>
      </trkpt>
      <trkpt lat="44.83064" lon="4.08941">
        <ele>1080.3</ele>
        <time>2022-06-09T15:18:42Z</time>
      </trkpt>
      <trkpt lat="44.83058" lon="4.08928">
        <ele>1079.6</ele>
        <time>2022-06-09T15:18:43Z</time>
      </trkpt>
      <trkpt lat="44.83049" lon="4.08917">
        <ele>1078.9</ele>
        <time>2022-06-09T15:18:44Z</time>
      </trkpt>
      <trkpt lat="44.83039" lon="4.0891">
        <ele>1078.2</ele>
        <time>2022-06-09T15:18:45Z</time>
      </trkpt>
      <trkpt lat="44.83028" lon="4.08907">
        <ele>1077.5</ele>
        <time>2022-06-09T15:18:46Z</time>
      </trkpt>
      <trkpt lat="44.83016" lon="4.08906">
        <ele>1076.9</ele>
        <time>2022-06-09T15:18:47Z</time>
      </trkpt>
      <trkpt lat="44.83005" lon="4.08904">
        <ele>1076.3</ele>
        <time>2022-06-09T15:18:48Z</time>
      </trkpt>
      <trkpt lat="44.82994" lon="4.08901">
        <ele>1075.7</ele>
        <time>2022-06-09T15:18:49Z</time>
      </trkpt>
      <trkpt lat="44.82984" lon="4.08893">
        <ele>1075.1</ele>
        <time>2022-06-09T15:18:50Z</time>
      </trkpt>
      <trkpt lat="44.82976" lon="4.08883">
        <ele>1075.1</ele>
        <time>2022-06-09T15:18:51Z</time>
      </trkpt>
      <trkpt lat="44.8297" lon="4.08871">
        <ele>1074.5</ele>
        <time>2022-06-09T15:18:52Z</time>
      </trkpt>
      <trkpt lat="44.82969" lon="4.08856">
        <ele>1073.8</ele>
        <time>2022-06-09T15:18:53Z</time>
      </trkpt>
      <trkpt lat="44.82975" lon="4.08841">
        <ele>1072.8</ele>
        <time>2022-06-09T15:18:54Z</time>
      </trkpt>
      <trkpt lat="44.82981" lon="4.08827">
        <ele>1072</ele>
        <time>2022-06-09T15:18:55Z</time>
      </trkpt>
      <trkpt lat="44.82986" lon="4.08812">
        <ele>1071.2</ele>
        <time>2022-06-09T15:18:56Z</time>
      </trkpt>
      <trkpt lat="44.82989" lon="4.08797">
        <ele>1070.5</ele>
        <time>2022-06-09T15:18:57Z</time>
      </trkpt>
      <trkpt lat="44.8299" lon="4.08783">
        <ele>1069.9</ele>
        <time>2022-06-09T15:18:58Z</time>
      </trkpt>
      <trkpt lat="44.82991" lon="4.08768">
        <ele>1069.3</ele>
        <time>2022-06-09T15:18:59Z</time>
      </trkpt>
      <trkpt lat="44.8299" lon="4.08754">
        <ele>1068.8</ele>
        <time>2022-06-09T15:19:00Z</time>
      </trkpt>
      <trkpt lat="44.82988" lon="4.08739">
        <ele>1068.2</ele>
        <time>2022-06-09T15:19:01Z</time>
      </trkpt>
      <trkpt lat="44.82985" lon="4.08724">
        <ele>1067.7</ele>
        <time>2022-06-09T15:19:02Z</time>
      </trkpt>
      <trkpt lat="44.82981" lon="4.08711">
        <ele>1067.2</ele>
        <time>2022-06-09T15:19:03Z</time>
      </trkpt>
      <trkpt lat="44.82978" lon="4.08696">
        <ele>1066.6</ele>
        <time>2022-06-09T15:19:04Z</time>
      </trkpt>
      <trkpt lat="44.82976" lon="4.08681">
        <ele>1066.1</ele>
        <time>2022-06-09T15:19:05Z</time>
      </trkpt>
      <trkpt lat="44.82975" lon="4.08667">
        <ele>1065.5</ele>
        <time>2022-06-09T15:19:06Z</time>
      </trkpt>
      <trkpt lat="44.82973" lon="4.08652">
        <ele>1064.9</ele>
        <time>2022-06-09T15:19:07Z</time>
      </trkpt>
      <trkpt lat="44.8297" lon="4.08639">
        <ele>1064.4</ele>
        <time>2022-06-09T15:19:08Z</time>
      </trkpt>
      <trkpt lat="44.82964" lon="4.08627">
        <ele>1063.8</ele>
        <time>2022-06-09T15:19:09Z</time>
      </trkpt>
      <trkpt lat="44.82955" lon="4.08618">
        <ele>1063.1</ele>
        <time>2022-06-09T15:19:10Z</time>
      </trkpt>
      <trkpt lat="44.82946" lon="4.08612">
        <ele>1062.4</ele>
        <time>2022-06-09T15:19:11Z</time>
      </trkpt>
      <trkpt lat="44.82935" lon="4.08607">
        <ele>1061.8</ele>
        <time>2022-06-09T15:19:12Z</time>
      </trkpt>
      <trkpt lat="44.82924" lon="4.08604">
        <ele>1061.1</ele>
        <time>2022-06-09T15:19:13Z</time>
      </trkpt>
      <trkpt lat="44.82913" lon="4.08601">
        <ele>1060.4</ele>
        <time>2022-06-09T15:19:14Z</time>
      </trkpt>
      <trkpt lat="44.82902" lon="4.08598">
        <ele>1059.8</ele>
        <time>2022-06-09T15:19:15Z</time>
      </trkpt>
      <trkpt lat="44.82891" lon="4.08594">
        <ele>1059.1</ele>
        <time>2022-06-09T15:19:16Z</time>
      </trkpt>
      <trkpt lat="44.8288" lon="4.08591">
        <ele>1058.4</ele>
        <time>2022-06-09T15:19:17Z</time>
      </trkpt>
      <trkpt lat="44.82869" lon="4.08587">
        <ele>1057.8</ele>
        <time>2022-06-09T15:19:18Z</time>
      </trkpt>
      <trkpt lat="44.82859" lon="4.08581">
        <ele>1057.2</ele>
        <time>2022-06-09T15:19:19Z</time>
      </trkpt>
      <trkpt lat="44.8285" lon="4.08573">
        <ele>1056.5</ele>
        <time>2022-06-09T15:19:20Z</time>
      </trkpt>
      <trkpt lat="44.82841" lon="4.08564">
        <ele>1055.8</ele>
        <time>2022-06-09T15:19:21Z</time>
      </trkpt>
      <trkpt lat="44.82832" lon="4.08555">
        <ele>1055.2</ele>
        <time>2022-06-09T15:19:22Z</time>
      </trkpt>
      <trkpt lat="44.82823" lon="4.08548">
        <ele>1054.6</ele>
        <time>2022-06-09T15:19:23Z</time>
      </trkpt>
      <trkpt lat="44.82814" lon="4.08542">
        <ele>1053.9</ele>
        <time>2022-06-09T15:19:24Z</time>
      </trkpt>
      <trkpt lat="44.82804" lon="4.08539">
        <ele>1053.2</ele>
        <time>2022-06-09T15:19:25Z</time>
      </trkpt>
      <trkpt lat="44.82794" lon="4.08537">
        <ele>1052.5</ele>
        <time>2022-06-09T15:19:26Z</time>
      </trkpt>
      <trkpt lat="44.82783" lon="4.08535">
        <ele>1051.9</ele>
        <time>2022-06-09T15:19:27Z</time>
      </trkpt>
      <trkpt lat="44.82773" lon="4.08534">
        <ele>1051.3</ele>
        <time>2022-06-09T15:19:28Z</time>
      </trkpt>
      <trkpt lat="44.82763" lon="4.08535">
        <ele>1050.7</ele>
        <time>2022-06-09T15:19:29Z</time>
      </trkpt>
      <trkpt lat="44.82753" lon="4.0854">
        <ele>1050.1</ele>
        <time>2022-06-09T15:19:30Z</time>
      </trkpt>
      <trkpt lat="44.82744" lon="4.08547">
        <ele>1049.5</ele>
        <time>2022-06-09T15:19:31Z</time>
      </trkpt>
      <trkpt lat="44.82736" lon="4.08556">
        <ele>1049.1</ele>
        <time>2022-06-09T15:19:32Z</time>
      </trkpt>
      <trkpt lat="44.82728" lon="4.08566">
        <ele>1048.6</ele>
        <time>2022-06-09T15:19:33Z</time>
      </trkpt>
      <trkpt lat="44.82721" lon="4.08577">
        <ele>1048.2</ele>
        <time>2022-06-09T15:19:34Z</time>
      </trkpt>
      <trkpt lat="44.82713" lon="4.08587">
        <ele>1047.9</ele>
        <time>2022-06-09T15:19:35Z</time>
      </trkpt>
      <trkpt lat="44.82705" lon="4.08596">
        <ele>1047.6</ele>
        <time>2022-06-09T15:19:36Z</time>
      </trkpt>
      <trkpt lat="44.82697" lon="4.08605">
        <ele>1047.2</ele>
        <time>2022-06-09T15:19:37Z</time>
      </trkpt>
      <trkpt lat="44.82689" lon="4.08612">
        <ele>1046.9</ele>
        <time>2022-06-09T15:19:38Z</time>
      </trkpt>
      <trkpt lat="44.82681" lon="4.08619">
        <ele>1046.6</ele>
        <time>2022-06-09T15:19:39Z</time>
      </trkpt>
      <trkpt lat="44.82673" lon="4.08628">
        <ele>1046.3</ele>
        <time>2022-06-09T15:19:40Z</time>
      </trkpt>
      <trkpt lat="44.82666" lon="4.08636">
        <ele>1046</ele>
        <time>2022-06-09T15:19:41Z</time>
      </trkpt>
      <trkpt lat="44.82658" lon="4.08643">
        <ele>1045.8</ele>
        <time>2022-06-09T15:19:42Z</time>
      </trkpt>
      <trkpt lat="44.82649" lon="4.08647">
        <ele>1045.5</ele>
        <time>2022-06-09T15:19:43Z</time>
      </trkpt>
      <trkpt lat="44.8264" lon="4.08645">
        <ele>1045.3</ele>
        <time>2022-06-09T15:19:44Z</time>
      </trkpt>
      <trkpt lat="44.82631" lon="4.0864">
        <ele>1045.2</ele>
        <time>2022-06-09T15:19:45Z</time>
      </trkpt>
      <trkpt lat="44.82624" lon="4.08631">
        <ele>1044.8</ele>
        <time>2022-06-09T15:19:46Z</time>
      </trkpt>
      <trkpt lat="44.82621" lon="4.08618">
        <ele>1044</ele>
        <time>2022-06-09T15:19:47Z</time>
      </trkpt>
      <trkpt lat="44.8262" lon="4.08604">
        <ele>1043.2</ele>
        <time>2022-06-09T15:19:48Z</time>
      </trkpt>
      <trkpt lat="44.82621" lon="4.08591">
        <ele>1042.5</ele>
        <time>2022-06-09T15:19:49Z</time>
      </trkpt>
      <trkpt lat="44.82623" lon="4.08578">
        <ele>1041.8</ele>
        <time>2022-06-09T15:19:50Z</time>
      </trkpt>
      <trkpt lat="44.82624" lon="4.08565">
        <ele>1041.1</ele>
        <time>2022-06-09T15:19:51Z</time>
      </trkpt>
      <trkpt lat="44.82625" lon="4.08552">
        <ele>1040.4</ele>
        <time>2022-06-09T15:19:52Z</time>
      </trkpt>
      <trkpt lat="44.82626" lon="4.08539">
        <ele>1039.7</ele>
        <time>2022-06-09T15:19:53Z</time>
      </trkpt>
      <trkpt lat="44.82627" lon="4.08526">
        <ele>1039.1</ele>
        <time>2022-06-09T15:19:54Z</time>
      </trkpt>
      <trkpt lat="44.82628" lon="4.08513">
        <ele>1038.4</ele>
        <time>2022-06-09T15:19:55Z</time>
      </trkpt>
      <trkpt lat="44.82629" lon="4.085">
        <ele>1037.7</ele>
        <time>2022-06-09T15:19:56Z</time>
      </trkpt>
      <trkpt lat="44.82631" lon="4.08486">
        <ele>1037.1</ele>
        <time>2022-06-09T15:19:57Z</time>
      </trkpt>
      <trkpt lat="44.82634" lon="4.08472">
        <ele>1036.4</ele>
        <time>2022-06-09T15:19:58Z</time>
      </trkpt>
      <trkpt lat="44.82638" lon="4.08458">
        <ele>1035.8</ele>
        <time>2022-06-09T15:19:59Z</time>
      </trkpt>
      <trkpt lat="44.82645" lon="4.08445">
        <ele>1035.1</ele>
        <time>2022-06-09T15:20:00Z</time>
      </trkpt>
      <trkpt lat="44.82652" lon="4.08434">
        <ele>1034.5</ele>
        <time>2022-06-09T15:20:01Z</time>
      </trkpt>
      <trkpt lat="44.82659" lon="4.08423">
        <ele>1033.8</ele>
        <time>2022-06-09T15:20:02Z</time>
      </trkpt>
      <trkpt lat="44.82667" lon="4.08414">
        <ele>1033.2</ele>
        <time>2022-06-09T15:20:03Z</time>
      </trkpt>
      <trkpt lat="44.82675" lon="4.08404">
        <ele>1032.7</ele>
        <time>2022-06-09T15:20:04Z</time>
      </trkpt>
      <trkpt lat="44.82683" lon="4.08395">
        <ele>1032.2</ele>
        <time>2022-06-09T15:20:05Z</time>
      </trkpt>
      <trkpt lat="44.8269" lon="4.08384">
        <ele>1031.7</ele>
        <time>2022-06-09T15:20:06Z</time>
      </trkpt>
      <trkpt lat="44.82696" lon="4.08374">
        <ele>1031.2</ele>
        <time>2022-06-09T15:20:07Z</time>
      </trkpt>
      <trkpt lat="44.82702" lon="4.08362">
        <ele>1030.7</ele>
        <time>2022-06-09T15:20:08Z</time>
      </trkpt>
      <trkpt lat="44.82707" lon="4.08349">
        <ele>1030.2</ele>
        <time>2022-06-09T15:20:09Z</time>
      </trkpt>
      <trkpt lat="44.82711" lon="4.08336">
        <ele>1029.6</ele>
        <time>2022-06-09T15:20:10Z</time>
      </trkpt>
      <trkpt lat="44.82716" lon="4.08322">
        <ele>1029</ele>
        <time>2022-06-09T15:20:11Z</time>
      </trkpt>
      <trkpt lat="44.82719" lon="4.08308">
        <ele>1028.4</ele>
        <time>2022-06-09T15:20:12Z</time>
      </trkpt>
      <trkpt lat="44.82722" lon="4.08294">
        <ele>1027.7</ele>
        <time>2022-06-09T15:20:13Z</time>
      </trkpt>
      <trkpt lat="44.82725" lon="4.0828">
        <ele>1027.1</ele>
        <time>2022-06-09T15:20:14Z</time>
      </trkpt>
      <trkpt lat="44.82727" lon="4.08266">
        <ele>1026.5</ele>
        <time>2022-06-09T15:20:15Z</time>
      </trkpt>
      <trkpt lat="44.82729" lon="4.08251">
        <ele>1025.8</ele>
        <time>2022-06-09T15:20:16Z</time>
      </trkpt>
      <trkpt lat="44.82731" lon="4.08236">
        <ele>1025.1</ele>
        <time>2022-06-09T15:20:17Z</time>
      </trkpt>
      <trkpt lat="44.82733" lon="4.08222">
        <ele>1024.4</ele>
        <time>2022-06-09T15:20:18Z</time>
      </trkpt>
      <trkpt lat="44.82736" lon="4.08207">
        <ele>1023.7</ele>
        <time>2022-06-09T15:20:19Z</time>
      </trkpt>
      <trkpt lat="44.82736" lon="4.08192">
        <ele>1023</ele>
        <time>2022-06-09T15:20:20Z</time>
      </trkpt>
      <trkpt lat="44.82734" lon="4.08177">
        <ele>1022.4</ele>
        <time>2022-06-09T15:20:21Z</time>
      </trkpt>
      <trkpt lat="44.82729" lon="4.08163">
        <ele>1021.8</ele>
        <time>2022-06-09T15:20:22Z</time>
      </trkpt>
      <trkpt lat="44.82721" lon="4.08152">
        <ele>1021.3</ele>
        <time>2022-06-09T15:20:23Z</time>
      </trkpt>
      <trkpt lat="44.82711" lon="4.08144">
        <ele>1020.9</ele>
        <time>2022-06-09T15:20:24Z</time>
      </trkpt>
      <trkpt lat="44.82702" lon="4.08137">
        <ele>1020.5</ele>
        <time>2022-06-09T15:20:25Z</time>
      </trkpt>
      <trkpt lat="44.82693" lon="4.08128">
        <ele>1020.1</ele>
        <time>2022-06-09T15:20:26Z</time>
      </trkpt>
      <trkpt lat="44.82686" lon="4.08118">
        <ele>1019.6</ele>
        <time>2022-06-09T15:20:27Z</time>
      </trkpt>
      <trkpt lat="44.82681" lon="4.08106">
        <ele>1019.2</ele>
        <time>2022-06-09T15:20:28Z</time>
      </trkpt>
      <trkpt lat="44.82677" lon="4.08094">
        <ele>1018.7</ele>
        <time>2022-06-09T15:20:29Z</time>
      </trkpt>
      <trkpt lat="44.82674" lon="4.08081">
        <ele>1018.3</ele>
        <time>2022-06-09T15:20:30Z</time>
      </trkpt>
      <trkpt lat="44.82671" lon="4.08069">
        <ele>1017.8</ele>
        <time>2022-06-09T15:20:31Z</time>
      </trkpt>
      <trkpt lat="44.82668" lon="4.08055">
        <ele>1017.3</ele>
        <time>2022-06-09T15:20:32Z</time>
      </trkpt>
      <trkpt lat="44.82665" lon="4.08042">
        <ele>1016.8</ele>
        <time>2022-06-09T15:20:33Z</time>
      </trkpt>
      <trkpt lat="44.82663" lon="4.08029">
        <ele>1016.2</ele>
        <time>2022-06-09T15:20:34Z</time>
      </trkpt>
      <trkpt lat="44.82661" lon="4.08016">
        <ele>1015.7</ele>
        <time>2022-06-09T15:20:35Z</time>
      </trkpt>
      <trkpt lat="44.82659" lon="4.08002">
        <ele>1015.2</ele>
        <time>2022-06-09T15:20:36Z</time>
      </trkpt>
      <trkpt lat="44.82657" lon="4.07988">
        <ele>1014.6</ele>
        <time>2022-06-09T15:20:37Z</time>
      </trkpt>
      <trkpt lat="44.82654" lon="4.07974">
        <ele>1014</ele>
        <time>2022-06-09T15:20:38Z</time>
      </trkpt>
      <trkpt lat="44.82651" lon="4.07961">
        <ele>1013.4</ele>
        <time>2022-06-09T15:20:39Z</time>
      </trkpt>
      <trkpt lat="44.82647" lon="4.07946">
        <ele>1012.8</ele>
        <time>2022-06-09T15:20:40Z</time>
      </trkpt>
      <trkpt lat="44.82646" lon="4.07932">
        <ele>1012.2</ele>
        <time>2022-06-09T15:20:41Z</time>
      </trkpt>
      <trkpt lat="44.82646" lon="4.07917">
        <ele>1011.6</ele>
        <time>2022-06-09T15:20:42Z</time>
      </trkpt>
      <trkpt lat="44.82646" lon="4.07903">
        <ele>1011.1</ele>
        <time>2022-06-09T15:20:43Z</time>
      </trkpt>
      <trkpt lat="44.82644" lon="4.0789">
        <ele>1010.6</ele>
        <time>2022-06-09T15:20:44Z</time>
      </trkpt>
      <trkpt lat="44.82641" lon="4.07877">
        <ele>1010.2</ele>
        <time>2022-06-09T15:20:45Z</time>
      </trkpt>
      <trkpt lat="44.82635" lon="4.07865">
        <ele>1009.8</ele>
        <time>2022-06-09T15:20:46Z</time>
      </trkpt>
      <trkpt lat="44.82629" lon="4.07853">
        <ele>1009.4</ele>
        <time>2022-06-09T15:20:47Z</time>
      </trkpt>
      <trkpt lat="44.82625" lon="4.0784">
        <ele>1008.9</ele>
        <time>2022-06-09T15:20:48Z</time>
      </trkpt>
      <trkpt lat="44.82623" lon="4.07826">
        <ele>1008.5</ele>
        <time>2022-06-09T15:20:49Z</time>
      </trkpt>
      <trkpt lat="44.82623" lon="4.07812">
        <ele>1007.9</ele>
        <time>2022-06-09T15:20:50Z</time>
      </trkpt>
      <trkpt lat="44.82623" lon="4.07797">
        <ele>1007.3</ele>
        <time>2022-06-09T15:20:51Z</time>
      </trkpt>
      <trkpt lat="44.82624" lon="4.07783">
        <ele>1006.8</ele>
        <time>2022-06-09T15:20:52Z</time>
      </trkpt>
      <trkpt lat="44.82624" lon="4.07768">
        <ele>1006.3</ele>
        <time>2022-06-09T15:20:53Z</time>
      </trkpt>
      <trkpt lat="44.82623" lon="4.07753">
        <ele>1005.8</ele>
        <time>2022-06-09T15:20:54Z</time>
      </trkpt>
      <trkpt lat="44.82622" lon="4.07738">
        <ele>1005.2</ele>
        <time>2022-06-09T15:20:55Z</time>
      </trkpt>
      <trkpt lat="44.82622" lon="4.07723">
        <ele>1004.6</ele>
        <time>2022-06-09T15:20:56Z</time>
      </trkpt>
      <trkpt lat="44.82623" lon="4.07708">
        <ele>1003.9</ele>
        <time>2022-06-09T15:20:57Z</time>
      </trkpt>
      <trkpt lat="44.82625" lon="4.07692">
        <ele>1003.2</ele>
        <time>2022-06-09T15:20:58Z</time>
      </trkpt>
      <trkpt lat="44.82624" lon="4.07679">
        <ele>1002.6</ele>
        <time>2022-06-09T15:20:59Z</time>
      </trkpt>
      <trkpt lat="44.82619" lon="4.07669">
        <ele>1002</ele>
        <time>2022-06-09T15:21:00Z</time>
      </trkpt>
      <trkpt lat="44.8261" lon="4.07663">
        <ele>1001.4</ele>
        <time>2022-06-09T15:21:01Z</time>
      </trkpt>
      <trkpt lat="44.82601" lon="4.07664">
        <ele>1000.9</ele>
        <time>2022-06-09T15:21:02Z</time>
      </trkpt>
      <trkpt lat="44.82592" lon="4.07668">
        <ele>1000.3</ele>
        <time>2022-06-09T15:21:03Z</time>
      </trkpt>
      <trkpt lat="44.82583" lon="4.07675">
        <ele>999.9</ele>
        <time>2022-06-09T15:21:04Z</time>
      </trkpt>
      <trkpt lat="44.82576" lon="4.07682">
        <ele>999.4</ele>
        <time>2022-06-09T15:21:05Z</time>
      </trkpt>
      <trkpt lat="44.82568" lon="4.07688">
        <ele>999</ele>
        <time>2022-06-09T15:21:06Z</time>
      </trkpt>
      <trkpt lat="44.8256" lon="4.07697">
        <ele>998.5</ele>
        <time>2022-06-09T15:21:07Z</time>
      </trkpt>
      <trkpt lat="44.82553" lon="4.07704">
        <ele>998</ele>
        <time>2022-06-09T15:21:08Z</time>
      </trkpt>
      <trkpt lat="44.82545" lon="4.07706">
        <ele>997.5</ele>
        <time>2022-06-09T15:21:09Z</time>
      </trkpt>
      <trkpt lat="44.82538" lon="4.07702">
        <ele>997</ele>
        <time>2022-06-09T15:21:10Z</time>
      </trkpt>
      <trkpt lat="44.82532" lon="4.07693">
        <ele>996.5</ele>
        <time>2022-06-09T15:21:11Z</time>
      </trkpt>
      <trkpt lat="44.82529" lon="4.07683">
        <ele>996</ele>
        <time>2022-06-09T15:21:12Z</time>
      </trkpt>
      <trkpt lat="44.82529" lon="4.0767">
        <ele>995.5</ele>
        <time>2022-06-09T15:21:13Z</time>
      </trkpt>
      <trkpt lat="44.82532" lon="4.07658">
        <ele>995</ele>
        <time>2022-06-09T15:21:14Z</time>
      </trkpt>
      <trkpt lat="44.82536" lon="4.07646">
        <ele>994.4</ele>
        <time>2022-06-09T15:21:15Z</time>
      </trkpt>
      <trkpt lat="44.82539" lon="4.07635">
        <ele>993.9</ele>
        <time>2022-06-09T15:21:16Z</time>
      </trkpt>
      <trkpt lat="44.82543" lon="4.07623">
        <ele>993.4</ele>
        <time>2022-06-09T15:21:17Z</time>
      </trkpt>
      <trkpt lat="44.82545" lon="4.07612">
        <ele>992.8</ele>
        <time>2022-06-09T15:21:18Z</time>
      </trkpt>
      <trkpt lat="44.82548" lon="4.076">
        <ele>992.2</ele>
        <time>2022-06-09T15:21:19Z</time>
      </trkpt>
      <trkpt lat="44.82551" lon="4.07587">
        <ele>991.6</ele>
        <time>2022-06-09T15:21:20Z</time>
      </trkpt>
      <trkpt lat="44.82553" lon="4.07574">
        <ele>990.9</ele>
        <time>2022-06-09T15:21:21Z</time>
      </trkpt>
      <trkpt lat="44.82554" lon="4.07561">
        <ele>990.4</ele>
        <time>2022-06-09T15:21:22Z</time>
      </trkpt>
      <trkpt lat="44.82557" lon="4.07548">
        <ele>989.8</ele>
        <time>2022-06-09T15:21:23Z</time>
      </trkpt>
      <trkpt lat="44.82558" lon="4.07535">
        <ele>989.2</ele>
        <time>2022-06-09T15:21:24Z</time>
      </trkpt>
      <trkpt lat="44.82558" lon="4.07522">
        <ele>988.6</ele>
        <time>2022-06-09T15:21:25Z</time>
      </trkpt>
      <trkpt lat="44.82558" lon="4.07507">
        <ele>988</ele>
        <time>2022-06-09T15:21:26Z</time>
      </trkpt>
      <trkpt lat="44.82556" lon="4.07494">
        <ele>987.5</ele>
        <time>2022-06-09T15:21:27Z</time>
      </trkpt>
      <trkpt lat="44.8255" lon="4.07484">
        <ele>987</ele>
        <time>2022-06-09T15:21:28Z</time>
      </trkpt>
      <trkpt lat="44.82542" lon="4.07475">
        <ele>986.5</ele>
        <time>2022-06-09T15:21:29Z</time>
      </trkpt>
      <trkpt lat="44.82534" lon="4.07467">
        <ele>986</ele>
        <time>2022-06-09T15:21:30Z</time>
      </trkpt>
      <trkpt lat="44.82526" lon="4.07458">
        <ele>985.6</ele>
        <time>2022-06-09T15:21:31Z</time>
      </trkpt>
      <trkpt lat="44.8252" lon="4.07448">
        <ele>985.1</ele>
        <time>2022-06-09T15:21:32Z</time>
      </trkpt>
      <trkpt lat="44.82516" lon="4.07435">
        <ele>984.7</ele>
        <time>2022-06-09T15:21:33Z</time>
      </trkpt>
      <trkpt lat="44.82515" lon="4.07421">
        <ele>984.2</ele>
        <time>2022-06-09T15:21:34Z</time>
      </trkpt>
      <trkpt lat="44.82516" lon="4.07408">
        <ele>983.8</ele>
        <time>2022-06-09T15:21:35Z</time>
      </trkpt>
      <trkpt lat="44.82519" lon="4.07395">
        <ele>983.3</ele>
        <time>2022-06-09T15:21:36Z</time>
      </trkpt>
      <trkpt lat="44.8252" lon="4.07383">
        <ele>982.9</ele>
        <time>2022-06-09T15:21:37Z</time>
      </trkpt>
      <trkpt lat="44.82522" lon="4.07372">
        <ele>982.4</ele>
        <time>2022-06-09T15:21:38Z</time>
      </trkpt>
      <trkpt lat="44.82523" lon="4.07359">
        <ele>982</ele>
        <time>2022-06-09T15:21:39Z</time>
      </trkpt>
      <trkpt lat="44.82525" lon="4.07347">
        <ele>981.5</ele>
        <time>2022-06-09T15:21:40Z</time>
      </trkpt>
      <trkpt lat="44.82526" lon="4.07335">
        <ele>981</ele>
        <time>2022-06-09T15:21:41Z</time>
      </trkpt>
      <trkpt lat="44.82528" lon="4.07322">
        <ele>980.5</ele>
        <time>2022-06-09T15:21:42Z</time>
      </trkpt>
      <trkpt lat="44.82531" lon="4.07309">
        <ele>980</ele>
        <time>2022-06-09T15:21:43Z</time>
      </trkpt>
      <trkpt lat="44.82534" lon="4.07297">
        <ele>979.5</ele>
        <time>2022-06-09T15:21:44Z</time>
      </trkpt>
      <trkpt lat="44.82538" lon="4.07285">
        <ele>979</ele>
        <time>2022-06-09T15:21:45Z</time>
      </trkpt>
      <trkpt lat="44.82541" lon="4.07274">
        <ele>978.5</ele>
        <time>2022-06-09T15:21:46Z</time>
      </trkpt>
      <trkpt lat="44.82544" lon="4.07262">
        <ele>977.9</ele>
        <time>2022-06-09T15:21:47Z</time>
      </trkpt>
      <trkpt lat="44.82546" lon="4.0725">
        <ele>977.4</ele>
        <time>2022-06-09T15:21:48Z</time>
      </trkpt>
      <trkpt lat="44.82547" lon="4.07237">
        <ele>976.9</ele>
        <time>2022-06-09T15:21:49Z</time>
      </trkpt>
      <trkpt lat="44.82548" lon="4.07225">
        <ele>976.4</ele>
        <time>2022-06-09T15:21:50Z</time>
      </trkpt>
      <trkpt lat="44.82547" lon="4.07212">
        <ele>975.9</ele>
        <time>2022-06-09T15:21:51Z</time>
      </trkpt>
      <trkpt lat="44.82546" lon="4.072">
        <ele>975.5</ele>
        <time>2022-06-09T15:21:52Z</time>
      </trkpt>
      <trkpt lat="44.82543" lon="4.07187">
        <ele>975</ele>
        <time>2022-06-09T15:21:53Z</time>
      </trkpt>
      <trkpt lat="44.82541" lon="4.07175">
        <ele>974.6</ele>
        <time>2022-06-09T15:21:54Z</time>
      </trkpt>
      <trkpt lat="44.82539" lon="4.07162">
        <ele>974.1</ele>
        <time>2022-06-09T15:21:55Z</time>
      </trkpt>
      <trkpt lat="44.82539" lon="4.0715">
        <ele>973.7</ele>
        <time>2022-06-09T15:21:56Z</time>
      </trkpt>
      <trkpt lat="44.82539" lon="4.07136">
        <ele>973.2</ele>
        <time>2022-06-09T15:21:57Z</time>
      </trkpt>
      <trkpt lat="44.82541" lon="4.07123">
        <ele>972.7</ele>
        <time>2022-06-09T15:21:58Z</time>
      </trkpt>
      <trkpt lat="44.82543" lon="4.0711">
        <ele>972.2</ele>
        <time>2022-06-09T15:21:59Z</time>
      </trkpt>
      <trkpt lat="44.82546" lon="4.07097">
        <ele>971.6</ele>
        <time>2022-06-09T15:22:00Z</time>
      </trkpt>
      <trkpt lat="44.82548" lon="4.07084">
        <ele>971</ele>
        <time>2022-06-09T15:22:01Z</time>
      </trkpt>
      <trkpt lat="44.82551" lon="4.07072">
        <ele>970.5</ele>
        <time>2022-06-09T15:22:02Z</time>
      </trkpt>
      <trkpt lat="44.82552" lon="4.07061">
        <ele>970.1</ele>
        <time>2022-06-09T15:22:03Z</time>
      </trkpt>
      <trkpt lat="44.82552" lon="4.07049">
        <ele>969.6</ele>
        <time>2022-06-09T15:22:04Z</time>
      </trkpt>
      <trkpt lat="44.82552" lon="4.07038">
        <ele>969.2</ele>
        <time>2022-06-09T15:22:05Z</time>
      </trkpt>
      <trkpt lat="44.82551" lon="4.07027">
        <ele>968.8</ele>
        <time>2022-06-09T15:22:06Z</time>
      </trkpt>
      <trkpt lat="44.8255" lon="4.07015">
        <ele>968.3</ele>
        <time>2022-06-09T15:22:07Z</time>
      </trkpt>
      <trkpt lat="44.82549" lon="4.07004">
        <ele>967.9</ele>
        <time>2022-06-09T15:22:08Z</time>
      </trkpt>
      <trkpt lat="44.82547" lon="4.06992">
        <ele>967.4</ele>
        <time>2022-06-09T15:22:09Z</time>
      </trkpt>
      <trkpt lat="44.82544" lon="4.0698">
        <ele>966.9</ele>
        <time>2022-06-09T15:22:10Z</time>
      </trkpt>
      <trkpt lat="44.82539" lon="4.06969">
        <ele>966.5</ele>
        <time>2022-06-09T15:22:11Z</time>
      </trkpt>
      <trkpt lat="44.82533" lon="4.0696">
        <ele>966.1</ele>
        <time>2022-06-09T15:22:12Z</time>
      </trkpt>
      <trkpt lat="44.82526" lon="4.06951">
        <ele>965.6</ele>
        <time>2022-06-09T15:22:13Z</time>
      </trkpt>
      <trkpt lat="44.8252" lon="4.06941">
        <ele>965.2</ele>
        <time>2022-06-09T15:22:14Z</time>
      </trkpt>
      <trkpt lat="44.82516" lon="4.06929">
        <ele>964.7</ele>
        <time>2022-06-09T15:22:15Z</time>
      </trkpt>
      <trkpt lat="44.82514" lon="4.06916">
        <ele>964.2</ele>
        <time>2022-06-09T15:22:16Z</time>
      </trkpt>
      <trkpt lat="44.82514" lon="4.06903">
        <ele>963.7</ele>
        <time>2022-06-09T15:22:17Z</time>
      </trkpt>
      <trkpt lat="44.82517" lon="4.0689">
        <ele>963.2</ele>
        <time>2022-06-09T15:22:18Z</time>
      </trkpt>
      <trkpt lat="44.82519" lon="4.06879">
        <ele>962.8</ele>
        <time>2022-06-09T15:22:19Z</time>
      </trkpt>
      <trkpt lat="44.8252" lon="4.06867">
        <ele>962.3</ele>
        <time>2022-06-09T15:22:20Z</time>
      </trkpt>
      <trkpt lat="44.8252" lon="4.06855">
        <ele>961.8</ele>
        <time>2022-06-09T15:22:21Z</time>
      </trkpt>
      <trkpt lat="44.82519" lon="4.06843">
        <ele>961.3</ele>
        <time>2022-06-09T15:22:22Z</time>
      </trkpt>
      <trkpt lat="44.82518" lon="4.0683">
        <ele>960.9</ele>
        <time>2022-06-09T15:22:23Z</time>
      </trkpt>
      <trkpt lat="44.82517" lon="4.06818">
        <ele>960.4</ele>
        <time>2022-06-09T15:22:24Z</time>
      </trkpt>
      <trkpt lat="44.82516" lon="4.06805">
        <ele>959.9</ele>
        <time>2022-06-09T15:22:25Z</time>
      </trkpt>
      <trkpt lat="44.82514" lon="4.06793">
        <ele>959.4</ele>
        <time>2022-06-09T15:22:26Z</time>
      </trkpt>
      <trkpt lat="44.82514" lon="4.0678">
        <ele>959</ele>
        <time>2022-06-09T15:22:27Z</time>
      </trkpt>
      <trkpt lat="44.82513" lon="4.06767">
        <ele>958.5</ele>
        <time>2022-06-09T15:22:28Z</time>
      </trkpt>
      <trkpt lat="44.82512" lon="4.06754">
        <ele>958</ele>
        <time>2022-06-09T15:22:29Z</time>
      </trkpt>
      <trkpt lat="44.82511" lon="4.06741">
        <ele>957.6</ele>
        <time>2022-06-09T15:22:30Z</time>
      </trkpt>
      <trkpt lat="44.8251" lon="4.06729">
        <ele>957.1</ele>
        <time>2022-06-09T15:22:31Z</time>
      </trkpt>
      <trkpt lat="44.8251" lon="4.06716">
        <ele>956.7</ele>
        <time>2022-06-09T15:22:32Z</time>
      </trkpt>
      <trkpt lat="44.82512" lon="4.06704">
        <ele>956.2</ele>
        <time>2022-06-09T15:22:33Z</time>
      </trkpt>
      <trkpt lat="44.82514" lon="4.06691">
        <ele>955.6</ele>
        <time>2022-06-09T15:22:34Z</time>
      </trkpt>
      <trkpt lat="44.82517" lon="4.06679">
        <ele>955.1</ele>
        <time>2022-06-09T15:22:35Z</time>
      </trkpt>
      <trkpt lat="44.82519" lon="4.06667">
        <ele>954.5</ele>
        <time>2022-06-09T15:22:36Z</time>
      </trkpt>
      <trkpt lat="44.82517" lon="4.06655">
        <ele>954</ele>
        <time>2022-06-09T15:22:37Z</time>
      </trkpt>
      <trkpt lat="44.82514" lon="4.06643">
        <ele>953.5</ele>
        <time>2022-06-09T15:22:38Z</time>
      </trkpt>
      <trkpt lat="44.8251" lon="4.06632">
        <ele>953</ele>
        <time>2022-06-09T15:22:39Z</time>
      </trkpt>
      <trkpt lat="44.82504" lon="4.06623">
        <ele>952.5</ele>
        <time>2022-06-09T15:22:40Z</time>
      </trkpt>
      <trkpt lat="44.82496" lon="4.06616">
        <ele>952</ele>
        <time>2022-06-09T15:22:41Z</time>
      </trkpt>
      <trkpt lat="44.82488" lon="4.0661">
        <ele>951.5</ele>
        <time>2022-06-09T15:22:42Z</time>
      </trkpt>
      <trkpt lat="44.82479" lon="4.06606">
        <ele>951</ele>
        <time>2022-06-09T15:22:43Z</time>
      </trkpt>
      <trkpt lat="44.8247" lon="4.06601">
        <ele>950.6</ele>
        <time>2022-06-09T15:22:44Z</time>
      </trkpt>
      <trkpt lat="44.82462" lon="4.06595">
        <ele>950.2</ele>
        <time>2022-06-09T15:22:45Z</time>
      </trkpt>
      <trkpt lat="44.82456" lon="4.06585">
        <ele>949.7</ele>
        <time>2022-06-09T15:22:46Z</time>
      </trkpt>
      <trkpt lat="44.82451" lon="4.06574">
        <ele>949.2</ele>
        <time>2022-06-09T15:22:47Z</time>
      </trkpt>
      <trkpt lat="44.82447" lon="4.06561">
        <ele>948.6</ele>
        <time>2022-06-09T15:22:48Z</time>
      </trkpt>
      <trkpt lat="44.82443" lon="4.06549">
        <ele>948.1</ele>
        <time>2022-06-09T15:22:49Z</time>
      </trkpt>
      <trkpt lat="44.82439" lon="4.06538">
        <ele>947.5</ele>
        <time>2022-06-09T15:22:50Z</time>
      </trkpt>
      <trkpt lat="44.82435" lon="4.06525">
        <ele>947</ele>
        <time>2022-06-09T15:22:51Z</time>
      </trkpt>
      <trkpt lat="44.82435" lon="4.06512">
        <ele>946.5</ele>
        <time>2022-06-09T15:22:52Z</time>
      </trkpt>
      <trkpt lat="44.82437" lon="4.06499">
        <ele>946</ele>
        <time>2022-06-09T15:22:53Z</time>
      </trkpt>
      <trkpt lat="44.82441" lon="4.06487">
        <ele>945.5</ele>
        <time>2022-06-09T15:22:54Z</time>
      </trkpt>
      <trkpt lat="44.82443" lon="4.06475">
        <ele>945</ele>
        <time>2022-06-09T15:22:55Z</time>
      </trkpt>
      <trkpt lat="44.82446" lon="4.06463">
        <ele>944.6</ele>
        <time>2022-06-09T15:22:56Z</time>
      </trkpt>
      <trkpt lat="44.82449" lon="4.06452">
        <ele>944.2</ele>
        <time>2022-06-09T15:22:57Z</time>
      </trkpt>
      <trkpt lat="44.82451" lon="4.0644">
        <ele>943.8</ele>
        <time>2022-06-09T15:22:58Z</time>
      </trkpt>
      <trkpt lat="44.82455" lon="4.06429">
        <ele>943.5</ele>
        <time>2022-06-09T15:22:59Z</time>
      </trkpt>
      <trkpt lat="44.82458" lon="4.06419">
        <ele>943.3</ele>
        <time>2022-06-09T15:23:00Z</time>
      </trkpt>
      <trkpt lat="44.82458" lon="4.06409">
        <ele>942.6</ele>
        <time>2022-06-09T15:23:01Z</time>
      </trkpt>
      <trkpt lat="44.82455" lon="4.06399">
        <ele>942.6</ele>
        <time>2022-06-09T15:23:02Z</time>
      </trkpt>
      <trkpt lat="44.82451" lon="4.06392">
        <ele>943.1</ele>
        <time>2022-06-09T15:23:03Z</time>
      </trkpt>
      <trkpt lat="44.82448" lon="4.06385">
        <ele>943.5</ele>
        <time>2022-06-09T15:23:04Z</time>
      </trkpt>
      <trkpt lat="44.82446" lon="4.06379">
        <ele>943.8</ele>
        <time>2022-06-09T15:23:05Z</time>
      </trkpt>
      <trkpt lat="44.82445" lon="4.06373">
        <ele>944.1</ele>
        <time>2022-06-09T15:23:06Z</time>
      </trkpt>
      <trkpt lat="44.82444" lon="4.06369">
        <ele>944.3</ele>
        <time>2022-06-09T15:23:07Z</time>
      </trkpt>
      <trkpt lat="44.82442" lon="4.06365">
        <ele>944.5</ele>
        <time>2022-06-09T15:23:08Z</time>
      </trkpt>
      <trkpt lat="44.82441" lon="4.0636">
        <ele>944.7</ele>
        <time>2022-06-09T15:23:09Z</time>
      </trkpt>
      <trkpt lat="44.82441" lon="4.06357">
        <ele>944.9</ele>
        <time>2022-06-09T15:23:10Z</time>
      </trkpt>
      <trkpt lat="44.8244" lon="4.06353">
        <ele>945</ele>
        <time>2022-06-09T15:23:11Z</time>
      </trkpt>
      <trkpt lat="44.82439" lon="4.06349">
        <ele>945.2</ele>
        <time>2022-06-09T15:23:12Z</time>
      </trkpt>
      <trkpt lat="44.82438" lon="4.06348">
        <ele>945.3</ele>
        <time>2022-06-09T15:23:13Z</time>
      </trkpt>
      <trkpt lat="44.82439" lon="4.06344">
        <ele>945.4</ele>
        <time>2022-06-09T15:23:14Z</time>
      </trkpt>
      <trkpt lat="44.82438" lon="4.06342">
        <ele>945.6</ele>
        <time>2022-06-09T15:23:15Z</time>
      </trkpt>
      <trkpt lat="44.82436" lon="4.06338">
        <ele>945.8</ele>
        <time>2022-06-09T15:23:16Z</time>
      </trkpt>
      <trkpt lat="44.82435" lon="4.06334">
        <ele>945.9</ele>
        <time>2022-06-09T15:23:17Z</time>
      </trkpt>
      <trkpt lat="44.82434" lon="4.06328">
        <ele>946.2</ele>
        <time>2022-06-09T15:23:18Z</time>
      </trkpt>
      <trkpt lat="44.82433" lon="4.06326">
        <ele>946.3</ele>
        <time>2022-06-09T15:23:19Z</time>
      </trkpt>
      <trkpt lat="44.82432" lon="4.0632">
        <ele>946.6</ele>
        <time>2022-06-09T15:23:21Z</time>
      </trkpt>
      <trkpt lat="44.82431" lon="4.06317">
        <ele>946.7</ele>
        <time>2022-06-09T15:23:22Z</time>
      </trkpt>
      <trkpt lat="44.82429" lon="4.06309">
        <ele>947.2</ele>
        <time>2022-06-09T15:23:24Z</time>
      </trkpt>
      <trkpt lat="44.82428" lon="4.06306">
        <ele>947.3</ele>
        <time>2022-06-09T15:23:25Z</time>
      </trkpt>
      <trkpt lat="44.82426" lon="4.06301">
        <ele>947.6</ele>
        <time>2022-06-09T15:23:27Z</time>
      </trkpt>
      <trkpt lat="44.82425" lon="4.06299">
        <ele>947.8</ele>
        <time>2022-06-09T15:23:28Z</time>
      </trkpt>
      <trkpt lat="44.82423" lon="4.06295">
        <ele>948</ele>
        <time>2022-06-09T15:23:29Z</time>
      </trkpt>
      <trkpt lat="44.82422" lon="4.06292">
        <ele>948.2</ele>
        <time>2022-06-09T15:23:31Z</time>
      </trkpt>
      <trkpt lat="44.82421" lon="4.06291">
        <ele>948.3</ele>
        <time>2022-06-09T15:23:32Z</time>
      </trkpt>
      <trkpt lat="44.8242" lon="4.06287">
        <ele>948.6</ele>
        <time>2022-06-09T15:23:33Z</time>
      </trkpt>
      <trkpt lat="44.8242" lon="4.06286">
        <ele>948.6</ele>
        <time>2022-06-09T15:23:34Z</time>
      </trkpt>
      <trkpt lat="44.82419" lon="4.06283">
        <ele>948.8</ele>
        <time>2022-06-09T15:23:35Z</time>
      </trkpt>
      <trkpt lat="44.82418" lon="4.06281">
        <ele>948.9</ele>
        <time>2022-06-09T15:23:36Z</time>
      </trkpt>
      <trkpt lat="44.82415" lon="4.06279">
        <ele>949.2</ele>
        <time>2022-06-09T15:23:37Z</time>
      </trkpt>
      <trkpt lat="44.82413" lon="4.06276">
        <ele>949.4</ele>
        <time>2022-06-09T15:23:39Z</time>
      </trkpt>
      <trkpt lat="44.82413" lon="4.06274">
        <ele>949.5</ele>
        <time>2022-06-09T15:23:41Z</time>
      </trkpt>
      <trkpt lat="44.8241" lon="4.06271">
        <ele>949.8</ele>
        <time>2022-06-09T15:23:42Z</time>
      </trkpt>
      <trkpt lat="44.82409" lon="4.0627">
        <ele>949.9</ele>
        <time>2022-06-09T15:23:44Z</time>
      </trkpt>
      <trkpt lat="44.82406" lon="4.06267">
        <ele>950.2</ele>
        <time>2022-06-09T15:23:45Z</time>
      </trkpt>
      <trkpt lat="44.82403" lon="4.06264">
        <ele>950.4</ele>
        <time>2022-06-09T15:23:47Z</time>
      </trkpt>
      <trkpt lat="44.82403" lon="4.06263">
        <ele>950.5</ele>
        <time>2022-06-09T15:23:48Z</time>
      </trkpt>
      <trkpt lat="44.824" lon="4.06261">
        <ele>950.7</ele>
        <time>2022-06-09T15:23:49Z</time>
      </trkpt>
      <trkpt lat="44.82399" lon="4.06261">
        <ele>950.8</ele>
        <time>2022-06-09T15:23:50Z</time>
      </trkpt>
      <trkpt lat="44.82398" lon="4.0626">
        <ele>950.9</ele>
        <time>2022-06-09T15:23:51Z</time>
      </trkpt>
      <trkpt lat="44.82396" lon="4.06258">
        <ele>951</ele>
        <time>2022-06-09T15:23:52Z</time>
      </trkpt>
      <trkpt lat="44.82395" lon="4.06257">
        <ele>951.1</ele>
        <time>2022-06-09T15:23:53Z</time>
      </trkpt>
      <trkpt lat="44.82394" lon="4.06255">
        <ele>951.3</ele>
        <time>2022-06-09T15:23:54Z</time>
      </trkpt>
      <trkpt lat="44.82393" lon="4.06254">
        <ele>951.4</ele>
        <time>2022-06-09T15:23:55Z</time>
      </trkpt>
      <trkpt lat="44.82391" lon="4.06251">
        <ele>951.6</ele>
        <time>2022-06-09T15:23:56Z</time>
      </trkpt>
      <trkpt lat="44.8239" lon="4.0625">
        <ele>951.7</ele>
        <time>2022-06-09T15:23:58Z</time>
      </trkpt>
      <trkpt lat="44.82389" lon="4.06248">
        <ele>951.8</ele>
        <time>2022-06-09T15:23:59Z</time>
      </trkpt>
      <trkpt lat="44.82389" lon="4.06246">
        <ele>951.9</ele>
        <time>2022-06-09T15:24:00Z</time>
      </trkpt>
      <trkpt lat="44.82389" lon="4.06243">
        <ele>952.1</ele>
        <time>2022-06-09T15:24:01Z</time>
      </trkpt>
      <trkpt lat="44.82389" lon="4.06242">
        <ele>952.1</ele>
        <time>2022-06-09T15:24:02Z</time>
      </trkpt>
      <trkpt lat="44.82389" lon="4.06241">
        <ele>952.2</ele>
        <time>2022-06-09T15:24:03Z</time>
      </trkpt>
      <trkpt lat="44.82389" lon="4.06237">
        <ele>952.4</ele>
        <time>2022-06-09T15:24:04Z</time>
      </trkpt>
      <trkpt lat="44.82388" lon="4.06235">
        <ele>952.5</ele>
        <time>2022-06-09T15:24:06Z</time>
      </trkpt>
      <trkpt lat="44.82386" lon="4.06231">
        <ele>952.7</ele>
        <time>2022-06-09T15:24:07Z</time>
      </trkpt>
      <trkpt lat="44.82385" lon="4.06229">
        <ele>952.8</ele>
        <time>2022-06-09T15:24:09Z</time>
      </trkpt>
      <trkpt lat="44.82385" lon="4.06227">
        <ele>953</ele>
        <time>2022-06-09T15:24:10Z</time>
      </trkpt>
      <trkpt lat="44.82384" lon="4.06224">
        <ele>953.1</ele>
        <time>2022-06-09T15:24:11Z</time>
      </trkpt>
      <trkpt lat="44.82384" lon="4.06222">
        <ele>953.2</ele>
        <time>2022-06-09T15:24:12Z</time>
      </trkpt>
      <trkpt lat="44.82384" lon="4.0622">
        <ele>953.3</ele>
        <time>2022-06-09T15:24:13Z</time>
      </trkpt>
      <trkpt lat="44.82383" lon="4.06218">
        <ele>953.4</ele>
        <time>2022-06-09T15:24:14Z</time>
      </trkpt>
      <trkpt lat="44.82383" lon="4.06215">
        <ele>953.6</ele>
        <time>2022-06-09T15:24:15Z</time>
      </trkpt>
      <trkpt lat="44.82383" lon="4.06214">
        <ele>953.7</ele>
        <time>2022-06-09T15:24:16Z</time>
      </trkpt>
      <trkpt lat="44.82383" lon="4.06213">
        <ele>953.8</ele>
        <time>2022-06-09T15:24:17Z</time>
      </trkpt>
      <trkpt lat="44.82384" lon="4.06211">
        <ele>953.8</ele>
        <time>2022-06-09T15:24:18Z</time>
      </trkpt>
      <trkpt lat="44.82383" lon="4.06209">
        <ele>953.9</ele>
        <time>2022-06-09T15:24:19Z</time>
      </trkpt>
      <trkpt lat="44.82382" lon="4.06206">
        <ele>954.1</ele>
        <time>2022-06-09T15:24:21Z</time>
      </trkpt>
      <trkpt lat="44.82382" lon="4.06205">
        <ele>954.2</ele>
        <time>2022-06-09T15:24:22Z</time>
      </trkpt>
      <trkpt lat="44.82383" lon="4.06203">
        <ele>954.3</ele>
        <time>2022-06-09T15:24:23Z</time>
      </trkpt>
      <trkpt lat="44.82383" lon="4.06201">
        <ele>954.4</ele>
        <time>2022-06-09T15:24:24Z</time>
      </trkpt>
      <trkpt lat="44.82384" lon="4.06199">
        <ele>954.6</ele>
        <time>2022-06-09T15:24:25Z</time>
      </trkpt>
      <trkpt lat="44.82384" lon="4.06195">
        <ele>954.8</ele>
        <time>2022-06-09T15:24:26Z</time>
      </trkpt>
      <trkpt lat="44.82384" lon="4.06194">
        <ele>954.9</ele>
        <time>2022-06-09T15:24:27Z</time>
      </trkpt>
      <trkpt lat="44.82385" lon="4.06191">
        <ele>955</ele>
        <time>2022-06-09T15:24:29Z</time>
      </trkpt>
      <trkpt lat="44.82385" lon="4.06189">
        <ele>955.2</ele>
        <time>2022-06-09T15:24:30Z</time>
      </trkpt>
      <trkpt lat="44.82385" lon="4.06184">
        <ele>955.4</ele>
        <time>2022-06-09T15:24:31Z</time>
      </trkpt>
      <trkpt lat="44.82385" lon="4.06182">
        <ele>955.6</ele>
        <time>2022-06-09T15:24:33Z</time>
      </trkpt>
      <trkpt lat="44.82385" lon="4.0618">
        <ele>955.7</ele>
        <time>2022-06-09T15:24:34Z</time>
      </trkpt>
      <trkpt lat="44.82385" lon="4.06176">
        <ele>955.9</ele>
        <time>2022-06-09T15:24:35Z</time>
      </trkpt>
      <trkpt lat="44.82385" lon="4.06175">
        <ele>956</ele>
        <time>2022-06-09T15:24:36Z</time>
      </trkpt>
      <trkpt lat="44.82385" lon="4.0617">
        <ele>956.2</ele>
        <time>2022-06-09T15:24:38Z</time>
      </trkpt>
      <trkpt lat="44.82385" lon="4.06169">
        <ele>956.3</ele>
        <time>2022-06-09T15:24:39Z</time>
      </trkpt>
      <trkpt lat="44.82385" lon="4.06167">
        <ele>956.4</ele>
        <time>2022-06-09T15:24:40Z</time>
      </trkpt>
      <trkpt lat="44.82385" lon="4.06165">
        <ele>956.5</ele>
        <time>2022-06-09T15:24:41Z</time>
      </trkpt>
      <trkpt lat="44.82384" lon="4.06161">
        <ele>956.8</ele>
        <time>2022-06-09T15:24:42Z</time>
      </trkpt>
      <trkpt lat="44.82384" lon="4.06159">
        <ele>956.9</ele>
        <time>2022-06-09T15:24:43Z</time>
      </trkpt>
      <trkpt lat="44.82384" lon="4.06157">
        <ele>957</ele>
        <time>2022-06-09T15:24:45Z</time>
      </trkpt>
      <trkpt lat="44.82384" lon="4.06152">
        <ele>957.3</ele>
        <time>2022-06-09T15:24:46Z</time>
      </trkpt>
      <trkpt lat="44.82384" lon="4.0615">
        <ele>957.4</ele>
        <time>2022-06-09T15:24:48Z</time>
      </trkpt>
      <trkpt lat="44.82384" lon="4.06147">
        <ele>957.6</ele>
        <time>2022-06-09T15:24:49Z</time>
      </trkpt>
      <trkpt lat="44.82383" lon="4.06145">
        <ele>957.7</ele>
        <time>2022-06-09T15:24:50Z</time>
      </trkpt>
      <trkpt lat="44.82383" lon="4.06143">
        <ele>957.8</ele>
        <time>2022-06-09T15:24:51Z</time>
      </trkpt>
      <trkpt lat="44.82383" lon="4.0614">
        <ele>958</ele>
        <time>2022-06-09T15:24:52Z</time>
      </trkpt>
      <trkpt lat="44.82383" lon="4.06135">
        <ele>958.3</ele>
        <time>2022-06-09T15:24:53Z</time>
      </trkpt>
      <trkpt lat="44.82382" lon="4.06133">
        <ele>958.4</ele>
        <time>2022-06-09T15:24:54Z</time>
      </trkpt>
      <trkpt lat="44.82382" lon="4.06131">
        <ele>958.6</ele>
        <time>2022-06-09T15:24:56Z</time>
      </trkpt>
      <trkpt lat="44.82382" lon="4.06128">
        <ele>958.7</ele>
        <time>2022-06-09T15:24:57Z</time>
      </trkpt>
      <trkpt lat="44.82381" lon="4.06126">
        <ele>958.8</ele>
        <time>2022-06-09T15:24:58Z</time>
      </trkpt>
      <trkpt lat="44.82381" lon="4.06124">
        <ele>959</ele>
        <time>2022-06-09T15:24:59Z</time>
      </trkpt>
      <trkpt lat="44.82381" lon="4.0612">
        <ele>959.2</ele>
        <time>2022-06-09T15:25:00Z</time>
      </trkpt>
      <trkpt lat="44.8238" lon="4.06117">
        <ele>959.3</ele>
        <time>2022-06-09T15:25:02Z</time>
      </trkpt>
      <trkpt lat="44.8238" lon="4.06112">
        <ele>959.6</ele>
        <time>2022-06-09T15:25:03Z</time>
      </trkpt>
      <trkpt lat="44.8238" lon="4.0611">
        <ele>959.8</ele>
        <time>2022-06-09T15:25:04Z</time>
      </trkpt>
      <trkpt lat="44.8238" lon="4.06106">
        <ele>960</ele>
        <time>2022-06-09T15:25:06Z</time>
      </trkpt>
      <trkpt lat="44.8238" lon="4.06103">
        <ele>960.2</ele>
        <time>2022-06-09T15:25:07Z</time>
      </trkpt>
      <trkpt lat="44.8238" lon="4.061">
        <ele>960.4</ele>
        <time>2022-06-09T15:25:09Z</time>
      </trkpt>
      <trkpt lat="44.8238" lon="4.06098">
        <ele>960.5</ele>
        <time>2022-06-09T15:25:10Z</time>
      </trkpt>
      <trkpt lat="44.82379" lon="4.06095">
        <ele>960.7</ele>
        <time>2022-06-09T15:25:11Z</time>
      </trkpt>
      <trkpt lat="44.82379" lon="4.06093">
        <ele>960.8</ele>
        <time>2022-06-09T15:25:12Z</time>
      </trkpt>
      <trkpt lat="44.82379" lon="4.06089">
        <ele>961.1</ele>
        <time>2022-06-09T15:25:14Z</time>
      </trkpt>
      <trkpt lat="44.82378" lon="4.06085">
        <ele>961.3</ele>
        <time>2022-06-09T15:25:15Z</time>
      </trkpt>
      <trkpt lat="44.82378" lon="4.06084">
        <ele>961.4</ele>
        <time>2022-06-09T15:25:16Z</time>
      </trkpt>
      <trkpt lat="44.82378" lon="4.0608">
        <ele>961.6</ele>
        <time>2022-06-09T15:25:17Z</time>
      </trkpt>
      <trkpt lat="44.82377" lon="4.06078">
        <ele>961.8</ele>
        <time>2022-06-09T15:25:18Z</time>
      </trkpt>
      <trkpt lat="44.82376" lon="4.06076">
        <ele>961.9</ele>
        <time>2022-06-09T15:25:20Z</time>
      </trkpt>
      <trkpt lat="44.82377" lon="4.06074">
        <ele>962</ele>
        <time>2022-06-09T15:25:21Z</time>
      </trkpt>
      <trkpt lat="44.82377" lon="4.06072">
        <ele>962.2</ele>
        <time>2022-06-09T15:25:22Z</time>
      </trkpt>
      <trkpt lat="44.82377" lon="4.06068">
        <ele>962.4</ele>
        <time>2022-06-09T15:25:23Z</time>
      </trkpt>
      <trkpt lat="44.82377" lon="4.06061">
        <ele>962.8</ele>
        <time>2022-06-09T15:25:25Z</time>
      </trkpt>
      <trkpt lat="44.82376" lon="4.06059">
        <ele>962.9</ele>
        <time>2022-06-09T15:25:27Z</time>
      </trkpt>
      <trkpt lat="44.82375" lon="4.06057">
        <ele>963.1</ele>
        <time>2022-06-09T15:25:28Z</time>
      </trkpt>
      <trkpt lat="44.82374" lon="4.06056">
        <ele>963.2</ele>
        <time>2022-06-09T15:25:29Z</time>
      </trkpt>
      <trkpt lat="44.82372" lon="4.06052">
        <ele>963.5</ele>
        <time>2022-06-09T15:25:30Z</time>
      </trkpt>
      <trkpt lat="44.82372" lon="4.06051">
        <ele>963.5</ele>
        <time>2022-06-09T15:25:31Z</time>
      </trkpt>
      <trkpt lat="44.82371" lon="4.06048">
        <ele>963.7</ele>
        <time>2022-06-09T15:25:32Z</time>
      </trkpt>
      <trkpt lat="44.8237" lon="4.06046">
        <ele>963.9</ele>
        <time>2022-06-09T15:25:34Z</time>
      </trkpt>
      <trkpt lat="44.82368" lon="4.06044">
        <ele>964.1</ele>
        <time>2022-06-09T15:25:35Z</time>
      </trkpt>
      <trkpt lat="44.82368" lon="4.06042">
        <ele>964.2</ele>
        <time>2022-06-09T15:25:36Z</time>
      </trkpt>
      <trkpt lat="44.82367" lon="4.0604">
        <ele>964.4</ele>
        <time>2022-06-09T15:25:37Z</time>
      </trkpt>
      <trkpt lat="44.82365" lon="4.0604">
        <ele>964.5</ele>
        <time>2022-06-09T15:25:38Z</time>
      </trkpt>
      <trkpt lat="44.82364" lon="4.06038">
        <ele>964.6</ele>
        <time>2022-06-09T15:25:39Z</time>
      </trkpt>
      <trkpt lat="44.82363" lon="4.06037">
        <ele>964.8</ele>
        <time>2022-06-09T15:25:40Z</time>
      </trkpt>
      <trkpt lat="44.82361" lon="4.06037">
        <ele>964.9</ele>
        <time>2022-06-09T15:25:41Z</time>
      </trkpt>
      <trkpt lat="44.8236" lon="4.06037">
        <ele>965</ele>
        <time>2022-06-09T15:25:42Z</time>
      </trkpt>
      <trkpt lat="44.82358" lon="4.06037">
        <ele>965.2</ele>
        <time>2022-06-09T15:25:43Z</time>
      </trkpt>
      <trkpt lat="44.82355" lon="4.06035">
        <ele>965.4</ele>
        <time>2022-06-09T15:25:44Z</time>
      </trkpt>
      <trkpt lat="44.82353" lon="4.06034">
        <ele>965.6</ele>
        <time>2022-06-09T15:25:46Z</time>
      </trkpt>
      <trkpt lat="44.82352" lon="4.06033">
        <ele>965.7</ele>
        <time>2022-06-09T15:25:47Z</time>
      </trkpt>
      <trkpt lat="44.82351" lon="4.06033">
        <ele>965.8</ele>
        <time>2022-06-09T15:25:48Z</time>
      </trkpt>
      <trkpt lat="44.82351" lon="4.06032">
        <ele>965.9</ele>
        <time>2022-06-09T15:25:49Z</time>
      </trkpt>
      <trkpt lat="44.82348" lon="4.06032">
        <ele>966.1</ele>
        <time>2022-06-09T15:25:50Z</time>
      </trkpt>
      <trkpt lat="44.82347" lon="4.06032">
        <ele>966.2</ele>
        <time>2022-06-09T15:25:51Z</time>
      </trkpt>
      <trkpt lat="44.82346" lon="4.06032">
        <ele>966.3</ele>
        <time>2022-06-09T15:25:52Z</time>
      </trkpt>
      <trkpt lat="44.82344" lon="4.06032">
        <ele>966.4</ele>
        <time>2022-06-09T15:25:53Z</time>
      </trkpt>
      <trkpt lat="44.82343" lon="4.06032">
        <ele>966.6</ele>
        <time>2022-06-09T15:25:55Z</time>
      </trkpt>
      <trkpt lat="44.82341" lon="4.06032">
        <ele>966.7</ele>
        <time>2022-06-09T15:25:56Z</time>
      </trkpt>
      <trkpt lat="44.82339" lon="4.06031">
        <ele>966.9</ele>
        <time>2022-06-09T15:25:57Z</time>
      </trkpt>
      <trkpt lat="44.82336" lon="4.06032">
        <ele>967.1</ele>
        <time>2022-06-09T15:25:58Z</time>
      </trkpt>
      <trkpt lat="44.82335" lon="4.06033">
        <ele>967.2</ele>
        <time>2022-06-09T15:25:59Z</time>
      </trkpt>
      <trkpt lat="44.82332" lon="4.06031">
        <ele>967.5</ele>
        <time>2022-06-09T15:26:01Z</time>
      </trkpt>
      <trkpt lat="44.82331" lon="4.0603">
        <ele>967.5</ele>
        <time>2022-06-09T15:26:02Z</time>
      </trkpt>
      <trkpt lat="44.82328" lon="4.06029">
        <ele>967.8</ele>
        <time>2022-06-09T15:26:03Z</time>
      </trkpt>
      <trkpt lat="44.82326" lon="4.0603">
        <ele>967.9</ele>
        <time>2022-06-09T15:26:04Z</time>
      </trkpt>
      <trkpt lat="44.82325" lon="4.0603">
        <ele>968.1</ele>
        <time>2022-06-09T15:26:06Z</time>
      </trkpt>
      <trkpt lat="44.82322" lon="4.06032">
        <ele>968.3</ele>
        <time>2022-06-09T15:26:08Z</time>
      </trkpt>
      <trkpt lat="44.82319" lon="4.06033">
        <ele>968.6</ele>
        <time>2022-06-09T15:26:09Z</time>
      </trkpt>
      <trkpt lat="44.82318" lon="4.06034">
        <ele>968.7</ele>
        <time>2022-06-09T15:26:10Z</time>
      </trkpt>
      <trkpt lat="44.82314" lon="4.06037">
        <ele>969</ele>
        <time>2022-06-09T15:26:12Z</time>
      </trkpt>
      <trkpt lat="44.82313" lon="4.06037">
        <ele>969.1</ele>
        <time>2022-06-09T15:26:13Z</time>
      </trkpt>
      <trkpt lat="44.82311" lon="4.06039">
        <ele>969.3</ele>
        <time>2022-06-09T15:26:14Z</time>
      </trkpt>
      <trkpt lat="44.82309" lon="4.06041">
        <ele>969.5</ele>
        <time>2022-06-09T15:26:16Z</time>
      </trkpt>
      <trkpt lat="44.82306" lon="4.06045">
        <ele>969.7</ele>
        <time>2022-06-09T15:26:18Z</time>
      </trkpt>
      <trkpt lat="44.82306" lon="4.06046">
        <ele>969.8</ele>
        <time>2022-06-09T15:26:19Z</time>
      </trkpt>
      <trkpt lat="44.82304" lon="4.06049">
        <ele>970</ele>
        <time>2022-06-09T15:26:20Z</time>
      </trkpt>
      <trkpt lat="44.82303" lon="4.0605">
        <ele>970.1</ele>
        <time>2022-06-09T15:26:21Z</time>
      </trkpt>
      <trkpt lat="44.82302" lon="4.06054">
        <ele>970.4</ele>
        <time>2022-06-09T15:26:22Z</time>
      </trkpt>
      <trkpt lat="44.82301" lon="4.06056">
        <ele>970.5</ele>
        <time>2022-06-09T15:26:23Z</time>
      </trkpt>
      <trkpt lat="44.823" lon="4.06059">
        <ele>970.6</ele>
        <time>2022-06-09T15:26:24Z</time>
      </trkpt>
      <trkpt lat="44.82299" lon="4.06062">
        <ele>970.8</ele>
        <time>2022-06-09T15:26:26Z</time>
      </trkpt>
      <trkpt lat="44.82297" lon="4.06066">
        <ele>971</ele>
        <time>2022-06-09T15:26:27Z</time>
      </trkpt>
      <trkpt lat="44.82297" lon="4.06068">
        <ele>971.1</ele>
        <time>2022-06-09T15:26:28Z</time>
      </trkpt>
      <trkpt lat="44.82295" lon="4.06073">
        <ele>971.5</ele>
        <time>2022-06-09T15:26:30Z</time>
      </trkpt>
      <trkpt lat="44.82295" lon="4.06075">
        <ele>971.6</ele>
        <time>2022-06-09T15:26:32Z</time>
      </trkpt>
      <trkpt lat="44.82294" lon="4.06078">
        <ele>971.7</ele>
        <time>2022-06-09T15:26:33Z</time>
      </trkpt>
      <trkpt lat="44.82294" lon="4.0608">
        <ele>971.8</ele>
        <time>2022-06-09T15:26:34Z</time>
      </trkpt>
      <trkpt lat="44.82294" lon="4.06083">
        <ele>972</ele>
        <time>2022-06-09T15:26:35Z</time>
      </trkpt>
      <trkpt lat="44.82293" lon="4.06088">
        <ele>972.2</ele>
        <time>2022-06-09T15:26:37Z</time>
      </trkpt>
      <trkpt lat="44.82293" lon="4.0609">
        <ele>972.4</ele>
        <time>2022-06-09T15:26:38Z</time>
      </trkpt>
      <trkpt lat="44.82293" lon="4.06092">
        <ele>972.5</ele>
        <time>2022-06-09T15:26:39Z</time>
      </trkpt>
      <trkpt lat="44.82292" lon="4.06095">
        <ele>972.6</ele>
        <time>2022-06-09T15:26:40Z</time>
      </trkpt>
      <trkpt lat="44.82292" lon="4.06097">
        <ele>972.7</ele>
        <time>2022-06-09T15:26:41Z</time>
      </trkpt>
      <trkpt lat="44.82292" lon="4.06099">
        <ele>972.9</ele>
        <time>2022-06-09T15:26:42Z</time>
      </trkpt>
      <trkpt lat="44.82292" lon="4.06102">
        <ele>973</ele>
        <time>2022-06-09T15:26:43Z</time>
      </trkpt>
      <trkpt lat="44.82292" lon="4.06104">
        <ele>973.1</ele>
        <time>2022-06-09T15:26:44Z</time>
      </trkpt>
      <trkpt lat="44.82293" lon="4.06108">
        <ele>973.4</ele>
        <time>2022-06-09T15:26:45Z</time>
      </trkpt>
      <trkpt lat="44.82293" lon="4.06111">
        <ele>973.5</ele>
        <time>2022-06-09T15:26:47Z</time>
      </trkpt>
      <trkpt lat="44.82293" lon="4.06113">
        <ele>973.6</ele>
        <time>2022-06-09T15:26:48Z</time>
      </trkpt>
      <trkpt lat="44.82293" lon="4.06115">
        <ele>973.8</ele>
        <time>2022-06-09T15:26:49Z</time>
      </trkpt>
      <trkpt lat="44.82293" lon="4.06118">
        <ele>973.9</ele>
        <time>2022-06-09T15:26:50Z</time>
      </trkpt>
      <trkpt lat="44.82293" lon="4.0612">
        <ele>974</ele>
        <time>2022-06-09T15:26:51Z</time>
      </trkpt>
      <trkpt lat="44.82293" lon="4.06123">
        <ele>974.2</ele>
        <time>2022-06-09T15:26:52Z</time>
      </trkpt>
      <trkpt lat="44.82294" lon="4.06125">
        <ele>974.3</ele>
        <time>2022-06-09T15:26:53Z</time>
      </trkpt>
      <trkpt lat="44.82294" lon="4.06129">
        <ele>974.5</ele>
        <time>2022-06-09T15:26:54Z</time>
      </trkpt>
      <trkpt lat="44.82295" lon="4.0613">
        <ele>974.6</ele>
        <time>2022-06-09T15:26:55Z</time>
      </trkpt>
      <trkpt lat="44.82295" lon="4.06132">
        <ele>974.7</ele>
        <time>2022-06-09T15:26:56Z</time>
      </trkpt>
      <trkpt lat="44.82295" lon="4.06135">
        <ele>974.9</ele>
        <time>2022-06-09T15:26:57Z</time>
      </trkpt>
      <trkpt lat="44.82295" lon="4.06139">
        <ele>975.1</ele>
        <time>2022-06-09T15:26:58Z</time>
      </trkpt>
      <trkpt lat="44.82295" lon="4.06143">
        <ele>975.3</ele>
        <time>2022-06-09T15:27:00Z</time>
      </trkpt>
      <trkpt lat="44.82295" lon="4.06145">
        <ele>975.4</ele>
        <time>2022-06-09T15:27:01Z</time>
      </trkpt>
      <trkpt lat="44.82295" lon="4.06148">
        <ele>975.6</ele>
        <time>2022-06-09T15:27:02Z</time>
      </trkpt>
      <trkpt lat="44.82295" lon="4.0615">
        <ele>975.7</ele>
        <time>2022-06-09T15:27:03Z</time>
      </trkpt>
      <trkpt lat="44.82295" lon="4.06152">
        <ele>975.9</ele>
        <time>2022-06-09T15:27:04Z</time>
      </trkpt>
      <trkpt lat="44.82294" lon="4.06155">
        <ele>976</ele>
        <time>2022-06-09T15:27:05Z</time>
      </trkpt>
      <trkpt lat="44.82294" lon="4.06157">
        <ele>976.2</ele>
        <time>2022-06-09T15:27:06Z</time>
      </trkpt>
      <trkpt lat="44.82293" lon="4.0616">
        <ele>976.3</ele>
        <time>2022-06-09T15:27:07Z</time>
      </trkpt>
      <trkpt lat="44.82292" lon="4.06163">
        <ele>976.5</ele>
        <time>2022-06-09T15:27:08Z</time>
      </trkpt>
      <trkpt lat="44.82292" lon="4.06165">
        <ele>976.6</ele>
        <time>2022-06-09T15:27:09Z</time>
      </trkpt>
      <trkpt lat="44.82291" lon="4.06168">
        <ele>976.9</ele>
        <time>2022-06-09T15:27:10Z</time>
      </trkpt>
      <trkpt lat="44.82291" lon="4.0617">
        <ele>976.9</ele>
        <time>2022-06-09T15:27:11Z</time>
      </trkpt>
      <trkpt lat="44.82289" lon="4.06172">
        <ele>977.1</ele>
        <time>2022-06-09T15:27:12Z</time>
      </trkpt>
      <trkpt lat="44.82288" lon="4.06174">
        <ele>977.3</ele>
        <time>2022-06-09T15:27:14Z</time>
      </trkpt>
      <trkpt lat="44.82286" lon="4.06175">
        <ele>977.4</ele>
        <time>2022-06-09T15:27:15Z</time>
      </trkpt>
      <trkpt lat="44.82285" lon="4.06176">
        <ele>977.6</ele>
        <time>2022-06-09T15:27:16Z</time>
      </trkpt>
      <trkpt lat="44.82284" lon="4.06178">
        <ele>977.8</ele>
        <time>2022-06-09T15:27:17Z</time>
      </trkpt>
      <trkpt lat="44.82283" lon="4.06179">
        <ele>977.9</ele>
        <time>2022-06-09T15:27:18Z</time>
      </trkpt>
      <trkpt lat="44.82281" lon="4.06182">
        <ele>978.2</ele>
        <time>2022-06-09T15:27:20Z</time>
      </trkpt>
      <trkpt lat="44.82279" lon="4.06183">
        <ele>978.3</ele>
        <time>2022-06-09T15:27:21Z</time>
      </trkpt>
      <trkpt lat="44.82278" lon="4.06184">
        <ele>978.5</ele>
        <time>2022-06-09T15:27:22Z</time>
      </trkpt>
      <trkpt lat="44.82277" lon="4.06186">
        <ele>978.6</ele>
        <time>2022-06-09T15:27:23Z</time>
      </trkpt>
      <trkpt lat="44.82276" lon="4.06186">
        <ele>978.7</ele>
        <time>2022-06-09T15:27:24Z</time>
      </trkpt>
      <trkpt lat="44.82274" lon="4.06187">
        <ele>978.9</ele>
        <time>2022-06-09T15:27:25Z</time>
      </trkpt>
      <trkpt lat="44.82273" lon="4.06189">
        <ele>979</ele>
        <time>2022-06-09T15:27:26Z</time>
      </trkpt>
      <trkpt lat="44.82271" lon="4.0619">
        <ele>979.2</ele>
        <time>2022-06-09T15:27:27Z</time>
      </trkpt>
      <trkpt lat="44.82269" lon="4.06191">
        <ele>979.4</ele>
        <time>2022-06-09T15:27:28Z</time>
      </trkpt>
      <trkpt lat="44.82266" lon="4.06192">
        <ele>979.7</ele>
        <time>2022-06-09T15:27:30Z</time>
      </trkpt>
      <trkpt lat="44.82263" lon="4.06193">
        <ele>980</ele>
        <time>2022-06-09T15:27:32Z</time>
      </trkpt>
      <trkpt lat="44.82261" lon="4.06194">
        <ele>980.1</ele>
        <time>2022-06-09T15:27:33Z</time>
      </trkpt>
      <trkpt lat="44.82258" lon="4.06194">
        <ele>980.4</ele>
        <time>2022-06-09T15:27:35Z</time>
      </trkpt>
      <trkpt lat="44.82257" lon="4.06195">
        <ele>980.5</ele>
        <time>2022-06-09T15:27:36Z</time>
      </trkpt>
      <trkpt lat="44.82255" lon="4.06195">
        <ele>980.7</ele>
        <time>2022-06-09T15:27:38Z</time>
      </trkpt>
      <trkpt lat="44.82253" lon="4.06196">
        <ele>980.9</ele>
        <time>2022-06-09T15:27:39Z</time>
      </trkpt>
      <trkpt lat="44.82252" lon="4.06197">
        <ele>981.1</ele>
        <time>2022-06-09T15:27:40Z</time>
      </trkpt>
      <trkpt lat="44.8225" lon="4.06198">
        <ele>981.2</ele>
        <time>2022-06-09T15:27:41Z</time>
      </trkpt>
      <trkpt lat="44.82249" lon="4.06198">
        <ele>981.3</ele>
        <time>2022-06-09T15:27:42Z</time>
      </trkpt>
      <trkpt lat="44.82247" lon="4.062">
        <ele>981.6</ele>
        <time>2022-06-09T15:27:43Z</time>
      </trkpt>
      <trkpt lat="44.82245" lon="4.062">
        <ele>981.7</ele>
        <time>2022-06-09T15:27:44Z</time>
      </trkpt>
      <trkpt lat="44.82243" lon="4.062">
        <ele>981.9</ele>
        <time>2022-06-09T15:27:46Z</time>
      </trkpt>
      <trkpt lat="44.82242" lon="4.06201">
        <ele>982.1</ele>
        <time>2022-06-09T15:27:47Z</time>
      </trkpt>
      <trkpt lat="44.82239" lon="4.06202">
        <ele>982.3</ele>
        <time>2022-06-09T15:27:48Z</time>
      </trkpt>
      <trkpt lat="44.82238" lon="4.06202">
        <ele>982.4</ele>
        <time>2022-06-09T15:27:49Z</time>
      </trkpt>
      <trkpt lat="44.82236" lon="4.06203">
        <ele>982.6</ele>
        <time>2022-06-09T15:27:51Z</time>
      </trkpt>
      <trkpt lat="44.82235" lon="4.06204">
        <ele>982.8</ele>
        <time>2022-06-09T15:27:52Z</time>
      </trkpt>
      <trkpt lat="44.82233" lon="4.06205">
        <ele>982.9</ele>
        <time>2022-06-09T15:27:53Z</time>
      </trkpt>
      <trkpt lat="44.82232" lon="4.06205">
        <ele>983.1</ele>
        <time>2022-06-09T15:27:54Z</time>
      </trkpt>
      <trkpt lat="44.8223" lon="4.06206">
        <ele>983.3</ele>
        <time>2022-06-09T15:27:55Z</time>
      </trkpt>
      <trkpt lat="44.82229" lon="4.06207">
        <ele>983.4</ele>
        <time>2022-06-09T15:27:56Z</time>
      </trkpt>
      <trkpt lat="44.82227" lon="4.06207">
        <ele>983.5</ele>
        <time>2022-06-09T15:27:57Z</time>
      </trkpt>
      <trkpt lat="44.82226" lon="4.06207">
        <ele>983.7</ele>
        <time>2022-06-09T15:27:58Z</time>
      </trkpt>
      <trkpt lat="44.82224" lon="4.06207">
        <ele>983.8</ele>
        <time>2022-06-09T15:27:59Z</time>
      </trkpt>
      <trkpt lat="44.82223" lon="4.06208">
        <ele>984</ele>
        <time>2022-06-09T15:28:00Z</time>
      </trkpt>
      <trkpt lat="44.82222" lon="4.06208">
        <ele>984</ele>
        <time>2022-06-09T15:28:01Z</time>
      </trkpt>
      <trkpt lat="44.8222" lon="4.06208">
        <ele>984.2</ele>
        <time>2022-06-09T15:28:02Z</time>
      </trkpt>
      <trkpt lat="44.8222" lon="4.06208">
        <ele>984.3</ele>
        <time>2022-06-09T15:28:03Z</time>
      </trkpt>
      <trkpt lat="44.82219" lon="4.06208">
        <ele>984.4</ele>
        <time>2022-06-09T15:28:04Z</time>
      </trkpt>
      <trkpt lat="44.82217" lon="4.06209">
        <ele>984.6</ele>
        <time>2022-06-09T15:28:05Z</time>
      </trkpt>
      <trkpt lat="44.82215" lon="4.06209">
        <ele>984.8</ele>
        <time>2022-06-09T15:28:06Z</time>
      </trkpt>
      <trkpt lat="44.82213" lon="4.06209">
        <ele>985</ele>
        <time>2022-06-09T15:28:08Z</time>
      </trkpt>
      <trkpt lat="44.82211" lon="4.06208">
        <ele>985.2</ele>
        <time>2022-06-09T15:28:10Z</time>
      </trkpt>
      <trkpt lat="44.82209" lon="4.06208">
        <ele>985.4</ele>
        <time>2022-06-09T15:28:11Z</time>
      </trkpt>
      <trkpt lat="44.82208" lon="4.06208">
        <ele>985.5</ele>
        <time>2022-06-09T15:28:12Z</time>
      </trkpt>
      <trkpt lat="44.82205" lon="4.06209">
        <ele>985.8</ele>
        <time>2022-06-09T15:28:13Z</time>
      </trkpt>
      <trkpt lat="44.82203" lon="4.0621">
        <ele>986</ele>
        <time>2022-06-09T15:28:15Z</time>
      </trkpt>
      <trkpt lat="44.82201" lon="4.0621">
        <ele>986.2</ele>
        <time>2022-06-09T15:28:17Z</time>
      </trkpt>
      <trkpt lat="44.82199" lon="4.0621">
        <ele>986.4</ele>
        <time>2022-06-09T15:28:18Z</time>
      </trkpt>
      <trkpt lat="44.82198" lon="4.0621">
        <ele>986.6</ele>
        <time>2022-06-09T15:28:19Z</time>
      </trkpt>
      <trkpt lat="44.82196" lon="4.06211">
        <ele>986.8</ele>
        <time>2022-06-09T15:28:20Z</time>
      </trkpt>
      <trkpt lat="44.82194" lon="4.06212">
        <ele>986.9</ele>
        <time>2022-06-09T15:28:21Z</time>
      </trkpt>
      <trkpt lat="44.82193" lon="4.06212">
        <ele>987.1</ele>
        <time>2022-06-09T15:28:22Z</time>
      </trkpt>
      <trkpt lat="44.82191" lon="4.06211">
        <ele>987.2</ele>
        <time>2022-06-09T15:28:23Z</time>
      </trkpt>
      <trkpt lat="44.82188" lon="4.06211">
        <ele>987.5</ele>
        <time>2022-06-09T15:28:24Z</time>
      </trkpt>
      <trkpt lat="44.82185" lon="4.06209">
        <ele>987.8</ele>
        <time>2022-06-09T15:28:26Z</time>
      </trkpt>
      <trkpt lat="44.82183" lon="4.06209">
        <ele>988</ele>
        <time>2022-06-09T15:28:28Z</time>
      </trkpt>
      <trkpt lat="44.82182" lon="4.06208">
        <ele>988.2</ele>
        <time>2022-06-09T15:28:29Z</time>
      </trkpt>
      <trkpt lat="44.8218" lon="4.06207">
        <ele>988.4</ele>
        <time>2022-06-09T15:28:30Z</time>
      </trkpt>
      <trkpt lat="44.82178" lon="4.06206">
        <ele>988.5</ele>
        <time>2022-06-09T15:28:31Z</time>
      </trkpt>
      <trkpt lat="44.82177" lon="4.06205">
        <ele>988.7</ele>
        <time>2022-06-09T15:28:32Z</time>
      </trkpt>
      <trkpt lat="44.82175" lon="4.06205">
        <ele>988.8</ele>
        <time>2022-06-09T15:28:33Z</time>
      </trkpt>
      <trkpt lat="44.82174" lon="4.06204">
        <ele>989</ele>
        <time>2022-06-09T15:28:34Z</time>
      </trkpt>
      <trkpt lat="44.82173" lon="4.06203">
        <ele>989.1</ele>
        <time>2022-06-09T15:28:35Z</time>
      </trkpt>
      <trkpt lat="44.82171" lon="4.06201">
        <ele>989.3</ele>
        <time>2022-06-09T15:28:36Z</time>
      </trkpt>
      <trkpt lat="44.8217" lon="4.062">
        <ele>989.4</ele>
        <time>2022-06-09T15:28:37Z</time>
      </trkpt>
      <trkpt lat="44.82168" lon="4.062">
        <ele>989.6</ele>
        <time>2022-06-09T15:28:38Z</time>
      </trkpt>
      <trkpt lat="44.82166" lon="4.06199">
        <ele>989.8</ele>
        <time>2022-06-09T15:28:39Z</time>
      </trkpt>
      <trkpt lat="44.82164" lon="4.06198">
        <ele>990</ele>
        <time>2022-06-09T15:28:40Z</time>
      </trkpt>
      <trkpt lat="44.82162" lon="4.06197">
        <ele>990.2</ele>
        <time>2022-06-09T15:28:42Z</time>
      </trkpt>
      <trkpt lat="44.8216" lon="4.06195">
        <ele>990.4</ele>
        <time>2022-06-09T15:28:43Z</time>
      </trkpt>
      <trkpt lat="44.82159" lon="4.06193">
        <ele>990.6</ele>
        <time>2022-06-09T15:28:44Z</time>
      </trkpt>
      <trkpt lat="44.82158" lon="4.06191">
        <ele>990.8</ele>
        <time>2022-06-09T15:28:45Z</time>
      </trkpt>
      <trkpt lat="44.82157" lon="4.0619">
        <ele>990.9</ele>
        <time>2022-06-09T15:28:46Z</time>
      </trkpt>
      <trkpt lat="44.82156" lon="4.06188">
        <ele>991.1</ele>
        <time>2022-06-09T15:28:47Z</time>
      </trkpt>
      <trkpt lat="44.82154" lon="4.06187">
        <ele>991.2</ele>
        <time>2022-06-09T15:28:48Z</time>
      </trkpt>
      <trkpt lat="44.82153" lon="4.06186">
        <ele>991.4</ele>
        <time>2022-06-09T15:28:49Z</time>
      </trkpt>
      <trkpt lat="44.82152" lon="4.06185">
        <ele>991.5</ele>
        <time>2022-06-09T15:28:50Z</time>
      </trkpt>
      <trkpt lat="44.82151" lon="4.06185">
        <ele>991.6</ele>
        <time>2022-06-09T15:28:51Z</time>
      </trkpt>
      <trkpt lat="44.82149" lon="4.06185">
        <ele>991.8</ele>
        <time>2022-06-09T15:28:52Z</time>
      </trkpt>
      <trkpt lat="44.82148" lon="4.06185">
        <ele>991.9</ele>
        <time>2022-06-09T15:28:53Z</time>
      </trkpt>
      <trkpt lat="44.82147" lon="4.06184">
        <ele>992</ele>
        <time>2022-06-09T15:28:54Z</time>
      </trkpt>
      <trkpt lat="44.82145" lon="4.06182">
        <ele>992.3</ele>
        <time>2022-06-09T15:28:55Z</time>
      </trkpt>
      <trkpt lat="44.82143" lon="4.06182">
        <ele>992.5</ele>
        <time>2022-06-09T15:28:57Z</time>
      </trkpt>
      <trkpt lat="44.82141" lon="4.06182">
        <ele>992.6</ele>
        <time>2022-06-09T15:28:58Z</time>
      </trkpt>
      <trkpt lat="44.8214" lon="4.06183">
        <ele>992.8</ele>
        <time>2022-06-09T15:28:59Z</time>
      </trkpt>
      <trkpt lat="44.82139" lon="4.06184">
        <ele>992.9</ele>
        <time>2022-06-09T15:29:00Z</time>
      </trkpt>
      <trkpt lat="44.82138" lon="4.06184">
        <ele>993.1</ele>
        <time>2022-06-09T15:29:02Z</time>
      </trkpt>
      <trkpt lat="44.82137" lon="4.06184">
        <ele>993.2</ele>
        <time>2022-06-09T15:29:03Z</time>
      </trkpt>
      <trkpt lat="44.82135" lon="4.06185">
        <ele>993.5</ele>
        <time>2022-06-09T15:29:04Z</time>
      </trkpt>
      <trkpt lat="44.82131" lon="4.06187">
        <ele>994</ele>
        <time>2022-06-09T15:29:06Z</time>
      </trkpt>
      <trkpt lat="44.82131" lon="4.06188">
        <ele>994.1</ele>
        <time>2022-06-09T15:29:07Z</time>
      </trkpt>
      <trkpt lat="44.8213" lon="4.06188">
        <ele>994.2</ele>
        <time>2022-06-09T15:29:09Z</time>
      </trkpt>
      <trkpt lat="44.82129" lon="4.06189">
        <ele>994.3</ele>
        <time>2022-06-09T15:29:10Z</time>
      </trkpt>
      <trkpt lat="44.82128" lon="4.0619">
        <ele>994.5</ele>
        <time>2022-06-09T15:29:11Z</time>
      </trkpt>
      <trkpt lat="44.82125" lon="4.0619">
        <ele>994.8</ele>
        <time>2022-06-09T15:29:13Z</time>
      </trkpt>
      <trkpt lat="44.82124" lon="4.06191">
        <ele>995</ele>
        <time>2022-06-09T15:29:14Z</time>
      </trkpt>
      <trkpt lat="44.82122" lon="4.06192">
        <ele>995.2</ele>
        <time>2022-06-09T15:29:15Z</time>
      </trkpt>
      <trkpt lat="44.82121" lon="4.06193">
        <ele>995.4</ele>
        <time>2022-06-09T15:29:16Z</time>
      </trkpt>
      <trkpt lat="44.8212" lon="4.06195">
        <ele>995.6</ele>
        <time>2022-06-09T15:29:17Z</time>
      </trkpt>
      <trkpt lat="44.82119" lon="4.06195">
        <ele>995.7</ele>
        <time>2022-06-09T15:29:18Z</time>
      </trkpt>
      <trkpt lat="44.82117" lon="4.06196">
        <ele>995.9</ele>
        <time>2022-06-09T15:29:19Z</time>
      </trkpt>
      <trkpt lat="44.82115" lon="4.06197">
        <ele>996.1</ele>
        <time>2022-06-09T15:29:20Z</time>
      </trkpt>
      <trkpt lat="44.82114" lon="4.06196">
        <ele>996.2</ele>
        <time>2022-06-09T15:29:21Z</time>
      </trkpt>
      <trkpt lat="44.82112" lon="4.06196">
        <ele>996.3</ele>
        <time>2022-06-09T15:29:22Z</time>
      </trkpt>
      <trkpt lat="44.82111" lon="4.06198">
        <ele>996.5</ele>
        <time>2022-06-09T15:29:24Z</time>
      </trkpt>
      <trkpt lat="44.8211" lon="4.06199">
        <ele>996.5</ele>
        <time>2022-06-09T15:29:25Z</time>
      </trkpt>
      <trkpt lat="44.82109" lon="4.062">
        <ele>996.6</ele>
        <time>2022-06-09T15:29:26Z</time>
      </trkpt>
      <trkpt lat="44.82108" lon="4.06201">
        <ele>996.7</ele>
        <time>2022-06-09T15:29:27Z</time>
      </trkpt>
      <trkpt lat="44.82107" lon="4.06202">
        <ele>996.8</ele>
        <time>2022-06-09T15:29:28Z</time>
      </trkpt>
      <trkpt lat="44.82105" lon="4.06203">
        <ele>996.9</ele>
        <time>2022-06-09T15:29:29Z</time>
      </trkpt>
      <trkpt lat="44.82104" lon="4.06204">
        <ele>997</ele>
        <time>2022-06-09T15:29:30Z</time>
      </trkpt>
      <trkpt lat="44.82102" lon="4.06206">
        <ele>997.2</ele>
        <time>2022-06-09T15:29:31Z</time>
      </trkpt>
      <trkpt lat="44.821" lon="4.06207">
        <ele>997.3</ele>
        <time>2022-06-09T15:29:32Z</time>
      </trkpt>
      <trkpt lat="44.82098" lon="4.06208">
        <ele>997.4</ele>
        <time>2022-06-09T15:29:33Z</time>
      </trkpt>
      <trkpt lat="44.82097" lon="4.06209">
        <ele>997.5</ele>
        <time>2022-06-09T15:29:34Z</time>
      </trkpt>
      <trkpt lat="44.82096" lon="4.06209">
        <ele>997.7</ele>
        <time>2022-06-09T15:29:36Z</time>
      </trkpt>
      <trkpt lat="44.82094" lon="4.06211">
        <ele>997.8</ele>
        <time>2022-06-09T15:29:37Z</time>
      </trkpt>
      <trkpt lat="44.82093" lon="4.06213">
        <ele>998</ele>
        <time>2022-06-09T15:29:38Z</time>
      </trkpt>
      <trkpt lat="44.82092" lon="4.06214">
        <ele>998.1</ele>
        <time>2022-06-09T15:29:39Z</time>
      </trkpt>
      <trkpt lat="44.82091" lon="4.06215">
        <ele>998.2</ele>
        <time>2022-06-09T15:29:40Z</time>
      </trkpt>
      <trkpt lat="44.8209" lon="4.06217">
        <ele>998.4</ele>
        <time>2022-06-09T15:29:41Z</time>
      </trkpt>
      <trkpt lat="44.82088" lon="4.06218">
        <ele>998.5</ele>
        <time>2022-06-09T15:29:42Z</time>
      </trkpt>
      <trkpt lat="44.82087" lon="4.06219">
        <ele>998.7</ele>
        <time>2022-06-09T15:29:43Z</time>
      </trkpt>
      <trkpt lat="44.82086" lon="4.0622">
        <ele>998.8</ele>
        <time>2022-06-09T15:29:44Z</time>
      </trkpt>
      <trkpt lat="44.82084" lon="4.06221">
        <ele>998.9</ele>
        <time>2022-06-09T15:29:45Z</time>
      </trkpt>
      <trkpt lat="44.82083" lon="4.06221">
        <ele>999</ele>
        <time>2022-06-09T15:29:46Z</time>
      </trkpt>
      <trkpt lat="44.82081" lon="4.06222">
        <ele>999.2</ele>
        <time>2022-06-09T15:29:47Z</time>
      </trkpt>
      <trkpt lat="44.8208" lon="4.06223">
        <ele>999.3</ele>
        <time>2022-06-09T15:29:48Z</time>
      </trkpt>
      <trkpt lat="44.82078" lon="4.06224">
        <ele>999.4</ele>
        <time>2022-06-09T15:29:49Z</time>
      </trkpt>
      <trkpt lat="44.82077" lon="4.06225">
        <ele>999.5</ele>
        <time>2022-06-09T15:29:50Z</time>
      </trkpt>
      <trkpt lat="44.82075" lon="4.06226">
        <ele>999.6</ele>
        <time>2022-06-09T15:29:51Z</time>
      </trkpt>
      <trkpt lat="44.82074" lon="4.06227">
        <ele>999.7</ele>
        <time>2022-06-09T15:29:52Z</time>
      </trkpt>
      <trkpt lat="44.8207" lon="4.06229">
        <ele>1000</ele>
        <time>2022-06-09T15:29:53Z</time>
      </trkpt>
      <trkpt lat="44.82068" lon="4.06229">
        <ele>1000.1</ele>
        <time>2022-06-09T15:29:54Z</time>
      </trkpt>
      <trkpt lat="44.82064" lon="4.0623">
        <ele>1000.3</ele>
        <time>2022-06-09T15:29:56Z</time>
      </trkpt>
      <trkpt lat="44.82062" lon="4.06231">
        <ele>1000.4</ele>
        <time>2022-06-09T15:29:58Z</time>
      </trkpt>
      <trkpt lat="44.8206" lon="4.06233">
        <ele>1000.5</ele>
        <time>2022-06-09T15:29:59Z</time>
      </trkpt>
      <trkpt lat="44.82057" lon="4.06235">
        <ele>1000.6</ele>
        <time>2022-06-09T15:30:00Z</time>
      </trkpt>
      <trkpt lat="44.82054" lon="4.06236">
        <ele>1000.7</ele>
        <time>2022-06-09T15:30:02Z</time>
      </trkpt>
      <trkpt lat="44.8205" lon="4.0624">
        <ele>1000.8</ele>
        <time>2022-06-09T15:30:03Z</time>
      </trkpt>
      <trkpt lat="44.82044" lon="4.06241">
        <ele>1001</ele>
        <time>2022-06-09T15:30:05Z</time>
      </trkpt>
      <trkpt lat="44.82039" lon="4.06243">
        <ele>1001.1</ele>
        <time>2022-06-09T15:30:07Z</time>
      </trkpt>
      <trkpt lat="44.82036" lon="4.06244">
        <ele>1001.1</ele>
        <time>2022-06-09T15:30:08Z</time>
      </trkpt>
      <trkpt lat="44.82033" lon="4.06246">
        <ele>1001.2</ele>
        <time>2022-06-09T15:30:09Z</time>
      </trkpt>
      <trkpt lat="44.8203" lon="4.06247">
        <ele>1001.3</ele>
        <time>2022-06-09T15:30:11Z</time>
      </trkpt>
      <trkpt lat="44.82026" lon="4.06248">
        <ele>1001.3</ele>
        <time>2022-06-09T15:30:12Z</time>
      </trkpt>
      <trkpt lat="44.82023" lon="4.06249">
        <ele>1001.4</ele>
        <time>2022-06-09T15:30:13Z</time>
      </trkpt>
      <trkpt lat="44.82022" lon="4.06249">
        <ele>1001.4</ele>
        <time>2022-06-09T15:30:14Z</time>
      </trkpt>
      <trkpt lat="44.82017" lon="4.0625">
        <ele>1001.5</ele>
        <time>2022-06-09T15:30:16Z</time>
      </trkpt>
      <trkpt lat="44.82014" lon="4.0625">
        <ele>1001.5</ele>
        <time>2022-06-09T15:30:17Z</time>
      </trkpt>
      <trkpt lat="44.82012" lon="4.06251">
        <ele>1001.5</ele>
        <time>2022-06-09T15:30:19Z</time>
      </trkpt>
      <trkpt lat="44.82006" lon="4.06251">
        <ele>1001.6</ele>
        <time>2022-06-09T15:30:20Z</time>
      </trkpt>
      <trkpt lat="44.82003" lon="4.06252">
        <ele>1001.6</ele>
        <time>2022-06-09T15:30:21Z</time>
      </trkpt>
      <trkpt lat="44.81998" lon="4.06253">
        <ele>1001.7</ele>
        <time>2022-06-09T15:30:23Z</time>
      </trkpt>
      <trkpt lat="44.81992" lon="4.06254">
        <ele>1001.7</ele>
        <time>2022-06-09T15:30:24Z</time>
      </trkpt>
      <trkpt lat="44.81988" lon="4.06256">
        <ele>1001.7</ele>
        <time>2022-06-09T15:30:26Z</time>
      </trkpt>
      <trkpt lat="44.81985" lon="4.06257">
        <ele>1001.7</ele>
        <time>2022-06-09T15:30:27Z</time>
      </trkpt>
      <trkpt lat="44.81981" lon="4.06258">
        <ele>1001.8</ele>
        <time>2022-06-09T15:30:28Z</time>
      </trkpt>
      <trkpt lat="44.81974" lon="4.0626">
        <ele>1001.8</ele>
        <time>2022-06-09T15:30:29Z</time>
      </trkpt>
      <trkpt lat="44.81971" lon="4.06262">
        <ele>1001.8</ele>
        <time>2022-06-09T15:30:31Z</time>
      </trkpt>
      <trkpt lat="44.81968" lon="4.06263">
        <ele>1001.9</ele>
        <time>2022-06-09T15:30:32Z</time>
      </trkpt>
      <trkpt lat="44.81961" lon="4.06265">
        <ele>1002</ele>
        <time>2022-06-09T15:30:33Z</time>
      </trkpt>
      <trkpt lat="44.81957" lon="4.06266">
        <ele>1002</ele>
        <time>2022-06-09T15:30:35Z</time>
      </trkpt>
      <trkpt lat="44.81953" lon="4.06267">
        <ele>1002.1</ele>
        <time>2022-06-09T15:30:36Z</time>
      </trkpt>
      <trkpt lat="44.81949" lon="4.06268">
        <ele>1002.1</ele>
        <time>2022-06-09T15:30:37Z</time>
      </trkpt>
      <trkpt lat="44.81946" lon="4.06269">
        <ele>1002.1</ele>
        <time>2022-06-09T15:30:38Z</time>
      </trkpt>
      <trkpt lat="44.8194" lon="4.06271">
        <ele>1002.2</ele>
        <time>2022-06-09T15:30:40Z</time>
      </trkpt>
      <trkpt lat="44.81935" lon="4.06273">
        <ele>1002.3</ele>
        <time>2022-06-09T15:30:41Z</time>
      </trkpt>
      <trkpt lat="44.81932" lon="4.06274">
        <ele>1002.4</ele>
        <time>2022-06-09T15:30:43Z</time>
      </trkpt>
      <trkpt lat="44.81928" lon="4.06276">
        <ele>1002.4</ele>
        <time>2022-06-09T15:30:45Z</time>
      </trkpt>
      <trkpt lat="44.81925" lon="4.06277">
        <ele>1002.5</ele>
        <time>2022-06-09T15:30:46Z</time>
      </trkpt>
      <trkpt lat="44.81922" lon="4.06278">
        <ele>1002.5</ele>
        <time>2022-06-09T15:30:47Z</time>
      </trkpt>
      <trkpt lat="44.8192" lon="4.06278">
        <ele>1002.6</ele>
        <time>2022-06-09T15:30:48Z</time>
      </trkpt>
      <trkpt lat="44.81916" lon="4.06281">
        <ele>1002.6</ele>
        <time>2022-06-09T15:30:50Z</time>
      </trkpt>
      <trkpt lat="44.81914" lon="4.06282">
        <ele>1002.7</ele>
        <time>2022-06-09T15:30:51Z</time>
      </trkpt>
      <trkpt lat="44.81913" lon="4.06283">
        <ele>1002.7</ele>
        <time>2022-06-09T15:30:52Z</time>
      </trkpt>
      <trkpt lat="44.81909" lon="4.06284">
        <ele>1002.8</ele>
        <time>2022-06-09T15:30:53Z</time>
      </trkpt>
      <trkpt lat="44.81906" lon="4.06286">
        <ele>1002.8</ele>
        <time>2022-06-09T15:30:54Z</time>
      </trkpt>
      <trkpt lat="44.81903" lon="4.06288">
        <ele>1002.9</ele>
        <time>2022-06-09T15:30:55Z</time>
      </trkpt>
      <trkpt lat="44.819" lon="4.06289">
        <ele>1002.9</ele>
        <time>2022-06-09T15:30:56Z</time>
      </trkpt>
      <trkpt lat="44.81896" lon="4.0629">
        <ele>1003</ele>
        <time>2022-06-09T15:30:58Z</time>
      </trkpt>
      <trkpt lat="44.81893" lon="4.0629">
        <ele>1003</ele>
        <time>2022-06-09T15:30:59Z</time>
      </trkpt>
      <trkpt lat="44.8189" lon="4.06292">
        <ele>1003.1</ele>
        <time>2022-06-09T15:31:00Z</time>
      </trkpt>
      <trkpt lat="44.81887" lon="4.06294">
        <ele>1003.1</ele>
        <time>2022-06-09T15:31:01Z</time>
      </trkpt>
      <trkpt lat="44.81884" lon="4.06295">
        <ele>1003.2</ele>
        <time>2022-06-09T15:31:02Z</time>
      </trkpt>
      <trkpt lat="44.81881" lon="4.06296">
        <ele>1003.2</ele>
        <time>2022-06-09T15:31:03Z</time>
      </trkpt>
      <trkpt lat="44.81879" lon="4.06297">
        <ele>1003.3</ele>
        <time>2022-06-09T15:31:04Z</time>
      </trkpt>
      <trkpt lat="44.81876" lon="4.06299">
        <ele>1003.4</ele>
        <time>2022-06-09T15:31:05Z</time>
      </trkpt>
      <trkpt lat="44.81872" lon="4.063">
        <ele>1003.4</ele>
        <time>2022-06-09T15:31:06Z</time>
      </trkpt>
      <trkpt lat="44.81869" lon="4.06301">
        <ele>1003.5</ele>
        <time>2022-06-09T15:31:07Z</time>
      </trkpt>
      <trkpt lat="44.81866" lon="4.06302">
        <ele>1003.5</ele>
        <time>2022-06-09T15:31:08Z</time>
      </trkpt>
      <trkpt lat="44.81863" lon="4.06304">
        <ele>1003.6</ele>
        <time>2022-06-09T15:31:09Z</time>
      </trkpt>
      <trkpt lat="44.8186" lon="4.06305">
        <ele>1003.6</ele>
        <time>2022-06-09T15:31:10Z</time>
      </trkpt>
      <trkpt lat="44.81857" lon="4.06307">
        <ele>1003.7</ele>
        <time>2022-06-09T15:31:11Z</time>
      </trkpt>
      <trkpt lat="44.81854" lon="4.06308">
        <ele>1003.7</ele>
        <time>2022-06-09T15:31:12Z</time>
      </trkpt>
      <trkpt lat="44.81851" lon="4.06309">
        <ele>1003.8</ele>
        <time>2022-06-09T15:31:13Z</time>
      </trkpt>
      <trkpt lat="44.81847" lon="4.0631">
        <ele>1003.8</ele>
        <time>2022-06-09T15:31:14Z</time>
      </trkpt>
      <trkpt lat="44.81844" lon="4.06311">
        <ele>1003.9</ele>
        <time>2022-06-09T15:31:15Z</time>
      </trkpt>
      <trkpt lat="44.81841" lon="4.06313">
        <ele>1003.9</ele>
        <time>2022-06-09T15:31:16Z</time>
      </trkpt>
      <trkpt lat="44.81838" lon="4.06314">
        <ele>1004</ele>
        <time>2022-06-09T15:31:17Z</time>
      </trkpt>
      <trkpt lat="44.81835" lon="4.06315">
        <ele>1004</ele>
        <time>2022-06-09T15:31:18Z</time>
      </trkpt>
      <trkpt lat="44.81832" lon="4.06315">
        <ele>1004.1</ele>
        <time>2022-06-09T15:31:19Z</time>
      </trkpt>
      <trkpt lat="44.81828" lon="4.06317">
        <ele>1004.1</ele>
        <time>2022-06-09T15:31:20Z</time>
      </trkpt>
      <trkpt lat="44.81827" lon="4.06317">
        <ele>1004.1</ele>
        <time>2022-06-09T15:31:21Z</time>
      </trkpt>
      <trkpt lat="44.81822" lon="4.06319">
        <ele>1004.2</ele>
        <time>2022-06-09T15:31:22Z</time>
      </trkpt>
      <trkpt lat="44.8182" lon="4.06319">
        <ele>1004.2</ele>
        <time>2022-06-09T15:31:24Z</time>
      </trkpt>
      <trkpt lat="44.81818" lon="4.06319">
        <ele>1004.2</ele>
        <time>2022-06-09T15:31:25Z</time>
      </trkpt>
      <trkpt lat="44.81816" lon="4.06319">
        <ele>1004.2</ele>
        <time>2022-06-09T15:31:26Z</time>
      </trkpt>
      <trkpt lat="44.81813" lon="4.06319">
        <ele>1004.2</ele>
        <time>2022-06-09T15:31:27Z</time>
      </trkpt>
      <trkpt lat="44.8181" lon="4.06319">
        <ele>1004.3</ele>
        <time>2022-06-09T15:31:28Z</time>
      </trkpt>
      <trkpt lat="44.81808" lon="4.06319">
        <ele>1004.3</ele>
        <time>2022-06-09T15:31:30Z</time>
      </trkpt>
      <trkpt lat="44.81804" lon="4.0632">
        <ele>1004.3</ele>
        <time>2022-06-09T15:31:32Z</time>
      </trkpt>
      <trkpt lat="44.81801" lon="4.06319">
        <ele>1004.3</ele>
        <time>2022-06-09T15:31:33Z</time>
      </trkpt>
      <trkpt lat="44.818" lon="4.06319">
        <ele>1004.3</ele>
        <time>2022-06-09T15:31:34Z</time>
      </trkpt>
      <trkpt lat="44.81799" lon="4.06318">
        <ele>1004.3</ele>
        <time>2022-06-09T15:31:35Z</time>
      </trkpt>
      <trkpt lat="44.81799" lon="4.06317">
        <ele>1004.3</ele>
        <time>2022-06-09T15:31:37Z</time>
      </trkpt>
      <trkpt lat="44.818" lon="4.06316">
        <ele>1004.4</ele>
        <time>2022-06-09T15:31:38Z</time>
      </trkpt>
      <trkpt lat="44.818" lon="4.06315">
        <ele>1004.4</ele>
        <time>2022-06-09T15:31:39Z</time>
      </trkpt>
      <trkpt lat="44.81801" lon="4.06315">
        <ele>1004.4</ele>
        <time>2022-06-09T15:31:40Z</time>
      </trkpt>
      <trkpt lat="44.81801" lon="4.06315">
        <ele>1004.4</ele>
        <time>2022-06-09T15:31:41Z</time>
      </trkpt>
      <trkpt lat="44.81801" lon="4.06314">
        <ele>1004.4</ele>
        <time>2022-06-09T15:31:42Z</time>
      </trkpt>
      <trkpt lat="44.81801" lon="4.06314">
        <ele>1004.4</ele>
        <time>2022-06-09T15:31:43Z</time>
      </trkpt>
      <trkpt lat="44.81801" lon="4.06314">
        <ele>1004.4</ele>
        <time>2022-06-09T15:31:44Z</time>
      </trkpt>
      <trkpt lat="44.81801" lon="4.06314">
        <ele>1004.4</ele>
        <time>2022-06-09T15:31:45Z</time>
      </trkpt>
      <trkpt lat="44.81801" lon="4.06314">
        <ele>1004.4</ele>
        <time>2022-06-09T15:31:46Z</time>
      </trkpt>
      <trkpt lat="44.81801" lon="4.06314">
        <ele>1004.4</ele>
        <time>2022-06-09T15:31:47Z</time>
      </trkpt>
      <trkpt lat="44.81802" lon="4.06315">
        <ele>1004.4</ele>
        <time>2022-06-09T15:31:48Z</time>
      </trkpt>
      <trkpt lat="44.81802" lon="4.06315">
        <ele>1004.4</ele>
        <time>2022-06-09T15:31:49Z</time>
      </trkpt>
      <trkpt lat="44.81802" lon="4.06316">
        <ele>1004.4</ele>
        <time>2022-06-09T15:31:50Z</time>
      </trkpt>
      <trkpt lat="44.81802" lon="4.06317">
        <ele>1004.4</ele>
        <time>2022-06-09T15:31:51Z</time>
      </trkpt>
      <trkpt lat="44.81803" lon="4.06317">
        <ele>1004.4</ele>
        <time>2022-06-09T15:31:52Z</time>
      </trkpt>
      <trkpt lat="44.81803" lon="4.06317">
        <ele>1004.4</ele>
        <time>2022-06-09T15:31:53Z</time>
      </trkpt>
      <trkpt lat="44.81803" lon="4.06316">
        <ele>1004.4</ele>
        <time>2022-06-09T15:31:54Z</time>
      </trkpt>
      <trkpt lat="44.81804" lon="4.06315">
        <ele>1004.4</ele>
        <time>2022-06-09T15:31:55Z</time>
      </trkpt>
      <trkpt lat="44.81804" lon="4.06315">
        <ele>1004.4</ele>
        <time>2022-06-09T15:31:56Z</time>
      </trkpt>
      <trkpt lat="44.81804" lon="4.06314">
        <ele>1004.4</ele>
        <time>2022-06-09T15:31:57Z</time>
      </trkpt>
      <trkpt lat="44.81804" lon="4.06314">
        <ele>1004.4</ele>
        <time>2022-06-09T15:31:58Z</time>
      </trkpt>
      <trkpt lat="44.81804" lon="4.06314">
        <ele>1004.4</ele>
        <time>2022-06-09T15:31:59Z</time>
      </trkpt>
      <trkpt lat="44.81805" lon="4.06314">
        <ele>1004.4</ele>
        <time>2022-06-09T15:32:00Z</time>
      </trkpt>
      <trkpt lat="44.81805" lon="4.06313">
        <ele>1004.4</ele>
        <time>2022-06-09T15:32:01Z</time>
      </trkpt>
      <trkpt lat="44.81805" lon="4.06313">
        <ele>1004.4</ele>
        <time>2022-06-09T15:32:02Z</time>
      </trkpt>
      <trkpt lat="44.81805" lon="4.06313">
        <ele>1004.4</ele>
        <time>2022-06-09T15:32:03Z</time>
      </trkpt>
      <trkpt lat="44.81805" lon="4.06313">
        <ele>1004.4</ele>
        <time>2022-06-09T15:32:04Z</time>
      </trkpt>
      <trkpt lat="44.81806" lon="4.06313">
        <ele>1004.4</ele>
        <time>2022-06-09T15:32:05Z</time>
      </trkpt>
      <trkpt lat="44.81805" lon="4.06313">
        <ele>1004.4</ele>
        <time>2022-06-09T15:32:07Z</time>
      </trkpt>
      <trkpt lat="44.81806" lon="4.06313">
        <ele>1004.4</ele>
        <time>2022-06-09T15:32:08Z</time>
      </trkpt>
      <trkpt lat="44.81806" lon="4.06313">
        <ele>1004.4</ele>
        <time>2022-06-09T15:32:09Z</time>
      </trkpt>
      <trkpt lat="44.81806" lon="4.06313">
        <ele>1004.4</ele>
        <time>2022-06-09T15:32:10Z</time>
      </trkpt>
      <trkpt lat="44.81806" lon="4.06313">
        <ele>1004.4</ele>
        <time>2022-06-09T15:32:11Z</time>
      </trkpt>
      <trkpt lat="44.81807" lon="4.06311">
        <ele>1004.5</ele>
        <time>2022-06-09T15:32:18Z</time>
      </trkpt>
      <trkpt lat="44.81806" lon="4.06311">
        <ele>1004.5</ele>
        <time>2022-06-09T15:32:19Z</time>
      </trkpt>
      <trkpt lat="44.81806" lon="4.06311">
        <ele>1004.5</ele>
        <time>2022-06-09T15:32:20Z</time>
      </trkpt>
      <trkpt lat="44.81805" lon="4.06312">
        <ele>1004.5</ele>
        <time>2022-06-09T15:32:21Z</time>
      </trkpt>
      <trkpt lat="44.81806" lon="4.06312">
        <ele>1004.5</ele>
        <time>2022-06-09T15:32:23Z</time>
      </trkpt>
      <trkpt lat="44.81806" lon="4.06312">
        <ele>1004.5</ele>
        <time>2022-06-09T15:32:24Z</time>
      </trkpt>
      <trkpt lat="44.81806" lon="4.06312">
        <ele>1004.5</ele>
        <time>2022-06-09T15:32:25Z</time>
      </trkpt>
      <trkpt lat="44.81806" lon="4.06312">
        <ele>1004.5</ele>
        <time>2022-06-09T15:32:26Z</time>
      </trkpt>
      <trkpt lat="44.81806" lon="4.06312">
        <ele>1004.5</ele>
        <time>2022-06-09T15:32:27Z</time>
      </trkpt>
      <trkpt lat="44.81805" lon="4.06312">
        <ele>1004.5</ele>
        <time>2022-06-09T15:32:28Z</time>
      </trkpt>
      <trkpt lat="44.81805" lon="4.06313">
        <ele>1004.5</ele>
        <time>2022-06-09T15:32:29Z</time>
      </trkpt>
      <trkpt lat="44.81805" lon="4.06313">
        <ele>1004.5</ele>
        <time>2022-06-09T15:32:30Z</time>
      </trkpt>
      <trkpt lat="44.81807" lon="4.06318">
        <ele>1004.5</ele>
        <time>2022-06-09T15:56:16Z</time>
      </trkpt>
      <trkpt lat="44.81808" lon="4.06319">
        <ele>1004.5</ele>
        <time>2022-06-09T15:56:17Z</time>
      </trkpt>
      <trkpt lat="44.81808" lon="4.06319">
        <ele>1004.5</ele>
        <time>2022-06-09T15:56:18Z</time>
      </trkpt>
      <trkpt lat="44.81808" lon="4.06319">
        <ele>1004.5</ele>
        <time>2022-06-09T15:56:19Z</time>
      </trkpt>
      <trkpt lat="44.81808" lon="4.06319">
        <ele>1004.5</ele>
        <time>2022-06-09T15:56:20Z</time>
      </trkpt>
      <trkpt lat="44.81808" lon="4.06319">
        <ele>1004.5</ele>
        <time>2022-06-09T15:56:21Z</time>
      </trkpt>
      <trkpt lat="44.81809" lon="4.06319">
        <ele>1004.5</ele>
        <time>2022-06-09T15:56:23Z</time>
      </trkpt>
      <trkpt lat="44.8181" lon="4.06319">
        <ele>1004.5</ele>
        <time>2022-06-09T15:56:24Z</time>
      </trkpt>
      <trkpt lat="44.8181" lon="4.0632">
        <ele>1004.5</ele>
        <time>2022-06-09T15:56:25Z</time>
      </trkpt>
      <trkpt lat="44.81813" lon="4.0632">
        <ele>1004.5</ele>
        <time>2022-06-09T15:56:26Z</time>
      </trkpt>
      <trkpt lat="44.81814" lon="4.0632">
        <ele>1004.5</ele>
        <time>2022-06-09T15:56:27Z</time>
      </trkpt>
      <trkpt lat="44.81816" lon="4.0632">
        <ele>1004.5</ele>
        <time>2022-06-09T15:56:28Z</time>
      </trkpt>
      <trkpt lat="44.8182" lon="4.06319">
        <ele>1004.4</ele>
        <time>2022-06-09T15:56:29Z</time>
      </trkpt>
      <trkpt lat="44.81824" lon="4.06317">
        <ele>1004.4</ele>
        <time>2022-06-09T15:56:30Z</time>
      </trkpt>
      <trkpt lat="44.81827" lon="4.06316">
        <ele>1004.4</ele>
        <time>2022-06-09T15:56:31Z</time>
      </trkpt>
      <trkpt lat="44.81834" lon="4.06313">
        <ele>1004.3</ele>
        <time>2022-06-09T15:56:33Z</time>
      </trkpt>
      <trkpt lat="44.81838" lon="4.06311">
        <ele>1004.3</ele>
        <time>2022-06-09T15:56:35Z</time>
      </trkpt>
      <trkpt lat="44.81845" lon="4.06308">
        <ele>1004.2</ele>
        <time>2022-06-09T15:56:37Z</time>
      </trkpt>
      <trkpt lat="44.81849" lon="4.06305">
        <ele>1004.1</ele>
        <time>2022-06-09T15:56:38Z</time>
      </trkpt>
      <trkpt lat="44.81853" lon="4.06304">
        <ele>1004.1</ele>
        <time>2022-06-09T15:56:39Z</time>
      </trkpt>
      <trkpt lat="44.81857" lon="4.06303">
        <ele>1004</ele>
        <time>2022-06-09T15:56:40Z</time>
      </trkpt>
      <trkpt lat="44.81865" lon="4.063">
        <ele>1003.9</ele>
        <time>2022-06-09T15:56:41Z</time>
      </trkpt>
      <trkpt lat="44.8187" lon="4.06298">
        <ele>1003.8</ele>
        <time>2022-06-09T15:56:43Z</time>
      </trkpt>
      <trkpt lat="44.81875" lon="4.06298">
        <ele>1003.7</ele>
        <time>2022-06-09T15:56:44Z</time>
      </trkpt>
      <trkpt lat="44.81881" lon="4.06297">
        <ele>1003.6</ele>
        <time>2022-06-09T15:56:45Z</time>
      </trkpt>
      <trkpt lat="44.81889" lon="4.06293">
        <ele>1003.4</ele>
        <time>2022-06-09T15:56:47Z</time>
      </trkpt>
      <trkpt lat="44.81894" lon="4.06291">
        <ele>1003.3</ele>
        <time>2022-06-09T15:56:48Z</time>
      </trkpt>
      <trkpt lat="44.81898" lon="4.06289">
        <ele>1003.2</ele>
        <time>2022-06-09T15:56:49Z</time>
      </trkpt>
      <trkpt lat="44.81902" lon="4.06288">
        <ele>1003.1</ele>
        <time>2022-06-09T15:56:50Z</time>
      </trkpt>
      <trkpt lat="44.81907" lon="4.06286">
        <ele>1003</ele>
        <time>2022-06-09T15:56:51Z</time>
      </trkpt>
      <trkpt lat="44.8191" lon="4.06285">
        <ele>1002.9</ele>
        <time>2022-06-09T15:56:52Z</time>
      </trkpt>
      <trkpt lat="44.81915" lon="4.06283">
        <ele>1002.8</ele>
        <time>2022-06-09T15:56:53Z</time>
      </trkpt>
      <trkpt lat="44.81919" lon="4.06281">
        <ele>1002.7</ele>
        <time>2022-06-09T15:56:54Z</time>
      </trkpt>
      <trkpt lat="44.81924" lon="4.06279">
        <ele>1002.6</ele>
        <time>2022-06-09T15:56:55Z</time>
      </trkpt>
      <trkpt lat="44.81929" lon="4.06278">
        <ele>1002.5</ele>
        <time>2022-06-09T15:56:56Z</time>
      </trkpt>
      <trkpt lat="44.81933" lon="4.06276">
        <ele>1002.5</ele>
        <time>2022-06-09T15:56:57Z</time>
      </trkpt>
      <trkpt lat="44.81938" lon="4.06275">
        <ele>1002.4</ele>
        <time>2022-06-09T15:56:58Z</time>
      </trkpt>
      <trkpt lat="44.81943" lon="4.06273">
        <ele>1002.3</ele>
        <time>2022-06-09T15:56:59Z</time>
      </trkpt>
      <trkpt lat="44.81947" lon="4.06272">
        <ele>1002.2</ele>
        <time>2022-06-09T15:57:00Z</time>
      </trkpt>
      <trkpt lat="44.8195" lon="4.06271">
        <ele>1002.1</ele>
        <time>2022-06-09T15:57:01Z</time>
      </trkpt>
      <trkpt lat="44.81954" lon="4.0627">
        <ele>1002.1</ele>
        <time>2022-06-09T15:57:02Z</time>
      </trkpt>
      <trkpt lat="44.81958" lon="4.06268">
        <ele>1002</ele>
        <time>2022-06-09T15:57:03Z</time>
      </trkpt>
      <trkpt lat="44.81962" lon="4.06267">
        <ele>1002</ele>
        <time>2022-06-09T15:57:04Z</time>
      </trkpt>
      <trkpt lat="44.81967" lon="4.06266">
        <ele>1001.9</ele>
        <time>2022-06-09T15:57:05Z</time>
      </trkpt>
      <trkpt lat="44.81971" lon="4.06264">
        <ele>1001.8</ele>
        <time>2022-06-09T15:57:06Z</time>
      </trkpt>
      <trkpt lat="44.81974" lon="4.06262">
        <ele>1001.8</ele>
        <time>2022-06-09T15:57:07Z</time>
      </trkpt>
      <trkpt lat="44.81981" lon="4.0626">
        <ele>1001.8</ele>
        <time>2022-06-09T15:57:08Z</time>
      </trkpt>
      <trkpt lat="44.81987" lon="4.0626">
        <ele>1001.7</ele>
        <time>2022-06-09T15:57:10Z</time>
      </trkpt>
      <trkpt lat="44.81992" lon="4.06258">
        <ele>1001.7</ele>
        <time>2022-06-09T15:57:11Z</time>
      </trkpt>
      <trkpt lat="44.81996" lon="4.06256">
        <ele>1001.7</ele>
        <time>2022-06-09T15:57:12Z</time>
      </trkpt>
      <trkpt lat="44.82001" lon="4.06256">
        <ele>1001.6</ele>
        <time>2022-06-09T15:57:13Z</time>
      </trkpt>
      <trkpt lat="44.82004" lon="4.06256">
        <ele>1001.6</ele>
        <time>2022-06-09T15:57:14Z</time>
      </trkpt>
      <trkpt lat="44.82008" lon="4.06255">
        <ele>1001.6</ele>
        <time>2022-06-09T15:57:16Z</time>
      </trkpt>
      <trkpt lat="44.8201" lon="4.06255">
        <ele>1001.6</ele>
        <time>2022-06-09T15:57:17Z</time>
      </trkpt>
      <trkpt lat="44.82015" lon="4.06254">
        <ele>1001.5</ele>
        <time>2022-06-09T15:57:18Z</time>
      </trkpt>
      <trkpt lat="44.82021" lon="4.06252">
        <ele>1001.4</ele>
        <time>2022-06-09T15:57:19Z</time>
      </trkpt>
      <trkpt lat="44.82026" lon="4.0625">
        <ele>1001.3</ele>
        <time>2022-06-09T15:57:20Z</time>
      </trkpt>
      <trkpt lat="44.82031" lon="4.0625">
        <ele>1001.2</ele>
        <time>2022-06-09T15:57:22Z</time>
      </trkpt>
      <trkpt lat="44.82035" lon="4.06249">
        <ele>1001.2</ele>
        <time>2022-06-09T15:57:23Z</time>
      </trkpt>
      <trkpt lat="44.82041" lon="4.06248">
        <ele>1001.1</ele>
        <time>2022-06-09T15:57:24Z</time>
      </trkpt>
      <trkpt lat="44.82046" lon="4.06246">
        <ele>1001</ele>
        <time>2022-06-09T15:57:25Z</time>
      </trkpt>
      <trkpt lat="44.82052" lon="4.06245">
        <ele>1000.8</ele>
        <time>2022-06-09T15:57:27Z</time>
      </trkpt>
      <trkpt lat="44.82056" lon="4.06243">
        <ele>1000.7</ele>
        <time>2022-06-09T15:57:28Z</time>
      </trkpt>
      <trkpt lat="44.8206" lon="4.0624">
        <ele>1000.5</ele>
        <time>2022-06-09T15:57:29Z</time>
      </trkpt>
      <trkpt lat="44.82064" lon="4.06238">
        <ele>1000.3</ele>
        <time>2022-06-09T15:57:30Z</time>
      </trkpt>
      <trkpt lat="44.82069" lon="4.06236">
        <ele>1000.1</ele>
        <time>2022-06-09T15:57:31Z</time>
      </trkpt>
      <trkpt lat="44.82073" lon="4.06233">
        <ele>999.9</ele>
        <time>2022-06-09T15:57:32Z</time>
      </trkpt>
      <trkpt lat="44.82079" lon="4.06229">
        <ele>999.5</ele>
        <time>2022-06-09T15:57:33Z</time>
      </trkpt>
      <trkpt lat="44.82084" lon="4.06225">
        <ele>999</ele>
        <time>2022-06-09T15:57:34Z</time>
      </trkpt>
      <trkpt lat="44.82088" lon="4.06222">
        <ele>998.6</ele>
        <time>2022-06-09T15:57:35Z</time>
      </trkpt>
      <trkpt lat="44.82093" lon="4.06218">
        <ele>998.1</ele>
        <time>2022-06-09T15:57:36Z</time>
      </trkpt>
      <trkpt lat="44.82099" lon="4.06214">
        <ele>997.6</ele>
        <time>2022-06-09T15:57:37Z</time>
      </trkpt>
      <trkpt lat="44.82105" lon="4.06211">
        <ele>997.1</ele>
        <time>2022-06-09T15:57:38Z</time>
      </trkpt>
      <trkpt lat="44.82111" lon="4.06208">
        <ele>996.7</ele>
        <time>2022-06-09T15:57:39Z</time>
      </trkpt>
      <trkpt lat="44.82117" lon="4.06206">
        <ele>996.4</ele>
        <time>2022-06-09T15:57:40Z</time>
      </trkpt>
      <trkpt lat="44.82122" lon="4.06208">
        <ele>996</ele>
        <time>2022-06-09T15:57:41Z</time>
      </trkpt>
      <trkpt lat="44.82127" lon="4.06213">
        <ele>996.3</ele>
        <time>2022-06-09T15:57:42Z</time>
      </trkpt>
      <trkpt lat="44.8213" lon="4.0622">
        <ele>996.4</ele>
        <time>2022-06-09T15:57:43Z</time>
      </trkpt>
      <trkpt lat="44.82132" lon="4.06226">
        <ele>996.5</ele>
        <time>2022-06-09T15:57:44Z</time>
      </trkpt>
      <trkpt lat="44.82134" lon="4.06233">
        <ele>996.5</ele>
        <time>2022-06-09T15:57:45Z</time>
      </trkpt>
      <trkpt lat="44.82136" lon="4.06237">
        <ele>996.6</ele>
        <time>2022-06-09T15:57:46Z</time>
      </trkpt>
      <trkpt lat="44.82137" lon="4.06241">
        <ele>996.6</ele>
        <time>2022-06-09T15:57:47Z</time>
      </trkpt>
      <trkpt lat="44.8214" lon="4.06246">
        <ele>996.7</ele>
        <time>2022-06-09T15:57:48Z</time>
      </trkpt>
      <trkpt lat="44.82142" lon="4.0625">
        <ele>996.7</ele>
        <time>2022-06-09T15:57:49Z</time>
      </trkpt>
      <trkpt lat="44.82144" lon="4.06254">
        <ele>996.8</ele>
        <time>2022-06-09T15:57:50Z</time>
      </trkpt>
      <trkpt lat="44.82146" lon="4.06258">
        <ele>996.8</ele>
        <time>2022-06-09T15:57:51Z</time>
      </trkpt>
      <trkpt lat="44.82149" lon="4.06261">
        <ele>996.8</ele>
        <time>2022-06-09T15:57:52Z</time>
      </trkpt>
      <trkpt lat="44.82151" lon="4.06267">
        <ele>996.8</ele>
        <time>2022-06-09T15:57:53Z</time>
      </trkpt>
      <trkpt lat="44.82153" lon="4.06272">
        <ele>996.8</ele>
        <time>2022-06-09T15:57:54Z</time>
      </trkpt>
      <trkpt lat="44.82156" lon="4.06279">
        <ele>996.7</ele>
        <time>2022-06-09T15:57:55Z</time>
      </trkpt>
      <trkpt lat="44.82159" lon="4.06284">
        <ele>996.6</ele>
        <time>2022-06-09T15:57:57Z</time>
      </trkpt>
      <trkpt lat="44.82162" lon="4.06291">
        <ele>996.5</ele>
        <time>2022-06-09T15:57:58Z</time>
      </trkpt>
      <trkpt lat="44.82163" lon="4.06297">
        <ele>996.5</ele>
        <time>2022-06-09T15:57:59Z</time>
      </trkpt>
      <trkpt lat="44.82166" lon="4.0631">
        <ele>996.3</ele>
        <time>2022-06-09T15:58:01Z</time>
      </trkpt>
      <trkpt lat="44.82168" lon="4.06315">
        <ele>996.3</ele>
        <time>2022-06-09T15:58:02Z</time>
      </trkpt>
      <trkpt lat="44.8217" lon="4.06321">
        <ele>996.2</ele>
        <time>2022-06-09T15:58:03Z</time>
      </trkpt>
      <trkpt lat="44.82172" lon="4.06327">
        <ele>996.2</ele>
        <time>2022-06-09T15:58:04Z</time>
      </trkpt>
      <trkpt lat="44.82173" lon="4.06333">
        <ele>996.2</ele>
        <time>2022-06-09T15:58:05Z</time>
      </trkpt>
      <trkpt lat="44.82175" lon="4.06339">
        <ele>996.1</ele>
        <time>2022-06-09T15:58:06Z</time>
      </trkpt>
      <trkpt lat="44.82177" lon="4.06346">
        <ele>996.1</ele>
        <time>2022-06-09T15:58:07Z</time>
      </trkpt>
      <trkpt lat="44.82179" lon="4.06352">
        <ele>996.1</ele>
        <time>2022-06-09T15:58:08Z</time>
      </trkpt>
      <trkpt lat="44.8218" lon="4.06359">
        <ele>996.1</ele>
        <time>2022-06-09T15:58:09Z</time>
      </trkpt>
      <trkpt lat="44.82182" lon="4.06364">
        <ele>996.1</ele>
        <time>2022-06-09T15:58:10Z</time>
      </trkpt>
      <trkpt lat="44.82183" lon="4.0637">
        <ele>996.1</ele>
        <time>2022-06-09T15:58:11Z</time>
      </trkpt>
      <trkpt lat="44.82185" lon="4.06376">
        <ele>996.1</ele>
        <time>2022-06-09T15:58:12Z</time>
      </trkpt>
      <trkpt lat="44.82187" lon="4.06382">
        <ele>996</ele>
        <time>2022-06-09T15:58:13Z</time>
      </trkpt>
      <trkpt lat="44.82189" lon="4.06388">
        <ele>996</ele>
        <time>2022-06-09T15:58:14Z</time>
      </trkpt>
      <trkpt lat="44.82191" lon="4.06394">
        <ele>995.9</ele>
        <time>2022-06-09T15:58:15Z</time>
      </trkpt>
      <trkpt lat="44.82193" lon="4.06401">
        <ele>995.9</ele>
        <time>2022-06-09T15:58:16Z</time>
      </trkpt>
      <trkpt lat="44.82195" lon="4.06408">
        <ele>995.8</ele>
        <time>2022-06-09T15:58:17Z</time>
      </trkpt>
      <trkpt lat="44.82197" lon="4.06414">
        <ele>995.8</ele>
        <time>2022-06-09T15:58:18Z</time>
      </trkpt>
      <trkpt lat="44.822" lon="4.0642">
        <ele>995.8</ele>
        <time>2022-06-09T15:58:19Z</time>
      </trkpt>
      <trkpt lat="44.82201" lon="4.06426">
        <ele>995.8</ele>
        <time>2022-06-09T15:58:20Z</time>
      </trkpt>
      <trkpt lat="44.82203" lon="4.06433">
        <ele>995.7</ele>
        <time>2022-06-09T15:58:21Z</time>
      </trkpt>
      <trkpt lat="44.82205" lon="4.0644">
        <ele>995.7</ele>
        <time>2022-06-09T15:58:22Z</time>
      </trkpt>
      <trkpt lat="44.82207" lon="4.06446">
        <ele>995.7</ele>
        <time>2022-06-09T15:58:23Z</time>
      </trkpt>
      <trkpt lat="44.82209" lon="4.06452">
        <ele>995.7</ele>
        <time>2022-06-09T15:58:24Z</time>
      </trkpt>
      <trkpt lat="44.82211" lon="4.06458">
        <ele>995.8</ele>
        <time>2022-06-09T15:58:25Z</time>
      </trkpt>
      <trkpt lat="44.82214" lon="4.06463">
        <ele>995.9</ele>
        <time>2022-06-09T15:58:26Z</time>
      </trkpt>
      <trkpt lat="44.82217" lon="4.06469">
        <ele>996.1</ele>
        <time>2022-06-09T15:58:27Z</time>
      </trkpt>
      <trkpt lat="44.82219" lon="4.06476">
        <ele>996.2</ele>
        <time>2022-06-09T15:58:28Z</time>
      </trkpt>
      <trkpt lat="44.82221" lon="4.06481">
        <ele>996.2</ele>
        <time>2022-06-09T15:58:29Z</time>
      </trkpt>
      <trkpt lat="44.82224" lon="4.06487">
        <ele>996.3</ele>
        <time>2022-06-09T15:58:30Z</time>
      </trkpt>
      <trkpt lat="44.82226" lon="4.06493">
        <ele>996.4</ele>
        <time>2022-06-09T15:58:31Z</time>
      </trkpt>
      <trkpt lat="44.82227" lon="4.06498">
        <ele>996.5</ele>
        <time>2022-06-09T15:58:32Z</time>
      </trkpt>
      <trkpt lat="44.82228" lon="4.06502">
        <ele>996.5</ele>
        <time>2022-06-09T15:58:33Z</time>
      </trkpt>
      <trkpt lat="44.82229" lon="4.06507">
        <ele>996.6</ele>
        <time>2022-06-09T15:58:34Z</time>
      </trkpt>
      <trkpt lat="44.82231" lon="4.06512">
        <ele>996.7</ele>
        <time>2022-06-09T15:58:35Z</time>
      </trkpt>
      <trkpt lat="44.82233" lon="4.06516">
        <ele>996.8</ele>
        <time>2022-06-09T15:58:36Z</time>
      </trkpt>
      <trkpt lat="44.82235" lon="4.0652">
        <ele>996.9</ele>
        <time>2022-06-09T15:58:37Z</time>
      </trkpt>
      <trkpt lat="44.82236" lon="4.06524">
        <ele>996.9</ele>
        <time>2022-06-09T15:58:38Z</time>
      </trkpt>
      <trkpt lat="44.82238" lon="4.06528">
        <ele>997</ele>
        <time>2022-06-09T15:58:39Z</time>
      </trkpt>
      <trkpt lat="44.8224" lon="4.06534">
        <ele>997.2</ele>
        <time>2022-06-09T15:58:40Z</time>
      </trkpt>
      <trkpt lat="44.82242" lon="4.06539">
        <ele>997.3</ele>
        <time>2022-06-09T15:58:41Z</time>
      </trkpt>
      <trkpt lat="44.82245" lon="4.06546">
        <ele>997.5</ele>
        <time>2022-06-09T15:58:43Z</time>
      </trkpt>
      <trkpt lat="44.82247" lon="4.0655">
        <ele>997.7</ele>
        <time>2022-06-09T15:58:44Z</time>
      </trkpt>
      <trkpt lat="44.82249" lon="4.06554">
        <ele>997.8</ele>
        <time>2022-06-09T15:58:45Z</time>
      </trkpt>
      <trkpt lat="44.82252" lon="4.06558">
        <ele>998</ele>
        <time>2022-06-09T15:58:47Z</time>
      </trkpt>
      <trkpt lat="44.82252" lon="4.06562">
        <ele>998.1</ele>
        <time>2022-06-09T15:58:48Z</time>
      </trkpt>
      <trkpt lat="44.82254" lon="4.06567">
        <ele>998.2</ele>
        <time>2022-06-09T15:58:49Z</time>
      </trkpt>
      <trkpt lat="44.82257" lon="4.06572">
        <ele>998.4</ele>
        <time>2022-06-09T15:58:50Z</time>
      </trkpt>
      <trkpt lat="44.82259" lon="4.0658">
        <ele>998.7</ele>
        <time>2022-06-09T15:58:52Z</time>
      </trkpt>
      <trkpt lat="44.82259" lon="4.06585">
        <ele>998.9</ele>
        <time>2022-06-09T15:58:53Z</time>
      </trkpt>
      <trkpt lat="44.82259" lon="4.0659">
        <ele>999</ele>
        <time>2022-06-09T15:58:54Z</time>
      </trkpt>
      <trkpt lat="44.8226" lon="4.06593">
        <ele>999.1</ele>
        <time>2022-06-09T15:58:55Z</time>
      </trkpt>
      <trkpt lat="44.82261" lon="4.06597">
        <ele>999.3</ele>
        <time>2022-06-09T15:58:57Z</time>
      </trkpt>
      <trkpt lat="44.82262" lon="4.06602">
        <ele>999.4</ele>
        <time>2022-06-09T15:58:58Z</time>
      </trkpt>
      <trkpt lat="44.82263" lon="4.06607">
        <ele>999.6</ele>
        <time>2022-06-09T15:58:59Z</time>
      </trkpt>
      <trkpt lat="44.82265" lon="4.06612">
        <ele>999.8</ele>
        <time>2022-06-09T15:59:01Z</time>
      </trkpt>
      <trkpt lat="44.82265" lon="4.06614">
        <ele>999.8</ele>
        <time>2022-06-09T15:59:02Z</time>
      </trkpt>
      <trkpt lat="44.82266" lon="4.06617">
        <ele>1000</ele>
        <time>2022-06-09T15:59:03Z</time>
      </trkpt>
      <trkpt lat="44.82268" lon="4.06621">
        <ele>1000.1</ele>
        <time>2022-06-09T15:59:04Z</time>
      </trkpt>
      <trkpt lat="44.82269" lon="4.06623">
        <ele>1000.2</ele>
        <time>2022-06-09T15:59:05Z</time>
      </trkpt>
      <trkpt lat="44.8227" lon="4.06626">
        <ele>1000.3</ele>
        <time>2022-06-09T15:59:06Z</time>
      </trkpt>
      <trkpt lat="44.82272" lon="4.06631">
        <ele>1000.5</ele>
        <time>2022-06-09T15:59:07Z</time>
      </trkpt>
      <trkpt lat="44.82272" lon="4.06632">
        <ele>1000.5</ele>
        <time>2022-06-09T15:59:08Z</time>
      </trkpt>
      <trkpt lat="44.82275" lon="4.06636">
        <ele>1000.7</ele>
        <time>2022-06-09T15:59:09Z</time>
      </trkpt>
      <trkpt lat="44.82276" lon="4.06637">
        <ele>1000.8</ele>
        <time>2022-06-09T15:59:10Z</time>
      </trkpt>
      <trkpt lat="44.82277" lon="4.0664">
        <ele>1000.9</ele>
        <time>2022-06-09T15:59:12Z</time>
      </trkpt>
      <trkpt lat="44.8228" lon="4.06644">
        <ele>1001.1</ele>
        <time>2022-06-09T15:59:13Z</time>
      </trkpt>
      <trkpt lat="44.82282" lon="4.06647">
        <ele>1001.3</ele>
        <time>2022-06-09T15:59:15Z</time>
      </trkpt>
      <trkpt lat="44.82283" lon="4.06648">
        <ele>1001.3</ele>
        <time>2022-06-09T15:59:16Z</time>
      </trkpt>
      <trkpt lat="44.82285" lon="4.06652">
        <ele>1001.5</ele>
        <time>2022-06-09T15:59:17Z</time>
      </trkpt>
      <trkpt lat="44.82287" lon="4.06655">
        <ele>1001.7</ele>
        <time>2022-06-09T15:59:18Z</time>
      </trkpt>
      <trkpt lat="44.82288" lon="4.06657">
        <ele>1001.8</ele>
        <time>2022-06-09T15:59:19Z</time>
      </trkpt>
      <trkpt lat="44.8229" lon="4.0666">
        <ele>1001.9</ele>
        <time>2022-06-09T15:59:21Z</time>
      </trkpt>
      <trkpt lat="44.82293" lon="4.06666">
        <ele>1002.2</ele>
        <time>2022-06-09T15:59:23Z</time>
      </trkpt>
      <trkpt lat="44.82294" lon="4.06667">
        <ele>1002.3</ele>
        <time>2022-06-09T15:59:24Z</time>
      </trkpt>
      <trkpt lat="44.82295" lon="4.06669">
        <ele>1002.4</ele>
        <time>2022-06-09T15:59:25Z</time>
      </trkpt>
      <trkpt lat="44.82296" lon="4.06672">
        <ele>1002.6</ele>
        <time>2022-06-09T15:59:26Z</time>
      </trkpt>
      <trkpt lat="44.82298" lon="4.06676">
        <ele>1002.8</ele>
        <time>2022-06-09T15:59:28Z</time>
      </trkpt>
      <trkpt lat="44.82299" lon="4.06677">
        <ele>1002.9</ele>
        <time>2022-06-09T15:59:29Z</time>
      </trkpt>
      <trkpt lat="44.823" lon="4.06679">
        <ele>1003</ele>
        <time>2022-06-09T15:59:30Z</time>
      </trkpt>
      <trkpt lat="44.82301" lon="4.06681">
        <ele>1003.1</ele>
        <time>2022-06-09T15:59:31Z</time>
      </trkpt>
      <trkpt lat="44.82303" lon="4.06684">
        <ele>1003.3</ele>
        <time>2022-06-09T15:59:32Z</time>
      </trkpt>
      <trkpt lat="44.82304" lon="4.06685">
        <ele>1003.4</ele>
        <time>2022-06-09T15:59:33Z</time>
      </trkpt>
      <trkpt lat="44.82306" lon="4.06689">
        <ele>1003.6</ele>
        <time>2022-06-09T15:59:34Z</time>
      </trkpt>
      <trkpt lat="44.82307" lon="4.0669">
        <ele>1003.6</ele>
        <time>2022-06-09T15:59:35Z</time>
      </trkpt>
      <trkpt lat="44.82309" lon="4.06695">
        <ele>1003.9</ele>
        <time>2022-06-09T15:59:37Z</time>
      </trkpt>
      <trkpt lat="44.82311" lon="4.06696">
        <ele>1004</ele>
        <time>2022-06-09T15:59:38Z</time>
      </trkpt>
      <trkpt lat="44.82312" lon="4.06697">
        <ele>1004.1</ele>
        <time>2022-06-09T15:59:39Z</time>
      </trkpt>
      <trkpt lat="44.82314" lon="4.067">
        <ele>1004.3</ele>
        <time>2022-06-09T15:59:40Z</time>
      </trkpt>
      <trkpt lat="44.82316" lon="4.06702">
        <ele>1004.5</ele>
        <time>2022-06-09T15:59:42Z</time>
      </trkpt>
      <trkpt lat="44.82317" lon="4.06703">
        <ele>1004.6</ele>
        <time>2022-06-09T15:59:43Z</time>
      </trkpt>
      <trkpt lat="44.82318" lon="4.06706">
        <ele>1004.8</ele>
        <time>2022-06-09T15:59:44Z</time>
      </trkpt>
      <trkpt lat="44.8232" lon="4.06709">
        <ele>1005</ele>
        <time>2022-06-09T15:59:46Z</time>
      </trkpt>
      <trkpt lat="44.82321" lon="4.0671">
        <ele>1005</ele>
        <time>2022-06-09T15:59:47Z</time>
      </trkpt>
      <trkpt lat="44.82322" lon="4.06711">
        <ele>1005.2</ele>
        <time>2022-06-09T15:59:48Z</time>
      </trkpt>
      <trkpt lat="44.82324" lon="4.06715">
        <ele>1005.4</ele>
        <time>2022-06-09T15:59:49Z</time>
      </trkpt>
      <trkpt lat="44.82325" lon="4.06717">
        <ele>1005.5</ele>
        <time>2022-06-09T15:59:51Z</time>
      </trkpt>
      <trkpt lat="44.82326" lon="4.06719">
        <ele>1005.7</ele>
        <time>2022-06-09T15:59:52Z</time>
      </trkpt>
      <trkpt lat="44.82327" lon="4.06721">
        <ele>1005.8</ele>
        <time>2022-06-09T15:59:53Z</time>
      </trkpt>
      <trkpt lat="44.82328" lon="4.06723">
        <ele>1005.9</ele>
        <time>2022-06-09T15:59:54Z</time>
      </trkpt>
      <trkpt lat="44.82329" lon="4.06724">
        <ele>1006.1</ele>
        <time>2022-06-09T15:59:56Z</time>
      </trkpt>
      <trkpt lat="44.82331" lon="4.06727">
        <ele>1006.3</ele>
        <time>2022-06-09T15:59:57Z</time>
      </trkpt>
      <trkpt lat="44.82333" lon="4.0673">
        <ele>1006.5</ele>
        <time>2022-06-09T15:59:59Z</time>
      </trkpt>
      <trkpt lat="44.82333" lon="4.06731">
        <ele>1006.6</ele>
        <time>2022-06-09T16:00:00Z</time>
      </trkpt>
      <trkpt lat="44.82334" lon="4.06733">
        <ele>1006.7</ele>
        <time>2022-06-09T16:00:01Z</time>
      </trkpt>
      <trkpt lat="44.82335" lon="4.06735">
        <ele>1006.9</ele>
        <time>2022-06-09T16:00:02Z</time>
      </trkpt>
      <trkpt lat="44.82336" lon="4.06739">
        <ele>1007.2</ele>
        <time>2022-06-09T16:00:04Z</time>
      </trkpt>
      <trkpt lat="44.82338" lon="4.06743">
        <ele>1007.5</ele>
        <time>2022-06-09T16:00:06Z</time>
      </trkpt>
      <trkpt lat="44.82339" lon="4.06744">
        <ele>1007.6</ele>
        <time>2022-06-09T16:00:08Z</time>
      </trkpt>
      <trkpt lat="44.8234" lon="4.06745">
        <ele>1007.7</ele>
        <time>2022-06-09T16:00:09Z</time>
      </trkpt>
      <trkpt lat="44.82341" lon="4.06748">
        <ele>1007.8</ele>
        <time>2022-06-09T16:00:10Z</time>
      </trkpt>
      <trkpt lat="44.82341" lon="4.06748">
        <ele>1007.9</ele>
        <time>2022-06-09T16:00:11Z</time>
      </trkpt>
      <trkpt lat="44.82342" lon="4.06749">
        <ele>1008</ele>
        <time>2022-06-09T16:00:12Z</time>
      </trkpt>
      <trkpt lat="44.82342" lon="4.06751">
        <ele>1008.1</ele>
        <time>2022-06-09T16:00:13Z</time>
      </trkpt>
      <trkpt lat="44.82343" lon="4.06753">
        <ele>1008.2</ele>
        <time>2022-06-09T16:00:14Z</time>
      </trkpt>
      <trkpt lat="44.82344" lon="4.06754">
        <ele>1008.3</ele>
        <time>2022-06-09T16:00:15Z</time>
      </trkpt>
      <trkpt lat="44.82345" lon="4.06756">
        <ele>1008.4</ele>
        <time>2022-06-09T16:00:16Z</time>
      </trkpt>
      <trkpt lat="44.82346" lon="4.06757">
        <ele>1008.6</ele>
        <time>2022-06-09T16:00:17Z</time>
      </trkpt>
      <trkpt lat="44.82347" lon="4.06758">
        <ele>1008.7</ele>
        <time>2022-06-09T16:00:18Z</time>
      </trkpt>
      <trkpt lat="44.82348" lon="4.06761">
        <ele>1008.8</ele>
        <time>2022-06-09T16:00:19Z</time>
      </trkpt>
      <trkpt lat="44.82349" lon="4.06762">
        <ele>1008.9</ele>
        <time>2022-06-09T16:00:20Z</time>
      </trkpt>
      <trkpt lat="44.82349" lon="4.06763">
        <ele>1009</ele>
        <time>2022-06-09T16:00:21Z</time>
      </trkpt>
      <trkpt lat="44.8235" lon="4.06764">
        <ele>1009</ele>
        <time>2022-06-09T16:00:22Z</time>
      </trkpt>
      <trkpt lat="44.8235" lon="4.06766">
        <ele>1009.2</ele>
        <time>2022-06-09T16:00:23Z</time>
      </trkpt>
      <trkpt lat="44.82351" lon="4.06768">
        <ele>1009.3</ele>
        <time>2022-06-09T16:00:24Z</time>
      </trkpt>
      <trkpt lat="44.82351" lon="4.06769">
        <ele>1009.3</ele>
        <time>2022-06-09T16:00:25Z</time>
      </trkpt>
      <trkpt lat="44.82351" lon="4.06771">
        <ele>1009.4</ele>
        <time>2022-06-09T16:00:26Z</time>
      </trkpt>
      <trkpt lat="44.82352" lon="4.06773">
        <ele>1009.6</ele>
        <time>2022-06-09T16:00:27Z</time>
      </trkpt>
      <trkpt lat="44.82353" lon="4.06775">
        <ele>1009.7</ele>
        <time>2022-06-09T16:00:28Z</time>
      </trkpt>
      <trkpt lat="44.82353" lon="4.06776">
        <ele>1009.8</ele>
        <time>2022-06-09T16:00:29Z</time>
      </trkpt>
      <trkpt lat="44.82354" lon="4.06779">
        <ele>1009.9</ele>
        <time>2022-06-09T16:00:30Z</time>
      </trkpt>
      <trkpt lat="44.82354" lon="4.06782">
        <ele>1010</ele>
        <time>2022-06-09T16:00:31Z</time>
      </trkpt>
      <trkpt lat="44.82355" lon="4.06784">
        <ele>1010.2</ele>
        <time>2022-06-09T16:00:33Z</time>
      </trkpt>
      <trkpt lat="44.82356" lon="4.06788">
        <ele>1010.4</ele>
        <time>2022-06-09T16:00:34Z</time>
      </trkpt>
      <trkpt lat="44.82356" lon="4.06789">
        <ele>1010.4</ele>
        <time>2022-06-09T16:00:35Z</time>
      </trkpt>
      <trkpt lat="44.82358" lon="4.06792">
        <ele>1010.7</ele>
        <time>2022-06-09T16:00:37Z</time>
      </trkpt>
      <trkpt lat="44.82359" lon="4.06794">
        <ele>1010.7</ele>
        <time>2022-06-09T16:00:38Z</time>
      </trkpt>
      <trkpt lat="44.82359" lon="4.06796">
        <ele>1010.9</ele>
        <time>2022-06-09T16:00:39Z</time>
      </trkpt>
      <trkpt lat="44.8236" lon="4.068">
        <ele>1011</ele>
        <time>2022-06-09T16:00:41Z</time>
      </trkpt>
      <trkpt lat="44.8236" lon="4.06804">
        <ele>1011.2</ele>
        <time>2022-06-09T16:00:42Z</time>
      </trkpt>
      <trkpt lat="44.82361" lon="4.06805">
        <ele>1011.3</ele>
        <time>2022-06-09T16:00:43Z</time>
      </trkpt>
      <trkpt lat="44.82362" lon="4.06809">
        <ele>1011.5</ele>
        <time>2022-06-09T16:00:44Z</time>
      </trkpt>
      <trkpt lat="44.82363" lon="4.06815">
        <ele>1011.7</ele>
        <time>2022-06-09T16:00:46Z</time>
      </trkpt>
      <trkpt lat="44.82364" lon="4.06817">
        <ele>1011.8</ele>
        <time>2022-06-09T16:00:47Z</time>
      </trkpt>
      <trkpt lat="44.82365" lon="4.06819">
        <ele>1011.9</ele>
        <time>2022-06-09T16:00:48Z</time>
      </trkpt>
      <trkpt lat="44.82366" lon="4.06823">
        <ele>1012</ele>
        <time>2022-06-09T16:00:49Z</time>
      </trkpt>
      <trkpt lat="44.82366" lon="4.06824">
        <ele>1012.1</ele>
        <time>2022-06-09T16:00:50Z</time>
      </trkpt>
      <trkpt lat="44.82367" lon="4.0683">
        <ele>1012.2</ele>
        <time>2022-06-09T16:00:52Z</time>
      </trkpt>
      <trkpt lat="44.82368" lon="4.06833">
        <ele>1012.3</ele>
        <time>2022-06-09T16:00:54Z</time>
      </trkpt>
      <trkpt lat="44.82368" lon="4.06838">
        <ele>1012.5</ele>
        <time>2022-06-09T16:00:55Z</time>
      </trkpt>
      <trkpt lat="44.82369" lon="4.06843">
        <ele>1012.6</ele>
        <time>2022-06-09T16:00:57Z</time>
      </trkpt>
      <trkpt lat="44.82369" lon="4.06844">
        <ele>1012.7</ele>
        <time>2022-06-09T16:00:58Z</time>
      </trkpt>
      <trkpt lat="44.8237" lon="4.06849">
        <ele>1012.8</ele>
        <time>2022-06-09T16:00:59Z</time>
      </trkpt>
      <trkpt lat="44.82371" lon="4.06855">
        <ele>1013</ele>
        <time>2022-06-09T16:01:01Z</time>
      </trkpt>
      <trkpt lat="44.82371" lon="4.06857">
        <ele>1013</ele>
        <time>2022-06-09T16:01:02Z</time>
      </trkpt>
      <trkpt lat="44.82372" lon="4.06861">
        <ele>1013.1</ele>
        <time>2022-06-09T16:01:03Z</time>
      </trkpt>
      <trkpt lat="44.82372" lon="4.06866">
        <ele>1013.3</ele>
        <time>2022-06-09T16:01:04Z</time>
      </trkpt>
      <trkpt lat="44.82373" lon="4.06868">
        <ele>1013.3</ele>
        <time>2022-06-09T16:01:05Z</time>
      </trkpt>
      <trkpt lat="44.82374" lon="4.06874">
        <ele>1013.5</ele>
        <time>2022-06-09T16:01:07Z</time>
      </trkpt>
      <trkpt lat="44.82374" lon="4.06877">
        <ele>1013.5</ele>
        <time>2022-06-09T16:01:08Z</time>
      </trkpt>
      <trkpt lat="44.82376" lon="4.06884">
        <ele>1013.6</ele>
        <time>2022-06-09T16:01:10Z</time>
      </trkpt>
      <trkpt lat="44.82376" lon="4.06886">
        <ele>1013.7</ele>
        <time>2022-06-09T16:01:11Z</time>
      </trkpt>
      <trkpt lat="44.82376" lon="4.06888">
        <ele>1013.7</ele>
        <time>2022-06-09T16:01:12Z</time>
      </trkpt>
      <trkpt lat="44.82377" lon="4.06894">
        <ele>1013.8</ele>
        <time>2022-06-09T16:01:13Z</time>
      </trkpt>
      <trkpt lat="44.82378" lon="4.06896">
        <ele>1013.9</ele>
        <time>2022-06-09T16:01:14Z</time>
      </trkpt>
      <trkpt lat="44.82378" lon="4.069">
        <ele>1013.9</ele>
        <time>2022-06-09T16:01:15Z</time>
      </trkpt>
      <trkpt lat="44.82378" lon="4.06903">
        <ele>1014</ele>
        <time>2022-06-09T16:01:16Z</time>
      </trkpt>
      <trkpt lat="44.82378" lon="4.06909">
        <ele>1014</ele>
        <time>2022-06-09T16:01:18Z</time>
      </trkpt>
      <trkpt lat="44.82379" lon="4.06915">
        <ele>1014.1</ele>
        <time>2022-06-09T16:01:19Z</time>
      </trkpt>
      <trkpt lat="44.82381" lon="4.06923">
        <ele>1014.2</ele>
        <time>2022-06-09T16:01:21Z</time>
      </trkpt>
      <trkpt lat="44.82381" lon="4.06927">
        <ele>1014.3</ele>
        <time>2022-06-09T16:01:22Z</time>
      </trkpt>
      <trkpt lat="44.82382" lon="4.06931">
        <ele>1014.3</ele>
        <time>2022-06-09T16:01:24Z</time>
      </trkpt>
      <trkpt lat="44.82383" lon="4.06936">
        <ele>1014.3</ele>
        <time>2022-06-09T16:01:25Z</time>
      </trkpt>
      <trkpt lat="44.82384" lon="4.06941">
        <ele>1014.4</ele>
        <time>2022-06-09T16:01:26Z</time>
      </trkpt>
      <trkpt lat="44.82385" lon="4.06946">
        <ele>1014.4</ele>
        <time>2022-06-09T16:01:28Z</time>
      </trkpt>
      <trkpt lat="44.82386" lon="4.0695">
        <ele>1014.4</ele>
        <time>2022-06-09T16:01:29Z</time>
      </trkpt>
      <trkpt lat="44.82386" lon="4.06954">
        <ele>1014.5</ele>
        <time>2022-06-09T16:01:30Z</time>
      </trkpt>
      <trkpt lat="44.82387" lon="4.06962">
        <ele>1014.5</ele>
        <time>2022-06-09T16:01:31Z</time>
      </trkpt>
      <trkpt lat="44.82388" lon="4.0697">
        <ele>1014.5</ele>
        <time>2022-06-09T16:01:33Z</time>
      </trkpt>
      <trkpt lat="44.82389" lon="4.06974">
        <ele>1014.6</ele>
        <time>2022-06-09T16:01:34Z</time>
      </trkpt>
      <trkpt lat="44.82389" lon="4.06979">
        <ele>1014.6</ele>
        <time>2022-06-09T16:01:36Z</time>
      </trkpt>
      <trkpt lat="44.82389" lon="4.06982">
        <ele>1014.6</ele>
        <time>2022-06-09T16:01:37Z</time>
      </trkpt>
      <trkpt lat="44.82389" lon="4.06987">
        <ele>1014.6</ele>
        <time>2022-06-09T16:01:38Z</time>
      </trkpt>
      <trkpt lat="44.82389" lon="4.06993">
        <ele>1014.6</ele>
        <time>2022-06-09T16:01:39Z</time>
      </trkpt>
      <trkpt lat="44.8239" lon="4.06995">
        <ele>1014.6</ele>
        <time>2022-06-09T16:01:40Z</time>
      </trkpt>
      <trkpt lat="44.82391" lon="4.07005">
        <ele>1014.6</ele>
        <time>2022-06-09T16:01:41Z</time>
      </trkpt>
      <trkpt lat="44.82391" lon="4.0701">
        <ele>1014.6</ele>
        <time>2022-06-09T16:01:43Z</time>
      </trkpt>
      <trkpt lat="44.82392" lon="4.07015">
        <ele>1014.6</ele>
        <time>2022-06-09T16:01:44Z</time>
      </trkpt>
      <trkpt lat="44.82392" lon="4.07022">
        <ele>1014.5</ele>
        <time>2022-06-09T16:01:45Z</time>
      </trkpt>
      <trkpt lat="44.82392" lon="4.07026">
        <ele>1014.5</ele>
        <time>2022-06-09T16:01:46Z</time>
      </trkpt>
      <trkpt lat="44.82393" lon="4.07033">
        <ele>1014.5</ele>
        <time>2022-06-09T16:01:47Z</time>
      </trkpt>
      <trkpt lat="44.82393" lon="4.07038">
        <ele>1014.5</ele>
        <time>2022-06-09T16:01:48Z</time>
      </trkpt>
      <trkpt lat="44.82393" lon="4.07044">
        <ele>1014.5</ele>
        <time>2022-06-09T16:01:49Z</time>
      </trkpt>
      <trkpt lat="44.82393" lon="4.07051">
        <ele>1014.4</ele>
        <time>2022-06-09T16:01:51Z</time>
      </trkpt>
      <trkpt lat="44.82394" lon="4.07058">
        <ele>1014.4</ele>
        <time>2022-06-09T16:01:52Z</time>
      </trkpt>
      <trkpt lat="44.82394" lon="4.07063">
        <ele>1014.4</ele>
        <time>2022-06-09T16:01:53Z</time>
      </trkpt>
      <trkpt lat="44.82393" lon="4.0707">
        <ele>1014.3</ele>
        <time>2022-06-09T16:01:54Z</time>
      </trkpt>
      <trkpt lat="44.82393" lon="4.07074">
        <ele>1014.3</ele>
        <time>2022-06-09T16:01:56Z</time>
      </trkpt>
      <trkpt lat="44.82392" lon="4.07079">
        <ele>1014.3</ele>
        <time>2022-06-09T16:01:57Z</time>
      </trkpt>
      <trkpt lat="44.82389" lon="4.07084">
        <ele>1011</ele>
        <time>2022-06-09T16:01:58Z</time>
      </trkpt>
      <trkpt lat="44.82388" lon="4.07086">
        <ele>1009.6</ele>
        <time>2022-06-09T16:01:59Z</time>
      </trkpt>
      <trkpt lat="44.82385" lon="4.07088">
        <ele>1006.7</ele>
        <time>2022-06-09T16:02:01Z</time>
      </trkpt>
      <trkpt lat="44.82384" lon="4.07089">
        <ele>1005.8</ele>
        <time>2022-06-09T16:02:02Z</time>
      </trkpt>
      <trkpt lat="44.82383" lon="4.0709">
        <ele>1004.9</ele>
        <time>2022-06-09T16:02:04Z</time>
      </trkpt>
      <trkpt lat="44.82382" lon="4.07091">
        <ele>1004.1</ele>
        <time>2022-06-09T16:02:06Z</time>
      </trkpt>
      <trkpt lat="44.82381" lon="4.07091">
        <ele>1003.6</ele>
        <time>2022-06-09T16:02:07Z</time>
      </trkpt>
      <trkpt lat="44.8238" lon="4.07092">
        <ele>1003.6</ele>
        <time>2022-06-09T16:02:08Z</time>
      </trkpt>
      <trkpt lat="44.82379" lon="4.07091">
        <ele>1003.6</ele>
        <time>2022-06-09T16:02:09Z</time>
      </trkpt>
      <trkpt lat="44.82377" lon="4.0709">
        <ele>1003.6</ele>
        <time>2022-06-09T16:02:10Z</time>
      </trkpt>
      <trkpt lat="44.82376" lon="4.07089">
        <ele>1003.6</ele>
        <time>2022-06-09T16:02:11Z</time>
      </trkpt>
      <trkpt lat="44.82376" lon="4.07087">
        <ele>1003.6</ele>
        <time>2022-06-09T16:02:13Z</time>
      </trkpt>
      <trkpt lat="44.82376" lon="4.07086">
        <ele>1003.6</ele>
        <time>2022-06-09T16:02:14Z</time>
      </trkpt>
      <trkpt lat="44.82375" lon="4.07086">
        <ele>1003.4</ele>
        <time>2022-06-09T16:02:15Z</time>
      </trkpt>
      <trkpt lat="44.82375" lon="4.07085">
        <ele>1003.4</ele>
        <time>2022-06-09T16:02:16Z</time>
      </trkpt>
      <trkpt lat="44.82374" lon="4.07083">
        <ele>1003.3</ele>
        <time>2022-06-09T16:02:17Z</time>
      </trkpt>
      <trkpt lat="44.82372" lon="4.0708">
        <ele>1003.2</ele>
        <time>2022-06-09T16:02:18Z</time>
      </trkpt>
      <trkpt lat="44.82372" lon="4.07079">
        <ele>1003.1</ele>
        <time>2022-06-09T16:02:19Z</time>
      </trkpt>
      <trkpt lat="44.82371" lon="4.07075">
        <ele>1003</ele>
        <time>2022-06-09T16:02:21Z</time>
      </trkpt>
      <trkpt lat="44.82372" lon="4.07072">
        <ele>1002.9</ele>
        <time>2022-06-09T16:02:23Z</time>
      </trkpt>
      <trkpt lat="44.82373" lon="4.07069">
        <ele>1002.8</ele>
        <time>2022-06-09T16:02:24Z</time>
      </trkpt>
      <trkpt lat="44.82373" lon="4.07067">
        <ele>1002.8</ele>
        <time>2022-06-09T16:02:26Z</time>
      </trkpt>
      <trkpt lat="44.82374" lon="4.07065">
        <ele>1002.7</ele>
        <time>2022-06-09T16:02:27Z</time>
      </trkpt>
      <trkpt lat="44.82374" lon="4.07063">
        <ele>1002.6</ele>
        <time>2022-06-09T16:02:29Z</time>
      </trkpt>
      <trkpt lat="44.82374" lon="4.07063">
        <ele>1002.6</ele>
        <time>2022-06-09T16:02:30Z</time>
      </trkpt>
      <trkpt lat="44.82374" lon="4.07063">
        <ele>1002.6</ele>
        <time>2022-06-09T16:02:31Z</time>
      </trkpt>
      <trkpt lat="44.82374" lon="4.07062">
        <ele>1002.6</ele>
        <time>2022-06-09T16:02:32Z</time>
      </trkpt>
      <trkpt lat="44.82374" lon="4.07062">
        <ele>1002.6</ele>
        <time>2022-06-09T16:02:33Z</time>
      </trkpt>
      <trkpt lat="44.82374" lon="4.07062">
        <ele>1002.6</ele>
        <time>2022-06-09T16:02:34Z</time>
      </trkpt>
      <trkpt lat="44.82374" lon="4.07062">
        <ele>1002.6</ele>
        <time>2022-06-09T16:02:35Z</time>
      </trkpt>
      <trkpt lat="44.82374" lon="4.07062">
        <ele>1002.6</ele>
        <time>2022-06-09T16:02:36Z</time>
      </trkpt>
      <trkpt lat="44.82374" lon="4.07062">
        <ele>1002.6</ele>
        <time>2022-06-09T16:02:37Z</time>
      </trkpt>
      <trkpt lat="44.82374" lon="4.07062">
        <ele>1002.6</ele>
        <time>2022-06-09T16:02:38Z</time>
      </trkpt>
      <trkpt lat="44.82374" lon="4.07062">
        <ele>1002.6</ele>
        <time>2022-06-09T16:02:39Z</time>
      </trkpt>
      <trkpt lat="44.82376" lon="4.07066">
        <ele>1002.4</ele>
        <time>2022-06-09T16:02:53Z</time>
      </trkpt>
      <trkpt lat="44.82376" lon="4.07068">
        <ele>1002.3</ele>
        <time>2022-06-09T16:02:54Z</time>
      </trkpt>
      <trkpt lat="44.82376" lon="4.07069">
        <ele>1002.3</ele>
        <time>2022-06-09T16:02:55Z</time>
      </trkpt>
      <trkpt lat="44.82376" lon="4.07071">
        <ele>1002.2</ele>
        <time>2022-06-09T16:02:56Z</time>
      </trkpt>
      <trkpt lat="44.82376" lon="4.07071">
        <ele>1002.2</ele>
        <time>2022-06-09T16:02:57Z</time>
      </trkpt>
      <trkpt lat="44.82377" lon="4.07072">
        <ele>1002.2</ele>
        <time>2022-06-09T16:02:58Z</time>
      </trkpt>
      <trkpt lat="44.82377" lon="4.07072">
        <ele>1002.2</ele>
        <time>2022-06-09T16:03:00Z</time>
      </trkpt>
      <trkpt lat="44.82377" lon="4.07072">
        <ele>1002.2</ele>
        <time>2022-06-09T16:03:01Z</time>
      </trkpt>
      <trkpt lat="44.82377" lon="4.07072">
        <ele>1002.2</ele>
        <time>2022-06-09T16:03:02Z</time>
      </trkpt>
      <trkpt lat="44.82377" lon="4.07072">
        <ele>1002.2</ele>
        <time>2022-06-09T16:03:03Z</time>
      </trkpt>
      <trkpt lat="44.82377" lon="4.07072">
        <ele>1002.2</ele>
        <time>2022-06-09T16:03:04Z</time>
      </trkpt>
      <trkpt lat="44.82377" lon="4.07072">
        <ele>1002.2</ele>
        <time>2022-06-09T16:03:05Z</time>
      </trkpt>
      <trkpt lat="44.82377" lon="4.07073">
        <ele>1002.2</ele>
        <time>2022-06-09T16:03:06Z</time>
      </trkpt>
      <trkpt lat="44.82377" lon="4.07073">
        <ele>1002.2</ele>
        <time>2022-06-09T16:03:07Z</time>
      </trkpt>
      <trkpt lat="44.82378" lon="4.07073">
        <ele>1002.1</ele>
        <time>2022-06-09T16:03:08Z</time>
      </trkpt>
      <trkpt lat="44.82378" lon="4.07073">
        <ele>1002.1</ele>
        <time>2022-06-09T16:03:09Z</time>
      </trkpt>
      <trkpt lat="44.82375" lon="4.07068">
        <ele>1001.9</ele>
        <time>2022-06-09T16:14:19Z</time>
      </trkpt>
      <trkpt lat="44.82375" lon="4.07066">
        <ele>1001.9</ele>
        <time>2022-06-09T16:14:20Z</time>
      </trkpt>
      <trkpt lat="44.82374" lon="4.07065">
        <ele>1001.8</ele>
        <time>2022-06-09T16:14:21Z</time>
      </trkpt>
      <trkpt lat="44.82374" lon="4.07065">
        <ele>1001.8</ele>
        <time>2022-06-09T16:14:22Z</time>
      </trkpt>
      <trkpt lat="44.82374" lon="4.07063">
        <ele>1001.8</ele>
        <time>2022-06-09T16:14:23Z</time>
      </trkpt>
      <trkpt lat="44.82373" lon="4.07061">
        <ele>1001.7</ele>
        <time>2022-06-09T16:14:24Z</time>
      </trkpt>
      <trkpt lat="44.82373" lon="4.07058">
        <ele>1001.6</ele>
        <time>2022-06-09T16:14:25Z</time>
      </trkpt>
      <trkpt lat="44.82372" lon="4.07054">
        <ele>1001.5</ele>
        <time>2022-06-09T16:14:27Z</time>
      </trkpt>
      <trkpt lat="44.82372" lon="4.0705">
        <ele>1001.5</ele>
        <time>2022-06-09T16:14:29Z</time>
      </trkpt>
      <trkpt lat="44.82373" lon="4.07049">
        <ele>1001.6</ele>
        <time>2022-06-09T16:14:30Z</time>
      </trkpt>
      <trkpt lat="44.82374" lon="4.07046">
        <ele>1001.7</ele>
        <time>2022-06-09T16:14:31Z</time>
      </trkpt>
      <trkpt lat="44.82374" lon="4.07045">
        <ele>1001.7</ele>
        <time>2022-06-09T16:14:32Z</time>
      </trkpt>
      <trkpt lat="44.82373" lon="4.07043">
        <ele>1001.8</ele>
        <time>2022-06-09T16:14:33Z</time>
      </trkpt>
      <trkpt lat="44.82373" lon="4.07039">
        <ele>1001.9</ele>
        <time>2022-06-09T16:14:35Z</time>
      </trkpt>
      <trkpt lat="44.82372" lon="4.07037">
        <ele>1002</ele>
        <time>2022-06-09T16:14:37Z</time>
      </trkpt>
      <trkpt lat="44.82372" lon="4.07035">
        <ele>1002</ele>
        <time>2022-06-09T16:14:38Z</time>
      </trkpt>
      <trkpt lat="44.82371" lon="4.07034">
        <ele>1002.1</ele>
        <time>2022-06-09T16:14:39Z</time>
      </trkpt>
      <trkpt lat="44.82371" lon="4.07031">
        <ele>1002.1</ele>
        <time>2022-06-09T16:14:40Z</time>
      </trkpt>
      <trkpt lat="44.82371" lon="4.07029">
        <ele>1002.2</ele>
        <time>2022-06-09T16:14:41Z</time>
      </trkpt>
      <trkpt lat="44.82371" lon="4.07028">
        <ele>1002.2</ele>
        <time>2022-06-09T16:14:43Z</time>
      </trkpt>
      <trkpt lat="44.8237" lon="4.07026">
        <ele>1002.3</ele>
        <time>2022-06-09T16:14:44Z</time>
      </trkpt>
      <trkpt lat="44.8237" lon="4.07024">
        <ele>1002.3</ele>
        <time>2022-06-09T16:14:45Z</time>
      </trkpt>
      <trkpt lat="44.8237" lon="4.07022">
        <ele>1002.3</ele>
        <time>2022-06-09T16:14:46Z</time>
      </trkpt>
      <trkpt lat="44.82369" lon="4.0702">
        <ele>1002.4</ele>
        <time>2022-06-09T16:14:47Z</time>
      </trkpt>
      <trkpt lat="44.82369" lon="4.07018">
        <ele>1002.4</ele>
        <time>2022-06-09T16:14:48Z</time>
      </trkpt>
      <trkpt lat="44.82368" lon="4.07016">
        <ele>1002.4</ele>
        <time>2022-06-09T16:14:49Z</time>
      </trkpt>
      <trkpt lat="44.82368" lon="4.07014">
        <ele>1002.5</ele>
        <time>2022-06-09T16:14:50Z</time>
      </trkpt>
      <trkpt lat="44.82366" lon="4.07011">
        <ele>1002.5</ele>
        <time>2022-06-09T16:14:51Z</time>
      </trkpt>
      <trkpt lat="44.82365" lon="4.07009">
        <ele>1002.5</ele>
        <time>2022-06-09T16:14:52Z</time>
      </trkpt>
      <trkpt lat="44.82363" lon="4.07008">
        <ele>1002.5</ele>
        <time>2022-06-09T16:14:53Z</time>
      </trkpt>
      <trkpt lat="44.82362" lon="4.07007">
        <ele>1002.5</ele>
        <time>2022-06-09T16:14:55Z</time>
      </trkpt>
      <trkpt lat="44.8236" lon="4.07006">
        <ele>1002.5</ele>
        <time>2022-06-09T16:14:56Z</time>
      </trkpt>
      <trkpt lat="44.82359" lon="4.07005">
        <ele>1002.4</ele>
        <time>2022-06-09T16:14:57Z</time>
      </trkpt>
      <trkpt lat="44.82358" lon="4.07003">
        <ele>1002.4</ele>
        <time>2022-06-09T16:14:58Z</time>
      </trkpt>
      <trkpt lat="44.82357" lon="4.07001">
        <ele>1002.4</ele>
        <time>2022-06-09T16:14:59Z</time>
      </trkpt>
      <trkpt lat="44.82356" lon="4.06998">
        <ele>1002.3</ele>
        <time>2022-06-09T16:15:00Z</time>
      </trkpt>
      <trkpt lat="44.82356" lon="4.06997">
        <ele>1002.3</ele>
        <time>2022-06-09T16:15:01Z</time>
      </trkpt>
      <trkpt lat="44.82356" lon="4.06996">
        <ele>1002.3</ele>
        <time>2022-06-09T16:15:02Z</time>
      </trkpt>
      <trkpt lat="44.82356" lon="4.06994">
        <ele>1002.2</ele>
        <time>2022-06-09T16:15:03Z</time>
      </trkpt>
      <trkpt lat="44.82355" lon="4.06993">
        <ele>1002.2</ele>
        <time>2022-06-09T16:15:04Z</time>
      </trkpt>
      <trkpt lat="44.82355" lon="4.06991">
        <ele>1002.2</ele>
        <time>2022-06-09T16:15:05Z</time>
      </trkpt>
      <trkpt lat="44.82354" lon="4.06989">
        <ele>1002.1</ele>
        <time>2022-06-09T16:15:06Z</time>
      </trkpt>
      <trkpt lat="44.82354" lon="4.06989">
        <ele>1002.1</ele>
        <time>2022-06-09T16:15:08Z</time>
      </trkpt>
      <trkpt lat="44.82353" lon="4.06987">
        <ele>1002</ele>
        <time>2022-06-09T16:15:09Z</time>
      </trkpt>
      <trkpt lat="44.82353" lon="4.06986">
        <ele>1002</ele>
        <time>2022-06-09T16:15:10Z</time>
      </trkpt>
      <trkpt lat="44.82353" lon="4.06984">
        <ele>1002</ele>
        <time>2022-06-09T16:15:11Z</time>
      </trkpt>
      <trkpt lat="44.82352" lon="4.06983">
        <ele>1002</ele>
        <time>2022-06-09T16:15:12Z</time>
      </trkpt>
      <trkpt lat="44.82352" lon="4.0698">
        <ele>1001.9</ele>
        <time>2022-06-09T16:15:13Z</time>
      </trkpt>
      <trkpt lat="44.82352" lon="4.06979">
        <ele>1001.9</ele>
        <time>2022-06-09T16:15:14Z</time>
      </trkpt>
      <trkpt lat="44.82352" lon="4.06978">
        <ele>1001.9</ele>
        <time>2022-06-09T16:15:15Z</time>
      </trkpt>
      <trkpt lat="44.82352" lon="4.06975">
        <ele>1001.8</ele>
        <time>2022-06-09T16:15:16Z</time>
      </trkpt>
      <trkpt lat="44.82352" lon="4.06974">
        <ele>1001.8</ele>
        <time>2022-06-09T16:15:17Z</time>
      </trkpt>
      <trkpt lat="44.82352" lon="4.06973">
        <ele>1001.8</ele>
        <time>2022-06-09T16:15:18Z</time>
      </trkpt>
      <trkpt lat="44.82352" lon="4.06971">
        <ele>1001.8</ele>
        <time>2022-06-09T16:15:19Z</time>
      </trkpt>
      <trkpt lat="44.82352" lon="4.0697">
        <ele>1001.8</ele>
        <time>2022-06-09T16:15:20Z</time>
      </trkpt>
      <trkpt lat="44.82352" lon="4.06969">
        <ele>1001.8</ele>
        <time>2022-06-09T16:15:21Z</time>
      </trkpt>
      <trkpt lat="44.82351" lon="4.06967">
        <ele>1001.8</ele>
        <time>2022-06-09T16:15:22Z</time>
      </trkpt>
      <trkpt lat="44.82351" lon="4.06965">
        <ele>1001.7</ele>
        <time>2022-06-09T16:15:24Z</time>
      </trkpt>
      <trkpt lat="44.8235" lon="4.06963">
        <ele>1001.7</ele>
        <time>2022-06-09T16:15:25Z</time>
      </trkpt>
      <trkpt lat="44.8235" lon="4.06962">
        <ele>1001.7</ele>
        <time>2022-06-09T16:15:27Z</time>
      </trkpt>
      <trkpt lat="44.8235" lon="4.06961">
        <ele>1001.7</ele>
        <time>2022-06-09T16:15:28Z</time>
      </trkpt>
      <trkpt lat="44.8235" lon="4.06959">
        <ele>1001.7</ele>
        <time>2022-06-09T16:15:29Z</time>
      </trkpt>
      <trkpt lat="44.82349" lon="4.06956">
        <ele>1001.7</ele>
        <time>2022-06-09T16:15:30Z</time>
      </trkpt>
      <trkpt lat="44.82349" lon="4.06955">
        <ele>1001.7</ele>
        <time>2022-06-09T16:15:32Z</time>
      </trkpt>
      <trkpt lat="44.82349" lon="4.06954">
        <ele>1001.7</ele>
        <time>2022-06-09T16:15:33Z</time>
      </trkpt>
      <trkpt lat="44.82349" lon="4.06953">
        <ele>1001.7</ele>
        <time>2022-06-09T16:15:34Z</time>
      </trkpt>
      <trkpt lat="44.82348" lon="4.0695">
        <ele>1001.7</ele>
        <time>2022-06-09T16:15:36Z</time>
      </trkpt>
      <trkpt lat="44.82347" lon="4.06946">
        <ele>1001.8</ele>
        <time>2022-06-09T16:15:37Z</time>
      </trkpt>
      <trkpt lat="44.82347" lon="4.06945">
        <ele>1001.8</ele>
        <time>2022-06-09T16:15:38Z</time>
      </trkpt>
      <trkpt lat="44.82347" lon="4.06943">
        <ele>1001.8</ele>
        <time>2022-06-09T16:15:40Z</time>
      </trkpt>
      <trkpt lat="44.82346" lon="4.06941">
        <ele>1001.8</ele>
        <time>2022-06-09T16:15:41Z</time>
      </trkpt>
      <trkpt lat="44.82346" lon="4.06939">
        <ele>1001.8</ele>
        <time>2022-06-09T16:15:42Z</time>
      </trkpt>
      <trkpt lat="44.82345" lon="4.06937">
        <ele>1001.9</ele>
        <time>2022-06-09T16:15:43Z</time>
      </trkpt>
      <trkpt lat="44.82345" lon="4.06935">
        <ele>1001.9</ele>
        <time>2022-06-09T16:15:45Z</time>
      </trkpt>
      <trkpt lat="44.82344" lon="4.06933">
        <ele>1002</ele>
        <time>2022-06-09T16:15:46Z</time>
      </trkpt>
      <trkpt lat="44.82344" lon="4.06931">
        <ele>1002</ele>
        <time>2022-06-09T16:15:47Z</time>
      </trkpt>
      <trkpt lat="44.82344" lon="4.06929">
        <ele>1002</ele>
        <time>2022-06-09T16:15:49Z</time>
      </trkpt>
      <trkpt lat="44.82343" lon="4.06928">
        <ele>1002.1</ele>
        <time>2022-06-09T16:15:50Z</time>
      </trkpt>
      <trkpt lat="44.82343" lon="4.06926">
        <ele>1002.1</ele>
        <time>2022-06-09T16:15:51Z</time>
      </trkpt>
      <trkpt lat="44.82342" lon="4.06924">
        <ele>1002.2</ele>
        <time>2022-06-09T16:15:52Z</time>
      </trkpt>
      <trkpt lat="44.82342" lon="4.06922">
        <ele>1002.2</ele>
        <time>2022-06-09T16:15:54Z</time>
      </trkpt>
      <trkpt lat="44.82341" lon="4.06918">
        <ele>1002.3</ele>
        <time>2022-06-09T16:15:55Z</time>
      </trkpt>
      <trkpt lat="44.82341" lon="4.06917">
        <ele>1002.5</ele>
        <time>2022-06-09T16:15:57Z</time>
      </trkpt>
      <trkpt lat="44.82341" lon="4.06915">
        <ele>1002.5</ele>
        <time>2022-06-09T16:15:58Z</time>
      </trkpt>
      <trkpt lat="44.82341" lon="4.06913">
        <ele>1002.5</ele>
        <time>2022-06-09T16:16:00Z</time>
      </trkpt>
      <trkpt lat="44.8234" lon="4.0691">
        <ele>1002.5</ele>
        <time>2022-06-09T16:16:02Z</time>
      </trkpt>
      <trkpt lat="44.8234" lon="4.06908">
        <ele>1002.5</ele>
        <time>2022-06-09T16:16:03Z</time>
      </trkpt>
      <trkpt lat="44.82339" lon="4.06906">
        <ele>1002.6</ele>
        <time>2022-06-09T16:16:04Z</time>
      </trkpt>
      <trkpt lat="44.82339" lon="4.06904">
        <ele>1002.6</ele>
        <time>2022-06-09T16:16:05Z</time>
      </trkpt>
      <trkpt lat="44.82338" lon="4.06902">
        <ele>1002.6</ele>
        <time>2022-06-09T16:16:07Z</time>
      </trkpt>
      <trkpt lat="44.82337" lon="4.06901">
        <ele>1002.6</ele>
        <time>2022-06-09T16:16:08Z</time>
      </trkpt>
      <trkpt lat="44.82336" lon="4.06899">
        <ele>1002.6</ele>
        <time>2022-06-09T16:16:09Z</time>
      </trkpt>
      <trkpt lat="44.82335" lon="4.06898">
        <ele>1002.6</ele>
        <time>2022-06-09T16:16:10Z</time>
      </trkpt>
      <trkpt lat="44.82334" lon="4.06896">
        <ele>1002.6</ele>
        <time>2022-06-09T16:16:11Z</time>
      </trkpt>
      <trkpt lat="44.82333" lon="4.06895">
        <ele>1002.6</ele>
        <time>2022-06-09T16:16:13Z</time>
      </trkpt>
      <trkpt lat="44.82333" lon="4.06894">
        <ele>1002.6</ele>
        <time>2022-06-09T16:16:14Z</time>
      </trkpt>
      <trkpt lat="44.82332" lon="4.06892">
        <ele>1002.7</ele>
        <time>2022-06-09T16:16:15Z</time>
      </trkpt>
      <trkpt lat="44.82331" lon="4.0689">
        <ele>1002.7</ele>
        <time>2022-06-09T16:16:16Z</time>
      </trkpt>
      <trkpt lat="44.8233" lon="4.06888">
        <ele>1002.7</ele>
        <time>2022-06-09T16:16:17Z</time>
      </trkpt>
      <trkpt lat="44.82329" lon="4.06887">
        <ele>1002.7</ele>
        <time>2022-06-09T16:16:18Z</time>
      </trkpt>
      <trkpt lat="44.82328" lon="4.06886">
        <ele>1002.7</ele>
        <time>2022-06-09T16:16:20Z</time>
      </trkpt>
      <trkpt lat="44.82327" lon="4.06884">
        <ele>1002.7</ele>
        <time>2022-06-09T16:16:21Z</time>
      </trkpt>
      <trkpt lat="44.82326" lon="4.06882">
        <ele>1002.7</ele>
        <time>2022-06-09T16:16:22Z</time>
      </trkpt>
      <trkpt lat="44.82325" lon="4.0688">
        <ele>1002.7</ele>
        <time>2022-06-09T16:16:24Z</time>
      </trkpt>
      <trkpt lat="44.82324" lon="4.06878">
        <ele>1002.7</ele>
        <time>2022-06-09T16:16:26Z</time>
      </trkpt>
      <trkpt lat="44.82324" lon="4.06877">
        <ele>1002.7</ele>
        <time>2022-06-09T16:16:27Z</time>
      </trkpt>
      <trkpt lat="44.82323" lon="4.06876">
        <ele>1002.7</ele>
        <time>2022-06-09T16:16:28Z</time>
      </trkpt>
      <trkpt lat="44.82321" lon="4.06873">
        <ele>1002.7</ele>
        <time>2022-06-09T16:16:30Z</time>
      </trkpt>
      <trkpt lat="44.82321" lon="4.06872">
        <ele>1002.7</ele>
        <time>2022-06-09T16:16:31Z</time>
      </trkpt>
      <trkpt lat="44.82319" lon="4.06871">
        <ele>1002.7</ele>
        <time>2022-06-09T16:16:32Z</time>
      </trkpt>
      <trkpt lat="44.82319" lon="4.06869">
        <ele>1002.7</ele>
        <time>2022-06-09T16:16:34Z</time>
      </trkpt>
      <trkpt lat="44.82318" lon="4.06867">
        <ele>1002.7</ele>
        <time>2022-06-09T16:16:35Z</time>
      </trkpt>
      <trkpt lat="44.82317" lon="4.06865">
        <ele>1002.7</ele>
        <time>2022-06-09T16:16:37Z</time>
      </trkpt>
      <trkpt lat="44.82316" lon="4.06864">
        <ele>1002.8</ele>
        <time>2022-06-09T16:16:38Z</time>
      </trkpt>
      <trkpt lat="44.82315" lon="4.06863">
        <ele>1002.8</ele>
        <time>2022-06-09T16:16:40Z</time>
      </trkpt>
      <trkpt lat="44.82314" lon="4.06862">
        <ele>1002.8</ele>
        <time>2022-06-09T16:16:41Z</time>
      </trkpt>
      <trkpt lat="44.82314" lon="4.06862">
        <ele>1002.8</ele>
        <time>2022-06-09T16:16:42Z</time>
      </trkpt>
      <trkpt lat="44.82313" lon="4.06861">
        <ele>1002.8</ele>
        <time>2022-06-09T16:16:43Z</time>
      </trkpt>
      <trkpt lat="44.82312" lon="4.0686">
        <ele>1002.8</ele>
        <time>2022-06-09T16:16:44Z</time>
      </trkpt>
      <trkpt lat="44.82311" lon="4.06857">
        <ele>1002.8</ele>
        <time>2022-06-09T16:16:45Z</time>
      </trkpt>
      <trkpt lat="44.82311" lon="4.06856">
        <ele>1002.8</ele>
        <time>2022-06-09T16:16:47Z</time>
      </trkpt>
      <trkpt lat="44.8231" lon="4.06855">
        <ele>1002.8</ele>
        <time>2022-06-09T16:16:48Z</time>
      </trkpt>
      <trkpt lat="44.82309" lon="4.06854">
        <ele>1002.8</ele>
        <time>2022-06-09T16:16:49Z</time>
      </trkpt>
      <trkpt lat="44.82308" lon="4.06853">
        <ele>1002.8</ele>
        <time>2022-06-09T16:16:50Z</time>
      </trkpt>
      <trkpt lat="44.82307" lon="4.06852">
        <ele>1002.8</ele>
        <time>2022-06-09T16:16:51Z</time>
      </trkpt>
      <trkpt lat="44.82306" lon="4.06851">
        <ele>1002.8</ele>
        <time>2022-06-09T16:16:52Z</time>
      </trkpt>
      <trkpt lat="44.82305" lon="4.0685">
        <ele>1002.8</ele>
        <time>2022-06-09T16:16:53Z</time>
      </trkpt>
      <trkpt lat="44.82304" lon="4.06849">
        <ele>1002.8</ele>
        <time>2022-06-09T16:16:54Z</time>
      </trkpt>
      <trkpt lat="44.82303" lon="4.06848">
        <ele>1002.8</ele>
        <time>2022-06-09T16:16:55Z</time>
      </trkpt>
      <trkpt lat="44.82303" lon="4.06848">
        <ele>1002.8</ele>
        <time>2022-06-09T16:16:56Z</time>
      </trkpt>
      <trkpt lat="44.82302" lon="4.06847">
        <ele>1002.8</ele>
        <time>2022-06-09T16:16:57Z</time>
      </trkpt>
      <trkpt lat="44.82301" lon="4.06846">
        <ele>1002.8</ele>
        <time>2022-06-09T16:16:58Z</time>
      </trkpt>
      <trkpt lat="44.823" lon="4.06845">
        <ele>1002.8</ele>
        <time>2022-06-09T16:16:59Z</time>
      </trkpt>
      <trkpt lat="44.82299" lon="4.06844">
        <ele>1002.9</ele>
        <time>2022-06-09T16:17:00Z</time>
      </trkpt>
      <trkpt lat="44.82298" lon="4.06843">
        <ele>1002.9</ele>
        <time>2022-06-09T16:17:01Z</time>
      </trkpt>
      <trkpt lat="44.82297" lon="4.06841">
        <ele>1002.9</ele>
        <time>2022-06-09T16:17:03Z</time>
      </trkpt>
      <trkpt lat="44.82296" lon="4.06839">
        <ele>1002.9</ele>
        <time>2022-06-09T16:17:04Z</time>
      </trkpt>
      <trkpt lat="44.82295" lon="4.06838">
        <ele>1002.9</ele>
        <time>2022-06-09T16:17:05Z</time>
      </trkpt>
      <trkpt lat="44.82294" lon="4.06836">
        <ele>1002.9</ele>
        <time>2022-06-09T16:17:07Z</time>
      </trkpt>
      <trkpt lat="44.82293" lon="4.06834">
        <ele>1002.9</ele>
        <time>2022-06-09T16:17:08Z</time>
      </trkpt>
      <trkpt lat="44.82291" lon="4.06833">
        <ele>1002.9</ele>
        <time>2022-06-09T16:17:10Z</time>
      </trkpt>
      <trkpt lat="44.8229" lon="4.06832">
        <ele>1003</ele>
        <time>2022-06-09T16:17:11Z</time>
      </trkpt>
      <trkpt lat="44.82289" lon="4.06831">
        <ele>1003</ele>
        <time>2022-06-09T16:17:13Z</time>
      </trkpt>
      <trkpt lat="44.82286" lon="4.0683">
        <ele>1003</ele>
        <time>2022-06-09T16:17:15Z</time>
      </trkpt>
      <trkpt lat="44.82286" lon="4.0683">
        <ele>1003</ele>
        <time>2022-06-09T16:17:16Z</time>
      </trkpt>
      <trkpt lat="44.82284" lon="4.06829">
        <ele>1003</ele>
        <time>2022-06-09T16:17:17Z</time>
      </trkpt>
      <trkpt lat="44.82283" lon="4.06828">
        <ele>1003</ele>
        <time>2022-06-09T16:17:19Z</time>
      </trkpt>
      <trkpt lat="44.82283" lon="4.06827">
        <ele>1003</ele>
        <time>2022-06-09T16:17:20Z</time>
      </trkpt>
      <trkpt lat="44.82282" lon="4.06827">
        <ele>1003</ele>
        <time>2022-06-09T16:17:21Z</time>
      </trkpt>
      <trkpt lat="44.82282" lon="4.06828">
        <ele>1003.1</ele>
        <time>2022-06-09T16:17:22Z</time>
      </trkpt>
      <trkpt lat="44.82282" lon="4.0683">
        <ele>1003.1</ele>
        <time>2022-06-09T16:17:23Z</time>
      </trkpt>
      <trkpt lat="44.82283" lon="4.06831">
        <ele>1003.1</ele>
        <time>2022-06-09T16:17:24Z</time>
      </trkpt>
      <trkpt lat="44.82284" lon="4.06832">
        <ele>1003.1</ele>
        <time>2022-06-09T16:17:25Z</time>
      </trkpt>
      <trkpt lat="44.82285" lon="4.06833">
        <ele>1003.1</ele>
        <time>2022-06-09T16:17:27Z</time>
      </trkpt>
      <trkpt lat="44.82285" lon="4.06833">
        <ele>1003.1</ele>
        <time>2022-06-09T16:17:28Z</time>
      </trkpt>
      <trkpt lat="44.82287" lon="4.06834">
        <ele>1003.2</ele>
        <time>2022-06-09T16:17:29Z</time>
      </trkpt>
      <trkpt lat="44.82288" lon="4.06835">
        <ele>1003.2</ele>
        <time>2022-06-09T16:17:30Z</time>
      </trkpt>
      <trkpt lat="44.82289" lon="4.06836">
        <ele>1003.2</ele>
        <time>2022-06-09T16:17:31Z</time>
      </trkpt>
      <trkpt lat="44.82289" lon="4.06837">
        <ele>1003.2</ele>
        <time>2022-06-09T16:17:33Z</time>
      </trkpt>
      <trkpt lat="44.8229" lon="4.06838">
        <ele>1003.2</ele>
        <time>2022-06-09T16:17:34Z</time>
      </trkpt>
      <trkpt lat="44.82291" lon="4.06839">
        <ele>1003.2</ele>
        <time>2022-06-09T16:17:35Z</time>
      </trkpt>
      <trkpt lat="44.82292" lon="4.0684">
        <ele>1003.2</ele>
        <time>2022-06-09T16:17:36Z</time>
      </trkpt>
      <trkpt lat="44.82293" lon="4.06841">
        <ele>1003.2</ele>
        <time>2022-06-09T16:17:37Z</time>
      </trkpt>
      <trkpt lat="44.82294" lon="4.06842">
        <ele>1003.1</ele>
        <time>2022-06-09T16:17:38Z</time>
      </trkpt>
      <trkpt lat="44.82295" lon="4.06843">
        <ele>1003.1</ele>
        <time>2022-06-09T16:17:39Z</time>
      </trkpt>
      <trkpt lat="44.82295" lon="4.06844">
        <ele>1003.1</ele>
        <time>2022-06-09T16:17:40Z</time>
      </trkpt>
      <trkpt lat="44.82297" lon="4.06846">
        <ele>1003.1</ele>
        <time>2022-06-09T16:17:41Z</time>
      </trkpt>
      <trkpt lat="44.82298" lon="4.06846">
        <ele>1003.1</ele>
        <time>2022-06-09T16:17:42Z</time>
      </trkpt>
      <trkpt lat="44.823" lon="4.06847">
        <ele>1003</ele>
        <time>2022-06-09T16:17:43Z</time>
      </trkpt>
      <trkpt lat="44.82301" lon="4.06848">
        <ele>1003</ele>
        <time>2022-06-09T16:17:44Z</time>
      </trkpt>
      <trkpt lat="44.82303" lon="4.0685">
        <ele>1003</ele>
        <time>2022-06-09T16:17:45Z</time>
      </trkpt>
      <trkpt lat="44.82304" lon="4.06851">
        <ele>1003</ele>
        <time>2022-06-09T16:17:47Z</time>
      </trkpt>
      <trkpt lat="44.82304" lon="4.06852">
        <ele>1003</ele>
        <time>2022-06-09T16:17:48Z</time>
      </trkpt>
      <trkpt lat="44.82305" lon="4.06853">
        <ele>1002.9</ele>
        <time>2022-06-09T16:17:49Z</time>
      </trkpt>
      <trkpt lat="44.82307" lon="4.06855">
        <ele>1002.9</ele>
        <time>2022-06-09T16:17:51Z</time>
      </trkpt>
      <trkpt lat="44.82309" lon="4.06857">
        <ele>1002.9</ele>
        <time>2022-06-09T16:17:52Z</time>
      </trkpt>
      <trkpt lat="44.8231" lon="4.06858">
        <ele>1002.9</ele>
        <time>2022-06-09T16:17:54Z</time>
      </trkpt>
      <trkpt lat="44.82311" lon="4.06859">
        <ele>1002.9</ele>
        <time>2022-06-09T16:17:55Z</time>
      </trkpt>
      <trkpt lat="44.82312" lon="4.0686">
        <ele>1002.9</ele>
        <time>2022-06-09T16:17:56Z</time>
      </trkpt>
      <trkpt lat="44.82312" lon="4.0686">
        <ele>1002.9</ele>
        <time>2022-06-09T16:17:57Z</time>
      </trkpt>
      <trkpt lat="44.82314" lon="4.06862">
        <ele>1002.8</ele>
        <time>2022-06-09T16:17:59Z</time>
      </trkpt>
      <trkpt lat="44.82315" lon="4.06864">
        <ele>1002.8</ele>
        <time>2022-06-09T16:18:00Z</time>
      </trkpt>
      <trkpt lat="44.82315" lon="4.06866">
        <ele>1002.8</ele>
        <time>2022-06-09T16:18:01Z</time>
      </trkpt>
      <trkpt lat="44.82316" lon="4.06867">
        <ele>1002.8</ele>
        <time>2022-06-09T16:18:02Z</time>
      </trkpt>
      <trkpt lat="44.82318" lon="4.06869">
        <ele>1002.8</ele>
        <time>2022-06-09T16:18:03Z</time>
      </trkpt>
      <trkpt lat="44.82319" lon="4.0687">
        <ele>1002.8</ele>
        <time>2022-06-09T16:18:04Z</time>
      </trkpt>
      <trkpt lat="44.82321" lon="4.06871">
        <ele>1002.8</ele>
        <time>2022-06-09T16:18:06Z</time>
      </trkpt>
      <trkpt lat="44.82321" lon="4.06872">
        <ele>1002.8</ele>
        <time>2022-06-09T16:18:07Z</time>
      </trkpt>
      <trkpt lat="44.82322" lon="4.06874">
        <ele>1002.8</ele>
        <time>2022-06-09T16:18:08Z</time>
      </trkpt>
      <trkpt lat="44.82323" lon="4.06875">
        <ele>1002.8</ele>
        <time>2022-06-09T16:18:09Z</time>
      </trkpt>
      <trkpt lat="44.82323" lon="4.06876">
        <ele>1002.8</ele>
        <time>2022-06-09T16:18:10Z</time>
      </trkpt>
      <trkpt lat="44.82324" lon="4.06877">
        <ele>1002.8</ele>
        <time>2022-06-09T16:18:11Z</time>
      </trkpt>
      <trkpt lat="44.82325" lon="4.06879">
        <ele>1002.7</ele>
        <time>2022-06-09T16:18:12Z</time>
      </trkpt>
      <trkpt lat="44.82328" lon="4.06882">
        <ele>1002.7</ele>
        <time>2022-06-09T16:18:14Z</time>
      </trkpt>
      <trkpt lat="44.82329" lon="4.06883">
        <ele>1002.7</ele>
        <time>2022-06-09T16:18:16Z</time>
      </trkpt>
      <trkpt lat="44.8233" lon="4.06884">
        <ele>1002.7</ele>
        <time>2022-06-09T16:18:17Z</time>
      </trkpt>
      <trkpt lat="44.82331" lon="4.06886">
        <ele>1002.7</ele>
        <time>2022-06-09T16:18:18Z</time>
      </trkpt>
      <trkpt lat="44.82331" lon="4.06886">
        <ele>1002.7</ele>
        <time>2022-06-09T16:18:19Z</time>
      </trkpt>
      <trkpt lat="44.82333" lon="4.06889">
        <ele>1002.7</ele>
        <time>2022-06-09T16:18:20Z</time>
      </trkpt>
      <trkpt lat="44.82334" lon="4.0689">
        <ele>1002.7</ele>
        <time>2022-06-09T16:18:22Z</time>
      </trkpt>
      <trkpt lat="44.82335" lon="4.06891">
        <ele>1002.7</ele>
        <time>2022-06-09T16:18:23Z</time>
      </trkpt>
      <trkpt lat="44.82336" lon="4.06892">
        <ele>1002.7</ele>
        <time>2022-06-09T16:18:24Z</time>
      </trkpt>
      <trkpt lat="44.82337" lon="4.06895">
        <ele>1002.7</ele>
        <time>2022-06-09T16:18:25Z</time>
      </trkpt>
      <trkpt lat="44.82337" lon="4.06896">
        <ele>1002.7</ele>
        <time>2022-06-09T16:18:26Z</time>
      </trkpt>
      <trkpt lat="44.82338" lon="4.06897">
        <ele>1002.7</ele>
        <time>2022-06-09T16:18:27Z</time>
      </trkpt>
      <trkpt lat="44.8234" lon="4.06899">
        <ele>1002.6</ele>
        <time>2022-06-09T16:18:29Z</time>
      </trkpt>
      <trkpt lat="44.8234" lon="4.069">
        <ele>1002.6</ele>
        <time>2022-06-09T16:18:30Z</time>
      </trkpt>
      <trkpt lat="44.82341" lon="4.06901">
        <ele>1002.6</ele>
        <time>2022-06-09T16:18:31Z</time>
      </trkpt>
      <trkpt lat="44.82342" lon="4.06901">
        <ele>1002.6</ele>
        <time>2022-06-09T16:18:32Z</time>
      </trkpt>
      <trkpt lat="44.82342" lon="4.06901">
        <ele>1002.6</ele>
        <time>2022-06-09T16:18:33Z</time>
      </trkpt>
      <trkpt lat="44.82343" lon="4.06902">
        <ele>1002.6</ele>
        <time>2022-06-09T16:18:34Z</time>
      </trkpt>
      <trkpt lat="44.82343" lon="4.06902">
        <ele>1002.6</ele>
        <time>2022-06-09T16:18:35Z</time>
      </trkpt>
      <trkpt lat="44.82344" lon="4.06902">
        <ele>1002.6</ele>
        <time>2022-06-09T16:18:36Z</time>
      </trkpt>
      <trkpt lat="44.82344" lon="4.06902">
        <ele>1002.6</ele>
        <time>2022-06-09T16:18:37Z</time>
      </trkpt>
      <trkpt lat="44.82345" lon="4.06902">
        <ele>1002.6</ele>
        <time>2022-06-09T16:18:38Z</time>
      </trkpt>
      <trkpt lat="44.82345" lon="4.06903">
        <ele>1002.6</ele>
        <time>2022-06-09T16:18:39Z</time>
      </trkpt>
      <trkpt lat="44.82346" lon="4.06903">
        <ele>1002.6</ele>
        <time>2022-06-09T16:18:40Z</time>
      </trkpt>
      <trkpt lat="44.82346" lon="4.06903">
        <ele>1002.6</ele>
        <time>2022-06-09T16:18:41Z</time>
      </trkpt>
      <trkpt lat="44.82347" lon="4.06904">
        <ele>1002.6</ele>
        <time>2022-06-09T16:18:42Z</time>
      </trkpt>
      <trkpt lat="44.82349" lon="4.06903">
        <ele>1002.5</ele>
        <time>2022-06-09T16:18:43Z</time>
      </trkpt>
      <trkpt lat="44.8235" lon="4.06903">
        <ele>1002.5</ele>
        <time>2022-06-09T16:18:45Z</time>
      </trkpt>
      <trkpt lat="44.82349" lon="4.06903">
        <ele>1002.5</ele>
        <time>2022-06-09T16:18:46Z</time>
      </trkpt>
      <trkpt lat="44.82349" lon="4.06903">
        <ele>1002.5</ele>
        <time>2022-06-09T16:18:48Z</time>
      </trkpt>
      <trkpt lat="44.82349" lon="4.06903">
        <ele>1002.5</ele>
        <time>2022-06-09T16:18:49Z</time>
      </trkpt>
      <trkpt lat="44.8235" lon="4.06904">
        <ele>1002.5</ele>
        <time>2022-06-09T16:18:50Z</time>
      </trkpt>
      <trkpt lat="44.8235" lon="4.06904">
        <ele>1002.5</ele>
        <time>2022-06-09T16:18:51Z</time>
      </trkpt>
      <trkpt lat="44.82351" lon="4.06904">
        <ele>1002.5</ele>
        <time>2022-06-09T16:18:52Z</time>
      </trkpt>
      <trkpt lat="44.82351" lon="4.06905">
        <ele>1002.5</ele>
        <time>2022-06-09T16:18:53Z</time>
      </trkpt>
      <trkpt lat="44.82351" lon="4.06905">
        <ele>1002.5</ele>
        <time>2022-06-09T16:18:54Z</time>
      </trkpt>
      <trkpt lat="44.82352" lon="4.06905">
        <ele>1002.5</ele>
        <time>2022-06-09T16:18:55Z</time>
      </trkpt>
      <trkpt lat="44.82352" lon="4.06907">
        <ele>1002.5</ele>
        <time>2022-06-09T16:18:56Z</time>
      </trkpt>
      <trkpt lat="44.82356" lon="4.06911">
        <ele>1002.4</ele>
        <time>2022-06-09T16:18:58Z</time>
      </trkpt>
      <trkpt lat="44.82357" lon="4.06913">
        <ele>1002.3</ele>
        <time>2022-06-09T16:18:59Z</time>
      </trkpt>
      <trkpt lat="44.82358" lon="4.06914">
        <ele>1002.2</ele>
        <time>2022-06-09T16:19:00Z</time>
      </trkpt>
      <trkpt lat="44.8236" lon="4.06919">
        <ele>1002.1</ele>
        <time>2022-06-09T16:19:02Z</time>
      </trkpt>
      <trkpt lat="44.82361" lon="4.06921">
        <ele>1002.1</ele>
        <time>2022-06-09T16:19:03Z</time>
      </trkpt>
      <trkpt lat="44.82362" lon="4.06925">
        <ele>1002</ele>
        <time>2022-06-09T16:19:04Z</time>
      </trkpt>
      <trkpt lat="44.82362" lon="4.06926">
        <ele>1002</ele>
        <time>2022-06-09T16:19:05Z</time>
      </trkpt>
      <trkpt lat="44.82363" lon="4.06929">
        <ele>1001.9</ele>
        <time>2022-06-09T16:19:06Z</time>
      </trkpt>
      <trkpt lat="44.82364" lon="4.06934">
        <ele>1001.8</ele>
        <time>2022-06-09T16:19:08Z</time>
      </trkpt>
      <trkpt lat="44.82363" lon="4.06938">
        <ele>1001.8</ele>
        <time>2022-06-09T16:19:10Z</time>
      </trkpt>
      <trkpt lat="44.82361" lon="4.06939">
        <ele>1001.8</ele>
        <time>2022-06-09T16:19:11Z</time>
      </trkpt>
      <trkpt lat="44.82361" lon="4.06939">
        <ele>1001.8</ele>
        <time>2022-06-09T16:19:13Z</time>
      </trkpt>
      <trkpt lat="44.82361" lon="4.06939">
        <ele>1001.8</ele>
        <time>2022-06-09T16:19:14Z</time>
      </trkpt>
      <trkpt lat="44.82361" lon="4.06939">
        <ele>1001.8</ele>
        <time>2022-06-09T16:19:15Z</time>
      </trkpt>
      <trkpt lat="44.82361" lon="4.06939">
        <ele>1001.8</ele>
        <time>2022-06-09T16:19:16Z</time>
      </trkpt>
      <trkpt lat="44.82361" lon="4.06939">
        <ele>1001.8</ele>
        <time>2022-06-09T16:19:17Z</time>
      </trkpt>
      <trkpt lat="44.82361" lon="4.06939">
        <ele>1001.8</ele>
        <time>2022-06-09T16:19:18Z</time>
      </trkpt>
      <trkpt lat="44.82361" lon="4.06939">
        <ele>1001.8</ele>
        <time>2022-06-09T16:19:19Z</time>
      </trkpt>
      <trkpt lat="44.82362" lon="4.06939">
        <ele>1001.8</ele>
        <time>2022-06-09T16:19:20Z</time>
      </trkpt>
      <trkpt lat="44.82362" lon="4.0694">
        <ele>1001.7</ele>
        <time>2022-06-09T16:19:21Z</time>
      </trkpt>
      <trkpt lat="44.82363" lon="4.06941">
        <ele>1001.7</ele>
        <time>2022-06-09T16:19:22Z</time>
      </trkpt>
      <trkpt lat="44.82364" lon="4.06942">
        <ele>1001.7</ele>
        <time>2022-06-09T16:19:23Z</time>
      </trkpt>
      <trkpt lat="44.82366" lon="4.06944">
        <ele>1001.7</ele>
        <time>2022-06-09T16:19:24Z</time>
      </trkpt>
      <trkpt lat="44.82367" lon="4.06946">
        <ele>1001.7</ele>
        <time>2022-06-09T16:19:25Z</time>
      </trkpt>
      <trkpt lat="44.82369" lon="4.0695">
        <ele>1001.7</ele>
        <time>2022-06-09T16:19:26Z</time>
      </trkpt>
      <trkpt lat="44.82369" lon="4.06951">
        <ele>1001.7</ele>
        <time>2022-06-09T16:19:27Z</time>
      </trkpt>
      <trkpt lat="44.82371" lon="4.06955">
        <ele>1001.8</ele>
        <time>2022-06-09T16:19:28Z</time>
      </trkpt>
      <trkpt lat="44.82373" lon="4.06959">
        <ele>1001.8</ele>
        <time>2022-06-09T16:19:30Z</time>
      </trkpt>
      <trkpt lat="44.82374" lon="4.0696">
        <ele>1001.8</ele>
        <time>2022-06-09T16:19:31Z</time>
      </trkpt>
      <trkpt lat="44.82375" lon="4.06967">
        <ele>1001.9</ele>
        <time>2022-06-09T16:19:32Z</time>
      </trkpt>
      <trkpt lat="44.82375" lon="4.06971">
        <ele>1002</ele>
        <time>2022-06-09T16:19:34Z</time>
      </trkpt>
      <trkpt lat="44.82375" lon="4.06972">
        <ele>1002</ele>
        <time>2022-06-09T16:19:35Z</time>
      </trkpt>
      <trkpt lat="44.82376" lon="4.06976">
        <ele>1002.1</ele>
        <time>2022-06-09T16:19:36Z</time>
      </trkpt>
      <trkpt lat="44.82376" lon="4.06978">
        <ele>1002.1</ele>
        <time>2022-06-09T16:19:37Z</time>
      </trkpt>
      <trkpt lat="44.82376" lon="4.0698">
        <ele>1002.2</ele>
        <time>2022-06-09T16:19:38Z</time>
      </trkpt>
      <trkpt lat="44.82376" lon="4.06984">
        <ele>1002.2</ele>
        <time>2022-06-09T16:19:39Z</time>
      </trkpt>
      <trkpt lat="44.82376" lon="4.06986">
        <ele>1002.3</ele>
        <time>2022-06-09T16:19:40Z</time>
      </trkpt>
      <trkpt lat="44.82376" lon="4.06991">
        <ele>1002.4</ele>
        <time>2022-06-09T16:19:42Z</time>
      </trkpt>
      <trkpt lat="44.82375" lon="4.06993">
        <ele>1002.4</ele>
        <time>2022-06-09T16:19:43Z</time>
      </trkpt>
      <trkpt lat="44.82374" lon="4.06998">
        <ele>1002.5</ele>
        <time>2022-06-09T16:19:44Z</time>
      </trkpt>
      <trkpt lat="44.82374" lon="4.06999">
        <ele>1002.5</ele>
        <time>2022-06-09T16:19:45Z</time>
      </trkpt>
      <trkpt lat="44.82374" lon="4.07002">
        <ele>1002.5</ele>
        <time>2022-06-09T16:19:46Z</time>
      </trkpt>
      <trkpt lat="44.82374" lon="4.07004">
        <ele>1002.5</ele>
        <time>2022-06-09T16:19:48Z</time>
      </trkpt>
      <trkpt lat="44.82373" lon="4.07007">
        <ele>1002.5</ele>
        <time>2022-06-09T16:19:49Z</time>
      </trkpt>
      <trkpt lat="44.82373" lon="4.0701">
        <ele>1002.5</ele>
        <time>2022-06-09T16:19:51Z</time>
      </trkpt>
      <trkpt lat="44.82373" lon="4.07015">
        <ele>1002.4</ele>
        <time>2022-06-09T16:19:52Z</time>
      </trkpt>
      <trkpt lat="44.82373" lon="4.07017">
        <ele>1002.4</ele>
        <time>2022-06-09T16:19:53Z</time>
      </trkpt>
      <trkpt lat="44.82373" lon="4.07022">
        <ele>1002.3</ele>
        <time>2022-06-09T16:19:55Z</time>
      </trkpt>
      <trkpt lat="44.82372" lon="4.07028">
        <ele>1002.2</ele>
        <time>2022-06-09T16:19:56Z</time>
      </trkpt>
      <trkpt lat="44.82372" lon="4.07034">
        <ele>1002</ele>
        <time>2022-06-09T16:19:58Z</time>
      </trkpt>
      <trkpt lat="44.82372" lon="4.07036">
        <ele>1002</ele>
        <time>2022-06-09T16:19:59Z</time>
      </trkpt>
      <trkpt lat="44.82372" lon="4.07038">
        <ele>1001.9</ele>
        <time>2022-06-09T16:20:00Z</time>
      </trkpt>
      <trkpt lat="44.82373" lon="4.07042">
        <ele>1001.8</ele>
        <time>2022-06-09T16:20:01Z</time>
      </trkpt>
      <trkpt lat="44.82373" lon="4.07045">
        <ele>1001.7</ele>
        <time>2022-06-09T16:20:02Z</time>
      </trkpt>
      <trkpt lat="44.82373" lon="4.07048">
        <ele>1001.6</ele>
        <time>2022-06-09T16:20:04Z</time>
      </trkpt>
      <trkpt lat="44.82373" lon="4.07051">
        <ele>1001.5</ele>
        <time>2022-06-09T16:20:05Z</time>
      </trkpt>
      <trkpt lat="44.82373" lon="4.07053">
        <ele>1001.4</ele>
        <time>2022-06-09T16:20:06Z</time>
      </trkpt>
      <trkpt lat="44.82372" lon="4.07057">
        <ele>1001.7</ele>
        <time>2022-06-09T16:20:07Z</time>
      </trkpt>
      <trkpt lat="44.82372" lon="4.07061">
        <ele>1001.9</ele>
        <time>2022-06-09T16:20:08Z</time>
      </trkpt>
      <trkpt lat="44.82373" lon="4.07067">
        <ele>1002.3</ele>
        <time>2022-06-09T16:20:09Z</time>
      </trkpt>
      <trkpt lat="44.82373" lon="4.07072">
        <ele>1002.6</ele>
        <time>2022-06-09T16:20:10Z</time>
      </trkpt>
      <trkpt lat="44.82374" lon="4.0708">
        <ele>1003.1</ele>
        <time>2022-06-09T16:20:11Z</time>
      </trkpt>
      <trkpt lat="44.82375" lon="4.07084">
        <ele>1003.3</ele>
        <time>2022-06-09T16:20:12Z</time>
      </trkpt>
      <trkpt lat="44.82377" lon="4.07088">
        <ele>1003.6</ele>
        <time>2022-06-09T16:20:14Z</time>
      </trkpt>
      <trkpt lat="44.82379" lon="4.07091">
        <ele>1003.5</ele>
        <time>2022-06-09T16:20:15Z</time>
      </trkpt>
      <trkpt lat="44.82381" lon="4.07095">
        <ele>1003.3</ele>
        <time>2022-06-09T16:20:16Z</time>
      </trkpt>
      <trkpt lat="44.82383" lon="4.07099">
        <ele>1003.2</ele>
        <time>2022-06-09T16:20:17Z</time>
      </trkpt>
      <trkpt lat="44.82384" lon="4.07103">
        <ele>1003</ele>
        <time>2022-06-09T16:20:18Z</time>
      </trkpt>
      <trkpt lat="44.82385" lon="4.07105">
        <ele>1003</ele>
        <time>2022-06-09T16:20:19Z</time>
      </trkpt>
      <trkpt lat="44.82383" lon="4.07112">
        <ele>1002.8</ele>
        <time>2022-06-09T16:20:21Z</time>
      </trkpt>
      <trkpt lat="44.82383" lon="4.07115">
        <ele>1002.7</ele>
        <time>2022-06-09T16:20:22Z</time>
      </trkpt>
      <trkpt lat="44.82383" lon="4.07117">
        <ele>1002.6</ele>
        <time>2022-06-09T16:20:23Z</time>
      </trkpt>
      <trkpt lat="44.82383" lon="4.07123">
        <ele>1002.4</ele>
        <time>2022-06-09T16:20:25Z</time>
      </trkpt>
      <trkpt lat="44.82383" lon="4.07125">
        <ele>1002.3</ele>
        <time>2022-06-09T16:20:26Z</time>
      </trkpt>
      <trkpt lat="44.82383" lon="4.07128">
        <ele>1002.2</ele>
        <time>2022-06-09T16:20:27Z</time>
      </trkpt>
      <trkpt lat="44.82383" lon="4.07132">
        <ele>1002.1</ele>
        <time>2022-06-09T16:20:29Z</time>
      </trkpt>
      <trkpt lat="44.82383" lon="4.07137">
        <ele>1001.9</ele>
        <time>2022-06-09T16:20:30Z</time>
      </trkpt>
      <trkpt lat="44.82383" lon="4.07139">
        <ele>1001.8</ele>
        <time>2022-06-09T16:20:31Z</time>
      </trkpt>
      <trkpt lat="44.82383" lon="4.07143">
        <ele>1001.7</ele>
        <time>2022-06-09T16:20:32Z</time>
      </trkpt>
      <trkpt lat="44.82384" lon="4.07146">
        <ele>1001.6</ele>
        <time>2022-06-09T16:20:34Z</time>
      </trkpt>
      <trkpt lat="44.82385" lon="4.07147">
        <ele>1001.6</ele>
        <time>2022-06-09T16:20:35Z</time>
      </trkpt>
      <trkpt lat="44.82386" lon="4.07148">
        <ele>1001.5</ele>
        <time>2022-06-09T16:20:36Z</time>
      </trkpt>
      <trkpt lat="44.82387" lon="4.07149">
        <ele>1001.5</ele>
        <time>2022-06-09T16:20:37Z</time>
      </trkpt>
      <trkpt lat="44.82388" lon="4.07149">
        <ele>1001.5</ele>
        <time>2022-06-09T16:20:38Z</time>
      </trkpt>
      <trkpt lat="44.82389" lon="4.07151">
        <ele>1001.4</ele>
        <time>2022-06-09T16:20:39Z</time>
      </trkpt>
      <trkpt lat="44.82389" lon="4.07152">
        <ele>1001.4</ele>
        <time>2022-06-09T16:20:40Z</time>
      </trkpt>
      <trkpt lat="44.82388" lon="4.07153">
        <ele>1001.4</ele>
        <time>2022-06-09T16:20:41Z</time>
      </trkpt>
      <trkpt lat="44.82387" lon="4.07156">
        <ele>1001.3</ele>
        <time>2022-06-09T16:20:42Z</time>
      </trkpt>
      <trkpt lat="44.82385" lon="4.0716">
        <ele>1001.2</ele>
        <time>2022-06-09T16:20:44Z</time>
      </trkpt>
      <trkpt lat="44.82384" lon="4.07162">
        <ele>1001.2</ele>
        <time>2022-06-09T16:20:45Z</time>
      </trkpt>
      <trkpt lat="44.82382" lon="4.07166">
        <ele>1001.1</ele>
        <time>2022-06-09T16:20:47Z</time>
      </trkpt>
      <trkpt lat="44.82382" lon="4.07167">
        <ele>1001.1</ele>
        <time>2022-06-09T16:20:48Z</time>
      </trkpt>
      <trkpt lat="44.82381" lon="4.07168">
        <ele>1001.1</ele>
        <time>2022-06-09T16:20:49Z</time>
      </trkpt>
      <trkpt lat="44.8238" lon="4.07171">
        <ele>1001.1</ele>
        <time>2022-06-09T16:20:50Z</time>
      </trkpt>
      <trkpt lat="44.8238" lon="4.07173">
        <ele>1001</ele>
        <time>2022-06-09T16:20:51Z</time>
      </trkpt>
      <trkpt lat="44.8238" lon="4.07175">
        <ele>1001</ele>
        <time>2022-06-09T16:20:52Z</time>
      </trkpt>
      <trkpt lat="44.82379" lon="4.0718">
        <ele>1001</ele>
        <time>2022-06-09T16:20:53Z</time>
      </trkpt>
      <trkpt lat="44.82379" lon="4.07182">
        <ele>1001</ele>
        <time>2022-06-09T16:20:54Z</time>
      </trkpt>
      <trkpt lat="44.8238" lon="4.07186">
        <ele>1001</ele>
        <time>2022-06-09T16:20:55Z</time>
      </trkpt>
      <trkpt lat="44.8238" lon="4.07187">
        <ele>1001</ele>
        <time>2022-06-09T16:20:56Z</time>
      </trkpt>
      <trkpt lat="44.82379" lon="4.07189">
        <ele>1001</ele>
        <time>2022-06-09T16:20:57Z</time>
      </trkpt>
      <trkpt lat="44.82378" lon="4.07192">
        <ele>1001</ele>
        <time>2022-06-09T16:20:59Z</time>
      </trkpt>
      <trkpt lat="44.82378" lon="4.07195">
        <ele>1001.1</ele>
        <time>2022-06-09T16:21:00Z</time>
      </trkpt>
      <trkpt lat="44.82378" lon="4.07198">
        <ele>1001.1</ele>
        <time>2022-06-09T16:21:02Z</time>
      </trkpt>
      <trkpt lat="44.82377" lon="4.07202">
        <ele>1001.2</ele>
        <time>2022-06-09T16:21:03Z</time>
      </trkpt>
      <trkpt lat="44.82376" lon="4.07206">
        <ele>1001.2</ele>
        <time>2022-06-09T16:21:04Z</time>
      </trkpt>
      <trkpt lat="44.82376" lon="4.07207">
        <ele>1001.2</ele>
        <time>2022-06-09T16:21:05Z</time>
      </trkpt>
      <trkpt lat="44.82376" lon="4.07208">
        <ele>1001.3</ele>
        <time>2022-06-09T16:21:06Z</time>
      </trkpt>
      <trkpt lat="44.82376" lon="4.0721">
        <ele>1001.3</ele>
        <time>2022-06-09T16:21:07Z</time>
      </trkpt>
      <trkpt lat="44.82376" lon="4.07213">
        <ele>1001.4</ele>
        <time>2022-06-09T16:21:09Z</time>
      </trkpt>
      <trkpt lat="44.82377" lon="4.07217">
        <ele>1001.5</ele>
        <time>2022-06-09T16:21:10Z</time>
      </trkpt>
      <trkpt lat="44.82377" lon="4.07219">
        <ele>1001.5</ele>
        <time>2022-06-09T16:21:11Z</time>
      </trkpt>
      <trkpt lat="44.82377" lon="4.07221">
        <ele>1001.6</ele>
        <time>2022-06-09T16:21:12Z</time>
      </trkpt>
      <trkpt lat="44.82377" lon="4.07223">
        <ele>1001.7</ele>
        <time>2022-06-09T16:21:13Z</time>
      </trkpt>
      <trkpt lat="44.82377" lon="4.07226">
        <ele>1001.7</ele>
        <time>2022-06-09T16:21:14Z</time>
      </trkpt>
      <trkpt lat="44.82376" lon="4.07227">
        <ele>1001.8</ele>
        <time>2022-06-09T16:21:16Z</time>
      </trkpt>
      <trkpt lat="44.82376" lon="4.07229">
        <ele>1001.8</ele>
        <time>2022-06-09T16:21:17Z</time>
      </trkpt>
      <trkpt lat="44.82376" lon="4.07229">
        <ele>1001.9</ele>
        <time>2022-06-09T16:21:18Z</time>
      </trkpt>
      <trkpt lat="44.82376" lon="4.07229">
        <ele>1001.9</ele>
        <time>2022-06-09T16:21:19Z</time>
      </trkpt>
      <trkpt lat="44.82376" lon="4.07229">
        <ele>1001.9</ele>
        <time>2022-06-09T16:21:20Z</time>
      </trkpt>
      <trkpt lat="44.82376" lon="4.07229">
        <ele>1001.9</ele>
        <time>2022-06-09T16:21:21Z</time>
      </trkpt>
      <trkpt lat="44.82376" lon="4.07229">
        <ele>1001.9</ele>
        <time>2022-06-09T16:21:22Z</time>
      </trkpt>
      <trkpt lat="44.82376" lon="4.0723">
        <ele>1001.9</ele>
        <time>2022-06-09T16:21:23Z</time>
      </trkpt>
      <trkpt lat="44.82376" lon="4.0723">
        <ele>1001.9</ele>
        <time>2022-06-09T16:21:24Z</time>
      </trkpt>
      <trkpt lat="44.82376" lon="4.0723">
        <ele>1001.9</ele>
        <time>2022-06-09T16:21:25Z</time>
      </trkpt>
      <trkpt lat="44.82376" lon="4.0723">
        <ele>1001.9</ele>
        <time>2022-06-09T16:21:26Z</time>
      </trkpt>
      <trkpt lat="44.82379" lon="4.07228">
        <ele>1002.1</ele>
        <time>2022-06-09T16:21:41Z</time>
      </trkpt>
      <trkpt lat="44.82382" lon="4.07225">
        <ele>1002.3</ele>
        <time>2022-06-09T16:21:42Z</time>
      </trkpt>
      <trkpt lat="44.82382" lon="4.07221">
        <ele>1002.4</ele>
        <time>2022-06-09T16:21:44Z</time>
      </trkpt>
      <trkpt lat="44.82382" lon="4.07218">
        <ele>1002.3</ele>
        <time>2022-06-09T16:21:45Z</time>
      </trkpt>
      <trkpt lat="44.82381" lon="4.07214">
        <ele>1002.1</ele>
        <time>2022-06-09T16:21:46Z</time>
      </trkpt>
      <trkpt lat="44.8238" lon="4.07207">
        <ele>1001.7</ele>
        <time>2022-06-09T16:21:47Z</time>
      </trkpt>
      <trkpt lat="44.82379" lon="4.07202">
        <ele>1001.6</ele>
        <time>2022-06-09T16:21:49Z</time>
      </trkpt>
      <trkpt lat="44.82379" lon="4.07194">
        <ele>1001.3</ele>
        <time>2022-06-09T16:21:50Z</time>
      </trkpt>
      <trkpt lat="44.82379" lon="4.07188">
        <ele>1001.1</ele>
        <time>2022-06-09T16:21:52Z</time>
      </trkpt>
      <trkpt lat="44.82379" lon="4.07182">
        <ele>1001.1</ele>
        <time>2022-06-09T16:21:53Z</time>
      </trkpt>
      <trkpt lat="44.8238" lon="4.07179">
        <ele>1001</ele>
        <time>2022-06-09T16:21:54Z</time>
      </trkpt>
      <trkpt lat="44.8238" lon="4.07176">
        <ele>1001</ele>
        <time>2022-06-09T16:21:56Z</time>
      </trkpt>
      <trkpt lat="44.82381" lon="4.07172">
        <ele>1001</ele>
        <time>2022-06-09T16:21:57Z</time>
      </trkpt>
      <trkpt lat="44.82381" lon="4.07166">
        <ele>1001</ele>
        <time>2022-06-09T16:21:58Z</time>
      </trkpt>
      <trkpt lat="44.82381" lon="4.07163">
        <ele>1001.1</ele>
        <time>2022-06-09T16:21:59Z</time>
      </trkpt>
      <trkpt lat="44.82381" lon="4.07159">
        <ele>1001.1</ele>
        <time>2022-06-09T16:22:01Z</time>
      </trkpt>
      <trkpt lat="44.8238" lon="4.07153">
        <ele>1001.2</ele>
        <time>2022-06-09T16:22:02Z</time>
      </trkpt>
      <trkpt lat="44.82381" lon="4.07147">
        <ele>1001.4</ele>
        <time>2022-06-09T16:22:03Z</time>
      </trkpt>
      <trkpt lat="44.8238" lon="4.07143">
        <ele>1001.5</ele>
        <time>2022-06-09T16:22:04Z</time>
      </trkpt>
      <trkpt lat="44.8238" lon="4.07138">
        <ele>1001.6</ele>
        <time>2022-06-09T16:22:05Z</time>
      </trkpt>
      <trkpt lat="44.8238" lon="4.07136">
        <ele>1001.7</ele>
        <time>2022-06-09T16:22:06Z</time>
      </trkpt>
      <trkpt lat="44.8238" lon="4.0713">
        <ele>1001.9</ele>
        <time>2022-06-09T16:22:08Z</time>
      </trkpt>
      <trkpt lat="44.8238" lon="4.07126">
        <ele>1002.1</ele>
        <time>2022-06-09T16:22:09Z</time>
      </trkpt>
      <trkpt lat="44.8238" lon="4.07121">
        <ele>1002.3</ele>
        <time>2022-06-09T16:22:11Z</time>
      </trkpt>
      <trkpt lat="44.82381" lon="4.07117">
        <ele>1002.5</ele>
        <time>2022-06-09T16:22:12Z</time>
      </trkpt>
      <trkpt lat="44.82381" lon="4.07113">
        <ele>1002.7</ele>
        <time>2022-06-09T16:22:13Z</time>
      </trkpt>
      <trkpt lat="44.8238" lon="4.07109">
        <ele>1002.5</ele>
        <time>2022-06-09T16:22:15Z</time>
      </trkpt>
      <trkpt lat="44.82378" lon="4.07106">
        <ele>1002.4</ele>
        <time>2022-06-09T16:22:16Z</time>
      </trkpt>
      <trkpt lat="44.82376" lon="4.07106">
        <ele>1002.3</ele>
        <time>2022-06-09T16:22:17Z</time>
      </trkpt>
      <trkpt lat="44.82375" lon="4.07107">
        <ele>1002.2</ele>
        <time>2022-06-09T16:22:18Z</time>
      </trkpt>
      <trkpt lat="44.82373" lon="4.07111">
        <ele>1002</ele>
        <time>2022-06-09T16:22:19Z</time>
      </trkpt>
      <trkpt lat="44.82372" lon="4.07116">
        <ele>1001.9</ele>
        <time>2022-06-09T16:22:20Z</time>
      </trkpt>
      <trkpt lat="44.82372" lon="4.07122">
        <ele>1001.7</ele>
        <time>2022-06-09T16:22:21Z</time>
      </trkpt>
      <trkpt lat="44.82372" lon="4.07129">
        <ele>1001.5</ele>
        <time>2022-06-09T16:22:22Z</time>
      </trkpt>
      <trkpt lat="44.82371" lon="4.07143">
        <ele>1001.2</ele>
        <time>2022-06-09T16:22:23Z</time>
      </trkpt>
      <trkpt lat="44.8237" lon="4.07151">
        <ele>1001.1</ele>
        <time>2022-06-09T16:22:25Z</time>
      </trkpt>
      <trkpt lat="44.82369" lon="4.07165">
        <ele>1001</ele>
        <time>2022-06-09T16:22:27Z</time>
      </trkpt>
      <trkpt lat="44.8237" lon="4.07172">
        <ele>1001.1</ele>
        <time>2022-06-09T16:22:28Z</time>
      </trkpt>
      <trkpt lat="44.8237" lon="4.07177">
        <ele>1001.1</ele>
        <time>2022-06-09T16:22:29Z</time>
      </trkpt>
      <trkpt lat="44.82371" lon="4.07181">
        <ele>1001.2</ele>
        <time>2022-06-09T16:22:30Z</time>
      </trkpt>
      <trkpt lat="44.82371" lon="4.07185">
        <ele>1001.3</ele>
        <time>2022-06-09T16:22:31Z</time>
      </trkpt>
      <trkpt lat="44.82369" lon="4.07189">
        <ele>1001.4</ele>
        <time>2022-06-09T16:22:32Z</time>
      </trkpt>
      <trkpt lat="44.82368" lon="4.07193">
        <ele>1001.5</ele>
        <time>2022-06-09T16:22:33Z</time>
      </trkpt>
      <trkpt lat="44.82368" lon="4.07198">
        <ele>1001.7</ele>
        <time>2022-06-09T16:22:34Z</time>
      </trkpt>
      <trkpt lat="44.82368" lon="4.072">
        <ele>1001.7</ele>
        <time>2022-06-09T16:22:35Z</time>
      </trkpt>
      <trkpt lat="44.82368" lon="4.07202">
        <ele>1001.8</ele>
        <time>2022-06-09T16:22:36Z</time>
      </trkpt>
      <trkpt lat="44.82368" lon="4.07204">
        <ele>1001.9</ele>
        <time>2022-06-09T16:22:37Z</time>
      </trkpt>
      <trkpt lat="44.82368" lon="4.07208">
        <ele>1002</ele>
        <time>2022-06-09T16:22:38Z</time>
      </trkpt>
      <trkpt lat="44.82368" lon="4.07209">
        <ele>1002.1</ele>
        <time>2022-06-09T16:22:39Z</time>
      </trkpt>
      <trkpt lat="44.82368" lon="4.07213">
        <ele>1002.3</ele>
        <time>2022-06-09T16:22:40Z</time>
      </trkpt>
      <trkpt lat="44.82368" lon="4.07215">
        <ele>1002.3</ele>
        <time>2022-06-09T16:22:41Z</time>
      </trkpt>
      <trkpt lat="44.82367" lon="4.07219">
        <ele>1002.5</ele>
        <time>2022-06-09T16:22:42Z</time>
      </trkpt>
      <trkpt lat="44.82367" lon="4.0722">
        <ele>1002.6</ele>
        <time>2022-06-09T16:22:43Z</time>
      </trkpt>
      <trkpt lat="44.82367" lon="4.07222">
        <ele>1002.6</ele>
        <time>2022-06-09T16:22:44Z</time>
      </trkpt>
      <trkpt lat="44.82367" lon="4.07224">
        <ele>1002.7</ele>
        <time>2022-06-09T16:22:45Z</time>
      </trkpt>
      <trkpt lat="44.82367" lon="4.07229">
        <ele>1002.9</ele>
        <time>2022-06-09T16:22:46Z</time>
      </trkpt>
      <trkpt lat="44.82367" lon="4.07231">
        <ele>1003</ele>
        <time>2022-06-09T16:22:47Z</time>
      </trkpt>
      <trkpt lat="44.82366" lon="4.07235">
        <ele>1003.2</ele>
        <time>2022-06-09T16:22:48Z</time>
      </trkpt>
      <trkpt lat="44.82366" lon="4.07237">
        <ele>1003.3</ele>
        <time>2022-06-09T16:22:49Z</time>
      </trkpt>
      <trkpt lat="44.82365" lon="4.07242">
        <ele>1003.5</ele>
        <time>2022-06-09T16:22:50Z</time>
      </trkpt>
      <trkpt lat="44.82365" lon="4.07245">
        <ele>1003.5</ele>
        <time>2022-06-09T16:22:51Z</time>
      </trkpt>
      <trkpt lat="44.82364" lon="4.07251">
        <ele>1003.7</ele>
        <time>2022-06-09T16:22:53Z</time>
      </trkpt>
      <trkpt lat="44.82363" lon="4.07256">
        <ele>1003.8</ele>
        <time>2022-06-09T16:22:54Z</time>
      </trkpt>
      <trkpt lat="44.82362" lon="4.0726">
        <ele>1003.9</ele>
        <time>2022-06-09T16:22:55Z</time>
      </trkpt>
      <trkpt lat="44.8236" lon="4.07266">
        <ele>1004.1</ele>
        <time>2022-06-09T16:22:56Z</time>
      </trkpt>
      <trkpt lat="44.8236" lon="4.07268">
        <ele>1004.2</ele>
        <time>2022-06-09T16:22:57Z</time>
      </trkpt>
      <trkpt lat="44.82358" lon="4.07272">
        <ele>1004.3</ele>
        <time>2022-06-09T16:22:59Z</time>
      </trkpt>
      <trkpt lat="44.82356" lon="4.07276">
        <ele>1004.5</ele>
        <time>2022-06-09T16:23:00Z</time>
      </trkpt>
      <trkpt lat="44.82355" lon="4.07279">
        <ele>1004.6</ele>
        <time>2022-06-09T16:23:01Z</time>
      </trkpt>
      <trkpt lat="44.82353" lon="4.07282">
        <ele>1004.7</ele>
        <time>2022-06-09T16:23:02Z</time>
      </trkpt>
      <trkpt lat="44.82352" lon="4.07284">
        <ele>1004.8</ele>
        <time>2022-06-09T16:23:03Z</time>
      </trkpt>
      <trkpt lat="44.8235" lon="4.07286">
        <ele>1004.9</ele>
        <time>2022-06-09T16:23:05Z</time>
      </trkpt>
      <trkpt lat="44.82348" lon="4.0729">
        <ele>1005</ele>
        <time>2022-06-09T16:23:06Z</time>
      </trkpt>
      <trkpt lat="44.82348" lon="4.07291">
        <ele>1005.1</ele>
        <time>2022-06-09T16:23:07Z</time>
      </trkpt>
      <trkpt lat="44.82346" lon="4.07295">
        <ele>1005.2</ele>
        <time>2022-06-09T16:23:08Z</time>
      </trkpt>
      <trkpt lat="44.82346" lon="4.07296">
        <ele>1005.3</ele>
        <time>2022-06-09T16:23:09Z</time>
      </trkpt>
      <trkpt lat="44.82344" lon="4.07298">
        <ele>1005.4</ele>
        <time>2022-06-09T16:23:10Z</time>
      </trkpt>
      <trkpt lat="44.82343" lon="4.07299">
        <ele>1005.4</ele>
        <time>2022-06-09T16:23:11Z</time>
      </trkpt>
      <trkpt lat="44.82343" lon="4.07299">
        <ele>1005.5</ele>
        <time>2022-06-09T16:23:12Z</time>
      </trkpt>
      <trkpt lat="44.82343" lon="4.07299">
        <ele>1005.5</ele>
        <time>2022-06-09T16:23:13Z</time>
      </trkpt>
      <trkpt lat="44.82342" lon="4.07299">
        <ele>1005.5</ele>
        <time>2022-06-09T16:23:14Z</time>
      </trkpt>
      <trkpt lat="44.82342" lon="4.07299">
        <ele>1005.5</ele>
        <time>2022-06-09T16:23:15Z</time>
      </trkpt>
      <trkpt lat="44.82342" lon="4.073">
        <ele>1005.4</ele>
        <time>2022-06-09T16:23:16Z</time>
      </trkpt>
      <trkpt lat="44.82342" lon="4.07301">
        <ele>1005.4</ele>
        <time>2022-06-09T16:23:17Z</time>
      </trkpt>
      <trkpt lat="44.82342" lon="4.07302">
        <ele>1005.4</ele>
        <time>2022-06-09T16:23:18Z</time>
      </trkpt>
      <trkpt lat="44.82343" lon="4.07303">
        <ele>1005.3</ele>
        <time>2022-06-09T16:23:19Z</time>
      </trkpt>
      <trkpt lat="44.82344" lon="4.07302">
        <ele>1005.3</ele>
        <time>2022-06-09T16:23:21Z</time>
      </trkpt>
      <trkpt lat="44.82346" lon="4.07301">
        <ele>1005.2</ele>
        <time>2022-06-09T16:23:22Z</time>
      </trkpt>
      <trkpt lat="44.82348" lon="4.07299">
        <ele>1005.1</ele>
        <time>2022-06-09T16:23:23Z</time>
      </trkpt>
      <trkpt lat="44.82349" lon="4.07298">
        <ele>1005.1</ele>
        <time>2022-06-09T16:23:24Z</time>
      </trkpt>
      <trkpt lat="44.8235" lon="4.07293">
        <ele>1004.9</ele>
        <time>2022-06-09T16:23:25Z</time>
      </trkpt>
      <trkpt lat="44.82351" lon="4.07291">
        <ele>1004.9</ele>
        <time>2022-06-09T16:23:26Z</time>
      </trkpt>
      <trkpt lat="44.82352" lon="4.07288">
        <ele>1004.7</ele>
        <time>2022-06-09T16:23:27Z</time>
      </trkpt>
      <trkpt lat="44.82355" lon="4.0728">
        <ele>1004.5</ele>
        <time>2022-06-09T16:23:28Z</time>
      </trkpt>
      <trkpt lat="44.82356" lon="4.07276">
        <ele>1004.3</ele>
        <time>2022-06-09T16:23:30Z</time>
      </trkpt>
      <trkpt lat="44.82358" lon="4.07272">
        <ele>1004.2</ele>
        <time>2022-06-09T16:23:31Z</time>
      </trkpt>
      <trkpt lat="44.82361" lon="4.07265">
        <ele>1004</ele>
        <time>2022-06-09T16:23:32Z</time>
      </trkpt>
      <trkpt lat="44.82363" lon="4.0726">
        <ele>1003.8</ele>
        <time>2022-06-09T16:23:34Z</time>
      </trkpt>
      <trkpt lat="44.82364" lon="4.07255">
        <ele>1003.7</ele>
        <time>2022-06-09T16:23:35Z</time>
      </trkpt>
      <trkpt lat="44.82365" lon="4.0725">
        <ele>1003.6</ele>
        <time>2022-06-09T16:23:36Z</time>
      </trkpt>
      <trkpt lat="44.82367" lon="4.07245">
        <ele>1003.5</ele>
        <time>2022-06-09T16:23:38Z</time>
      </trkpt>
      <trkpt lat="44.82367" lon="4.07239">
        <ele>1003.4</ele>
        <time>2022-06-09T16:23:39Z</time>
      </trkpt>
      <trkpt lat="44.82368" lon="4.07232">
        <ele>1003</ele>
        <time>2022-06-09T16:23:40Z</time>
      </trkpt>
      <trkpt lat="44.82368" lon="4.07226">
        <ele>1002.8</ele>
        <time>2022-06-09T16:23:42Z</time>
      </trkpt>
      <trkpt lat="44.82368" lon="4.07224">
        <ele>1002.7</ele>
        <time>2022-06-09T16:23:43Z</time>
      </trkpt>
      <trkpt lat="44.82368" lon="4.07222">
        <ele>1002.6</ele>
        <time>2022-06-09T16:23:44Z</time>
      </trkpt>
      <trkpt lat="44.82368" lon="4.07217">
        <ele>1002.3</ele>
        <time>2022-06-09T16:23:45Z</time>
      </trkpt>
      <trkpt lat="44.82369" lon="4.07214">
        <ele>1002.2</ele>
        <time>2022-06-09T16:23:46Z</time>
      </trkpt>
      <trkpt lat="44.82369" lon="4.07212">
        <ele>1002.1</ele>
        <time>2022-06-09T16:23:47Z</time>
      </trkpt>
      <trkpt lat="44.8237" lon="4.07208">
        <ele>1001.9</ele>
        <time>2022-06-09T16:23:49Z</time>
      </trkpt>
      <trkpt lat="44.82371" lon="4.07203">
        <ele>1001.7</ele>
        <time>2022-06-09T16:23:50Z</time>
      </trkpt>
      <trkpt lat="44.82371" lon="4.07192">
        <ele>1001.3</ele>
        <time>2022-06-09T16:23:51Z</time>
      </trkpt>
      <trkpt lat="44.82372" lon="4.07185">
        <ele>1001.2</ele>
        <time>2022-06-09T16:23:52Z</time>
      </trkpt>
      <trkpt lat="44.82373" lon="4.07178">
        <ele>1001.1</ele>
        <time>2022-06-09T16:23:53Z</time>
      </trkpt>
      <trkpt lat="44.82373" lon="4.07169">
        <ele>1001</ele>
        <time>2022-06-09T16:23:55Z</time>
      </trkpt>
      <trkpt lat="44.82373" lon="4.07165">
        <ele>1001</ele>
        <time>2022-06-09T16:23:56Z</time>
      </trkpt>
      <trkpt lat="44.82373" lon="4.07155">
        <ele>1001.1</ele>
        <time>2022-06-09T16:23:58Z</time>
      </trkpt>
      <trkpt lat="44.82373" lon="4.07147">
        <ele>1001.2</ele>
        <time>2022-06-09T16:24:00Z</time>
      </trkpt>
      <trkpt lat="44.82373" lon="4.07145">
        <ele>1001.3</ele>
        <time>2022-06-09T16:24:01Z</time>
      </trkpt>
      <trkpt lat="44.82373" lon="4.07142">
        <ele>1001.4</ele>
        <time>2022-06-09T16:24:02Z</time>
      </trkpt>
      <trkpt lat="44.82373" lon="4.07138">
        <ele>1001.5</ele>
        <time>2022-06-09T16:24:03Z</time>
      </trkpt>
      <trkpt lat="44.82374" lon="4.07129">
        <ele>1001.7</ele>
        <time>2022-06-09T16:24:04Z</time>
      </trkpt>
      <trkpt lat="44.82375" lon="4.07121">
        <ele>1002</ele>
        <time>2022-06-09T16:24:06Z</time>
      </trkpt>
      <trkpt lat="44.82376" lon="4.07118">
        <ele>1002.1</ele>
        <time>2022-06-09T16:24:07Z</time>
      </trkpt>
      <trkpt lat="44.82378" lon="4.07112">
        <ele>1002.4</ele>
        <time>2022-06-09T16:24:09Z</time>
      </trkpt>
      <trkpt lat="44.82378" lon="4.0711">
        <ele>1002.5</ele>
        <time>2022-06-09T16:24:10Z</time>
      </trkpt>
      <trkpt lat="44.82379" lon="4.07108">
        <ele>1002.6</ele>
        <time>2022-06-09T16:24:11Z</time>
      </trkpt>
      <trkpt lat="44.82381" lon="4.07106">
        <ele>1002.8</ele>
        <time>2022-06-09T16:24:12Z</time>
      </trkpt>
      <trkpt lat="44.82383" lon="4.07102">
        <ele>1003</ele>
        <time>2022-06-09T16:24:14Z</time>
      </trkpt>
      <trkpt lat="44.82384" lon="4.07102">
        <ele>1003</ele>
        <time>2022-06-09T16:24:15Z</time>
      </trkpt>
      <trkpt lat="44.82383" lon="4.07098">
        <ele>1003.1</ele>
        <time>2022-06-09T16:24:16Z</time>
      </trkpt>
      <trkpt lat="44.82382" lon="4.07096">
        <ele>1003.2</ele>
        <time>2022-06-09T16:24:17Z</time>
      </trkpt>
      <trkpt lat="44.82381" lon="4.07094">
        <ele>1003.3</ele>
        <time>2022-06-09T16:24:18Z</time>
      </trkpt>
      <trkpt lat="44.82379" lon="4.0709">
        <ele>1003.5</ele>
        <time>2022-06-09T16:24:19Z</time>
      </trkpt>
      <trkpt lat="44.82378" lon="4.07089">
        <ele>1003.5</ele>
        <time>2022-06-09T16:24:20Z</time>
      </trkpt>
      <trkpt lat="44.82376" lon="4.07085">
        <ele>1003.4</ele>
        <time>2022-06-09T16:24:22Z</time>
      </trkpt>
      <trkpt lat="44.82375" lon="4.07085">
        <ele>1003.3</ele>
        <time>2022-06-09T16:24:23Z</time>
      </trkpt>
      <trkpt lat="44.82374" lon="4.07083">
        <ele>1003.2</ele>
        <time>2022-06-09T16:24:24Z</time>
      </trkpt>
      <trkpt lat="44.82373" lon="4.07082">
        <ele>1003.1</ele>
        <time>2022-06-09T16:24:25Z</time>
      </trkpt>
      <trkpt lat="44.82372" lon="4.07078">
        <ele>1002.9</ele>
        <time>2022-06-09T16:24:26Z</time>
      </trkpt>
      <trkpt lat="44.82371" lon="4.07074">
        <ele>1002.6</ele>
        <time>2022-06-09T16:24:27Z</time>
      </trkpt>
      <trkpt lat="44.82371" lon="4.07073">
        <ele>1002.6</ele>
        <time>2022-06-09T16:24:28Z</time>
      </trkpt>
      <trkpt lat="44.82371" lon="4.07068">
        <ele>1002.3</ele>
        <time>2022-06-09T16:24:30Z</time>
      </trkpt>
      <trkpt lat="44.82371" lon="4.07067">
        <ele>1002.2</ele>
        <time>2022-06-09T16:24:31Z</time>
      </trkpt>
      <trkpt lat="44.82371" lon="4.07061">
        <ele>1001.9</ele>
        <time>2022-06-09T16:24:32Z</time>
      </trkpt>
      <trkpt lat="44.82371" lon="4.07058">
        <ele>1001.7</ele>
        <time>2022-06-09T16:24:33Z</time>
      </trkpt>
      <trkpt lat="44.8237" lon="4.07055">
        <ele>1001.5</ele>
        <time>2022-06-09T16:24:34Z</time>
      </trkpt>
      <trkpt lat="44.82371" lon="4.07051">
        <ele>1001.5</ele>
        <time>2022-06-09T16:24:36Z</time>
      </trkpt>
      <trkpt lat="44.82371" lon="4.07049">
        <ele>1001.6</ele>
        <time>2022-06-09T16:24:37Z</time>
      </trkpt>
      <trkpt lat="44.82371" lon="4.07046">
        <ele>1001.7</ele>
        <time>2022-06-09T16:24:38Z</time>
      </trkpt>
      <trkpt lat="44.82371" lon="4.07043">
        <ele>1001.8</ele>
        <time>2022-06-09T16:24:40Z</time>
      </trkpt>
      <trkpt lat="44.8237" lon="4.07037">
        <ele>1002</ele>
        <time>2022-06-09T16:24:41Z</time>
      </trkpt>
      <trkpt lat="44.8237" lon="4.07034">
        <ele>1002.1</ele>
        <time>2022-06-09T16:24:42Z</time>
      </trkpt>
      <trkpt lat="44.82369" lon="4.0703">
        <ele>1002.2</ele>
        <time>2022-06-09T16:24:44Z</time>
      </trkpt>
      <trkpt lat="44.82368" lon="4.07025">
        <ele>1002.3</ele>
        <time>2022-06-09T16:24:45Z</time>
      </trkpt>
      <trkpt lat="44.82368" lon="4.07024">
        <ele>1002.3</ele>
        <time>2022-06-09T16:24:46Z</time>
      </trkpt>
      <trkpt lat="44.82367" lon="4.07019">
        <ele>1002.4</ele>
        <time>2022-06-09T16:24:47Z</time>
      </trkpt>
      <trkpt lat="44.82367" lon="4.07017">
        <ele>1002.4</ele>
        <time>2022-06-09T16:24:48Z</time>
      </trkpt>
      <trkpt lat="44.82366" lon="4.07012">
        <ele>1002.5</ele>
        <time>2022-06-09T16:24:49Z</time>
      </trkpt>
      <trkpt lat="44.82365" lon="4.0701">
        <ele>1002.5</ele>
        <time>2022-06-09T16:24:50Z</time>
      </trkpt>
      <trkpt lat="44.82362" lon="4.07007">
        <ele>1002.5</ele>
        <time>2022-06-09T16:24:51Z</time>
      </trkpt>
      <trkpt lat="44.8236" lon="4.07002">
        <ele>1002.5</ele>
        <time>2022-06-09T16:24:52Z</time>
      </trkpt>
      <trkpt lat="44.82357" lon="4.06997">
        <ele>1002.3</ele>
        <time>2022-06-09T16:24:53Z</time>
      </trkpt>
      <trkpt lat="44.82355" lon="4.06991">
        <ele>1002.2</ele>
        <time>2022-06-09T16:24:54Z</time>
      </trkpt>
      <trkpt lat="44.82353" lon="4.06986">
        <ele>1002</ele>
        <time>2022-06-09T16:24:55Z</time>
      </trkpt>
      <trkpt lat="44.82353" lon="4.06981">
        <ele>1001.9</ele>
        <time>2022-06-09T16:24:56Z</time>
      </trkpt>
      <trkpt lat="44.82352" lon="4.06976">
        <ele>1001.9</ele>
        <time>2022-06-09T16:24:57Z</time>
      </trkpt>
      <trkpt lat="44.82352" lon="4.06971">
        <ele>1001.8</ele>
        <time>2022-06-09T16:24:58Z</time>
      </trkpt>
      <trkpt lat="44.82351" lon="4.06967">
        <ele>1001.8</ele>
        <time>2022-06-09T16:24:59Z</time>
      </trkpt>
      <trkpt lat="44.8235" lon="4.06962">
        <ele>1001.7</ele>
        <time>2022-06-09T16:25:00Z</time>
      </trkpt>
      <trkpt lat="44.82349" lon="4.06955">
        <ele>1001.7</ele>
        <time>2022-06-09T16:25:01Z</time>
      </trkpt>
      <trkpt lat="44.82348" lon="4.06951">
        <ele>1001.7</ele>
        <time>2022-06-09T16:25:03Z</time>
      </trkpt>
      <trkpt lat="44.82346" lon="4.06945">
        <ele>1001.8</ele>
        <time>2022-06-09T16:25:04Z</time>
      </trkpt>
      <trkpt lat="44.82346" lon="4.06942">
        <ele>1001.8</ele>
        <time>2022-06-09T16:25:05Z</time>
      </trkpt>
      <trkpt lat="44.82344" lon="4.06936">
        <ele>1001.9</ele>
        <time>2022-06-09T16:25:07Z</time>
      </trkpt>
      <trkpt lat="44.82343" lon="4.06933">
        <ele>1002</ele>
        <time>2022-06-09T16:25:08Z</time>
      </trkpt>
      <trkpt lat="44.82343" lon="4.06931">
        <ele>1002</ele>
        <time>2022-06-09T16:25:09Z</time>
      </trkpt>
      <trkpt lat="44.82342" lon="4.06926">
        <ele>1002.1</ele>
        <time>2022-06-09T16:25:10Z</time>
      </trkpt>
      <trkpt lat="44.82342" lon="4.06925">
        <ele>1002.1</ele>
        <time>2022-06-09T16:25:11Z</time>
      </trkpt>
      <trkpt lat="44.82341" lon="4.06922">
        <ele>1002.2</ele>
        <time>2022-06-09T16:25:12Z</time>
      </trkpt>
      <trkpt lat="44.8234" lon="4.06917">
        <ele>1002.3</ele>
        <time>2022-06-09T16:25:14Z</time>
      </trkpt>
      <trkpt lat="44.82339" lon="4.06914">
        <ele>1002.5</ele>
        <time>2022-06-09T16:25:15Z</time>
      </trkpt>
      <trkpt lat="44.82338" lon="4.0691">
        <ele>1002.5</ele>
        <time>2022-06-09T16:25:17Z</time>
      </trkpt>
      <trkpt lat="44.82337" lon="4.06909">
        <ele>1002.6</ele>
        <time>2022-06-09T16:25:18Z</time>
      </trkpt>
      <trkpt lat="44.82336" lon="4.06904">
        <ele>1002.6</ele>
        <time>2022-06-09T16:25:19Z</time>
      </trkpt>
      <trkpt lat="44.82335" lon="4.06902">
        <ele>1002.6</ele>
        <time>2022-06-09T16:25:20Z</time>
      </trkpt>
      <trkpt lat="44.82334" lon="4.06898">
        <ele>1002.6</ele>
        <time>2022-06-09T16:25:22Z</time>
      </trkpt>
      <trkpt lat="44.82333" lon="4.06896">
        <ele>1002.6</ele>
        <time>2022-06-09T16:25:23Z</time>
      </trkpt>
      <trkpt lat="44.82332" lon="4.06892">
        <ele>1002.6</ele>
        <time>2022-06-09T16:25:25Z</time>
      </trkpt>
      <trkpt lat="44.82331" lon="4.0689">
        <ele>1002.7</ele>
        <time>2022-06-09T16:25:26Z</time>
      </trkpt>
      <trkpt lat="44.82331" lon="4.06889">
        <ele>1002.7</ele>
        <time>2022-06-09T16:25:27Z</time>
      </trkpt>
      <trkpt lat="44.82331" lon="4.06888">
        <ele>1002.7</ele>
        <time>2022-06-09T16:25:28Z</time>
      </trkpt>
      <trkpt lat="44.8233" lon="4.06888">
        <ele>1002.7</ele>
        <time>2022-06-09T16:25:29Z</time>
      </trkpt>
      <trkpt lat="44.8233" lon="4.06888">
        <ele>1002.7</ele>
        <time>2022-06-09T16:25:30Z</time>
      </trkpt>
      <trkpt lat="44.8233" lon="4.06888">
        <ele>1002.7</ele>
        <time>2022-06-09T16:25:31Z</time>
      </trkpt>
      <trkpt lat="44.8233" lon="4.06888">
        <ele>1002.7</ele>
        <time>2022-06-09T16:25:32Z</time>
      </trkpt>
      <trkpt lat="44.8233" lon="4.06889">
        <ele>1002.7</ele>
        <time>2022-06-09T16:25:33Z</time>
      </trkpt>
      <trkpt lat="44.8233" lon="4.06889">
        <ele>1002.7</ele>
        <time>2022-06-09T16:25:34Z</time>
      </trkpt>
      <trkpt lat="44.8233" lon="4.06889">
        <ele>1002.7</ele>
        <time>2022-06-09T16:25:35Z</time>
      </trkpt>
      <trkpt lat="44.8233" lon="4.06889">
        <ele>1002.7</ele>
        <time>2022-06-09T16:25:36Z</time>
      </trkpt>
      <trkpt lat="44.8233" lon="4.06889">
        <ele>1002.7</ele>
        <time>2022-06-09T16:25:37Z</time>
      </trkpt>
      <trkpt lat="44.8233" lon="4.06889">
        <ele>1002.7</ele>
        <time>2022-06-09T16:25:38Z</time>
      </trkpt>
      <trkpt lat="44.8233" lon="4.06889">
        <ele>1002.7</ele>
        <time>2022-06-09T16:25:39Z</time>
      </trkpt>
      <trkpt lat="44.82331" lon="4.06892">
        <ele>1002.7</ele>
        <time>2022-06-09T16:25:55Z</time>
      </trkpt>
      <trkpt lat="44.82331" lon="4.06892">
        <ele>1002.7</ele>
        <time>2022-06-09T16:25:56Z</time>
      </trkpt>
      <trkpt lat="44.82331" lon="4.06892">
        <ele>1002.7</ele>
        <time>2022-06-09T16:25:57Z</time>
      </trkpt>
      <trkpt lat="44.82331" lon="4.06891">
        <ele>1002.7</ele>
        <time>2022-06-09T16:25:58Z</time>
      </trkpt>
      <trkpt lat="44.82332" lon="4.06892">
        <ele>1002.7</ele>
        <time>2022-06-09T16:25:59Z</time>
      </trkpt>
      <trkpt lat="44.82333" lon="4.06894">
        <ele>1002.7</ele>
        <time>2022-06-09T16:26:01Z</time>
      </trkpt>
      <trkpt lat="44.82333" lon="4.06895">
        <ele>1002.7</ele>
        <time>2022-06-09T16:26:02Z</time>
      </trkpt>
      <trkpt lat="44.82334" lon="4.06896">
        <ele>1002.7</ele>
        <time>2022-06-09T16:26:03Z</time>
      </trkpt>
      <trkpt lat="44.82336" lon="4.06898">
        <ele>1002.7</ele>
        <time>2022-06-09T16:26:04Z</time>
      </trkpt>
      <trkpt lat="44.82338" lon="4.06899">
        <ele>1002.7</ele>
        <time>2022-06-09T16:26:05Z</time>
      </trkpt>
      <trkpt lat="44.8234" lon="4.069">
        <ele>1002.7</ele>
        <time>2022-06-09T16:26:07Z</time>
      </trkpt>
      <trkpt lat="44.82341" lon="4.06901">
        <ele>1002.7</ele>
        <time>2022-06-09T16:26:08Z</time>
      </trkpt>
      <trkpt lat="44.82343" lon="4.06902">
        <ele>1002.7</ele>
        <time>2022-06-09T16:26:09Z</time>
      </trkpt>
      <trkpt lat="44.82344" lon="4.06903">
        <ele>1002.7</ele>
        <time>2022-06-09T16:26:11Z</time>
      </trkpt>
      <trkpt lat="44.82345" lon="4.06904">
        <ele>1002.7</ele>
        <time>2022-06-09T16:26:12Z</time>
      </trkpt>
      <trkpt lat="44.82346" lon="4.06904">
        <ele>1002.7</ele>
        <time>2022-06-09T16:26:13Z</time>
      </trkpt>
      <trkpt lat="44.82348" lon="4.06905">
        <ele>1002.7</ele>
        <time>2022-06-09T16:26:14Z</time>
      </trkpt>
      <trkpt lat="44.82349" lon="4.06904">
        <ele>1002.7</ele>
        <time>2022-06-09T16:26:16Z</time>
      </trkpt>
      <trkpt lat="44.8235" lon="4.06903">
        <ele>1002.8</ele>
        <time>2022-06-09T16:26:17Z</time>
      </trkpt>
      <trkpt lat="44.8235" lon="4.06901">
        <ele>1002.8</ele>
        <time>2022-06-09T16:26:18Z</time>
      </trkpt>
      <trkpt lat="44.82351" lon="4.069">
        <ele>1002.8</ele>
        <time>2022-06-09T16:26:20Z</time>
      </trkpt>
      <trkpt lat="44.82351" lon="4.06898">
        <ele>1002.8</ele>
        <time>2022-06-09T16:26:21Z</time>
      </trkpt>
      <trkpt lat="44.82351" lon="4.06896">
        <ele>1002.8</ele>
        <time>2022-06-09T16:26:22Z</time>
      </trkpt>
      <trkpt lat="44.82351" lon="4.06895">
        <ele>1002.8</ele>
        <time>2022-06-09T16:26:23Z</time>
      </trkpt>
      <trkpt lat="44.82351" lon="4.06892">
        <ele>1002.8</ele>
        <time>2022-06-09T16:26:24Z</time>
      </trkpt>
      <trkpt lat="44.8235" lon="4.0689">
        <ele>1002.8</ele>
        <time>2022-06-09T16:26:26Z</time>
      </trkpt>
      <trkpt lat="44.8235" lon="4.06887">
        <ele>1002.8</ele>
        <time>2022-06-09T16:26:27Z</time>
      </trkpt>
      <trkpt lat="44.8235" lon="4.06886">
        <ele>1002.8</ele>
        <time>2022-06-09T16:26:28Z</time>
      </trkpt>
      <trkpt lat="44.82349" lon="4.06884">
        <ele>1002.8</ele>
        <time>2022-06-09T16:26:29Z</time>
      </trkpt>
      <trkpt lat="44.82349" lon="4.06883">
        <ele>1002.8</ele>
        <time>2022-06-09T16:26:30Z</time>
      </trkpt>
      <trkpt lat="44.82349" lon="4.06881">
        <ele>1002.8</ele>
        <time>2022-06-09T16:26:31Z</time>
      </trkpt>
      <trkpt lat="44.82349" lon="4.0688">
        <ele>1002.8</ele>
        <time>2022-06-09T16:26:32Z</time>
      </trkpt>
      <trkpt lat="44.82348" lon="4.06879">
        <ele>1002.8</ele>
        <time>2022-06-09T16:26:33Z</time>
      </trkpt>
      <trkpt lat="44.82348" lon="4.06877">
        <ele>1002.8</ele>
        <time>2022-06-09T16:26:34Z</time>
      </trkpt>
      <trkpt lat="44.82347" lon="4.06875">
        <ele>1002.8</ele>
        <time>2022-06-09T16:26:36Z</time>
      </trkpt>
      <trkpt lat="44.82346" lon="4.06874">
        <ele>1002.8</ele>
        <time>2022-06-09T16:26:37Z</time>
      </trkpt>
      <trkpt lat="44.82346" lon="4.06871">
        <ele>1002.9</ele>
        <time>2022-06-09T16:26:38Z</time>
      </trkpt>
      <trkpt lat="44.82345" lon="4.0687">
        <ele>1002.9</ele>
        <time>2022-06-09T16:26:40Z</time>
      </trkpt>
      <trkpt lat="44.82345" lon="4.06869">
        <ele>1002.9</ele>
        <time>2022-06-09T16:26:41Z</time>
      </trkpt>
      <trkpt lat="44.82344" lon="4.06867">
        <ele>1002.9</ele>
        <time>2022-06-09T16:26:42Z</time>
      </trkpt>
      <trkpt lat="44.82344" lon="4.06866">
        <ele>1002.9</ele>
        <time>2022-06-09T16:26:43Z</time>
      </trkpt>
      <trkpt lat="44.82344" lon="4.06864">
        <ele>1002.9</ele>
        <time>2022-06-09T16:26:44Z</time>
      </trkpt>
      <trkpt lat="44.82344" lon="4.06863">
        <ele>1002.9</ele>
        <time>2022-06-09T16:26:45Z</time>
      </trkpt>
      <trkpt lat="44.82344" lon="4.06861">
        <ele>1002.9</ele>
        <time>2022-06-09T16:26:46Z</time>
      </trkpt>
      <trkpt lat="44.82343" lon="4.0686">
        <ele>1002.9</ele>
        <time>2022-06-09T16:26:47Z</time>
      </trkpt>
      <trkpt lat="44.82343" lon="4.06859">
        <ele>1002.9</ele>
        <time>2022-06-09T16:26:48Z</time>
      </trkpt>
      <trkpt lat="44.82342" lon="4.06859">
        <ele>1002.9</ele>
        <time>2022-06-09T16:26:49Z</time>
      </trkpt>
      <trkpt lat="44.82342" lon="4.06858">
        <ele>1002.9</ele>
        <time>2022-06-09T16:26:50Z</time>
      </trkpt>
      <trkpt lat="44.82341" lon="4.06857">
        <ele>1002.9</ele>
        <time>2022-06-09T16:26:51Z</time>
      </trkpt>
      <trkpt lat="44.8234" lon="4.06856">
        <ele>1002.9</ele>
        <time>2022-06-09T16:26:52Z</time>
      </trkpt>
      <trkpt lat="44.8234" lon="4.06855">
        <ele>1002.9</ele>
        <time>2022-06-09T16:26:53Z</time>
      </trkpt>
      <trkpt lat="44.82339" lon="4.06853">
        <ele>1003</ele>
        <time>2022-06-09T16:26:54Z</time>
      </trkpt>
      <trkpt lat="44.82338" lon="4.06852">
        <ele>1003</ele>
        <time>2022-06-09T16:26:56Z</time>
      </trkpt>
      <trkpt lat="44.82338" lon="4.06851">
        <ele>1003</ele>
        <time>2022-06-09T16:26:57Z</time>
      </trkpt>
      <trkpt lat="44.82337" lon="4.0685">
        <ele>1003</ele>
        <time>2022-06-09T16:26:58Z</time>
      </trkpt>
      <trkpt lat="44.82336" lon="4.06848">
        <ele>1003</ele>
        <time>2022-06-09T16:26:59Z</time>
      </trkpt>
      <trkpt lat="44.82336" lon="4.06847">
        <ele>1003</ele>
        <time>2022-06-09T16:27:00Z</time>
      </trkpt>
      <trkpt lat="44.82335" lon="4.06845">
        <ele>1003</ele>
        <time>2022-06-09T16:27:01Z</time>
      </trkpt>
      <trkpt lat="44.82333" lon="4.06842">
        <ele>1003</ele>
        <time>2022-06-09T16:27:02Z</time>
      </trkpt>
      <trkpt lat="44.82333" lon="4.06841">
        <ele>1003.1</ele>
        <time>2022-06-09T16:27:03Z</time>
      </trkpt>
      <trkpt lat="44.82333" lon="4.0684">
        <ele>1003.1</ele>
        <time>2022-06-09T16:27:04Z</time>
      </trkpt>
      <trkpt lat="44.82331" lon="4.0684">
        <ele>1003.1</ele>
        <time>2022-06-09T16:27:06Z</time>
      </trkpt>
      <trkpt lat="44.8233" lon="4.0684">
        <ele>1003.1</ele>
        <time>2022-06-09T16:27:07Z</time>
      </trkpt>
      <trkpt lat="44.82329" lon="4.0684">
        <ele>1003.1</ele>
        <time>2022-06-09T16:27:08Z</time>
      </trkpt>
      <trkpt lat="44.82328" lon="4.06839">
        <ele>1003.1</ele>
        <time>2022-06-09T16:27:09Z</time>
      </trkpt>
      <trkpt lat="44.82327" lon="4.06839">
        <ele>1003.1</ele>
        <time>2022-06-09T16:27:11Z</time>
      </trkpt>
      <trkpt lat="44.82326" lon="4.06838">
        <ele>1003.1</ele>
        <time>2022-06-09T16:27:12Z</time>
      </trkpt>
      <trkpt lat="44.82325" lon="4.06837">
        <ele>1003.2</ele>
        <time>2022-06-09T16:27:13Z</time>
      </trkpt>
      <trkpt lat="44.82324" lon="4.06836">
        <ele>1003.2</ele>
        <time>2022-06-09T16:27:14Z</time>
      </trkpt>
      <trkpt lat="44.82324" lon="4.06835">
        <ele>1003.2</ele>
        <time>2022-06-09T16:27:15Z</time>
      </trkpt>
      <trkpt lat="44.82323" lon="4.06834">
        <ele>1003.2</ele>
        <time>2022-06-09T16:27:16Z</time>
      </trkpt>
      <trkpt lat="44.82321" lon="4.06832">
        <ele>1003.2</ele>
        <time>2022-06-09T16:27:18Z</time>
      </trkpt>
      <trkpt lat="44.8232" lon="4.06831">
        <ele>1003.2</ele>
        <time>2022-06-09T16:27:19Z</time>
      </trkpt>
      <trkpt lat="44.82318" lon="4.0683">
        <ele>1003.3</ele>
        <time>2022-06-09T16:27:20Z</time>
      </trkpt>
      <trkpt lat="44.82317" lon="4.0683">
        <ele>1003.3</ele>
        <time>2022-06-09T16:27:22Z</time>
      </trkpt>
      <trkpt lat="44.82316" lon="4.0683">
        <ele>1003.3</ele>
        <time>2022-06-09T16:27:23Z</time>
      </trkpt>
      <trkpt lat="44.82313" lon="4.06828">
        <ele>1003.4</ele>
        <time>2022-06-09T16:27:25Z</time>
      </trkpt>
      <trkpt lat="44.82312" lon="4.06827">
        <ele>1003.4</ele>
        <time>2022-06-09T16:27:26Z</time>
      </trkpt>
      <trkpt lat="44.82311" lon="4.06827">
        <ele>1003.4</ele>
        <time>2022-06-09T16:27:28Z</time>
      </trkpt>
      <trkpt lat="44.8231" lon="4.06826">
        <ele>1003.4</ele>
        <time>2022-06-09T16:27:29Z</time>
      </trkpt>
      <trkpt lat="44.82309" lon="4.06826">
        <ele>1003.4</ele>
        <time>2022-06-09T16:27:30Z</time>
      </trkpt>
      <trkpt lat="44.82309" lon="4.06826">
        <ele>1003.4</ele>
        <time>2022-06-09T16:27:31Z</time>
      </trkpt>
      <trkpt lat="44.82308" lon="4.06825">
        <ele>1003.4</ele>
        <time>2022-06-09T16:27:32Z</time>
      </trkpt>
      <trkpt lat="44.82307" lon="4.06825">
        <ele>1003.4</ele>
        <time>2022-06-09T16:27:33Z</time>
      </trkpt>
      <trkpt lat="44.82306" lon="4.06825">
        <ele>1003.4</ele>
        <time>2022-06-09T16:27:34Z</time>
      </trkpt>
      <trkpt lat="44.82306" lon="4.06825">
        <ele>1003.5</ele>
        <time>2022-06-09T16:27:35Z</time>
      </trkpt>
      <trkpt lat="44.82305" lon="4.06824">
        <ele>1003.5</ele>
        <time>2022-06-09T16:27:36Z</time>
      </trkpt>
      <trkpt lat="44.82305" lon="4.06824">
        <ele>1003.5</ele>
        <time>2022-06-09T16:27:37Z</time>
      </trkpt>
      <trkpt lat="44.82304" lon="4.06824">
        <ele>1003.5</ele>
        <time>2022-06-09T16:27:38Z</time>
      </trkpt>
      <trkpt lat="44.82304" lon="4.06824">
        <ele>1003.5</ele>
        <time>2022-06-09T16:27:39Z</time>
      </trkpt>
      <trkpt lat="44.82304" lon="4.06823">
        <ele>1003.5</ele>
        <time>2022-06-09T16:27:40Z</time>
      </trkpt>
      <trkpt lat="44.82302" lon="4.06822">
        <ele>1003.5</ele>
        <time>2022-06-09T16:27:41Z</time>
      </trkpt>
      <trkpt lat="44.82301" lon="4.06821">
        <ele>1003.5</ele>
        <time>2022-06-09T16:27:43Z</time>
      </trkpt>
      <trkpt lat="44.823" lon="4.0682">
        <ele>1003.5</ele>
        <time>2022-06-09T16:27:44Z</time>
      </trkpt>
      <trkpt lat="44.82299" lon="4.0682">
        <ele>1003.5</ele>
        <time>2022-06-09T16:27:46Z</time>
      </trkpt>
      <trkpt lat="44.82299" lon="4.06819">
        <ele>1003.5</ele>
        <time>2022-06-09T16:27:47Z</time>
      </trkpt>
      <trkpt lat="44.82298" lon="4.06818">
        <ele>1003.5</ele>
        <time>2022-06-09T16:27:48Z</time>
      </trkpt>
      <trkpt lat="44.82297" lon="4.06817">
        <ele>1003.5</ele>
        <time>2022-06-09T16:27:49Z</time>
      </trkpt>
      <trkpt lat="44.82296" lon="4.06816">
        <ele>1003.6</ele>
        <time>2022-06-09T16:27:50Z</time>
      </trkpt>
      <trkpt lat="44.82295" lon="4.06815">
        <ele>1003.6</ele>
        <time>2022-06-09T16:27:52Z</time>
      </trkpt>
      <trkpt lat="44.82293" lon="4.06813">
        <ele>1003.6</ele>
        <time>2022-06-09T16:27:53Z</time>
      </trkpt>
      <trkpt lat="44.82292" lon="4.06812">
        <ele>1003.6</ele>
        <time>2022-06-09T16:27:54Z</time>
      </trkpt>
      <trkpt lat="44.8229" lon="4.06811">
        <ele>1003.6</ele>
        <time>2022-06-09T16:27:55Z</time>
      </trkpt>
      <trkpt lat="44.82289" lon="4.0681">
        <ele>1003.6</ele>
        <time>2022-06-09T16:27:57Z</time>
      </trkpt>
      <trkpt lat="44.82288" lon="4.06809">
        <ele>1003.6</ele>
        <time>2022-06-09T16:27:58Z</time>
      </trkpt>
      <trkpt lat="44.82287" lon="4.06808">
        <ele>1003.6</ele>
        <time>2022-06-09T16:27:59Z</time>
      </trkpt>
      <trkpt lat="44.82286" lon="4.06807">
        <ele>1003.6</ele>
        <time>2022-06-09T16:28:01Z</time>
      </trkpt>
      <trkpt lat="44.82285" lon="4.06808">
        <ele>1003.6</ele>
        <time>2022-06-09T16:28:02Z</time>
      </trkpt>
      <trkpt lat="44.82285" lon="4.06808">
        <ele>1003.6</ele>
        <time>2022-06-09T16:28:03Z</time>
      </trkpt>
      <trkpt lat="44.82284" lon="4.06808">
        <ele>1003.6</ele>
        <time>2022-06-09T16:28:04Z</time>
      </trkpt>
      <trkpt lat="44.82283" lon="4.06808">
        <ele>1003.6</ele>
        <time>2022-06-09T16:28:06Z</time>
      </trkpt>
      <trkpt lat="44.82283" lon="4.06808">
        <ele>1003.6</ele>
        <time>2022-06-09T16:28:07Z</time>
      </trkpt>
      <trkpt lat="44.82283" lon="4.06808">
        <ele>1003.6</ele>
        <time>2022-06-09T16:28:08Z</time>
      </trkpt>
      <trkpt lat="44.82284" lon="4.06808">
        <ele>1003.6</ele>
        <time>2022-06-09T16:28:09Z</time>
      </trkpt>
      <trkpt lat="44.82283" lon="4.06808">
        <ele>1003.6</ele>
        <time>2022-06-09T16:28:10Z</time>
      </trkpt>
      <trkpt lat="44.82283" lon="4.06808">
        <ele>1003.6</ele>
        <time>2022-06-09T16:28:11Z</time>
      </trkpt>
      <trkpt lat="44.82283" lon="4.06808">
        <ele>1003.6</ele>
        <time>2022-06-09T16:28:12Z</time>
      </trkpt>
      <trkpt lat="44.82283" lon="4.06808">
        <ele>1003.6</ele>
        <time>2022-06-09T16:28:13Z</time>
      </trkpt>
      <trkpt lat="44.82283" lon="4.06808">
        <ele>1003.6</ele>
        <time>2022-06-09T16:28:14Z</time>
      </trkpt>
      <trkpt lat="44.82283" lon="4.06809">
        <ele>1003.6</ele>
        <time>2022-06-09T16:28:15Z</time>
      </trkpt>
      <trkpt lat="44.82283" lon="4.06809">
        <ele>1003.6</ele>
        <time>2022-06-09T16:28:16Z</time>
      </trkpt>
    </trkseg>
  </trk>
</gpx>